<?xml version="1.0" encoding="UTF-8" standalone="no" ?>
<gpx xmlns="http://www.topografix.com/GPX/1/1" xmlns:xsi="http://www.w3.org/2001/XMLSchema-instance" xsi:schemaLocation="http://www.topografix.com/GPX/1/1 http://www.topografix.com/GPX/1/1/gpx.xsd" version="1.1" creator="VisuGPX - https://www.visugpx.com">
  <metadata>
    <name>FONTIERS D'AUDE le 12.08.2019 - ACFC</name>
    <desc><![CDATA[Sortie dans la Montagne Noire sous de magnifiques sous-bois. Peut également se faire en randonnée]]></desc>
  </metadata>
  <trk>
    <name><![CDATA[TrailRunning]]></name>
    <trkseg>
      <trkpt lat="43.37004" lon="2.24773">
        <ele>615.9</ele>
        <time>2019-08-11T06:03:56.000Z</time>
      </trkpt>
      <trkpt lat="43.37004" lon="2.24772">
        <ele>615.9</ele>
        <time>2019-08-11T06:03:57.000Z</time>
      </trkpt>
      <trkpt lat="43.37004" lon="2.24771">
        <ele>616</ele>
        <time>2019-08-11T06:03:58.000Z</time>
      </trkpt>
      <trkpt lat="43.37004" lon="2.24771">
        <ele>616</ele>
        <time>2019-08-11T06:03:59.000Z</time>
      </trkpt>
      <trkpt lat="43.37003" lon="2.2477">
        <ele>616.1</ele>
        <time>2019-08-11T06:04:00.000Z</time>
      </trkpt>
      <trkpt lat="43.37003" lon="2.2477">
        <ele>616.1</ele>
        <time>2019-08-11T06:04:01.000Z</time>
      </trkpt>
      <trkpt lat="43.37003" lon="2.2477">
        <ele>616.2</ele>
        <time>2019-08-11T06:04:02.000Z</time>
      </trkpt>
      <trkpt lat="43.37003" lon="2.24769">
        <ele>616.2</ele>
        <time>2019-08-11T06:04:03.000Z</time>
      </trkpt>
      <trkpt lat="43.37003" lon="2.24769">
        <ele>616.2</ele>
        <time>2019-08-11T06:04:04.000Z</time>
      </trkpt>
      <trkpt lat="43.37003" lon="2.24769">
        <ele>616.2</ele>
        <time>2019-08-11T06:04:05.000Z</time>
      </trkpt>
      <trkpt lat="43.37003" lon="2.24769">
        <ele>616.2</ele>
        <time>2019-08-11T06:04:06.000Z</time>
      </trkpt>
      <trkpt lat="43.37004" lon="2.24769">
        <ele>616.3</ele>
        <time>2019-08-11T06:04:07.000Z</time>
      </trkpt>
      <trkpt lat="43.37004" lon="2.24768">
        <ele>616.3</ele>
        <time>2019-08-11T06:04:08.000Z</time>
      </trkpt>
      <trkpt lat="43.37004" lon="2.24768">
        <ele>616.3</ele>
        <time>2019-08-11T06:04:09.000Z</time>
      </trkpt>
      <trkpt lat="43.37004" lon="2.24768">
        <ele>616.3</ele>
        <time>2019-08-11T06:04:10.000Z</time>
      </trkpt>
      <trkpt lat="43.37004" lon="2.24768">
        <ele>616.3</ele>
        <time>2019-08-11T06:04:11.000Z</time>
      </trkpt>
      <trkpt lat="43.37004" lon="2.24768">
        <ele>616.3</ele>
        <time>2019-08-11T06:04:12.000Z</time>
      </trkpt>
      <trkpt lat="43.37004" lon="2.24768">
        <ele>616.3</ele>
        <time>2019-08-11T06:04:13.000Z</time>
      </trkpt>
      <trkpt lat="43.37004" lon="2.24769">
        <ele>616.3</ele>
        <time>2019-08-11T06:04:14.000Z</time>
      </trkpt>
      <trkpt lat="43.37003" lon="2.24769">
        <ele>616.3</ele>
        <time>2019-08-11T06:04:15.000Z</time>
      </trkpt>
      <trkpt lat="43.37003" lon="2.24769">
        <ele>616.3</ele>
        <time>2019-08-11T06:04:16.000Z</time>
      </trkpt>
      <trkpt lat="43.37003" lon="2.24769">
        <ele>616.2</ele>
        <time>2019-08-11T06:04:17.000Z</time>
      </trkpt>
      <trkpt lat="43.37003" lon="2.24769">
        <ele>616.2</ele>
        <time>2019-08-11T06:04:18.000Z</time>
      </trkpt>
      <trkpt lat="43.37003" lon="2.24769">
        <ele>616.2</ele>
        <time>2019-08-11T06:04:19.000Z</time>
      </trkpt>
      <trkpt lat="43.37002" lon="2.24769">
        <ele>616.2</ele>
        <time>2019-08-11T06:04:20.000Z</time>
      </trkpt>
      <trkpt lat="43.37002" lon="2.24769">
        <ele>616.2</ele>
        <time>2019-08-11T06:04:21.000Z</time>
      </trkpt>
      <trkpt lat="43.37002" lon="2.24769">
        <ele>616.2</ele>
        <time>2019-08-11T06:04:22.000Z</time>
      </trkpt>
      <trkpt lat="43.37001" lon="2.24769">
        <ele>616.2</ele>
        <time>2019-08-11T06:04:23.000Z</time>
      </trkpt>
      <trkpt lat="43.37001" lon="2.24769">
        <ele>616.2</ele>
        <time>2019-08-11T06:04:24.000Z</time>
      </trkpt>
      <trkpt lat="43.37" lon="2.24769">
        <ele>616.2</ele>
        <time>2019-08-11T06:04:25.000Z</time>
      </trkpt>
      <trkpt lat="43.36999" lon="2.24769">
        <ele>616.1</ele>
        <time>2019-08-11T06:04:26.000Z</time>
      </trkpt>
      <trkpt lat="43.36999" lon="2.24769">
        <ele>616.1</ele>
        <time>2019-08-11T06:04:27.000Z</time>
      </trkpt>
      <trkpt lat="43.36998" lon="2.24769">
        <ele>616.1</ele>
        <time>2019-08-11T06:04:28.000Z</time>
      </trkpt>
      <trkpt lat="43.36997" lon="2.24769">
        <ele>616</ele>
        <time>2019-08-11T06:04:29.000Z</time>
      </trkpt>
      <trkpt lat="43.36996" lon="2.24769">
        <ele>616</ele>
        <time>2019-08-11T06:04:30.000Z</time>
      </trkpt>
      <trkpt lat="43.36995" lon="2.24769">
        <ele>616</ele>
        <time>2019-08-11T06:04:31.000Z</time>
      </trkpt>
      <trkpt lat="43.36994" lon="2.24769">
        <ele>616</ele>
        <time>2019-08-11T06:04:32.000Z</time>
      </trkpt>
      <trkpt lat="43.36993" lon="2.24768">
        <ele>615.9</ele>
        <time>2019-08-11T06:04:33.000Z</time>
      </trkpt>
      <trkpt lat="43.36992" lon="2.24768">
        <ele>615.9</ele>
        <time>2019-08-11T06:04:34.000Z</time>
      </trkpt>
      <trkpt lat="43.36991" lon="2.24768">
        <ele>615.9</ele>
        <time>2019-08-11T06:04:35.000Z</time>
      </trkpt>
      <trkpt lat="43.3699" lon="2.24768">
        <ele>615.9</ele>
        <time>2019-08-11T06:04:36.000Z</time>
      </trkpt>
      <trkpt lat="43.36989" lon="2.24768">
        <ele>615.8</ele>
        <time>2019-08-11T06:04:37.000Z</time>
      </trkpt>
      <trkpt lat="43.36988" lon="2.24767">
        <ele>615.8</ele>
        <time>2019-08-11T06:04:38.000Z</time>
      </trkpt>
      <trkpt lat="43.36987" lon="2.24767">
        <ele>615.8</ele>
        <time>2019-08-11T06:04:39.000Z</time>
      </trkpt>
      <trkpt lat="43.36987" lon="2.24767">
        <ele>615.8</ele>
        <time>2019-08-11T06:04:40.000Z</time>
      </trkpt>
      <trkpt lat="43.36986" lon="2.24766">
        <ele>615.8</ele>
        <time>2019-08-11T06:04:41.000Z</time>
      </trkpt>
      <trkpt lat="43.36985" lon="2.24766">
        <ele>615.8</ele>
        <time>2019-08-11T06:04:42.000Z</time>
      </trkpt>
      <trkpt lat="43.36984" lon="2.24765">
        <ele>615.8</ele>
        <time>2019-08-11T06:04:43.000Z</time>
      </trkpt>
      <trkpt lat="43.36983" lon="2.24765">
        <ele>615.8</ele>
        <time>2019-08-11T06:04:44.000Z</time>
      </trkpt>
      <trkpt lat="43.36982" lon="2.24765">
        <ele>615.8</ele>
        <time>2019-08-11T06:04:45.000Z</time>
      </trkpt>
      <trkpt lat="43.36981" lon="2.24764">
        <ele>615.8</ele>
        <time>2019-08-11T06:04:46.000Z</time>
      </trkpt>
      <trkpt lat="43.3698" lon="2.24764">
        <ele>615.8</ele>
        <time>2019-08-11T06:04:47.000Z</time>
      </trkpt>
      <trkpt lat="43.36979" lon="2.24763">
        <ele>615.8</ele>
        <time>2019-08-11T06:04:48.000Z</time>
      </trkpt>
      <trkpt lat="43.36978" lon="2.24763">
        <ele>615.8</ele>
        <time>2019-08-11T06:04:49.000Z</time>
      </trkpt>
      <trkpt lat="43.36977" lon="2.24762">
        <ele>615.8</ele>
        <time>2019-08-11T06:04:50.000Z</time>
      </trkpt>
      <trkpt lat="43.36976" lon="2.24762">
        <ele>615.8</ele>
        <time>2019-08-11T06:04:51.000Z</time>
      </trkpt>
      <trkpt lat="43.36975" lon="2.24761">
        <ele>615.8</ele>
        <time>2019-08-11T06:04:52.000Z</time>
      </trkpt>
      <trkpt lat="43.36974" lon="2.24761">
        <ele>615.8</ele>
        <time>2019-08-11T06:04:53.000Z</time>
      </trkpt>
      <trkpt lat="43.36973" lon="2.2476">
        <ele>615.8</ele>
        <time>2019-08-11T06:04:54.000Z</time>
      </trkpt>
      <trkpt lat="43.36972" lon="2.2476">
        <ele>615.8</ele>
        <time>2019-08-11T06:04:55.000Z</time>
      </trkpt>
      <trkpt lat="43.36971" lon="2.24759">
        <ele>615.8</ele>
        <time>2019-08-11T06:04:56.000Z</time>
      </trkpt>
      <trkpt lat="43.3697" lon="2.24758">
        <ele>615.8</ele>
        <time>2019-08-11T06:04:57.000Z</time>
      </trkpt>
      <trkpt lat="43.36968" lon="2.24757">
        <ele>615.8</ele>
        <time>2019-08-11T06:04:58.000Z</time>
      </trkpt>
      <trkpt lat="43.36967" lon="2.24756">
        <ele>615.8</ele>
        <time>2019-08-11T06:04:59.000Z</time>
      </trkpt>
      <trkpt lat="43.36966" lon="2.24755">
        <ele>615.9</ele>
        <time>2019-08-11T06:05:00.000Z</time>
      </trkpt>
      <trkpt lat="43.36964" lon="2.24753">
        <ele>616</ele>
        <time>2019-08-11T06:05:01.000Z</time>
      </trkpt>
      <trkpt lat="43.36963" lon="2.24752">
        <ele>616.1</ele>
        <time>2019-08-11T06:05:02.000Z</time>
      </trkpt>
      <trkpt lat="43.36962" lon="2.2475">
        <ele>616.2</ele>
        <time>2019-08-11T06:05:03.000Z</time>
      </trkpt>
      <trkpt lat="43.3696" lon="2.24748">
        <ele>616.3</ele>
        <time>2019-08-11T06:05:04.000Z</time>
      </trkpt>
      <trkpt lat="43.36959" lon="2.24746">
        <ele>616.4</ele>
        <time>2019-08-11T06:05:05.000Z</time>
      </trkpt>
      <trkpt lat="43.36958" lon="2.24743">
        <ele>616.5</ele>
        <time>2019-08-11T06:05:06.000Z</time>
      </trkpt>
      <trkpt lat="43.36957" lon="2.24741">
        <ele>616.6</ele>
        <time>2019-08-11T06:05:07.000Z</time>
      </trkpt>
      <trkpt lat="43.36956" lon="2.24739">
        <ele>616.8</ele>
        <time>2019-08-11T06:05:08.000Z</time>
      </trkpt>
      <trkpt lat="43.36955" lon="2.24736">
        <ele>616.9</ele>
        <time>2019-08-11T06:05:09.000Z</time>
      </trkpt>
      <trkpt lat="43.36955" lon="2.24734">
        <ele>617.1</ele>
        <time>2019-08-11T06:05:10.000Z</time>
      </trkpt>
      <trkpt lat="43.36954" lon="2.24731">
        <ele>617.3</ele>
        <time>2019-08-11T06:05:11.000Z</time>
      </trkpt>
      <trkpt lat="43.36954" lon="2.24729">
        <ele>617.5</ele>
        <time>2019-08-11T06:05:12.000Z</time>
      </trkpt>
      <trkpt lat="43.36953" lon="2.24726">
        <ele>617.7</ele>
        <time>2019-08-11T06:05:13.000Z</time>
      </trkpt>
      <trkpt lat="43.36953" lon="2.24723">
        <ele>617.9</ele>
        <time>2019-08-11T06:05:14.000Z</time>
      </trkpt>
      <trkpt lat="43.36953" lon="2.2472">
        <ele>618.1</ele>
        <time>2019-08-11T06:05:15.000Z</time>
      </trkpt>
      <trkpt lat="43.36952" lon="2.24717">
        <ele>618.3</ele>
        <time>2019-08-11T06:05:16.000Z</time>
      </trkpt>
      <trkpt lat="43.36952" lon="2.24714">
        <ele>618.5</ele>
        <time>2019-08-11T06:05:17.000Z</time>
      </trkpt>
      <trkpt lat="43.36952" lon="2.24711">
        <ele>618.7</ele>
        <time>2019-08-11T06:05:18.000Z</time>
      </trkpt>
      <trkpt lat="43.36952" lon="2.24708">
        <ele>619</ele>
        <time>2019-08-11T06:05:19.000Z</time>
      </trkpt>
      <trkpt lat="43.36952" lon="2.24705">
        <ele>619.2</ele>
        <time>2019-08-11T06:05:20.000Z</time>
      </trkpt>
      <trkpt lat="43.36951" lon="2.24702">
        <ele>619.4</ele>
        <time>2019-08-11T06:05:21.000Z</time>
      </trkpt>
      <trkpt lat="43.36951" lon="2.24699">
        <ele>619.7</ele>
        <time>2019-08-11T06:05:22.000Z</time>
      </trkpt>
      <trkpt lat="43.36951" lon="2.24696">
        <ele>619.9</ele>
        <time>2019-08-11T06:05:23.000Z</time>
      </trkpt>
      <trkpt lat="43.36951" lon="2.24693">
        <ele>620.1</ele>
        <time>2019-08-11T06:05:24.000Z</time>
      </trkpt>
      <trkpt lat="43.36951" lon="2.2469">
        <ele>620.3</ele>
        <time>2019-08-11T06:05:25.000Z</time>
      </trkpt>
      <trkpt lat="43.3695" lon="2.24688">
        <ele>620.6</ele>
        <time>2019-08-11T06:05:26.000Z</time>
      </trkpt>
      <trkpt lat="43.3695" lon="2.24685">
        <ele>620.8</ele>
        <time>2019-08-11T06:05:27.000Z</time>
      </trkpt>
      <trkpt lat="43.3695" lon="2.24682">
        <ele>621</ele>
        <time>2019-08-11T06:05:28.000Z</time>
      </trkpt>
      <trkpt lat="43.3695" lon="2.24679">
        <ele>621.2</ele>
        <time>2019-08-11T06:05:29.000Z</time>
      </trkpt>
      <trkpt lat="43.3695" lon="2.24676">
        <ele>621.4</ele>
        <time>2019-08-11T06:05:30.000Z</time>
      </trkpt>
      <trkpt lat="43.3695" lon="2.24673">
        <ele>621.7</ele>
        <time>2019-08-11T06:05:31.000Z</time>
      </trkpt>
      <trkpt lat="43.3695" lon="2.2467">
        <ele>621.9</ele>
        <time>2019-08-11T06:05:32.000Z</time>
      </trkpt>
      <trkpt lat="43.3695" lon="2.24668">
        <ele>622.1</ele>
        <time>2019-08-11T06:05:33.000Z</time>
      </trkpt>
      <trkpt lat="43.3695" lon="2.24665">
        <ele>622.3</ele>
        <time>2019-08-11T06:05:34.000Z</time>
      </trkpt>
      <trkpt lat="43.3695" lon="2.24662">
        <ele>622.3</ele>
        <time>2019-08-11T06:05:35.000Z</time>
      </trkpt>
      <trkpt lat="43.3695" lon="2.24659">
        <ele>622.4</ele>
        <time>2019-08-11T06:05:36.000Z</time>
      </trkpt>
      <trkpt lat="43.3695" lon="2.24656">
        <ele>622.5</ele>
        <time>2019-08-11T06:05:37.000Z</time>
      </trkpt>
      <trkpt lat="43.36951" lon="2.24653">
        <ele>622.6</ele>
        <time>2019-08-11T06:05:38.000Z</time>
      </trkpt>
      <trkpt lat="43.36951" lon="2.24651">
        <ele>622.7</ele>
        <time>2019-08-11T06:05:39.000Z</time>
      </trkpt>
      <trkpt lat="43.36951" lon="2.24648">
        <ele>622.8</ele>
        <time>2019-08-11T06:05:40.000Z</time>
      </trkpt>
      <trkpt lat="43.36952" lon="2.24645">
        <ele>622.9</ele>
        <time>2019-08-11T06:05:41.000Z</time>
      </trkpt>
      <trkpt lat="43.36952" lon="2.24642">
        <ele>623</ele>
        <time>2019-08-11T06:05:42.000Z</time>
      </trkpt>
      <trkpt lat="43.36953" lon="2.24639">
        <ele>623.1</ele>
        <time>2019-08-11T06:05:43.000Z</time>
      </trkpt>
      <trkpt lat="43.36953" lon="2.24636">
        <ele>623.2</ele>
        <time>2019-08-11T06:05:44.000Z</time>
      </trkpt>
      <trkpt lat="43.36954" lon="2.24633">
        <ele>623.4</ele>
        <time>2019-08-11T06:05:45.000Z</time>
      </trkpt>
      <trkpt lat="43.36954" lon="2.24631">
        <ele>623.5</ele>
        <time>2019-08-11T06:05:46.000Z</time>
      </trkpt>
      <trkpt lat="43.36955" lon="2.24628">
        <ele>623.6</ele>
        <time>2019-08-11T06:05:47.000Z</time>
      </trkpt>
      <trkpt lat="43.36956" lon="2.24625">
        <ele>623.7</ele>
        <time>2019-08-11T06:05:48.000Z</time>
      </trkpt>
      <trkpt lat="43.36957" lon="2.24622">
        <ele>623.8</ele>
        <time>2019-08-11T06:05:49.000Z</time>
      </trkpt>
      <trkpt lat="43.36957" lon="2.2462">
        <ele>623.9</ele>
        <time>2019-08-11T06:05:50.000Z</time>
      </trkpt>
      <trkpt lat="43.36958" lon="2.24617">
        <ele>624</ele>
        <time>2019-08-11T06:05:51.000Z</time>
      </trkpt>
      <trkpt lat="43.36959" lon="2.24614">
        <ele>624.1</ele>
        <time>2019-08-11T06:05:52.000Z</time>
      </trkpt>
      <trkpt lat="43.3696" lon="2.24611">
        <ele>624.2</ele>
        <time>2019-08-11T06:05:53.000Z</time>
      </trkpt>
      <trkpt lat="43.36961" lon="2.24608">
        <ele>624.3</ele>
        <time>2019-08-11T06:05:54.000Z</time>
      </trkpt>
      <trkpt lat="43.36961" lon="2.24605">
        <ele>624.4</ele>
        <time>2019-08-11T06:05:55.000Z</time>
      </trkpt>
      <trkpt lat="43.36962" lon="2.24601">
        <ele>624.6</ele>
        <time>2019-08-11T06:05:56.000Z</time>
      </trkpt>
      <trkpt lat="43.36963" lon="2.24598">
        <ele>624.7</ele>
        <time>2019-08-11T06:05:57.000Z</time>
      </trkpt>
      <trkpt lat="43.36964" lon="2.24595">
        <ele>624.8</ele>
        <time>2019-08-11T06:05:58.000Z</time>
      </trkpt>
      <trkpt lat="43.36965" lon="2.24593">
        <ele>624.9</ele>
        <time>2019-08-11T06:05:59.000Z</time>
      </trkpt>
      <trkpt lat="43.36966" lon="2.2459">
        <ele>625</ele>
        <time>2019-08-11T06:06:00.000Z</time>
      </trkpt>
      <trkpt lat="43.36967" lon="2.24588">
        <ele>625.1</ele>
        <time>2019-08-11T06:06:01.000Z</time>
      </trkpt>
      <trkpt lat="43.36967" lon="2.24586">
        <ele>625.1</ele>
        <time>2019-08-11T06:06:02.000Z</time>
      </trkpt>
      <trkpt lat="43.36968" lon="2.24584">
        <ele>625.2</ele>
        <time>2019-08-11T06:06:03.000Z</time>
      </trkpt>
      <trkpt lat="43.36969" lon="2.24582">
        <ele>625.3</ele>
        <time>2019-08-11T06:06:04.000Z</time>
      </trkpt>
      <trkpt lat="43.3697" lon="2.24579">
        <ele>625.3</ele>
        <time>2019-08-11T06:06:05.000Z</time>
      </trkpt>
      <trkpt lat="43.36971" lon="2.24577">
        <ele>625.4</ele>
        <time>2019-08-11T06:06:06.000Z</time>
      </trkpt>
      <trkpt lat="43.36972" lon="2.24575">
        <ele>625.4</ele>
        <time>2019-08-11T06:06:07.000Z</time>
      </trkpt>
      <trkpt lat="43.36973" lon="2.24572">
        <ele>625.5</ele>
        <time>2019-08-11T06:06:08.000Z</time>
      </trkpt>
      <trkpt lat="43.36974" lon="2.2457">
        <ele>625.5</ele>
        <time>2019-08-11T06:06:09.000Z</time>
      </trkpt>
      <trkpt lat="43.36975" lon="2.24567">
        <ele>625.6</ele>
        <time>2019-08-11T06:06:10.000Z</time>
      </trkpt>
      <trkpt lat="43.36976" lon="2.24565">
        <ele>625.7</ele>
        <time>2019-08-11T06:06:11.000Z</time>
      </trkpt>
      <trkpt lat="43.36978" lon="2.24562">
        <ele>625.7</ele>
        <time>2019-08-11T06:06:12.000Z</time>
      </trkpt>
      <trkpt lat="43.36979" lon="2.2456">
        <ele>625.8</ele>
        <time>2019-08-11T06:06:13.000Z</time>
      </trkpt>
      <trkpt lat="43.3698" lon="2.24557">
        <ele>625.8</ele>
        <time>2019-08-11T06:06:14.000Z</time>
      </trkpt>
      <trkpt lat="43.36981" lon="2.24555">
        <ele>625.9</ele>
        <time>2019-08-11T06:06:15.000Z</time>
      </trkpt>
      <trkpt lat="43.36982" lon="2.24552">
        <ele>625.9</ele>
        <time>2019-08-11T06:06:16.000Z</time>
      </trkpt>
      <trkpt lat="43.36983" lon="2.2455">
        <ele>626</ele>
        <time>2019-08-11T06:06:17.000Z</time>
      </trkpt>
      <trkpt lat="43.36985" lon="2.24547">
        <ele>626.1</ele>
        <time>2019-08-11T06:06:18.000Z</time>
      </trkpt>
      <trkpt lat="43.36986" lon="2.24545">
        <ele>626.1</ele>
        <time>2019-08-11T06:06:19.000Z</time>
      </trkpt>
      <trkpt lat="43.36987" lon="2.24542">
        <ele>626.2</ele>
        <time>2019-08-11T06:06:20.000Z</time>
      </trkpt>
      <trkpt lat="43.36988" lon="2.2454">
        <ele>626.2</ele>
        <time>2019-08-11T06:06:21.000Z</time>
      </trkpt>
      <trkpt lat="43.36989" lon="2.24538">
        <ele>626.3</ele>
        <time>2019-08-11T06:06:22.000Z</time>
      </trkpt>
      <trkpt lat="43.3699" lon="2.24535">
        <ele>626.3</ele>
        <time>2019-08-11T06:06:23.000Z</time>
      </trkpt>
      <trkpt lat="43.36992" lon="2.24533">
        <ele>626.4</ele>
        <time>2019-08-11T06:06:24.000Z</time>
      </trkpt>
      <trkpt lat="43.36993" lon="2.24531">
        <ele>626.5</ele>
        <time>2019-08-11T06:06:25.000Z</time>
      </trkpt>
      <trkpt lat="43.36994" lon="2.24528">
        <ele>626.5</ele>
        <time>2019-08-11T06:06:26.000Z</time>
      </trkpt>
      <trkpt lat="43.36995" lon="2.24526">
        <ele>626.6</ele>
        <time>2019-08-11T06:06:27.000Z</time>
      </trkpt>
      <trkpt lat="43.36996" lon="2.24524">
        <ele>626.6</ele>
        <time>2019-08-11T06:06:28.000Z</time>
      </trkpt>
      <trkpt lat="43.36997" lon="2.24522">
        <ele>626.7</ele>
        <time>2019-08-11T06:06:29.000Z</time>
      </trkpt>
      <trkpt lat="43.36998" lon="2.24519">
        <ele>626.7</ele>
        <time>2019-08-11T06:06:30.000Z</time>
      </trkpt>
      <trkpt lat="43.36999" lon="2.24517">
        <ele>626.8</ele>
        <time>2019-08-11T06:06:31.000Z</time>
      </trkpt>
      <trkpt lat="43.37001" lon="2.24514">
        <ele>626.9</ele>
        <time>2019-08-11T06:06:32.000Z</time>
      </trkpt>
      <trkpt lat="43.37002" lon="2.24512">
        <ele>626.9</ele>
        <time>2019-08-11T06:06:33.000Z</time>
      </trkpt>
      <trkpt lat="43.37003" lon="2.24509">
        <ele>627</ele>
        <time>2019-08-11T06:06:34.000Z</time>
      </trkpt>
      <trkpt lat="43.37004" lon="2.24507">
        <ele>627.1</ele>
        <time>2019-08-11T06:06:35.000Z</time>
      </trkpt>
      <trkpt lat="43.37005" lon="2.24504">
        <ele>627.2</ele>
        <time>2019-08-11T06:06:36.000Z</time>
      </trkpt>
      <trkpt lat="43.37006" lon="2.24502">
        <ele>627.3</ele>
        <time>2019-08-11T06:06:37.000Z</time>
      </trkpt>
      <trkpt lat="43.37007" lon="2.24499">
        <ele>627.4</ele>
        <time>2019-08-11T06:06:38.000Z</time>
      </trkpt>
      <trkpt lat="43.37009" lon="2.24497">
        <ele>627.4</ele>
        <time>2019-08-11T06:06:39.000Z</time>
      </trkpt>
      <trkpt lat="43.3701" lon="2.24495">
        <ele>627.5</ele>
        <time>2019-08-11T06:06:40.000Z</time>
      </trkpt>
      <trkpt lat="43.37011" lon="2.24492">
        <ele>627.6</ele>
        <time>2019-08-11T06:06:41.000Z</time>
      </trkpt>
      <trkpt lat="43.37012" lon="2.2449">
        <ele>627.7</ele>
        <time>2019-08-11T06:06:42.000Z</time>
      </trkpt>
      <trkpt lat="43.37014" lon="2.24489">
        <ele>627.8</ele>
        <time>2019-08-11T06:06:43.000Z</time>
      </trkpt>
      <trkpt lat="43.37015" lon="2.24487">
        <ele>627.8</ele>
        <time>2019-08-11T06:06:44.000Z</time>
      </trkpt>
      <trkpt lat="43.37017" lon="2.24485">
        <ele>627.9</ele>
        <time>2019-08-11T06:06:45.000Z</time>
      </trkpt>
      <trkpt lat="43.37018" lon="2.24484">
        <ele>628</ele>
        <time>2019-08-11T06:06:46.000Z</time>
      </trkpt>
      <trkpt lat="43.3702" lon="2.24483">
        <ele>628.1</ele>
        <time>2019-08-11T06:06:47.000Z</time>
      </trkpt>
      <trkpt lat="43.37022" lon="2.24482">
        <ele>628.2</ele>
        <time>2019-08-11T06:06:48.000Z</time>
      </trkpt>
      <trkpt lat="43.37024" lon="2.24482">
        <ele>628.3</ele>
        <time>2019-08-11T06:06:49.000Z</time>
      </trkpt>
      <trkpt lat="43.37027" lon="2.24481">
        <ele>628.4</ele>
        <time>2019-08-11T06:06:50.000Z</time>
      </trkpt>
      <trkpt lat="43.37029" lon="2.24481">
        <ele>628.5</ele>
        <time>2019-08-11T06:06:51.000Z</time>
      </trkpt>
      <trkpt lat="43.37031" lon="2.2448">
        <ele>628.6</ele>
        <time>2019-08-11T06:06:52.000Z</time>
      </trkpt>
      <trkpt lat="43.37033" lon="2.24479">
        <ele>628.7</ele>
        <time>2019-08-11T06:06:53.000Z</time>
      </trkpt>
      <trkpt lat="43.37035" lon="2.24479">
        <ele>628.8</ele>
        <time>2019-08-11T06:06:54.000Z</time>
      </trkpt>
      <trkpt lat="43.37037" lon="2.24478">
        <ele>628.9</ele>
        <time>2019-08-11T06:06:55.000Z</time>
      </trkpt>
      <trkpt lat="43.37039" lon="2.24477">
        <ele>629</ele>
        <time>2019-08-11T06:06:56.000Z</time>
      </trkpt>
      <trkpt lat="43.37041" lon="2.24475">
        <ele>629.1</ele>
        <time>2019-08-11T06:06:57.000Z</time>
      </trkpt>
      <trkpt lat="43.37043" lon="2.24474">
        <ele>629.2</ele>
        <time>2019-08-11T06:06:58.000Z</time>
      </trkpt>
      <trkpt lat="43.37045" lon="2.24473">
        <ele>629.3</ele>
        <time>2019-08-11T06:06:59.000Z</time>
      </trkpt>
      <trkpt lat="43.37047" lon="2.24472">
        <ele>629.4</ele>
        <time>2019-08-11T06:07:00.000Z</time>
      </trkpt>
      <trkpt lat="43.37049" lon="2.24471">
        <ele>629.5</ele>
        <time>2019-08-11T06:07:01.000Z</time>
      </trkpt>
      <trkpt lat="43.37051" lon="2.2447">
        <ele>629.6</ele>
        <time>2019-08-11T06:07:02.000Z</time>
      </trkpt>
      <trkpt lat="43.37053" lon="2.24469">
        <ele>629.7</ele>
        <time>2019-08-11T06:07:03.000Z</time>
      </trkpt>
      <trkpt lat="43.37055" lon="2.24469">
        <ele>629.8</ele>
        <time>2019-08-11T06:07:04.000Z</time>
      </trkpt>
      <trkpt lat="43.37057" lon="2.24468">
        <ele>629.8</ele>
        <time>2019-08-11T06:07:05.000Z</time>
      </trkpt>
      <trkpt lat="43.37059" lon="2.24467">
        <ele>629.9</ele>
        <time>2019-08-11T06:07:06.000Z</time>
      </trkpt>
      <trkpt lat="43.37061" lon="2.24466">
        <ele>630</ele>
        <time>2019-08-11T06:07:07.000Z</time>
      </trkpt>
      <trkpt lat="43.37063" lon="2.24466">
        <ele>630.1</ele>
        <time>2019-08-11T06:07:08.000Z</time>
      </trkpt>
      <trkpt lat="43.37065" lon="2.24465">
        <ele>630.2</ele>
        <time>2019-08-11T06:07:09.000Z</time>
      </trkpt>
      <trkpt lat="43.37067" lon="2.24465">
        <ele>630.3</ele>
        <time>2019-08-11T06:07:10.000Z</time>
      </trkpt>
      <trkpt lat="43.37069" lon="2.24464">
        <ele>630.4</ele>
        <time>2019-08-11T06:07:11.000Z</time>
      </trkpt>
      <trkpt lat="43.37071" lon="2.24464">
        <ele>630.5</ele>
        <time>2019-08-11T06:07:12.000Z</time>
      </trkpt>
      <trkpt lat="43.37074" lon="2.24463">
        <ele>630.6</ele>
        <time>2019-08-11T06:07:13.000Z</time>
      </trkpt>
      <trkpt lat="43.37076" lon="2.24463">
        <ele>630.7</ele>
        <time>2019-08-11T06:07:14.000Z</time>
      </trkpt>
      <trkpt lat="43.37078" lon="2.24463">
        <ele>630.8</ele>
        <time>2019-08-11T06:07:15.000Z</time>
      </trkpt>
      <trkpt lat="43.3708" lon="2.24462">
        <ele>630.8</ele>
        <time>2019-08-11T06:07:16.000Z</time>
      </trkpt>
      <trkpt lat="43.37082" lon="2.24462">
        <ele>630.9</ele>
        <time>2019-08-11T06:07:17.000Z</time>
      </trkpt>
      <trkpt lat="43.37084" lon="2.24462">
        <ele>631.1</ele>
        <time>2019-08-11T06:07:18.000Z</time>
      </trkpt>
      <trkpt lat="43.37086" lon="2.24461">
        <ele>631.3</ele>
        <time>2019-08-11T06:07:19.000Z</time>
      </trkpt>
      <trkpt lat="43.37088" lon="2.24461">
        <ele>631.4</ele>
        <time>2019-08-11T06:07:20.000Z</time>
      </trkpt>
      <trkpt lat="43.3709" lon="2.24461">
        <ele>631.6</ele>
        <time>2019-08-11T06:07:21.000Z</time>
      </trkpt>
      <trkpt lat="43.37092" lon="2.24461">
        <ele>631.8</ele>
        <time>2019-08-11T06:07:22.000Z</time>
      </trkpt>
      <trkpt lat="43.37094" lon="2.2446">
        <ele>632</ele>
        <time>2019-08-11T06:07:23.000Z</time>
      </trkpt>
      <trkpt lat="43.37096" lon="2.2446">
        <ele>632.2</ele>
        <time>2019-08-11T06:07:24.000Z</time>
      </trkpt>
      <trkpt lat="43.37098" lon="2.2446">
        <ele>632.4</ele>
        <time>2019-08-11T06:07:25.000Z</time>
      </trkpt>
      <trkpt lat="43.371" lon="2.2446">
        <ele>632.6</ele>
        <time>2019-08-11T06:07:26.000Z</time>
      </trkpt>
      <trkpt lat="43.37102" lon="2.2446">
        <ele>632.8</ele>
        <time>2019-08-11T06:07:27.000Z</time>
      </trkpt>
      <trkpt lat="43.37104" lon="2.2446">
        <ele>633</ele>
        <time>2019-08-11T06:07:28.000Z</time>
      </trkpt>
      <trkpt lat="43.37106" lon="2.2446">
        <ele>633.2</ele>
        <time>2019-08-11T06:07:29.000Z</time>
      </trkpt>
      <trkpt lat="43.37108" lon="2.2446">
        <ele>633.4</ele>
        <time>2019-08-11T06:07:30.000Z</time>
      </trkpt>
      <trkpt lat="43.3711" lon="2.24461">
        <ele>633.6</ele>
        <time>2019-08-11T06:07:31.000Z</time>
      </trkpt>
      <trkpt lat="43.37112" lon="2.24461">
        <ele>633.7</ele>
        <time>2019-08-11T06:07:32.000Z</time>
      </trkpt>
      <trkpt lat="43.37115" lon="2.24461">
        <ele>633.9</ele>
        <time>2019-08-11T06:07:33.000Z</time>
      </trkpt>
      <trkpt lat="43.37117" lon="2.24461">
        <ele>634.1</ele>
        <time>2019-08-11T06:07:34.000Z</time>
      </trkpt>
      <trkpt lat="43.37119" lon="2.24461">
        <ele>634.3</ele>
        <time>2019-08-11T06:07:35.000Z</time>
      </trkpt>
      <trkpt lat="43.37121" lon="2.24462">
        <ele>634.5</ele>
        <time>2019-08-11T06:07:36.000Z</time>
      </trkpt>
      <trkpt lat="43.37123" lon="2.24462">
        <ele>634.7</ele>
        <time>2019-08-11T06:07:37.000Z</time>
      </trkpt>
      <trkpt lat="43.37125" lon="2.24462">
        <ele>634.9</ele>
        <time>2019-08-11T06:07:38.000Z</time>
      </trkpt>
      <trkpt lat="43.37127" lon="2.24462">
        <ele>635.1</ele>
        <time>2019-08-11T06:07:39.000Z</time>
      </trkpt>
      <trkpt lat="43.37129" lon="2.24462">
        <ele>635.3</ele>
        <time>2019-08-11T06:07:40.000Z</time>
      </trkpt>
      <trkpt lat="43.37131" lon="2.24462">
        <ele>635.5</ele>
        <time>2019-08-11T06:07:41.000Z</time>
      </trkpt>
      <trkpt lat="43.37133" lon="2.24462">
        <ele>635.7</ele>
        <time>2019-08-11T06:07:42.000Z</time>
      </trkpt>
      <trkpt lat="43.37135" lon="2.24462">
        <ele>635.9</ele>
        <time>2019-08-11T06:07:43.000Z</time>
      </trkpt>
      <trkpt lat="43.37137" lon="2.24461">
        <ele>636.1</ele>
        <time>2019-08-11T06:07:44.000Z</time>
      </trkpt>
      <trkpt lat="43.3714" lon="2.24461">
        <ele>636.3</ele>
        <time>2019-08-11T06:07:45.000Z</time>
      </trkpt>
      <trkpt lat="43.37142" lon="2.24461">
        <ele>636.5</ele>
        <time>2019-08-11T06:07:46.000Z</time>
      </trkpt>
      <trkpt lat="43.37144" lon="2.2446">
        <ele>636.7</ele>
        <time>2019-08-11T06:07:47.000Z</time>
      </trkpt>
      <trkpt lat="43.37146" lon="2.2446">
        <ele>637</ele>
        <time>2019-08-11T06:07:48.000Z</time>
      </trkpt>
      <trkpt lat="43.37148" lon="2.24459">
        <ele>637.2</ele>
        <time>2019-08-11T06:07:49.000Z</time>
      </trkpt>
      <trkpt lat="43.3715" lon="2.24458">
        <ele>637.4</ele>
        <time>2019-08-11T06:07:50.000Z</time>
      </trkpt>
      <trkpt lat="43.37152" lon="2.24458">
        <ele>637.6</ele>
        <time>2019-08-11T06:07:51.000Z</time>
      </trkpt>
      <trkpt lat="43.37154" lon="2.24457">
        <ele>637.8</ele>
        <time>2019-08-11T06:07:52.000Z</time>
      </trkpt>
      <trkpt lat="43.37156" lon="2.24456">
        <ele>638.1</ele>
        <time>2019-08-11T06:07:53.000Z</time>
      </trkpt>
      <trkpt lat="43.37158" lon="2.24455">
        <ele>638.3</ele>
        <time>2019-08-11T06:07:54.000Z</time>
      </trkpt>
      <trkpt lat="43.3716" lon="2.24454">
        <ele>638.5</ele>
        <time>2019-08-11T06:07:55.000Z</time>
      </trkpt>
      <trkpt lat="43.37162" lon="2.24454">
        <ele>638.8</ele>
        <time>2019-08-11T06:07:56.000Z</time>
      </trkpt>
      <trkpt lat="43.37164" lon="2.24453">
        <ele>639</ele>
        <time>2019-08-11T06:07:57.000Z</time>
      </trkpt>
      <trkpt lat="43.37166" lon="2.24452">
        <ele>639.2</ele>
        <time>2019-08-11T06:07:58.000Z</time>
      </trkpt>
      <trkpt lat="43.37168" lon="2.24451">
        <ele>639.4</ele>
        <time>2019-08-11T06:07:59.000Z</time>
      </trkpt>
      <trkpt lat="43.3717" lon="2.2445">
        <ele>639.6</ele>
        <time>2019-08-11T06:08:00.000Z</time>
      </trkpt>
      <trkpt lat="43.37172" lon="2.24449">
        <ele>639.7</ele>
        <time>2019-08-11T06:08:01.000Z</time>
      </trkpt>
      <trkpt lat="43.37174" lon="2.24448">
        <ele>639.9</ele>
        <time>2019-08-11T06:08:02.000Z</time>
      </trkpt>
      <trkpt lat="43.37176" lon="2.24448">
        <ele>640.1</ele>
        <time>2019-08-11T06:08:03.000Z</time>
      </trkpt>
      <trkpt lat="43.37178" lon="2.24447">
        <ele>640.3</ele>
        <time>2019-08-11T06:08:04.000Z</time>
      </trkpt>
      <trkpt lat="43.37181" lon="2.24446">
        <ele>640.4</ele>
        <time>2019-08-11T06:08:05.000Z</time>
      </trkpt>
      <trkpt lat="43.37183" lon="2.24445">
        <ele>640.6</ele>
        <time>2019-08-11T06:08:06.000Z</time>
      </trkpt>
      <trkpt lat="43.37186" lon="2.24444">
        <ele>640.8</ele>
        <time>2019-08-11T06:08:07.000Z</time>
      </trkpt>
      <trkpt lat="43.37189" lon="2.24444">
        <ele>641</ele>
        <time>2019-08-11T06:08:08.000Z</time>
      </trkpt>
      <trkpt lat="43.37191" lon="2.24443">
        <ele>641.2</ele>
        <time>2019-08-11T06:08:09.000Z</time>
      </trkpt>
      <trkpt lat="43.37193" lon="2.24442">
        <ele>641.4</ele>
        <time>2019-08-11T06:08:10.000Z</time>
      </trkpt>
      <trkpt lat="43.37195" lon="2.24441">
        <ele>641.5</ele>
        <time>2019-08-11T06:08:11.000Z</time>
      </trkpt>
      <trkpt lat="43.37197" lon="2.2444">
        <ele>641.7</ele>
        <time>2019-08-11T06:08:12.000Z</time>
      </trkpt>
      <trkpt lat="43.37199" lon="2.2444">
        <ele>641.8</ele>
        <time>2019-08-11T06:08:13.000Z</time>
      </trkpt>
      <trkpt lat="43.372" lon="2.24439">
        <ele>642</ele>
        <time>2019-08-11T06:08:14.000Z</time>
      </trkpt>
      <trkpt lat="43.37201" lon="2.24438">
        <ele>642.1</ele>
        <time>2019-08-11T06:08:15.000Z</time>
      </trkpt>
      <trkpt lat="43.37203" lon="2.24437">
        <ele>642.2</ele>
        <time>2019-08-11T06:08:16.000Z</time>
      </trkpt>
      <trkpt lat="43.37204" lon="2.24437">
        <ele>642.2</ele>
        <time>2019-08-11T06:08:17.000Z</time>
      </trkpt>
      <trkpt lat="43.37204" lon="2.24437">
        <ele>642.3</ele>
        <time>2019-08-11T06:08:18.000Z</time>
      </trkpt>
      <trkpt lat="43.37205" lon="2.24437">
        <ele>642.4</ele>
        <time>2019-08-11T06:08:19.000Z</time>
      </trkpt>
      <trkpt lat="43.37206" lon="2.24437">
        <ele>642.4</ele>
        <time>2019-08-11T06:08:20.000Z</time>
      </trkpt>
      <trkpt lat="43.37208" lon="2.24437">
        <ele>642.5</ele>
        <time>2019-08-11T06:08:21.000Z</time>
      </trkpt>
      <trkpt lat="43.37209" lon="2.24438">
        <ele>642.5</ele>
        <time>2019-08-11T06:08:22.000Z</time>
      </trkpt>
      <trkpt lat="43.3721" lon="2.24438">
        <ele>642.6</ele>
        <time>2019-08-11T06:08:23.000Z</time>
      </trkpt>
      <trkpt lat="43.37211" lon="2.24438">
        <ele>642.6</ele>
        <time>2019-08-11T06:08:24.000Z</time>
      </trkpt>
      <trkpt lat="43.37212" lon="2.24439">
        <ele>642.7</ele>
        <time>2019-08-11T06:08:25.000Z</time>
      </trkpt>
      <trkpt lat="43.37214" lon="2.24439">
        <ele>642.8</ele>
        <time>2019-08-11T06:08:26.000Z</time>
      </trkpt>
      <trkpt lat="43.37215" lon="2.24439">
        <ele>642.9</ele>
        <time>2019-08-11T06:08:27.000Z</time>
      </trkpt>
      <trkpt lat="43.37217" lon="2.24439">
        <ele>643</ele>
        <time>2019-08-11T06:08:28.000Z</time>
      </trkpt>
      <trkpt lat="43.37219" lon="2.24439">
        <ele>643.1</ele>
        <time>2019-08-11T06:08:29.000Z</time>
      </trkpt>
      <trkpt lat="43.3722" lon="2.24438">
        <ele>643.2</ele>
        <time>2019-08-11T06:08:30.000Z</time>
      </trkpt>
      <trkpt lat="43.37222" lon="2.24438">
        <ele>643.3</ele>
        <time>2019-08-11T06:08:31.000Z</time>
      </trkpt>
      <trkpt lat="43.37224" lon="2.24438">
        <ele>643.4</ele>
        <time>2019-08-11T06:08:32.000Z</time>
      </trkpt>
      <trkpt lat="43.37226" lon="2.24437">
        <ele>643.6</ele>
        <time>2019-08-11T06:08:33.000Z</time>
      </trkpt>
      <trkpt lat="43.37228" lon="2.24437">
        <ele>643.7</ele>
        <time>2019-08-11T06:08:34.000Z</time>
      </trkpt>
      <trkpt lat="43.3723" lon="2.24436">
        <ele>643.9</ele>
        <time>2019-08-11T06:08:35.000Z</time>
      </trkpt>
      <trkpt lat="43.37232" lon="2.24436">
        <ele>644</ele>
        <time>2019-08-11T06:08:36.000Z</time>
      </trkpt>
      <trkpt lat="43.37234" lon="2.24435">
        <ele>644.2</ele>
        <time>2019-08-11T06:08:37.000Z</time>
      </trkpt>
      <trkpt lat="43.37236" lon="2.24434">
        <ele>644.3</ele>
        <time>2019-08-11T06:08:38.000Z</time>
      </trkpt>
      <trkpt lat="43.37238" lon="2.24434">
        <ele>644.5</ele>
        <time>2019-08-11T06:08:39.000Z</time>
      </trkpt>
      <trkpt lat="43.3724" lon="2.24433">
        <ele>644.6</ele>
        <time>2019-08-11T06:08:40.000Z</time>
      </trkpt>
      <trkpt lat="43.37242" lon="2.24433">
        <ele>644.8</ele>
        <time>2019-08-11T06:08:41.000Z</time>
      </trkpt>
      <trkpt lat="43.37244" lon="2.24432">
        <ele>644.9</ele>
        <time>2019-08-11T06:08:42.000Z</time>
      </trkpt>
      <trkpt lat="43.37246" lon="2.24431">
        <ele>645.1</ele>
        <time>2019-08-11T06:08:43.000Z</time>
      </trkpt>
      <trkpt lat="43.37248" lon="2.24431">
        <ele>645.2</ele>
        <time>2019-08-11T06:08:44.000Z</time>
      </trkpt>
      <trkpt lat="43.3725" lon="2.2443">
        <ele>645.3</ele>
        <time>2019-08-11T06:08:45.000Z</time>
      </trkpt>
      <trkpt lat="43.37252" lon="2.2443">
        <ele>645.5</ele>
        <time>2019-08-11T06:08:46.000Z</time>
      </trkpt>
      <trkpt lat="43.37254" lon="2.24429">
        <ele>645.6</ele>
        <time>2019-08-11T06:08:47.000Z</time>
      </trkpt>
      <trkpt lat="43.37256" lon="2.24429">
        <ele>645.7</ele>
        <time>2019-08-11T06:08:48.000Z</time>
      </trkpt>
      <trkpt lat="43.37258" lon="2.24428">
        <ele>645.8</ele>
        <time>2019-08-11T06:08:49.000Z</time>
      </trkpt>
      <trkpt lat="43.37259" lon="2.24427">
        <ele>645.9</ele>
        <time>2019-08-11T06:08:50.000Z</time>
      </trkpt>
      <trkpt lat="43.37261" lon="2.24427">
        <ele>646</ele>
        <time>2019-08-11T06:08:51.000Z</time>
      </trkpt>
      <trkpt lat="43.37263" lon="2.24426">
        <ele>646.1</ele>
        <time>2019-08-11T06:08:52.000Z</time>
      </trkpt>
      <trkpt lat="43.37265" lon="2.24426">
        <ele>646.2</ele>
        <time>2019-08-11T06:08:53.000Z</time>
      </trkpt>
      <trkpt lat="43.37267" lon="2.24425">
        <ele>646.3</ele>
        <time>2019-08-11T06:08:54.000Z</time>
      </trkpt>
      <trkpt lat="43.37268" lon="2.24425">
        <ele>646.4</ele>
        <time>2019-08-11T06:08:55.000Z</time>
      </trkpt>
      <trkpt lat="43.3727" lon="2.24424">
        <ele>646.6</ele>
        <time>2019-08-11T06:08:56.000Z</time>
      </trkpt>
      <trkpt lat="43.37272" lon="2.24424">
        <ele>646.7</ele>
        <time>2019-08-11T06:08:57.000Z</time>
      </trkpt>
      <trkpt lat="43.37274" lon="2.24423">
        <ele>646.8</ele>
        <time>2019-08-11T06:08:58.000Z</time>
      </trkpt>
      <trkpt lat="43.37275" lon="2.24423">
        <ele>646.9</ele>
        <time>2019-08-11T06:08:59.000Z</time>
      </trkpt>
      <trkpt lat="43.37277" lon="2.24423">
        <ele>647</ele>
        <time>2019-08-11T06:09:00.000Z</time>
      </trkpt>
      <trkpt lat="43.37279" lon="2.24422">
        <ele>647.1</ele>
        <time>2019-08-11T06:09:01.000Z</time>
      </trkpt>
      <trkpt lat="43.37281" lon="2.24421">
        <ele>647.2</ele>
        <time>2019-08-11T06:09:02.000Z</time>
      </trkpt>
      <trkpt lat="43.37282" lon="2.24421">
        <ele>647.3</ele>
        <time>2019-08-11T06:09:03.000Z</time>
      </trkpt>
      <trkpt lat="43.37284" lon="2.2442">
        <ele>647.4</ele>
        <time>2019-08-11T06:09:04.000Z</time>
      </trkpt>
      <trkpt lat="43.37286" lon="2.2442">
        <ele>647.5</ele>
        <time>2019-08-11T06:09:05.000Z</time>
      </trkpt>
      <trkpt lat="43.37288" lon="2.24419">
        <ele>647.7</ele>
        <time>2019-08-11T06:09:06.000Z</time>
      </trkpt>
      <trkpt lat="43.37289" lon="2.24419">
        <ele>647.8</ele>
        <time>2019-08-11T06:09:07.000Z</time>
      </trkpt>
      <trkpt lat="43.37291" lon="2.24418">
        <ele>647.9</ele>
        <time>2019-08-11T06:09:08.000Z</time>
      </trkpt>
      <trkpt lat="43.37293" lon="2.24417">
        <ele>648</ele>
        <time>2019-08-11T06:09:09.000Z</time>
      </trkpt>
      <trkpt lat="43.37295" lon="2.24417">
        <ele>648.1</ele>
        <time>2019-08-11T06:09:10.000Z</time>
      </trkpt>
      <trkpt lat="43.37297" lon="2.24416">
        <ele>648.3</ele>
        <time>2019-08-11T06:09:11.000Z</time>
      </trkpt>
      <trkpt lat="43.37299" lon="2.24415">
        <ele>648.3</ele>
        <time>2019-08-11T06:09:12.000Z</time>
      </trkpt>
      <trkpt lat="43.373" lon="2.24415">
        <ele>648.5</ele>
        <time>2019-08-11T06:09:13.000Z</time>
      </trkpt>
      <trkpt lat="43.37302" lon="2.24414">
        <ele>648.6</ele>
        <time>2019-08-11T06:09:14.000Z</time>
      </trkpt>
      <trkpt lat="43.37304" lon="2.24413">
        <ele>648.7</ele>
        <time>2019-08-11T06:09:15.000Z</time>
      </trkpt>
      <trkpt lat="43.37306" lon="2.24412">
        <ele>648.8</ele>
        <time>2019-08-11T06:09:16.000Z</time>
      </trkpt>
      <trkpt lat="43.37308" lon="2.24412">
        <ele>648.9</ele>
        <time>2019-08-11T06:09:17.000Z</time>
      </trkpt>
      <trkpt lat="43.3731" lon="2.24411">
        <ele>649</ele>
        <time>2019-08-11T06:09:18.000Z</time>
      </trkpt>
      <trkpt lat="43.37312" lon="2.2441">
        <ele>649.1</ele>
        <time>2019-08-11T06:09:19.000Z</time>
      </trkpt>
      <trkpt lat="43.37314" lon="2.24409">
        <ele>649.2</ele>
        <time>2019-08-11T06:09:20.000Z</time>
      </trkpt>
      <trkpt lat="43.37316" lon="2.24409">
        <ele>649.3</ele>
        <time>2019-08-11T06:09:21.000Z</time>
      </trkpt>
      <trkpt lat="43.37317" lon="2.24408">
        <ele>649.5</ele>
        <time>2019-08-11T06:09:22.000Z</time>
      </trkpt>
      <trkpt lat="43.37319" lon="2.24407">
        <ele>649.6</ele>
        <time>2019-08-11T06:09:23.000Z</time>
      </trkpt>
      <trkpt lat="43.37321" lon="2.24407">
        <ele>649.7</ele>
        <time>2019-08-11T06:09:24.000Z</time>
      </trkpt>
      <trkpt lat="43.37323" lon="2.24406">
        <ele>649.8</ele>
        <time>2019-08-11T06:09:25.000Z</time>
      </trkpt>
      <trkpt lat="43.37325" lon="2.24405">
        <ele>650</ele>
        <time>2019-08-11T06:09:26.000Z</time>
      </trkpt>
      <trkpt lat="43.37327" lon="2.24404">
        <ele>650.1</ele>
        <time>2019-08-11T06:09:27.000Z</time>
      </trkpt>
      <trkpt lat="43.37329" lon="2.24404">
        <ele>650.2</ele>
        <time>2019-08-11T06:09:28.000Z</time>
      </trkpt>
      <trkpt lat="43.37331" lon="2.24403">
        <ele>650.4</ele>
        <time>2019-08-11T06:09:29.000Z</time>
      </trkpt>
      <trkpt lat="43.37333" lon="2.24403">
        <ele>650.5</ele>
        <time>2019-08-11T06:09:30.000Z</time>
      </trkpt>
      <trkpt lat="43.37335" lon="2.24402">
        <ele>650.6</ele>
        <time>2019-08-11T06:09:31.000Z</time>
      </trkpt>
      <trkpt lat="43.37337" lon="2.24401">
        <ele>650.7</ele>
        <time>2019-08-11T06:09:32.000Z</time>
      </trkpt>
      <trkpt lat="43.37339" lon="2.24401">
        <ele>650.8</ele>
        <time>2019-08-11T06:09:33.000Z</time>
      </trkpt>
      <trkpt lat="43.37341" lon="2.244">
        <ele>650.9</ele>
        <time>2019-08-11T06:09:34.000Z</time>
      </trkpt>
      <trkpt lat="43.37343" lon="2.244">
        <ele>651</ele>
        <time>2019-08-11T06:09:35.000Z</time>
      </trkpt>
      <trkpt lat="43.37345" lon="2.24399">
        <ele>651.1</ele>
        <time>2019-08-11T06:09:36.000Z</time>
      </trkpt>
      <trkpt lat="43.37347" lon="2.24399">
        <ele>651.2</ele>
        <time>2019-08-11T06:09:37.000Z</time>
      </trkpt>
      <trkpt lat="43.37348" lon="2.24399">
        <ele>651.3</ele>
        <time>2019-08-11T06:09:38.000Z</time>
      </trkpt>
      <trkpt lat="43.3735" lon="2.24398">
        <ele>651.4</ele>
        <time>2019-08-11T06:09:39.000Z</time>
      </trkpt>
      <trkpt lat="43.37352" lon="2.24398">
        <ele>651.5</ele>
        <time>2019-08-11T06:09:40.000Z</time>
      </trkpt>
      <trkpt lat="43.37354" lon="2.24398">
        <ele>651.6</ele>
        <time>2019-08-11T06:09:41.000Z</time>
      </trkpt>
      <trkpt lat="43.37356" lon="2.24397">
        <ele>651.7</ele>
        <time>2019-08-11T06:09:42.000Z</time>
      </trkpt>
      <trkpt lat="43.37358" lon="2.24397">
        <ele>651.8</ele>
        <time>2019-08-11T06:09:43.000Z</time>
      </trkpt>
      <trkpt lat="43.3736" lon="2.24397">
        <ele>651.8</ele>
        <time>2019-08-11T06:09:44.000Z</time>
      </trkpt>
      <trkpt lat="43.37362" lon="2.24396">
        <ele>651.9</ele>
        <time>2019-08-11T06:09:45.000Z</time>
      </trkpt>
      <trkpt lat="43.37364" lon="2.24396">
        <ele>652</ele>
        <time>2019-08-11T06:09:46.000Z</time>
      </trkpt>
      <trkpt lat="43.37366" lon="2.24396">
        <ele>652.1</ele>
        <time>2019-08-11T06:09:47.000Z</time>
      </trkpt>
      <trkpt lat="43.37367" lon="2.24396">
        <ele>652.2</ele>
        <time>2019-08-11T06:09:48.000Z</time>
      </trkpt>
      <trkpt lat="43.37369" lon="2.24395">
        <ele>652.3</ele>
        <time>2019-08-11T06:09:49.000Z</time>
      </trkpt>
      <trkpt lat="43.37371" lon="2.24395">
        <ele>652.4</ele>
        <time>2019-08-11T06:09:50.000Z</time>
      </trkpt>
      <trkpt lat="43.37373" lon="2.24395">
        <ele>652.4</ele>
        <time>2019-08-11T06:09:51.000Z</time>
      </trkpt>
      <trkpt lat="43.37375" lon="2.24394">
        <ele>652.5</ele>
        <time>2019-08-11T06:09:52.000Z</time>
      </trkpt>
      <trkpt lat="43.37377" lon="2.24394">
        <ele>652.6</ele>
        <time>2019-08-11T06:09:53.000Z</time>
      </trkpt>
      <trkpt lat="43.37379" lon="2.24393">
        <ele>652.7</ele>
        <time>2019-08-11T06:09:54.000Z</time>
      </trkpt>
      <trkpt lat="43.3738" lon="2.24393">
        <ele>652.8</ele>
        <time>2019-08-11T06:09:55.000Z</time>
      </trkpt>
      <trkpt lat="43.37382" lon="2.24393">
        <ele>652.9</ele>
        <time>2019-08-11T06:09:56.000Z</time>
      </trkpt>
      <trkpt lat="43.37384" lon="2.24393">
        <ele>653</ele>
        <time>2019-08-11T06:09:57.000Z</time>
      </trkpt>
      <trkpt lat="43.37386" lon="2.24393">
        <ele>653</ele>
        <time>2019-08-11T06:09:58.000Z</time>
      </trkpt>
      <trkpt lat="43.37388" lon="2.24392">
        <ele>653.1</ele>
        <time>2019-08-11T06:09:59.000Z</time>
      </trkpt>
      <trkpt lat="43.3739" lon="2.24393">
        <ele>653.2</ele>
        <time>2019-08-11T06:10:00.000Z</time>
      </trkpt>
      <trkpt lat="43.37392" lon="2.24393">
        <ele>653.3</ele>
        <time>2019-08-11T06:10:01.000Z</time>
      </trkpt>
      <trkpt lat="43.37395" lon="2.24393">
        <ele>653.4</ele>
        <time>2019-08-11T06:10:02.000Z</time>
      </trkpt>
      <trkpt lat="43.37397" lon="2.24393">
        <ele>653.5</ele>
        <time>2019-08-11T06:10:03.000Z</time>
      </trkpt>
      <trkpt lat="43.37399" lon="2.24394">
        <ele>653.5</ele>
        <time>2019-08-11T06:10:04.000Z</time>
      </trkpt>
      <trkpt lat="43.37401" lon="2.24394">
        <ele>653.6</ele>
        <time>2019-08-11T06:10:05.000Z</time>
      </trkpt>
      <trkpt lat="43.37403" lon="2.24395">
        <ele>653.7</ele>
        <time>2019-08-11T06:10:06.000Z</time>
      </trkpt>
      <trkpt lat="43.37405" lon="2.24395">
        <ele>653.8</ele>
        <time>2019-08-11T06:10:07.000Z</time>
      </trkpt>
      <trkpt lat="43.37407" lon="2.24396">
        <ele>653.9</ele>
        <time>2019-08-11T06:10:08.000Z</time>
      </trkpt>
      <trkpt lat="43.37409" lon="2.24396">
        <ele>653.9</ele>
        <time>2019-08-11T06:10:09.000Z</time>
      </trkpt>
      <trkpt lat="43.37411" lon="2.24397">
        <ele>654</ele>
        <time>2019-08-11T06:10:10.000Z</time>
      </trkpt>
      <trkpt lat="43.37413" lon="2.24397">
        <ele>654.1</ele>
        <time>2019-08-11T06:10:11.000Z</time>
      </trkpt>
      <trkpt lat="43.37415" lon="2.24397">
        <ele>654.2</ele>
        <time>2019-08-11T06:10:12.000Z</time>
      </trkpt>
      <trkpt lat="43.37417" lon="2.24398">
        <ele>654.3</ele>
        <time>2019-08-11T06:10:13.000Z</time>
      </trkpt>
      <trkpt lat="43.37419" lon="2.24398">
        <ele>654.5</ele>
        <time>2019-08-11T06:10:14.000Z</time>
      </trkpt>
      <trkpt lat="43.37421" lon="2.24398">
        <ele>654.7</ele>
        <time>2019-08-11T06:10:15.000Z</time>
      </trkpt>
      <trkpt lat="43.37422" lon="2.24398">
        <ele>654.9</ele>
        <time>2019-08-11T06:10:16.000Z</time>
      </trkpt>
      <trkpt lat="43.37424" lon="2.24398">
        <ele>655.2</ele>
        <time>2019-08-11T06:10:17.000Z</time>
      </trkpt>
      <trkpt lat="43.37426" lon="2.24397">
        <ele>655.4</ele>
        <time>2019-08-11T06:10:18.000Z</time>
      </trkpt>
      <trkpt lat="43.37429" lon="2.24397">
        <ele>655.7</ele>
        <time>2019-08-11T06:10:19.000Z</time>
      </trkpt>
      <trkpt lat="43.37431" lon="2.24397">
        <ele>656</ele>
        <time>2019-08-11T06:10:20.000Z</time>
      </trkpt>
      <trkpt lat="43.37433" lon="2.24397">
        <ele>656.3</ele>
        <time>2019-08-11T06:10:21.000Z</time>
      </trkpt>
      <trkpt lat="43.37435" lon="2.24396">
        <ele>656.6</ele>
        <time>2019-08-11T06:10:22.000Z</time>
      </trkpt>
      <trkpt lat="43.37438" lon="2.24396">
        <ele>656.8</ele>
        <time>2019-08-11T06:10:23.000Z</time>
      </trkpt>
      <trkpt lat="43.3744" lon="2.24396">
        <ele>657.1</ele>
        <time>2019-08-11T06:10:24.000Z</time>
      </trkpt>
      <trkpt lat="43.37442" lon="2.24396">
        <ele>657.3</ele>
        <time>2019-08-11T06:10:25.000Z</time>
      </trkpt>
      <trkpt lat="43.37444" lon="2.24396">
        <ele>657.6</ele>
        <time>2019-08-11T06:10:26.000Z</time>
      </trkpt>
      <trkpt lat="43.37445" lon="2.24397">
        <ele>657.8</ele>
        <time>2019-08-11T06:10:27.000Z</time>
      </trkpt>
      <trkpt lat="43.37447" lon="2.24397">
        <ele>657.9</ele>
        <time>2019-08-11T06:10:28.000Z</time>
      </trkpt>
      <trkpt lat="43.37448" lon="2.24397">
        <ele>658.1</ele>
        <time>2019-08-11T06:10:29.000Z</time>
      </trkpt>
      <trkpt lat="43.3745" lon="2.24398">
        <ele>658.3</ele>
        <time>2019-08-11T06:10:30.000Z</time>
      </trkpt>
      <trkpt lat="43.37451" lon="2.24398">
        <ele>658.5</ele>
        <time>2019-08-11T06:10:31.000Z</time>
      </trkpt>
      <trkpt lat="43.37453" lon="2.24398">
        <ele>658.7</ele>
        <time>2019-08-11T06:10:32.000Z</time>
      </trkpt>
      <trkpt lat="43.37455" lon="2.24399">
        <ele>659</ele>
        <time>2019-08-11T06:10:33.000Z</time>
      </trkpt>
      <trkpt lat="43.37457" lon="2.24399">
        <ele>659.2</ele>
        <time>2019-08-11T06:10:34.000Z</time>
      </trkpt>
      <trkpt lat="43.37459" lon="2.24399">
        <ele>659.5</ele>
        <time>2019-08-11T06:10:35.000Z</time>
      </trkpt>
      <trkpt lat="43.37461" lon="2.244">
        <ele>659.7</ele>
        <time>2019-08-11T06:10:36.000Z</time>
      </trkpt>
      <trkpt lat="43.37463" lon="2.244">
        <ele>660</ele>
        <time>2019-08-11T06:10:37.000Z</time>
      </trkpt>
      <trkpt lat="43.37466" lon="2.244">
        <ele>660.3</ele>
        <time>2019-08-11T06:10:38.000Z</time>
      </trkpt>
      <trkpt lat="43.37468" lon="2.24401">
        <ele>660.6</ele>
        <time>2019-08-11T06:10:39.000Z</time>
      </trkpt>
      <trkpt lat="43.37471" lon="2.24401">
        <ele>660.9</ele>
        <time>2019-08-11T06:10:40.000Z</time>
      </trkpt>
      <trkpt lat="43.37473" lon="2.24401">
        <ele>661.2</ele>
        <time>2019-08-11T06:10:41.000Z</time>
      </trkpt>
      <trkpt lat="43.37475" lon="2.24402">
        <ele>661.5</ele>
        <time>2019-08-11T06:10:42.000Z</time>
      </trkpt>
      <trkpt lat="43.37478" lon="2.24402">
        <ele>661.8</ele>
        <time>2019-08-11T06:10:43.000Z</time>
      </trkpt>
      <trkpt lat="43.3748" lon="2.24403">
        <ele>662.1</ele>
        <time>2019-08-11T06:10:44.000Z</time>
      </trkpt>
      <trkpt lat="43.37481" lon="2.24404">
        <ele>662.3</ele>
        <time>2019-08-11T06:10:45.000Z</time>
      </trkpt>
      <trkpt lat="43.37483" lon="2.24405">
        <ele>662.6</ele>
        <time>2019-08-11T06:10:46.000Z</time>
      </trkpt>
      <trkpt lat="43.37485" lon="2.24406">
        <ele>662.8</ele>
        <time>2019-08-11T06:10:47.000Z</time>
      </trkpt>
      <trkpt lat="43.37487" lon="2.24407">
        <ele>663.1</ele>
        <time>2019-08-11T06:10:48.000Z</time>
      </trkpt>
      <trkpt lat="43.37489" lon="2.24408">
        <ele>663.3</ele>
        <time>2019-08-11T06:10:49.000Z</time>
      </trkpt>
      <trkpt lat="43.3749" lon="2.24408">
        <ele>663.5</ele>
        <time>2019-08-11T06:10:50.000Z</time>
      </trkpt>
      <trkpt lat="43.37492" lon="2.24409">
        <ele>663.8</ele>
        <time>2019-08-11T06:10:51.000Z</time>
      </trkpt>
      <trkpt lat="43.37494" lon="2.24409">
        <ele>664</ele>
        <time>2019-08-11T06:10:52.000Z</time>
      </trkpt>
      <trkpt lat="43.37495" lon="2.24409">
        <ele>664.2</ele>
        <time>2019-08-11T06:10:53.000Z</time>
      </trkpt>
      <trkpt lat="43.37497" lon="2.24409">
        <ele>664.4</ele>
        <time>2019-08-11T06:10:54.000Z</time>
      </trkpt>
      <trkpt lat="43.37498" lon="2.24409">
        <ele>664.6</ele>
        <time>2019-08-11T06:10:55.000Z</time>
      </trkpt>
      <trkpt lat="43.375" lon="2.2441">
        <ele>664.8</ele>
        <time>2019-08-11T06:10:56.000Z</time>
      </trkpt>
      <trkpt lat="43.37501" lon="2.2441">
        <ele>664.9</ele>
        <time>2019-08-11T06:10:57.000Z</time>
      </trkpt>
      <trkpt lat="43.37502" lon="2.2441">
        <ele>665.1</ele>
        <time>2019-08-11T06:10:58.000Z</time>
      </trkpt>
      <trkpt lat="43.37503" lon="2.2441">
        <ele>665.2</ele>
        <time>2019-08-11T06:10:59.000Z</time>
      </trkpt>
      <trkpt lat="43.37504" lon="2.24411">
        <ele>665.3</ele>
        <time>2019-08-11T06:11:00.000Z</time>
      </trkpt>
      <trkpt lat="43.37505" lon="2.24411">
        <ele>665.4</ele>
        <time>2019-08-11T06:11:01.000Z</time>
      </trkpt>
      <trkpt lat="43.37506" lon="2.24412">
        <ele>665.5</ele>
        <time>2019-08-11T06:11:02.000Z</time>
      </trkpt>
      <trkpt lat="43.37507" lon="2.24412">
        <ele>665.6</ele>
        <time>2019-08-11T06:11:03.000Z</time>
      </trkpt>
      <trkpt lat="43.37508" lon="2.24413">
        <ele>665.7</ele>
        <time>2019-08-11T06:11:04.000Z</time>
      </trkpt>
      <trkpt lat="43.37509" lon="2.24414">
        <ele>665.8</ele>
        <time>2019-08-11T06:11:05.000Z</time>
      </trkpt>
      <trkpt lat="43.37509" lon="2.24414">
        <ele>665.9</ele>
        <time>2019-08-11T06:11:06.000Z</time>
      </trkpt>
      <trkpt lat="43.3751" lon="2.24415">
        <ele>666</ele>
        <time>2019-08-11T06:11:07.000Z</time>
      </trkpt>
      <trkpt lat="43.37511" lon="2.24416">
        <ele>666.1</ele>
        <time>2019-08-11T06:11:08.000Z</time>
      </trkpt>
      <trkpt lat="43.37511" lon="2.24417">
        <ele>666.2</ele>
        <time>2019-08-11T06:11:09.000Z</time>
      </trkpt>
      <trkpt lat="43.37512" lon="2.24418">
        <ele>666.3</ele>
        <time>2019-08-11T06:11:10.000Z</time>
      </trkpt>
      <trkpt lat="43.37513" lon="2.24419">
        <ele>666.3</ele>
        <time>2019-08-11T06:11:11.000Z</time>
      </trkpt>
      <trkpt lat="43.37513" lon="2.2442">
        <ele>666.4</ele>
        <time>2019-08-11T06:11:12.000Z</time>
      </trkpt>
      <trkpt lat="43.37514" lon="2.24421">
        <ele>666.5</ele>
        <time>2019-08-11T06:11:13.000Z</time>
      </trkpt>
      <trkpt lat="43.37515" lon="2.24421">
        <ele>666.5</ele>
        <time>2019-08-11T06:11:14.000Z</time>
      </trkpt>
      <trkpt lat="43.37516" lon="2.24422">
        <ele>666.6</ele>
        <time>2019-08-11T06:11:15.000Z</time>
      </trkpt>
      <trkpt lat="43.37517" lon="2.24423">
        <ele>666.7</ele>
        <time>2019-08-11T06:11:16.000Z</time>
      </trkpt>
      <trkpt lat="43.37518" lon="2.24424">
        <ele>666.8</ele>
        <time>2019-08-11T06:11:17.000Z</time>
      </trkpt>
      <trkpt lat="43.37519" lon="2.24424">
        <ele>666.9</ele>
        <time>2019-08-11T06:11:18.000Z</time>
      </trkpt>
      <trkpt lat="43.3752" lon="2.24425">
        <ele>667</ele>
        <time>2019-08-11T06:11:19.000Z</time>
      </trkpt>
      <trkpt lat="43.37521" lon="2.24426">
        <ele>667.1</ele>
        <time>2019-08-11T06:11:20.000Z</time>
      </trkpt>
      <trkpt lat="43.37522" lon="2.24426">
        <ele>667.2</ele>
        <time>2019-08-11T06:11:21.000Z</time>
      </trkpt>
      <trkpt lat="43.37523" lon="2.24427">
        <ele>667.3</ele>
        <time>2019-08-11T06:11:22.000Z</time>
      </trkpt>
      <trkpt lat="43.37524" lon="2.24428">
        <ele>667.4</ele>
        <time>2019-08-11T06:11:23.000Z</time>
      </trkpt>
      <trkpt lat="43.37524" lon="2.24428">
        <ele>667.5</ele>
        <time>2019-08-11T06:11:24.000Z</time>
      </trkpt>
      <trkpt lat="43.37525" lon="2.24429">
        <ele>667.5</ele>
        <time>2019-08-11T06:11:25.000Z</time>
      </trkpt>
      <trkpt lat="43.37526" lon="2.24429">
        <ele>667.6</ele>
        <time>2019-08-11T06:11:26.000Z</time>
      </trkpt>
      <trkpt lat="43.37526" lon="2.2443">
        <ele>667.7</ele>
        <time>2019-08-11T06:11:27.000Z</time>
      </trkpt>
      <trkpt lat="43.37527" lon="2.24431">
        <ele>667.7</ele>
        <time>2019-08-11T06:11:28.000Z</time>
      </trkpt>
      <trkpt lat="43.37528" lon="2.24431">
        <ele>667.8</ele>
        <time>2019-08-11T06:11:29.000Z</time>
      </trkpt>
      <trkpt lat="43.37528" lon="2.24432">
        <ele>667.9</ele>
        <time>2019-08-11T06:11:30.000Z</time>
      </trkpt>
      <trkpt lat="43.37529" lon="2.24432">
        <ele>668</ele>
        <time>2019-08-11T06:11:31.000Z</time>
      </trkpt>
      <trkpt lat="43.3753" lon="2.24433">
        <ele>668</ele>
        <time>2019-08-11T06:11:32.000Z</time>
      </trkpt>
      <trkpt lat="43.3753" lon="2.24433">
        <ele>668.1</ele>
        <time>2019-08-11T06:11:33.000Z</time>
      </trkpt>
      <trkpt lat="43.37531" lon="2.24434">
        <ele>668.1</ele>
        <time>2019-08-11T06:11:34.000Z</time>
      </trkpt>
      <trkpt lat="43.37531" lon="2.24434">
        <ele>668.2</ele>
        <time>2019-08-11T06:11:35.000Z</time>
      </trkpt>
      <trkpt lat="43.37532" lon="2.24434">
        <ele>668.2</ele>
        <time>2019-08-11T06:11:36.000Z</time>
      </trkpt>
      <trkpt lat="43.37532" lon="2.24434">
        <ele>668.2</ele>
        <time>2019-08-11T06:11:37.000Z</time>
      </trkpt>
      <trkpt lat="43.37532" lon="2.24434">
        <ele>668.2</ele>
        <time>2019-08-11T06:11:38.000Z</time>
      </trkpt>
      <trkpt lat="43.37532" lon="2.24434">
        <ele>668.2</ele>
        <time>2019-08-11T06:11:39.000Z</time>
      </trkpt>
      <trkpt lat="43.37532" lon="2.24434">
        <ele>668.3</ele>
        <time>2019-08-11T06:11:40.000Z</time>
      </trkpt>
      <trkpt lat="43.37532" lon="2.24434">
        <ele>668.3</ele>
        <time>2019-08-11T06:11:41.000Z</time>
      </trkpt>
      <trkpt lat="43.37532" lon="2.24434">
        <ele>668.3</ele>
        <time>2019-08-11T06:11:42.000Z</time>
      </trkpt>
      <trkpt lat="43.37533" lon="2.24434">
        <ele>668.3</ele>
        <time>2019-08-11T06:11:43.000Z</time>
      </trkpt>
      <trkpt lat="43.37533" lon="2.24435">
        <ele>668.4</ele>
        <time>2019-08-11T06:11:44.000Z</time>
      </trkpt>
      <trkpt lat="43.37534" lon="2.24435">
        <ele>668.5</ele>
        <time>2019-08-11T06:11:45.000Z</time>
      </trkpt>
      <trkpt lat="43.37535" lon="2.24436">
        <ele>668.6</ele>
        <time>2019-08-11T06:11:46.000Z</time>
      </trkpt>
      <trkpt lat="43.37536" lon="2.24437">
        <ele>668.7</ele>
        <time>2019-08-11T06:11:47.000Z</time>
      </trkpt>
      <trkpt lat="43.37537" lon="2.24437">
        <ele>668.8</ele>
        <time>2019-08-11T06:11:48.000Z</time>
      </trkpt>
      <trkpt lat="43.37538" lon="2.24438">
        <ele>668.9</ele>
        <time>2019-08-11T06:11:49.000Z</time>
      </trkpt>
      <trkpt lat="43.37538" lon="2.24438">
        <ele>669</ele>
        <time>2019-08-11T06:11:50.000Z</time>
      </trkpt>
      <trkpt lat="43.37539" lon="2.24438">
        <ele>669</ele>
        <time>2019-08-11T06:11:51.000Z</time>
      </trkpt>
      <trkpt lat="43.37539" lon="2.24439">
        <ele>669.1</ele>
        <time>2019-08-11T06:11:52.000Z</time>
      </trkpt>
      <trkpt lat="43.3754" lon="2.24439">
        <ele>669.2</ele>
        <time>2019-08-11T06:11:53.000Z</time>
      </trkpt>
      <trkpt lat="43.37541" lon="2.2444">
        <ele>669.2</ele>
        <time>2019-08-11T06:11:54.000Z</time>
      </trkpt>
      <trkpt lat="43.37542" lon="2.24441">
        <ele>669.3</ele>
        <time>2019-08-11T06:11:55.000Z</time>
      </trkpt>
      <trkpt lat="43.37542" lon="2.24442">
        <ele>669.4</ele>
        <time>2019-08-11T06:11:56.000Z</time>
      </trkpt>
      <trkpt lat="43.37543" lon="2.24442">
        <ele>669.5</ele>
        <time>2019-08-11T06:11:57.000Z</time>
      </trkpt>
      <trkpt lat="43.37544" lon="2.24443">
        <ele>669.6</ele>
        <time>2019-08-11T06:11:58.000Z</time>
      </trkpt>
      <trkpt lat="43.37544" lon="2.24444">
        <ele>669.7</ele>
        <time>2019-08-11T06:11:59.000Z</time>
      </trkpt>
      <trkpt lat="43.37545" lon="2.24444">
        <ele>669.7</ele>
        <time>2019-08-11T06:12:00.000Z</time>
      </trkpt>
      <trkpt lat="43.37546" lon="2.24445">
        <ele>669.8</ele>
        <time>2019-08-11T06:12:01.000Z</time>
      </trkpt>
      <trkpt lat="43.37547" lon="2.24446">
        <ele>669.9</ele>
        <time>2019-08-11T06:12:02.000Z</time>
      </trkpt>
      <trkpt lat="43.37548" lon="2.24447">
        <ele>670</ele>
        <time>2019-08-11T06:12:03.000Z</time>
      </trkpt>
      <trkpt lat="43.37548" lon="2.24447">
        <ele>670.1</ele>
        <time>2019-08-11T06:12:04.000Z</time>
      </trkpt>
      <trkpt lat="43.37549" lon="2.24448">
        <ele>670.2</ele>
        <time>2019-08-11T06:12:05.000Z</time>
      </trkpt>
      <trkpt lat="43.3755" lon="2.24449">
        <ele>670.3</ele>
        <time>2019-08-11T06:12:06.000Z</time>
      </trkpt>
      <trkpt lat="43.37551" lon="2.24449">
        <ele>670.4</ele>
        <time>2019-08-11T06:12:07.000Z</time>
      </trkpt>
      <trkpt lat="43.37552" lon="2.2445">
        <ele>670.5</ele>
        <time>2019-08-11T06:12:08.000Z</time>
      </trkpt>
      <trkpt lat="43.37553" lon="2.2445">
        <ele>670.6</ele>
        <time>2019-08-11T06:12:09.000Z</time>
      </trkpt>
      <trkpt lat="43.37554" lon="2.24451">
        <ele>670.8</ele>
        <time>2019-08-11T06:12:10.000Z</time>
      </trkpt>
      <trkpt lat="43.37555" lon="2.24452">
        <ele>670.9</ele>
        <time>2019-08-11T06:12:11.000Z</time>
      </trkpt>
      <trkpt lat="43.37556" lon="2.24452">
        <ele>671</ele>
        <time>2019-08-11T06:12:12.000Z</time>
      </trkpt>
      <trkpt lat="43.37557" lon="2.24453">
        <ele>671.2</ele>
        <time>2019-08-11T06:12:13.000Z</time>
      </trkpt>
      <trkpt lat="43.37558" lon="2.24454">
        <ele>671.3</ele>
        <time>2019-08-11T06:12:14.000Z</time>
      </trkpt>
      <trkpt lat="43.37559" lon="2.24454">
        <ele>671.4</ele>
        <time>2019-08-11T06:12:15.000Z</time>
      </trkpt>
      <trkpt lat="43.3756" lon="2.24455">
        <ele>671.6</ele>
        <time>2019-08-11T06:12:16.000Z</time>
      </trkpt>
      <trkpt lat="43.37562" lon="2.24456">
        <ele>671.8</ele>
        <time>2019-08-11T06:12:17.000Z</time>
      </trkpt>
      <trkpt lat="43.37563" lon="2.24456">
        <ele>671.9</ele>
        <time>2019-08-11T06:12:18.000Z</time>
      </trkpt>
      <trkpt lat="43.37564" lon="2.24457">
        <ele>672.1</ele>
        <time>2019-08-11T06:12:19.000Z</time>
      </trkpt>
      <trkpt lat="43.37566" lon="2.24458">
        <ele>672.3</ele>
        <time>2019-08-11T06:12:20.000Z</time>
      </trkpt>
      <trkpt lat="43.37567" lon="2.24458">
        <ele>672.5</ele>
        <time>2019-08-11T06:12:21.000Z</time>
      </trkpt>
      <trkpt lat="43.37569" lon="2.24459">
        <ele>672.7</ele>
        <time>2019-08-11T06:12:22.000Z</time>
      </trkpt>
      <trkpt lat="43.3757" lon="2.2446">
        <ele>672.9</ele>
        <time>2019-08-11T06:12:23.000Z</time>
      </trkpt>
      <trkpt lat="43.37572" lon="2.24461">
        <ele>673.1</ele>
        <time>2019-08-11T06:12:24.000Z</time>
      </trkpt>
      <trkpt lat="43.37574" lon="2.24461">
        <ele>673.3</ele>
        <time>2019-08-11T06:12:25.000Z</time>
      </trkpt>
      <trkpt lat="43.37576" lon="2.24462">
        <ele>673.6</ele>
        <time>2019-08-11T06:12:26.000Z</time>
      </trkpt>
      <trkpt lat="43.37578" lon="2.24463">
        <ele>673.8</ele>
        <time>2019-08-11T06:12:27.000Z</time>
      </trkpt>
      <trkpt lat="43.3758" lon="2.24464">
        <ele>674.1</ele>
        <time>2019-08-11T06:12:28.000Z</time>
      </trkpt>
      <trkpt lat="43.37582" lon="2.24464">
        <ele>674.3</ele>
        <time>2019-08-11T06:12:29.000Z</time>
      </trkpt>
      <trkpt lat="43.37584" lon="2.24465">
        <ele>674.6</ele>
        <time>2019-08-11T06:12:30.000Z</time>
      </trkpt>
      <trkpt lat="43.37586" lon="2.24466">
        <ele>674.7</ele>
        <time>2019-08-11T06:12:31.000Z</time>
      </trkpt>
      <trkpt lat="43.37588" lon="2.24467">
        <ele>674.8</ele>
        <time>2019-08-11T06:12:32.000Z</time>
      </trkpt>
      <trkpt lat="43.3759" lon="2.24468">
        <ele>674.9</ele>
        <time>2019-08-11T06:12:33.000Z</time>
      </trkpt>
      <trkpt lat="43.37592" lon="2.24469">
        <ele>675</ele>
        <time>2019-08-11T06:12:34.000Z</time>
      </trkpt>
      <trkpt lat="43.37594" lon="2.2447">
        <ele>675.1</ele>
        <time>2019-08-11T06:12:35.000Z</time>
      </trkpt>
      <trkpt lat="43.37596" lon="2.24471">
        <ele>675.2</ele>
        <time>2019-08-11T06:12:36.000Z</time>
      </trkpt>
      <trkpt lat="43.37598" lon="2.24472">
        <ele>675.3</ele>
        <time>2019-08-11T06:12:37.000Z</time>
      </trkpt>
      <trkpt lat="43.376" lon="2.24473">
        <ele>675.4</ele>
        <time>2019-08-11T06:12:38.000Z</time>
      </trkpt>
      <trkpt lat="43.37602" lon="2.24474">
        <ele>675.5</ele>
        <time>2019-08-11T06:12:39.000Z</time>
      </trkpt>
      <trkpt lat="43.37604" lon="2.24475">
        <ele>675.6</ele>
        <time>2019-08-11T06:12:40.000Z</time>
      </trkpt>
      <trkpt lat="43.37605" lon="2.24476">
        <ele>675.7</ele>
        <time>2019-08-11T06:12:41.000Z</time>
      </trkpt>
      <trkpt lat="43.37607" lon="2.24477">
        <ele>675.8</ele>
        <time>2019-08-11T06:12:42.000Z</time>
      </trkpt>
      <trkpt lat="43.37609" lon="2.24478">
        <ele>675.9</ele>
        <time>2019-08-11T06:12:43.000Z</time>
      </trkpt>
      <trkpt lat="43.3761" lon="2.24479">
        <ele>676</ele>
        <time>2019-08-11T06:12:44.000Z</time>
      </trkpt>
      <trkpt lat="43.37612" lon="2.2448">
        <ele>676.1</ele>
        <time>2019-08-11T06:12:45.000Z</time>
      </trkpt>
      <trkpt lat="43.37613" lon="2.24481">
        <ele>676.2</ele>
        <time>2019-08-11T06:12:46.000Z</time>
      </trkpt>
      <trkpt lat="43.37614" lon="2.24483">
        <ele>676.3</ele>
        <time>2019-08-11T06:12:47.000Z</time>
      </trkpt>
      <trkpt lat="43.37616" lon="2.24484">
        <ele>676.4</ele>
        <time>2019-08-11T06:12:48.000Z</time>
      </trkpt>
      <trkpt lat="43.37617" lon="2.24485">
        <ele>676.5</ele>
        <time>2019-08-11T06:12:49.000Z</time>
      </trkpt>
      <trkpt lat="43.37618" lon="2.24486">
        <ele>676.6</ele>
        <time>2019-08-11T06:12:50.000Z</time>
      </trkpt>
      <trkpt lat="43.37619" lon="2.24487">
        <ele>676.7</ele>
        <time>2019-08-11T06:12:51.000Z</time>
      </trkpt>
      <trkpt lat="43.3762" lon="2.24488">
        <ele>676.8</ele>
        <time>2019-08-11T06:12:52.000Z</time>
      </trkpt>
      <trkpt lat="43.37621" lon="2.24489">
        <ele>676.9</ele>
        <time>2019-08-11T06:12:53.000Z</time>
      </trkpt>
      <trkpt lat="43.37622" lon="2.2449">
        <ele>677</ele>
        <time>2019-08-11T06:12:54.000Z</time>
      </trkpt>
      <trkpt lat="43.37623" lon="2.24491">
        <ele>677.1</ele>
        <time>2019-08-11T06:12:55.000Z</time>
      </trkpt>
      <trkpt lat="43.37624" lon="2.24492">
        <ele>677.2</ele>
        <time>2019-08-11T06:12:56.000Z</time>
      </trkpt>
      <trkpt lat="43.37625" lon="2.24493">
        <ele>677.2</ele>
        <time>2019-08-11T06:12:57.000Z</time>
      </trkpt>
      <trkpt lat="43.37626" lon="2.24494">
        <ele>677.3</ele>
        <time>2019-08-11T06:12:58.000Z</time>
      </trkpt>
      <trkpt lat="43.37627" lon="2.24495">
        <ele>677.4</ele>
        <time>2019-08-11T06:12:59.000Z</time>
      </trkpt>
      <trkpt lat="43.37628" lon="2.24496">
        <ele>677.5</ele>
        <time>2019-08-11T06:13:00.000Z</time>
      </trkpt>
      <trkpt lat="43.37629" lon="2.24497">
        <ele>677.6</ele>
        <time>2019-08-11T06:13:01.000Z</time>
      </trkpt>
      <trkpt lat="43.3763" lon="2.24498">
        <ele>677.7</ele>
        <time>2019-08-11T06:13:02.000Z</time>
      </trkpt>
      <trkpt lat="43.37631" lon="2.24499">
        <ele>677.8</ele>
        <time>2019-08-11T06:13:03.000Z</time>
      </trkpt>
      <trkpt lat="43.37632" lon="2.245">
        <ele>677.9</ele>
        <time>2019-08-11T06:13:04.000Z</time>
      </trkpt>
      <trkpt lat="43.37633" lon="2.24501">
        <ele>678</ele>
        <time>2019-08-11T06:13:05.000Z</time>
      </trkpt>
      <trkpt lat="43.37634" lon="2.24503">
        <ele>678.1</ele>
        <time>2019-08-11T06:13:06.000Z</time>
      </trkpt>
      <trkpt lat="43.37635" lon="2.24504">
        <ele>678.2</ele>
        <time>2019-08-11T06:13:07.000Z</time>
      </trkpt>
      <trkpt lat="43.37637" lon="2.24506">
        <ele>678.3</ele>
        <time>2019-08-11T06:13:08.000Z</time>
      </trkpt>
      <trkpt lat="43.37638" lon="2.24507">
        <ele>678.5</ele>
        <time>2019-08-11T06:13:09.000Z</time>
      </trkpt>
      <trkpt lat="43.3764" lon="2.24509">
        <ele>678.6</ele>
        <time>2019-08-11T06:13:10.000Z</time>
      </trkpt>
      <trkpt lat="43.37641" lon="2.24511">
        <ele>678.8</ele>
        <time>2019-08-11T06:13:11.000Z</time>
      </trkpt>
      <trkpt lat="43.37643" lon="2.24512">
        <ele>678.9</ele>
        <time>2019-08-11T06:13:12.000Z</time>
      </trkpt>
      <trkpt lat="43.37645" lon="2.24514">
        <ele>679.1</ele>
        <time>2019-08-11T06:13:13.000Z</time>
      </trkpt>
      <trkpt lat="43.37647" lon="2.24516">
        <ele>679.3</ele>
        <time>2019-08-11T06:13:14.000Z</time>
      </trkpt>
      <trkpt lat="43.37649" lon="2.24518">
        <ele>679.5</ele>
        <time>2019-08-11T06:13:15.000Z</time>
      </trkpt>
      <trkpt lat="43.37651" lon="2.2452">
        <ele>679.7</ele>
        <time>2019-08-11T06:13:16.000Z</time>
      </trkpt>
      <trkpt lat="43.37652" lon="2.24522">
        <ele>679.9</ele>
        <time>2019-08-11T06:13:17.000Z</time>
      </trkpt>
      <trkpt lat="43.37654" lon="2.24523">
        <ele>680.1</ele>
        <time>2019-08-11T06:13:18.000Z</time>
      </trkpt>
      <trkpt lat="43.37656" lon="2.24525">
        <ele>680.4</ele>
        <time>2019-08-11T06:13:19.000Z</time>
      </trkpt>
      <trkpt lat="43.37658" lon="2.24526">
        <ele>680.6</ele>
        <time>2019-08-11T06:13:20.000Z</time>
      </trkpt>
      <trkpt lat="43.3766" lon="2.24528">
        <ele>680.8</ele>
        <time>2019-08-11T06:13:21.000Z</time>
      </trkpt>
      <trkpt lat="43.37662" lon="2.24529">
        <ele>681</ele>
        <time>2019-08-11T06:13:22.000Z</time>
      </trkpt>
      <trkpt lat="43.37664" lon="2.2453">
        <ele>681.3</ele>
        <time>2019-08-11T06:13:23.000Z</time>
      </trkpt>
      <trkpt lat="43.37666" lon="2.24531">
        <ele>681.4</ele>
        <time>2019-08-11T06:13:24.000Z</time>
      </trkpt>
      <trkpt lat="43.37668" lon="2.24532">
        <ele>681.6</ele>
        <time>2019-08-11T06:13:25.000Z</time>
      </trkpt>
      <trkpt lat="43.37669" lon="2.24533">
        <ele>681.7</ele>
        <time>2019-08-11T06:13:26.000Z</time>
      </trkpt>
      <trkpt lat="43.3767" lon="2.24534">
        <ele>681.8</ele>
        <time>2019-08-11T06:13:27.000Z</time>
      </trkpt>
      <trkpt lat="43.37671" lon="2.24535">
        <ele>681.9</ele>
        <time>2019-08-11T06:13:28.000Z</time>
      </trkpt>
      <trkpt lat="43.37671" lon="2.24536">
        <ele>681.9</ele>
        <time>2019-08-11T06:13:29.000Z</time>
      </trkpt>
      <trkpt lat="43.37672" lon="2.24537">
        <ele>682</ele>
        <time>2019-08-11T06:13:30.000Z</time>
      </trkpt>
      <trkpt lat="43.37673" lon="2.24538">
        <ele>682.2</ele>
        <time>2019-08-11T06:13:31.000Z</time>
      </trkpt>
      <trkpt lat="43.37674" lon="2.24539">
        <ele>682.3</ele>
        <time>2019-08-11T06:13:32.000Z</time>
      </trkpt>
      <trkpt lat="43.37675" lon="2.24541">
        <ele>682.4</ele>
        <time>2019-08-11T06:13:33.000Z</time>
      </trkpt>
      <trkpt lat="43.37676" lon="2.24542">
        <ele>682.5</ele>
        <time>2019-08-11T06:13:34.000Z</time>
      </trkpt>
      <trkpt lat="43.37677" lon="2.24544">
        <ele>682.6</ele>
        <time>2019-08-11T06:13:35.000Z</time>
      </trkpt>
      <trkpt lat="43.37677" lon="2.24545">
        <ele>682.7</ele>
        <time>2019-08-11T06:13:36.000Z</time>
      </trkpt>
      <trkpt lat="43.37678" lon="2.24546">
        <ele>682.9</ele>
        <time>2019-08-11T06:13:37.000Z</time>
      </trkpt>
      <trkpt lat="43.37679" lon="2.24547">
        <ele>682.9</ele>
        <time>2019-08-11T06:13:38.000Z</time>
      </trkpt>
      <trkpt lat="43.37679" lon="2.24549">
        <ele>683</ele>
        <time>2019-08-11T06:13:39.000Z</time>
      </trkpt>
      <trkpt lat="43.37679" lon="2.2455">
        <ele>683.1</ele>
        <time>2019-08-11T06:13:40.000Z</time>
      </trkpt>
      <trkpt lat="43.3768" lon="2.24551">
        <ele>683.2</ele>
        <time>2019-08-11T06:13:41.000Z</time>
      </trkpt>
      <trkpt lat="43.3768" lon="2.24551">
        <ele>683.2</ele>
        <time>2019-08-11T06:13:42.000Z</time>
      </trkpt>
      <trkpt lat="43.3768" lon="2.24552">
        <ele>683.3</ele>
        <time>2019-08-11T06:13:43.000Z</time>
      </trkpt>
      <trkpt lat="43.3768" lon="2.24553">
        <ele>683.3</ele>
        <time>2019-08-11T06:13:44.000Z</time>
      </trkpt>
      <trkpt lat="43.3768" lon="2.24553">
        <ele>683.4</ele>
        <time>2019-08-11T06:13:45.000Z</time>
      </trkpt>
      <trkpt lat="43.3768" lon="2.24554">
        <ele>683.4</ele>
        <time>2019-08-11T06:13:46.000Z</time>
      </trkpt>
      <trkpt lat="43.37681" lon="2.24554">
        <ele>683.4</ele>
        <time>2019-08-11T06:13:47.000Z</time>
      </trkpt>
      <trkpt lat="43.37681" lon="2.24555">
        <ele>683.4</ele>
        <time>2019-08-11T06:13:48.000Z</time>
      </trkpt>
      <trkpt lat="43.37681" lon="2.24555">
        <ele>683.5</ele>
        <time>2019-08-11T06:13:49.000Z</time>
      </trkpt>
      <trkpt lat="43.37681" lon="2.24555">
        <ele>683.5</ele>
        <time>2019-08-11T06:13:50.000Z</time>
      </trkpt>
      <trkpt lat="43.37681" lon="2.24555">
        <ele>683.5</ele>
        <time>2019-08-11T06:13:51.000Z</time>
      </trkpt>
      <trkpt lat="43.37681" lon="2.24556">
        <ele>683.5</ele>
        <time>2019-08-11T06:13:52.000Z</time>
      </trkpt>
      <trkpt lat="43.37681" lon="2.24556">
        <ele>683.5</ele>
        <time>2019-08-11T06:13:53.000Z</time>
      </trkpt>
      <trkpt lat="43.37681" lon="2.24556">
        <ele>683.5</ele>
        <time>2019-08-11T06:13:54.000Z</time>
      </trkpt>
      <trkpt lat="43.37681" lon="2.24556">
        <ele>683.5</ele>
        <time>2019-08-11T06:13:55.000Z</time>
      </trkpt>
      <trkpt lat="43.37681" lon="2.24556">
        <ele>683.5</ele>
        <time>2019-08-11T06:13:56.000Z</time>
      </trkpt>
      <trkpt lat="43.37681" lon="2.24556">
        <ele>683.5</ele>
        <time>2019-08-11T06:13:57.000Z</time>
      </trkpt>
      <trkpt lat="43.37681" lon="2.24556">
        <ele>683.5</ele>
        <time>2019-08-11T06:13:58.000Z</time>
      </trkpt>
      <trkpt lat="43.37681" lon="2.24556">
        <ele>683.5</ele>
        <time>2019-08-11T06:13:59.000Z</time>
      </trkpt>
      <trkpt lat="43.37681" lon="2.24556">
        <ele>683.5</ele>
        <time>2019-08-11T06:14:00.000Z</time>
      </trkpt>
      <trkpt lat="43.37681" lon="2.24555">
        <ele>683.5</ele>
        <time>2019-08-11T06:14:01.000Z</time>
      </trkpt>
      <trkpt lat="43.37681" lon="2.24555">
        <ele>683.5</ele>
        <time>2019-08-11T06:14:02.000Z</time>
      </trkpt>
      <trkpt lat="43.37681" lon="2.24555">
        <ele>683.5</ele>
        <time>2019-08-11T06:14:03.000Z</time>
      </trkpt>
      <trkpt lat="43.37681" lon="2.24555">
        <ele>683.5</ele>
        <time>2019-08-11T06:14:04.000Z</time>
      </trkpt>
      <trkpt lat="43.37681" lon="2.24555">
        <ele>683.5</ele>
        <time>2019-08-11T06:14:05.000Z</time>
      </trkpt>
      <trkpt lat="43.37683" lon="2.24555">
        <ele>683.6</ele>
        <time>2019-08-11T06:14:06.000Z</time>
      </trkpt>
      <trkpt lat="43.37685" lon="2.24553">
        <ele>683.6</ele>
        <time>2019-08-11T06:14:07.000Z</time>
      </trkpt>
      <trkpt lat="43.37686" lon="2.24553">
        <ele>683.7</ele>
        <time>2019-08-11T06:14:08.000Z</time>
      </trkpt>
      <trkpt lat="43.37686" lon="2.24553">
        <ele>683.7</ele>
        <time>2019-08-11T06:14:09.000Z</time>
      </trkpt>
      <trkpt lat="43.37687" lon="2.24554">
        <ele>683.8</ele>
        <time>2019-08-11T06:14:10.000Z</time>
      </trkpt>
      <trkpt lat="43.37688" lon="2.24554">
        <ele>683.8</ele>
        <time>2019-08-11T06:14:11.000Z</time>
      </trkpt>
      <trkpt lat="43.37689" lon="2.24554">
        <ele>683.9</ele>
        <time>2019-08-11T06:14:12.000Z</time>
      </trkpt>
      <trkpt lat="43.3769" lon="2.24555">
        <ele>684</ele>
        <time>2019-08-11T06:14:13.000Z</time>
      </trkpt>
      <trkpt lat="43.3769" lon="2.24556">
        <ele>684.1</ele>
        <time>2019-08-11T06:14:14.000Z</time>
      </trkpt>
      <trkpt lat="43.37691" lon="2.24556">
        <ele>684.2</ele>
        <time>2019-08-11T06:14:15.000Z</time>
      </trkpt>
      <trkpt lat="43.37692" lon="2.24557">
        <ele>684.3</ele>
        <time>2019-08-11T06:14:16.000Z</time>
      </trkpt>
      <trkpt lat="43.37693" lon="2.24558">
        <ele>684.3</ele>
        <time>2019-08-11T06:14:17.000Z</time>
      </trkpt>
      <trkpt lat="43.37693" lon="2.24558">
        <ele>684.4</ele>
        <time>2019-08-11T06:14:18.000Z</time>
      </trkpt>
      <trkpt lat="43.37694" lon="2.24559">
        <ele>684.5</ele>
        <time>2019-08-11T06:14:19.000Z</time>
      </trkpt>
      <trkpt lat="43.37694" lon="2.24559">
        <ele>684.5</ele>
        <time>2019-08-11T06:14:20.000Z</time>
      </trkpt>
      <trkpt lat="43.37694" lon="2.2456">
        <ele>684.6</ele>
        <time>2019-08-11T06:14:21.000Z</time>
      </trkpt>
      <trkpt lat="43.37695" lon="2.2456">
        <ele>684.6</ele>
        <time>2019-08-11T06:14:22.000Z</time>
      </trkpt>
      <trkpt lat="43.37695" lon="2.2456">
        <ele>684.6</ele>
        <time>2019-08-11T06:14:23.000Z</time>
      </trkpt>
      <trkpt lat="43.37695" lon="2.2456">
        <ele>684.7</ele>
        <time>2019-08-11T06:14:24.000Z</time>
      </trkpt>
      <trkpt lat="43.37695" lon="2.24561">
        <ele>684.7</ele>
        <time>2019-08-11T06:14:25.000Z</time>
      </trkpt>
      <trkpt lat="43.37695" lon="2.24561">
        <ele>684.7</ele>
        <time>2019-08-11T06:14:26.000Z</time>
      </trkpt>
      <trkpt lat="43.37695" lon="2.24561">
        <ele>684.7</ele>
        <time>2019-08-11T06:14:27.000Z</time>
      </trkpt>
      <trkpt lat="43.37695" lon="2.24561">
        <ele>684.7</ele>
        <time>2019-08-11T06:14:28.000Z</time>
      </trkpt>
      <trkpt lat="43.37695" lon="2.24561">
        <ele>684.7</ele>
        <time>2019-08-11T06:14:29.000Z</time>
      </trkpt>
      <trkpt lat="43.37695" lon="2.24561">
        <ele>684.7</ele>
        <time>2019-08-11T06:14:30.000Z</time>
      </trkpt>
      <trkpt lat="43.37695" lon="2.24561">
        <ele>684.7</ele>
        <time>2019-08-11T06:14:31.000Z</time>
      </trkpt>
      <trkpt lat="43.37695" lon="2.24561">
        <ele>684.7</ele>
        <time>2019-08-11T06:14:32.000Z</time>
      </trkpt>
      <trkpt lat="43.37695" lon="2.24561">
        <ele>684.7</ele>
        <time>2019-08-11T06:14:33.000Z</time>
      </trkpt>
      <trkpt lat="43.37695" lon="2.24561">
        <ele>684.7</ele>
        <time>2019-08-11T06:14:34.000Z</time>
      </trkpt>
      <trkpt lat="43.37695" lon="2.24561">
        <ele>684.7</ele>
        <time>2019-08-11T06:14:35.000Z</time>
      </trkpt>
      <trkpt lat="43.37695" lon="2.24561">
        <ele>684.7</ele>
        <time>2019-08-11T06:14:36.000Z</time>
      </trkpt>
      <trkpt lat="43.37695" lon="2.24561">
        <ele>684.7</ele>
        <time>2019-08-11T06:14:37.000Z</time>
      </trkpt>
      <trkpt lat="43.37695" lon="2.24561">
        <ele>684.7</ele>
        <time>2019-08-11T06:14:38.000Z</time>
      </trkpt>
      <trkpt lat="43.37695" lon="2.24561">
        <ele>684.7</ele>
        <time>2019-08-11T06:14:39.000Z</time>
      </trkpt>
      <trkpt lat="43.37696" lon="2.24561">
        <ele>684.7</ele>
        <time>2019-08-11T06:14:40.000Z</time>
      </trkpt>
      <trkpt lat="43.37696" lon="2.24562">
        <ele>684.8</ele>
        <time>2019-08-11T06:14:41.000Z</time>
      </trkpt>
      <trkpt lat="43.37698" lon="2.24564">
        <ele>685.1</ele>
        <time>2019-08-11T06:14:42.000Z</time>
      </trkpt>
      <trkpt lat="43.37701" lon="2.24566">
        <ele>685.3</ele>
        <time>2019-08-11T06:14:43.000Z</time>
      </trkpt>
      <trkpt lat="43.37702" lon="2.24567">
        <ele>685.5</ele>
        <time>2019-08-11T06:14:44.000Z</time>
      </trkpt>
      <trkpt lat="43.37703" lon="2.24569">
        <ele>685.7</ele>
        <time>2019-08-11T06:14:45.000Z</time>
      </trkpt>
      <trkpt lat="43.37704" lon="2.2457">
        <ele>685.8</ele>
        <time>2019-08-11T06:14:46.000Z</time>
      </trkpt>
      <trkpt lat="43.37704" lon="2.2457">
        <ele>685.9</ele>
        <time>2019-08-11T06:14:47.000Z</time>
      </trkpt>
      <trkpt lat="43.37705" lon="2.24571">
        <ele>686</ele>
        <time>2019-08-11T06:14:48.000Z</time>
      </trkpt>
      <trkpt lat="43.37705" lon="2.24572">
        <ele>686.1</ele>
        <time>2019-08-11T06:14:49.000Z</time>
      </trkpt>
      <trkpt lat="43.37706" lon="2.24573">
        <ele>686.2</ele>
        <time>2019-08-11T06:14:50.000Z</time>
      </trkpt>
      <trkpt lat="43.37706" lon="2.24574">
        <ele>686.3</ele>
        <time>2019-08-11T06:14:51.000Z</time>
      </trkpt>
      <trkpt lat="43.37707" lon="2.24575">
        <ele>686.4</ele>
        <time>2019-08-11T06:14:52.000Z</time>
      </trkpt>
      <trkpt lat="43.37707" lon="2.24576">
        <ele>686.4</ele>
        <time>2019-08-11T06:14:53.000Z</time>
      </trkpt>
      <trkpt lat="43.37707" lon="2.24577">
        <ele>686.5</ele>
        <time>2019-08-11T06:14:54.000Z</time>
      </trkpt>
      <trkpt lat="43.37707" lon="2.24578">
        <ele>686.6</ele>
        <time>2019-08-11T06:14:55.000Z</time>
      </trkpt>
      <trkpt lat="43.37707" lon="2.24579">
        <ele>686.6</ele>
        <time>2019-08-11T06:14:56.000Z</time>
      </trkpt>
      <trkpt lat="43.37707" lon="2.24579">
        <ele>686.7</ele>
        <time>2019-08-11T06:14:57.000Z</time>
      </trkpt>
      <trkpt lat="43.37707" lon="2.2458">
        <ele>686.7</ele>
        <time>2019-08-11T06:14:58.000Z</time>
      </trkpt>
      <trkpt lat="43.37708" lon="2.24581">
        <ele>686.8</ele>
        <time>2019-08-11T06:14:59.000Z</time>
      </trkpt>
      <trkpt lat="43.37708" lon="2.24582">
        <ele>686.9</ele>
        <time>2019-08-11T06:15:00.000Z</time>
      </trkpt>
      <trkpt lat="43.37708" lon="2.24583">
        <ele>686.9</ele>
        <time>2019-08-11T06:15:01.000Z</time>
      </trkpt>
      <trkpt lat="43.37709" lon="2.24584">
        <ele>687</ele>
        <time>2019-08-11T06:15:02.000Z</time>
      </trkpt>
      <trkpt lat="43.37709" lon="2.24584">
        <ele>687</ele>
        <time>2019-08-11T06:15:03.000Z</time>
      </trkpt>
      <trkpt lat="43.3771" lon="2.24585">
        <ele>687.1</ele>
        <time>2019-08-11T06:15:04.000Z</time>
      </trkpt>
      <trkpt lat="43.3771" lon="2.24586">
        <ele>687.1</ele>
        <time>2019-08-11T06:15:05.000Z</time>
      </trkpt>
      <trkpt lat="43.37711" lon="2.24587">
        <ele>687.2</ele>
        <time>2019-08-11T06:15:06.000Z</time>
      </trkpt>
      <trkpt lat="43.37711" lon="2.24587">
        <ele>687.2</ele>
        <time>2019-08-11T06:15:07.000Z</time>
      </trkpt>
      <trkpt lat="43.37711" lon="2.24588">
        <ele>687.2</ele>
        <time>2019-08-11T06:15:08.000Z</time>
      </trkpt>
      <trkpt lat="43.37712" lon="2.24588">
        <ele>687.2</ele>
        <time>2019-08-11T06:15:09.000Z</time>
      </trkpt>
      <trkpt lat="43.37712" lon="2.24588">
        <ele>687.2</ele>
        <time>2019-08-11T06:15:10.000Z</time>
      </trkpt>
      <trkpt lat="43.37712" lon="2.24588">
        <ele>687.2</ele>
        <time>2019-08-11T06:15:11.000Z</time>
      </trkpt>
      <trkpt lat="43.37712" lon="2.24588">
        <ele>687.2</ele>
        <time>2019-08-11T06:15:12.000Z</time>
      </trkpt>
      <trkpt lat="43.37712" lon="2.24588">
        <ele>687.2</ele>
        <time>2019-08-11T06:15:13.000Z</time>
      </trkpt>
      <trkpt lat="43.37712" lon="2.24588">
        <ele>687.2</ele>
        <time>2019-08-11T06:15:14.000Z</time>
      </trkpt>
      <trkpt lat="43.37712" lon="2.24588">
        <ele>687.2</ele>
        <time>2019-08-11T06:15:15.000Z</time>
      </trkpt>
      <trkpt lat="43.37712" lon="2.24588">
        <ele>687.2</ele>
        <time>2019-08-11T06:15:16.000Z</time>
      </trkpt>
      <trkpt lat="43.37712" lon="2.24588">
        <ele>687.2</ele>
        <time>2019-08-11T06:15:17.000Z</time>
      </trkpt>
      <trkpt lat="43.37712" lon="2.24588">
        <ele>687.2</ele>
        <time>2019-08-11T06:15:18.000Z</time>
      </trkpt>
      <trkpt lat="43.37712" lon="2.24588">
        <ele>687.2</ele>
        <time>2019-08-11T06:15:19.000Z</time>
      </trkpt>
      <trkpt lat="43.37712" lon="2.24588">
        <ele>687.2</ele>
        <time>2019-08-11T06:15:20.000Z</time>
      </trkpt>
      <trkpt lat="43.37712" lon="2.24588">
        <ele>687.2</ele>
        <time>2019-08-11T06:15:21.000Z</time>
      </trkpt>
      <trkpt lat="43.37712" lon="2.24588">
        <ele>687.2</ele>
        <time>2019-08-11T06:15:22.000Z</time>
      </trkpt>
      <trkpt lat="43.37712" lon="2.24588">
        <ele>687.2</ele>
        <time>2019-08-11T06:15:23.000Z</time>
      </trkpt>
      <trkpt lat="43.37712" lon="2.24588">
        <ele>687.2</ele>
        <time>2019-08-11T06:15:24.000Z</time>
      </trkpt>
      <trkpt lat="43.37712" lon="2.24588">
        <ele>687.2</ele>
        <time>2019-08-11T06:15:25.000Z</time>
      </trkpt>
      <trkpt lat="43.37712" lon="2.24588">
        <ele>687.2</ele>
        <time>2019-08-11T06:15:26.000Z</time>
      </trkpt>
      <trkpt lat="43.37712" lon="2.24588">
        <ele>687.2</ele>
        <time>2019-08-11T06:15:27.000Z</time>
      </trkpt>
      <trkpt lat="43.37712" lon="2.24588">
        <ele>687.2</ele>
        <time>2019-08-11T06:15:28.000Z</time>
      </trkpt>
      <trkpt lat="43.37712" lon="2.24588">
        <ele>687.2</ele>
        <time>2019-08-11T06:15:29.000Z</time>
      </trkpt>
      <trkpt lat="43.37712" lon="2.24588">
        <ele>687.2</ele>
        <time>2019-08-11T06:15:30.000Z</time>
      </trkpt>
      <trkpt lat="43.37712" lon="2.24588">
        <ele>687.2</ele>
        <time>2019-08-11T06:15:31.000Z</time>
      </trkpt>
      <trkpt lat="43.37712" lon="2.24588">
        <ele>687.2</ele>
        <time>2019-08-11T06:15:32.000Z</time>
      </trkpt>
      <trkpt lat="43.37712" lon="2.24588">
        <ele>687.2</ele>
        <time>2019-08-11T06:15:33.000Z</time>
      </trkpt>
      <trkpt lat="43.37712" lon="2.24588">
        <ele>687.2</ele>
        <time>2019-08-11T06:15:34.000Z</time>
      </trkpt>
      <trkpt lat="43.37712" lon="2.24588">
        <ele>687.2</ele>
        <time>2019-08-11T06:15:35.000Z</time>
      </trkpt>
      <trkpt lat="43.37712" lon="2.24588">
        <ele>687.2</ele>
        <time>2019-08-11T06:15:36.000Z</time>
      </trkpt>
      <trkpt lat="43.37712" lon="2.24588">
        <ele>687.2</ele>
        <time>2019-08-11T06:15:37.000Z</time>
      </trkpt>
      <trkpt lat="43.37712" lon="2.24588">
        <ele>687.2</ele>
        <time>2019-08-11T06:15:38.000Z</time>
      </trkpt>
      <trkpt lat="43.37712" lon="2.24588">
        <ele>687.2</ele>
        <time>2019-08-11T06:15:39.000Z</time>
      </trkpt>
      <trkpt lat="43.37712" lon="2.24588">
        <ele>687.2</ele>
        <time>2019-08-11T06:15:40.000Z</time>
      </trkpt>
      <trkpt lat="43.37712" lon="2.24588">
        <ele>687.2</ele>
        <time>2019-08-11T06:15:41.000Z</time>
      </trkpt>
      <trkpt lat="43.37712" lon="2.24588">
        <ele>687.2</ele>
        <time>2019-08-11T06:15:42.000Z</time>
      </trkpt>
      <trkpt lat="43.37712" lon="2.24588">
        <ele>687.2</ele>
        <time>2019-08-11T06:15:43.000Z</time>
      </trkpt>
      <trkpt lat="43.37712" lon="2.24588">
        <ele>687.2</ele>
        <time>2019-08-11T06:15:44.000Z</time>
      </trkpt>
      <trkpt lat="43.37712" lon="2.24588">
        <ele>687.2</ele>
        <time>2019-08-11T06:15:45.000Z</time>
      </trkpt>
      <trkpt lat="43.37712" lon="2.24588">
        <ele>687.2</ele>
        <time>2019-08-11T06:15:46.000Z</time>
      </trkpt>
      <trkpt lat="43.37712" lon="2.24588">
        <ele>687.2</ele>
        <time>2019-08-11T06:15:47.000Z</time>
      </trkpt>
      <trkpt lat="43.37712" lon="2.24588">
        <ele>687.3</ele>
        <time>2019-08-11T06:15:48.000Z</time>
      </trkpt>
      <trkpt lat="43.37713" lon="2.24589">
        <ele>687.4</ele>
        <time>2019-08-11T06:15:49.000Z</time>
      </trkpt>
      <trkpt lat="43.37716" lon="2.2459">
        <ele>687.6</ele>
        <time>2019-08-11T06:15:50.000Z</time>
      </trkpt>
      <trkpt lat="43.37718" lon="2.24591">
        <ele>687.7</ele>
        <time>2019-08-11T06:15:51.000Z</time>
      </trkpt>
      <trkpt lat="43.37719" lon="2.24592">
        <ele>687.8</ele>
        <time>2019-08-11T06:15:52.000Z</time>
      </trkpt>
      <trkpt lat="43.37719" lon="2.24592">
        <ele>687.8</ele>
        <time>2019-08-11T06:15:53.000Z</time>
      </trkpt>
      <trkpt lat="43.37719" lon="2.24592">
        <ele>687.8</ele>
        <time>2019-08-11T06:15:54.000Z</time>
      </trkpt>
      <trkpt lat="43.3772" lon="2.24592">
        <ele>687.9</ele>
        <time>2019-08-11T06:15:55.000Z</time>
      </trkpt>
      <trkpt lat="43.37721" lon="2.24592">
        <ele>687.9</ele>
        <time>2019-08-11T06:15:56.000Z</time>
      </trkpt>
      <trkpt lat="43.37722" lon="2.24593">
        <ele>688</ele>
        <time>2019-08-11T06:15:57.000Z</time>
      </trkpt>
      <trkpt lat="43.37722" lon="2.24593">
        <ele>688.1</ele>
        <time>2019-08-11T06:15:58.000Z</time>
      </trkpt>
      <trkpt lat="43.37723" lon="2.24594">
        <ele>688.1</ele>
        <time>2019-08-11T06:15:59.000Z</time>
      </trkpt>
      <trkpt lat="43.37723" lon="2.24594">
        <ele>688.1</ele>
        <time>2019-08-11T06:16:00.000Z</time>
      </trkpt>
      <trkpt lat="43.37723" lon="2.24594">
        <ele>688.1</ele>
        <time>2019-08-11T06:16:01.000Z</time>
      </trkpt>
      <trkpt lat="43.37723" lon="2.24594">
        <ele>688.1</ele>
        <time>2019-08-11T06:16:02.000Z</time>
      </trkpt>
      <trkpt lat="43.37723" lon="2.24594">
        <ele>688.1</ele>
        <time>2019-08-11T06:16:03.000Z</time>
      </trkpt>
      <trkpt lat="43.37723" lon="2.24594">
        <ele>688.1</ele>
        <time>2019-08-11T06:16:04.000Z</time>
      </trkpt>
      <trkpt lat="43.37723" lon="2.24594">
        <ele>688.2</ele>
        <time>2019-08-11T06:16:05.000Z</time>
      </trkpt>
      <trkpt lat="43.37723" lon="2.24594">
        <ele>688.2</ele>
        <time>2019-08-11T06:16:06.000Z</time>
      </trkpt>
      <trkpt lat="43.37724" lon="2.24594">
        <ele>688.2</ele>
        <time>2019-08-11T06:16:07.000Z</time>
      </trkpt>
      <trkpt lat="43.37724" lon="2.24594">
        <ele>688.2</ele>
        <time>2019-08-11T06:16:08.000Z</time>
      </trkpt>
      <trkpt lat="43.37725" lon="2.24594">
        <ele>688.3</ele>
        <time>2019-08-11T06:16:09.000Z</time>
      </trkpt>
      <trkpt lat="43.37725" lon="2.24593">
        <ele>688.3</ele>
        <time>2019-08-11T06:16:10.000Z</time>
      </trkpt>
      <trkpt lat="43.37725" lon="2.24593">
        <ele>688.3</ele>
        <time>2019-08-11T06:16:11.000Z</time>
      </trkpt>
      <trkpt lat="43.37726" lon="2.24593">
        <ele>688.3</ele>
        <time>2019-08-11T06:16:12.000Z</time>
      </trkpt>
      <trkpt lat="43.37726" lon="2.24593">
        <ele>688.4</ele>
        <time>2019-08-11T06:16:13.000Z</time>
      </trkpt>
      <trkpt lat="43.37726" lon="2.24593">
        <ele>688.4</ele>
        <time>2019-08-11T06:16:14.000Z</time>
      </trkpt>
      <trkpt lat="43.37726" lon="2.24593">
        <ele>688.4</ele>
        <time>2019-08-11T06:16:15.000Z</time>
      </trkpt>
      <trkpt lat="43.37726" lon="2.24593">
        <ele>688.4</ele>
        <time>2019-08-11T06:16:16.000Z</time>
      </trkpt>
      <trkpt lat="43.37726" lon="2.24593">
        <ele>688.4</ele>
        <time>2019-08-11T06:16:17.000Z</time>
      </trkpt>
      <trkpt lat="43.37726" lon="2.24593">
        <ele>688.4</ele>
        <time>2019-08-11T06:16:18.000Z</time>
      </trkpt>
      <trkpt lat="43.37726" lon="2.24593">
        <ele>688.4</ele>
        <time>2019-08-11T06:16:19.000Z</time>
      </trkpt>
      <trkpt lat="43.37726" lon="2.24593">
        <ele>688.4</ele>
        <time>2019-08-11T06:16:20.000Z</time>
      </trkpt>
      <trkpt lat="43.37726" lon="2.24593">
        <ele>688.4</ele>
        <time>2019-08-11T06:16:21.000Z</time>
      </trkpt>
      <trkpt lat="43.37726" lon="2.24593">
        <ele>688.4</ele>
        <time>2019-08-11T06:16:22.000Z</time>
      </trkpt>
      <trkpt lat="43.37726" lon="2.24593">
        <ele>688.4</ele>
        <time>2019-08-11T06:16:23.000Z</time>
      </trkpt>
      <trkpt lat="43.37727" lon="2.24594">
        <ele>688.4</ele>
        <time>2019-08-11T06:16:24.000Z</time>
      </trkpt>
      <trkpt lat="43.37727" lon="2.24594">
        <ele>688.5</ele>
        <time>2019-08-11T06:16:25.000Z</time>
      </trkpt>
      <trkpt lat="43.37727" lon="2.24594">
        <ele>688.5</ele>
        <time>2019-08-11T06:16:26.000Z</time>
      </trkpt>
      <trkpt lat="43.37727" lon="2.24595">
        <ele>688.5</ele>
        <time>2019-08-11T06:16:27.000Z</time>
      </trkpt>
      <trkpt lat="43.37728" lon="2.24595">
        <ele>688.5</ele>
        <time>2019-08-11T06:16:28.000Z</time>
      </trkpt>
      <trkpt lat="43.37728" lon="2.24596">
        <ele>688.6</ele>
        <time>2019-08-11T06:16:29.000Z</time>
      </trkpt>
      <trkpt lat="43.37728" lon="2.24597">
        <ele>688.6</ele>
        <time>2019-08-11T06:16:30.000Z</time>
      </trkpt>
      <trkpt lat="43.37729" lon="2.24598">
        <ele>688.7</ele>
        <time>2019-08-11T06:16:31.000Z</time>
      </trkpt>
      <trkpt lat="43.37729" lon="2.24599">
        <ele>688.7</ele>
        <time>2019-08-11T06:16:32.000Z</time>
      </trkpt>
      <trkpt lat="43.37729" lon="2.246">
        <ele>688.8</ele>
        <time>2019-08-11T06:16:33.000Z</time>
      </trkpt>
      <trkpt lat="43.3773" lon="2.24601">
        <ele>688.8</ele>
        <time>2019-08-11T06:16:34.000Z</time>
      </trkpt>
      <trkpt lat="43.3773" lon="2.24602">
        <ele>688.9</ele>
        <time>2019-08-11T06:16:35.000Z</time>
      </trkpt>
      <trkpt lat="43.3773" lon="2.24603">
        <ele>688.9</ele>
        <time>2019-08-11T06:16:36.000Z</time>
      </trkpt>
      <trkpt lat="43.37731" lon="2.24605">
        <ele>689</ele>
        <time>2019-08-11T06:16:37.000Z</time>
      </trkpt>
      <trkpt lat="43.37731" lon="2.24606">
        <ele>689</ele>
        <time>2019-08-11T06:16:38.000Z</time>
      </trkpt>
      <trkpt lat="43.37732" lon="2.24607">
        <ele>689.1</ele>
        <time>2019-08-11T06:16:39.000Z</time>
      </trkpt>
      <trkpt lat="43.37732" lon="2.24608">
        <ele>689.1</ele>
        <time>2019-08-11T06:16:40.000Z</time>
      </trkpt>
      <trkpt lat="43.37733" lon="2.24609">
        <ele>689.2</ele>
        <time>2019-08-11T06:16:41.000Z</time>
      </trkpt>
      <trkpt lat="43.37733" lon="2.2461">
        <ele>689.3</ele>
        <time>2019-08-11T06:16:42.000Z</time>
      </trkpt>
      <trkpt lat="43.37734" lon="2.24611">
        <ele>689.4</ele>
        <time>2019-08-11T06:16:43.000Z</time>
      </trkpt>
      <trkpt lat="43.37734" lon="2.24612">
        <ele>689.4</ele>
        <time>2019-08-11T06:16:44.000Z</time>
      </trkpt>
      <trkpt lat="43.37735" lon="2.24613">
        <ele>689.5</ele>
        <time>2019-08-11T06:16:45.000Z</time>
      </trkpt>
      <trkpt lat="43.37735" lon="2.24614">
        <ele>689.6</ele>
        <time>2019-08-11T06:16:46.000Z</time>
      </trkpt>
      <trkpt lat="43.37736" lon="2.24615">
        <ele>689.7</ele>
        <time>2019-08-11T06:16:47.000Z</time>
      </trkpt>
      <trkpt lat="43.37736" lon="2.24616">
        <ele>689.8</ele>
        <time>2019-08-11T06:16:48.000Z</time>
      </trkpt>
      <trkpt lat="43.37737" lon="2.24618">
        <ele>689.8</ele>
        <time>2019-08-11T06:16:49.000Z</time>
      </trkpt>
      <trkpt lat="43.37737" lon="2.24619">
        <ele>689.9</ele>
        <time>2019-08-11T06:16:50.000Z</time>
      </trkpt>
      <trkpt lat="43.37738" lon="2.24621">
        <ele>690</ele>
        <time>2019-08-11T06:16:51.000Z</time>
      </trkpt>
      <trkpt lat="43.37738" lon="2.24623">
        <ele>690.1</ele>
        <time>2019-08-11T06:16:52.000Z</time>
      </trkpt>
      <trkpt lat="43.37738" lon="2.24624">
        <ele>690.1</ele>
        <time>2019-08-11T06:16:53.000Z</time>
      </trkpt>
      <trkpt lat="43.37739" lon="2.24626">
        <ele>690.2</ele>
        <time>2019-08-11T06:16:54.000Z</time>
      </trkpt>
      <trkpt lat="43.37739" lon="2.24628">
        <ele>690.3</ele>
        <time>2019-08-11T06:16:55.000Z</time>
      </trkpt>
      <trkpt lat="43.3774" lon="2.2463">
        <ele>690.4</ele>
        <time>2019-08-11T06:16:56.000Z</time>
      </trkpt>
      <trkpt lat="43.3774" lon="2.24632">
        <ele>690.5</ele>
        <time>2019-08-11T06:16:57.000Z</time>
      </trkpt>
      <trkpt lat="43.3774" lon="2.24635">
        <ele>690.7</ele>
        <time>2019-08-11T06:16:58.000Z</time>
      </trkpt>
      <trkpt lat="43.37741" lon="2.24637">
        <ele>690.8</ele>
        <time>2019-08-11T06:16:59.000Z</time>
      </trkpt>
      <trkpt lat="43.37742" lon="2.24639">
        <ele>690.9</ele>
        <time>2019-08-11T06:17:00.000Z</time>
      </trkpt>
      <trkpt lat="43.37743" lon="2.24641">
        <ele>691.1</ele>
        <time>2019-08-11T06:17:01.000Z</time>
      </trkpt>
      <trkpt lat="43.37744" lon="2.24643">
        <ele>691.3</ele>
        <time>2019-08-11T06:17:02.000Z</time>
      </trkpt>
      <trkpt lat="43.37745" lon="2.24645">
        <ele>691.5</ele>
        <time>2019-08-11T06:17:03.000Z</time>
      </trkpt>
      <trkpt lat="43.37746" lon="2.24647">
        <ele>691.7</ele>
        <time>2019-08-11T06:17:04.000Z</time>
      </trkpt>
      <trkpt lat="43.37747" lon="2.24649">
        <ele>691.9</ele>
        <time>2019-08-11T06:17:05.000Z</time>
      </trkpt>
      <trkpt lat="43.37748" lon="2.24652">
        <ele>692.2</ele>
        <time>2019-08-11T06:17:06.000Z</time>
      </trkpt>
      <trkpt lat="43.37749" lon="2.24654">
        <ele>692.4</ele>
        <time>2019-08-11T06:17:07.000Z</time>
      </trkpt>
      <trkpt lat="43.3775" lon="2.24656">
        <ele>692.6</ele>
        <time>2019-08-11T06:17:08.000Z</time>
      </trkpt>
      <trkpt lat="43.37751" lon="2.24659">
        <ele>692.8</ele>
        <time>2019-08-11T06:17:09.000Z</time>
      </trkpt>
      <trkpt lat="43.37752" lon="2.24661">
        <ele>692.9</ele>
        <time>2019-08-11T06:17:10.000Z</time>
      </trkpt>
      <trkpt lat="43.37754" lon="2.24663">
        <ele>693.1</ele>
        <time>2019-08-11T06:17:11.000Z</time>
      </trkpt>
      <trkpt lat="43.37755" lon="2.24666">
        <ele>693.2</ele>
        <time>2019-08-11T06:17:12.000Z</time>
      </trkpt>
      <trkpt lat="43.37756" lon="2.24668">
        <ele>693.3</ele>
        <time>2019-08-11T06:17:13.000Z</time>
      </trkpt>
      <trkpt lat="43.37757" lon="2.2467">
        <ele>693.4</ele>
        <time>2019-08-11T06:17:14.000Z</time>
      </trkpt>
      <trkpt lat="43.37758" lon="2.24672">
        <ele>693.4</ele>
        <time>2019-08-11T06:17:15.000Z</time>
      </trkpt>
      <trkpt lat="43.37759" lon="2.24674">
        <ele>693.5</ele>
        <time>2019-08-11T06:17:16.000Z</time>
      </trkpt>
      <trkpt lat="43.3776" lon="2.24676">
        <ele>693.5</ele>
        <time>2019-08-11T06:17:17.000Z</time>
      </trkpt>
      <trkpt lat="43.37761" lon="2.24678">
        <ele>693.6</ele>
        <time>2019-08-11T06:17:18.000Z</time>
      </trkpt>
      <trkpt lat="43.37763" lon="2.24679">
        <ele>693.6</ele>
        <time>2019-08-11T06:17:19.000Z</time>
      </trkpt>
      <trkpt lat="43.37764" lon="2.24681">
        <ele>693.7</ele>
        <time>2019-08-11T06:17:20.000Z</time>
      </trkpt>
      <trkpt lat="43.37765" lon="2.24683">
        <ele>693.7</ele>
        <time>2019-08-11T06:17:21.000Z</time>
      </trkpt>
      <trkpt lat="43.37766" lon="2.24685">
        <ele>693.8</ele>
        <time>2019-08-11T06:17:22.000Z</time>
      </trkpt>
      <trkpt lat="43.37767" lon="2.24687">
        <ele>693.8</ele>
        <time>2019-08-11T06:17:23.000Z</time>
      </trkpt>
      <trkpt lat="43.37769" lon="2.24689">
        <ele>693.9</ele>
        <time>2019-08-11T06:17:24.000Z</time>
      </trkpt>
      <trkpt lat="43.3777" lon="2.24691">
        <ele>693.9</ele>
        <time>2019-08-11T06:17:25.000Z</time>
      </trkpt>
      <trkpt lat="43.37771" lon="2.24693">
        <ele>694</ele>
        <time>2019-08-11T06:17:26.000Z</time>
      </trkpt>
      <trkpt lat="43.37772" lon="2.24695">
        <ele>694</ele>
        <time>2019-08-11T06:17:27.000Z</time>
      </trkpt>
      <trkpt lat="43.37774" lon="2.24697">
        <ele>694.1</ele>
        <time>2019-08-11T06:17:28.000Z</time>
      </trkpt>
      <trkpt lat="43.37775" lon="2.24699">
        <ele>694.1</ele>
        <time>2019-08-11T06:17:29.000Z</time>
      </trkpt>
      <trkpt lat="43.37776" lon="2.24701">
        <ele>694.1</ele>
        <time>2019-08-11T06:17:30.000Z</time>
      </trkpt>
      <trkpt lat="43.37777" lon="2.24702">
        <ele>694.2</ele>
        <time>2019-08-11T06:17:31.000Z</time>
      </trkpt>
      <trkpt lat="43.37778" lon="2.24704">
        <ele>694.2</ele>
        <time>2019-08-11T06:17:32.000Z</time>
      </trkpt>
      <trkpt lat="43.37779" lon="2.24706">
        <ele>694.3</ele>
        <time>2019-08-11T06:17:33.000Z</time>
      </trkpt>
      <trkpt lat="43.3778" lon="2.24707">
        <ele>694.3</ele>
        <time>2019-08-11T06:17:34.000Z</time>
      </trkpt>
      <trkpt lat="43.37781" lon="2.24708">
        <ele>694.3</ele>
        <time>2019-08-11T06:17:35.000Z</time>
      </trkpt>
      <trkpt lat="43.37782" lon="2.24709">
        <ele>694.4</ele>
        <time>2019-08-11T06:17:36.000Z</time>
      </trkpt>
      <trkpt lat="43.37782" lon="2.2471">
        <ele>694.4</ele>
        <time>2019-08-11T06:17:37.000Z</time>
      </trkpt>
      <trkpt lat="43.37783" lon="2.24711">
        <ele>694.4</ele>
        <time>2019-08-11T06:17:38.000Z</time>
      </trkpt>
      <trkpt lat="43.37784" lon="2.24712">
        <ele>694.5</ele>
        <time>2019-08-11T06:17:39.000Z</time>
      </trkpt>
      <trkpt lat="43.37785" lon="2.24713">
        <ele>694.5</ele>
        <time>2019-08-11T06:17:40.000Z</time>
      </trkpt>
      <trkpt lat="43.37785" lon="2.24714">
        <ele>694.6</ele>
        <time>2019-08-11T06:17:41.000Z</time>
      </trkpt>
      <trkpt lat="43.37786" lon="2.24715">
        <ele>694.6</ele>
        <time>2019-08-11T06:17:42.000Z</time>
      </trkpt>
      <trkpt lat="43.37788" lon="2.24717">
        <ele>694.6</ele>
        <time>2019-08-11T06:17:43.000Z</time>
      </trkpt>
      <trkpt lat="43.37789" lon="2.24718">
        <ele>694.7</ele>
        <time>2019-08-11T06:17:44.000Z</time>
      </trkpt>
      <trkpt lat="43.3779" lon="2.2472">
        <ele>694.8</ele>
        <time>2019-08-11T06:17:45.000Z</time>
      </trkpt>
      <trkpt lat="43.37792" lon="2.24722">
        <ele>694.8</ele>
        <time>2019-08-11T06:17:46.000Z</time>
      </trkpt>
      <trkpt lat="43.37793" lon="2.24724">
        <ele>694.9</ele>
        <time>2019-08-11T06:17:47.000Z</time>
      </trkpt>
      <trkpt lat="43.37794" lon="2.24726">
        <ele>694.9</ele>
        <time>2019-08-11T06:17:48.000Z</time>
      </trkpt>
      <trkpt lat="43.37795" lon="2.24728">
        <ele>695</ele>
        <time>2019-08-11T06:17:49.000Z</time>
      </trkpt>
      <trkpt lat="43.37797" lon="2.2473">
        <ele>695</ele>
        <time>2019-08-11T06:17:50.000Z</time>
      </trkpt>
      <trkpt lat="43.37798" lon="2.24732">
        <ele>695.1</ele>
        <time>2019-08-11T06:17:51.000Z</time>
      </trkpt>
      <trkpt lat="43.37799" lon="2.24734">
        <ele>695.1</ele>
        <time>2019-08-11T06:17:52.000Z</time>
      </trkpt>
      <trkpt lat="43.378" lon="2.24736">
        <ele>695.2</ele>
        <time>2019-08-11T06:17:53.000Z</time>
      </trkpt>
      <trkpt lat="43.37801" lon="2.24738">
        <ele>695.2</ele>
        <time>2019-08-11T06:17:54.000Z</time>
      </trkpt>
      <trkpt lat="43.37801" lon="2.24739">
        <ele>695.2</ele>
        <time>2019-08-11T06:17:55.000Z</time>
      </trkpt>
      <trkpt lat="43.37802" lon="2.24741">
        <ele>695.2</ele>
        <time>2019-08-11T06:17:56.000Z</time>
      </trkpt>
      <trkpt lat="43.37803" lon="2.24743">
        <ele>695.3</ele>
        <time>2019-08-11T06:17:57.000Z</time>
      </trkpt>
      <trkpt lat="43.37804" lon="2.24745">
        <ele>695.3</ele>
        <time>2019-08-11T06:17:58.000Z</time>
      </trkpt>
      <trkpt lat="43.37804" lon="2.24746">
        <ele>695.3</ele>
        <time>2019-08-11T06:17:59.000Z</time>
      </trkpt>
      <trkpt lat="43.37805" lon="2.24748">
        <ele>695.3</ele>
        <time>2019-08-11T06:18:00.000Z</time>
      </trkpt>
      <trkpt lat="43.37806" lon="2.2475">
        <ele>695.3</ele>
        <time>2019-08-11T06:18:01.000Z</time>
      </trkpt>
      <trkpt lat="43.37807" lon="2.24751">
        <ele>695.4</ele>
        <time>2019-08-11T06:18:02.000Z</time>
      </trkpt>
      <trkpt lat="43.37807" lon="2.24753">
        <ele>695.4</ele>
        <time>2019-08-11T06:18:03.000Z</time>
      </trkpt>
      <trkpt lat="43.37808" lon="2.24755">
        <ele>695.5</ele>
        <time>2019-08-11T06:18:04.000Z</time>
      </trkpt>
      <trkpt lat="43.37809" lon="2.24756">
        <ele>695.5</ele>
        <time>2019-08-11T06:18:05.000Z</time>
      </trkpt>
      <trkpt lat="43.3781" lon="2.24758">
        <ele>695.6</ele>
        <time>2019-08-11T06:18:06.000Z</time>
      </trkpt>
      <trkpt lat="43.37811" lon="2.2476">
        <ele>695.6</ele>
        <time>2019-08-11T06:18:07.000Z</time>
      </trkpt>
      <trkpt lat="43.37811" lon="2.24761">
        <ele>695.7</ele>
        <time>2019-08-11T06:18:08.000Z</time>
      </trkpt>
      <trkpt lat="43.37812" lon="2.24763">
        <ele>695.7</ele>
        <time>2019-08-11T06:18:09.000Z</time>
      </trkpt>
      <trkpt lat="43.37813" lon="2.24765">
        <ele>695.8</ele>
        <time>2019-08-11T06:18:10.000Z</time>
      </trkpt>
      <trkpt lat="43.37814" lon="2.24767">
        <ele>695.8</ele>
        <time>2019-08-11T06:18:11.000Z</time>
      </trkpt>
      <trkpt lat="43.37815" lon="2.24768">
        <ele>695.9</ele>
        <time>2019-08-11T06:18:12.000Z</time>
      </trkpt>
      <trkpt lat="43.37816" lon="2.2477">
        <ele>695.9</ele>
        <time>2019-08-11T06:18:13.000Z</time>
      </trkpt>
      <trkpt lat="43.37817" lon="2.24772">
        <ele>696</ele>
        <time>2019-08-11T06:18:14.000Z</time>
      </trkpt>
      <trkpt lat="43.37818" lon="2.24773">
        <ele>696.1</ele>
        <time>2019-08-11T06:18:15.000Z</time>
      </trkpt>
      <trkpt lat="43.37818" lon="2.24775">
        <ele>696.1</ele>
        <time>2019-08-11T06:18:16.000Z</time>
      </trkpt>
      <trkpt lat="43.37819" lon="2.24777">
        <ele>696.2</ele>
        <time>2019-08-11T06:18:17.000Z</time>
      </trkpt>
      <trkpt lat="43.3782" lon="2.24779">
        <ele>696.2</ele>
        <time>2019-08-11T06:18:18.000Z</time>
      </trkpt>
      <trkpt lat="43.37821" lon="2.2478">
        <ele>696.3</ele>
        <time>2019-08-11T06:18:19.000Z</time>
      </trkpt>
      <trkpt lat="43.37822" lon="2.24782">
        <ele>696.3</ele>
        <time>2019-08-11T06:18:20.000Z</time>
      </trkpt>
      <trkpt lat="43.37823" lon="2.24784">
        <ele>696.4</ele>
        <time>2019-08-11T06:18:21.000Z</time>
      </trkpt>
      <trkpt lat="43.37823" lon="2.24786">
        <ele>696.4</ele>
        <time>2019-08-11T06:18:22.000Z</time>
      </trkpt>
      <trkpt lat="43.37824" lon="2.24787">
        <ele>696.5</ele>
        <time>2019-08-11T06:18:23.000Z</time>
      </trkpt>
      <trkpt lat="43.37825" lon="2.24789">
        <ele>696.5</ele>
        <time>2019-08-11T06:18:24.000Z</time>
      </trkpt>
      <trkpt lat="43.37826" lon="2.24791">
        <ele>696.6</ele>
        <time>2019-08-11T06:18:25.000Z</time>
      </trkpt>
      <trkpt lat="43.37827" lon="2.24793">
        <ele>696.6</ele>
        <time>2019-08-11T06:18:26.000Z</time>
      </trkpt>
      <trkpt lat="43.37828" lon="2.24795">
        <ele>696.7</ele>
        <time>2019-08-11T06:18:27.000Z</time>
      </trkpt>
      <trkpt lat="43.3783" lon="2.24797">
        <ele>696.8</ele>
        <time>2019-08-11T06:18:28.000Z</time>
      </trkpt>
      <trkpt lat="43.37831" lon="2.24799">
        <ele>696.9</ele>
        <time>2019-08-11T06:18:29.000Z</time>
      </trkpt>
      <trkpt lat="43.37833" lon="2.24801">
        <ele>697</ele>
        <time>2019-08-11T06:18:30.000Z</time>
      </trkpt>
      <trkpt lat="43.37834" lon="2.24804">
        <ele>697</ele>
        <time>2019-08-11T06:18:31.000Z</time>
      </trkpt>
      <trkpt lat="43.37836" lon="2.24806">
        <ele>697.1</ele>
        <time>2019-08-11T06:18:32.000Z</time>
      </trkpt>
      <trkpt lat="43.37838" lon="2.24809">
        <ele>697.2</ele>
        <time>2019-08-11T06:18:33.000Z</time>
      </trkpt>
      <trkpt lat="43.3784" lon="2.24811">
        <ele>697.2</ele>
        <time>2019-08-11T06:18:34.000Z</time>
      </trkpt>
      <trkpt lat="43.37842" lon="2.24814">
        <ele>697.3</ele>
        <time>2019-08-11T06:18:35.000Z</time>
      </trkpt>
      <trkpt lat="43.37844" lon="2.24816">
        <ele>697.4</ele>
        <time>2019-08-11T06:18:36.000Z</time>
      </trkpt>
      <trkpt lat="43.37846" lon="2.24818">
        <ele>697.4</ele>
        <time>2019-08-11T06:18:37.000Z</time>
      </trkpt>
      <trkpt lat="43.37847" lon="2.24821">
        <ele>697.5</ele>
        <time>2019-08-11T06:18:38.000Z</time>
      </trkpt>
      <trkpt lat="43.37849" lon="2.24823">
        <ele>697.5</ele>
        <time>2019-08-11T06:18:39.000Z</time>
      </trkpt>
      <trkpt lat="43.3785" lon="2.24825">
        <ele>697.6</ele>
        <time>2019-08-11T06:18:40.000Z</time>
      </trkpt>
      <trkpt lat="43.37851" lon="2.24827">
        <ele>697.6</ele>
        <time>2019-08-11T06:18:41.000Z</time>
      </trkpt>
      <trkpt lat="43.37852" lon="2.24829">
        <ele>697.7</ele>
        <time>2019-08-11T06:18:42.000Z</time>
      </trkpt>
      <trkpt lat="43.37853" lon="2.24831">
        <ele>697.7</ele>
        <time>2019-08-11T06:18:43.000Z</time>
      </trkpt>
      <trkpt lat="43.37854" lon="2.24832">
        <ele>697.8</ele>
        <time>2019-08-11T06:18:44.000Z</time>
      </trkpt>
      <trkpt lat="43.37855" lon="2.24834">
        <ele>697.8</ele>
        <time>2019-08-11T06:18:45.000Z</time>
      </trkpt>
      <trkpt lat="43.37856" lon="2.24836">
        <ele>697.9</ele>
        <time>2019-08-11T06:18:46.000Z</time>
      </trkpt>
      <trkpt lat="43.37857" lon="2.24839">
        <ele>697.9</ele>
        <time>2019-08-11T06:18:47.000Z</time>
      </trkpt>
      <trkpt lat="43.37858" lon="2.24841">
        <ele>698</ele>
        <time>2019-08-11T06:18:48.000Z</time>
      </trkpt>
      <trkpt lat="43.37859" lon="2.24843">
        <ele>698</ele>
        <time>2019-08-11T06:18:49.000Z</time>
      </trkpt>
      <trkpt lat="43.3786" lon="2.24845">
        <ele>698.1</ele>
        <time>2019-08-11T06:18:50.000Z</time>
      </trkpt>
      <trkpt lat="43.37861" lon="2.24847">
        <ele>698.2</ele>
        <time>2019-08-11T06:18:51.000Z</time>
      </trkpt>
      <trkpt lat="43.37863" lon="2.24849">
        <ele>698.2</ele>
        <time>2019-08-11T06:18:52.000Z</time>
      </trkpt>
      <trkpt lat="43.37864" lon="2.24851">
        <ele>698.3</ele>
        <time>2019-08-11T06:18:53.000Z</time>
      </trkpt>
      <trkpt lat="43.37865" lon="2.24852">
        <ele>698.3</ele>
        <time>2019-08-11T06:18:54.000Z</time>
      </trkpt>
      <trkpt lat="43.37867" lon="2.24854">
        <ele>698.4</ele>
        <time>2019-08-11T06:18:55.000Z</time>
      </trkpt>
      <trkpt lat="43.37868" lon="2.24856">
        <ele>698.5</ele>
        <time>2019-08-11T06:18:56.000Z</time>
      </trkpt>
      <trkpt lat="43.3787" lon="2.24858">
        <ele>698.5</ele>
        <time>2019-08-11T06:18:57.000Z</time>
      </trkpt>
      <trkpt lat="43.37871" lon="2.2486">
        <ele>698.6</ele>
        <time>2019-08-11T06:18:58.000Z</time>
      </trkpt>
      <trkpt lat="43.37873" lon="2.24862">
        <ele>698.6</ele>
        <time>2019-08-11T06:18:59.000Z</time>
      </trkpt>
      <trkpt lat="43.37874" lon="2.24865">
        <ele>698.7</ele>
        <time>2019-08-11T06:19:00.000Z</time>
      </trkpt>
      <trkpt lat="43.37876" lon="2.24867">
        <ele>698.7</ele>
        <time>2019-08-11T06:19:01.000Z</time>
      </trkpt>
      <trkpt lat="43.37878" lon="2.2487">
        <ele>698.8</ele>
        <time>2019-08-11T06:19:02.000Z</time>
      </trkpt>
      <trkpt lat="43.3788" lon="2.24873">
        <ele>698.8</ele>
        <time>2019-08-11T06:19:03.000Z</time>
      </trkpt>
      <trkpt lat="43.37883" lon="2.24876">
        <ele>698.9</ele>
        <time>2019-08-11T06:19:04.000Z</time>
      </trkpt>
      <trkpt lat="43.37886" lon="2.24879">
        <ele>698.9</ele>
        <time>2019-08-11T06:19:05.000Z</time>
      </trkpt>
      <trkpt lat="43.37888" lon="2.24882">
        <ele>699</ele>
        <time>2019-08-11T06:19:06.000Z</time>
      </trkpt>
      <trkpt lat="43.3789" lon="2.24884">
        <ele>699</ele>
        <time>2019-08-11T06:19:07.000Z</time>
      </trkpt>
      <trkpt lat="43.37892" lon="2.24885">
        <ele>699</ele>
        <time>2019-08-11T06:19:08.000Z</time>
      </trkpt>
      <trkpt lat="43.37893" lon="2.24886">
        <ele>699</ele>
        <time>2019-08-11T06:19:09.000Z</time>
      </trkpt>
      <trkpt lat="43.37894" lon="2.24886">
        <ele>699.1</ele>
        <time>2019-08-11T06:19:10.000Z</time>
      </trkpt>
      <trkpt lat="43.37895" lon="2.24886">
        <ele>699.1</ele>
        <time>2019-08-11T06:19:11.000Z</time>
      </trkpt>
      <trkpt lat="43.37898" lon="2.24886">
        <ele>699.1</ele>
        <time>2019-08-11T06:19:12.000Z</time>
      </trkpt>
      <trkpt lat="43.37901" lon="2.24885">
        <ele>699.2</ele>
        <time>2019-08-11T06:19:13.000Z</time>
      </trkpt>
      <trkpt lat="43.37903" lon="2.24885">
        <ele>699.2</ele>
        <time>2019-08-11T06:19:14.000Z</time>
      </trkpt>
      <trkpt lat="43.37905" lon="2.24884">
        <ele>699.2</ele>
        <time>2019-08-11T06:19:15.000Z</time>
      </trkpt>
      <trkpt lat="43.37907" lon="2.24884">
        <ele>699.3</ele>
        <time>2019-08-11T06:19:16.000Z</time>
      </trkpt>
      <trkpt lat="43.37908" lon="2.24885">
        <ele>699.3</ele>
        <time>2019-08-11T06:19:17.000Z</time>
      </trkpt>
      <trkpt lat="43.37909" lon="2.24885">
        <ele>699.3</ele>
        <time>2019-08-11T06:19:18.000Z</time>
      </trkpt>
      <trkpt lat="43.37909" lon="2.24885">
        <ele>699.3</ele>
        <time>2019-08-11T06:19:19.000Z</time>
      </trkpt>
      <trkpt lat="43.37909" lon="2.24885">
        <ele>699.3</ele>
        <time>2019-08-11T06:19:20.000Z</time>
      </trkpt>
      <trkpt lat="43.3791" lon="2.24885">
        <ele>699.3</ele>
        <time>2019-08-11T06:19:21.000Z</time>
      </trkpt>
      <trkpt lat="43.3791" lon="2.24885">
        <ele>699.3</ele>
        <time>2019-08-11T06:19:22.000Z</time>
      </trkpt>
      <trkpt lat="43.3791" lon="2.24885">
        <ele>699.3</ele>
        <time>2019-08-11T06:19:23.000Z</time>
      </trkpt>
      <trkpt lat="43.3791" lon="2.24885">
        <ele>699.3</ele>
        <time>2019-08-11T06:19:24.000Z</time>
      </trkpt>
      <trkpt lat="43.3791" lon="2.24885">
        <ele>699.3</ele>
        <time>2019-08-11T06:19:25.000Z</time>
      </trkpt>
      <trkpt lat="43.3791" lon="2.24884">
        <ele>699.3</ele>
        <time>2019-08-11T06:19:26.000Z</time>
      </trkpt>
      <trkpt lat="43.3791" lon="2.24884">
        <ele>699.3</ele>
        <time>2019-08-11T06:19:27.000Z</time>
      </trkpt>
      <trkpt lat="43.3791" lon="2.24884">
        <ele>699.3</ele>
        <time>2019-08-11T06:19:28.000Z</time>
      </trkpt>
      <trkpt lat="43.3791" lon="2.24884">
        <ele>699.3</ele>
        <time>2019-08-11T06:19:29.000Z</time>
      </trkpt>
      <trkpt lat="43.37911" lon="2.24885">
        <ele>699.3</ele>
        <time>2019-08-11T06:19:30.000Z</time>
      </trkpt>
      <trkpt lat="43.37911" lon="2.24885">
        <ele>699.3</ele>
        <time>2019-08-11T06:19:31.000Z</time>
      </trkpt>
      <trkpt lat="43.37911" lon="2.24885">
        <ele>699.3</ele>
        <time>2019-08-11T06:19:32.000Z</time>
      </trkpt>
      <trkpt lat="43.37912" lon="2.24886">
        <ele>699.3</ele>
        <time>2019-08-11T06:19:33.000Z</time>
      </trkpt>
      <trkpt lat="43.37913" lon="2.24886">
        <ele>699.3</ele>
        <time>2019-08-11T06:19:34.000Z</time>
      </trkpt>
      <trkpt lat="43.37913" lon="2.24887">
        <ele>699.3</ele>
        <time>2019-08-11T06:19:35.000Z</time>
      </trkpt>
      <trkpt lat="43.37914" lon="2.24888">
        <ele>699.3</ele>
        <time>2019-08-11T06:19:36.000Z</time>
      </trkpt>
      <trkpt lat="43.37915" lon="2.24888">
        <ele>699.3</ele>
        <time>2019-08-11T06:19:37.000Z</time>
      </trkpt>
      <trkpt lat="43.37916" lon="2.24889">
        <ele>699.3</ele>
        <time>2019-08-11T06:19:38.000Z</time>
      </trkpt>
      <trkpt lat="43.37917" lon="2.24889">
        <ele>699.3</ele>
        <time>2019-08-11T06:19:39.000Z</time>
      </trkpt>
      <trkpt lat="43.37918" lon="2.2489">
        <ele>699.4</ele>
        <time>2019-08-11T06:19:40.000Z</time>
      </trkpt>
      <trkpt lat="43.37919" lon="2.2489">
        <ele>699.4</ele>
        <time>2019-08-11T06:19:41.000Z</time>
      </trkpt>
      <trkpt lat="43.3792" lon="2.24891">
        <ele>699.4</ele>
        <time>2019-08-11T06:19:42.000Z</time>
      </trkpt>
      <trkpt lat="43.37921" lon="2.24891">
        <ele>699.5</ele>
        <time>2019-08-11T06:19:43.000Z</time>
      </trkpt>
      <trkpt lat="43.37922" lon="2.24891">
        <ele>699.5</ele>
        <time>2019-08-11T06:19:44.000Z</time>
      </trkpt>
      <trkpt lat="43.37923" lon="2.24891">
        <ele>699.5</ele>
        <time>2019-08-11T06:19:45.000Z</time>
      </trkpt>
      <trkpt lat="43.37924" lon="2.24891">
        <ele>699.6</ele>
        <time>2019-08-11T06:19:46.000Z</time>
      </trkpt>
      <trkpt lat="43.37924" lon="2.24892">
        <ele>699.6</ele>
        <time>2019-08-11T06:19:47.000Z</time>
      </trkpt>
      <trkpt lat="43.37924" lon="2.24892">
        <ele>699.6</ele>
        <time>2019-08-11T06:19:48.000Z</time>
      </trkpt>
      <trkpt lat="43.37924" lon="2.24892">
        <ele>699.6</ele>
        <time>2019-08-11T06:19:49.000Z</time>
      </trkpt>
      <trkpt lat="43.37924" lon="2.24892">
        <ele>699.6</ele>
        <time>2019-08-11T06:19:50.000Z</time>
      </trkpt>
      <trkpt lat="43.37924" lon="2.24892">
        <ele>699.6</ele>
        <time>2019-08-11T06:19:51.000Z</time>
      </trkpt>
      <trkpt lat="43.37924" lon="2.24892">
        <ele>699.6</ele>
        <time>2019-08-11T06:19:52.000Z</time>
      </trkpt>
      <trkpt lat="43.37924" lon="2.24892">
        <ele>699.6</ele>
        <time>2019-08-11T06:19:53.000Z</time>
      </trkpt>
      <trkpt lat="43.37924" lon="2.24892">
        <ele>699.6</ele>
        <time>2019-08-11T06:19:54.000Z</time>
      </trkpt>
      <trkpt lat="43.37924" lon="2.24892">
        <ele>699.6</ele>
        <time>2019-08-11T06:19:55.000Z</time>
      </trkpt>
      <trkpt lat="43.37924" lon="2.24892">
        <ele>699.6</ele>
        <time>2019-08-11T06:19:56.000Z</time>
      </trkpt>
      <trkpt lat="43.37924" lon="2.24892">
        <ele>699.6</ele>
        <time>2019-08-11T06:19:57.000Z</time>
      </trkpt>
      <trkpt lat="43.37925" lon="2.24892">
        <ele>699.6</ele>
        <time>2019-08-11T06:19:58.000Z</time>
      </trkpt>
      <trkpt lat="43.37926" lon="2.24892">
        <ele>699.6</ele>
        <time>2019-08-11T06:19:59.000Z</time>
      </trkpt>
      <trkpt lat="43.37927" lon="2.24893">
        <ele>699.7</ele>
        <time>2019-08-11T06:20:00.000Z</time>
      </trkpt>
      <trkpt lat="43.3793" lon="2.24893">
        <ele>699.8</ele>
        <time>2019-08-11T06:20:01.000Z</time>
      </trkpt>
      <trkpt lat="43.37933" lon="2.24894">
        <ele>699.9</ele>
        <time>2019-08-11T06:20:02.000Z</time>
      </trkpt>
      <trkpt lat="43.37936" lon="2.24895">
        <ele>700</ele>
        <time>2019-08-11T06:20:03.000Z</time>
      </trkpt>
      <trkpt lat="43.37939" lon="2.24896">
        <ele>700.1</ele>
        <time>2019-08-11T06:20:04.000Z</time>
      </trkpt>
      <trkpt lat="43.37941" lon="2.24898">
        <ele>700.2</ele>
        <time>2019-08-11T06:20:05.000Z</time>
      </trkpt>
      <trkpt lat="43.37944" lon="2.24899">
        <ele>700.3</ele>
        <time>2019-08-11T06:20:06.000Z</time>
      </trkpt>
      <trkpt lat="43.37946" lon="2.249">
        <ele>700.4</ele>
        <time>2019-08-11T06:20:07.000Z</time>
      </trkpt>
      <trkpt lat="43.37948" lon="2.24902">
        <ele>700.5</ele>
        <time>2019-08-11T06:20:08.000Z</time>
      </trkpt>
      <trkpt lat="43.3795" lon="2.24904">
        <ele>700.5</ele>
        <time>2019-08-11T06:20:09.000Z</time>
      </trkpt>
      <trkpt lat="43.37951" lon="2.24905">
        <ele>700.6</ele>
        <time>2019-08-11T06:20:10.000Z</time>
      </trkpt>
      <trkpt lat="43.37953" lon="2.24907">
        <ele>700.7</ele>
        <time>2019-08-11T06:20:11.000Z</time>
      </trkpt>
      <trkpt lat="43.37955" lon="2.24909">
        <ele>700.8</ele>
        <time>2019-08-11T06:20:12.000Z</time>
      </trkpt>
      <trkpt lat="43.37957" lon="2.24911">
        <ele>700.9</ele>
        <time>2019-08-11T06:20:13.000Z</time>
      </trkpt>
      <trkpt lat="43.37958" lon="2.24913">
        <ele>701</ele>
        <time>2019-08-11T06:20:14.000Z</time>
      </trkpt>
      <trkpt lat="43.3796" lon="2.24915">
        <ele>701.1</ele>
        <time>2019-08-11T06:20:15.000Z</time>
      </trkpt>
      <trkpt lat="43.37962" lon="2.24917">
        <ele>701.2</ele>
        <time>2019-08-11T06:20:16.000Z</time>
      </trkpt>
      <trkpt lat="43.37964" lon="2.2492">
        <ele>701.4</ele>
        <time>2019-08-11T06:20:17.000Z</time>
      </trkpt>
      <trkpt lat="43.37965" lon="2.24922">
        <ele>701.6</ele>
        <time>2019-08-11T06:20:18.000Z</time>
      </trkpt>
      <trkpt lat="43.37967" lon="2.24924">
        <ele>701.8</ele>
        <time>2019-08-11T06:20:19.000Z</time>
      </trkpt>
      <trkpt lat="43.37969" lon="2.24926">
        <ele>702.1</ele>
        <time>2019-08-11T06:20:20.000Z</time>
      </trkpt>
      <trkpt lat="43.37971" lon="2.24928">
        <ele>702.3</ele>
        <time>2019-08-11T06:20:21.000Z</time>
      </trkpt>
      <trkpt lat="43.37973" lon="2.24931">
        <ele>702.5</ele>
        <time>2019-08-11T06:20:22.000Z</time>
      </trkpt>
      <trkpt lat="43.37975" lon="2.24933">
        <ele>702.8</ele>
        <time>2019-08-11T06:20:23.000Z</time>
      </trkpt>
      <trkpt lat="43.37977" lon="2.24935">
        <ele>703</ele>
        <time>2019-08-11T06:20:24.000Z</time>
      </trkpt>
      <trkpt lat="43.37979" lon="2.24937">
        <ele>703.3</ele>
        <time>2019-08-11T06:20:25.000Z</time>
      </trkpt>
      <trkpt lat="43.37981" lon="2.24939">
        <ele>703.5</ele>
        <time>2019-08-11T06:20:26.000Z</time>
      </trkpt>
      <trkpt lat="43.37984" lon="2.24941">
        <ele>703.8</ele>
        <time>2019-08-11T06:20:27.000Z</time>
      </trkpt>
      <trkpt lat="43.37986" lon="2.24943">
        <ele>704.1</ele>
        <time>2019-08-11T06:20:28.000Z</time>
      </trkpt>
      <trkpt lat="43.37988" lon="2.24945">
        <ele>704.3</ele>
        <time>2019-08-11T06:20:29.000Z</time>
      </trkpt>
      <trkpt lat="43.37991" lon="2.24947">
        <ele>704.6</ele>
        <time>2019-08-11T06:20:30.000Z</time>
      </trkpt>
      <trkpt lat="43.37993" lon="2.24949">
        <ele>704.9</ele>
        <time>2019-08-11T06:20:31.000Z</time>
      </trkpt>
      <trkpt lat="43.37995" lon="2.24951">
        <ele>705.2</ele>
        <time>2019-08-11T06:20:32.000Z</time>
      </trkpt>
      <trkpt lat="43.37998" lon="2.24953">
        <ele>705.5</ele>
        <time>2019-08-11T06:20:33.000Z</time>
      </trkpt>
      <trkpt lat="43.38" lon="2.24955">
        <ele>705.8</ele>
        <time>2019-08-11T06:20:34.000Z</time>
      </trkpt>
      <trkpt lat="43.38003" lon="2.24957">
        <ele>705.8</ele>
        <time>2019-08-11T06:20:35.000Z</time>
      </trkpt>
      <trkpt lat="43.38005" lon="2.2496">
        <ele>705.9</ele>
        <time>2019-08-11T06:20:36.000Z</time>
      </trkpt>
      <trkpt lat="43.38008" lon="2.24962">
        <ele>706</ele>
        <time>2019-08-11T06:20:37.000Z</time>
      </trkpt>
      <trkpt lat="43.38011" lon="2.24964">
        <ele>706</ele>
        <time>2019-08-11T06:20:38.000Z</time>
      </trkpt>
      <trkpt lat="43.38013" lon="2.24966">
        <ele>706.1</ele>
        <time>2019-08-11T06:20:39.000Z</time>
      </trkpt>
      <trkpt lat="43.38016" lon="2.24969">
        <ele>706.2</ele>
        <time>2019-08-11T06:20:40.000Z</time>
      </trkpt>
      <trkpt lat="43.38018" lon="2.24971">
        <ele>706.2</ele>
        <time>2019-08-11T06:20:41.000Z</time>
      </trkpt>
      <trkpt lat="43.38021" lon="2.24973">
        <ele>706.3</ele>
        <time>2019-08-11T06:20:42.000Z</time>
      </trkpt>
      <trkpt lat="43.38024" lon="2.24976">
        <ele>706.4</ele>
        <time>2019-08-11T06:20:43.000Z</time>
      </trkpt>
      <trkpt lat="43.38026" lon="2.24978">
        <ele>706.5</ele>
        <time>2019-08-11T06:20:44.000Z</time>
      </trkpt>
      <trkpt lat="43.38029" lon="2.24981">
        <ele>706.6</ele>
        <time>2019-08-11T06:20:45.000Z</time>
      </trkpt>
      <trkpt lat="43.38031" lon="2.24983">
        <ele>706.6</ele>
        <time>2019-08-11T06:20:46.000Z</time>
      </trkpt>
      <trkpt lat="43.38034" lon="2.24985">
        <ele>706.7</ele>
        <time>2019-08-11T06:20:47.000Z</time>
      </trkpt>
      <trkpt lat="43.38036" lon="2.24988">
        <ele>706.8</ele>
        <time>2019-08-11T06:20:48.000Z</time>
      </trkpt>
      <trkpt lat="43.38039" lon="2.2499">
        <ele>706.9</ele>
        <time>2019-08-11T06:20:49.000Z</time>
      </trkpt>
      <trkpt lat="43.38041" lon="2.24992">
        <ele>706.9</ele>
        <time>2019-08-11T06:20:50.000Z</time>
      </trkpt>
      <trkpt lat="43.38044" lon="2.24994">
        <ele>707</ele>
        <time>2019-08-11T06:20:51.000Z</time>
      </trkpt>
      <trkpt lat="43.38046" lon="2.24996">
        <ele>707.1</ele>
        <time>2019-08-11T06:20:52.000Z</time>
      </trkpt>
      <trkpt lat="43.38048" lon="2.24998">
        <ele>707.1</ele>
        <time>2019-08-11T06:20:53.000Z</time>
      </trkpt>
      <trkpt lat="43.3805" lon="2.25">
        <ele>707.2</ele>
        <time>2019-08-11T06:20:54.000Z</time>
      </trkpt>
      <trkpt lat="43.38053" lon="2.25002">
        <ele>707.1</ele>
        <time>2019-08-11T06:20:55.000Z</time>
      </trkpt>
      <trkpt lat="43.38055" lon="2.25003">
        <ele>707</ele>
        <time>2019-08-11T06:20:56.000Z</time>
      </trkpt>
      <trkpt lat="43.38057" lon="2.25005">
        <ele>706.9</ele>
        <time>2019-08-11T06:20:57.000Z</time>
      </trkpt>
      <trkpt lat="43.38059" lon="2.25007">
        <ele>706.8</ele>
        <time>2019-08-11T06:20:58.000Z</time>
      </trkpt>
      <trkpt lat="43.38061" lon="2.25008">
        <ele>706.8</ele>
        <time>2019-08-11T06:20:59.000Z</time>
      </trkpt>
      <trkpt lat="43.38063" lon="2.2501">
        <ele>706.7</ele>
        <time>2019-08-11T06:21:00.000Z</time>
      </trkpt>
      <trkpt lat="43.38065" lon="2.25012">
        <ele>706.7</ele>
        <time>2019-08-11T06:21:01.000Z</time>
      </trkpt>
      <trkpt lat="43.38067" lon="2.25014">
        <ele>706.6</ele>
        <time>2019-08-11T06:21:02.000Z</time>
      </trkpt>
      <trkpt lat="43.38069" lon="2.25016">
        <ele>706.5</ele>
        <time>2019-08-11T06:21:03.000Z</time>
      </trkpt>
      <trkpt lat="43.38071" lon="2.25019">
        <ele>706.5</ele>
        <time>2019-08-11T06:21:04.000Z</time>
      </trkpt>
      <trkpt lat="43.38073" lon="2.25021">
        <ele>706.5</ele>
        <time>2019-08-11T06:21:05.000Z</time>
      </trkpt>
      <trkpt lat="43.38076" lon="2.25023">
        <ele>706.4</ele>
        <time>2019-08-11T06:21:06.000Z</time>
      </trkpt>
      <trkpt lat="43.38078" lon="2.25025">
        <ele>706.4</ele>
        <time>2019-08-11T06:21:07.000Z</time>
      </trkpt>
      <trkpt lat="43.38081" lon="2.25028">
        <ele>706.4</ele>
        <time>2019-08-11T06:21:08.000Z</time>
      </trkpt>
      <trkpt lat="43.38083" lon="2.2503">
        <ele>706.4</ele>
        <time>2019-08-11T06:21:09.000Z</time>
      </trkpt>
      <trkpt lat="43.38086" lon="2.25032">
        <ele>706.3</ele>
        <time>2019-08-11T06:21:10.000Z</time>
      </trkpt>
      <trkpt lat="43.38089" lon="2.25035">
        <ele>706.3</ele>
        <time>2019-08-11T06:21:11.000Z</time>
      </trkpt>
      <trkpt lat="43.38092" lon="2.25037">
        <ele>706.3</ele>
        <time>2019-08-11T06:21:12.000Z</time>
      </trkpt>
      <trkpt lat="43.38094" lon="2.25039">
        <ele>706.2</ele>
        <time>2019-08-11T06:21:13.000Z</time>
      </trkpt>
      <trkpt lat="43.38097" lon="2.25041">
        <ele>706.2</ele>
        <time>2019-08-11T06:21:14.000Z</time>
      </trkpt>
      <trkpt lat="43.38099" lon="2.25043">
        <ele>706.2</ele>
        <time>2019-08-11T06:21:15.000Z</time>
      </trkpt>
      <trkpt lat="43.38102" lon="2.25045">
        <ele>706.3</ele>
        <time>2019-08-11T06:21:16.000Z</time>
      </trkpt>
      <trkpt lat="43.38104" lon="2.25047">
        <ele>706.3</ele>
        <time>2019-08-11T06:21:17.000Z</time>
      </trkpt>
      <trkpt lat="43.38106" lon="2.25048">
        <ele>706.3</ele>
        <time>2019-08-11T06:21:18.000Z</time>
      </trkpt>
      <trkpt lat="43.38108" lon="2.2505">
        <ele>706.4</ele>
        <time>2019-08-11T06:21:19.000Z</time>
      </trkpt>
      <trkpt lat="43.3811" lon="2.25052">
        <ele>706.4</ele>
        <time>2019-08-11T06:21:20.000Z</time>
      </trkpt>
      <trkpt lat="43.38112" lon="2.25053">
        <ele>706.5</ele>
        <time>2019-08-11T06:21:21.000Z</time>
      </trkpt>
      <trkpt lat="43.38114" lon="2.25055">
        <ele>706.5</ele>
        <time>2019-08-11T06:21:22.000Z</time>
      </trkpt>
      <trkpt lat="43.38116" lon="2.25057">
        <ele>706.6</ele>
        <time>2019-08-11T06:21:23.000Z</time>
      </trkpt>
      <trkpt lat="43.38118" lon="2.25058">
        <ele>706.7</ele>
        <time>2019-08-11T06:21:24.000Z</time>
      </trkpt>
      <trkpt lat="43.3812" lon="2.2506">
        <ele>706.7</ele>
        <time>2019-08-11T06:21:25.000Z</time>
      </trkpt>
      <trkpt lat="43.38122" lon="2.25062">
        <ele>706.8</ele>
        <time>2019-08-11T06:21:26.000Z</time>
      </trkpt>
      <trkpt lat="43.38123" lon="2.25063">
        <ele>706.9</ele>
        <time>2019-08-11T06:21:27.000Z</time>
      </trkpt>
      <trkpt lat="43.38125" lon="2.25065">
        <ele>707</ele>
        <time>2019-08-11T06:21:28.000Z</time>
      </trkpt>
      <trkpt lat="43.38128" lon="2.25067">
        <ele>707.1</ele>
        <time>2019-08-11T06:21:29.000Z</time>
      </trkpt>
      <trkpt lat="43.3813" lon="2.25069">
        <ele>707.3</ele>
        <time>2019-08-11T06:21:30.000Z</time>
      </trkpt>
      <trkpt lat="43.38132" lon="2.25071">
        <ele>707.4</ele>
        <time>2019-08-11T06:21:31.000Z</time>
      </trkpt>
      <trkpt lat="43.38134" lon="2.25073">
        <ele>707.5</ele>
        <time>2019-08-11T06:21:32.000Z</time>
      </trkpt>
      <trkpt lat="43.38136" lon="2.25074">
        <ele>707.7</ele>
        <time>2019-08-11T06:21:33.000Z</time>
      </trkpt>
      <trkpt lat="43.38138" lon="2.25076">
        <ele>707.8</ele>
        <time>2019-08-11T06:21:34.000Z</time>
      </trkpt>
      <trkpt lat="43.38141" lon="2.25078">
        <ele>708</ele>
        <time>2019-08-11T06:21:35.000Z</time>
      </trkpt>
      <trkpt lat="43.38143" lon="2.2508">
        <ele>708.2</ele>
        <time>2019-08-11T06:21:36.000Z</time>
      </trkpt>
      <trkpt lat="43.38145" lon="2.25082">
        <ele>708.4</ele>
        <time>2019-08-11T06:21:37.000Z</time>
      </trkpt>
      <trkpt lat="43.38148" lon="2.25084">
        <ele>708.5</ele>
        <time>2019-08-11T06:21:38.000Z</time>
      </trkpt>
      <trkpt lat="43.3815" lon="2.25085">
        <ele>708.6</ele>
        <time>2019-08-11T06:21:39.000Z</time>
      </trkpt>
      <trkpt lat="43.38152" lon="2.25087">
        <ele>708.7</ele>
        <time>2019-08-11T06:21:40.000Z</time>
      </trkpt>
      <trkpt lat="43.38155" lon="2.25089">
        <ele>708.8</ele>
        <time>2019-08-11T06:21:41.000Z</time>
      </trkpt>
      <trkpt lat="43.38157" lon="2.2509">
        <ele>708.9</ele>
        <time>2019-08-11T06:21:42.000Z</time>
      </trkpt>
      <trkpt lat="43.3816" lon="2.25092">
        <ele>709</ele>
        <time>2019-08-11T06:21:43.000Z</time>
      </trkpt>
      <trkpt lat="43.38162" lon="2.25094">
        <ele>709.1</ele>
        <time>2019-08-11T06:21:44.000Z</time>
      </trkpt>
      <trkpt lat="43.38165" lon="2.25096">
        <ele>709.2</ele>
        <time>2019-08-11T06:21:45.000Z</time>
      </trkpt>
      <trkpt lat="43.38167" lon="2.25098">
        <ele>709.3</ele>
        <time>2019-08-11T06:21:46.000Z</time>
      </trkpt>
      <trkpt lat="43.3817" lon="2.251">
        <ele>709.3</ele>
        <time>2019-08-11T06:21:47.000Z</time>
      </trkpt>
      <trkpt lat="43.38172" lon="2.25102">
        <ele>709.3</ele>
        <time>2019-08-11T06:21:48.000Z</time>
      </trkpt>
      <trkpt lat="43.38175" lon="2.25104">
        <ele>709.4</ele>
        <time>2019-08-11T06:21:49.000Z</time>
      </trkpt>
      <trkpt lat="43.38177" lon="2.25106">
        <ele>709.4</ele>
        <time>2019-08-11T06:21:50.000Z</time>
      </trkpt>
      <trkpt lat="43.38179" lon="2.25108">
        <ele>709.5</ele>
        <time>2019-08-11T06:21:51.000Z</time>
      </trkpt>
      <trkpt lat="43.38182" lon="2.25111">
        <ele>709.5</ele>
        <time>2019-08-11T06:21:52.000Z</time>
      </trkpt>
      <trkpt lat="43.38184" lon="2.25113">
        <ele>709.6</ele>
        <time>2019-08-11T06:21:53.000Z</time>
      </trkpt>
      <trkpt lat="43.38187" lon="2.25115">
        <ele>709.7</ele>
        <time>2019-08-11T06:21:54.000Z</time>
      </trkpt>
      <trkpt lat="43.38189" lon="2.25118">
        <ele>709.8</ele>
        <time>2019-08-11T06:21:55.000Z</time>
      </trkpt>
      <trkpt lat="43.38192" lon="2.2512">
        <ele>709.9</ele>
        <time>2019-08-11T06:21:56.000Z</time>
      </trkpt>
      <trkpt lat="43.38194" lon="2.25122">
        <ele>710</ele>
        <time>2019-08-11T06:21:57.000Z</time>
      </trkpt>
      <trkpt lat="43.38196" lon="2.25125">
        <ele>710.2</ele>
        <time>2019-08-11T06:21:58.000Z</time>
      </trkpt>
      <trkpt lat="43.38199" lon="2.25127">
        <ele>710.3</ele>
        <time>2019-08-11T06:21:59.000Z</time>
      </trkpt>
      <trkpt lat="43.38201" lon="2.25129">
        <ele>710.5</ele>
        <time>2019-08-11T06:22:00.000Z</time>
      </trkpt>
      <trkpt lat="43.38204" lon="2.25131">
        <ele>710.6</ele>
        <time>2019-08-11T06:22:01.000Z</time>
      </trkpt>
      <trkpt lat="43.38206" lon="2.25134">
        <ele>710.8</ele>
        <time>2019-08-11T06:22:02.000Z</time>
      </trkpt>
      <trkpt lat="43.38208" lon="2.25136">
        <ele>710.9</ele>
        <time>2019-08-11T06:22:03.000Z</time>
      </trkpt>
      <trkpt lat="43.38211" lon="2.25137">
        <ele>711.1</ele>
        <time>2019-08-11T06:22:04.000Z</time>
      </trkpt>
      <trkpt lat="43.38213" lon="2.25139">
        <ele>711.3</ele>
        <time>2019-08-11T06:22:05.000Z</time>
      </trkpt>
      <trkpt lat="43.38215" lon="2.25141">
        <ele>711.4</ele>
        <time>2019-08-11T06:22:06.000Z</time>
      </trkpt>
      <trkpt lat="43.38218" lon="2.25142">
        <ele>711.6</ele>
        <time>2019-08-11T06:22:07.000Z</time>
      </trkpt>
      <trkpt lat="43.3822" lon="2.25144">
        <ele>711.8</ele>
        <time>2019-08-11T06:22:08.000Z</time>
      </trkpt>
      <trkpt lat="43.38222" lon="2.25145">
        <ele>711.9</ele>
        <time>2019-08-11T06:22:09.000Z</time>
      </trkpt>
      <trkpt lat="43.38225" lon="2.25147">
        <ele>712.1</ele>
        <time>2019-08-11T06:22:10.000Z</time>
      </trkpt>
      <trkpt lat="43.38227" lon="2.25148">
        <ele>712.3</ele>
        <time>2019-08-11T06:22:11.000Z</time>
      </trkpt>
      <trkpt lat="43.38229" lon="2.25149">
        <ele>712.5</ele>
        <time>2019-08-11T06:22:12.000Z</time>
      </trkpt>
      <trkpt lat="43.38232" lon="2.2515">
        <ele>712.6</ele>
        <time>2019-08-11T06:22:13.000Z</time>
      </trkpt>
      <trkpt lat="43.38234" lon="2.25151">
        <ele>712.8</ele>
        <time>2019-08-11T06:22:14.000Z</time>
      </trkpt>
      <trkpt lat="43.38236" lon="2.25153">
        <ele>713</ele>
        <time>2019-08-11T06:22:15.000Z</time>
      </trkpt>
      <trkpt lat="43.38239" lon="2.25154">
        <ele>713.2</ele>
        <time>2019-08-11T06:22:16.000Z</time>
      </trkpt>
      <trkpt lat="43.38241" lon="2.25155">
        <ele>713.4</ele>
        <time>2019-08-11T06:22:17.000Z</time>
      </trkpt>
      <trkpt lat="43.38244" lon="2.25156">
        <ele>713.6</ele>
        <time>2019-08-11T06:22:18.000Z</time>
      </trkpt>
      <trkpt lat="43.38246" lon="2.25157">
        <ele>713.8</ele>
        <time>2019-08-11T06:22:19.000Z</time>
      </trkpt>
      <trkpt lat="43.38248" lon="2.25158">
        <ele>714</ele>
        <time>2019-08-11T06:22:20.000Z</time>
      </trkpt>
      <trkpt lat="43.38251" lon="2.25159">
        <ele>714.2</ele>
        <time>2019-08-11T06:22:21.000Z</time>
      </trkpt>
      <trkpt lat="43.38253" lon="2.2516">
        <ele>714.5</ele>
        <time>2019-08-11T06:22:22.000Z</time>
      </trkpt>
      <trkpt lat="43.38255" lon="2.25161">
        <ele>714.8</ele>
        <time>2019-08-11T06:22:23.000Z</time>
      </trkpt>
      <trkpt lat="43.38257" lon="2.25163">
        <ele>715</ele>
        <time>2019-08-11T06:22:24.000Z</time>
      </trkpt>
      <trkpt lat="43.38259" lon="2.25164">
        <ele>715.3</ele>
        <time>2019-08-11T06:22:25.000Z</time>
      </trkpt>
      <trkpt lat="43.38261" lon="2.25165">
        <ele>715.6</ele>
        <time>2019-08-11T06:22:26.000Z</time>
      </trkpt>
      <trkpt lat="43.38262" lon="2.25167">
        <ele>715.9</ele>
        <time>2019-08-11T06:22:27.000Z</time>
      </trkpt>
      <trkpt lat="43.38265" lon="2.25168">
        <ele>716.1</ele>
        <time>2019-08-11T06:22:28.000Z</time>
      </trkpt>
      <trkpt lat="43.38267" lon="2.2517">
        <ele>716.4</ele>
        <time>2019-08-11T06:22:29.000Z</time>
      </trkpt>
      <trkpt lat="43.3827" lon="2.25171">
        <ele>716.6</ele>
        <time>2019-08-11T06:22:30.000Z</time>
      </trkpt>
      <trkpt lat="43.38272" lon="2.25173">
        <ele>717</ele>
        <time>2019-08-11T06:22:31.000Z</time>
      </trkpt>
      <trkpt lat="43.38275" lon="2.25175">
        <ele>717.3</ele>
        <time>2019-08-11T06:22:32.000Z</time>
      </trkpt>
      <trkpt lat="43.38278" lon="2.25177">
        <ele>717.6</ele>
        <time>2019-08-11T06:22:33.000Z</time>
      </trkpt>
      <trkpt lat="43.38281" lon="2.2518">
        <ele>718</ele>
        <time>2019-08-11T06:22:34.000Z</time>
      </trkpt>
      <trkpt lat="43.38284" lon="2.25182">
        <ele>718.3</ele>
        <time>2019-08-11T06:22:35.000Z</time>
      </trkpt>
      <trkpt lat="43.38287" lon="2.25184">
        <ele>718.7</ele>
        <time>2019-08-11T06:22:36.000Z</time>
      </trkpt>
      <trkpt lat="43.38289" lon="2.25186">
        <ele>719.1</ele>
        <time>2019-08-11T06:22:37.000Z</time>
      </trkpt>
      <trkpt lat="43.38292" lon="2.25188">
        <ele>719.4</ele>
        <time>2019-08-11T06:22:38.000Z</time>
      </trkpt>
      <trkpt lat="43.38295" lon="2.2519">
        <ele>719.8</ele>
        <time>2019-08-11T06:22:39.000Z</time>
      </trkpt>
      <trkpt lat="43.38297" lon="2.25192">
        <ele>720.1</ele>
        <time>2019-08-11T06:22:40.000Z</time>
      </trkpt>
      <trkpt lat="43.38299" lon="2.25194">
        <ele>720.5</ele>
        <time>2019-08-11T06:22:41.000Z</time>
      </trkpt>
      <trkpt lat="43.38301" lon="2.25195">
        <ele>720.8</ele>
        <time>2019-08-11T06:22:42.000Z</time>
      </trkpt>
      <trkpt lat="43.38303" lon="2.25197">
        <ele>721.1</ele>
        <time>2019-08-11T06:22:43.000Z</time>
      </trkpt>
      <trkpt lat="43.38305" lon="2.25199">
        <ele>721.4</ele>
        <time>2019-08-11T06:22:44.000Z</time>
      </trkpt>
      <trkpt lat="43.38307" lon="2.252">
        <ele>721.7</ele>
        <time>2019-08-11T06:22:45.000Z</time>
      </trkpt>
      <trkpt lat="43.38308" lon="2.25202">
        <ele>722</ele>
        <time>2019-08-11T06:22:46.000Z</time>
      </trkpt>
      <trkpt lat="43.3831" lon="2.25204">
        <ele>722.2</ele>
        <time>2019-08-11T06:22:47.000Z</time>
      </trkpt>
      <trkpt lat="43.38311" lon="2.25206">
        <ele>722.5</ele>
        <time>2019-08-11T06:22:48.000Z</time>
      </trkpt>
      <trkpt lat="43.38313" lon="2.25207">
        <ele>722.8</ele>
        <time>2019-08-11T06:22:49.000Z</time>
      </trkpt>
      <trkpt lat="43.38314" lon="2.25209">
        <ele>723.1</ele>
        <time>2019-08-11T06:22:50.000Z</time>
      </trkpt>
      <trkpt lat="43.38315" lon="2.25211">
        <ele>723.4</ele>
        <time>2019-08-11T06:22:51.000Z</time>
      </trkpt>
      <trkpt lat="43.38317" lon="2.25212">
        <ele>723.6</ele>
        <time>2019-08-11T06:22:52.000Z</time>
      </trkpt>
      <trkpt lat="43.38318" lon="2.25214">
        <ele>723.9</ele>
        <time>2019-08-11T06:22:53.000Z</time>
      </trkpt>
      <trkpt lat="43.3832" lon="2.25216">
        <ele>724.2</ele>
        <time>2019-08-11T06:22:54.000Z</time>
      </trkpt>
      <trkpt lat="43.38321" lon="2.25218">
        <ele>724.5</ele>
        <time>2019-08-11T06:22:55.000Z</time>
      </trkpt>
      <trkpt lat="43.38322" lon="2.25219">
        <ele>724.8</ele>
        <time>2019-08-11T06:22:56.000Z</time>
      </trkpt>
      <trkpt lat="43.38324" lon="2.25221">
        <ele>725.1</ele>
        <time>2019-08-11T06:22:57.000Z</time>
      </trkpt>
      <trkpt lat="43.38325" lon="2.25223">
        <ele>725.5</ele>
        <time>2019-08-11T06:22:58.000Z</time>
      </trkpt>
      <trkpt lat="43.38327" lon="2.25225">
        <ele>725.8</ele>
        <time>2019-08-11T06:22:59.000Z</time>
      </trkpt>
      <trkpt lat="43.38328" lon="2.25226">
        <ele>726.1</ele>
        <time>2019-08-11T06:23:00.000Z</time>
      </trkpt>
      <trkpt lat="43.3833" lon="2.25228">
        <ele>726.5</ele>
        <time>2019-08-11T06:23:01.000Z</time>
      </trkpt>
      <trkpt lat="43.38331" lon="2.2523">
        <ele>726.8</ele>
        <time>2019-08-11T06:23:02.000Z</time>
      </trkpt>
      <trkpt lat="43.38332" lon="2.25232">
        <ele>727.2</ele>
        <time>2019-08-11T06:23:03.000Z</time>
      </trkpt>
      <trkpt lat="43.38334" lon="2.25234">
        <ele>727.5</ele>
        <time>2019-08-11T06:23:04.000Z</time>
      </trkpt>
      <trkpt lat="43.38335" lon="2.25236">
        <ele>727.8</ele>
        <time>2019-08-11T06:23:05.000Z</time>
      </trkpt>
      <trkpt lat="43.38336" lon="2.25238">
        <ele>728.1</ele>
        <time>2019-08-11T06:23:06.000Z</time>
      </trkpt>
      <trkpt lat="43.38337" lon="2.2524">
        <ele>728.3</ele>
        <time>2019-08-11T06:23:07.000Z</time>
      </trkpt>
      <trkpt lat="43.38338" lon="2.25242">
        <ele>728.6</ele>
        <time>2019-08-11T06:23:08.000Z</time>
      </trkpt>
      <trkpt lat="43.38338" lon="2.25244">
        <ele>728.8</ele>
        <time>2019-08-11T06:23:09.000Z</time>
      </trkpt>
      <trkpt lat="43.38339" lon="2.25246">
        <ele>729</ele>
        <time>2019-08-11T06:23:10.000Z</time>
      </trkpt>
      <trkpt lat="43.38339" lon="2.25248">
        <ele>729.3</ele>
        <time>2019-08-11T06:23:11.000Z</time>
      </trkpt>
      <trkpt lat="43.38339" lon="2.2525">
        <ele>729.5</ele>
        <time>2019-08-11T06:23:12.000Z</time>
      </trkpt>
      <trkpt lat="43.3834" lon="2.25252">
        <ele>729.6</ele>
        <time>2019-08-11T06:23:13.000Z</time>
      </trkpt>
      <trkpt lat="43.3834" lon="2.25254">
        <ele>729.7</ele>
        <time>2019-08-11T06:23:14.000Z</time>
      </trkpt>
      <trkpt lat="43.3834" lon="2.25256">
        <ele>729.8</ele>
        <time>2019-08-11T06:23:15.000Z</time>
      </trkpt>
      <trkpt lat="43.38341" lon="2.25258">
        <ele>730</ele>
        <time>2019-08-11T06:23:16.000Z</time>
      </trkpt>
      <trkpt lat="43.38341" lon="2.2526">
        <ele>730.1</ele>
        <time>2019-08-11T06:23:17.000Z</time>
      </trkpt>
      <trkpt lat="43.38341" lon="2.25262">
        <ele>730.2</ele>
        <time>2019-08-11T06:23:18.000Z</time>
      </trkpt>
      <trkpt lat="43.38342" lon="2.25264">
        <ele>730.4</ele>
        <time>2019-08-11T06:23:19.000Z</time>
      </trkpt>
      <trkpt lat="43.38342" lon="2.25267">
        <ele>730.5</ele>
        <time>2019-08-11T06:23:20.000Z</time>
      </trkpt>
      <trkpt lat="43.38343" lon="2.25269">
        <ele>730.7</ele>
        <time>2019-08-11T06:23:21.000Z</time>
      </trkpt>
      <trkpt lat="43.38343" lon="2.25271">
        <ele>730.8</ele>
        <time>2019-08-11T06:23:22.000Z</time>
      </trkpt>
      <trkpt lat="43.38344" lon="2.25273">
        <ele>731</ele>
        <time>2019-08-11T06:23:23.000Z</time>
      </trkpt>
      <trkpt lat="43.38344" lon="2.25276">
        <ele>731.2</ele>
        <time>2019-08-11T06:23:24.000Z</time>
      </trkpt>
      <trkpt lat="43.38345" lon="2.25278">
        <ele>731.3</ele>
        <time>2019-08-11T06:23:25.000Z</time>
      </trkpt>
      <trkpt lat="43.38346" lon="2.2528">
        <ele>731.5</ele>
        <time>2019-08-11T06:23:26.000Z</time>
      </trkpt>
      <trkpt lat="43.38346" lon="2.25282">
        <ele>731.6</ele>
        <time>2019-08-11T06:23:27.000Z</time>
      </trkpt>
      <trkpt lat="43.38347" lon="2.25284">
        <ele>731.8</ele>
        <time>2019-08-11T06:23:28.000Z</time>
      </trkpt>
      <trkpt lat="43.38348" lon="2.25287">
        <ele>732</ele>
        <time>2019-08-11T06:23:29.000Z</time>
      </trkpt>
      <trkpt lat="43.38349" lon="2.25289">
        <ele>732.1</ele>
        <time>2019-08-11T06:23:30.000Z</time>
      </trkpt>
      <trkpt lat="43.3835" lon="2.25291">
        <ele>732.3</ele>
        <time>2019-08-11T06:23:31.000Z</time>
      </trkpt>
      <trkpt lat="43.3835" lon="2.25293">
        <ele>732.5</ele>
        <time>2019-08-11T06:23:32.000Z</time>
      </trkpt>
      <trkpt lat="43.38351" lon="2.25295">
        <ele>732.7</ele>
        <time>2019-08-11T06:23:33.000Z</time>
      </trkpt>
      <trkpt lat="43.38352" lon="2.25297">
        <ele>732.9</ele>
        <time>2019-08-11T06:23:34.000Z</time>
      </trkpt>
      <trkpt lat="43.38353" lon="2.253">
        <ele>733.1</ele>
        <time>2019-08-11T06:23:35.000Z</time>
      </trkpt>
      <trkpt lat="43.38354" lon="2.25301">
        <ele>733.2</ele>
        <time>2019-08-11T06:23:36.000Z</time>
      </trkpt>
      <trkpt lat="43.38355" lon="2.25303">
        <ele>733.4</ele>
        <time>2019-08-11T06:23:37.000Z</time>
      </trkpt>
      <trkpt lat="43.38356" lon="2.25305">
        <ele>733.5</ele>
        <time>2019-08-11T06:23:38.000Z</time>
      </trkpt>
      <trkpt lat="43.38356" lon="2.25307">
        <ele>733.6</ele>
        <time>2019-08-11T06:23:39.000Z</time>
      </trkpt>
      <trkpt lat="43.38357" lon="2.25309">
        <ele>733.8</ele>
        <time>2019-08-11T06:23:40.000Z</time>
      </trkpt>
      <trkpt lat="43.38357" lon="2.2531">
        <ele>733.9</ele>
        <time>2019-08-11T06:23:41.000Z</time>
      </trkpt>
      <trkpt lat="43.38358" lon="2.25312">
        <ele>734.1</ele>
        <time>2019-08-11T06:23:42.000Z</time>
      </trkpt>
      <trkpt lat="43.38359" lon="2.25314">
        <ele>734.2</ele>
        <time>2019-08-11T06:23:43.000Z</time>
      </trkpt>
      <trkpt lat="43.3836" lon="2.25316">
        <ele>734.4</ele>
        <time>2019-08-11T06:23:44.000Z</time>
      </trkpt>
      <trkpt lat="43.38361" lon="2.25318">
        <ele>734.6</ele>
        <time>2019-08-11T06:23:45.000Z</time>
      </trkpt>
      <trkpt lat="43.38363" lon="2.2532">
        <ele>734.8</ele>
        <time>2019-08-11T06:23:46.000Z</time>
      </trkpt>
      <trkpt lat="43.38364" lon="2.25322">
        <ele>735</ele>
        <time>2019-08-11T06:23:47.000Z</time>
      </trkpt>
      <trkpt lat="43.38365" lon="2.25324">
        <ele>735.2</ele>
        <time>2019-08-11T06:23:48.000Z</time>
      </trkpt>
      <trkpt lat="43.38366" lon="2.25327">
        <ele>735.4</ele>
        <time>2019-08-11T06:23:49.000Z</time>
      </trkpt>
      <trkpt lat="43.38367" lon="2.25329">
        <ele>735.6</ele>
        <time>2019-08-11T06:23:50.000Z</time>
      </trkpt>
      <trkpt lat="43.38368" lon="2.25331">
        <ele>735.8</ele>
        <time>2019-08-11T06:23:51.000Z</time>
      </trkpt>
      <trkpt lat="43.38369" lon="2.25333">
        <ele>736</ele>
        <time>2019-08-11T06:23:52.000Z</time>
      </trkpt>
      <trkpt lat="43.3837" lon="2.25335">
        <ele>736.1</ele>
        <time>2019-08-11T06:23:53.000Z</time>
      </trkpt>
      <trkpt lat="43.38371" lon="2.25338">
        <ele>736.1</ele>
        <time>2019-08-11T06:23:54.000Z</time>
      </trkpt>
      <trkpt lat="43.38371" lon="2.2534">
        <ele>736.2</ele>
        <time>2019-08-11T06:23:55.000Z</time>
      </trkpt>
      <trkpt lat="43.38372" lon="2.25342">
        <ele>736.3</ele>
        <time>2019-08-11T06:23:56.000Z</time>
      </trkpt>
      <trkpt lat="43.38373" lon="2.25344">
        <ele>736.3</ele>
        <time>2019-08-11T06:23:57.000Z</time>
      </trkpt>
      <trkpt lat="43.38374" lon="2.25346">
        <ele>736.4</ele>
        <time>2019-08-11T06:23:58.000Z</time>
      </trkpt>
      <trkpt lat="43.38375" lon="2.25348">
        <ele>736.5</ele>
        <time>2019-08-11T06:23:59.000Z</time>
      </trkpt>
      <trkpt lat="43.38376" lon="2.25349">
        <ele>736.6</ele>
        <time>2019-08-11T06:24:00.000Z</time>
      </trkpt>
      <trkpt lat="43.38377" lon="2.25351">
        <ele>736.7</ele>
        <time>2019-08-11T06:24:01.000Z</time>
      </trkpt>
      <trkpt lat="43.38378" lon="2.25353">
        <ele>736.7</ele>
        <time>2019-08-11T06:24:02.000Z</time>
      </trkpt>
      <trkpt lat="43.38379" lon="2.25355">
        <ele>736.8</ele>
        <time>2019-08-11T06:24:03.000Z</time>
      </trkpt>
      <trkpt lat="43.3838" lon="2.25357">
        <ele>736.9</ele>
        <time>2019-08-11T06:24:04.000Z</time>
      </trkpt>
      <trkpt lat="43.3838" lon="2.2536">
        <ele>736.9</ele>
        <time>2019-08-11T06:24:05.000Z</time>
      </trkpt>
      <trkpt lat="43.38381" lon="2.25362">
        <ele>737</ele>
        <time>2019-08-11T06:24:06.000Z</time>
      </trkpt>
      <trkpt lat="43.38382" lon="2.25365">
        <ele>737.1</ele>
        <time>2019-08-11T06:24:07.000Z</time>
      </trkpt>
      <trkpt lat="43.38383" lon="2.25367">
        <ele>737.1</ele>
        <time>2019-08-11T06:24:08.000Z</time>
      </trkpt>
      <trkpt lat="43.38384" lon="2.2537">
        <ele>737.2</ele>
        <time>2019-08-11T06:24:09.000Z</time>
      </trkpt>
      <trkpt lat="43.38384" lon="2.25372">
        <ele>737.3</ele>
        <time>2019-08-11T06:24:10.000Z</time>
      </trkpt>
      <trkpt lat="43.38385" lon="2.25375">
        <ele>737.3</ele>
        <time>2019-08-11T06:24:11.000Z</time>
      </trkpt>
      <trkpt lat="43.38386" lon="2.25377">
        <ele>737.4</ele>
        <time>2019-08-11T06:24:12.000Z</time>
      </trkpt>
      <trkpt lat="43.38387" lon="2.25379">
        <ele>737.5</ele>
        <time>2019-08-11T06:24:13.000Z</time>
      </trkpt>
      <trkpt lat="43.38388" lon="2.25382">
        <ele>737.6</ele>
        <time>2019-08-11T06:24:14.000Z</time>
      </trkpt>
      <trkpt lat="43.38389" lon="2.25384">
        <ele>737.7</ele>
        <time>2019-08-11T06:24:15.000Z</time>
      </trkpt>
      <trkpt lat="43.3839" lon="2.25387">
        <ele>737.7</ele>
        <time>2019-08-11T06:24:16.000Z</time>
      </trkpt>
      <trkpt lat="43.38391" lon="2.25389">
        <ele>737.8</ele>
        <time>2019-08-11T06:24:17.000Z</time>
      </trkpt>
      <trkpt lat="43.38392" lon="2.25391">
        <ele>737.9</ele>
        <time>2019-08-11T06:24:18.000Z</time>
      </trkpt>
      <trkpt lat="43.38393" lon="2.25393">
        <ele>738</ele>
        <time>2019-08-11T06:24:19.000Z</time>
      </trkpt>
      <trkpt lat="43.38394" lon="2.25395">
        <ele>738.1</ele>
        <time>2019-08-11T06:24:20.000Z</time>
      </trkpt>
      <trkpt lat="43.38395" lon="2.25397">
        <ele>738.2</ele>
        <time>2019-08-11T06:24:21.000Z</time>
      </trkpt>
      <trkpt lat="43.38396" lon="2.25399">
        <ele>738.3</ele>
        <time>2019-08-11T06:24:22.000Z</time>
      </trkpt>
      <trkpt lat="43.38397" lon="2.25401">
        <ele>738.4</ele>
        <time>2019-08-11T06:24:23.000Z</time>
      </trkpt>
      <trkpt lat="43.38398" lon="2.25403">
        <ele>738.5</ele>
        <time>2019-08-11T06:24:24.000Z</time>
      </trkpt>
      <trkpt lat="43.38399" lon="2.25405">
        <ele>738.5</ele>
        <time>2019-08-11T06:24:25.000Z</time>
      </trkpt>
      <trkpt lat="43.38401" lon="2.25407">
        <ele>738.7</ele>
        <time>2019-08-11T06:24:26.000Z</time>
      </trkpt>
      <trkpt lat="43.38402" lon="2.25408">
        <ele>738.8</ele>
        <time>2019-08-11T06:24:27.000Z</time>
      </trkpt>
      <trkpt lat="43.38403" lon="2.2541">
        <ele>738.9</ele>
        <time>2019-08-11T06:24:28.000Z</time>
      </trkpt>
      <trkpt lat="43.38404" lon="2.25412">
        <ele>739</ele>
        <time>2019-08-11T06:24:29.000Z</time>
      </trkpt>
      <trkpt lat="43.38406" lon="2.25413">
        <ele>739.1</ele>
        <time>2019-08-11T06:24:30.000Z</time>
      </trkpt>
      <trkpt lat="43.38408" lon="2.25415">
        <ele>739.2</ele>
        <time>2019-08-11T06:24:31.000Z</time>
      </trkpt>
      <trkpt lat="43.3841" lon="2.25416">
        <ele>739.4</ele>
        <time>2019-08-11T06:24:32.000Z</time>
      </trkpt>
      <trkpt lat="43.38412" lon="2.25418">
        <ele>739.6</ele>
        <time>2019-08-11T06:24:33.000Z</time>
      </trkpt>
      <trkpt lat="43.38414" lon="2.25419">
        <ele>739.7</ele>
        <time>2019-08-11T06:24:34.000Z</time>
      </trkpt>
      <trkpt lat="43.38415" lon="2.2542">
        <ele>739.8</ele>
        <time>2019-08-11T06:24:35.000Z</time>
      </trkpt>
      <trkpt lat="43.38417" lon="2.25421">
        <ele>740</ele>
        <time>2019-08-11T06:24:36.000Z</time>
      </trkpt>
      <trkpt lat="43.38418" lon="2.25422">
        <ele>740</ele>
        <time>2019-08-11T06:24:37.000Z</time>
      </trkpt>
      <trkpt lat="43.38418" lon="2.25422">
        <ele>740</ele>
        <time>2019-08-11T06:24:38.000Z</time>
      </trkpt>
      <trkpt lat="43.38419" lon="2.25422">
        <ele>740</ele>
        <time>2019-08-11T06:24:39.000Z</time>
      </trkpt>
      <trkpt lat="43.3842" lon="2.25422">
        <ele>740.1</ele>
        <time>2019-08-11T06:24:40.000Z</time>
      </trkpt>
      <trkpt lat="43.38423" lon="2.25423">
        <ele>740.2</ele>
        <time>2019-08-11T06:24:41.000Z</time>
      </trkpt>
      <trkpt lat="43.38426" lon="2.25424">
        <ele>740.4</ele>
        <time>2019-08-11T06:24:42.000Z</time>
      </trkpt>
      <trkpt lat="43.38428" lon="2.25425">
        <ele>740.4</ele>
        <time>2019-08-11T06:24:43.000Z</time>
      </trkpt>
      <trkpt lat="43.38429" lon="2.25425">
        <ele>740.5</ele>
        <time>2019-08-11T06:24:44.000Z</time>
      </trkpt>
      <trkpt lat="43.38429" lon="2.25425">
        <ele>740.5</ele>
        <time>2019-08-11T06:24:45.000Z</time>
      </trkpt>
      <trkpt lat="43.38429" lon="2.25425">
        <ele>740.5</ele>
        <time>2019-08-11T06:24:46.000Z</time>
      </trkpt>
      <trkpt lat="43.3843" lon="2.25425">
        <ele>740.5</ele>
        <time>2019-08-11T06:24:47.000Z</time>
      </trkpt>
      <trkpt lat="43.3843" lon="2.25425">
        <ele>740.5</ele>
        <time>2019-08-11T06:24:48.000Z</time>
      </trkpt>
      <trkpt lat="43.3843" lon="2.25425">
        <ele>740.5</ele>
        <time>2019-08-11T06:24:49.000Z</time>
      </trkpt>
      <trkpt lat="43.3843" lon="2.25425">
        <ele>740.5</ele>
        <time>2019-08-11T06:24:50.000Z</time>
      </trkpt>
      <trkpt lat="43.3843" lon="2.25425">
        <ele>740.5</ele>
        <time>2019-08-11T06:24:51.000Z</time>
      </trkpt>
      <trkpt lat="43.3843" lon="2.25425">
        <ele>740.5</ele>
        <time>2019-08-11T06:24:52.000Z</time>
      </trkpt>
      <trkpt lat="43.3843" lon="2.25425">
        <ele>740.5</ele>
        <time>2019-08-11T06:24:53.000Z</time>
      </trkpt>
      <trkpt lat="43.3843" lon="2.25425">
        <ele>740.5</ele>
        <time>2019-08-11T06:24:54.000Z</time>
      </trkpt>
      <trkpt lat="43.3843" lon="2.25425">
        <ele>740.5</ele>
        <time>2019-08-11T06:24:55.000Z</time>
      </trkpt>
      <trkpt lat="43.3843" lon="2.25425">
        <ele>740.5</ele>
        <time>2019-08-11T06:24:56.000Z</time>
      </trkpt>
      <trkpt lat="43.38431" lon="2.25425">
        <ele>740.6</ele>
        <time>2019-08-11T06:24:57.000Z</time>
      </trkpt>
      <trkpt lat="43.38438" lon="2.25426">
        <ele>740.9</ele>
        <time>2019-08-11T06:24:58.000Z</time>
      </trkpt>
      <trkpt lat="43.38441" lon="2.25426">
        <ele>741</ele>
        <time>2019-08-11T06:24:59.000Z</time>
      </trkpt>
      <trkpt lat="43.38442" lon="2.25426">
        <ele>741.1</ele>
        <time>2019-08-11T06:25:00.000Z</time>
      </trkpt>
      <trkpt lat="43.38443" lon="2.25427">
        <ele>741.1</ele>
        <time>2019-08-11T06:25:01.000Z</time>
      </trkpt>
      <trkpt lat="43.38445" lon="2.25427">
        <ele>741.2</ele>
        <time>2019-08-11T06:25:02.000Z</time>
      </trkpt>
      <trkpt lat="43.38447" lon="2.25428">
        <ele>741.2</ele>
        <time>2019-08-11T06:25:03.000Z</time>
      </trkpt>
      <trkpt lat="43.38448" lon="2.25429">
        <ele>741.3</ele>
        <time>2019-08-11T06:25:04.000Z</time>
      </trkpt>
      <trkpt lat="43.3845" lon="2.25429">
        <ele>741.4</ele>
        <time>2019-08-11T06:25:05.000Z</time>
      </trkpt>
      <trkpt lat="43.38451" lon="2.2543">
        <ele>741.4</ele>
        <time>2019-08-11T06:25:06.000Z</time>
      </trkpt>
      <trkpt lat="43.38452" lon="2.25431">
        <ele>741.5</ele>
        <time>2019-08-11T06:25:07.000Z</time>
      </trkpt>
      <trkpt lat="43.38453" lon="2.25431">
        <ele>741.5</ele>
        <time>2019-08-11T06:25:08.000Z</time>
      </trkpt>
      <trkpt lat="43.38454" lon="2.25432">
        <ele>741.5</ele>
        <time>2019-08-11T06:25:09.000Z</time>
      </trkpt>
      <trkpt lat="43.38455" lon="2.25433">
        <ele>741.6</ele>
        <time>2019-08-11T06:25:10.000Z</time>
      </trkpt>
      <trkpt lat="43.38456" lon="2.25433">
        <ele>741.6</ele>
        <time>2019-08-11T06:25:11.000Z</time>
      </trkpt>
      <trkpt lat="43.38456" lon="2.25433">
        <ele>741.6</ele>
        <time>2019-08-11T06:25:12.000Z</time>
      </trkpt>
      <trkpt lat="43.38457" lon="2.25433">
        <ele>741.6</ele>
        <time>2019-08-11T06:25:13.000Z</time>
      </trkpt>
      <trkpt lat="43.38457" lon="2.25432">
        <ele>741.7</ele>
        <time>2019-08-11T06:25:14.000Z</time>
      </trkpt>
      <trkpt lat="43.38458" lon="2.25432">
        <ele>741.7</ele>
        <time>2019-08-11T06:25:15.000Z</time>
      </trkpt>
      <trkpt lat="43.38458" lon="2.25431">
        <ele>741.7</ele>
        <time>2019-08-11T06:25:16.000Z</time>
      </trkpt>
      <trkpt lat="43.38459" lon="2.2543">
        <ele>741.8</ele>
        <time>2019-08-11T06:25:17.000Z</time>
      </trkpt>
      <trkpt lat="43.38459" lon="2.25429">
        <ele>741.8</ele>
        <time>2019-08-11T06:25:18.000Z</time>
      </trkpt>
      <trkpt lat="43.3846" lon="2.25429">
        <ele>741.8</ele>
        <time>2019-08-11T06:25:19.000Z</time>
      </trkpt>
      <trkpt lat="43.3846" lon="2.25428">
        <ele>741.9</ele>
        <time>2019-08-11T06:25:20.000Z</time>
      </trkpt>
      <trkpt lat="43.38461" lon="2.25428">
        <ele>741.9</ele>
        <time>2019-08-11T06:25:21.000Z</time>
      </trkpt>
      <trkpt lat="43.38461" lon="2.25427">
        <ele>741.9</ele>
        <time>2019-08-11T06:25:22.000Z</time>
      </trkpt>
      <trkpt lat="43.38462" lon="2.25427">
        <ele>742</ele>
        <time>2019-08-11T06:25:23.000Z</time>
      </trkpt>
      <trkpt lat="43.38462" lon="2.25427">
        <ele>742</ele>
        <time>2019-08-11T06:25:24.000Z</time>
      </trkpt>
      <trkpt lat="43.38462" lon="2.25427">
        <ele>742</ele>
        <time>2019-08-11T06:25:25.000Z</time>
      </trkpt>
      <trkpt lat="43.38463" lon="2.25427">
        <ele>742</ele>
        <time>2019-08-11T06:25:26.000Z</time>
      </trkpt>
      <trkpt lat="43.38463" lon="2.25427">
        <ele>742</ele>
        <time>2019-08-11T06:25:27.000Z</time>
      </trkpt>
      <trkpt lat="43.38463" lon="2.25427">
        <ele>742</ele>
        <time>2019-08-11T06:25:28.000Z</time>
      </trkpt>
      <trkpt lat="43.38464" lon="2.25427">
        <ele>742.1</ele>
        <time>2019-08-11T06:25:29.000Z</time>
      </trkpt>
      <trkpt lat="43.38465" lon="2.25427">
        <ele>742.1</ele>
        <time>2019-08-11T06:25:30.000Z</time>
      </trkpt>
      <trkpt lat="43.38466" lon="2.25427">
        <ele>742.2</ele>
        <time>2019-08-11T06:25:31.000Z</time>
      </trkpt>
      <trkpt lat="43.38467" lon="2.25428">
        <ele>742.2</ele>
        <time>2019-08-11T06:25:32.000Z</time>
      </trkpt>
      <trkpt lat="43.38468" lon="2.25428">
        <ele>742.3</ele>
        <time>2019-08-11T06:25:33.000Z</time>
      </trkpt>
      <trkpt lat="43.38469" lon="2.25429">
        <ele>742.3</ele>
        <time>2019-08-11T06:25:34.000Z</time>
      </trkpt>
      <trkpt lat="43.3847" lon="2.25429">
        <ele>742.3</ele>
        <time>2019-08-11T06:25:35.000Z</time>
      </trkpt>
      <trkpt lat="43.3847" lon="2.2543">
        <ele>742.3</ele>
        <time>2019-08-11T06:25:36.000Z</time>
      </trkpt>
      <trkpt lat="43.3847" lon="2.2543">
        <ele>742.3</ele>
        <time>2019-08-11T06:25:37.000Z</time>
      </trkpt>
      <trkpt lat="43.38471" lon="2.2543">
        <ele>742.3</ele>
        <time>2019-08-11T06:25:38.000Z</time>
      </trkpt>
      <trkpt lat="43.38471" lon="2.2543">
        <ele>742.3</ele>
        <time>2019-08-11T06:25:39.000Z</time>
      </trkpt>
      <trkpt lat="43.38471" lon="2.2543">
        <ele>742.3</ele>
        <time>2019-08-11T06:25:40.000Z</time>
      </trkpt>
      <trkpt lat="43.38471" lon="2.2543">
        <ele>742.3</ele>
        <time>2019-08-11T06:25:41.000Z</time>
      </trkpt>
      <trkpt lat="43.38471" lon="2.2543">
        <ele>742.4</ele>
        <time>2019-08-11T06:25:42.000Z</time>
      </trkpt>
      <trkpt lat="43.38471" lon="2.2543">
        <ele>742.4</ele>
        <time>2019-08-11T06:25:43.000Z</time>
      </trkpt>
      <trkpt lat="43.38471" lon="2.2543">
        <ele>742.4</ele>
        <time>2019-08-11T06:25:44.000Z</time>
      </trkpt>
      <trkpt lat="43.38472" lon="2.2543">
        <ele>742.4</ele>
        <time>2019-08-11T06:25:45.000Z</time>
      </trkpt>
      <trkpt lat="43.38472" lon="2.2543">
        <ele>742.4</ele>
        <time>2019-08-11T06:25:46.000Z</time>
      </trkpt>
      <trkpt lat="43.38472" lon="2.2543">
        <ele>742.4</ele>
        <time>2019-08-11T06:25:47.000Z</time>
      </trkpt>
      <trkpt lat="43.38472" lon="2.2543">
        <ele>742.4</ele>
        <time>2019-08-11T06:25:48.000Z</time>
      </trkpt>
      <trkpt lat="43.38472" lon="2.2543">
        <ele>742.4</ele>
        <time>2019-08-11T06:25:49.000Z</time>
      </trkpt>
      <trkpt lat="43.38473" lon="2.2543">
        <ele>742.4</ele>
        <time>2019-08-11T06:25:50.000Z</time>
      </trkpt>
      <trkpt lat="43.38473" lon="2.25431">
        <ele>742.4</ele>
        <time>2019-08-11T06:25:51.000Z</time>
      </trkpt>
      <trkpt lat="43.38473" lon="2.25431">
        <ele>742.4</ele>
        <time>2019-08-11T06:25:52.000Z</time>
      </trkpt>
      <trkpt lat="43.38474" lon="2.25432">
        <ele>742.4</ele>
        <time>2019-08-11T06:25:53.000Z</time>
      </trkpt>
      <trkpt lat="43.38474" lon="2.25433">
        <ele>742.4</ele>
        <time>2019-08-11T06:25:54.000Z</time>
      </trkpt>
      <trkpt lat="43.38475" lon="2.25433">
        <ele>742.4</ele>
        <time>2019-08-11T06:25:55.000Z</time>
      </trkpt>
      <trkpt lat="43.38475" lon="2.25434">
        <ele>742.4</ele>
        <time>2019-08-11T06:25:56.000Z</time>
      </trkpt>
      <trkpt lat="43.38476" lon="2.25436">
        <ele>742.5</ele>
        <time>2019-08-11T06:25:57.000Z</time>
      </trkpt>
      <trkpt lat="43.38477" lon="2.25437">
        <ele>742.5</ele>
        <time>2019-08-11T06:25:58.000Z</time>
      </trkpt>
      <trkpt lat="43.38477" lon="2.25438">
        <ele>742.5</ele>
        <time>2019-08-11T06:25:59.000Z</time>
      </trkpt>
      <trkpt lat="43.38478" lon="2.2544">
        <ele>742.5</ele>
        <time>2019-08-11T06:26:00.000Z</time>
      </trkpt>
      <trkpt lat="43.38479" lon="2.25441">
        <ele>742.5</ele>
        <time>2019-08-11T06:26:01.000Z</time>
      </trkpt>
      <trkpt lat="43.3848" lon="2.25443">
        <ele>742.5</ele>
        <time>2019-08-11T06:26:02.000Z</time>
      </trkpt>
      <trkpt lat="43.3848" lon="2.25445">
        <ele>742.5</ele>
        <time>2019-08-11T06:26:03.000Z</time>
      </trkpt>
      <trkpt lat="43.38481" lon="2.25447">
        <ele>742.5</ele>
        <time>2019-08-11T06:26:04.000Z</time>
      </trkpt>
      <trkpt lat="43.38482" lon="2.25449">
        <ele>742.5</ele>
        <time>2019-08-11T06:26:05.000Z</time>
      </trkpt>
      <trkpt lat="43.38483" lon="2.25451">
        <ele>742.5</ele>
        <time>2019-08-11T06:26:06.000Z</time>
      </trkpt>
      <trkpt lat="43.38484" lon="2.25453">
        <ele>742.5</ele>
        <time>2019-08-11T06:26:07.000Z</time>
      </trkpt>
      <trkpt lat="43.38485" lon="2.25455">
        <ele>742.4</ele>
        <time>2019-08-11T06:26:08.000Z</time>
      </trkpt>
      <trkpt lat="43.38486" lon="2.25457">
        <ele>742.4</ele>
        <time>2019-08-11T06:26:09.000Z</time>
      </trkpt>
      <trkpt lat="43.38487" lon="2.25459">
        <ele>742.4</ele>
        <time>2019-08-11T06:26:10.000Z</time>
      </trkpt>
      <trkpt lat="43.38489" lon="2.25462">
        <ele>742.4</ele>
        <time>2019-08-11T06:26:11.000Z</time>
      </trkpt>
      <trkpt lat="43.3849" lon="2.25464">
        <ele>742.4</ele>
        <time>2019-08-11T06:26:12.000Z</time>
      </trkpt>
      <trkpt lat="43.38491" lon="2.25466">
        <ele>742.4</ele>
        <time>2019-08-11T06:26:13.000Z</time>
      </trkpt>
      <trkpt lat="43.38492" lon="2.25468">
        <ele>742.4</ele>
        <time>2019-08-11T06:26:14.000Z</time>
      </trkpt>
      <trkpt lat="43.38494" lon="2.25471">
        <ele>742.4</ele>
        <time>2019-08-11T06:26:15.000Z</time>
      </trkpt>
      <trkpt lat="43.38495" lon="2.25473">
        <ele>742.4</ele>
        <time>2019-08-11T06:26:16.000Z</time>
      </trkpt>
      <trkpt lat="43.38496" lon="2.25475">
        <ele>742.4</ele>
        <time>2019-08-11T06:26:17.000Z</time>
      </trkpt>
      <trkpt lat="43.38498" lon="2.25477">
        <ele>742.4</ele>
        <time>2019-08-11T06:26:18.000Z</time>
      </trkpt>
      <trkpt lat="43.38499" lon="2.25479">
        <ele>742.5</ele>
        <time>2019-08-11T06:26:19.000Z</time>
      </trkpt>
      <trkpt lat="43.385" lon="2.25481">
        <ele>742.5</ele>
        <time>2019-08-11T06:26:20.000Z</time>
      </trkpt>
      <trkpt lat="43.38502" lon="2.25483">
        <ele>742.4</ele>
        <time>2019-08-11T06:26:21.000Z</time>
      </trkpt>
      <trkpt lat="43.38503" lon="2.25485">
        <ele>742.4</ele>
        <time>2019-08-11T06:26:22.000Z</time>
      </trkpt>
      <trkpt lat="43.38505" lon="2.25487">
        <ele>742.4</ele>
        <time>2019-08-11T06:26:23.000Z</time>
      </trkpt>
      <trkpt lat="43.38506" lon="2.25488">
        <ele>742.4</ele>
        <time>2019-08-11T06:26:24.000Z</time>
      </trkpt>
      <trkpt lat="43.38508" lon="2.2549">
        <ele>742.5</ele>
        <time>2019-08-11T06:26:25.000Z</time>
      </trkpt>
      <trkpt lat="43.38509" lon="2.25491">
        <ele>742.5</ele>
        <time>2019-08-11T06:26:26.000Z</time>
      </trkpt>
      <trkpt lat="43.3851" lon="2.25492">
        <ele>742.5</ele>
        <time>2019-08-11T06:26:27.000Z</time>
      </trkpt>
      <trkpt lat="43.38512" lon="2.25493">
        <ele>742.5</ele>
        <time>2019-08-11T06:26:28.000Z</time>
      </trkpt>
      <trkpt lat="43.38513" lon="2.25494">
        <ele>742.5</ele>
        <time>2019-08-11T06:26:29.000Z</time>
      </trkpt>
      <trkpt lat="43.38515" lon="2.25496">
        <ele>742.6</ele>
        <time>2019-08-11T06:26:30.000Z</time>
      </trkpt>
      <trkpt lat="43.38516" lon="2.25497">
        <ele>742.6</ele>
        <time>2019-08-11T06:26:31.000Z</time>
      </trkpt>
      <trkpt lat="43.38517" lon="2.25498">
        <ele>742.6</ele>
        <time>2019-08-11T06:26:32.000Z</time>
      </trkpt>
      <trkpt lat="43.38518" lon="2.255">
        <ele>742.7</ele>
        <time>2019-08-11T06:26:33.000Z</time>
      </trkpt>
      <trkpt lat="43.3852" lon="2.25501">
        <ele>742.7</ele>
        <time>2019-08-11T06:26:34.000Z</time>
      </trkpt>
      <trkpt lat="43.38521" lon="2.25503">
        <ele>742.8</ele>
        <time>2019-08-11T06:26:35.000Z</time>
      </trkpt>
      <trkpt lat="43.38522" lon="2.25504">
        <ele>742.9</ele>
        <time>2019-08-11T06:26:36.000Z</time>
      </trkpt>
      <trkpt lat="43.38523" lon="2.25506">
        <ele>743</ele>
        <time>2019-08-11T06:26:37.000Z</time>
      </trkpt>
      <trkpt lat="43.38524" lon="2.25507">
        <ele>743.1</ele>
        <time>2019-08-11T06:26:38.000Z</time>
      </trkpt>
      <trkpt lat="43.38526" lon="2.25509">
        <ele>743.2</ele>
        <time>2019-08-11T06:26:39.000Z</time>
      </trkpt>
      <trkpt lat="43.38527" lon="2.2551">
        <ele>743.2</ele>
        <time>2019-08-11T06:26:40.000Z</time>
      </trkpt>
      <trkpt lat="43.38528" lon="2.25511">
        <ele>743.3</ele>
        <time>2019-08-11T06:26:41.000Z</time>
      </trkpt>
      <trkpt lat="43.38529" lon="2.25513">
        <ele>743.4</ele>
        <time>2019-08-11T06:26:42.000Z</time>
      </trkpt>
      <trkpt lat="43.38531" lon="2.25514">
        <ele>743.5</ele>
        <time>2019-08-11T06:26:43.000Z</time>
      </trkpt>
      <trkpt lat="43.38532" lon="2.25515">
        <ele>743.6</ele>
        <time>2019-08-11T06:26:44.000Z</time>
      </trkpt>
      <trkpt lat="43.38534" lon="2.25517">
        <ele>743.7</ele>
        <time>2019-08-11T06:26:45.000Z</time>
      </trkpt>
      <trkpt lat="43.38535" lon="2.25518">
        <ele>743.7</ele>
        <time>2019-08-11T06:26:46.000Z</time>
      </trkpt>
      <trkpt lat="43.38537" lon="2.2552">
        <ele>743.8</ele>
        <time>2019-08-11T06:26:47.000Z</time>
      </trkpt>
      <trkpt lat="43.38539" lon="2.25522">
        <ele>743.9</ele>
        <time>2019-08-11T06:26:48.000Z</time>
      </trkpt>
      <trkpt lat="43.38541" lon="2.25524">
        <ele>744.1</ele>
        <time>2019-08-11T06:26:49.000Z</time>
      </trkpt>
      <trkpt lat="43.38543" lon="2.25526">
        <ele>744.2</ele>
        <time>2019-08-11T06:26:50.000Z</time>
      </trkpt>
      <trkpt lat="43.38545" lon="2.25528">
        <ele>744.3</ele>
        <time>2019-08-11T06:26:51.000Z</time>
      </trkpt>
      <trkpt lat="43.38547" lon="2.2553">
        <ele>744.4</ele>
        <time>2019-08-11T06:26:52.000Z</time>
      </trkpt>
      <trkpt lat="43.38549" lon="2.25532">
        <ele>744.5</ele>
        <time>2019-08-11T06:26:53.000Z</time>
      </trkpt>
      <trkpt lat="43.38551" lon="2.25534">
        <ele>744.6</ele>
        <time>2019-08-11T06:26:54.000Z</time>
      </trkpt>
      <trkpt lat="43.38553" lon="2.25536">
        <ele>744.7</ele>
        <time>2019-08-11T06:26:55.000Z</time>
      </trkpt>
      <trkpt lat="43.38555" lon="2.25537">
        <ele>744.7</ele>
        <time>2019-08-11T06:26:56.000Z</time>
      </trkpt>
      <trkpt lat="43.38557" lon="2.25539">
        <ele>744.8</ele>
        <time>2019-08-11T06:26:57.000Z</time>
      </trkpt>
      <trkpt lat="43.38559" lon="2.25541">
        <ele>744.9</ele>
        <time>2019-08-11T06:26:58.000Z</time>
      </trkpt>
      <trkpt lat="43.38561" lon="2.25542">
        <ele>745</ele>
        <time>2019-08-11T06:26:59.000Z</time>
      </trkpt>
      <trkpt lat="43.38563" lon="2.25543">
        <ele>745</ele>
        <time>2019-08-11T06:27:00.000Z</time>
      </trkpt>
      <trkpt lat="43.38565" lon="2.25544">
        <ele>745.1</ele>
        <time>2019-08-11T06:27:01.000Z</time>
      </trkpt>
      <trkpt lat="43.38566" lon="2.25545">
        <ele>745.1</ele>
        <time>2019-08-11T06:27:02.000Z</time>
      </trkpt>
      <trkpt lat="43.38568" lon="2.25546">
        <ele>745.2</ele>
        <time>2019-08-11T06:27:03.000Z</time>
      </trkpt>
      <trkpt lat="43.3857" lon="2.25547">
        <ele>745.3</ele>
        <time>2019-08-11T06:27:04.000Z</time>
      </trkpt>
      <trkpt lat="43.38571" lon="2.25548">
        <ele>745.3</ele>
        <time>2019-08-11T06:27:05.000Z</time>
      </trkpt>
      <trkpt lat="43.38573" lon="2.25549">
        <ele>745.4</ele>
        <time>2019-08-11T06:27:06.000Z</time>
      </trkpt>
      <trkpt lat="43.38575" lon="2.25551">
        <ele>745.4</ele>
        <time>2019-08-11T06:27:07.000Z</time>
      </trkpt>
      <trkpt lat="43.38577" lon="2.25552">
        <ele>745.5</ele>
        <time>2019-08-11T06:27:08.000Z</time>
      </trkpt>
      <trkpt lat="43.38579" lon="2.25554">
        <ele>745.5</ele>
        <time>2019-08-11T06:27:09.000Z</time>
      </trkpt>
      <trkpt lat="43.38581" lon="2.25555">
        <ele>745.6</ele>
        <time>2019-08-11T06:27:10.000Z</time>
      </trkpt>
      <trkpt lat="43.38583" lon="2.25557">
        <ele>745.7</ele>
        <time>2019-08-11T06:27:11.000Z</time>
      </trkpt>
      <trkpt lat="43.38585" lon="2.25558">
        <ele>745.7</ele>
        <time>2019-08-11T06:27:12.000Z</time>
      </trkpt>
      <trkpt lat="43.38586" lon="2.2556">
        <ele>745.6</ele>
        <time>2019-08-11T06:27:13.000Z</time>
      </trkpt>
      <trkpt lat="43.38588" lon="2.25562">
        <ele>745.6</ele>
        <time>2019-08-11T06:27:14.000Z</time>
      </trkpt>
      <trkpt lat="43.3859" lon="2.25563">
        <ele>745.6</ele>
        <time>2019-08-11T06:27:15.000Z</time>
      </trkpt>
      <trkpt lat="43.38591" lon="2.25565">
        <ele>745.6</ele>
        <time>2019-08-11T06:27:16.000Z</time>
      </trkpt>
      <trkpt lat="43.38593" lon="2.25567">
        <ele>745.6</ele>
        <time>2019-08-11T06:27:17.000Z</time>
      </trkpt>
      <trkpt lat="43.38594" lon="2.25568">
        <ele>745.5</ele>
        <time>2019-08-11T06:27:18.000Z</time>
      </trkpt>
      <trkpt lat="43.38596" lon="2.25569">
        <ele>745.5</ele>
        <time>2019-08-11T06:27:19.000Z</time>
      </trkpt>
      <trkpt lat="43.38597" lon="2.25571">
        <ele>745.5</ele>
        <time>2019-08-11T06:27:20.000Z</time>
      </trkpt>
      <trkpt lat="43.38599" lon="2.25572">
        <ele>745.5</ele>
        <time>2019-08-11T06:27:21.000Z</time>
      </trkpt>
      <trkpt lat="43.386" lon="2.25573">
        <ele>745.4</ele>
        <time>2019-08-11T06:27:22.000Z</time>
      </trkpt>
      <trkpt lat="43.38602" lon="2.25574">
        <ele>745.4</ele>
        <time>2019-08-11T06:27:23.000Z</time>
      </trkpt>
      <trkpt lat="43.38604" lon="2.25575">
        <ele>745.4</ele>
        <time>2019-08-11T06:27:24.000Z</time>
      </trkpt>
      <trkpt lat="43.38605" lon="2.25576">
        <ele>745.4</ele>
        <time>2019-08-11T06:27:25.000Z</time>
      </trkpt>
      <trkpt lat="43.38607" lon="2.25577">
        <ele>745.3</ele>
        <time>2019-08-11T06:27:26.000Z</time>
      </trkpt>
      <trkpt lat="43.38609" lon="2.25578">
        <ele>745.3</ele>
        <time>2019-08-11T06:27:27.000Z</time>
      </trkpt>
      <trkpt lat="43.3861" lon="2.25579">
        <ele>745.3</ele>
        <time>2019-08-11T06:27:28.000Z</time>
      </trkpt>
      <trkpt lat="43.38612" lon="2.25579">
        <ele>745.3</ele>
        <time>2019-08-11T06:27:29.000Z</time>
      </trkpt>
      <trkpt lat="43.38613" lon="2.2558">
        <ele>745.2</ele>
        <time>2019-08-11T06:27:30.000Z</time>
      </trkpt>
      <trkpt lat="43.38615" lon="2.25581">
        <ele>745.2</ele>
        <time>2019-08-11T06:27:31.000Z</time>
      </trkpt>
      <trkpt lat="43.38616" lon="2.25582">
        <ele>745.2</ele>
        <time>2019-08-11T06:27:32.000Z</time>
      </trkpt>
      <trkpt lat="43.38617" lon="2.25582">
        <ele>745.2</ele>
        <time>2019-08-11T06:27:33.000Z</time>
      </trkpt>
      <trkpt lat="43.38619" lon="2.25583">
        <ele>745.1</ele>
        <time>2019-08-11T06:27:34.000Z</time>
      </trkpt>
      <trkpt lat="43.3862" lon="2.25584">
        <ele>745.1</ele>
        <time>2019-08-11T06:27:35.000Z</time>
      </trkpt>
      <trkpt lat="43.38622" lon="2.25584">
        <ele>745.1</ele>
        <time>2019-08-11T06:27:36.000Z</time>
      </trkpt>
      <trkpt lat="43.38624" lon="2.25585">
        <ele>745.1</ele>
        <time>2019-08-11T06:27:37.000Z</time>
      </trkpt>
      <trkpt lat="43.38625" lon="2.25586">
        <ele>745</ele>
        <time>2019-08-11T06:27:38.000Z</time>
      </trkpt>
      <trkpt lat="43.38627" lon="2.25586">
        <ele>745</ele>
        <time>2019-08-11T06:27:39.000Z</time>
      </trkpt>
      <trkpt lat="43.38629" lon="2.25587">
        <ele>745</ele>
        <time>2019-08-11T06:27:40.000Z</time>
      </trkpt>
      <trkpt lat="43.3863" lon="2.25588">
        <ele>744.9</ele>
        <time>2019-08-11T06:27:41.000Z</time>
      </trkpt>
      <trkpt lat="43.38632" lon="2.25588">
        <ele>744.9</ele>
        <time>2019-08-11T06:27:42.000Z</time>
      </trkpt>
      <trkpt lat="43.38634" lon="2.25589">
        <ele>744.9</ele>
        <time>2019-08-11T06:27:43.000Z</time>
      </trkpt>
      <trkpt lat="43.38636" lon="2.25589">
        <ele>744.8</ele>
        <time>2019-08-11T06:27:44.000Z</time>
      </trkpt>
      <trkpt lat="43.38638" lon="2.2559">
        <ele>744.8</ele>
        <time>2019-08-11T06:27:45.000Z</time>
      </trkpt>
      <trkpt lat="43.3864" lon="2.25591">
        <ele>744.8</ele>
        <time>2019-08-11T06:27:46.000Z</time>
      </trkpt>
      <trkpt lat="43.38641" lon="2.25591">
        <ele>744.8</ele>
        <time>2019-08-11T06:27:47.000Z</time>
      </trkpt>
      <trkpt lat="43.38642" lon="2.25591">
        <ele>744.8</ele>
        <time>2019-08-11T06:27:48.000Z</time>
      </trkpt>
      <trkpt lat="43.38643" lon="2.25592">
        <ele>744.7</ele>
        <time>2019-08-11T06:27:49.000Z</time>
      </trkpt>
      <trkpt lat="43.38644" lon="2.25592">
        <ele>744.7</ele>
        <time>2019-08-11T06:27:50.000Z</time>
      </trkpt>
      <trkpt lat="43.38644" lon="2.25592">
        <ele>744.7</ele>
        <time>2019-08-11T06:27:51.000Z</time>
      </trkpt>
      <trkpt lat="43.38644" lon="2.25592">
        <ele>744.7</ele>
        <time>2019-08-11T06:27:52.000Z</time>
      </trkpt>
      <trkpt lat="43.38644" lon="2.25592">
        <ele>744.7</ele>
        <time>2019-08-11T06:27:53.000Z</time>
      </trkpt>
      <trkpt lat="43.38644" lon="2.25592">
        <ele>744.7</ele>
        <time>2019-08-11T06:27:54.000Z</time>
      </trkpt>
      <trkpt lat="43.38644" lon="2.25592">
        <ele>744.7</ele>
        <time>2019-08-11T06:27:55.000Z</time>
      </trkpt>
      <trkpt lat="43.38645" lon="2.25592">
        <ele>744.7</ele>
        <time>2019-08-11T06:27:56.000Z</time>
      </trkpt>
      <trkpt lat="43.38645" lon="2.25592">
        <ele>744.7</ele>
        <time>2019-08-11T06:27:57.000Z</time>
      </trkpt>
      <trkpt lat="43.38645" lon="2.25592">
        <ele>744.7</ele>
        <time>2019-08-11T06:27:58.000Z</time>
      </trkpt>
      <trkpt lat="43.38645" lon="2.25592">
        <ele>744.7</ele>
        <time>2019-08-11T06:27:59.000Z</time>
      </trkpt>
      <trkpt lat="43.38646" lon="2.25591">
        <ele>744.7</ele>
        <time>2019-08-11T06:28:00.000Z</time>
      </trkpt>
      <trkpt lat="43.38646" lon="2.25591">
        <ele>744.7</ele>
        <time>2019-08-11T06:28:01.000Z</time>
      </trkpt>
      <trkpt lat="43.38646" lon="2.25591">
        <ele>744.7</ele>
        <time>2019-08-11T06:28:02.000Z</time>
      </trkpt>
      <trkpt lat="43.38646" lon="2.25591">
        <ele>744.7</ele>
        <time>2019-08-11T06:28:03.000Z</time>
      </trkpt>
      <trkpt lat="43.38646" lon="2.25591">
        <ele>744.7</ele>
        <time>2019-08-11T06:28:04.000Z</time>
      </trkpt>
      <trkpt lat="43.38646" lon="2.25591">
        <ele>744.7</ele>
        <time>2019-08-11T06:28:05.000Z</time>
      </trkpt>
      <trkpt lat="43.38646" lon="2.25591">
        <ele>744.7</ele>
        <time>2019-08-11T06:28:06.000Z</time>
      </trkpt>
      <trkpt lat="43.38646" lon="2.25591">
        <ele>744.7</ele>
        <time>2019-08-11T06:28:07.000Z</time>
      </trkpt>
      <trkpt lat="43.38647" lon="2.25591">
        <ele>744.7</ele>
        <time>2019-08-11T06:28:08.000Z</time>
      </trkpt>
      <trkpt lat="43.38647" lon="2.25591">
        <ele>744.7</ele>
        <time>2019-08-11T06:28:09.000Z</time>
      </trkpt>
      <trkpt lat="43.38648" lon="2.25591">
        <ele>744.6</ele>
        <time>2019-08-11T06:28:10.000Z</time>
      </trkpt>
      <trkpt lat="43.38649" lon="2.25591">
        <ele>744.6</ele>
        <time>2019-08-11T06:28:11.000Z</time>
      </trkpt>
      <trkpt lat="43.3865" lon="2.25591">
        <ele>744.6</ele>
        <time>2019-08-11T06:28:12.000Z</time>
      </trkpt>
      <trkpt lat="43.38651" lon="2.25591">
        <ele>744.6</ele>
        <time>2019-08-11T06:28:13.000Z</time>
      </trkpt>
      <trkpt lat="43.38652" lon="2.2559">
        <ele>744.5</ele>
        <time>2019-08-11T06:28:14.000Z</time>
      </trkpt>
      <trkpt lat="43.38653" lon="2.2559">
        <ele>744.5</ele>
        <time>2019-08-11T06:28:15.000Z</time>
      </trkpt>
      <trkpt lat="43.38655" lon="2.2559">
        <ele>744.5</ele>
        <time>2019-08-11T06:28:16.000Z</time>
      </trkpt>
      <trkpt lat="43.38657" lon="2.2559">
        <ele>744.4</ele>
        <time>2019-08-11T06:28:17.000Z</time>
      </trkpt>
      <trkpt lat="43.38658" lon="2.2559">
        <ele>744.4</ele>
        <time>2019-08-11T06:28:18.000Z</time>
      </trkpt>
      <trkpt lat="43.3866" lon="2.2559">
        <ele>744.4</ele>
        <time>2019-08-11T06:28:19.000Z</time>
      </trkpt>
      <trkpt lat="43.38662" lon="2.2559">
        <ele>744.4</ele>
        <time>2019-08-11T06:28:20.000Z</time>
      </trkpt>
      <trkpt lat="43.38663" lon="2.2559">
        <ele>744.3</ele>
        <time>2019-08-11T06:28:21.000Z</time>
      </trkpt>
      <trkpt lat="43.38665" lon="2.25591">
        <ele>744.3</ele>
        <time>2019-08-11T06:28:22.000Z</time>
      </trkpt>
      <trkpt lat="43.38666" lon="2.25591">
        <ele>744.3</ele>
        <time>2019-08-11T06:28:23.000Z</time>
      </trkpt>
      <trkpt lat="43.38668" lon="2.25591">
        <ele>744.3</ele>
        <time>2019-08-11T06:28:24.000Z</time>
      </trkpt>
      <trkpt lat="43.38669" lon="2.25592">
        <ele>744.4</ele>
        <time>2019-08-11T06:28:25.000Z</time>
      </trkpt>
      <trkpt lat="43.38671" lon="2.25592">
        <ele>744.5</ele>
        <time>2019-08-11T06:28:26.000Z</time>
      </trkpt>
      <trkpt lat="43.38672" lon="2.25592">
        <ele>744.6</ele>
        <time>2019-08-11T06:28:27.000Z</time>
      </trkpt>
      <trkpt lat="43.38674" lon="2.25593">
        <ele>744.7</ele>
        <time>2019-08-11T06:28:28.000Z</time>
      </trkpt>
      <trkpt lat="43.38675" lon="2.25593">
        <ele>744.7</ele>
        <time>2019-08-11T06:28:29.000Z</time>
      </trkpt>
      <trkpt lat="43.38676" lon="2.25593">
        <ele>744.8</ele>
        <time>2019-08-11T06:28:30.000Z</time>
      </trkpt>
      <trkpt lat="43.38678" lon="2.25594">
        <ele>744.9</ele>
        <time>2019-08-11T06:28:31.000Z</time>
      </trkpt>
      <trkpt lat="43.38679" lon="2.25594">
        <ele>745</ele>
        <time>2019-08-11T06:28:32.000Z</time>
      </trkpt>
      <trkpt lat="43.38681" lon="2.25595">
        <ele>745.1</ele>
        <time>2019-08-11T06:28:33.000Z</time>
      </trkpt>
      <trkpt lat="43.38682" lon="2.25595">
        <ele>745.2</ele>
        <time>2019-08-11T06:28:34.000Z</time>
      </trkpt>
      <trkpt lat="43.38684" lon="2.25595">
        <ele>745.2</ele>
        <time>2019-08-11T06:28:35.000Z</time>
      </trkpt>
      <trkpt lat="43.38685" lon="2.25596">
        <ele>745.3</ele>
        <time>2019-08-11T06:28:36.000Z</time>
      </trkpt>
      <trkpt lat="43.38687" lon="2.25596">
        <ele>745.4</ele>
        <time>2019-08-11T06:28:37.000Z</time>
      </trkpt>
      <trkpt lat="43.38689" lon="2.25596">
        <ele>745.5</ele>
        <time>2019-08-11T06:28:38.000Z</time>
      </trkpt>
      <trkpt lat="43.38691" lon="2.25597">
        <ele>745.7</ele>
        <time>2019-08-11T06:28:39.000Z</time>
      </trkpt>
      <trkpt lat="43.38693" lon="2.25597">
        <ele>745.8</ele>
        <time>2019-08-11T06:28:40.000Z</time>
      </trkpt>
      <trkpt lat="43.38696" lon="2.25597">
        <ele>745.9</ele>
        <time>2019-08-11T06:28:41.000Z</time>
      </trkpt>
      <trkpt lat="43.38698" lon="2.25597">
        <ele>746</ele>
        <time>2019-08-11T06:28:42.000Z</time>
      </trkpt>
      <trkpt lat="43.387" lon="2.25598">
        <ele>746.1</ele>
        <time>2019-08-11T06:28:43.000Z</time>
      </trkpt>
      <trkpt lat="43.38701" lon="2.25598">
        <ele>746.2</ele>
        <time>2019-08-11T06:28:44.000Z</time>
      </trkpt>
      <trkpt lat="43.38703" lon="2.25598">
        <ele>746.3</ele>
        <time>2019-08-11T06:28:45.000Z</time>
      </trkpt>
      <trkpt lat="43.38705" lon="2.25599">
        <ele>746.4</ele>
        <time>2019-08-11T06:28:46.000Z</time>
      </trkpt>
      <trkpt lat="43.38706" lon="2.25599">
        <ele>746.4</ele>
        <time>2019-08-11T06:28:47.000Z</time>
      </trkpt>
      <trkpt lat="43.38707" lon="2.256">
        <ele>746.5</ele>
        <time>2019-08-11T06:28:48.000Z</time>
      </trkpt>
      <trkpt lat="43.38709" lon="2.25601">
        <ele>746.6</ele>
        <time>2019-08-11T06:28:49.000Z</time>
      </trkpt>
      <trkpt lat="43.38711" lon="2.25602">
        <ele>746.8</ele>
        <time>2019-08-11T06:28:50.000Z</time>
      </trkpt>
      <trkpt lat="43.38713" lon="2.25603">
        <ele>746.9</ele>
        <time>2019-08-11T06:28:51.000Z</time>
      </trkpt>
      <trkpt lat="43.38715" lon="2.25604">
        <ele>747.1</ele>
        <time>2019-08-11T06:28:52.000Z</time>
      </trkpt>
      <trkpt lat="43.38717" lon="2.25605">
        <ele>747.2</ele>
        <time>2019-08-11T06:28:53.000Z</time>
      </trkpt>
      <trkpt lat="43.38719" lon="2.25607">
        <ele>747.4</ele>
        <time>2019-08-11T06:28:54.000Z</time>
      </trkpt>
      <trkpt lat="43.38721" lon="2.25608">
        <ele>747.5</ele>
        <time>2019-08-11T06:28:55.000Z</time>
      </trkpt>
      <trkpt lat="43.38723" lon="2.25609">
        <ele>747.6</ele>
        <time>2019-08-11T06:28:56.000Z</time>
      </trkpt>
      <trkpt lat="43.38725" lon="2.2561">
        <ele>747.7</ele>
        <time>2019-08-11T06:28:57.000Z</time>
      </trkpt>
      <trkpt lat="43.38727" lon="2.25611">
        <ele>747.9</ele>
        <time>2019-08-11T06:28:58.000Z</time>
      </trkpt>
      <trkpt lat="43.38729" lon="2.25612">
        <ele>748</ele>
        <time>2019-08-11T06:28:59.000Z</time>
      </trkpt>
      <trkpt lat="43.3873" lon="2.25612">
        <ele>748.1</ele>
        <time>2019-08-11T06:29:00.000Z</time>
      </trkpt>
      <trkpt lat="43.38732" lon="2.25613">
        <ele>748.2</ele>
        <time>2019-08-11T06:29:01.000Z</time>
      </trkpt>
      <trkpt lat="43.38734" lon="2.25614">
        <ele>748.3</ele>
        <time>2019-08-11T06:29:02.000Z</time>
      </trkpt>
      <trkpt lat="43.38735" lon="2.25615">
        <ele>748.4</ele>
        <time>2019-08-11T06:29:03.000Z</time>
      </trkpt>
      <trkpt lat="43.38737" lon="2.25615">
        <ele>748.5</ele>
        <time>2019-08-11T06:29:04.000Z</time>
      </trkpt>
      <trkpt lat="43.38739" lon="2.25616">
        <ele>748.6</ele>
        <time>2019-08-11T06:29:05.000Z</time>
      </trkpt>
      <trkpt lat="43.3874" lon="2.25617">
        <ele>748.7</ele>
        <time>2019-08-11T06:29:06.000Z</time>
      </trkpt>
      <trkpt lat="43.38742" lon="2.25617">
        <ele>748.8</ele>
        <time>2019-08-11T06:29:07.000Z</time>
      </trkpt>
      <trkpt lat="43.38744" lon="2.25618">
        <ele>748.9</ele>
        <time>2019-08-11T06:29:08.000Z</time>
      </trkpt>
      <trkpt lat="43.38745" lon="2.25619">
        <ele>749</ele>
        <time>2019-08-11T06:29:09.000Z</time>
      </trkpt>
      <trkpt lat="43.38747" lon="2.25619">
        <ele>749.1</ele>
        <time>2019-08-11T06:29:10.000Z</time>
      </trkpt>
      <trkpt lat="43.38749" lon="2.2562">
        <ele>749.2</ele>
        <time>2019-08-11T06:29:11.000Z</time>
      </trkpt>
      <trkpt lat="43.38751" lon="2.2562">
        <ele>749.4</ele>
        <time>2019-08-11T06:29:12.000Z</time>
      </trkpt>
      <trkpt lat="43.38752" lon="2.25621">
        <ele>749.5</ele>
        <time>2019-08-11T06:29:13.000Z</time>
      </trkpt>
      <trkpt lat="43.38754" lon="2.25621">
        <ele>749.7</ele>
        <time>2019-08-11T06:29:14.000Z</time>
      </trkpt>
      <trkpt lat="43.38756" lon="2.25622">
        <ele>749.8</ele>
        <time>2019-08-11T06:29:15.000Z</time>
      </trkpt>
      <trkpt lat="43.38758" lon="2.25623">
        <ele>750</ele>
        <time>2019-08-11T06:29:16.000Z</time>
      </trkpt>
      <trkpt lat="43.38759" lon="2.25624">
        <ele>750.1</ele>
        <time>2019-08-11T06:29:17.000Z</time>
      </trkpt>
      <trkpt lat="43.38761" lon="2.25624">
        <ele>750.3</ele>
        <time>2019-08-11T06:29:18.000Z</time>
      </trkpt>
      <trkpt lat="43.38763" lon="2.25625">
        <ele>750.4</ele>
        <time>2019-08-11T06:29:19.000Z</time>
      </trkpt>
      <trkpt lat="43.38765" lon="2.25626">
        <ele>750.6</ele>
        <time>2019-08-11T06:29:20.000Z</time>
      </trkpt>
      <trkpt lat="43.38767" lon="2.25627">
        <ele>750.8</ele>
        <time>2019-08-11T06:29:21.000Z</time>
      </trkpt>
      <trkpt lat="43.38769" lon="2.25628">
        <ele>750.9</ele>
        <time>2019-08-11T06:29:22.000Z</time>
      </trkpt>
      <trkpt lat="43.38771" lon="2.25629">
        <ele>751.1</ele>
        <time>2019-08-11T06:29:23.000Z</time>
      </trkpt>
      <trkpt lat="43.38773" lon="2.25631">
        <ele>751.3</ele>
        <time>2019-08-11T06:29:24.000Z</time>
      </trkpt>
      <trkpt lat="43.38774" lon="2.25632">
        <ele>751.4</ele>
        <time>2019-08-11T06:29:25.000Z</time>
      </trkpt>
      <trkpt lat="43.38776" lon="2.25633">
        <ele>751.6</ele>
        <time>2019-08-11T06:29:26.000Z</time>
      </trkpt>
      <trkpt lat="43.38778" lon="2.25634">
        <ele>751.7</ele>
        <time>2019-08-11T06:29:27.000Z</time>
      </trkpt>
      <trkpt lat="43.38779" lon="2.25634">
        <ele>751.9</ele>
        <time>2019-08-11T06:29:28.000Z</time>
      </trkpt>
      <trkpt lat="43.38781" lon="2.25635">
        <ele>752</ele>
        <time>2019-08-11T06:29:29.000Z</time>
      </trkpt>
      <trkpt lat="43.38782" lon="2.25636">
        <ele>752.1</ele>
        <time>2019-08-11T06:29:30.000Z</time>
      </trkpt>
      <trkpt lat="43.38784" lon="2.25637">
        <ele>752.2</ele>
        <time>2019-08-11T06:29:31.000Z</time>
      </trkpt>
      <trkpt lat="43.38785" lon="2.25637">
        <ele>752.4</ele>
        <time>2019-08-11T06:29:32.000Z</time>
      </trkpt>
      <trkpt lat="43.38787" lon="2.25638">
        <ele>752.5</ele>
        <time>2019-08-11T06:29:33.000Z</time>
      </trkpt>
      <trkpt lat="43.38789" lon="2.25639">
        <ele>752.6</ele>
        <time>2019-08-11T06:29:34.000Z</time>
      </trkpt>
      <trkpt lat="43.38791" lon="2.2564">
        <ele>752.8</ele>
        <time>2019-08-11T06:29:35.000Z</time>
      </trkpt>
      <trkpt lat="43.38792" lon="2.25641">
        <ele>752.9</ele>
        <time>2019-08-11T06:29:36.000Z</time>
      </trkpt>
      <trkpt lat="43.38794" lon="2.25642">
        <ele>753.1</ele>
        <time>2019-08-11T06:29:37.000Z</time>
      </trkpt>
      <trkpt lat="43.38797" lon="2.25644">
        <ele>753.3</ele>
        <time>2019-08-11T06:29:38.000Z</time>
      </trkpt>
      <trkpt lat="43.38799" lon="2.25645">
        <ele>753.4</ele>
        <time>2019-08-11T06:29:39.000Z</time>
      </trkpt>
      <trkpt lat="43.38801" lon="2.25646">
        <ele>753.6</ele>
        <time>2019-08-11T06:29:40.000Z</time>
      </trkpt>
      <trkpt lat="43.38803" lon="2.25647">
        <ele>753.8</ele>
        <time>2019-08-11T06:29:41.000Z</time>
      </trkpt>
      <trkpt lat="43.38805" lon="2.25648">
        <ele>753.9</ele>
        <time>2019-08-11T06:29:42.000Z</time>
      </trkpt>
      <trkpt lat="43.38808" lon="2.25649">
        <ele>754.1</ele>
        <time>2019-08-11T06:29:43.000Z</time>
      </trkpt>
      <trkpt lat="43.3881" lon="2.2565">
        <ele>754.3</ele>
        <time>2019-08-11T06:29:44.000Z</time>
      </trkpt>
      <trkpt lat="43.38812" lon="2.2565">
        <ele>754.4</ele>
        <time>2019-08-11T06:29:45.000Z</time>
      </trkpt>
      <trkpt lat="43.38814" lon="2.25651">
        <ele>754.6</ele>
        <time>2019-08-11T06:29:46.000Z</time>
      </trkpt>
      <trkpt lat="43.38816" lon="2.25652">
        <ele>754.7</ele>
        <time>2019-08-11T06:29:47.000Z</time>
      </trkpt>
      <trkpt lat="43.38819" lon="2.25653">
        <ele>754.9</ele>
        <time>2019-08-11T06:29:48.000Z</time>
      </trkpt>
      <trkpt lat="43.38821" lon="2.25654">
        <ele>755</ele>
        <time>2019-08-11T06:29:49.000Z</time>
      </trkpt>
      <trkpt lat="43.38822" lon="2.25655">
        <ele>755.2</ele>
        <time>2019-08-11T06:29:50.000Z</time>
      </trkpt>
      <trkpt lat="43.38824" lon="2.25657">
        <ele>755.3</ele>
        <time>2019-08-11T06:29:51.000Z</time>
      </trkpt>
      <trkpt lat="43.38826" lon="2.25658">
        <ele>755.4</ele>
        <time>2019-08-11T06:29:52.000Z</time>
      </trkpt>
      <trkpt lat="43.38828" lon="2.25659">
        <ele>755.6</ele>
        <time>2019-08-11T06:29:53.000Z</time>
      </trkpt>
      <trkpt lat="43.3883" lon="2.2566">
        <ele>755.7</ele>
        <time>2019-08-11T06:29:54.000Z</time>
      </trkpt>
      <trkpt lat="43.38831" lon="2.25661">
        <ele>755.8</ele>
        <time>2019-08-11T06:29:55.000Z</time>
      </trkpt>
      <trkpt lat="43.38833" lon="2.25662">
        <ele>755.9</ele>
        <time>2019-08-11T06:29:56.000Z</time>
      </trkpt>
      <trkpt lat="43.38835" lon="2.25663">
        <ele>756.1</ele>
        <time>2019-08-11T06:29:57.000Z</time>
      </trkpt>
      <trkpt lat="43.38837" lon="2.25664">
        <ele>756.3</ele>
        <time>2019-08-11T06:29:58.000Z</time>
      </trkpt>
      <trkpt lat="43.38839" lon="2.25665">
        <ele>756.5</ele>
        <time>2019-08-11T06:29:59.000Z</time>
      </trkpt>
      <trkpt lat="43.38841" lon="2.25666">
        <ele>756.6</ele>
        <time>2019-08-11T06:30:00.000Z</time>
      </trkpt>
      <trkpt lat="43.38843" lon="2.25667">
        <ele>756.8</ele>
        <time>2019-08-11T06:30:01.000Z</time>
      </trkpt>
      <trkpt lat="43.38845" lon="2.25668">
        <ele>757.1</ele>
        <time>2019-08-11T06:30:02.000Z</time>
      </trkpt>
      <trkpt lat="43.38848" lon="2.2567">
        <ele>757.3</ele>
        <time>2019-08-11T06:30:03.000Z</time>
      </trkpt>
      <trkpt lat="43.3885" lon="2.25671">
        <ele>757.5</ele>
        <time>2019-08-11T06:30:04.000Z</time>
      </trkpt>
      <trkpt lat="43.38852" lon="2.25672">
        <ele>757.6</ele>
        <time>2019-08-11T06:30:05.000Z</time>
      </trkpt>
      <trkpt lat="43.38853" lon="2.25672">
        <ele>757.8</ele>
        <time>2019-08-11T06:30:06.000Z</time>
      </trkpt>
      <trkpt lat="43.38855" lon="2.25673">
        <ele>758</ele>
        <time>2019-08-11T06:30:07.000Z</time>
      </trkpt>
      <trkpt lat="43.38857" lon="2.25674">
        <ele>758.2</ele>
        <time>2019-08-11T06:30:08.000Z</time>
      </trkpt>
      <trkpt lat="43.38859" lon="2.25674">
        <ele>758.3</ele>
        <time>2019-08-11T06:30:09.000Z</time>
      </trkpt>
      <trkpt lat="43.38861" lon="2.25675">
        <ele>758.5</ele>
        <time>2019-08-11T06:30:10.000Z</time>
      </trkpt>
      <trkpt lat="43.38862" lon="2.25675">
        <ele>758.6</ele>
        <time>2019-08-11T06:30:11.000Z</time>
      </trkpt>
      <trkpt lat="43.38864" lon="2.25676">
        <ele>758.8</ele>
        <time>2019-08-11T06:30:12.000Z</time>
      </trkpt>
      <trkpt lat="43.38866" lon="2.25676">
        <ele>759</ele>
        <time>2019-08-11T06:30:13.000Z</time>
      </trkpt>
      <trkpt lat="43.38868" lon="2.25677">
        <ele>759.1</ele>
        <time>2019-08-11T06:30:14.000Z</time>
      </trkpt>
      <trkpt lat="43.38869" lon="2.25677">
        <ele>759.3</ele>
        <time>2019-08-11T06:30:15.000Z</time>
      </trkpt>
      <trkpt lat="43.38871" lon="2.25678">
        <ele>759.4</ele>
        <time>2019-08-11T06:30:16.000Z</time>
      </trkpt>
      <trkpt lat="43.38873" lon="2.25678">
        <ele>759.6</ele>
        <time>2019-08-11T06:30:17.000Z</time>
      </trkpt>
      <trkpt lat="43.38875" lon="2.25679">
        <ele>759.8</ele>
        <time>2019-08-11T06:30:18.000Z</time>
      </trkpt>
      <trkpt lat="43.38877" lon="2.25679">
        <ele>760</ele>
        <time>2019-08-11T06:30:19.000Z</time>
      </trkpt>
      <trkpt lat="43.38879" lon="2.2568">
        <ele>760.1</ele>
        <time>2019-08-11T06:30:20.000Z</time>
      </trkpt>
      <trkpt lat="43.38881" lon="2.2568">
        <ele>760.3</ele>
        <time>2019-08-11T06:30:21.000Z</time>
      </trkpt>
      <trkpt lat="43.38883" lon="2.25681">
        <ele>760.5</ele>
        <time>2019-08-11T06:30:22.000Z</time>
      </trkpt>
      <trkpt lat="43.38885" lon="2.25682">
        <ele>760.7</ele>
        <time>2019-08-11T06:30:23.000Z</time>
      </trkpt>
      <trkpt lat="43.38887" lon="2.25682">
        <ele>760.9</ele>
        <time>2019-08-11T06:30:24.000Z</time>
      </trkpt>
      <trkpt lat="43.38889" lon="2.25683">
        <ele>761</ele>
        <time>2019-08-11T06:30:25.000Z</time>
      </trkpt>
      <trkpt lat="43.38891" lon="2.25684">
        <ele>761.2</ele>
        <time>2019-08-11T06:30:26.000Z</time>
      </trkpt>
      <trkpt lat="43.38893" lon="2.25684">
        <ele>761.4</ele>
        <time>2019-08-11T06:30:27.000Z</time>
      </trkpt>
      <trkpt lat="43.38895" lon="2.25685">
        <ele>761.6</ele>
        <time>2019-08-11T06:30:28.000Z</time>
      </trkpt>
      <trkpt lat="43.38897" lon="2.25686">
        <ele>761.8</ele>
        <time>2019-08-11T06:30:29.000Z</time>
      </trkpt>
      <trkpt lat="43.38899" lon="2.25687">
        <ele>762</ele>
        <time>2019-08-11T06:30:30.000Z</time>
      </trkpt>
      <trkpt lat="43.38901" lon="2.25688">
        <ele>762.2</ele>
        <time>2019-08-11T06:30:31.000Z</time>
      </trkpt>
      <trkpt lat="43.38903" lon="2.25689">
        <ele>762.4</ele>
        <time>2019-08-11T06:30:32.000Z</time>
      </trkpt>
      <trkpt lat="43.38905" lon="2.2569">
        <ele>762.6</ele>
        <time>2019-08-11T06:30:33.000Z</time>
      </trkpt>
      <trkpt lat="43.38907" lon="2.25691">
        <ele>762.8</ele>
        <time>2019-08-11T06:30:34.000Z</time>
      </trkpt>
      <trkpt lat="43.3891" lon="2.25692">
        <ele>763</ele>
        <time>2019-08-11T06:30:35.000Z</time>
      </trkpt>
      <trkpt lat="43.38912" lon="2.25693">
        <ele>763.2</ele>
        <time>2019-08-11T06:30:36.000Z</time>
      </trkpt>
      <trkpt lat="43.38914" lon="2.25694">
        <ele>763.4</ele>
        <time>2019-08-11T06:30:37.000Z</time>
      </trkpt>
      <trkpt lat="43.38916" lon="2.25696">
        <ele>763.7</ele>
        <time>2019-08-11T06:30:38.000Z</time>
      </trkpt>
      <trkpt lat="43.38919" lon="2.25697">
        <ele>763.9</ele>
        <time>2019-08-11T06:30:39.000Z</time>
      </trkpt>
      <trkpt lat="43.38921" lon="2.25698">
        <ele>764</ele>
        <time>2019-08-11T06:30:40.000Z</time>
      </trkpt>
      <trkpt lat="43.38923" lon="2.25699">
        <ele>764.2</ele>
        <time>2019-08-11T06:30:41.000Z</time>
      </trkpt>
      <trkpt lat="43.38926" lon="2.257">
        <ele>764.4</ele>
        <time>2019-08-11T06:30:42.000Z</time>
      </trkpt>
      <trkpt lat="43.38928" lon="2.25701">
        <ele>764.6</ele>
        <time>2019-08-11T06:30:43.000Z</time>
      </trkpt>
      <trkpt lat="43.3893" lon="2.25702">
        <ele>764.7</ele>
        <time>2019-08-11T06:30:44.000Z</time>
      </trkpt>
      <trkpt lat="43.38931" lon="2.25703">
        <ele>764.8</ele>
        <time>2019-08-11T06:30:45.000Z</time>
      </trkpt>
      <trkpt lat="43.38936" lon="2.25704">
        <ele>765.2</ele>
        <time>2019-08-11T06:30:46.000Z</time>
      </trkpt>
      <trkpt lat="43.38942" lon="2.25706">
        <ele>765.6</ele>
        <time>2019-08-11T06:30:47.000Z</time>
      </trkpt>
      <trkpt lat="43.38946" lon="2.25707">
        <ele>765.9</ele>
        <time>2019-08-11T06:30:48.000Z</time>
      </trkpt>
      <trkpt lat="43.38947" lon="2.25708">
        <ele>766</ele>
        <time>2019-08-11T06:30:49.000Z</time>
      </trkpt>
      <trkpt lat="43.38949" lon="2.2571">
        <ele>766.2</ele>
        <time>2019-08-11T06:30:50.000Z</time>
      </trkpt>
      <trkpt lat="43.38951" lon="2.25711">
        <ele>766.3</ele>
        <time>2019-08-11T06:30:51.000Z</time>
      </trkpt>
      <trkpt lat="43.38953" lon="2.25712">
        <ele>766.5</ele>
        <time>2019-08-11T06:30:52.000Z</time>
      </trkpt>
      <trkpt lat="43.38955" lon="2.25713">
        <ele>766.7</ele>
        <time>2019-08-11T06:30:53.000Z</time>
      </trkpt>
      <trkpt lat="43.38957" lon="2.25715">
        <ele>766.8</ele>
        <time>2019-08-11T06:30:54.000Z</time>
      </trkpt>
      <trkpt lat="43.38959" lon="2.25716">
        <ele>767</ele>
        <time>2019-08-11T06:30:55.000Z</time>
      </trkpt>
      <trkpt lat="43.38961" lon="2.25717">
        <ele>767.2</ele>
        <time>2019-08-11T06:30:56.000Z</time>
      </trkpt>
      <trkpt lat="43.38963" lon="2.25719">
        <ele>767.4</ele>
        <time>2019-08-11T06:30:57.000Z</time>
      </trkpt>
      <trkpt lat="43.38965" lon="2.2572">
        <ele>767.5</ele>
        <time>2019-08-11T06:30:58.000Z</time>
      </trkpt>
      <trkpt lat="43.38966" lon="2.25722">
        <ele>767.7</ele>
        <time>2019-08-11T06:30:59.000Z</time>
      </trkpt>
      <trkpt lat="43.38968" lon="2.25723">
        <ele>767.8</ele>
        <time>2019-08-11T06:31:00.000Z</time>
      </trkpt>
      <trkpt lat="43.3897" lon="2.25724">
        <ele>768</ele>
        <time>2019-08-11T06:31:01.000Z</time>
      </trkpt>
      <trkpt lat="43.38971" lon="2.25725">
        <ele>768.1</ele>
        <time>2019-08-11T06:31:02.000Z</time>
      </trkpt>
      <trkpt lat="43.38973" lon="2.25726">
        <ele>768.2</ele>
        <time>2019-08-11T06:31:03.000Z</time>
      </trkpt>
      <trkpt lat="43.38974" lon="2.25726">
        <ele>768.4</ele>
        <time>2019-08-11T06:31:04.000Z</time>
      </trkpt>
      <trkpt lat="43.38975" lon="2.25727">
        <ele>768.5</ele>
        <time>2019-08-11T06:31:05.000Z</time>
      </trkpt>
      <trkpt lat="43.38977" lon="2.25728">
        <ele>768.6</ele>
        <time>2019-08-11T06:31:06.000Z</time>
      </trkpt>
      <trkpt lat="43.38978" lon="2.25728">
        <ele>768.7</ele>
        <time>2019-08-11T06:31:07.000Z</time>
      </trkpt>
      <trkpt lat="43.38981" lon="2.25729">
        <ele>768.9</ele>
        <time>2019-08-11T06:31:08.000Z</time>
      </trkpt>
      <trkpt lat="43.38985" lon="2.25731">
        <ele>769.3</ele>
        <time>2019-08-11T06:31:09.000Z</time>
      </trkpt>
      <trkpt lat="43.3899" lon="2.25733">
        <ele>769.7</ele>
        <time>2019-08-11T06:31:10.000Z</time>
      </trkpt>
      <trkpt lat="43.38993" lon="2.25734">
        <ele>769.9</ele>
        <time>2019-08-11T06:31:11.000Z</time>
      </trkpt>
      <trkpt lat="43.38995" lon="2.25735">
        <ele>770.1</ele>
        <time>2019-08-11T06:31:12.000Z</time>
      </trkpt>
      <trkpt lat="43.38997" lon="2.25736">
        <ele>770.3</ele>
        <time>2019-08-11T06:31:13.000Z</time>
      </trkpt>
      <trkpt lat="43.38999" lon="2.25737">
        <ele>770.4</ele>
        <time>2019-08-11T06:31:14.000Z</time>
      </trkpt>
      <trkpt lat="43.39001" lon="2.25738">
        <ele>770.6</ele>
        <time>2019-08-11T06:31:15.000Z</time>
      </trkpt>
      <trkpt lat="43.39003" lon="2.25739">
        <ele>770.9</ele>
        <time>2019-08-11T06:31:16.000Z</time>
      </trkpt>
      <trkpt lat="43.39005" lon="2.2574">
        <ele>771.1</ele>
        <time>2019-08-11T06:31:17.000Z</time>
      </trkpt>
      <trkpt lat="43.39008" lon="2.25741">
        <ele>771.4</ele>
        <time>2019-08-11T06:31:18.000Z</time>
      </trkpt>
      <trkpt lat="43.3901" lon="2.25742">
        <ele>771.6</ele>
        <time>2019-08-11T06:31:19.000Z</time>
      </trkpt>
      <trkpt lat="43.39012" lon="2.25743">
        <ele>771.8</ele>
        <time>2019-08-11T06:31:20.000Z</time>
      </trkpt>
      <trkpt lat="43.39013" lon="2.25744">
        <ele>772</ele>
        <time>2019-08-11T06:31:21.000Z</time>
      </trkpt>
      <trkpt lat="43.39014" lon="2.25744">
        <ele>772.1</ele>
        <time>2019-08-11T06:31:22.000Z</time>
      </trkpt>
      <trkpt lat="43.39015" lon="2.25745">
        <ele>772.3</ele>
        <time>2019-08-11T06:31:23.000Z</time>
      </trkpt>
      <trkpt lat="43.39016" lon="2.25746">
        <ele>772.4</ele>
        <time>2019-08-11T06:31:24.000Z</time>
      </trkpt>
      <trkpt lat="43.39017" lon="2.25747">
        <ele>772.5</ele>
        <time>2019-08-11T06:31:25.000Z</time>
      </trkpt>
      <trkpt lat="43.39018" lon="2.25747">
        <ele>772.6</ele>
        <time>2019-08-11T06:31:26.000Z</time>
      </trkpt>
      <trkpt lat="43.39019" lon="2.25748">
        <ele>772.8</ele>
        <time>2019-08-11T06:31:27.000Z</time>
      </trkpt>
      <trkpt lat="43.3902" lon="2.25749">
        <ele>772.9</ele>
        <time>2019-08-11T06:31:28.000Z</time>
      </trkpt>
      <trkpt lat="43.39022" lon="2.2575">
        <ele>773.1</ele>
        <time>2019-08-11T06:31:29.000Z</time>
      </trkpt>
      <trkpt lat="43.39023" lon="2.25751">
        <ele>773.2</ele>
        <time>2019-08-11T06:31:30.000Z</time>
      </trkpt>
      <trkpt lat="43.39024" lon="2.25752">
        <ele>773.3</ele>
        <time>2019-08-11T06:31:31.000Z</time>
      </trkpt>
      <trkpt lat="43.39026" lon="2.25753">
        <ele>773.5</ele>
        <time>2019-08-11T06:31:32.000Z</time>
      </trkpt>
      <trkpt lat="43.39027" lon="2.25754">
        <ele>773.6</ele>
        <time>2019-08-11T06:31:33.000Z</time>
      </trkpt>
      <trkpt lat="43.39029" lon="2.25755">
        <ele>773.8</ele>
        <time>2019-08-11T06:31:34.000Z</time>
      </trkpt>
      <trkpt lat="43.39031" lon="2.25756">
        <ele>774</ele>
        <time>2019-08-11T06:31:35.000Z</time>
      </trkpt>
      <trkpt lat="43.39032" lon="2.25756">
        <ele>774.1</ele>
        <time>2019-08-11T06:31:36.000Z</time>
      </trkpt>
      <trkpt lat="43.39034" lon="2.25757">
        <ele>774.3</ele>
        <time>2019-08-11T06:31:37.000Z</time>
      </trkpt>
      <trkpt lat="43.39036" lon="2.25758">
        <ele>774.5</ele>
        <time>2019-08-11T06:31:38.000Z</time>
      </trkpt>
      <trkpt lat="43.39037" lon="2.25759">
        <ele>774.6</ele>
        <time>2019-08-11T06:31:39.000Z</time>
      </trkpt>
      <trkpt lat="43.39039" lon="2.2576">
        <ele>774.8</ele>
        <time>2019-08-11T06:31:40.000Z</time>
      </trkpt>
      <trkpt lat="43.3904" lon="2.25761">
        <ele>774.9</ele>
        <time>2019-08-11T06:31:41.000Z</time>
      </trkpt>
      <trkpt lat="43.39042" lon="2.25762">
        <ele>775.1</ele>
        <time>2019-08-11T06:31:42.000Z</time>
      </trkpt>
      <trkpt lat="43.39043" lon="2.25762">
        <ele>775.2</ele>
        <time>2019-08-11T06:31:43.000Z</time>
      </trkpt>
      <trkpt lat="43.39044" lon="2.25763">
        <ele>775.3</ele>
        <time>2019-08-11T06:31:44.000Z</time>
      </trkpt>
      <trkpt lat="43.39046" lon="2.25764">
        <ele>775.5</ele>
        <time>2019-08-11T06:31:45.000Z</time>
      </trkpt>
      <trkpt lat="43.39047" lon="2.25764">
        <ele>775.6</ele>
        <time>2019-08-11T06:31:46.000Z</time>
      </trkpt>
      <trkpt lat="43.39048" lon="2.25765">
        <ele>775.7</ele>
        <time>2019-08-11T06:31:47.000Z</time>
      </trkpt>
      <trkpt lat="43.39049" lon="2.25765">
        <ele>775.8</ele>
        <time>2019-08-11T06:31:48.000Z</time>
      </trkpt>
      <trkpt lat="43.3905" lon="2.25766">
        <ele>775.9</ele>
        <time>2019-08-11T06:31:49.000Z</time>
      </trkpt>
      <trkpt lat="43.39051" lon="2.25767">
        <ele>776</ele>
        <time>2019-08-11T06:31:50.000Z</time>
      </trkpt>
      <trkpt lat="43.39052" lon="2.25767">
        <ele>776.2</ele>
        <time>2019-08-11T06:31:51.000Z</time>
      </trkpt>
      <trkpt lat="43.39053" lon="2.25768">
        <ele>776.3</ele>
        <time>2019-08-11T06:31:52.000Z</time>
      </trkpt>
      <trkpt lat="43.39054" lon="2.25769">
        <ele>776.3</ele>
        <time>2019-08-11T06:31:53.000Z</time>
      </trkpt>
      <trkpt lat="43.39055" lon="2.25769">
        <ele>776.4</ele>
        <time>2019-08-11T06:31:54.000Z</time>
      </trkpt>
      <trkpt lat="43.39055" lon="2.25769">
        <ele>776.5</ele>
        <time>2019-08-11T06:31:55.000Z</time>
      </trkpt>
      <trkpt lat="43.39056" lon="2.2577">
        <ele>776.5</ele>
        <time>2019-08-11T06:31:56.000Z</time>
      </trkpt>
      <trkpt lat="43.39056" lon="2.2577">
        <ele>776.5</ele>
        <time>2019-08-11T06:31:57.000Z</time>
      </trkpt>
      <trkpt lat="43.39056" lon="2.2577">
        <ele>776.6</ele>
        <time>2019-08-11T06:31:58.000Z</time>
      </trkpt>
      <trkpt lat="43.39056" lon="2.2577">
        <ele>776.6</ele>
        <time>2019-08-11T06:31:59.000Z</time>
      </trkpt>
      <trkpt lat="43.39056" lon="2.2577">
        <ele>776.6</ele>
        <time>2019-08-11T06:32:00.000Z</time>
      </trkpt>
      <trkpt lat="43.39056" lon="2.2577">
        <ele>776.6</ele>
        <time>2019-08-11T06:32:01.000Z</time>
      </trkpt>
      <trkpt lat="43.39056" lon="2.2577">
        <ele>776.6</ele>
        <time>2019-08-11T06:32:02.000Z</time>
      </trkpt>
      <trkpt lat="43.39056" lon="2.2577">
        <ele>776.6</ele>
        <time>2019-08-11T06:32:03.000Z</time>
      </trkpt>
      <trkpt lat="43.39056" lon="2.2577">
        <ele>776.6</ele>
        <time>2019-08-11T06:32:04.000Z</time>
      </trkpt>
      <trkpt lat="43.39056" lon="2.2577">
        <ele>776.6</ele>
        <time>2019-08-11T06:32:05.000Z</time>
      </trkpt>
      <trkpt lat="43.39057" lon="2.2577">
        <ele>776.6</ele>
        <time>2019-08-11T06:32:06.000Z</time>
      </trkpt>
      <trkpt lat="43.39057" lon="2.2577">
        <ele>776.6</ele>
        <time>2019-08-11T06:32:07.000Z</time>
      </trkpt>
      <trkpt lat="43.39057" lon="2.2577">
        <ele>776.6</ele>
        <time>2019-08-11T06:32:08.000Z</time>
      </trkpt>
      <trkpt lat="43.39057" lon="2.2577">
        <ele>776.6</ele>
        <time>2019-08-11T06:32:09.000Z</time>
      </trkpt>
      <trkpt lat="43.39057" lon="2.2577">
        <ele>776.6</ele>
        <time>2019-08-11T06:32:10.000Z</time>
      </trkpt>
      <trkpt lat="43.39057" lon="2.2577">
        <ele>776.6</ele>
        <time>2019-08-11T06:32:11.000Z</time>
      </trkpt>
      <trkpt lat="43.39057" lon="2.2577">
        <ele>776.7</ele>
        <time>2019-08-11T06:32:12.000Z</time>
      </trkpt>
      <trkpt lat="43.3906" lon="2.2577">
        <ele>776.9</ele>
        <time>2019-08-11T06:32:13.000Z</time>
      </trkpt>
      <trkpt lat="43.39063" lon="2.25771">
        <ele>777.3</ele>
        <time>2019-08-11T06:32:14.000Z</time>
      </trkpt>
      <trkpt lat="43.39065" lon="2.25771">
        <ele>777.5</ele>
        <time>2019-08-11T06:32:15.000Z</time>
      </trkpt>
      <trkpt lat="43.39066" lon="2.25771">
        <ele>777.5</ele>
        <time>2019-08-11T06:32:16.000Z</time>
      </trkpt>
      <trkpt lat="43.39066" lon="2.25771">
        <ele>777.5</ele>
        <time>2019-08-11T06:32:17.000Z</time>
      </trkpt>
      <trkpt lat="43.39066" lon="2.25771">
        <ele>777.5</ele>
        <time>2019-08-11T06:32:18.000Z</time>
      </trkpt>
      <trkpt lat="43.39066" lon="2.25771">
        <ele>777.5</ele>
        <time>2019-08-11T06:32:19.000Z</time>
      </trkpt>
      <trkpt lat="43.39066" lon="2.25771">
        <ele>777.6</ele>
        <time>2019-08-11T06:32:20.000Z</time>
      </trkpt>
      <trkpt lat="43.39066" lon="2.25771">
        <ele>777.6</ele>
        <time>2019-08-11T06:32:21.000Z</time>
      </trkpt>
      <trkpt lat="43.39066" lon="2.25771">
        <ele>777.6</ele>
        <time>2019-08-11T06:32:22.000Z</time>
      </trkpt>
      <trkpt lat="43.39066" lon="2.25771">
        <ele>777.6</ele>
        <time>2019-08-11T06:32:23.000Z</time>
      </trkpt>
      <trkpt lat="43.39066" lon="2.25771">
        <ele>777.6</ele>
        <time>2019-08-11T06:32:24.000Z</time>
      </trkpt>
      <trkpt lat="43.39066" lon="2.25771">
        <ele>777.6</ele>
        <time>2019-08-11T06:32:25.000Z</time>
      </trkpt>
      <trkpt lat="43.39066" lon="2.25771">
        <ele>777.6</ele>
        <time>2019-08-11T06:32:26.000Z</time>
      </trkpt>
      <trkpt lat="43.39066" lon="2.25771">
        <ele>777.6</ele>
        <time>2019-08-11T06:32:27.000Z</time>
      </trkpt>
      <trkpt lat="43.39066" lon="2.25771">
        <ele>777.6</ele>
        <time>2019-08-11T06:32:28.000Z</time>
      </trkpt>
      <trkpt lat="43.39066" lon="2.25771">
        <ele>777.6</ele>
        <time>2019-08-11T06:32:29.000Z</time>
      </trkpt>
      <trkpt lat="43.39066" lon="2.25771">
        <ele>777.6</ele>
        <time>2019-08-11T06:32:30.000Z</time>
      </trkpt>
      <trkpt lat="43.39066" lon="2.25771">
        <ele>777.6</ele>
        <time>2019-08-11T06:32:31.000Z</time>
      </trkpt>
      <trkpt lat="43.39066" lon="2.25771">
        <ele>777.6</ele>
        <time>2019-08-11T06:32:32.000Z</time>
      </trkpt>
      <trkpt lat="43.39066" lon="2.25771">
        <ele>777.6</ele>
        <time>2019-08-11T06:32:33.000Z</time>
      </trkpt>
      <trkpt lat="43.39066" lon="2.25771">
        <ele>777.6</ele>
        <time>2019-08-11T06:32:34.000Z</time>
      </trkpt>
      <trkpt lat="43.39066" lon="2.25771">
        <ele>777.6</ele>
        <time>2019-08-11T06:32:35.000Z</time>
      </trkpt>
      <trkpt lat="43.39066" lon="2.25771">
        <ele>777.6</ele>
        <time>2019-08-11T06:32:36.000Z</time>
      </trkpt>
      <trkpt lat="43.39066" lon="2.25771">
        <ele>777.6</ele>
        <time>2019-08-11T06:32:37.000Z</time>
      </trkpt>
      <trkpt lat="43.39066" lon="2.25771">
        <ele>777.6</ele>
        <time>2019-08-11T06:32:38.000Z</time>
      </trkpt>
      <trkpt lat="43.39066" lon="2.25771">
        <ele>777.6</ele>
        <time>2019-08-11T06:32:39.000Z</time>
      </trkpt>
      <trkpt lat="43.39066" lon="2.25771">
        <ele>777.6</ele>
        <time>2019-08-11T06:32:40.000Z</time>
      </trkpt>
      <trkpt lat="43.39066" lon="2.25771">
        <ele>777.6</ele>
        <time>2019-08-11T06:32:41.000Z</time>
      </trkpt>
      <trkpt lat="43.39066" lon="2.25771">
        <ele>777.6</ele>
        <time>2019-08-11T06:32:42.000Z</time>
      </trkpt>
      <trkpt lat="43.39066" lon="2.25771">
        <ele>777.6</ele>
        <time>2019-08-11T06:32:43.000Z</time>
      </trkpt>
      <trkpt lat="43.39066" lon="2.25771">
        <ele>777.6</ele>
        <time>2019-08-11T06:32:44.000Z</time>
      </trkpt>
      <trkpt lat="43.39066" lon="2.25771">
        <ele>777.6</ele>
        <time>2019-08-11T06:32:45.000Z</time>
      </trkpt>
      <trkpt lat="43.39066" lon="2.25771">
        <ele>777.6</ele>
        <time>2019-08-11T06:32:46.000Z</time>
      </trkpt>
      <trkpt lat="43.39066" lon="2.25771">
        <ele>777.6</ele>
        <time>2019-08-11T06:32:47.000Z</time>
      </trkpt>
      <trkpt lat="43.39066" lon="2.25771">
        <ele>777.6</ele>
        <time>2019-08-11T06:32:48.000Z</time>
      </trkpt>
      <trkpt lat="43.39066" lon="2.25771">
        <ele>777.6</ele>
        <time>2019-08-11T06:32:49.000Z</time>
      </trkpt>
      <trkpt lat="43.39066" lon="2.25771">
        <ele>777.6</ele>
        <time>2019-08-11T06:32:50.000Z</time>
      </trkpt>
      <trkpt lat="43.39066" lon="2.25771">
        <ele>777.6</ele>
        <time>2019-08-11T06:32:51.000Z</time>
      </trkpt>
      <trkpt lat="43.39066" lon="2.25771">
        <ele>777.6</ele>
        <time>2019-08-11T06:32:52.000Z</time>
      </trkpt>
      <trkpt lat="43.39066" lon="2.25771">
        <ele>777.6</ele>
        <time>2019-08-11T06:32:53.000Z</time>
      </trkpt>
      <trkpt lat="43.39066" lon="2.25771">
        <ele>777.6</ele>
        <time>2019-08-11T06:32:54.000Z</time>
      </trkpt>
      <trkpt lat="43.39066" lon="2.25771">
        <ele>777.6</ele>
        <time>2019-08-11T06:32:55.000Z</time>
      </trkpt>
      <trkpt lat="43.39066" lon="2.25771">
        <ele>777.6</ele>
        <time>2019-08-11T06:32:56.000Z</time>
      </trkpt>
      <trkpt lat="43.39066" lon="2.25771">
        <ele>777.6</ele>
        <time>2019-08-11T06:32:57.000Z</time>
      </trkpt>
      <trkpt lat="43.39066" lon="2.25771">
        <ele>777.6</ele>
        <time>2019-08-11T06:32:58.000Z</time>
      </trkpt>
      <trkpt lat="43.39066" lon="2.25771">
        <ele>777.6</ele>
        <time>2019-08-11T06:32:59.000Z</time>
      </trkpt>
      <trkpt lat="43.39066" lon="2.25771">
        <ele>777.6</ele>
        <time>2019-08-11T06:33:00.000Z</time>
      </trkpt>
      <trkpt lat="43.39066" lon="2.25771">
        <ele>777.6</ele>
        <time>2019-08-11T06:33:01.000Z</time>
      </trkpt>
      <trkpt lat="43.39066" lon="2.25771">
        <ele>777.6</ele>
        <time>2019-08-11T06:33:02.000Z</time>
      </trkpt>
      <trkpt lat="43.39066" lon="2.25771">
        <ele>777.6</ele>
        <time>2019-08-11T06:33:03.000Z</time>
      </trkpt>
      <trkpt lat="43.39066" lon="2.25771">
        <ele>777.6</ele>
        <time>2019-08-11T06:33:04.000Z</time>
      </trkpt>
      <trkpt lat="43.39066" lon="2.25771">
        <ele>777.6</ele>
        <time>2019-08-11T06:33:05.000Z</time>
      </trkpt>
      <trkpt lat="43.39066" lon="2.25771">
        <ele>777.6</ele>
        <time>2019-08-11T06:33:06.000Z</time>
      </trkpt>
      <trkpt lat="43.39066" lon="2.25771">
        <ele>777.6</ele>
        <time>2019-08-11T06:33:07.000Z</time>
      </trkpt>
      <trkpt lat="43.39066" lon="2.25771">
        <ele>777.6</ele>
        <time>2019-08-11T06:33:08.000Z</time>
      </trkpt>
      <trkpt lat="43.39066" lon="2.25771">
        <ele>777.6</ele>
        <time>2019-08-11T06:33:09.000Z</time>
      </trkpt>
      <trkpt lat="43.39066" lon="2.25771">
        <ele>777.6</ele>
        <time>2019-08-11T06:33:10.000Z</time>
      </trkpt>
      <trkpt lat="43.39066" lon="2.25771">
        <ele>777.6</ele>
        <time>2019-08-11T06:33:11.000Z</time>
      </trkpt>
      <trkpt lat="43.39066" lon="2.25771">
        <ele>777.6</ele>
        <time>2019-08-11T06:33:12.000Z</time>
      </trkpt>
      <trkpt lat="43.39066" lon="2.25771">
        <ele>777.6</ele>
        <time>2019-08-11T06:33:13.000Z</time>
      </trkpt>
      <trkpt lat="43.39066" lon="2.25771">
        <ele>777.6</ele>
        <time>2019-08-11T06:33:14.000Z</time>
      </trkpt>
      <trkpt lat="43.39067" lon="2.25771">
        <ele>777.6</ele>
        <time>2019-08-11T06:33:15.000Z</time>
      </trkpt>
      <trkpt lat="43.39067" lon="2.25771">
        <ele>777.6</ele>
        <time>2019-08-11T06:33:16.000Z</time>
      </trkpt>
      <trkpt lat="43.39067" lon="2.25771">
        <ele>777.7</ele>
        <time>2019-08-11T06:33:17.000Z</time>
      </trkpt>
      <trkpt lat="43.39068" lon="2.25771">
        <ele>777.7</ele>
        <time>2019-08-11T06:33:18.000Z</time>
      </trkpt>
      <trkpt lat="43.39069" lon="2.25771">
        <ele>777.9</ele>
        <time>2019-08-11T06:33:19.000Z</time>
      </trkpt>
      <trkpt lat="43.39071" lon="2.25771">
        <ele>778</ele>
        <time>2019-08-11T06:33:20.000Z</time>
      </trkpt>
      <trkpt lat="43.39074" lon="2.25772">
        <ele>778.3</ele>
        <time>2019-08-11T06:33:21.000Z</time>
      </trkpt>
      <trkpt lat="43.39076" lon="2.25772">
        <ele>778.5</ele>
        <time>2019-08-11T06:33:22.000Z</time>
      </trkpt>
      <trkpt lat="43.39076" lon="2.25772">
        <ele>778.6</ele>
        <time>2019-08-11T06:33:23.000Z</time>
      </trkpt>
      <trkpt lat="43.39076" lon="2.25772">
        <ele>778.6</ele>
        <time>2019-08-11T06:33:24.000Z</time>
      </trkpt>
      <trkpt lat="43.39077" lon="2.25772">
        <ele>778.6</ele>
        <time>2019-08-11T06:33:25.000Z</time>
      </trkpt>
      <trkpt lat="43.39077" lon="2.25772">
        <ele>778.6</ele>
        <time>2019-08-11T06:33:26.000Z</time>
      </trkpt>
      <trkpt lat="43.39077" lon="2.25772">
        <ele>778.6</ele>
        <time>2019-08-11T06:33:27.000Z</time>
      </trkpt>
      <trkpt lat="43.39077" lon="2.25772">
        <ele>778.6</ele>
        <time>2019-08-11T06:33:28.000Z</time>
      </trkpt>
      <trkpt lat="43.39077" lon="2.25772">
        <ele>778.6</ele>
        <time>2019-08-11T06:33:29.000Z</time>
      </trkpt>
      <trkpt lat="43.39077" lon="2.25772">
        <ele>778.6</ele>
        <time>2019-08-11T06:33:30.000Z</time>
      </trkpt>
      <trkpt lat="43.39077" lon="2.25772">
        <ele>778.6</ele>
        <time>2019-08-11T06:33:31.000Z</time>
      </trkpt>
      <trkpt lat="43.39077" lon="2.25772">
        <ele>778.6</ele>
        <time>2019-08-11T06:33:32.000Z</time>
      </trkpt>
      <trkpt lat="43.39077" lon="2.25772">
        <ele>778.6</ele>
        <time>2019-08-11T06:33:33.000Z</time>
      </trkpt>
      <trkpt lat="43.39077" lon="2.25772">
        <ele>778.6</ele>
        <time>2019-08-11T06:33:34.000Z</time>
      </trkpt>
      <trkpt lat="43.39077" lon="2.25772">
        <ele>778.6</ele>
        <time>2019-08-11T06:33:35.000Z</time>
      </trkpt>
      <trkpt lat="43.39077" lon="2.25772">
        <ele>778.6</ele>
        <time>2019-08-11T06:33:36.000Z</time>
      </trkpt>
      <trkpt lat="43.39077" lon="2.25772">
        <ele>778.6</ele>
        <time>2019-08-11T06:33:37.000Z</time>
      </trkpt>
      <trkpt lat="43.39077" lon="2.25772">
        <ele>778.6</ele>
        <time>2019-08-11T06:33:38.000Z</time>
      </trkpt>
      <trkpt lat="43.39077" lon="2.25772">
        <ele>778.6</ele>
        <time>2019-08-11T06:33:39.000Z</time>
      </trkpt>
      <trkpt lat="43.39077" lon="2.25772">
        <ele>778.6</ele>
        <time>2019-08-11T06:33:40.000Z</time>
      </trkpt>
      <trkpt lat="43.39077" lon="2.25772">
        <ele>778.6</ele>
        <time>2019-08-11T06:33:41.000Z</time>
      </trkpt>
      <trkpt lat="43.39077" lon="2.25772">
        <ele>778.6</ele>
        <time>2019-08-11T06:33:42.000Z</time>
      </trkpt>
      <trkpt lat="43.39077" lon="2.25772">
        <ele>778.6</ele>
        <time>2019-08-11T06:33:43.000Z</time>
      </trkpt>
      <trkpt lat="43.39077" lon="2.25772">
        <ele>778.6</ele>
        <time>2019-08-11T06:33:44.000Z</time>
      </trkpt>
      <trkpt lat="43.39077" lon="2.25772">
        <ele>778.6</ele>
        <time>2019-08-11T06:33:45.000Z</time>
      </trkpt>
      <trkpt lat="43.39077" lon="2.25772">
        <ele>778.6</ele>
        <time>2019-08-11T06:33:46.000Z</time>
      </trkpt>
      <trkpt lat="43.39077" lon="2.25772">
        <ele>778.6</ele>
        <time>2019-08-11T06:33:47.000Z</time>
      </trkpt>
      <trkpt lat="43.39077" lon="2.25772">
        <ele>778.6</ele>
        <time>2019-08-11T06:33:48.000Z</time>
      </trkpt>
      <trkpt lat="43.39077" lon="2.25772">
        <ele>778.6</ele>
        <time>2019-08-11T06:33:49.000Z</time>
      </trkpt>
      <trkpt lat="43.39077" lon="2.25772">
        <ele>778.6</ele>
        <time>2019-08-11T06:33:50.000Z</time>
      </trkpt>
      <trkpt lat="43.39077" lon="2.25772">
        <ele>778.6</ele>
        <time>2019-08-11T06:33:51.000Z</time>
      </trkpt>
      <trkpt lat="43.39077" lon="2.25772">
        <ele>778.6</ele>
        <time>2019-08-11T06:33:52.000Z</time>
      </trkpt>
      <trkpt lat="43.39077" lon="2.25772">
        <ele>778.6</ele>
        <time>2019-08-11T06:33:53.000Z</time>
      </trkpt>
      <trkpt lat="43.39077" lon="2.25772">
        <ele>778.6</ele>
        <time>2019-08-11T06:33:54.000Z</time>
      </trkpt>
      <trkpt lat="43.39077" lon="2.25772">
        <ele>778.6</ele>
        <time>2019-08-11T06:33:55.000Z</time>
      </trkpt>
      <trkpt lat="43.39077" lon="2.25772">
        <ele>778.6</ele>
        <time>2019-08-11T06:33:56.000Z</time>
      </trkpt>
      <trkpt lat="43.39077" lon="2.25772">
        <ele>778.6</ele>
        <time>2019-08-11T06:33:57.000Z</time>
      </trkpt>
      <trkpt lat="43.39077" lon="2.25772">
        <ele>778.6</ele>
        <time>2019-08-11T06:33:58.000Z</time>
      </trkpt>
      <trkpt lat="43.39077" lon="2.25772">
        <ele>778.6</ele>
        <time>2019-08-11T06:33:59.000Z</time>
      </trkpt>
      <trkpt lat="43.39077" lon="2.25772">
        <ele>778.6</ele>
        <time>2019-08-11T06:34:00.000Z</time>
      </trkpt>
      <trkpt lat="43.39077" lon="2.25772">
        <ele>778.6</ele>
        <time>2019-08-11T06:34:01.000Z</time>
      </trkpt>
      <trkpt lat="43.39077" lon="2.25772">
        <ele>778.6</ele>
        <time>2019-08-11T06:34:02.000Z</time>
      </trkpt>
      <trkpt lat="43.39077" lon="2.25772">
        <ele>778.6</ele>
        <time>2019-08-11T06:34:03.000Z</time>
      </trkpt>
      <trkpt lat="43.39077" lon="2.25772">
        <ele>778.6</ele>
        <time>2019-08-11T06:34:04.000Z</time>
      </trkpt>
      <trkpt lat="43.39077" lon="2.25772">
        <ele>778.6</ele>
        <time>2019-08-11T06:34:05.000Z</time>
      </trkpt>
      <trkpt lat="43.39077" lon="2.25772">
        <ele>778.6</ele>
        <time>2019-08-11T06:34:06.000Z</time>
      </trkpt>
      <trkpt lat="43.39077" lon="2.25772">
        <ele>778.6</ele>
        <time>2019-08-11T06:34:07.000Z</time>
      </trkpt>
      <trkpt lat="43.39077" lon="2.25772">
        <ele>778.6</ele>
        <time>2019-08-11T06:34:08.000Z</time>
      </trkpt>
      <trkpt lat="43.39077" lon="2.25772">
        <ele>778.6</ele>
        <time>2019-08-11T06:34:09.000Z</time>
      </trkpt>
      <trkpt lat="43.39077" lon="2.25772">
        <ele>778.7</ele>
        <time>2019-08-11T06:34:10.000Z</time>
      </trkpt>
      <trkpt lat="43.3908" lon="2.25772">
        <ele>779</ele>
        <time>2019-08-11T06:34:11.000Z</time>
      </trkpt>
      <trkpt lat="43.39082" lon="2.25772">
        <ele>779.1</ele>
        <time>2019-08-11T06:34:12.000Z</time>
      </trkpt>
      <trkpt lat="43.39083" lon="2.25773">
        <ele>779.2</ele>
        <time>2019-08-11T06:34:13.000Z</time>
      </trkpt>
      <trkpt lat="43.39083" lon="2.25774">
        <ele>779.3</ele>
        <time>2019-08-11T06:34:14.000Z</time>
      </trkpt>
      <trkpt lat="43.39083" lon="2.25775">
        <ele>779.3</ele>
        <time>2019-08-11T06:34:15.000Z</time>
      </trkpt>
      <trkpt lat="43.39084" lon="2.25776">
        <ele>779.4</ele>
        <time>2019-08-11T06:34:16.000Z</time>
      </trkpt>
      <trkpt lat="43.39085" lon="2.25777">
        <ele>779.4</ele>
        <time>2019-08-11T06:34:17.000Z</time>
      </trkpt>
      <trkpt lat="43.39086" lon="2.25778">
        <ele>779.5</ele>
        <time>2019-08-11T06:34:18.000Z</time>
      </trkpt>
      <trkpt lat="43.39087" lon="2.25779">
        <ele>779.7</ele>
        <time>2019-08-11T06:34:19.000Z</time>
      </trkpt>
      <trkpt lat="43.39088" lon="2.2578">
        <ele>779.8</ele>
        <time>2019-08-11T06:34:20.000Z</time>
      </trkpt>
      <trkpt lat="43.39089" lon="2.2578">
        <ele>779.9</ele>
        <time>2019-08-11T06:34:21.000Z</time>
      </trkpt>
      <trkpt lat="43.3909" lon="2.25781">
        <ele>780</ele>
        <time>2019-08-11T06:34:22.000Z</time>
      </trkpt>
      <trkpt lat="43.39091" lon="2.25781">
        <ele>780.1</ele>
        <time>2019-08-11T06:34:23.000Z</time>
      </trkpt>
      <trkpt lat="43.39091" lon="2.25781">
        <ele>780.1</ele>
        <time>2019-08-11T06:34:24.000Z</time>
      </trkpt>
      <trkpt lat="43.39091" lon="2.25781">
        <ele>780.1</ele>
        <time>2019-08-11T06:34:25.000Z</time>
      </trkpt>
      <trkpt lat="43.39091" lon="2.2578">
        <ele>780.1</ele>
        <time>2019-08-11T06:34:26.000Z</time>
      </trkpt>
      <trkpt lat="43.39091" lon="2.2578">
        <ele>780.1</ele>
        <time>2019-08-11T06:34:27.000Z</time>
      </trkpt>
      <trkpt lat="43.39091" lon="2.25779">
        <ele>780.1</ele>
        <time>2019-08-11T06:34:28.000Z</time>
      </trkpt>
      <trkpt lat="43.39092" lon="2.25778">
        <ele>780.1</ele>
        <time>2019-08-11T06:34:29.000Z</time>
      </trkpt>
      <trkpt lat="43.39092" lon="2.25778">
        <ele>780.1</ele>
        <time>2019-08-11T06:34:30.000Z</time>
      </trkpt>
      <trkpt lat="43.39093" lon="2.25777">
        <ele>780.2</ele>
        <time>2019-08-11T06:34:31.000Z</time>
      </trkpt>
      <trkpt lat="43.39094" lon="2.25777">
        <ele>780.3</ele>
        <time>2019-08-11T06:34:32.000Z</time>
      </trkpt>
      <trkpt lat="43.39096" lon="2.25777">
        <ele>780.5</ele>
        <time>2019-08-11T06:34:33.000Z</time>
      </trkpt>
      <trkpt lat="43.39098" lon="2.25777">
        <ele>780.6</ele>
        <time>2019-08-11T06:34:34.000Z</time>
      </trkpt>
      <trkpt lat="43.391" lon="2.25777">
        <ele>780.8</ele>
        <time>2019-08-11T06:34:35.000Z</time>
      </trkpt>
      <trkpt lat="43.39102" lon="2.25777">
        <ele>781</ele>
        <time>2019-08-11T06:34:36.000Z</time>
      </trkpt>
      <trkpt lat="43.39105" lon="2.25777">
        <ele>781.3</ele>
        <time>2019-08-11T06:34:37.000Z</time>
      </trkpt>
      <trkpt lat="43.39107" lon="2.25777">
        <ele>781.5</ele>
        <time>2019-08-11T06:34:38.000Z</time>
      </trkpt>
      <trkpt lat="43.3911" lon="2.25777">
        <ele>781.8</ele>
        <time>2019-08-11T06:34:39.000Z</time>
      </trkpt>
      <trkpt lat="43.39113" lon="2.25778">
        <ele>782</ele>
        <time>2019-08-11T06:34:40.000Z</time>
      </trkpt>
      <trkpt lat="43.39116" lon="2.25778">
        <ele>782.3</ele>
        <time>2019-08-11T06:34:41.000Z</time>
      </trkpt>
      <trkpt lat="43.39119" lon="2.25778">
        <ele>782.6</ele>
        <time>2019-08-11T06:34:42.000Z</time>
      </trkpt>
      <trkpt lat="43.39122" lon="2.25778">
        <ele>782.9</ele>
        <time>2019-08-11T06:34:43.000Z</time>
      </trkpt>
      <trkpt lat="43.39125" lon="2.25778">
        <ele>783.2</ele>
        <time>2019-08-11T06:34:44.000Z</time>
      </trkpt>
      <trkpt lat="43.39129" lon="2.25778">
        <ele>783.5</ele>
        <time>2019-08-11T06:34:45.000Z</time>
      </trkpt>
      <trkpt lat="43.39132" lon="2.25778">
        <ele>783.8</ele>
        <time>2019-08-11T06:34:46.000Z</time>
      </trkpt>
      <trkpt lat="43.39135" lon="2.25779">
        <ele>784.1</ele>
        <time>2019-08-11T06:34:47.000Z</time>
      </trkpt>
      <trkpt lat="43.39138" lon="2.25779">
        <ele>784.4</ele>
        <time>2019-08-11T06:34:48.000Z</time>
      </trkpt>
      <trkpt lat="43.39142" lon="2.25779">
        <ele>784.7</ele>
        <time>2019-08-11T06:34:49.000Z</time>
      </trkpt>
      <trkpt lat="43.39145" lon="2.25779">
        <ele>785</ele>
        <time>2019-08-11T06:34:50.000Z</time>
      </trkpt>
      <trkpt lat="43.39147" lon="2.2578">
        <ele>785.3</ele>
        <time>2019-08-11T06:34:51.000Z</time>
      </trkpt>
      <trkpt lat="43.3915" lon="2.2578">
        <ele>785.5</ele>
        <time>2019-08-11T06:34:52.000Z</time>
      </trkpt>
      <trkpt lat="43.39152" lon="2.2578">
        <ele>785.8</ele>
        <time>2019-08-11T06:34:53.000Z</time>
      </trkpt>
      <trkpt lat="43.39155" lon="2.25781">
        <ele>786</ele>
        <time>2019-08-11T06:34:54.000Z</time>
      </trkpt>
      <trkpt lat="43.39157" lon="2.25781">
        <ele>786.2</ele>
        <time>2019-08-11T06:34:55.000Z</time>
      </trkpt>
      <trkpt lat="43.39159" lon="2.25781">
        <ele>786.4</ele>
        <time>2019-08-11T06:34:56.000Z</time>
      </trkpt>
      <trkpt lat="43.39161" lon="2.25781">
        <ele>786.6</ele>
        <time>2019-08-11T06:34:57.000Z</time>
      </trkpt>
      <trkpt lat="43.39163" lon="2.25781">
        <ele>786.8</ele>
        <time>2019-08-11T06:34:58.000Z</time>
      </trkpt>
      <trkpt lat="43.39165" lon="2.25782">
        <ele>787</ele>
        <time>2019-08-11T06:34:59.000Z</time>
      </trkpt>
      <trkpt lat="43.39167" lon="2.25782">
        <ele>787.1</ele>
        <time>2019-08-11T06:35:00.000Z</time>
      </trkpt>
      <trkpt lat="43.39169" lon="2.25782">
        <ele>787.2</ele>
        <time>2019-08-11T06:35:01.000Z</time>
      </trkpt>
      <trkpt lat="43.39171" lon="2.25782">
        <ele>787.3</ele>
        <time>2019-08-11T06:35:02.000Z</time>
      </trkpt>
      <trkpt lat="43.39173" lon="2.25782">
        <ele>787.4</ele>
        <time>2019-08-11T06:35:03.000Z</time>
      </trkpt>
      <trkpt lat="43.39175" lon="2.25782">
        <ele>787.4</ele>
        <time>2019-08-11T06:35:04.000Z</time>
      </trkpt>
      <trkpt lat="43.39177" lon="2.25782">
        <ele>787.5</ele>
        <time>2019-08-11T06:35:05.000Z</time>
      </trkpt>
      <trkpt lat="43.39179" lon="2.25782">
        <ele>787.6</ele>
        <time>2019-08-11T06:35:06.000Z</time>
      </trkpt>
      <trkpt lat="43.39181" lon="2.25782">
        <ele>787.6</ele>
        <time>2019-08-11T06:35:07.000Z</time>
      </trkpt>
      <trkpt lat="43.39183" lon="2.25782">
        <ele>787.7</ele>
        <time>2019-08-11T06:35:08.000Z</time>
      </trkpt>
      <trkpt lat="43.39185" lon="2.25782">
        <ele>787.8</ele>
        <time>2019-08-11T06:35:09.000Z</time>
      </trkpt>
      <trkpt lat="43.39187" lon="2.25782">
        <ele>787.8</ele>
        <time>2019-08-11T06:35:10.000Z</time>
      </trkpt>
      <trkpt lat="43.39189" lon="2.25782">
        <ele>787.9</ele>
        <time>2019-08-11T06:35:11.000Z</time>
      </trkpt>
      <trkpt lat="43.39191" lon="2.25782">
        <ele>787.9</ele>
        <time>2019-08-11T06:35:12.000Z</time>
      </trkpt>
      <trkpt lat="43.39193" lon="2.25781">
        <ele>788</ele>
        <time>2019-08-11T06:35:13.000Z</time>
      </trkpt>
      <trkpt lat="43.39195" lon="2.25781">
        <ele>788</ele>
        <time>2019-08-11T06:35:14.000Z</time>
      </trkpt>
      <trkpt lat="43.39197" lon="2.25781">
        <ele>788.1</ele>
        <time>2019-08-11T06:35:15.000Z</time>
      </trkpt>
      <trkpt lat="43.39199" lon="2.2578">
        <ele>788.1</ele>
        <time>2019-08-11T06:35:16.000Z</time>
      </trkpt>
      <trkpt lat="43.392" lon="2.2578">
        <ele>788.2</ele>
        <time>2019-08-11T06:35:17.000Z</time>
      </trkpt>
      <trkpt lat="43.39202" lon="2.2578">
        <ele>788.2</ele>
        <time>2019-08-11T06:35:18.000Z</time>
      </trkpt>
      <trkpt lat="43.39204" lon="2.25779">
        <ele>788.3</ele>
        <time>2019-08-11T06:35:19.000Z</time>
      </trkpt>
      <trkpt lat="43.39206" lon="2.25779">
        <ele>788.3</ele>
        <time>2019-08-11T06:35:20.000Z</time>
      </trkpt>
      <trkpt lat="43.39208" lon="2.25778">
        <ele>788.3</ele>
        <time>2019-08-11T06:35:21.000Z</time>
      </trkpt>
      <trkpt lat="43.3921" lon="2.25777">
        <ele>788.4</ele>
        <time>2019-08-11T06:35:22.000Z</time>
      </trkpt>
      <trkpt lat="43.39212" lon="2.25777">
        <ele>788.4</ele>
        <time>2019-08-11T06:35:23.000Z</time>
      </trkpt>
      <trkpt lat="43.39214" lon="2.25776">
        <ele>788.4</ele>
        <time>2019-08-11T06:35:24.000Z</time>
      </trkpt>
      <trkpt lat="43.39216" lon="2.25775">
        <ele>788.5</ele>
        <time>2019-08-11T06:35:25.000Z</time>
      </trkpt>
      <trkpt lat="43.39219" lon="2.25775">
        <ele>788.5</ele>
        <time>2019-08-11T06:35:26.000Z</time>
      </trkpt>
      <trkpt lat="43.39221" lon="2.25774">
        <ele>788.5</ele>
        <time>2019-08-11T06:35:27.000Z</time>
      </trkpt>
      <trkpt lat="43.39223" lon="2.25773">
        <ele>788.5</ele>
        <time>2019-08-11T06:35:28.000Z</time>
      </trkpt>
      <trkpt lat="43.39225" lon="2.25772">
        <ele>788.6</ele>
        <time>2019-08-11T06:35:29.000Z</time>
      </trkpt>
      <trkpt lat="43.39228" lon="2.25771">
        <ele>788.6</ele>
        <time>2019-08-11T06:35:30.000Z</time>
      </trkpt>
      <trkpt lat="43.3923" lon="2.2577">
        <ele>788.6</ele>
        <time>2019-08-11T06:35:31.000Z</time>
      </trkpt>
      <trkpt lat="43.39232" lon="2.25769">
        <ele>788.6</ele>
        <time>2019-08-11T06:35:32.000Z</time>
      </trkpt>
      <trkpt lat="43.39234" lon="2.25769">
        <ele>788.6</ele>
        <time>2019-08-11T06:35:33.000Z</time>
      </trkpt>
      <trkpt lat="43.39235" lon="2.25768">
        <ele>788.7</ele>
        <time>2019-08-11T06:35:34.000Z</time>
      </trkpt>
      <trkpt lat="43.39237" lon="2.25767">
        <ele>788.7</ele>
        <time>2019-08-11T06:35:35.000Z</time>
      </trkpt>
      <trkpt lat="43.39238" lon="2.25767">
        <ele>788.7</ele>
        <time>2019-08-11T06:35:36.000Z</time>
      </trkpt>
      <trkpt lat="43.3924" lon="2.25766">
        <ele>788.7</ele>
        <time>2019-08-11T06:35:37.000Z</time>
      </trkpt>
      <trkpt lat="43.39241" lon="2.25766">
        <ele>788.7</ele>
        <time>2019-08-11T06:35:38.000Z</time>
      </trkpt>
      <trkpt lat="43.39243" lon="2.25765">
        <ele>788.7</ele>
        <time>2019-08-11T06:35:39.000Z</time>
      </trkpt>
      <trkpt lat="43.39244" lon="2.25765">
        <ele>788.7</ele>
        <time>2019-08-11T06:35:40.000Z</time>
      </trkpt>
      <trkpt lat="43.39246" lon="2.25764">
        <ele>788.7</ele>
        <time>2019-08-11T06:35:41.000Z</time>
      </trkpt>
      <trkpt lat="43.39247" lon="2.25764">
        <ele>788.8</ele>
        <time>2019-08-11T06:35:42.000Z</time>
      </trkpt>
      <trkpt lat="43.39249" lon="2.25764">
        <ele>788.8</ele>
        <time>2019-08-11T06:35:43.000Z</time>
      </trkpt>
      <trkpt lat="43.39252" lon="2.25763">
        <ele>788.8</ele>
        <time>2019-08-11T06:35:44.000Z</time>
      </trkpt>
      <trkpt lat="43.39254" lon="2.25763">
        <ele>788.8</ele>
        <time>2019-08-11T06:35:45.000Z</time>
      </trkpt>
      <trkpt lat="43.39257" lon="2.25762">
        <ele>788.7</ele>
        <time>2019-08-11T06:35:46.000Z</time>
      </trkpt>
      <trkpt lat="43.3926" lon="2.25762">
        <ele>788.7</ele>
        <time>2019-08-11T06:35:47.000Z</time>
      </trkpt>
      <trkpt lat="43.39262" lon="2.25761">
        <ele>788.7</ele>
        <time>2019-08-11T06:35:48.000Z</time>
      </trkpt>
      <trkpt lat="43.39265" lon="2.25761">
        <ele>788.7</ele>
        <time>2019-08-11T06:35:49.000Z</time>
      </trkpt>
      <trkpt lat="43.39268" lon="2.2576">
        <ele>788.6</ele>
        <time>2019-08-11T06:35:50.000Z</time>
      </trkpt>
      <trkpt lat="43.3927" lon="2.25759">
        <ele>788.6</ele>
        <time>2019-08-11T06:35:51.000Z</time>
      </trkpt>
      <trkpt lat="43.39272" lon="2.25759">
        <ele>788.5</ele>
        <time>2019-08-11T06:35:52.000Z</time>
      </trkpt>
      <trkpt lat="43.39273" lon="2.25758">
        <ele>788.5</ele>
        <time>2019-08-11T06:35:53.000Z</time>
      </trkpt>
      <trkpt lat="43.39275" lon="2.25758">
        <ele>788.5</ele>
        <time>2019-08-11T06:35:54.000Z</time>
      </trkpt>
      <trkpt lat="43.39277" lon="2.25757">
        <ele>788.4</ele>
        <time>2019-08-11T06:35:55.000Z</time>
      </trkpt>
      <trkpt lat="43.39279" lon="2.25757">
        <ele>788.4</ele>
        <time>2019-08-11T06:35:56.000Z</time>
      </trkpt>
      <trkpt lat="43.39282" lon="2.25756">
        <ele>788.4</ele>
        <time>2019-08-11T06:35:57.000Z</time>
      </trkpt>
      <trkpt lat="43.39284" lon="2.25756">
        <ele>788.4</ele>
        <time>2019-08-11T06:35:58.000Z</time>
      </trkpt>
      <trkpt lat="43.39287" lon="2.25755">
        <ele>788.3</ele>
        <time>2019-08-11T06:35:59.000Z</time>
      </trkpt>
      <trkpt lat="43.39289" lon="2.25755">
        <ele>788.3</ele>
        <time>2019-08-11T06:36:00.000Z</time>
      </trkpt>
      <trkpt lat="43.39292" lon="2.25755">
        <ele>788.3</ele>
        <time>2019-08-11T06:36:01.000Z</time>
      </trkpt>
      <trkpt lat="43.39295" lon="2.25754">
        <ele>788.3</ele>
        <time>2019-08-11T06:36:02.000Z</time>
      </trkpt>
      <trkpt lat="43.39298" lon="2.25754">
        <ele>788.3</ele>
        <time>2019-08-11T06:36:03.000Z</time>
      </trkpt>
      <trkpt lat="43.39301" lon="2.25754">
        <ele>788.3</ele>
        <time>2019-08-11T06:36:04.000Z</time>
      </trkpt>
      <trkpt lat="43.39303" lon="2.25754">
        <ele>788.3</ele>
        <time>2019-08-11T06:36:05.000Z</time>
      </trkpt>
      <trkpt lat="43.39306" lon="2.25754">
        <ele>788.2</ele>
        <time>2019-08-11T06:36:06.000Z</time>
      </trkpt>
      <trkpt lat="43.39309" lon="2.25753">
        <ele>788.2</ele>
        <time>2019-08-11T06:36:07.000Z</time>
      </trkpt>
      <trkpt lat="43.39311" lon="2.25753">
        <ele>788.2</ele>
        <time>2019-08-11T06:36:08.000Z</time>
      </trkpt>
      <trkpt lat="43.39314" lon="2.25753">
        <ele>788.2</ele>
        <time>2019-08-11T06:36:09.000Z</time>
      </trkpt>
      <trkpt lat="43.39316" lon="2.25753">
        <ele>788.2</ele>
        <time>2019-08-11T06:36:10.000Z</time>
      </trkpt>
      <trkpt lat="43.39318" lon="2.25753">
        <ele>788.2</ele>
        <time>2019-08-11T06:36:11.000Z</time>
      </trkpt>
      <trkpt lat="43.3932" lon="2.25753">
        <ele>788.2</ele>
        <time>2019-08-11T06:36:12.000Z</time>
      </trkpt>
      <trkpt lat="43.39322" lon="2.25753">
        <ele>788.2</ele>
        <time>2019-08-11T06:36:13.000Z</time>
      </trkpt>
      <trkpt lat="43.39324" lon="2.25753">
        <ele>788.2</ele>
        <time>2019-08-11T06:36:14.000Z</time>
      </trkpt>
      <trkpt lat="43.39326" lon="2.25752">
        <ele>788.2</ele>
        <time>2019-08-11T06:36:15.000Z</time>
      </trkpt>
      <trkpt lat="43.39328" lon="2.25752">
        <ele>788.2</ele>
        <time>2019-08-11T06:36:16.000Z</time>
      </trkpt>
      <trkpt lat="43.39329" lon="2.25752">
        <ele>788.2</ele>
        <time>2019-08-11T06:36:17.000Z</time>
      </trkpt>
      <trkpt lat="43.39331" lon="2.25752">
        <ele>788.1</ele>
        <time>2019-08-11T06:36:18.000Z</time>
      </trkpt>
      <trkpt lat="43.39333" lon="2.25752">
        <ele>788.1</ele>
        <time>2019-08-11T06:36:19.000Z</time>
      </trkpt>
      <trkpt lat="43.39335" lon="2.25752">
        <ele>788.1</ele>
        <time>2019-08-11T06:36:20.000Z</time>
      </trkpt>
      <trkpt lat="43.39337" lon="2.25751">
        <ele>788.1</ele>
        <time>2019-08-11T06:36:21.000Z</time>
      </trkpt>
      <trkpt lat="43.39339" lon="2.25751">
        <ele>788.1</ele>
        <time>2019-08-11T06:36:22.000Z</time>
      </trkpt>
      <trkpt lat="43.39341" lon="2.25751">
        <ele>788.1</ele>
        <time>2019-08-11T06:36:23.000Z</time>
      </trkpt>
      <trkpt lat="43.39343" lon="2.2575">
        <ele>788</ele>
        <time>2019-08-11T06:36:24.000Z</time>
      </trkpt>
      <trkpt lat="43.39345" lon="2.2575">
        <ele>788</ele>
        <time>2019-08-11T06:36:25.000Z</time>
      </trkpt>
      <trkpt lat="43.39348" lon="2.2575">
        <ele>787.9</ele>
        <time>2019-08-11T06:36:26.000Z</time>
      </trkpt>
      <trkpt lat="43.3935" lon="2.25749">
        <ele>787.9</ele>
        <time>2019-08-11T06:36:27.000Z</time>
      </trkpt>
      <trkpt lat="43.39353" lon="2.25749">
        <ele>787.9</ele>
        <time>2019-08-11T06:36:28.000Z</time>
      </trkpt>
      <trkpt lat="43.39355" lon="2.25749">
        <ele>787.9</ele>
        <time>2019-08-11T06:36:29.000Z</time>
      </trkpt>
      <trkpt lat="43.39358" lon="2.25749">
        <ele>787.9</ele>
        <time>2019-08-11T06:36:30.000Z</time>
      </trkpt>
      <trkpt lat="43.39361" lon="2.25749">
        <ele>787.9</ele>
        <time>2019-08-11T06:36:31.000Z</time>
      </trkpt>
      <trkpt lat="43.39363" lon="2.2575">
        <ele>788</ele>
        <time>2019-08-11T06:36:32.000Z</time>
      </trkpt>
      <trkpt lat="43.39366" lon="2.2575">
        <ele>788</ele>
        <time>2019-08-11T06:36:33.000Z</time>
      </trkpt>
      <trkpt lat="43.39368" lon="2.25751">
        <ele>788.1</ele>
        <time>2019-08-11T06:36:34.000Z</time>
      </trkpt>
      <trkpt lat="43.39371" lon="2.25752">
        <ele>788.2</ele>
        <time>2019-08-11T06:36:35.000Z</time>
      </trkpt>
      <trkpt lat="43.39373" lon="2.25753">
        <ele>788.3</ele>
        <time>2019-08-11T06:36:36.000Z</time>
      </trkpt>
      <trkpt lat="43.39375" lon="2.25754">
        <ele>788.3</ele>
        <time>2019-08-11T06:36:37.000Z</time>
      </trkpt>
      <trkpt lat="43.39377" lon="2.25755">
        <ele>788.4</ele>
        <time>2019-08-11T06:36:38.000Z</time>
      </trkpt>
      <trkpt lat="43.39379" lon="2.25756">
        <ele>788.5</ele>
        <time>2019-08-11T06:36:39.000Z</time>
      </trkpt>
      <trkpt lat="43.3938" lon="2.25757">
        <ele>788.6</ele>
        <time>2019-08-11T06:36:40.000Z</time>
      </trkpt>
      <trkpt lat="43.39382" lon="2.25758">
        <ele>788.7</ele>
        <time>2019-08-11T06:36:41.000Z</time>
      </trkpt>
      <trkpt lat="43.39383" lon="2.25759">
        <ele>788.8</ele>
        <time>2019-08-11T06:36:42.000Z</time>
      </trkpt>
      <trkpt lat="43.39385" lon="2.25761">
        <ele>788.9</ele>
        <time>2019-08-11T06:36:43.000Z</time>
      </trkpt>
      <trkpt lat="43.39387" lon="2.25762">
        <ele>789</ele>
        <time>2019-08-11T06:36:44.000Z</time>
      </trkpt>
      <trkpt lat="43.39388" lon="2.25763">
        <ele>789.1</ele>
        <time>2019-08-11T06:36:45.000Z</time>
      </trkpt>
      <trkpt lat="43.3939" lon="2.25764">
        <ele>789.2</ele>
        <time>2019-08-11T06:36:46.000Z</time>
      </trkpt>
      <trkpt lat="43.39392" lon="2.25765">
        <ele>789.3</ele>
        <time>2019-08-11T06:36:47.000Z</time>
      </trkpt>
      <trkpt lat="43.39394" lon="2.25766">
        <ele>789.4</ele>
        <time>2019-08-11T06:36:48.000Z</time>
      </trkpt>
      <trkpt lat="43.39396" lon="2.25767">
        <ele>789.5</ele>
        <time>2019-08-11T06:36:49.000Z</time>
      </trkpt>
      <trkpt lat="43.39398" lon="2.25768">
        <ele>789.6</ele>
        <time>2019-08-11T06:36:50.000Z</time>
      </trkpt>
      <trkpt lat="43.394" lon="2.25769">
        <ele>789.7</ele>
        <time>2019-08-11T06:36:51.000Z</time>
      </trkpt>
      <trkpt lat="43.39402" lon="2.2577">
        <ele>789.8</ele>
        <time>2019-08-11T06:36:52.000Z</time>
      </trkpt>
      <trkpt lat="43.39404" lon="2.25771">
        <ele>789.9</ele>
        <time>2019-08-11T06:36:53.000Z</time>
      </trkpt>
      <trkpt lat="43.39406" lon="2.25772">
        <ele>790</ele>
        <time>2019-08-11T06:36:54.000Z</time>
      </trkpt>
      <trkpt lat="43.39408" lon="2.25773">
        <ele>790.1</ele>
        <time>2019-08-11T06:36:55.000Z</time>
      </trkpt>
      <trkpt lat="43.3941" lon="2.25774">
        <ele>790.2</ele>
        <time>2019-08-11T06:36:56.000Z</time>
      </trkpt>
      <trkpt lat="43.39412" lon="2.25775">
        <ele>790.3</ele>
        <time>2019-08-11T06:36:57.000Z</time>
      </trkpt>
      <trkpt lat="43.39414" lon="2.25776">
        <ele>790.4</ele>
        <time>2019-08-11T06:36:58.000Z</time>
      </trkpt>
      <trkpt lat="43.39416" lon="2.25776">
        <ele>790.5</ele>
        <time>2019-08-11T06:36:59.000Z</time>
      </trkpt>
      <trkpt lat="43.39418" lon="2.25777">
        <ele>790.6</ele>
        <time>2019-08-11T06:37:00.000Z</time>
      </trkpt>
      <trkpt lat="43.3942" lon="2.25777">
        <ele>790.8</ele>
        <time>2019-08-11T06:37:01.000Z</time>
      </trkpt>
      <trkpt lat="43.39422" lon="2.25777">
        <ele>790.9</ele>
        <time>2019-08-11T06:37:02.000Z</time>
      </trkpt>
      <trkpt lat="43.39424" lon="2.25777">
        <ele>791.1</ele>
        <time>2019-08-11T06:37:03.000Z</time>
      </trkpt>
      <trkpt lat="43.39426" lon="2.25778">
        <ele>791.2</ele>
        <time>2019-08-11T06:37:04.000Z</time>
      </trkpt>
      <trkpt lat="43.39427" lon="2.25778">
        <ele>791.4</ele>
        <time>2019-08-11T06:37:05.000Z</time>
      </trkpt>
      <trkpt lat="43.39429" lon="2.25778">
        <ele>791.5</ele>
        <time>2019-08-11T06:37:06.000Z</time>
      </trkpt>
      <trkpt lat="43.39431" lon="2.25778">
        <ele>791.6</ele>
        <time>2019-08-11T06:37:07.000Z</time>
      </trkpt>
      <trkpt lat="43.39433" lon="2.25777">
        <ele>791.7</ele>
        <time>2019-08-11T06:37:08.000Z</time>
      </trkpt>
      <trkpt lat="43.39434" lon="2.25777">
        <ele>791.8</ele>
        <time>2019-08-11T06:37:09.000Z</time>
      </trkpt>
      <trkpt lat="43.39436" lon="2.25777">
        <ele>791.9</ele>
        <time>2019-08-11T06:37:10.000Z</time>
      </trkpt>
      <trkpt lat="43.39438" lon="2.25777">
        <ele>792</ele>
        <time>2019-08-11T06:37:11.000Z</time>
      </trkpt>
      <trkpt lat="43.39439" lon="2.25776">
        <ele>792</ele>
        <time>2019-08-11T06:37:12.000Z</time>
      </trkpt>
      <trkpt lat="43.39441" lon="2.25776">
        <ele>792.1</ele>
        <time>2019-08-11T06:37:13.000Z</time>
      </trkpt>
      <trkpt lat="43.39443" lon="2.25775">
        <ele>792.2</ele>
        <time>2019-08-11T06:37:14.000Z</time>
      </trkpt>
      <trkpt lat="43.39445" lon="2.25774">
        <ele>792.3</ele>
        <time>2019-08-11T06:37:15.000Z</time>
      </trkpt>
      <trkpt lat="43.39448" lon="2.25773">
        <ele>792.4</ele>
        <time>2019-08-11T06:37:16.000Z</time>
      </trkpt>
      <trkpt lat="43.39451" lon="2.25772">
        <ele>792.5</ele>
        <time>2019-08-11T06:37:17.000Z</time>
      </trkpt>
      <trkpt lat="43.39454" lon="2.25771">
        <ele>792.6</ele>
        <time>2019-08-11T06:37:18.000Z</time>
      </trkpt>
      <trkpt lat="43.39457" lon="2.25771">
        <ele>792.8</ele>
        <time>2019-08-11T06:37:19.000Z</time>
      </trkpt>
      <trkpt lat="43.3946" lon="2.2577">
        <ele>792.9</ele>
        <time>2019-08-11T06:37:20.000Z</time>
      </trkpt>
      <trkpt lat="43.39462" lon="2.25769">
        <ele>793</ele>
        <time>2019-08-11T06:37:21.000Z</time>
      </trkpt>
      <trkpt lat="43.39464" lon="2.25768">
        <ele>793</ele>
        <time>2019-08-11T06:37:22.000Z</time>
      </trkpt>
      <trkpt lat="43.39465" lon="2.25767">
        <ele>793</ele>
        <time>2019-08-11T06:37:23.000Z</time>
      </trkpt>
      <trkpt lat="43.39467" lon="2.25766">
        <ele>793.1</ele>
        <time>2019-08-11T06:37:24.000Z</time>
      </trkpt>
      <trkpt lat="43.39469" lon="2.25765">
        <ele>793</ele>
        <time>2019-08-11T06:37:25.000Z</time>
      </trkpt>
      <trkpt lat="43.3947" lon="2.25764">
        <ele>793.1</ele>
        <time>2019-08-11T06:37:26.000Z</time>
      </trkpt>
      <trkpt lat="43.39472" lon="2.25762">
        <ele>793.1</ele>
        <time>2019-08-11T06:37:27.000Z</time>
      </trkpt>
      <trkpt lat="43.39474" lon="2.25761">
        <ele>793.1</ele>
        <time>2019-08-11T06:37:28.000Z</time>
      </trkpt>
      <trkpt lat="43.39475" lon="2.2576">
        <ele>793.1</ele>
        <time>2019-08-11T06:37:29.000Z</time>
      </trkpt>
      <trkpt lat="43.39477" lon="2.25759">
        <ele>793.1</ele>
        <time>2019-08-11T06:37:30.000Z</time>
      </trkpt>
      <trkpt lat="43.39478" lon="2.25758">
        <ele>793.2</ele>
        <time>2019-08-11T06:37:31.000Z</time>
      </trkpt>
      <trkpt lat="43.3948" lon="2.25758">
        <ele>793.2</ele>
        <time>2019-08-11T06:37:32.000Z</time>
      </trkpt>
      <trkpt lat="43.39482" lon="2.25756">
        <ele>793.3</ele>
        <time>2019-08-11T06:37:33.000Z</time>
      </trkpt>
      <trkpt lat="43.39484" lon="2.25755">
        <ele>793.3</ele>
        <time>2019-08-11T06:37:34.000Z</time>
      </trkpt>
      <trkpt lat="43.39486" lon="2.25754">
        <ele>793.3</ele>
        <time>2019-08-11T06:37:35.000Z</time>
      </trkpt>
      <trkpt lat="43.39488" lon="2.25753">
        <ele>793.3</ele>
        <time>2019-08-11T06:37:36.000Z</time>
      </trkpt>
      <trkpt lat="43.3949" lon="2.25751">
        <ele>793.4</ele>
        <time>2019-08-11T06:37:37.000Z</time>
      </trkpt>
      <trkpt lat="43.39492" lon="2.25749">
        <ele>793.3</ele>
        <time>2019-08-11T06:37:38.000Z</time>
      </trkpt>
      <trkpt lat="43.39494" lon="2.25747">
        <ele>793.3</ele>
        <time>2019-08-11T06:37:39.000Z</time>
      </trkpt>
      <trkpt lat="43.39496" lon="2.25745">
        <ele>793.3</ele>
        <time>2019-08-11T06:37:40.000Z</time>
      </trkpt>
      <trkpt lat="43.39498" lon="2.25742">
        <ele>793.2</ele>
        <time>2019-08-11T06:37:41.000Z</time>
      </trkpt>
      <trkpt lat="43.395" lon="2.2574">
        <ele>793.1</ele>
        <time>2019-08-11T06:37:42.000Z</time>
      </trkpt>
      <trkpt lat="43.39502" lon="2.25737">
        <ele>793.1</ele>
        <time>2019-08-11T06:37:43.000Z</time>
      </trkpt>
      <trkpt lat="43.39504" lon="2.25734">
        <ele>793.1</ele>
        <time>2019-08-11T06:37:44.000Z</time>
      </trkpt>
      <trkpt lat="43.39506" lon="2.25731">
        <ele>793</ele>
        <time>2019-08-11T06:37:45.000Z</time>
      </trkpt>
      <trkpt lat="43.39508" lon="2.25728">
        <ele>793</ele>
        <time>2019-08-11T06:37:46.000Z</time>
      </trkpt>
      <trkpt lat="43.39509" lon="2.25726">
        <ele>793</ele>
        <time>2019-08-11T06:37:47.000Z</time>
      </trkpt>
      <trkpt lat="43.39511" lon="2.25724">
        <ele>793</ele>
        <time>2019-08-11T06:37:48.000Z</time>
      </trkpt>
      <trkpt lat="43.39512" lon="2.25722">
        <ele>793</ele>
        <time>2019-08-11T06:37:49.000Z</time>
      </trkpt>
      <trkpt lat="43.39513" lon="2.2572">
        <ele>793</ele>
        <time>2019-08-11T06:37:50.000Z</time>
      </trkpt>
      <trkpt lat="43.39514" lon="2.25719">
        <ele>793</ele>
        <time>2019-08-11T06:37:51.000Z</time>
      </trkpt>
      <trkpt lat="43.39514" lon="2.25718">
        <ele>793</ele>
        <time>2019-08-11T06:37:52.000Z</time>
      </trkpt>
      <trkpt lat="43.39515" lon="2.25718">
        <ele>793</ele>
        <time>2019-08-11T06:37:53.000Z</time>
      </trkpt>
      <trkpt lat="43.39515" lon="2.25717">
        <ele>793</ele>
        <time>2019-08-11T06:37:54.000Z</time>
      </trkpt>
      <trkpt lat="43.39516" lon="2.25717">
        <ele>793</ele>
        <time>2019-08-11T06:37:55.000Z</time>
      </trkpt>
      <trkpt lat="43.39516" lon="2.25716">
        <ele>793</ele>
        <time>2019-08-11T06:37:56.000Z</time>
      </trkpt>
      <trkpt lat="43.39516" lon="2.25716">
        <ele>793</ele>
        <time>2019-08-11T06:37:57.000Z</time>
      </trkpt>
      <trkpt lat="43.39516" lon="2.25716">
        <ele>793</ele>
        <time>2019-08-11T06:37:58.000Z</time>
      </trkpt>
      <trkpt lat="43.39516" lon="2.25716">
        <ele>793</ele>
        <time>2019-08-11T06:37:59.000Z</time>
      </trkpt>
      <trkpt lat="43.39516" lon="2.25716">
        <ele>793</ele>
        <time>2019-08-11T06:38:00.000Z</time>
      </trkpt>
      <trkpt lat="43.39516" lon="2.25716">
        <ele>793</ele>
        <time>2019-08-11T06:38:01.000Z</time>
      </trkpt>
      <trkpt lat="43.39516" lon="2.25716">
        <ele>793</ele>
        <time>2019-08-11T06:38:02.000Z</time>
      </trkpt>
      <trkpt lat="43.39516" lon="2.25716">
        <ele>793</ele>
        <time>2019-08-11T06:38:03.000Z</time>
      </trkpt>
      <trkpt lat="43.39516" lon="2.25716">
        <ele>793</ele>
        <time>2019-08-11T06:38:04.000Z</time>
      </trkpt>
      <trkpt lat="43.39516" lon="2.25716">
        <ele>793</ele>
        <time>2019-08-11T06:38:05.000Z</time>
      </trkpt>
      <trkpt lat="43.39516" lon="2.25716">
        <ele>793</ele>
        <time>2019-08-11T06:38:06.000Z</time>
      </trkpt>
      <trkpt lat="43.39516" lon="2.25716">
        <ele>793</ele>
        <time>2019-08-11T06:38:07.000Z</time>
      </trkpt>
      <trkpt lat="43.39516" lon="2.25716">
        <ele>793</ele>
        <time>2019-08-11T06:38:08.000Z</time>
      </trkpt>
      <trkpt lat="43.39516" lon="2.25716">
        <ele>793</ele>
        <time>2019-08-11T06:38:09.000Z</time>
      </trkpt>
      <trkpt lat="43.39516" lon="2.25716">
        <ele>793</ele>
        <time>2019-08-11T06:38:10.000Z</time>
      </trkpt>
      <trkpt lat="43.39517" lon="2.25716">
        <ele>793.1</ele>
        <time>2019-08-11T06:38:11.000Z</time>
      </trkpt>
      <trkpt lat="43.39517" lon="2.25716">
        <ele>793.1</ele>
        <time>2019-08-11T06:38:12.000Z</time>
      </trkpt>
      <trkpt lat="43.39518" lon="2.25716">
        <ele>793.2</ele>
        <time>2019-08-11T06:38:13.000Z</time>
      </trkpt>
      <trkpt lat="43.39519" lon="2.25717">
        <ele>793.4</ele>
        <time>2019-08-11T06:38:14.000Z</time>
      </trkpt>
      <trkpt lat="43.3952" lon="2.25717">
        <ele>793.6</ele>
        <time>2019-08-11T06:38:15.000Z</time>
      </trkpt>
      <trkpt lat="43.39522" lon="2.25717">
        <ele>793.8</ele>
        <time>2019-08-11T06:38:16.000Z</time>
      </trkpt>
      <trkpt lat="43.39524" lon="2.25718">
        <ele>794</ele>
        <time>2019-08-11T06:38:17.000Z</time>
      </trkpt>
      <trkpt lat="43.39525" lon="2.25718">
        <ele>794.2</ele>
        <time>2019-08-11T06:38:18.000Z</time>
      </trkpt>
      <trkpt lat="43.39527" lon="2.25719">
        <ele>794.4</ele>
        <time>2019-08-11T06:38:19.000Z</time>
      </trkpt>
      <trkpt lat="43.39528" lon="2.25719">
        <ele>794.6</ele>
        <time>2019-08-11T06:38:20.000Z</time>
      </trkpt>
      <trkpt lat="43.3953" lon="2.2572">
        <ele>794.9</ele>
        <time>2019-08-11T06:38:21.000Z</time>
      </trkpt>
      <trkpt lat="43.39531" lon="2.25721">
        <ele>795.1</ele>
        <time>2019-08-11T06:38:22.000Z</time>
      </trkpt>
      <trkpt lat="43.39533" lon="2.25722">
        <ele>795.3</ele>
        <time>2019-08-11T06:38:23.000Z</time>
      </trkpt>
      <trkpt lat="43.39534" lon="2.25722">
        <ele>795.5</ele>
        <time>2019-08-11T06:38:24.000Z</time>
      </trkpt>
      <trkpt lat="43.39536" lon="2.25723">
        <ele>795.8</ele>
        <time>2019-08-11T06:38:25.000Z</time>
      </trkpt>
      <trkpt lat="43.39538" lon="2.25724">
        <ele>796</ele>
        <time>2019-08-11T06:38:26.000Z</time>
      </trkpt>
      <trkpt lat="43.3954" lon="2.25725">
        <ele>796.3</ele>
        <time>2019-08-11T06:38:27.000Z</time>
      </trkpt>
      <trkpt lat="43.39541" lon="2.25726">
        <ele>796.5</ele>
        <time>2019-08-11T06:38:28.000Z</time>
      </trkpt>
      <trkpt lat="43.39543" lon="2.25727">
        <ele>796.8</ele>
        <time>2019-08-11T06:38:29.000Z</time>
      </trkpt>
      <trkpt lat="43.39545" lon="2.25728">
        <ele>797.1</ele>
        <time>2019-08-11T06:38:30.000Z</time>
      </trkpt>
      <trkpt lat="43.39547" lon="2.25729">
        <ele>797.3</ele>
        <time>2019-08-11T06:38:31.000Z</time>
      </trkpt>
      <trkpt lat="43.39549" lon="2.2573">
        <ele>797.6</ele>
        <time>2019-08-11T06:38:32.000Z</time>
      </trkpt>
      <trkpt lat="43.39552" lon="2.25731">
        <ele>797.9</ele>
        <time>2019-08-11T06:38:33.000Z</time>
      </trkpt>
      <trkpt lat="43.39554" lon="2.25731">
        <ele>798.2</ele>
        <time>2019-08-11T06:38:34.000Z</time>
      </trkpt>
      <trkpt lat="43.39556" lon="2.25732">
        <ele>798.4</ele>
        <time>2019-08-11T06:38:35.000Z</time>
      </trkpt>
      <trkpt lat="43.39558" lon="2.25733">
        <ele>798.7</ele>
        <time>2019-08-11T06:38:36.000Z</time>
      </trkpt>
      <trkpt lat="43.39559" lon="2.25734">
        <ele>798.9</ele>
        <time>2019-08-11T06:38:37.000Z</time>
      </trkpt>
      <trkpt lat="43.39561" lon="2.25735">
        <ele>799.1</ele>
        <time>2019-08-11T06:38:38.000Z</time>
      </trkpt>
      <trkpt lat="43.39562" lon="2.25736">
        <ele>799.3</ele>
        <time>2019-08-11T06:38:39.000Z</time>
      </trkpt>
      <trkpt lat="43.39563" lon="2.25737">
        <ele>799.5</ele>
        <time>2019-08-11T06:38:40.000Z</time>
      </trkpt>
      <trkpt lat="43.39565" lon="2.25738">
        <ele>799.6</ele>
        <time>2019-08-11T06:38:41.000Z</time>
      </trkpt>
      <trkpt lat="43.39566" lon="2.25739">
        <ele>799.8</ele>
        <time>2019-08-11T06:38:42.000Z</time>
      </trkpt>
      <trkpt lat="43.39567" lon="2.25741">
        <ele>800</ele>
        <time>2019-08-11T06:38:43.000Z</time>
      </trkpt>
      <trkpt lat="43.39568" lon="2.25742">
        <ele>800.1</ele>
        <time>2019-08-11T06:38:44.000Z</time>
      </trkpt>
      <trkpt lat="43.39569" lon="2.25743">
        <ele>800.3</ele>
        <time>2019-08-11T06:38:45.000Z</time>
      </trkpt>
      <trkpt lat="43.3957" lon="2.25745">
        <ele>800.5</ele>
        <time>2019-08-11T06:38:46.000Z</time>
      </trkpt>
      <trkpt lat="43.39571" lon="2.25746">
        <ele>800.7</ele>
        <time>2019-08-11T06:38:47.000Z</time>
      </trkpt>
      <trkpt lat="43.39573" lon="2.25748">
        <ele>800.9</ele>
        <time>2019-08-11T06:38:48.000Z</time>
      </trkpt>
      <trkpt lat="43.39574" lon="2.25749">
        <ele>801.1</ele>
        <time>2019-08-11T06:38:49.000Z</time>
      </trkpt>
      <trkpt lat="43.39576" lon="2.25751">
        <ele>801.3</ele>
        <time>2019-08-11T06:38:50.000Z</time>
      </trkpt>
      <trkpt lat="43.39577" lon="2.25752">
        <ele>801.5</ele>
        <time>2019-08-11T06:38:51.000Z</time>
      </trkpt>
      <trkpt lat="43.39579" lon="2.25753">
        <ele>801.8</ele>
        <time>2019-08-11T06:38:52.000Z</time>
      </trkpt>
      <trkpt lat="43.39581" lon="2.25755">
        <ele>802</ele>
        <time>2019-08-11T06:38:53.000Z</time>
      </trkpt>
      <trkpt lat="43.39583" lon="2.25756">
        <ele>802.3</ele>
        <time>2019-08-11T06:38:54.000Z</time>
      </trkpt>
      <trkpt lat="43.39585" lon="2.25757">
        <ele>802.4</ele>
        <time>2019-08-11T06:38:55.000Z</time>
      </trkpt>
      <trkpt lat="43.39587" lon="2.25758">
        <ele>802.4</ele>
        <time>2019-08-11T06:38:56.000Z</time>
      </trkpt>
      <trkpt lat="43.39589" lon="2.2576">
        <ele>802.5</ele>
        <time>2019-08-11T06:38:57.000Z</time>
      </trkpt>
      <trkpt lat="43.39591" lon="2.25761">
        <ele>802.6</ele>
        <time>2019-08-11T06:38:58.000Z</time>
      </trkpt>
      <trkpt lat="43.39593" lon="2.25762">
        <ele>802.7</ele>
        <time>2019-08-11T06:38:59.000Z</time>
      </trkpt>
      <trkpt lat="43.39595" lon="2.25764">
        <ele>802.8</ele>
        <time>2019-08-11T06:39:00.000Z</time>
      </trkpt>
      <trkpt lat="43.39597" lon="2.25765">
        <ele>802.8</ele>
        <time>2019-08-11T06:39:01.000Z</time>
      </trkpt>
      <trkpt lat="43.39599" lon="2.25767">
        <ele>802.9</ele>
        <time>2019-08-11T06:39:02.000Z</time>
      </trkpt>
      <trkpt lat="43.39601" lon="2.25768">
        <ele>803</ele>
        <time>2019-08-11T06:39:03.000Z</time>
      </trkpt>
      <trkpt lat="43.39603" lon="2.2577">
        <ele>803.1</ele>
        <time>2019-08-11T06:39:04.000Z</time>
      </trkpt>
      <trkpt lat="43.39605" lon="2.25771">
        <ele>803.1</ele>
        <time>2019-08-11T06:39:05.000Z</time>
      </trkpt>
      <trkpt lat="43.39607" lon="2.25772">
        <ele>803.2</ele>
        <time>2019-08-11T06:39:06.000Z</time>
      </trkpt>
      <trkpt lat="43.39609" lon="2.25774">
        <ele>803.3</ele>
        <time>2019-08-11T06:39:07.000Z</time>
      </trkpt>
      <trkpt lat="43.39611" lon="2.25775">
        <ele>803.3</ele>
        <time>2019-08-11T06:39:08.000Z</time>
      </trkpt>
      <trkpt lat="43.39612" lon="2.25776">
        <ele>803.4</ele>
        <time>2019-08-11T06:39:09.000Z</time>
      </trkpt>
      <trkpt lat="43.39614" lon="2.25777">
        <ele>803.4</ele>
        <time>2019-08-11T06:39:10.000Z</time>
      </trkpt>
      <trkpt lat="43.39616" lon="2.25778">
        <ele>803.5</ele>
        <time>2019-08-11T06:39:11.000Z</time>
      </trkpt>
      <trkpt lat="43.39617" lon="2.25779">
        <ele>803.5</ele>
        <time>2019-08-11T06:39:12.000Z</time>
      </trkpt>
      <trkpt lat="43.39619" lon="2.2578">
        <ele>803.6</ele>
        <time>2019-08-11T06:39:13.000Z</time>
      </trkpt>
      <trkpt lat="43.3962" lon="2.25781">
        <ele>803.6</ele>
        <time>2019-08-11T06:39:14.000Z</time>
      </trkpt>
      <trkpt lat="43.39621" lon="2.25781">
        <ele>803.6</ele>
        <time>2019-08-11T06:39:15.000Z</time>
      </trkpt>
      <trkpt lat="43.39623" lon="2.25782">
        <ele>803.6</ele>
        <time>2019-08-11T06:39:16.000Z</time>
      </trkpt>
      <trkpt lat="43.39624" lon="2.25783">
        <ele>803.7</ele>
        <time>2019-08-11T06:39:17.000Z</time>
      </trkpt>
      <trkpt lat="43.39626" lon="2.25784">
        <ele>803.7</ele>
        <time>2019-08-11T06:39:18.000Z</time>
      </trkpt>
      <trkpt lat="43.39628" lon="2.25785">
        <ele>803.8</ele>
        <time>2019-08-11T06:39:19.000Z</time>
      </trkpt>
      <trkpt lat="43.39629" lon="2.25787">
        <ele>803.8</ele>
        <time>2019-08-11T06:39:20.000Z</time>
      </trkpt>
      <trkpt lat="43.39631" lon="2.25789">
        <ele>803.9</ele>
        <time>2019-08-11T06:39:21.000Z</time>
      </trkpt>
      <trkpt lat="43.39633" lon="2.25791">
        <ele>804</ele>
        <time>2019-08-11T06:39:22.000Z</time>
      </trkpt>
      <trkpt lat="43.39635" lon="2.25794">
        <ele>804.1</ele>
        <time>2019-08-11T06:39:23.000Z</time>
      </trkpt>
      <trkpt lat="43.39636" lon="2.25796">
        <ele>804.1</ele>
        <time>2019-08-11T06:39:24.000Z</time>
      </trkpt>
      <trkpt lat="43.39638" lon="2.25798">
        <ele>804.2</ele>
        <time>2019-08-11T06:39:25.000Z</time>
      </trkpt>
      <trkpt lat="43.3964" lon="2.25801">
        <ele>804.3</ele>
        <time>2019-08-11T06:39:26.000Z</time>
      </trkpt>
      <trkpt lat="43.39641" lon="2.25802">
        <ele>804.3</ele>
        <time>2019-08-11T06:39:27.000Z</time>
      </trkpt>
      <trkpt lat="43.39642" lon="2.25804">
        <ele>804.4</ele>
        <time>2019-08-11T06:39:28.000Z</time>
      </trkpt>
      <trkpt lat="43.39643" lon="2.25806">
        <ele>804.4</ele>
        <time>2019-08-11T06:39:29.000Z</time>
      </trkpt>
      <trkpt lat="43.39644" lon="2.25808">
        <ele>804.5</ele>
        <time>2019-08-11T06:39:30.000Z</time>
      </trkpt>
      <trkpt lat="43.39645" lon="2.25809">
        <ele>804.5</ele>
        <time>2019-08-11T06:39:31.000Z</time>
      </trkpt>
      <trkpt lat="43.39646" lon="2.25811">
        <ele>804.6</ele>
        <time>2019-08-11T06:39:32.000Z</time>
      </trkpt>
      <trkpt lat="43.39647" lon="2.25814">
        <ele>804.6</ele>
        <time>2019-08-11T06:39:33.000Z</time>
      </trkpt>
      <trkpt lat="43.39648" lon="2.25816">
        <ele>804.7</ele>
        <time>2019-08-11T06:39:34.000Z</time>
      </trkpt>
      <trkpt lat="43.3965" lon="2.25819">
        <ele>804.8</ele>
        <time>2019-08-11T06:39:35.000Z</time>
      </trkpt>
      <trkpt lat="43.39651" lon="2.25823">
        <ele>804.9</ele>
        <time>2019-08-11T06:39:36.000Z</time>
      </trkpt>
      <trkpt lat="43.39652" lon="2.25826">
        <ele>805</ele>
        <time>2019-08-11T06:39:37.000Z</time>
      </trkpt>
      <trkpt lat="43.39653" lon="2.2583">
        <ele>805.1</ele>
        <time>2019-08-11T06:39:38.000Z</time>
      </trkpt>
      <trkpt lat="43.39653" lon="2.25834">
        <ele>805.2</ele>
        <time>2019-08-11T06:39:39.000Z</time>
      </trkpt>
      <trkpt lat="43.39654" lon="2.25837">
        <ele>805.3</ele>
        <time>2019-08-11T06:39:40.000Z</time>
      </trkpt>
      <trkpt lat="43.39654" lon="2.25841">
        <ele>805.4</ele>
        <time>2019-08-11T06:39:41.000Z</time>
      </trkpt>
      <trkpt lat="43.39654" lon="2.25844">
        <ele>805.5</ele>
        <time>2019-08-11T06:39:42.000Z</time>
      </trkpt>
      <trkpt lat="43.39654" lon="2.25848">
        <ele>805.5</ele>
        <time>2019-08-11T06:39:43.000Z</time>
      </trkpt>
      <trkpt lat="43.39654" lon="2.25851">
        <ele>805.6</ele>
        <time>2019-08-11T06:39:44.000Z</time>
      </trkpt>
      <trkpt lat="43.39653" lon="2.25854">
        <ele>805.7</ele>
        <time>2019-08-11T06:39:45.000Z</time>
      </trkpt>
      <trkpt lat="43.39653" lon="2.25856">
        <ele>805.8</ele>
        <time>2019-08-11T06:39:46.000Z</time>
      </trkpt>
      <trkpt lat="43.39652" lon="2.25859">
        <ele>805.9</ele>
        <time>2019-08-11T06:39:47.000Z</time>
      </trkpt>
      <trkpt lat="43.39651" lon="2.25861">
        <ele>806</ele>
        <time>2019-08-11T06:39:48.000Z</time>
      </trkpt>
      <trkpt lat="43.39651" lon="2.25863">
        <ele>806</ele>
        <time>2019-08-11T06:39:49.000Z</time>
      </trkpt>
      <trkpt lat="43.3965" lon="2.25865">
        <ele>806.1</ele>
        <time>2019-08-11T06:39:50.000Z</time>
      </trkpt>
      <trkpt lat="43.39649" lon="2.25866">
        <ele>806.2</ele>
        <time>2019-08-11T06:39:51.000Z</time>
      </trkpt>
      <trkpt lat="43.39648" lon="2.25868">
        <ele>806.2</ele>
        <time>2019-08-11T06:39:52.000Z</time>
      </trkpt>
      <trkpt lat="43.39648" lon="2.25869">
        <ele>806.3</ele>
        <time>2019-08-11T06:39:53.000Z</time>
      </trkpt>
      <trkpt lat="43.39647" lon="2.25871">
        <ele>806.4</ele>
        <time>2019-08-11T06:39:54.000Z</time>
      </trkpt>
      <trkpt lat="43.39646" lon="2.25874">
        <ele>806.5</ele>
        <time>2019-08-11T06:39:55.000Z</time>
      </trkpt>
      <trkpt lat="43.39644" lon="2.25876">
        <ele>806.6</ele>
        <time>2019-08-11T06:39:56.000Z</time>
      </trkpt>
      <trkpt lat="43.39643" lon="2.25879">
        <ele>806.7</ele>
        <time>2019-08-11T06:39:57.000Z</time>
      </trkpt>
      <trkpt lat="43.39642" lon="2.25882">
        <ele>806.8</ele>
        <time>2019-08-11T06:39:58.000Z</time>
      </trkpt>
      <trkpt lat="43.3964" lon="2.25886">
        <ele>807</ele>
        <time>2019-08-11T06:39:59.000Z</time>
      </trkpt>
      <trkpt lat="43.39639" lon="2.25889">
        <ele>807.1</ele>
        <time>2019-08-11T06:40:00.000Z</time>
      </trkpt>
      <trkpt lat="43.39637" lon="2.25892">
        <ele>807.3</ele>
        <time>2019-08-11T06:40:01.000Z</time>
      </trkpt>
      <trkpt lat="43.39636" lon="2.25895">
        <ele>807.4</ele>
        <time>2019-08-11T06:40:02.000Z</time>
      </trkpt>
      <trkpt lat="43.39634" lon="2.25898">
        <ele>807.6</ele>
        <time>2019-08-11T06:40:03.000Z</time>
      </trkpt>
      <trkpt lat="43.39633" lon="2.25901">
        <ele>807.7</ele>
        <time>2019-08-11T06:40:04.000Z</time>
      </trkpt>
      <trkpt lat="43.39631" lon="2.25904">
        <ele>807.8</ele>
        <time>2019-08-11T06:40:05.000Z</time>
      </trkpt>
      <trkpt lat="43.39629" lon="2.25907">
        <ele>808</ele>
        <time>2019-08-11T06:40:06.000Z</time>
      </trkpt>
      <trkpt lat="43.39628" lon="2.25909">
        <ele>808.1</ele>
        <time>2019-08-11T06:40:07.000Z</time>
      </trkpt>
      <trkpt lat="43.39626" lon="2.25911">
        <ele>808.3</ele>
        <time>2019-08-11T06:40:08.000Z</time>
      </trkpt>
      <trkpt lat="43.39624" lon="2.25914">
        <ele>808.4</ele>
        <time>2019-08-11T06:40:09.000Z</time>
      </trkpt>
      <trkpt lat="43.39623" lon="2.25916">
        <ele>808.6</ele>
        <time>2019-08-11T06:40:10.000Z</time>
      </trkpt>
      <trkpt lat="43.39621" lon="2.25918">
        <ele>808.7</ele>
        <time>2019-08-11T06:40:11.000Z</time>
      </trkpt>
      <trkpt lat="43.3962" lon="2.25921">
        <ele>808.8</ele>
        <time>2019-08-11T06:40:12.000Z</time>
      </trkpt>
      <trkpt lat="43.39619" lon="2.25923">
        <ele>808.9</ele>
        <time>2019-08-11T06:40:13.000Z</time>
      </trkpt>
      <trkpt lat="43.39617" lon="2.25925">
        <ele>809</ele>
        <time>2019-08-11T06:40:14.000Z</time>
      </trkpt>
      <trkpt lat="43.39616" lon="2.25928">
        <ele>809.1</ele>
        <time>2019-08-11T06:40:15.000Z</time>
      </trkpt>
      <trkpt lat="43.39615" lon="2.2593">
        <ele>809.2</ele>
        <time>2019-08-11T06:40:16.000Z</time>
      </trkpt>
      <trkpt lat="43.39614" lon="2.25933">
        <ele>809.3</ele>
        <time>2019-08-11T06:40:17.000Z</time>
      </trkpt>
      <trkpt lat="43.39612" lon="2.25935">
        <ele>809.5</ele>
        <time>2019-08-11T06:40:18.000Z</time>
      </trkpt>
      <trkpt lat="43.39611" lon="2.25938">
        <ele>809.6</ele>
        <time>2019-08-11T06:40:19.000Z</time>
      </trkpt>
      <trkpt lat="43.3961" lon="2.2594">
        <ele>809.7</ele>
        <time>2019-08-11T06:40:20.000Z</time>
      </trkpt>
      <trkpt lat="43.39609" lon="2.25943">
        <ele>809.8</ele>
        <time>2019-08-11T06:40:21.000Z</time>
      </trkpt>
      <trkpt lat="43.39608" lon="2.25945">
        <ele>809.9</ele>
        <time>2019-08-11T06:40:22.000Z</time>
      </trkpt>
      <trkpt lat="43.39608" lon="2.25948">
        <ele>810</ele>
        <time>2019-08-11T06:40:23.000Z</time>
      </trkpt>
      <trkpt lat="43.39607" lon="2.25951">
        <ele>810.2</ele>
        <time>2019-08-11T06:40:24.000Z</time>
      </trkpt>
      <trkpt lat="43.39606" lon="2.25954">
        <ele>810.3</ele>
        <time>2019-08-11T06:40:25.000Z</time>
      </trkpt>
      <trkpt lat="43.39605" lon="2.25957">
        <ele>810.4</ele>
        <time>2019-08-11T06:40:26.000Z</time>
      </trkpt>
      <trkpt lat="43.39604" lon="2.2596">
        <ele>810.5</ele>
        <time>2019-08-11T06:40:27.000Z</time>
      </trkpt>
      <trkpt lat="43.39604" lon="2.25962">
        <ele>810.6</ele>
        <time>2019-08-11T06:40:28.000Z</time>
      </trkpt>
      <trkpt lat="43.39603" lon="2.25965">
        <ele>810.8</ele>
        <time>2019-08-11T06:40:29.000Z</time>
      </trkpt>
      <trkpt lat="43.39602" lon="2.25968">
        <ele>810.9</ele>
        <time>2019-08-11T06:40:30.000Z</time>
      </trkpt>
      <trkpt lat="43.39601" lon="2.25972">
        <ele>811</ele>
        <time>2019-08-11T06:40:31.000Z</time>
      </trkpt>
      <trkpt lat="43.39601" lon="2.25975">
        <ele>811.2</ele>
        <time>2019-08-11T06:40:32.000Z</time>
      </trkpt>
      <trkpt lat="43.396" lon="2.25978">
        <ele>811.3</ele>
        <time>2019-08-11T06:40:33.000Z</time>
      </trkpt>
      <trkpt lat="43.39599" lon="2.25981">
        <ele>811.4</ele>
        <time>2019-08-11T06:40:34.000Z</time>
      </trkpt>
      <trkpt lat="43.39598" lon="2.25984">
        <ele>811.6</ele>
        <time>2019-08-11T06:40:35.000Z</time>
      </trkpt>
      <trkpt lat="43.39597" lon="2.25987">
        <ele>811.7</ele>
        <time>2019-08-11T06:40:36.000Z</time>
      </trkpt>
      <trkpt lat="43.39596" lon="2.2599">
        <ele>811.9</ele>
        <time>2019-08-11T06:40:37.000Z</time>
      </trkpt>
      <trkpt lat="43.39595" lon="2.25993">
        <ele>812</ele>
        <time>2019-08-11T06:40:38.000Z</time>
      </trkpt>
      <trkpt lat="43.39594" lon="2.25996">
        <ele>812.2</ele>
        <time>2019-08-11T06:40:39.000Z</time>
      </trkpt>
      <trkpt lat="43.39593" lon="2.25998">
        <ele>812.3</ele>
        <time>2019-08-11T06:40:40.000Z</time>
      </trkpt>
      <trkpt lat="43.39592" lon="2.26001">
        <ele>812.5</ele>
        <time>2019-08-11T06:40:41.000Z</time>
      </trkpt>
      <trkpt lat="43.39591" lon="2.26004">
        <ele>812.7</ele>
        <time>2019-08-11T06:40:42.000Z</time>
      </trkpt>
      <trkpt lat="43.3959" lon="2.26007">
        <ele>812.9</ele>
        <time>2019-08-11T06:40:43.000Z</time>
      </trkpt>
      <trkpt lat="43.3959" lon="2.2601">
        <ele>813</ele>
        <time>2019-08-11T06:40:44.000Z</time>
      </trkpt>
      <trkpt lat="43.39589" lon="2.26013">
        <ele>813.2</ele>
        <time>2019-08-11T06:40:45.000Z</time>
      </trkpt>
      <trkpt lat="43.39588" lon="2.26016">
        <ele>813.3</ele>
        <time>2019-08-11T06:40:46.000Z</time>
      </trkpt>
      <trkpt lat="43.39588" lon="2.2602">
        <ele>813.5</ele>
        <time>2019-08-11T06:40:47.000Z</time>
      </trkpt>
      <trkpt lat="43.39587" lon="2.26023">
        <ele>813.6</ele>
        <time>2019-08-11T06:40:48.000Z</time>
      </trkpt>
      <trkpt lat="43.39587" lon="2.26026">
        <ele>813.7</ele>
        <time>2019-08-11T06:40:49.000Z</time>
      </trkpt>
      <trkpt lat="43.39587" lon="2.26029">
        <ele>813.9</ele>
        <time>2019-08-11T06:40:50.000Z</time>
      </trkpt>
      <trkpt lat="43.39586" lon="2.26032">
        <ele>814</ele>
        <time>2019-08-11T06:40:51.000Z</time>
      </trkpt>
      <trkpt lat="43.39586" lon="2.26036">
        <ele>814.1</ele>
        <time>2019-08-11T06:40:52.000Z</time>
      </trkpt>
      <trkpt lat="43.39586" lon="2.26039">
        <ele>814.3</ele>
        <time>2019-08-11T06:40:53.000Z</time>
      </trkpt>
      <trkpt lat="43.39585" lon="2.26042">
        <ele>814.4</ele>
        <time>2019-08-11T06:40:54.000Z</time>
      </trkpt>
      <trkpt lat="43.39585" lon="2.26045">
        <ele>814.5</ele>
        <time>2019-08-11T06:40:55.000Z</time>
      </trkpt>
      <trkpt lat="43.39585" lon="2.26048">
        <ele>814.7</ele>
        <time>2019-08-11T06:40:56.000Z</time>
      </trkpt>
      <trkpt lat="43.39584" lon="2.26051">
        <ele>814.8</ele>
        <time>2019-08-11T06:40:57.000Z</time>
      </trkpt>
      <trkpt lat="43.39584" lon="2.26053">
        <ele>814.9</ele>
        <time>2019-08-11T06:40:58.000Z</time>
      </trkpt>
      <trkpt lat="43.39583" lon="2.26055">
        <ele>815</ele>
        <time>2019-08-11T06:40:59.000Z</time>
      </trkpt>
      <trkpt lat="43.39583" lon="2.26057">
        <ele>815</ele>
        <time>2019-08-11T06:41:00.000Z</time>
      </trkpt>
      <trkpt lat="43.39582" lon="2.26059">
        <ele>815.1</ele>
        <time>2019-08-11T06:41:01.000Z</time>
      </trkpt>
      <trkpt lat="43.39581" lon="2.26061">
        <ele>815.2</ele>
        <time>2019-08-11T06:41:02.000Z</time>
      </trkpt>
      <trkpt lat="43.3958" lon="2.26062">
        <ele>815.2</ele>
        <time>2019-08-11T06:41:03.000Z</time>
      </trkpt>
      <trkpt lat="43.3958" lon="2.26064">
        <ele>815.2</ele>
        <time>2019-08-11T06:41:04.000Z</time>
      </trkpt>
      <trkpt lat="43.39579" lon="2.26065">
        <ele>815.3</ele>
        <time>2019-08-11T06:41:05.000Z</time>
      </trkpt>
      <trkpt lat="43.39578" lon="2.26067">
        <ele>815.3</ele>
        <time>2019-08-11T06:41:06.000Z</time>
      </trkpt>
      <trkpt lat="43.39577" lon="2.26068">
        <ele>815.4</ele>
        <time>2019-08-11T06:41:07.000Z</time>
      </trkpt>
      <trkpt lat="43.39576" lon="2.2607">
        <ele>815.4</ele>
        <time>2019-08-11T06:41:08.000Z</time>
      </trkpt>
      <trkpt lat="43.39574" lon="2.26072">
        <ele>815.5</ele>
        <time>2019-08-11T06:41:09.000Z</time>
      </trkpt>
      <trkpt lat="43.39573" lon="2.26074">
        <ele>815.5</ele>
        <time>2019-08-11T06:41:10.000Z</time>
      </trkpt>
      <trkpt lat="43.39572" lon="2.26076">
        <ele>815.6</ele>
        <time>2019-08-11T06:41:11.000Z</time>
      </trkpt>
      <trkpt lat="43.3957" lon="2.26078">
        <ele>815.6</ele>
        <time>2019-08-11T06:41:12.000Z</time>
      </trkpt>
      <trkpt lat="43.39569" lon="2.2608">
        <ele>815.7</ele>
        <time>2019-08-11T06:41:13.000Z</time>
      </trkpt>
      <trkpt lat="43.39567" lon="2.26082">
        <ele>815.8</ele>
        <time>2019-08-11T06:41:14.000Z</time>
      </trkpt>
      <trkpt lat="43.39565" lon="2.26084">
        <ele>815.8</ele>
        <time>2019-08-11T06:41:15.000Z</time>
      </trkpt>
      <trkpt lat="43.39563" lon="2.26087">
        <ele>815.8</ele>
        <time>2019-08-11T06:41:16.000Z</time>
      </trkpt>
      <trkpt lat="43.39561" lon="2.2609">
        <ele>815.8</ele>
        <time>2019-08-11T06:41:17.000Z</time>
      </trkpt>
      <trkpt lat="43.39559" lon="2.26092">
        <ele>815.9</ele>
        <time>2019-08-11T06:41:18.000Z</time>
      </trkpt>
      <trkpt lat="43.39557" lon="2.26095">
        <ele>815.9</ele>
        <time>2019-08-11T06:41:19.000Z</time>
      </trkpt>
      <trkpt lat="43.39554" lon="2.26098">
        <ele>815.9</ele>
        <time>2019-08-11T06:41:20.000Z</time>
      </trkpt>
      <trkpt lat="43.39552" lon="2.26101">
        <ele>815.9</ele>
        <time>2019-08-11T06:41:21.000Z</time>
      </trkpt>
      <trkpt lat="43.3955" lon="2.26102">
        <ele>815.9</ele>
        <time>2019-08-11T06:41:22.000Z</time>
      </trkpt>
      <trkpt lat="43.39549" lon="2.26103">
        <ele>815.9</ele>
        <time>2019-08-11T06:41:23.000Z</time>
      </trkpt>
      <trkpt lat="43.39548" lon="2.26104">
        <ele>815.9</ele>
        <time>2019-08-11T06:41:24.000Z</time>
      </trkpt>
      <trkpt lat="43.39546" lon="2.26105">
        <ele>815.8</ele>
        <time>2019-08-11T06:41:25.000Z</time>
      </trkpt>
      <trkpt lat="43.39545" lon="2.26107">
        <ele>815.8</ele>
        <time>2019-08-11T06:41:26.000Z</time>
      </trkpt>
      <trkpt lat="43.39543" lon="2.26109">
        <ele>815.8</ele>
        <time>2019-08-11T06:41:27.000Z</time>
      </trkpt>
      <trkpt lat="43.39542" lon="2.26111">
        <ele>815.8</ele>
        <time>2019-08-11T06:41:28.000Z</time>
      </trkpt>
      <trkpt lat="43.39541" lon="2.26112">
        <ele>815.8</ele>
        <time>2019-08-11T06:41:29.000Z</time>
      </trkpt>
      <trkpt lat="43.39539" lon="2.26114">
        <ele>815.8</ele>
        <time>2019-08-11T06:41:30.000Z</time>
      </trkpt>
      <trkpt lat="43.39538" lon="2.26116">
        <ele>815.8</ele>
        <time>2019-08-11T06:41:31.000Z</time>
      </trkpt>
      <trkpt lat="43.39537" lon="2.26118">
        <ele>815.8</ele>
        <time>2019-08-11T06:41:32.000Z</time>
      </trkpt>
      <trkpt lat="43.39536" lon="2.2612">
        <ele>815.8</ele>
        <time>2019-08-11T06:41:33.000Z</time>
      </trkpt>
      <trkpt lat="43.39534" lon="2.26122">
        <ele>815.8</ele>
        <time>2019-08-11T06:41:34.000Z</time>
      </trkpt>
      <trkpt lat="43.39533" lon="2.26124">
        <ele>815.8</ele>
        <time>2019-08-11T06:41:35.000Z</time>
      </trkpt>
      <trkpt lat="43.39531" lon="2.26127">
        <ele>815.8</ele>
        <time>2019-08-11T06:41:36.000Z</time>
      </trkpt>
      <trkpt lat="43.3953" lon="2.26129">
        <ele>815.7</ele>
        <time>2019-08-11T06:41:37.000Z</time>
      </trkpt>
      <trkpt lat="43.39528" lon="2.26131">
        <ele>815.7</ele>
        <time>2019-08-11T06:41:38.000Z</time>
      </trkpt>
      <trkpt lat="43.39527" lon="2.26132">
        <ele>815.7</ele>
        <time>2019-08-11T06:41:39.000Z</time>
      </trkpt>
      <trkpt lat="43.39526" lon="2.26134">
        <ele>815.7</ele>
        <time>2019-08-11T06:41:40.000Z</time>
      </trkpt>
      <trkpt lat="43.39525" lon="2.26135">
        <ele>815.7</ele>
        <time>2019-08-11T06:41:41.000Z</time>
      </trkpt>
      <trkpt lat="43.39524" lon="2.26136">
        <ele>815.7</ele>
        <time>2019-08-11T06:41:42.000Z</time>
      </trkpt>
      <trkpt lat="43.39523" lon="2.26137">
        <ele>815.6</ele>
        <time>2019-08-11T06:41:43.000Z</time>
      </trkpt>
      <trkpt lat="43.39523" lon="2.26138">
        <ele>815.6</ele>
        <time>2019-08-11T06:41:44.000Z</time>
      </trkpt>
      <trkpt lat="43.39522" lon="2.26138">
        <ele>815.6</ele>
        <time>2019-08-11T06:41:45.000Z</time>
      </trkpt>
      <trkpt lat="43.39522" lon="2.26138">
        <ele>815.6</ele>
        <time>2019-08-11T06:41:46.000Z</time>
      </trkpt>
      <trkpt lat="43.39521" lon="2.26138">
        <ele>815.6</ele>
        <time>2019-08-11T06:41:47.000Z</time>
      </trkpt>
      <trkpt lat="43.39521" lon="2.26139">
        <ele>815.6</ele>
        <time>2019-08-11T06:41:48.000Z</time>
      </trkpt>
      <trkpt lat="43.39521" lon="2.26139">
        <ele>815.6</ele>
        <time>2019-08-11T06:41:49.000Z</time>
      </trkpt>
      <trkpt lat="43.39521" lon="2.26139">
        <ele>815.6</ele>
        <time>2019-08-11T06:41:50.000Z</time>
      </trkpt>
      <trkpt lat="43.39521" lon="2.26139">
        <ele>815.6</ele>
        <time>2019-08-11T06:41:51.000Z</time>
      </trkpt>
      <trkpt lat="43.39521" lon="2.26139">
        <ele>815.6</ele>
        <time>2019-08-11T06:41:52.000Z</time>
      </trkpt>
      <trkpt lat="43.3952" lon="2.26139">
        <ele>815.6</ele>
        <time>2019-08-11T06:41:53.000Z</time>
      </trkpt>
      <trkpt lat="43.3952" lon="2.26139">
        <ele>815.6</ele>
        <time>2019-08-11T06:41:54.000Z</time>
      </trkpt>
      <trkpt lat="43.3952" lon="2.26139">
        <ele>815.6</ele>
        <time>2019-08-11T06:41:55.000Z</time>
      </trkpt>
      <trkpt lat="43.3952" lon="2.26139">
        <ele>815.6</ele>
        <time>2019-08-11T06:41:56.000Z</time>
      </trkpt>
      <trkpt lat="43.3952" lon="2.26139">
        <ele>815.6</ele>
        <time>2019-08-11T06:41:57.000Z</time>
      </trkpt>
      <trkpt lat="43.3952" lon="2.26139">
        <ele>815.6</ele>
        <time>2019-08-11T06:41:58.000Z</time>
      </trkpt>
      <trkpt lat="43.3952" lon="2.26139">
        <ele>815.6</ele>
        <time>2019-08-11T06:41:59.000Z</time>
      </trkpt>
      <trkpt lat="43.3952" lon="2.26139">
        <ele>815.6</ele>
        <time>2019-08-11T06:42:00.000Z</time>
      </trkpt>
      <trkpt lat="43.3952" lon="2.26139">
        <ele>815.6</ele>
        <time>2019-08-11T06:42:01.000Z</time>
      </trkpt>
      <trkpt lat="43.3952" lon="2.26139">
        <ele>815.6</ele>
        <time>2019-08-11T06:42:02.000Z</time>
      </trkpt>
      <trkpt lat="43.3952" lon="2.26139">
        <ele>815.6</ele>
        <time>2019-08-11T06:42:03.000Z</time>
      </trkpt>
      <trkpt lat="43.3952" lon="2.26139">
        <ele>815.6</ele>
        <time>2019-08-11T06:42:04.000Z</time>
      </trkpt>
      <trkpt lat="43.3952" lon="2.26139">
        <ele>815.6</ele>
        <time>2019-08-11T06:42:05.000Z</time>
      </trkpt>
      <trkpt lat="43.3952" lon="2.26139">
        <ele>815.6</ele>
        <time>2019-08-11T06:42:06.000Z</time>
      </trkpt>
      <trkpt lat="43.3952" lon="2.26139">
        <ele>815.6</ele>
        <time>2019-08-11T06:42:07.000Z</time>
      </trkpt>
      <trkpt lat="43.3952" lon="2.26139">
        <ele>815.6</ele>
        <time>2019-08-11T06:42:08.000Z</time>
      </trkpt>
      <trkpt lat="43.3952" lon="2.26139">
        <ele>815.6</ele>
        <time>2019-08-11T06:42:09.000Z</time>
      </trkpt>
      <trkpt lat="43.3952" lon="2.26139">
        <ele>815.6</ele>
        <time>2019-08-11T06:42:10.000Z</time>
      </trkpt>
      <trkpt lat="43.3952" lon="2.26139">
        <ele>815.6</ele>
        <time>2019-08-11T06:42:11.000Z</time>
      </trkpt>
      <trkpt lat="43.3952" lon="2.26139">
        <ele>815.6</ele>
        <time>2019-08-11T06:42:12.000Z</time>
      </trkpt>
      <trkpt lat="43.3952" lon="2.26139">
        <ele>815.6</ele>
        <time>2019-08-11T06:42:13.000Z</time>
      </trkpt>
      <trkpt lat="43.3952" lon="2.26139">
        <ele>815.6</ele>
        <time>2019-08-11T06:42:14.000Z</time>
      </trkpt>
      <trkpt lat="43.3952" lon="2.26139">
        <ele>815.6</ele>
        <time>2019-08-11T06:42:15.000Z</time>
      </trkpt>
      <trkpt lat="43.3952" lon="2.26139">
        <ele>815.6</ele>
        <time>2019-08-11T06:42:16.000Z</time>
      </trkpt>
      <trkpt lat="43.3952" lon="2.26139">
        <ele>815.6</ele>
        <time>2019-08-11T06:42:17.000Z</time>
      </trkpt>
      <trkpt lat="43.3952" lon="2.26139">
        <ele>815.6</ele>
        <time>2019-08-11T06:42:18.000Z</time>
      </trkpt>
      <trkpt lat="43.3952" lon="2.26139">
        <ele>815.6</ele>
        <time>2019-08-11T06:42:19.000Z</time>
      </trkpt>
      <trkpt lat="43.3952" lon="2.26139">
        <ele>815.6</ele>
        <time>2019-08-11T06:42:20.000Z</time>
      </trkpt>
      <trkpt lat="43.3952" lon="2.26139">
        <ele>815.6</ele>
        <time>2019-08-11T06:42:21.000Z</time>
      </trkpt>
      <trkpt lat="43.3952" lon="2.26139">
        <ele>815.6</ele>
        <time>2019-08-11T06:42:22.000Z</time>
      </trkpt>
      <trkpt lat="43.3952" lon="2.26139">
        <ele>815.6</ele>
        <time>2019-08-11T06:42:23.000Z</time>
      </trkpt>
      <trkpt lat="43.3952" lon="2.26139">
        <ele>815.6</ele>
        <time>2019-08-11T06:42:24.000Z</time>
      </trkpt>
      <trkpt lat="43.3952" lon="2.26139">
        <ele>815.6</ele>
        <time>2019-08-11T06:42:25.000Z</time>
      </trkpt>
      <trkpt lat="43.3952" lon="2.26139">
        <ele>815.6</ele>
        <time>2019-08-11T06:42:26.000Z</time>
      </trkpt>
      <trkpt lat="43.3952" lon="2.26139">
        <ele>815.6</ele>
        <time>2019-08-11T06:42:27.000Z</time>
      </trkpt>
      <trkpt lat="43.3952" lon="2.26139">
        <ele>815.6</ele>
        <time>2019-08-11T06:42:28.000Z</time>
      </trkpt>
      <trkpt lat="43.3952" lon="2.26139">
        <ele>815.6</ele>
        <time>2019-08-11T06:42:29.000Z</time>
      </trkpt>
      <trkpt lat="43.3952" lon="2.26139">
        <ele>815.6</ele>
        <time>2019-08-11T06:42:30.000Z</time>
      </trkpt>
      <trkpt lat="43.3952" lon="2.26139">
        <ele>815.6</ele>
        <time>2019-08-11T06:42:31.000Z</time>
      </trkpt>
      <trkpt lat="43.3952" lon="2.26139">
        <ele>815.6</ele>
        <time>2019-08-11T06:42:32.000Z</time>
      </trkpt>
      <trkpt lat="43.3952" lon="2.26139">
        <ele>815.6</ele>
        <time>2019-08-11T06:42:33.000Z</time>
      </trkpt>
      <trkpt lat="43.3952" lon="2.26139">
        <ele>815.6</ele>
        <time>2019-08-11T06:42:34.000Z</time>
      </trkpt>
      <trkpt lat="43.3952" lon="2.26139">
        <ele>815.6</ele>
        <time>2019-08-11T06:42:35.000Z</time>
      </trkpt>
      <trkpt lat="43.3952" lon="2.26139">
        <ele>815.6</ele>
        <time>2019-08-11T06:42:36.000Z</time>
      </trkpt>
      <trkpt lat="43.3952" lon="2.26139">
        <ele>815.6</ele>
        <time>2019-08-11T06:42:37.000Z</time>
      </trkpt>
      <trkpt lat="43.3952" lon="2.26139">
        <ele>815.6</ele>
        <time>2019-08-11T06:42:38.000Z</time>
      </trkpt>
      <trkpt lat="43.3952" lon="2.26139">
        <ele>815.6</ele>
        <time>2019-08-11T06:42:39.000Z</time>
      </trkpt>
      <trkpt lat="43.3952" lon="2.26139">
        <ele>815.6</ele>
        <time>2019-08-11T06:42:40.000Z</time>
      </trkpt>
      <trkpt lat="43.3952" lon="2.26139">
        <ele>815.6</ele>
        <time>2019-08-11T06:42:41.000Z</time>
      </trkpt>
      <trkpt lat="43.3952" lon="2.26139">
        <ele>815.6</ele>
        <time>2019-08-11T06:42:42.000Z</time>
      </trkpt>
      <trkpt lat="43.39521" lon="2.26139">
        <ele>815.6</ele>
        <time>2019-08-11T06:42:43.000Z</time>
      </trkpt>
      <trkpt lat="43.39521" lon="2.26139">
        <ele>815.6</ele>
        <time>2019-08-11T06:42:44.000Z</time>
      </trkpt>
      <trkpt lat="43.39521" lon="2.26139">
        <ele>815.6</ele>
        <time>2019-08-11T06:42:45.000Z</time>
      </trkpt>
      <trkpt lat="43.39522" lon="2.26139">
        <ele>815.6</ele>
        <time>2019-08-11T06:42:46.000Z</time>
      </trkpt>
      <trkpt lat="43.39522" lon="2.2614">
        <ele>815.6</ele>
        <time>2019-08-11T06:42:47.000Z</time>
      </trkpt>
      <trkpt lat="43.39523" lon="2.2614">
        <ele>815.6</ele>
        <time>2019-08-11T06:42:48.000Z</time>
      </trkpt>
      <trkpt lat="43.39524" lon="2.26141">
        <ele>815.7</ele>
        <time>2019-08-11T06:42:49.000Z</time>
      </trkpt>
      <trkpt lat="43.39524" lon="2.26142">
        <ele>815.7</ele>
        <time>2019-08-11T06:42:50.000Z</time>
      </trkpt>
      <trkpt lat="43.39525" lon="2.26142">
        <ele>815.7</ele>
        <time>2019-08-11T06:42:51.000Z</time>
      </trkpt>
      <trkpt lat="43.39526" lon="2.26143">
        <ele>815.8</ele>
        <time>2019-08-11T06:42:52.000Z</time>
      </trkpt>
      <trkpt lat="43.39527" lon="2.26144">
        <ele>815.8</ele>
        <time>2019-08-11T06:42:53.000Z</time>
      </trkpt>
      <trkpt lat="43.39528" lon="2.26145">
        <ele>815.8</ele>
        <time>2019-08-11T06:42:54.000Z</time>
      </trkpt>
      <trkpt lat="43.39529" lon="2.26146">
        <ele>815.9</ele>
        <time>2019-08-11T06:42:55.000Z</time>
      </trkpt>
      <trkpt lat="43.3953" lon="2.26147">
        <ele>815.9</ele>
        <time>2019-08-11T06:42:56.000Z</time>
      </trkpt>
      <trkpt lat="43.39531" lon="2.26148">
        <ele>816</ele>
        <time>2019-08-11T06:42:57.000Z</time>
      </trkpt>
      <trkpt lat="43.39532" lon="2.2615">
        <ele>816</ele>
        <time>2019-08-11T06:42:58.000Z</time>
      </trkpt>
      <trkpt lat="43.39533" lon="2.26151">
        <ele>816</ele>
        <time>2019-08-11T06:42:59.000Z</time>
      </trkpt>
      <trkpt lat="43.39534" lon="2.26152">
        <ele>816.1</ele>
        <time>2019-08-11T06:43:00.000Z</time>
      </trkpt>
      <trkpt lat="43.39536" lon="2.26154">
        <ele>816.1</ele>
        <time>2019-08-11T06:43:01.000Z</time>
      </trkpt>
      <trkpt lat="43.39537" lon="2.26156">
        <ele>816.2</ele>
        <time>2019-08-11T06:43:02.000Z</time>
      </trkpt>
      <trkpt lat="43.39538" lon="2.26158">
        <ele>816.3</ele>
        <time>2019-08-11T06:43:03.000Z</time>
      </trkpt>
      <trkpt lat="43.3954" lon="2.2616">
        <ele>816.4</ele>
        <time>2019-08-11T06:43:04.000Z</time>
      </trkpt>
      <trkpt lat="43.39541" lon="2.26163">
        <ele>816.4</ele>
        <time>2019-08-11T06:43:05.000Z</time>
      </trkpt>
      <trkpt lat="43.39543" lon="2.26165">
        <ele>816.5</ele>
        <time>2019-08-11T06:43:06.000Z</time>
      </trkpt>
      <trkpt lat="43.39544" lon="2.26168">
        <ele>816.6</ele>
        <time>2019-08-11T06:43:07.000Z</time>
      </trkpt>
      <trkpt lat="43.39545" lon="2.26171">
        <ele>816.6</ele>
        <time>2019-08-11T06:43:08.000Z</time>
      </trkpt>
      <trkpt lat="43.39547" lon="2.26174">
        <ele>816.5</ele>
        <time>2019-08-11T06:43:09.000Z</time>
      </trkpt>
      <trkpt lat="43.39548" lon="2.26177">
        <ele>816.5</ele>
        <time>2019-08-11T06:43:10.000Z</time>
      </trkpt>
      <trkpt lat="43.39549" lon="2.2618">
        <ele>816.5</ele>
        <time>2019-08-11T06:43:11.000Z</time>
      </trkpt>
      <trkpt lat="43.3955" lon="2.26183">
        <ele>816.5</ele>
        <time>2019-08-11T06:43:12.000Z</time>
      </trkpt>
      <trkpt lat="43.39552" lon="2.26186">
        <ele>816.5</ele>
        <time>2019-08-11T06:43:13.000Z</time>
      </trkpt>
      <trkpt lat="43.39553" lon="2.2619">
        <ele>816.5</ele>
        <time>2019-08-11T06:43:14.000Z</time>
      </trkpt>
      <trkpt lat="43.39555" lon="2.26193">
        <ele>816.4</ele>
        <time>2019-08-11T06:43:15.000Z</time>
      </trkpt>
      <trkpt lat="43.39556" lon="2.26197">
        <ele>816.4</ele>
        <time>2019-08-11T06:43:16.000Z</time>
      </trkpt>
      <trkpt lat="43.39557" lon="2.262">
        <ele>816.4</ele>
        <time>2019-08-11T06:43:17.000Z</time>
      </trkpt>
      <trkpt lat="43.39559" lon="2.26204">
        <ele>816.4</ele>
        <time>2019-08-11T06:43:18.000Z</time>
      </trkpt>
      <trkpt lat="43.3956" lon="2.26207">
        <ele>816.3</ele>
        <time>2019-08-11T06:43:19.000Z</time>
      </trkpt>
      <trkpt lat="43.39561" lon="2.26211">
        <ele>816.3</ele>
        <time>2019-08-11T06:43:20.000Z</time>
      </trkpt>
      <trkpt lat="43.39562" lon="2.26214">
        <ele>816.3</ele>
        <time>2019-08-11T06:43:21.000Z</time>
      </trkpt>
      <trkpt lat="43.39563" lon="2.26217">
        <ele>816.2</ele>
        <time>2019-08-11T06:43:22.000Z</time>
      </trkpt>
      <trkpt lat="43.39564" lon="2.2622">
        <ele>816.2</ele>
        <time>2019-08-11T06:43:23.000Z</time>
      </trkpt>
      <trkpt lat="43.39565" lon="2.26223">
        <ele>816.1</ele>
        <time>2019-08-11T06:43:24.000Z</time>
      </trkpt>
      <trkpt lat="43.39566" lon="2.26227">
        <ele>816.1</ele>
        <time>2019-08-11T06:43:25.000Z</time>
      </trkpt>
      <trkpt lat="43.39566" lon="2.2623">
        <ele>816</ele>
        <time>2019-08-11T06:43:26.000Z</time>
      </trkpt>
      <trkpt lat="43.39566" lon="2.26233">
        <ele>815.9</ele>
        <time>2019-08-11T06:43:27.000Z</time>
      </trkpt>
      <trkpt lat="43.39566" lon="2.26236">
        <ele>815.9</ele>
        <time>2019-08-11T06:43:28.000Z</time>
      </trkpt>
      <trkpt lat="43.39567" lon="2.2624">
        <ele>815.8</ele>
        <time>2019-08-11T06:43:29.000Z</time>
      </trkpt>
      <trkpt lat="43.39567" lon="2.26243">
        <ele>815.8</ele>
        <time>2019-08-11T06:43:30.000Z</time>
      </trkpt>
      <trkpt lat="43.39568" lon="2.26247">
        <ele>815.7</ele>
        <time>2019-08-11T06:43:31.000Z</time>
      </trkpt>
      <trkpt lat="43.39569" lon="2.26251">
        <ele>815.7</ele>
        <time>2019-08-11T06:43:32.000Z</time>
      </trkpt>
      <trkpt lat="43.39571" lon="2.26254">
        <ele>815.6</ele>
        <time>2019-08-11T06:43:33.000Z</time>
      </trkpt>
      <trkpt lat="43.39572" lon="2.26258">
        <ele>815.6</ele>
        <time>2019-08-11T06:43:34.000Z</time>
      </trkpt>
      <trkpt lat="43.39573" lon="2.26261">
        <ele>815.6</ele>
        <time>2019-08-11T06:43:35.000Z</time>
      </trkpt>
      <trkpt lat="43.39574" lon="2.26265">
        <ele>815.5</ele>
        <time>2019-08-11T06:43:36.000Z</time>
      </trkpt>
      <trkpt lat="43.39574" lon="2.26268">
        <ele>815.5</ele>
        <time>2019-08-11T06:43:37.000Z</time>
      </trkpt>
      <trkpt lat="43.39574" lon="2.2627">
        <ele>815.5</ele>
        <time>2019-08-11T06:43:38.000Z</time>
      </trkpt>
      <trkpt lat="43.39575" lon="2.26273">
        <ele>815.5</ele>
        <time>2019-08-11T06:43:39.000Z</time>
      </trkpt>
      <trkpt lat="43.39575" lon="2.26275">
        <ele>815.4</ele>
        <time>2019-08-11T06:43:40.000Z</time>
      </trkpt>
      <trkpt lat="43.39576" lon="2.26278">
        <ele>815.4</ele>
        <time>2019-08-11T06:43:41.000Z</time>
      </trkpt>
      <trkpt lat="43.39577" lon="2.2628">
        <ele>815.4</ele>
        <time>2019-08-11T06:43:42.000Z</time>
      </trkpt>
      <trkpt lat="43.39578" lon="2.26282">
        <ele>815.4</ele>
        <time>2019-08-11T06:43:43.000Z</time>
      </trkpt>
      <trkpt lat="43.39579" lon="2.26284">
        <ele>815.4</ele>
        <time>2019-08-11T06:43:44.000Z</time>
      </trkpt>
      <trkpt lat="43.3958" lon="2.26286">
        <ele>815.5</ele>
        <time>2019-08-11T06:43:45.000Z</time>
      </trkpt>
      <trkpt lat="43.39582" lon="2.26288">
        <ele>815.5</ele>
        <time>2019-08-11T06:43:46.000Z</time>
      </trkpt>
      <trkpt lat="43.39584" lon="2.2629">
        <ele>815.5</ele>
        <time>2019-08-11T06:43:47.000Z</time>
      </trkpt>
      <trkpt lat="43.39585" lon="2.26292">
        <ele>815.6</ele>
        <time>2019-08-11T06:43:48.000Z</time>
      </trkpt>
      <trkpt lat="43.39587" lon="2.26293">
        <ele>815.6</ele>
        <time>2019-08-11T06:43:49.000Z</time>
      </trkpt>
      <trkpt lat="43.39589" lon="2.26295">
        <ele>815.6</ele>
        <time>2019-08-11T06:43:50.000Z</time>
      </trkpt>
      <trkpt lat="43.3959" lon="2.26297">
        <ele>815.7</ele>
        <time>2019-08-11T06:43:51.000Z</time>
      </trkpt>
      <trkpt lat="43.39592" lon="2.26299">
        <ele>815.7</ele>
        <time>2019-08-11T06:43:52.000Z</time>
      </trkpt>
      <trkpt lat="43.39594" lon="2.263">
        <ele>815.7</ele>
        <time>2019-08-11T06:43:53.000Z</time>
      </trkpt>
      <trkpt lat="43.39595" lon="2.26301">
        <ele>815.8</ele>
        <time>2019-08-11T06:43:54.000Z</time>
      </trkpt>
      <trkpt lat="43.39597" lon="2.26301">
        <ele>815.9</ele>
        <time>2019-08-11T06:43:55.000Z</time>
      </trkpt>
      <trkpt lat="43.39599" lon="2.26301">
        <ele>815.9</ele>
        <time>2019-08-11T06:43:56.000Z</time>
      </trkpt>
      <trkpt lat="43.39601" lon="2.26301">
        <ele>816</ele>
        <time>2019-08-11T06:43:57.000Z</time>
      </trkpt>
      <trkpt lat="43.39602" lon="2.26301">
        <ele>816</ele>
        <time>2019-08-11T06:43:58.000Z</time>
      </trkpt>
      <trkpt lat="43.39604" lon="2.263">
        <ele>816.1</ele>
        <time>2019-08-11T06:43:59.000Z</time>
      </trkpt>
      <trkpt lat="43.39605" lon="2.26298">
        <ele>816.1</ele>
        <time>2019-08-11T06:44:00.000Z</time>
      </trkpt>
      <trkpt lat="43.39606" lon="2.26297">
        <ele>816.2</ele>
        <time>2019-08-11T06:44:01.000Z</time>
      </trkpt>
      <trkpt lat="43.39607" lon="2.26295">
        <ele>816.2</ele>
        <time>2019-08-11T06:44:02.000Z</time>
      </trkpt>
      <trkpt lat="43.39608" lon="2.26293">
        <ele>816.2</ele>
        <time>2019-08-11T06:44:03.000Z</time>
      </trkpt>
      <trkpt lat="43.39609" lon="2.26291">
        <ele>816.3</ele>
        <time>2019-08-11T06:44:04.000Z</time>
      </trkpt>
      <trkpt lat="43.39609" lon="2.26288">
        <ele>816.3</ele>
        <time>2019-08-11T06:44:05.000Z</time>
      </trkpt>
      <trkpt lat="43.39609" lon="2.26286">
        <ele>816.3</ele>
        <time>2019-08-11T06:44:06.000Z</time>
      </trkpt>
      <trkpt lat="43.3961" lon="2.26283">
        <ele>816.3</ele>
        <time>2019-08-11T06:44:07.000Z</time>
      </trkpt>
      <trkpt lat="43.3961" lon="2.2628">
        <ele>816.3</ele>
        <time>2019-08-11T06:44:08.000Z</time>
      </trkpt>
      <trkpt lat="43.3961" lon="2.26278">
        <ele>816.3</ele>
        <time>2019-08-11T06:44:09.000Z</time>
      </trkpt>
      <trkpt lat="43.3961" lon="2.26275">
        <ele>816.3</ele>
        <time>2019-08-11T06:44:10.000Z</time>
      </trkpt>
      <trkpt lat="43.39611" lon="2.26272">
        <ele>816.3</ele>
        <time>2019-08-11T06:44:11.000Z</time>
      </trkpt>
      <trkpt lat="43.39611" lon="2.26269">
        <ele>816.3</ele>
        <time>2019-08-11T06:44:12.000Z</time>
      </trkpt>
      <trkpt lat="43.39611" lon="2.26266">
        <ele>816.3</ele>
        <time>2019-08-11T06:44:13.000Z</time>
      </trkpt>
      <trkpt lat="43.39612" lon="2.26262">
        <ele>816.3</ele>
        <time>2019-08-11T06:44:14.000Z</time>
      </trkpt>
      <trkpt lat="43.39612" lon="2.26259">
        <ele>816.4</ele>
        <time>2019-08-11T06:44:15.000Z</time>
      </trkpt>
      <trkpt lat="43.39613" lon="2.26256">
        <ele>816.4</ele>
        <time>2019-08-11T06:44:16.000Z</time>
      </trkpt>
      <trkpt lat="43.39613" lon="2.26252">
        <ele>816.4</ele>
        <time>2019-08-11T06:44:17.000Z</time>
      </trkpt>
      <trkpt lat="43.39614" lon="2.26249">
        <ele>816.4</ele>
        <time>2019-08-11T06:44:18.000Z</time>
      </trkpt>
      <trkpt lat="43.39615" lon="2.26245">
        <ele>816.4</ele>
        <time>2019-08-11T06:44:19.000Z</time>
      </trkpt>
      <trkpt lat="43.39616" lon="2.26241">
        <ele>816.4</ele>
        <time>2019-08-11T06:44:20.000Z</time>
      </trkpt>
      <trkpt lat="43.39617" lon="2.26238">
        <ele>816.3</ele>
        <time>2019-08-11T06:44:21.000Z</time>
      </trkpt>
      <trkpt lat="43.39617" lon="2.26234">
        <ele>816.3</ele>
        <time>2019-08-11T06:44:22.000Z</time>
      </trkpt>
      <trkpt lat="43.39618" lon="2.2623">
        <ele>816.3</ele>
        <time>2019-08-11T06:44:23.000Z</time>
      </trkpt>
      <trkpt lat="43.39619" lon="2.26227">
        <ele>816.3</ele>
        <time>2019-08-11T06:44:24.000Z</time>
      </trkpt>
      <trkpt lat="43.3962" lon="2.26224">
        <ele>816.2</ele>
        <time>2019-08-11T06:44:25.000Z</time>
      </trkpt>
      <trkpt lat="43.39621" lon="2.26221">
        <ele>816.2</ele>
        <time>2019-08-11T06:44:26.000Z</time>
      </trkpt>
      <trkpt lat="43.39622" lon="2.26218">
        <ele>816.2</ele>
        <time>2019-08-11T06:44:27.000Z</time>
      </trkpt>
      <trkpt lat="43.39623" lon="2.26216">
        <ele>816.1</ele>
        <time>2019-08-11T06:44:28.000Z</time>
      </trkpt>
      <trkpt lat="43.39623" lon="2.26215">
        <ele>816.1</ele>
        <time>2019-08-11T06:44:29.000Z</time>
      </trkpt>
      <trkpt lat="43.39624" lon="2.26213">
        <ele>816.1</ele>
        <time>2019-08-11T06:44:30.000Z</time>
      </trkpt>
      <trkpt lat="43.39625" lon="2.26211">
        <ele>816</ele>
        <time>2019-08-11T06:44:31.000Z</time>
      </trkpt>
      <trkpt lat="43.39625" lon="2.26209">
        <ele>816</ele>
        <time>2019-08-11T06:44:32.000Z</time>
      </trkpt>
      <trkpt lat="43.39626" lon="2.26208">
        <ele>816</ele>
        <time>2019-08-11T06:44:33.000Z</time>
      </trkpt>
      <trkpt lat="43.39626" lon="2.26206">
        <ele>815.9</ele>
        <time>2019-08-11T06:44:34.000Z</time>
      </trkpt>
      <trkpt lat="43.39627" lon="2.26204">
        <ele>815.9</ele>
        <time>2019-08-11T06:44:35.000Z</time>
      </trkpt>
      <trkpt lat="43.39627" lon="2.26203">
        <ele>815.9</ele>
        <time>2019-08-11T06:44:36.000Z</time>
      </trkpt>
      <trkpt lat="43.39627" lon="2.26201">
        <ele>815.8</ele>
        <time>2019-08-11T06:44:37.000Z</time>
      </trkpt>
      <trkpt lat="43.39628" lon="2.262">
        <ele>815.8</ele>
        <time>2019-08-11T06:44:38.000Z</time>
      </trkpt>
      <trkpt lat="43.39628" lon="2.26199">
        <ele>815.8</ele>
        <time>2019-08-11T06:44:39.000Z</time>
      </trkpt>
      <trkpt lat="43.39628" lon="2.26199">
        <ele>815.8</ele>
        <time>2019-08-11T06:44:40.000Z</time>
      </trkpt>
      <trkpt lat="43.39629" lon="2.26198">
        <ele>815.7</ele>
        <time>2019-08-11T06:44:41.000Z</time>
      </trkpt>
      <trkpt lat="43.3963" lon="2.26198">
        <ele>815.7</ele>
        <time>2019-08-11T06:44:42.000Z</time>
      </trkpt>
      <trkpt lat="43.3963" lon="2.26198">
        <ele>815.7</ele>
        <time>2019-08-11T06:44:43.000Z</time>
      </trkpt>
      <trkpt lat="43.39631" lon="2.26198">
        <ele>815.7</ele>
        <time>2019-08-11T06:44:44.000Z</time>
      </trkpt>
      <trkpt lat="43.39633" lon="2.26198">
        <ele>815.6</ele>
        <time>2019-08-11T06:44:45.000Z</time>
      </trkpt>
      <trkpt lat="43.39634" lon="2.26198">
        <ele>815.6</ele>
        <time>2019-08-11T06:44:46.000Z</time>
      </trkpt>
      <trkpt lat="43.39635" lon="2.26199">
        <ele>815.5</ele>
        <time>2019-08-11T06:44:47.000Z</time>
      </trkpt>
      <trkpt lat="43.39637" lon="2.26199">
        <ele>815.5</ele>
        <time>2019-08-11T06:44:48.000Z</time>
      </trkpt>
      <trkpt lat="43.39638" lon="2.262">
        <ele>815.5</ele>
        <time>2019-08-11T06:44:49.000Z</time>
      </trkpt>
      <trkpt lat="43.39639" lon="2.26201">
        <ele>815.5</ele>
        <time>2019-08-11T06:44:50.000Z</time>
      </trkpt>
      <trkpt lat="43.3964" lon="2.26202">
        <ele>815.5</ele>
        <time>2019-08-11T06:44:51.000Z</time>
      </trkpt>
      <trkpt lat="43.39641" lon="2.26203">
        <ele>815.5</ele>
        <time>2019-08-11T06:44:52.000Z</time>
      </trkpt>
      <trkpt lat="43.39641" lon="2.26204">
        <ele>815.5</ele>
        <time>2019-08-11T06:44:53.000Z</time>
      </trkpt>
      <trkpt lat="43.39641" lon="2.26205">
        <ele>815.5</ele>
        <time>2019-08-11T06:44:54.000Z</time>
      </trkpt>
      <trkpt lat="43.3964" lon="2.26206">
        <ele>815.6</ele>
        <time>2019-08-11T06:44:55.000Z</time>
      </trkpt>
      <trkpt lat="43.3964" lon="2.26208">
        <ele>815.6</ele>
        <time>2019-08-11T06:44:56.000Z</time>
      </trkpt>
      <trkpt lat="43.39639" lon="2.26209">
        <ele>815.7</ele>
        <time>2019-08-11T06:44:57.000Z</time>
      </trkpt>
      <trkpt lat="43.39638" lon="2.2621">
        <ele>815.7</ele>
        <time>2019-08-11T06:44:58.000Z</time>
      </trkpt>
      <trkpt lat="43.39637" lon="2.26212">
        <ele>815.8</ele>
        <time>2019-08-11T06:44:59.000Z</time>
      </trkpt>
      <trkpt lat="43.39635" lon="2.26213">
        <ele>815.9</ele>
        <time>2019-08-11T06:45:00.000Z</time>
      </trkpt>
      <trkpt lat="43.39634" lon="2.26215">
        <ele>815.9</ele>
        <time>2019-08-11T06:45:01.000Z</time>
      </trkpt>
      <trkpt lat="43.39632" lon="2.26216">
        <ele>816</ele>
        <time>2019-08-11T06:45:02.000Z</time>
      </trkpt>
      <trkpt lat="43.39631" lon="2.26218">
        <ele>816</ele>
        <time>2019-08-11T06:45:03.000Z</time>
      </trkpt>
      <trkpt lat="43.39629" lon="2.26219">
        <ele>816.1</ele>
        <time>2019-08-11T06:45:04.000Z</time>
      </trkpt>
      <trkpt lat="43.39628" lon="2.26221">
        <ele>816.1</ele>
        <time>2019-08-11T06:45:05.000Z</time>
      </trkpt>
      <trkpt lat="43.39626" lon="2.26223">
        <ele>816.2</ele>
        <time>2019-08-11T06:45:06.000Z</time>
      </trkpt>
      <trkpt lat="43.39624" lon="2.26225">
        <ele>816.2</ele>
        <time>2019-08-11T06:45:07.000Z</time>
      </trkpt>
      <trkpt lat="43.39623" lon="2.26227">
        <ele>816.2</ele>
        <time>2019-08-11T06:45:08.000Z</time>
      </trkpt>
      <trkpt lat="43.39621" lon="2.2623">
        <ele>816.3</ele>
        <time>2019-08-11T06:45:09.000Z</time>
      </trkpt>
      <trkpt lat="43.3962" lon="2.26232">
        <ele>816.3</ele>
        <time>2019-08-11T06:45:10.000Z</time>
      </trkpt>
      <trkpt lat="43.39618" lon="2.26235">
        <ele>816.3</ele>
        <time>2019-08-11T06:45:11.000Z</time>
      </trkpt>
      <trkpt lat="43.39617" lon="2.26238">
        <ele>816.3</ele>
        <time>2019-08-11T06:45:12.000Z</time>
      </trkpt>
      <trkpt lat="43.39616" lon="2.26241">
        <ele>816.4</ele>
        <time>2019-08-11T06:45:13.000Z</time>
      </trkpt>
      <trkpt lat="43.39615" lon="2.26244">
        <ele>816.4</ele>
        <time>2019-08-11T06:45:14.000Z</time>
      </trkpt>
      <trkpt lat="43.39614" lon="2.26247">
        <ele>816.4</ele>
        <time>2019-08-11T06:45:15.000Z</time>
      </trkpt>
      <trkpt lat="43.39613" lon="2.2625">
        <ele>816.4</ele>
        <time>2019-08-11T06:45:16.000Z</time>
      </trkpt>
      <trkpt lat="43.39613" lon="2.26254">
        <ele>816.4</ele>
        <time>2019-08-11T06:45:17.000Z</time>
      </trkpt>
      <trkpt lat="43.39612" lon="2.26257">
        <ele>816.3</ele>
        <time>2019-08-11T06:45:18.000Z</time>
      </trkpt>
      <trkpt lat="43.39612" lon="2.26261">
        <ele>816.3</ele>
        <time>2019-08-11T06:45:19.000Z</time>
      </trkpt>
      <trkpt lat="43.39612" lon="2.26265">
        <ele>816.3</ele>
        <time>2019-08-11T06:45:20.000Z</time>
      </trkpt>
      <trkpt lat="43.39612" lon="2.26268">
        <ele>816.4</ele>
        <time>2019-08-11T06:45:21.000Z</time>
      </trkpt>
      <trkpt lat="43.39613" lon="2.26272">
        <ele>816.4</ele>
        <time>2019-08-11T06:45:22.000Z</time>
      </trkpt>
      <trkpt lat="43.39613" lon="2.26276">
        <ele>816.4</ele>
        <time>2019-08-11T06:45:23.000Z</time>
      </trkpt>
      <trkpt lat="43.39614" lon="2.2628">
        <ele>816.4</ele>
        <time>2019-08-11T06:45:24.000Z</time>
      </trkpt>
      <trkpt lat="43.39614" lon="2.26283">
        <ele>816.4</ele>
        <time>2019-08-11T06:45:25.000Z</time>
      </trkpt>
      <trkpt lat="43.39615" lon="2.26287">
        <ele>816.4</ele>
        <time>2019-08-11T06:45:26.000Z</time>
      </trkpt>
      <trkpt lat="43.39616" lon="2.26291">
        <ele>816.5</ele>
        <time>2019-08-11T06:45:27.000Z</time>
      </trkpt>
      <trkpt lat="43.39617" lon="2.26294">
        <ele>816.5</ele>
        <time>2019-08-11T06:45:28.000Z</time>
      </trkpt>
      <trkpt lat="43.39618" lon="2.26298">
        <ele>816.5</ele>
        <time>2019-08-11T06:45:29.000Z</time>
      </trkpt>
      <trkpt lat="43.39619" lon="2.26301">
        <ele>816.6</ele>
        <time>2019-08-11T06:45:30.000Z</time>
      </trkpt>
      <trkpt lat="43.39619" lon="2.26304">
        <ele>816.6</ele>
        <time>2019-08-11T06:45:31.000Z</time>
      </trkpt>
      <trkpt lat="43.3962" lon="2.26307">
        <ele>816.7</ele>
        <time>2019-08-11T06:45:32.000Z</time>
      </trkpt>
      <trkpt lat="43.39621" lon="2.2631">
        <ele>816.7</ele>
        <time>2019-08-11T06:45:33.000Z</time>
      </trkpt>
      <trkpt lat="43.39622" lon="2.26312">
        <ele>816.8</ele>
        <time>2019-08-11T06:45:34.000Z</time>
      </trkpt>
      <trkpt lat="43.39623" lon="2.26315">
        <ele>816.8</ele>
        <time>2019-08-11T06:45:35.000Z</time>
      </trkpt>
      <trkpt lat="43.39625" lon="2.26317">
        <ele>816.9</ele>
        <time>2019-08-11T06:45:36.000Z</time>
      </trkpt>
      <trkpt lat="43.39626" lon="2.26319">
        <ele>817</ele>
        <time>2019-08-11T06:45:37.000Z</time>
      </trkpt>
      <trkpt lat="43.39627" lon="2.2632">
        <ele>817</ele>
        <time>2019-08-11T06:45:38.000Z</time>
      </trkpt>
      <trkpt lat="43.39629" lon="2.26322">
        <ele>817.1</ele>
        <time>2019-08-11T06:45:39.000Z</time>
      </trkpt>
      <trkpt lat="43.39631" lon="2.26322">
        <ele>817.2</ele>
        <time>2019-08-11T06:45:40.000Z</time>
      </trkpt>
      <trkpt lat="43.39633" lon="2.26323">
        <ele>817.3</ele>
        <time>2019-08-11T06:45:41.000Z</time>
      </trkpt>
      <trkpt lat="43.39635" lon="2.26323">
        <ele>817.4</ele>
        <time>2019-08-11T06:45:42.000Z</time>
      </trkpt>
      <trkpt lat="43.39637" lon="2.26323">
        <ele>817.4</ele>
        <time>2019-08-11T06:45:43.000Z</time>
      </trkpt>
      <trkpt lat="43.39639" lon="2.26322">
        <ele>817.5</ele>
        <time>2019-08-11T06:45:44.000Z</time>
      </trkpt>
      <trkpt lat="43.39641" lon="2.26322">
        <ele>817.6</ele>
        <time>2019-08-11T06:45:45.000Z</time>
      </trkpt>
      <trkpt lat="43.39643" lon="2.26321">
        <ele>817.7</ele>
        <time>2019-08-11T06:45:46.000Z</time>
      </trkpt>
      <trkpt lat="43.39645" lon="2.2632">
        <ele>817.8</ele>
        <time>2019-08-11T06:45:47.000Z</time>
      </trkpt>
      <trkpt lat="43.39647" lon="2.2632">
        <ele>817.9</ele>
        <time>2019-08-11T06:45:48.000Z</time>
      </trkpt>
      <trkpt lat="43.3965" lon="2.26319">
        <ele>818</ele>
        <time>2019-08-11T06:45:49.000Z</time>
      </trkpt>
      <trkpt lat="43.39653" lon="2.26319">
        <ele>818.1</ele>
        <time>2019-08-11T06:45:50.000Z</time>
      </trkpt>
      <trkpt lat="43.39656" lon="2.2632">
        <ele>818.2</ele>
        <time>2019-08-11T06:45:51.000Z</time>
      </trkpt>
      <trkpt lat="43.39659" lon="2.2632">
        <ele>818.4</ele>
        <time>2019-08-11T06:45:52.000Z</time>
      </trkpt>
      <trkpt lat="43.39662" lon="2.26321">
        <ele>818.5</ele>
        <time>2019-08-11T06:45:53.000Z</time>
      </trkpt>
      <trkpt lat="43.39666" lon="2.26321">
        <ele>818.7</ele>
        <time>2019-08-11T06:45:54.000Z</time>
      </trkpt>
      <trkpt lat="43.39669" lon="2.26321">
        <ele>818.4</ele>
        <time>2019-08-11T06:45:55.000Z</time>
      </trkpt>
      <trkpt lat="43.39672" lon="2.26321">
        <ele>818.1</ele>
        <time>2019-08-11T06:45:56.000Z</time>
      </trkpt>
      <trkpt lat="43.39676" lon="2.26321">
        <ele>817.8</ele>
        <time>2019-08-11T06:45:57.000Z</time>
      </trkpt>
      <trkpt lat="43.39679" lon="2.26321">
        <ele>817.4</ele>
        <time>2019-08-11T06:45:58.000Z</time>
      </trkpt>
      <trkpt lat="43.39682" lon="2.26321">
        <ele>817.1</ele>
        <time>2019-08-11T06:45:59.000Z</time>
      </trkpt>
      <trkpt lat="43.39684" lon="2.2632">
        <ele>816.8</ele>
        <time>2019-08-11T06:46:00.000Z</time>
      </trkpt>
      <trkpt lat="43.39687" lon="2.2632">
        <ele>816.5</ele>
        <time>2019-08-11T06:46:01.000Z</time>
      </trkpt>
      <trkpt lat="43.39689" lon="2.26319">
        <ele>816.3</ele>
        <time>2019-08-11T06:46:02.000Z</time>
      </trkpt>
      <trkpt lat="43.39692" lon="2.26318">
        <ele>816</ele>
        <time>2019-08-11T06:46:03.000Z</time>
      </trkpt>
      <trkpt lat="43.39694" lon="2.26318">
        <ele>815.8</ele>
        <time>2019-08-11T06:46:04.000Z</time>
      </trkpt>
      <trkpt lat="43.39696" lon="2.26317">
        <ele>815.5</ele>
        <time>2019-08-11T06:46:05.000Z</time>
      </trkpt>
      <trkpt lat="43.39698" lon="2.26316">
        <ele>815.3</ele>
        <time>2019-08-11T06:46:06.000Z</time>
      </trkpt>
      <trkpt lat="43.397" lon="2.26315">
        <ele>815.1</ele>
        <time>2019-08-11T06:46:07.000Z</time>
      </trkpt>
      <trkpt lat="43.39702" lon="2.26314">
        <ele>814.8</ele>
        <time>2019-08-11T06:46:08.000Z</time>
      </trkpt>
      <trkpt lat="43.39704" lon="2.26313">
        <ele>814.6</ele>
        <time>2019-08-11T06:46:09.000Z</time>
      </trkpt>
      <trkpt lat="43.39706" lon="2.26313">
        <ele>814.4</ele>
        <time>2019-08-11T06:46:10.000Z</time>
      </trkpt>
      <trkpt lat="43.39709" lon="2.26312">
        <ele>814.1</ele>
        <time>2019-08-11T06:46:11.000Z</time>
      </trkpt>
      <trkpt lat="43.39711" lon="2.26312">
        <ele>813.8</ele>
        <time>2019-08-11T06:46:12.000Z</time>
      </trkpt>
      <trkpt lat="43.39714" lon="2.26311">
        <ele>813.5</ele>
        <time>2019-08-11T06:46:13.000Z</time>
      </trkpt>
      <trkpt lat="43.39716" lon="2.26311">
        <ele>813.3</ele>
        <time>2019-08-11T06:46:14.000Z</time>
      </trkpt>
      <trkpt lat="43.39719" lon="2.26311">
        <ele>813</ele>
        <time>2019-08-11T06:46:15.000Z</time>
      </trkpt>
      <trkpt lat="43.39722" lon="2.2631">
        <ele>812.7</ele>
        <time>2019-08-11T06:46:16.000Z</time>
      </trkpt>
      <trkpt lat="43.39724" lon="2.2631">
        <ele>812.4</ele>
        <time>2019-08-11T06:46:17.000Z</time>
      </trkpt>
      <trkpt lat="43.39727" lon="2.2631">
        <ele>812.1</ele>
        <time>2019-08-11T06:46:18.000Z</time>
      </trkpt>
      <trkpt lat="43.3973" lon="2.2631">
        <ele>811.9</ele>
        <time>2019-08-11T06:46:19.000Z</time>
      </trkpt>
      <trkpt lat="43.39732" lon="2.2631">
        <ele>811.6</ele>
        <time>2019-08-11T06:46:20.000Z</time>
      </trkpt>
      <trkpt lat="43.39735" lon="2.2631">
        <ele>811.3</ele>
        <time>2019-08-11T06:46:21.000Z</time>
      </trkpt>
      <trkpt lat="43.39738" lon="2.2631">
        <ele>811</ele>
        <time>2019-08-11T06:46:22.000Z</time>
      </trkpt>
      <trkpt lat="43.3974" lon="2.26309">
        <ele>810.7</ele>
        <time>2019-08-11T06:46:23.000Z</time>
      </trkpt>
      <trkpt lat="43.39743" lon="2.26309">
        <ele>810.5</ele>
        <time>2019-08-11T06:46:24.000Z</time>
      </trkpt>
      <trkpt lat="43.39745" lon="2.26308">
        <ele>810.2</ele>
        <time>2019-08-11T06:46:25.000Z</time>
      </trkpt>
      <trkpt lat="43.39748" lon="2.26307">
        <ele>809.9</ele>
        <time>2019-08-11T06:46:26.000Z</time>
      </trkpt>
      <trkpt lat="43.3975" lon="2.26306">
        <ele>809.7</ele>
        <time>2019-08-11T06:46:27.000Z</time>
      </trkpt>
      <trkpt lat="43.39752" lon="2.26306">
        <ele>809.6</ele>
        <time>2019-08-11T06:46:28.000Z</time>
      </trkpt>
      <trkpt lat="43.39755" lon="2.26305">
        <ele>809.5</ele>
        <time>2019-08-11T06:46:29.000Z</time>
      </trkpt>
      <trkpt lat="43.39757" lon="2.26304">
        <ele>809.4</ele>
        <time>2019-08-11T06:46:30.000Z</time>
      </trkpt>
      <trkpt lat="43.39759" lon="2.26303">
        <ele>809.3</ele>
        <time>2019-08-11T06:46:31.000Z</time>
      </trkpt>
      <trkpt lat="43.39761" lon="2.26302">
        <ele>809.2</ele>
        <time>2019-08-11T06:46:32.000Z</time>
      </trkpt>
      <trkpt lat="43.39764" lon="2.26302">
        <ele>809.1</ele>
        <time>2019-08-11T06:46:33.000Z</time>
      </trkpt>
      <trkpt lat="43.39766" lon="2.26301">
        <ele>809</ele>
        <time>2019-08-11T06:46:34.000Z</time>
      </trkpt>
      <trkpt lat="43.39769" lon="2.263">
        <ele>808.9</ele>
        <time>2019-08-11T06:46:35.000Z</time>
      </trkpt>
      <trkpt lat="43.39771" lon="2.263">
        <ele>808.8</ele>
        <time>2019-08-11T06:46:36.000Z</time>
      </trkpt>
      <trkpt lat="43.39774" lon="2.26299">
        <ele>808.7</ele>
        <time>2019-08-11T06:46:37.000Z</time>
      </trkpt>
      <trkpt lat="43.39776" lon="2.26299">
        <ele>808.6</ele>
        <time>2019-08-11T06:46:38.000Z</time>
      </trkpt>
      <trkpt lat="43.39779" lon="2.26299">
        <ele>808.6</ele>
        <time>2019-08-11T06:46:39.000Z</time>
      </trkpt>
      <trkpt lat="43.39782" lon="2.26298">
        <ele>808.4</ele>
        <time>2019-08-11T06:46:40.000Z</time>
      </trkpt>
      <trkpt lat="43.39784" lon="2.26298">
        <ele>808.3</ele>
        <time>2019-08-11T06:46:41.000Z</time>
      </trkpt>
      <trkpt lat="43.39787" lon="2.26298">
        <ele>808.2</ele>
        <time>2019-08-11T06:46:42.000Z</time>
      </trkpt>
      <trkpt lat="43.3979" lon="2.26297">
        <ele>808.1</ele>
        <time>2019-08-11T06:46:43.000Z</time>
      </trkpt>
      <trkpt lat="43.39792" lon="2.26297">
        <ele>808</ele>
        <time>2019-08-11T06:46:44.000Z</time>
      </trkpt>
      <trkpt lat="43.39795" lon="2.26296">
        <ele>808</ele>
        <time>2019-08-11T06:46:45.000Z</time>
      </trkpt>
      <trkpt lat="43.39797" lon="2.26295">
        <ele>807.9</ele>
        <time>2019-08-11T06:46:46.000Z</time>
      </trkpt>
      <trkpt lat="43.39799" lon="2.26294">
        <ele>807.8</ele>
        <time>2019-08-11T06:46:47.000Z</time>
      </trkpt>
      <trkpt lat="43.39802" lon="2.26293">
        <ele>807.7</ele>
        <time>2019-08-11T06:46:48.000Z</time>
      </trkpt>
      <trkpt lat="43.39804" lon="2.26292">
        <ele>807.6</ele>
        <time>2019-08-11T06:46:49.000Z</time>
      </trkpt>
      <trkpt lat="43.39806" lon="2.26291">
        <ele>807.5</ele>
        <time>2019-08-11T06:46:50.000Z</time>
      </trkpt>
      <trkpt lat="43.39808" lon="2.2629">
        <ele>807.4</ele>
        <time>2019-08-11T06:46:51.000Z</time>
      </trkpt>
      <trkpt lat="43.3981" lon="2.26288">
        <ele>807.3</ele>
        <time>2019-08-11T06:46:52.000Z</time>
      </trkpt>
      <trkpt lat="43.39813" lon="2.26287">
        <ele>807.2</ele>
        <time>2019-08-11T06:46:53.000Z</time>
      </trkpt>
      <trkpt lat="43.39815" lon="2.26286">
        <ele>807.1</ele>
        <time>2019-08-11T06:46:54.000Z</time>
      </trkpt>
      <trkpt lat="43.39817" lon="2.26284">
        <ele>807</ele>
        <time>2019-08-11T06:46:55.000Z</time>
      </trkpt>
      <trkpt lat="43.3982" lon="2.26283">
        <ele>806.9</ele>
        <time>2019-08-11T06:46:56.000Z</time>
      </trkpt>
      <trkpt lat="43.39822" lon="2.26282">
        <ele>806.8</ele>
        <time>2019-08-11T06:46:57.000Z</time>
      </trkpt>
      <trkpt lat="43.39824" lon="2.26281">
        <ele>806.7</ele>
        <time>2019-08-11T06:46:58.000Z</time>
      </trkpt>
      <trkpt lat="43.39827" lon="2.2628">
        <ele>806.6</ele>
        <time>2019-08-11T06:46:59.000Z</time>
      </trkpt>
      <trkpt lat="43.39829" lon="2.2628">
        <ele>806.5</ele>
        <time>2019-08-11T06:47:00.000Z</time>
      </trkpt>
      <trkpt lat="43.39832" lon="2.26279">
        <ele>806.4</ele>
        <time>2019-08-11T06:47:01.000Z</time>
      </trkpt>
      <trkpt lat="43.39834" lon="2.26279">
        <ele>806.3</ele>
        <time>2019-08-11T06:47:02.000Z</time>
      </trkpt>
      <trkpt lat="43.39837" lon="2.26278">
        <ele>806.2</ele>
        <time>2019-08-11T06:47:03.000Z</time>
      </trkpt>
      <trkpt lat="43.39839" lon="2.26278">
        <ele>806.1</ele>
        <time>2019-08-11T06:47:04.000Z</time>
      </trkpt>
      <trkpt lat="43.39842" lon="2.26277">
        <ele>806</ele>
        <time>2019-08-11T06:47:05.000Z</time>
      </trkpt>
      <trkpt lat="43.39844" lon="2.26277">
        <ele>805.9</ele>
        <time>2019-08-11T06:47:06.000Z</time>
      </trkpt>
      <trkpt lat="43.39846" lon="2.26276">
        <ele>805.8</ele>
        <time>2019-08-11T06:47:07.000Z</time>
      </trkpt>
      <trkpt lat="43.39849" lon="2.26275">
        <ele>805.7</ele>
        <time>2019-08-11T06:47:08.000Z</time>
      </trkpt>
      <trkpt lat="43.39851" lon="2.26275">
        <ele>805.6</ele>
        <time>2019-08-11T06:47:09.000Z</time>
      </trkpt>
      <trkpt lat="43.39854" lon="2.26274">
        <ele>805.5</ele>
        <time>2019-08-11T06:47:10.000Z</time>
      </trkpt>
      <trkpt lat="43.39857" lon="2.26274">
        <ele>805.4</ele>
        <time>2019-08-11T06:47:11.000Z</time>
      </trkpt>
      <trkpt lat="43.39859" lon="2.26273">
        <ele>805.3</ele>
        <time>2019-08-11T06:47:12.000Z</time>
      </trkpt>
      <trkpt lat="43.39862" lon="2.26273">
        <ele>805.2</ele>
        <time>2019-08-11T06:47:13.000Z</time>
      </trkpt>
      <trkpt lat="43.39865" lon="2.26273">
        <ele>805.1</ele>
        <time>2019-08-11T06:47:14.000Z</time>
      </trkpt>
      <trkpt lat="43.39868" lon="2.26273">
        <ele>805</ele>
        <time>2019-08-11T06:47:15.000Z</time>
      </trkpt>
      <trkpt lat="43.39871" lon="2.26274">
        <ele>804.9</ele>
        <time>2019-08-11T06:47:16.000Z</time>
      </trkpt>
      <trkpt lat="43.39874" lon="2.26274">
        <ele>804.8</ele>
        <time>2019-08-11T06:47:17.000Z</time>
      </trkpt>
      <trkpt lat="43.39876" lon="2.26274">
        <ele>804.7</ele>
        <time>2019-08-11T06:47:18.000Z</time>
      </trkpt>
      <trkpt lat="43.39879" lon="2.26275">
        <ele>804.7</ele>
        <time>2019-08-11T06:47:19.000Z</time>
      </trkpt>
      <trkpt lat="43.39882" lon="2.26275">
        <ele>804.6</ele>
        <time>2019-08-11T06:47:20.000Z</time>
      </trkpt>
      <trkpt lat="43.39884" lon="2.26276">
        <ele>804.5</ele>
        <time>2019-08-11T06:47:21.000Z</time>
      </trkpt>
      <trkpt lat="43.39886" lon="2.26276">
        <ele>804.4</ele>
        <time>2019-08-11T06:47:22.000Z</time>
      </trkpt>
      <trkpt lat="43.39888" lon="2.26277">
        <ele>804.3</ele>
        <time>2019-08-11T06:47:23.000Z</time>
      </trkpt>
      <trkpt lat="43.3989" lon="2.26277">
        <ele>804.3</ele>
        <time>2019-08-11T06:47:24.000Z</time>
      </trkpt>
      <trkpt lat="43.39893" lon="2.26277">
        <ele>804.2</ele>
        <time>2019-08-11T06:47:25.000Z</time>
      </trkpt>
      <trkpt lat="43.39895" lon="2.26278">
        <ele>804.1</ele>
        <time>2019-08-11T06:47:26.000Z</time>
      </trkpt>
      <trkpt lat="43.39897" lon="2.26278">
        <ele>804</ele>
        <time>2019-08-11T06:47:27.000Z</time>
      </trkpt>
      <trkpt lat="43.399" lon="2.26278">
        <ele>803.9</ele>
        <time>2019-08-11T06:47:28.000Z</time>
      </trkpt>
      <trkpt lat="43.39902" lon="2.26278">
        <ele>803.9</ele>
        <time>2019-08-11T06:47:29.000Z</time>
      </trkpt>
      <trkpt lat="43.39905" lon="2.26278">
        <ele>803.7</ele>
        <time>2019-08-11T06:47:30.000Z</time>
      </trkpt>
      <trkpt lat="43.39908" lon="2.26278">
        <ele>803.6</ele>
        <time>2019-08-11T06:47:31.000Z</time>
      </trkpt>
      <trkpt lat="43.39911" lon="2.26278">
        <ele>803.5</ele>
        <time>2019-08-11T06:47:32.000Z</time>
      </trkpt>
      <trkpt lat="43.39914" lon="2.26277">
        <ele>803.4</ele>
        <time>2019-08-11T06:47:33.000Z</time>
      </trkpt>
      <trkpt lat="43.39917" lon="2.26277">
        <ele>803.3</ele>
        <time>2019-08-11T06:47:34.000Z</time>
      </trkpt>
      <trkpt lat="43.3992" lon="2.26276">
        <ele>803.1</ele>
        <time>2019-08-11T06:47:35.000Z</time>
      </trkpt>
      <trkpt lat="43.39923" lon="2.26275">
        <ele>802.9</ele>
        <time>2019-08-11T06:47:36.000Z</time>
      </trkpt>
      <trkpt lat="43.39927" lon="2.26274">
        <ele>802.7</ele>
        <time>2019-08-11T06:47:37.000Z</time>
      </trkpt>
      <trkpt lat="43.3993" lon="2.26273">
        <ele>802.4</ele>
        <time>2019-08-11T06:47:38.000Z</time>
      </trkpt>
      <trkpt lat="43.39933" lon="2.26272">
        <ele>802.2</ele>
        <time>2019-08-11T06:47:39.000Z</time>
      </trkpt>
      <trkpt lat="43.39936" lon="2.2627">
        <ele>802</ele>
        <time>2019-08-11T06:47:40.000Z</time>
      </trkpt>
      <trkpt lat="43.39939" lon="2.26269">
        <ele>801.9</ele>
        <time>2019-08-11T06:47:41.000Z</time>
      </trkpt>
      <trkpt lat="43.39941" lon="2.26268">
        <ele>801.7</ele>
        <time>2019-08-11T06:47:42.000Z</time>
      </trkpt>
      <trkpt lat="43.39944" lon="2.26267">
        <ele>801.5</ele>
        <time>2019-08-11T06:47:43.000Z</time>
      </trkpt>
      <trkpt lat="43.39946" lon="2.26266">
        <ele>801.3</ele>
        <time>2019-08-11T06:47:44.000Z</time>
      </trkpt>
      <trkpt lat="43.39949" lon="2.26265">
        <ele>801.2</ele>
        <time>2019-08-11T06:47:45.000Z</time>
      </trkpt>
      <trkpt lat="43.39952" lon="2.26264">
        <ele>801</ele>
        <time>2019-08-11T06:47:46.000Z</time>
      </trkpt>
      <trkpt lat="43.39954" lon="2.26263">
        <ele>800.8</ele>
        <time>2019-08-11T06:47:47.000Z</time>
      </trkpt>
      <trkpt lat="43.39957" lon="2.26262">
        <ele>800.6</ele>
        <time>2019-08-11T06:47:48.000Z</time>
      </trkpt>
      <trkpt lat="43.3996" lon="2.26262">
        <ele>800.5</ele>
        <time>2019-08-11T06:47:49.000Z</time>
      </trkpt>
      <trkpt lat="43.39963" lon="2.26262">
        <ele>800.3</ele>
        <time>2019-08-11T06:47:50.000Z</time>
      </trkpt>
      <trkpt lat="43.39966" lon="2.26261">
        <ele>800.1</ele>
        <time>2019-08-11T06:47:51.000Z</time>
      </trkpt>
      <trkpt lat="43.39969" lon="2.26261">
        <ele>799.9</ele>
        <time>2019-08-11T06:47:52.000Z</time>
      </trkpt>
      <trkpt lat="43.39972" lon="2.26261">
        <ele>799.7</ele>
        <time>2019-08-11T06:47:53.000Z</time>
      </trkpt>
      <trkpt lat="43.39975" lon="2.26261">
        <ele>799.5</ele>
        <time>2019-08-11T06:47:54.000Z</time>
      </trkpt>
      <trkpt lat="43.39979" lon="2.2626">
        <ele>799.3</ele>
        <time>2019-08-11T06:47:55.000Z</time>
      </trkpt>
      <trkpt lat="43.39982" lon="2.2626">
        <ele>799.1</ele>
        <time>2019-08-11T06:47:56.000Z</time>
      </trkpt>
      <trkpt lat="43.39985" lon="2.26259">
        <ele>799</ele>
        <time>2019-08-11T06:47:57.000Z</time>
      </trkpt>
      <trkpt lat="43.39988" lon="2.26259">
        <ele>798.8</ele>
        <time>2019-08-11T06:47:58.000Z</time>
      </trkpt>
      <trkpt lat="43.39991" lon="2.26258">
        <ele>798.6</ele>
        <time>2019-08-11T06:47:59.000Z</time>
      </trkpt>
      <trkpt lat="43.39994" lon="2.26257">
        <ele>798.4</ele>
        <time>2019-08-11T06:48:00.000Z</time>
      </trkpt>
      <trkpt lat="43.39997" lon="2.26257">
        <ele>798.2</ele>
        <time>2019-08-11T06:48:01.000Z</time>
      </trkpt>
      <trkpt lat="43.4" lon="2.26256">
        <ele>798</ele>
        <time>2019-08-11T06:48:02.000Z</time>
      </trkpt>
      <trkpt lat="43.40003" lon="2.26255">
        <ele>797.7</ele>
        <time>2019-08-11T06:48:03.000Z</time>
      </trkpt>
      <trkpt lat="43.40006" lon="2.26254">
        <ele>797.5</ele>
        <time>2019-08-11T06:48:04.000Z</time>
      </trkpt>
      <trkpt lat="43.40009" lon="2.26254">
        <ele>797.2</ele>
        <time>2019-08-11T06:48:05.000Z</time>
      </trkpt>
      <trkpt lat="43.40012" lon="2.26253">
        <ele>796.9</ele>
        <time>2019-08-11T06:48:06.000Z</time>
      </trkpt>
      <trkpt lat="43.40015" lon="2.26252">
        <ele>796.6</ele>
        <time>2019-08-11T06:48:07.000Z</time>
      </trkpt>
      <trkpt lat="43.40019" lon="2.26252">
        <ele>796.2</ele>
        <time>2019-08-11T06:48:08.000Z</time>
      </trkpt>
      <trkpt lat="43.40022" lon="2.26251">
        <ele>795.9</ele>
        <time>2019-08-11T06:48:09.000Z</time>
      </trkpt>
      <trkpt lat="43.40025" lon="2.26251">
        <ele>795.6</ele>
        <time>2019-08-11T06:48:10.000Z</time>
      </trkpt>
      <trkpt lat="43.40029" lon="2.2625">
        <ele>795.3</ele>
        <time>2019-08-11T06:48:11.000Z</time>
      </trkpt>
      <trkpt lat="43.40032" lon="2.26249">
        <ele>794.9</ele>
        <time>2019-08-11T06:48:12.000Z</time>
      </trkpt>
      <trkpt lat="43.40035" lon="2.26249">
        <ele>794.6</ele>
        <time>2019-08-11T06:48:13.000Z</time>
      </trkpt>
      <trkpt lat="43.40039" lon="2.26248">
        <ele>794.3</ele>
        <time>2019-08-11T06:48:14.000Z</time>
      </trkpt>
      <trkpt lat="43.40042" lon="2.26248">
        <ele>793.9</ele>
        <time>2019-08-11T06:48:15.000Z</time>
      </trkpt>
      <trkpt lat="43.40045" lon="2.26247">
        <ele>793.6</ele>
        <time>2019-08-11T06:48:16.000Z</time>
      </trkpt>
      <trkpt lat="43.40048" lon="2.26246">
        <ele>793.3</ele>
        <time>2019-08-11T06:48:17.000Z</time>
      </trkpt>
      <trkpt lat="43.40052" lon="2.26245">
        <ele>793</ele>
        <time>2019-08-11T06:48:18.000Z</time>
      </trkpt>
      <trkpt lat="43.40055" lon="2.26245">
        <ele>792.7</ele>
        <time>2019-08-11T06:48:19.000Z</time>
      </trkpt>
      <trkpt lat="43.40058" lon="2.26244">
        <ele>792.4</ele>
        <time>2019-08-11T06:48:20.000Z</time>
      </trkpt>
      <trkpt lat="43.40061" lon="2.26243">
        <ele>792</ele>
        <time>2019-08-11T06:48:21.000Z</time>
      </trkpt>
      <trkpt lat="43.40064" lon="2.26242">
        <ele>791.7</ele>
        <time>2019-08-11T06:48:22.000Z</time>
      </trkpt>
      <trkpt lat="43.40068" lon="2.26241">
        <ele>791.4</ele>
        <time>2019-08-11T06:48:23.000Z</time>
      </trkpt>
      <trkpt lat="43.40071" lon="2.26241">
        <ele>791.1</ele>
        <time>2019-08-11T06:48:24.000Z</time>
      </trkpt>
      <trkpt lat="43.40074" lon="2.2624">
        <ele>790.8</ele>
        <time>2019-08-11T06:48:25.000Z</time>
      </trkpt>
      <trkpt lat="43.40077" lon="2.2624">
        <ele>790.5</ele>
        <time>2019-08-11T06:48:26.000Z</time>
      </trkpt>
      <trkpt lat="43.40081" lon="2.26239">
        <ele>790.1</ele>
        <time>2019-08-11T06:48:27.000Z</time>
      </trkpt>
      <trkpt lat="43.40084" lon="2.26239">
        <ele>789.8</ele>
        <time>2019-08-11T06:48:28.000Z</time>
      </trkpt>
      <trkpt lat="43.40087" lon="2.2624">
        <ele>789.5</ele>
        <time>2019-08-11T06:48:29.000Z</time>
      </trkpt>
      <trkpt lat="43.4009" lon="2.2624">
        <ele>789.2</ele>
        <time>2019-08-11T06:48:30.000Z</time>
      </trkpt>
      <trkpt lat="43.40094" lon="2.26241">
        <ele>788.9</ele>
        <time>2019-08-11T06:48:31.000Z</time>
      </trkpt>
      <trkpt lat="43.40097" lon="2.26242">
        <ele>788.5</ele>
        <time>2019-08-11T06:48:32.000Z</time>
      </trkpt>
      <trkpt lat="43.401" lon="2.26243">
        <ele>788.2</ele>
        <time>2019-08-11T06:48:33.000Z</time>
      </trkpt>
      <trkpt lat="43.40104" lon="2.26245">
        <ele>787.9</ele>
        <time>2019-08-11T06:48:34.000Z</time>
      </trkpt>
      <trkpt lat="43.40107" lon="2.26247">
        <ele>787.7</ele>
        <time>2019-08-11T06:48:35.000Z</time>
      </trkpt>
      <trkpt lat="43.4011" lon="2.26249">
        <ele>787.4</ele>
        <time>2019-08-11T06:48:36.000Z</time>
      </trkpt>
      <trkpt lat="43.40113" lon="2.26251">
        <ele>787.2</ele>
        <time>2019-08-11T06:48:37.000Z</time>
      </trkpt>
      <trkpt lat="43.40116" lon="2.26253">
        <ele>787</ele>
        <time>2019-08-11T06:48:38.000Z</time>
      </trkpt>
      <trkpt lat="43.4012" lon="2.26255">
        <ele>786.8</ele>
        <time>2019-08-11T06:48:39.000Z</time>
      </trkpt>
      <trkpt lat="43.40123" lon="2.26258">
        <ele>786.7</ele>
        <time>2019-08-11T06:48:40.000Z</time>
      </trkpt>
      <trkpt lat="43.40125" lon="2.2626">
        <ele>786.6</ele>
        <time>2019-08-11T06:48:41.000Z</time>
      </trkpt>
      <trkpt lat="43.40128" lon="2.26263">
        <ele>786.5</ele>
        <time>2019-08-11T06:48:42.000Z</time>
      </trkpt>
      <trkpt lat="43.40131" lon="2.26265">
        <ele>786.4</ele>
        <time>2019-08-11T06:48:43.000Z</time>
      </trkpt>
      <trkpt lat="43.40134" lon="2.26267">
        <ele>786.3</ele>
        <time>2019-08-11T06:48:44.000Z</time>
      </trkpt>
      <trkpt lat="43.40137" lon="2.2627">
        <ele>786.2</ele>
        <time>2019-08-11T06:48:45.000Z</time>
      </trkpt>
      <trkpt lat="43.4014" lon="2.26272">
        <ele>786.1</ele>
        <time>2019-08-11T06:48:46.000Z</time>
      </trkpt>
      <trkpt lat="43.40142" lon="2.26274">
        <ele>786</ele>
        <time>2019-08-11T06:48:47.000Z</time>
      </trkpt>
      <trkpt lat="43.40145" lon="2.26276">
        <ele>785.9</ele>
        <time>2019-08-11T06:48:48.000Z</time>
      </trkpt>
      <trkpt lat="43.40147" lon="2.26278">
        <ele>785.9</ele>
        <time>2019-08-11T06:48:49.000Z</time>
      </trkpt>
      <trkpt lat="43.4015" lon="2.2628">
        <ele>785.8</ele>
        <time>2019-08-11T06:48:50.000Z</time>
      </trkpt>
      <trkpt lat="43.40152" lon="2.26281">
        <ele>785.8</ele>
        <time>2019-08-11T06:48:51.000Z</time>
      </trkpt>
      <trkpt lat="43.40154" lon="2.26283">
        <ele>785.8</ele>
        <time>2019-08-11T06:48:52.000Z</time>
      </trkpt>
      <trkpt lat="43.40156" lon="2.26285">
        <ele>785.8</ele>
        <time>2019-08-11T06:48:53.000Z</time>
      </trkpt>
      <trkpt lat="43.40157" lon="2.26287">
        <ele>785.8</ele>
        <time>2019-08-11T06:48:54.000Z</time>
      </trkpt>
      <trkpt lat="43.40159" lon="2.26289">
        <ele>785.8</ele>
        <time>2019-08-11T06:48:55.000Z</time>
      </trkpt>
      <trkpt lat="43.40161" lon="2.26291">
        <ele>785.8</ele>
        <time>2019-08-11T06:48:56.000Z</time>
      </trkpt>
      <trkpt lat="43.40162" lon="2.26293">
        <ele>785.9</ele>
        <time>2019-08-11T06:48:57.000Z</time>
      </trkpt>
      <trkpt lat="43.40164" lon="2.26294">
        <ele>785.9</ele>
        <time>2019-08-11T06:48:58.000Z</time>
      </trkpt>
      <trkpt lat="43.40165" lon="2.26296">
        <ele>786</ele>
        <time>2019-08-11T06:48:59.000Z</time>
      </trkpt>
      <trkpt lat="43.40166" lon="2.26298">
        <ele>786.1</ele>
        <time>2019-08-11T06:49:00.000Z</time>
      </trkpt>
      <trkpt lat="43.40168" lon="2.263">
        <ele>786.2</ele>
        <time>2019-08-11T06:49:01.000Z</time>
      </trkpt>
      <trkpt lat="43.40169" lon="2.26302">
        <ele>786.4</ele>
        <time>2019-08-11T06:49:02.000Z</time>
      </trkpt>
      <trkpt lat="43.4017" lon="2.26304">
        <ele>786.6</ele>
        <time>2019-08-11T06:49:03.000Z</time>
      </trkpt>
      <trkpt lat="43.40172" lon="2.26307">
        <ele>786.8</ele>
        <time>2019-08-11T06:49:04.000Z</time>
      </trkpt>
      <trkpt lat="43.40173" lon="2.26309">
        <ele>787</ele>
        <time>2019-08-11T06:49:05.000Z</time>
      </trkpt>
      <trkpt lat="43.40175" lon="2.26311">
        <ele>787.2</ele>
        <time>2019-08-11T06:49:06.000Z</time>
      </trkpt>
      <trkpt lat="43.40176" lon="2.26314">
        <ele>787.4</ele>
        <time>2019-08-11T06:49:07.000Z</time>
      </trkpt>
      <trkpt lat="43.40177" lon="2.26316">
        <ele>787.6</ele>
        <time>2019-08-11T06:49:08.000Z</time>
      </trkpt>
      <trkpt lat="43.40179" lon="2.26319">
        <ele>787.8</ele>
        <time>2019-08-11T06:49:09.000Z</time>
      </trkpt>
      <trkpt lat="43.4018" lon="2.26322">
        <ele>788</ele>
        <time>2019-08-11T06:49:10.000Z</time>
      </trkpt>
      <trkpt lat="43.40182" lon="2.26325">
        <ele>788.2</ele>
        <time>2019-08-11T06:49:11.000Z</time>
      </trkpt>
      <trkpt lat="43.40183" lon="2.26328">
        <ele>788.4</ele>
        <time>2019-08-11T06:49:12.000Z</time>
      </trkpt>
      <trkpt lat="43.40185" lon="2.26332">
        <ele>788.7</ele>
        <time>2019-08-11T06:49:13.000Z</time>
      </trkpt>
      <trkpt lat="43.40186" lon="2.26336">
        <ele>788.8</ele>
        <time>2019-08-11T06:49:14.000Z</time>
      </trkpt>
      <trkpt lat="43.40188" lon="2.2634">
        <ele>788.8</ele>
        <time>2019-08-11T06:49:15.000Z</time>
      </trkpt>
      <trkpt lat="43.40189" lon="2.26344">
        <ele>788.8</ele>
        <time>2019-08-11T06:49:16.000Z</time>
      </trkpt>
      <trkpt lat="43.4019" lon="2.26348">
        <ele>788.8</ele>
        <time>2019-08-11T06:49:17.000Z</time>
      </trkpt>
      <trkpt lat="43.40191" lon="2.26352">
        <ele>788.9</ele>
        <time>2019-08-11T06:49:18.000Z</time>
      </trkpt>
      <trkpt lat="43.40191" lon="2.26356">
        <ele>788.9</ele>
        <time>2019-08-11T06:49:19.000Z</time>
      </trkpt>
      <trkpt lat="43.40191" lon="2.26359">
        <ele>788.9</ele>
        <time>2019-08-11T06:49:20.000Z</time>
      </trkpt>
      <trkpt lat="43.40191" lon="2.26363">
        <ele>789</ele>
        <time>2019-08-11T06:49:21.000Z</time>
      </trkpt>
      <trkpt lat="43.4019" lon="2.26366">
        <ele>789</ele>
        <time>2019-08-11T06:49:22.000Z</time>
      </trkpt>
      <trkpt lat="43.4019" lon="2.2637">
        <ele>789</ele>
        <time>2019-08-11T06:49:23.000Z</time>
      </trkpt>
      <trkpt lat="43.40189" lon="2.26373">
        <ele>789.1</ele>
        <time>2019-08-11T06:49:24.000Z</time>
      </trkpt>
      <trkpt lat="43.40187" lon="2.26377">
        <ele>789.1</ele>
        <time>2019-08-11T06:49:25.000Z</time>
      </trkpt>
      <trkpt lat="43.40186" lon="2.2638">
        <ele>789.2</ele>
        <time>2019-08-11T06:49:26.000Z</time>
      </trkpt>
      <trkpt lat="43.40185" lon="2.26384">
        <ele>789.2</ele>
        <time>2019-08-11T06:49:27.000Z</time>
      </trkpt>
      <trkpt lat="43.40184" lon="2.26387">
        <ele>789.3</ele>
        <time>2019-08-11T06:49:28.000Z</time>
      </trkpt>
      <trkpt lat="43.40183" lon="2.26391">
        <ele>789.4</ele>
        <time>2019-08-11T06:49:29.000Z</time>
      </trkpt>
      <trkpt lat="43.40182" lon="2.26394">
        <ele>789.4</ele>
        <time>2019-08-11T06:49:30.000Z</time>
      </trkpt>
      <trkpt lat="43.40181" lon="2.26398">
        <ele>789.5</ele>
        <time>2019-08-11T06:49:31.000Z</time>
      </trkpt>
      <trkpt lat="43.4018" lon="2.26401">
        <ele>789.5</ele>
        <time>2019-08-11T06:49:32.000Z</time>
      </trkpt>
      <trkpt lat="43.40179" lon="2.26405">
        <ele>789.6</ele>
        <time>2019-08-11T06:49:33.000Z</time>
      </trkpt>
      <trkpt lat="43.40178" lon="2.26408">
        <ele>789.6</ele>
        <time>2019-08-11T06:49:34.000Z</time>
      </trkpt>
      <trkpt lat="43.40177" lon="2.26411">
        <ele>789.7</ele>
        <time>2019-08-11T06:49:35.000Z</time>
      </trkpt>
      <trkpt lat="43.40176" lon="2.26414">
        <ele>789.8</ele>
        <time>2019-08-11T06:49:36.000Z</time>
      </trkpt>
      <trkpt lat="43.40175" lon="2.26416">
        <ele>789.8</ele>
        <time>2019-08-11T06:49:37.000Z</time>
      </trkpt>
      <trkpt lat="43.40174" lon="2.26419">
        <ele>789.8</ele>
        <time>2019-08-11T06:49:38.000Z</time>
      </trkpt>
      <trkpt lat="43.40173" lon="2.26422">
        <ele>789.8</ele>
        <time>2019-08-11T06:49:39.000Z</time>
      </trkpt>
      <trkpt lat="43.40172" lon="2.26425">
        <ele>789.8</ele>
        <time>2019-08-11T06:49:40.000Z</time>
      </trkpt>
      <trkpt lat="43.40172" lon="2.26427">
        <ele>789.8</ele>
        <time>2019-08-11T06:49:41.000Z</time>
      </trkpt>
      <trkpt lat="43.40171" lon="2.2643">
        <ele>789.8</ele>
        <time>2019-08-11T06:49:42.000Z</time>
      </trkpt>
      <trkpt lat="43.40171" lon="2.26433">
        <ele>789.7</ele>
        <time>2019-08-11T06:49:43.000Z</time>
      </trkpt>
      <trkpt lat="43.4017" lon="2.26435">
        <ele>789.7</ele>
        <time>2019-08-11T06:49:44.000Z</time>
      </trkpt>
      <trkpt lat="43.40169" lon="2.26437">
        <ele>789.7</ele>
        <time>2019-08-11T06:49:45.000Z</time>
      </trkpt>
      <trkpt lat="43.40169" lon="2.26439">
        <ele>789.7</ele>
        <time>2019-08-11T06:49:46.000Z</time>
      </trkpt>
      <trkpt lat="43.40168" lon="2.2644">
        <ele>789.7</ele>
        <time>2019-08-11T06:49:47.000Z</time>
      </trkpt>
      <trkpt lat="43.40167" lon="2.2644">
        <ele>789.7</ele>
        <time>2019-08-11T06:49:48.000Z</time>
      </trkpt>
      <trkpt lat="43.40166" lon="2.26441">
        <ele>789.7</ele>
        <time>2019-08-11T06:49:49.000Z</time>
      </trkpt>
      <trkpt lat="43.40166" lon="2.26441">
        <ele>789.8</ele>
        <time>2019-08-11T06:49:50.000Z</time>
      </trkpt>
      <trkpt lat="43.40165" lon="2.26442">
        <ele>789.8</ele>
        <time>2019-08-11T06:49:51.000Z</time>
      </trkpt>
      <trkpt lat="43.40165" lon="2.26443">
        <ele>789.8</ele>
        <time>2019-08-11T06:49:52.000Z</time>
      </trkpt>
      <trkpt lat="43.40165" lon="2.26445">
        <ele>789.8</ele>
        <time>2019-08-11T06:49:53.000Z</time>
      </trkpt>
      <trkpt lat="43.40165" lon="2.26446">
        <ele>789.7</ele>
        <time>2019-08-11T06:49:54.000Z</time>
      </trkpt>
      <trkpt lat="43.40165" lon="2.26448">
        <ele>789.7</ele>
        <time>2019-08-11T06:49:55.000Z</time>
      </trkpt>
      <trkpt lat="43.40165" lon="2.2645">
        <ele>789.7</ele>
        <time>2019-08-11T06:49:56.000Z</time>
      </trkpt>
      <trkpt lat="43.40166" lon="2.26452">
        <ele>789.6</ele>
        <time>2019-08-11T06:49:57.000Z</time>
      </trkpt>
      <trkpt lat="43.40166" lon="2.26454">
        <ele>789.6</ele>
        <time>2019-08-11T06:49:58.000Z</time>
      </trkpt>
      <trkpt lat="43.40166" lon="2.26456">
        <ele>789.6</ele>
        <time>2019-08-11T06:49:59.000Z</time>
      </trkpt>
      <trkpt lat="43.40166" lon="2.26457">
        <ele>789.5</ele>
        <time>2019-08-11T06:50:00.000Z</time>
      </trkpt>
      <trkpt lat="43.40166" lon="2.26459">
        <ele>789.5</ele>
        <time>2019-08-11T06:50:01.000Z</time>
      </trkpt>
      <trkpt lat="43.40166" lon="2.26461">
        <ele>789.5</ele>
        <time>2019-08-11T06:50:02.000Z</time>
      </trkpt>
      <trkpt lat="43.40166" lon="2.26463">
        <ele>789.5</ele>
        <time>2019-08-11T06:50:03.000Z</time>
      </trkpt>
      <trkpt lat="43.40166" lon="2.26465">
        <ele>789.5</ele>
        <time>2019-08-11T06:50:04.000Z</time>
      </trkpt>
      <trkpt lat="43.40165" lon="2.26467">
        <ele>789.5</ele>
        <time>2019-08-11T06:50:05.000Z</time>
      </trkpt>
      <trkpt lat="43.40165" lon="2.26469">
        <ele>789.4</ele>
        <time>2019-08-11T06:50:06.000Z</time>
      </trkpt>
      <trkpt lat="43.40164" lon="2.26472">
        <ele>789.4</ele>
        <time>2019-08-11T06:50:07.000Z</time>
      </trkpt>
      <trkpt lat="43.40164" lon="2.26474">
        <ele>789.4</ele>
        <time>2019-08-11T06:50:08.000Z</time>
      </trkpt>
      <trkpt lat="43.40164" lon="2.26477">
        <ele>789.4</ele>
        <time>2019-08-11T06:50:09.000Z</time>
      </trkpt>
      <trkpt lat="43.40164" lon="2.26479">
        <ele>789.4</ele>
        <time>2019-08-11T06:50:10.000Z</time>
      </trkpt>
      <trkpt lat="43.40164" lon="2.26482">
        <ele>789.3</ele>
        <time>2019-08-11T06:50:11.000Z</time>
      </trkpt>
      <trkpt lat="43.40163" lon="2.26485">
        <ele>789.3</ele>
        <time>2019-08-11T06:50:12.000Z</time>
      </trkpt>
      <trkpt lat="43.40163" lon="2.26488">
        <ele>789.3</ele>
        <time>2019-08-11T06:50:13.000Z</time>
      </trkpt>
      <trkpt lat="43.40163" lon="2.2649">
        <ele>789.2</ele>
        <time>2019-08-11T06:50:14.000Z</time>
      </trkpt>
      <trkpt lat="43.40163" lon="2.26493">
        <ele>789.2</ele>
        <time>2019-08-11T06:50:15.000Z</time>
      </trkpt>
      <trkpt lat="43.40163" lon="2.26495">
        <ele>789.2</ele>
        <time>2019-08-11T06:50:16.000Z</time>
      </trkpt>
      <trkpt lat="43.40163" lon="2.26497">
        <ele>789.2</ele>
        <time>2019-08-11T06:50:17.000Z</time>
      </trkpt>
      <trkpt lat="43.40162" lon="2.26499">
        <ele>789.2</ele>
        <time>2019-08-11T06:50:18.000Z</time>
      </trkpt>
      <trkpt lat="43.40162" lon="2.26501">
        <ele>789.2</ele>
        <time>2019-08-11T06:50:19.000Z</time>
      </trkpt>
      <trkpt lat="43.40162" lon="2.26503">
        <ele>789.2</ele>
        <time>2019-08-11T06:50:20.000Z</time>
      </trkpt>
      <trkpt lat="43.40161" lon="2.26504">
        <ele>789.2</ele>
        <time>2019-08-11T06:50:21.000Z</time>
      </trkpt>
      <trkpt lat="43.40161" lon="2.26506">
        <ele>789.3</ele>
        <time>2019-08-11T06:50:22.000Z</time>
      </trkpt>
      <trkpt lat="43.4016" lon="2.26508">
        <ele>789.3</ele>
        <time>2019-08-11T06:50:23.000Z</time>
      </trkpt>
      <trkpt lat="43.4016" lon="2.26509">
        <ele>789.3</ele>
        <time>2019-08-11T06:50:24.000Z</time>
      </trkpt>
      <trkpt lat="43.40159" lon="2.26511">
        <ele>789.4</ele>
        <time>2019-08-11T06:50:25.000Z</time>
      </trkpt>
      <trkpt lat="43.40159" lon="2.26513">
        <ele>789.4</ele>
        <time>2019-08-11T06:50:26.000Z</time>
      </trkpt>
      <trkpt lat="43.40158" lon="2.26514">
        <ele>789.4</ele>
        <time>2019-08-11T06:50:27.000Z</time>
      </trkpt>
      <trkpt lat="43.40158" lon="2.26516">
        <ele>789.5</ele>
        <time>2019-08-11T06:50:28.000Z</time>
      </trkpt>
      <trkpt lat="43.40158" lon="2.26518">
        <ele>789.5</ele>
        <time>2019-08-11T06:50:29.000Z</time>
      </trkpt>
      <trkpt lat="43.40157" lon="2.2652">
        <ele>789.5</ele>
        <time>2019-08-11T06:50:30.000Z</time>
      </trkpt>
      <trkpt lat="43.40157" lon="2.26521">
        <ele>789.5</ele>
        <time>2019-08-11T06:50:31.000Z</time>
      </trkpt>
      <trkpt lat="43.40157" lon="2.26523">
        <ele>789.6</ele>
        <time>2019-08-11T06:50:32.000Z</time>
      </trkpt>
      <trkpt lat="43.40157" lon="2.26524">
        <ele>789.6</ele>
        <time>2019-08-11T06:50:33.000Z</time>
      </trkpt>
      <trkpt lat="43.40157" lon="2.26526">
        <ele>789.6</ele>
        <time>2019-08-11T06:50:34.000Z</time>
      </trkpt>
      <trkpt lat="43.40157" lon="2.26527">
        <ele>789.6</ele>
        <time>2019-08-11T06:50:35.000Z</time>
      </trkpt>
      <trkpt lat="43.40157" lon="2.26529">
        <ele>789.6</ele>
        <time>2019-08-11T06:50:36.000Z</time>
      </trkpt>
      <trkpt lat="43.40157" lon="2.2653">
        <ele>789.6</ele>
        <time>2019-08-11T06:50:37.000Z</time>
      </trkpt>
      <trkpt lat="43.40157" lon="2.26531">
        <ele>789.6</ele>
        <time>2019-08-11T06:50:38.000Z</time>
      </trkpt>
      <trkpt lat="43.40158" lon="2.26532">
        <ele>789.6</ele>
        <time>2019-08-11T06:50:39.000Z</time>
      </trkpt>
      <trkpt lat="43.40158" lon="2.26533">
        <ele>789.6</ele>
        <time>2019-08-11T06:50:40.000Z</time>
      </trkpt>
      <trkpt lat="43.40159" lon="2.26535">
        <ele>789.6</ele>
        <time>2019-08-11T06:50:41.000Z</time>
      </trkpt>
      <trkpt lat="43.4016" lon="2.26536">
        <ele>789.6</ele>
        <time>2019-08-11T06:50:42.000Z</time>
      </trkpt>
      <trkpt lat="43.4016" lon="2.26537">
        <ele>789.6</ele>
        <time>2019-08-11T06:50:43.000Z</time>
      </trkpt>
      <trkpt lat="43.40161" lon="2.26539">
        <ele>789.6</ele>
        <time>2019-08-11T06:50:44.000Z</time>
      </trkpt>
      <trkpt lat="43.40161" lon="2.26541">
        <ele>789.6</ele>
        <time>2019-08-11T06:50:45.000Z</time>
      </trkpt>
      <trkpt lat="43.40162" lon="2.26542">
        <ele>789.6</ele>
        <time>2019-08-11T06:50:46.000Z</time>
      </trkpt>
      <trkpt lat="43.40163" lon="2.26544">
        <ele>789.6</ele>
        <time>2019-08-11T06:50:47.000Z</time>
      </trkpt>
      <trkpt lat="43.40163" lon="2.26546">
        <ele>789.6</ele>
        <time>2019-08-11T06:50:48.000Z</time>
      </trkpt>
      <trkpt lat="43.40164" lon="2.26548">
        <ele>789.6</ele>
        <time>2019-08-11T06:50:49.000Z</time>
      </trkpt>
      <trkpt lat="43.40164" lon="2.2655">
        <ele>789.6</ele>
        <time>2019-08-11T06:50:50.000Z</time>
      </trkpt>
      <trkpt lat="43.40165" lon="2.26552">
        <ele>789.7</ele>
        <time>2019-08-11T06:50:51.000Z</time>
      </trkpt>
      <trkpt lat="43.40166" lon="2.26554">
        <ele>789.7</ele>
        <time>2019-08-11T06:50:52.000Z</time>
      </trkpt>
      <trkpt lat="43.40166" lon="2.26556">
        <ele>789.7</ele>
        <time>2019-08-11T06:50:53.000Z</time>
      </trkpt>
      <trkpt lat="43.40167" lon="2.26559">
        <ele>789.7</ele>
        <time>2019-08-11T06:50:54.000Z</time>
      </trkpt>
      <trkpt lat="43.40167" lon="2.26561">
        <ele>789.7</ele>
        <time>2019-08-11T06:50:55.000Z</time>
      </trkpt>
      <trkpt lat="43.40168" lon="2.26563">
        <ele>789.8</ele>
        <time>2019-08-11T06:50:56.000Z</time>
      </trkpt>
      <trkpt lat="43.40169" lon="2.26565">
        <ele>789.8</ele>
        <time>2019-08-11T06:50:57.000Z</time>
      </trkpt>
      <trkpt lat="43.40169" lon="2.26567">
        <ele>789.8</ele>
        <time>2019-08-11T06:50:58.000Z</time>
      </trkpt>
      <trkpt lat="43.4017" lon="2.26569">
        <ele>789.9</ele>
        <time>2019-08-11T06:50:59.000Z</time>
      </trkpt>
      <trkpt lat="43.40171" lon="2.26571">
        <ele>789.9</ele>
        <time>2019-08-11T06:51:00.000Z</time>
      </trkpt>
      <trkpt lat="43.40171" lon="2.26573">
        <ele>789.9</ele>
        <time>2019-08-11T06:51:01.000Z</time>
      </trkpt>
      <trkpt lat="43.40172" lon="2.26575">
        <ele>790</ele>
        <time>2019-08-11T06:51:02.000Z</time>
      </trkpt>
      <trkpt lat="43.40172" lon="2.26577">
        <ele>790</ele>
        <time>2019-08-11T06:51:03.000Z</time>
      </trkpt>
      <trkpt lat="43.40172" lon="2.26579">
        <ele>790</ele>
        <time>2019-08-11T06:51:04.000Z</time>
      </trkpt>
      <trkpt lat="43.40173" lon="2.26581">
        <ele>790</ele>
        <time>2019-08-11T06:51:05.000Z</time>
      </trkpt>
      <trkpt lat="43.40173" lon="2.26583">
        <ele>790.1</ele>
        <time>2019-08-11T06:51:06.000Z</time>
      </trkpt>
      <trkpt lat="43.40173" lon="2.26585">
        <ele>790.1</ele>
        <time>2019-08-11T06:51:07.000Z</time>
      </trkpt>
      <trkpt lat="43.40173" lon="2.26586">
        <ele>790.2</ele>
        <time>2019-08-11T06:51:08.000Z</time>
      </trkpt>
      <trkpt lat="43.40173" lon="2.26588">
        <ele>790.3</ele>
        <time>2019-08-11T06:51:09.000Z</time>
      </trkpt>
      <trkpt lat="43.40174" lon="2.2659">
        <ele>790.4</ele>
        <time>2019-08-11T06:51:10.000Z</time>
      </trkpt>
      <trkpt lat="43.40174" lon="2.26593">
        <ele>790.5</ele>
        <time>2019-08-11T06:51:11.000Z</time>
      </trkpt>
      <trkpt lat="43.40174" lon="2.26594">
        <ele>790.6</ele>
        <time>2019-08-11T06:51:12.000Z</time>
      </trkpt>
      <trkpt lat="43.40174" lon="2.26596">
        <ele>790.7</ele>
        <time>2019-08-11T06:51:13.000Z</time>
      </trkpt>
      <trkpt lat="43.40175" lon="2.26597">
        <ele>790.8</ele>
        <time>2019-08-11T06:51:14.000Z</time>
      </trkpt>
      <trkpt lat="43.40175" lon="2.26598">
        <ele>790.8</ele>
        <time>2019-08-11T06:51:15.000Z</time>
      </trkpt>
      <trkpt lat="43.40175" lon="2.26599">
        <ele>790.9</ele>
        <time>2019-08-11T06:51:16.000Z</time>
      </trkpt>
      <trkpt lat="43.40175" lon="2.266">
        <ele>790.9</ele>
        <time>2019-08-11T06:51:17.000Z</time>
      </trkpt>
      <trkpt lat="43.40175" lon="2.26601">
        <ele>790.9</ele>
        <time>2019-08-11T06:51:18.000Z</time>
      </trkpt>
      <trkpt lat="43.40175" lon="2.26601">
        <ele>791</ele>
        <time>2019-08-11T06:51:19.000Z</time>
      </trkpt>
      <trkpt lat="43.40175" lon="2.26602">
        <ele>791</ele>
        <time>2019-08-11T06:51:20.000Z</time>
      </trkpt>
      <trkpt lat="43.40175" lon="2.26602">
        <ele>791</ele>
        <time>2019-08-11T06:51:21.000Z</time>
      </trkpt>
      <trkpt lat="43.40176" lon="2.26602">
        <ele>791</ele>
        <time>2019-08-11T06:51:22.000Z</time>
      </trkpt>
      <trkpt lat="43.40176" lon="2.26602">
        <ele>791</ele>
        <time>2019-08-11T06:51:23.000Z</time>
      </trkpt>
      <trkpt lat="43.40177" lon="2.26601">
        <ele>791</ele>
        <time>2019-08-11T06:51:24.000Z</time>
      </trkpt>
      <trkpt lat="43.40179" lon="2.26601">
        <ele>791</ele>
        <time>2019-08-11T06:51:25.000Z</time>
      </trkpt>
      <trkpt lat="43.4018" lon="2.266">
        <ele>791</ele>
        <time>2019-08-11T06:51:26.000Z</time>
      </trkpt>
      <trkpt lat="43.40181" lon="2.26599">
        <ele>790.9</ele>
        <time>2019-08-11T06:51:27.000Z</time>
      </trkpt>
      <trkpt lat="43.40181" lon="2.26599">
        <ele>790.9</ele>
        <time>2019-08-11T06:51:28.000Z</time>
      </trkpt>
      <trkpt lat="43.40181" lon="2.26598">
        <ele>790.9</ele>
        <time>2019-08-11T06:51:29.000Z</time>
      </trkpt>
      <trkpt lat="43.40182" lon="2.26598">
        <ele>790.9</ele>
        <time>2019-08-11T06:51:30.000Z</time>
      </trkpt>
      <trkpt lat="43.40182" lon="2.26597">
        <ele>790.9</ele>
        <time>2019-08-11T06:51:31.000Z</time>
      </trkpt>
      <trkpt lat="43.40182" lon="2.26597">
        <ele>790.9</ele>
        <time>2019-08-11T06:51:32.000Z</time>
      </trkpt>
      <trkpt lat="43.40182" lon="2.26597">
        <ele>790.9</ele>
        <time>2019-08-11T06:51:33.000Z</time>
      </trkpt>
      <trkpt lat="43.40182" lon="2.26597">
        <ele>790.9</ele>
        <time>2019-08-11T06:51:34.000Z</time>
      </trkpt>
      <trkpt lat="43.40182" lon="2.26597">
        <ele>790.9</ele>
        <time>2019-08-11T06:51:35.000Z</time>
      </trkpt>
      <trkpt lat="43.40182" lon="2.26597">
        <ele>790.9</ele>
        <time>2019-08-11T06:51:36.000Z</time>
      </trkpt>
      <trkpt lat="43.40182" lon="2.26597">
        <ele>790.9</ele>
        <time>2019-08-11T06:51:37.000Z</time>
      </trkpt>
      <trkpt lat="43.40182" lon="2.26597">
        <ele>790.9</ele>
        <time>2019-08-11T06:51:38.000Z</time>
      </trkpt>
      <trkpt lat="43.40182" lon="2.26597">
        <ele>790.9</ele>
        <time>2019-08-11T06:51:39.000Z</time>
      </trkpt>
      <trkpt lat="43.40182" lon="2.26597">
        <ele>790.9</ele>
        <time>2019-08-11T06:51:40.000Z</time>
      </trkpt>
      <trkpt lat="43.40182" lon="2.26597">
        <ele>790.8</ele>
        <time>2019-08-11T06:51:41.000Z</time>
      </trkpt>
      <trkpt lat="43.40182" lon="2.26597">
        <ele>790.8</ele>
        <time>2019-08-11T06:51:42.000Z</time>
      </trkpt>
      <trkpt lat="43.40182" lon="2.26597">
        <ele>790.8</ele>
        <time>2019-08-11T06:51:43.000Z</time>
      </trkpt>
      <trkpt lat="43.40182" lon="2.26597">
        <ele>790.8</ele>
        <time>2019-08-11T06:51:44.000Z</time>
      </trkpt>
      <trkpt lat="43.40181" lon="2.26598">
        <ele>790.9</ele>
        <time>2019-08-11T06:51:45.000Z</time>
      </trkpt>
      <trkpt lat="43.40181" lon="2.26598">
        <ele>790.9</ele>
        <time>2019-08-11T06:51:46.000Z</time>
      </trkpt>
      <trkpt lat="43.40181" lon="2.26598">
        <ele>790.9</ele>
        <time>2019-08-11T06:51:47.000Z</time>
      </trkpt>
      <trkpt lat="43.4018" lon="2.26599">
        <ele>790.9</ele>
        <time>2019-08-11T06:51:48.000Z</time>
      </trkpt>
      <trkpt lat="43.40179" lon="2.266">
        <ele>791</ele>
        <time>2019-08-11T06:51:49.000Z</time>
      </trkpt>
      <trkpt lat="43.40179" lon="2.26601">
        <ele>791</ele>
        <time>2019-08-11T06:51:50.000Z</time>
      </trkpt>
      <trkpt lat="43.40178" lon="2.26602">
        <ele>791</ele>
        <time>2019-08-11T06:51:51.000Z</time>
      </trkpt>
      <trkpt lat="43.40178" lon="2.26603">
        <ele>791.1</ele>
        <time>2019-08-11T06:51:52.000Z</time>
      </trkpt>
      <trkpt lat="43.40177" lon="2.26604">
        <ele>791.1</ele>
        <time>2019-08-11T06:51:53.000Z</time>
      </trkpt>
      <trkpt lat="43.40177" lon="2.26604">
        <ele>791.1</ele>
        <time>2019-08-11T06:51:54.000Z</time>
      </trkpt>
      <trkpt lat="43.40177" lon="2.26605">
        <ele>791.1</ele>
        <time>2019-08-11T06:51:55.000Z</time>
      </trkpt>
      <trkpt lat="43.40176" lon="2.26605">
        <ele>791.1</ele>
        <time>2019-08-11T06:51:56.000Z</time>
      </trkpt>
      <trkpt lat="43.40176" lon="2.26605">
        <ele>791.2</ele>
        <time>2019-08-11T06:51:57.000Z</time>
      </trkpt>
      <trkpt lat="43.40176" lon="2.26605">
        <ele>791.2</ele>
        <time>2019-08-11T06:51:58.000Z</time>
      </trkpt>
      <trkpt lat="43.40176" lon="2.26606">
        <ele>791.2</ele>
        <time>2019-08-11T06:51:59.000Z</time>
      </trkpt>
      <trkpt lat="43.40176" lon="2.26607">
        <ele>791.3</ele>
        <time>2019-08-11T06:52:00.000Z</time>
      </trkpt>
      <trkpt lat="43.40175" lon="2.26609">
        <ele>791.3</ele>
        <time>2019-08-11T06:52:01.000Z</time>
      </trkpt>
      <trkpt lat="43.40175" lon="2.2661">
        <ele>791.4</ele>
        <time>2019-08-11T06:52:02.000Z</time>
      </trkpt>
      <trkpt lat="43.40174" lon="2.2661">
        <ele>791.4</ele>
        <time>2019-08-11T06:52:03.000Z</time>
      </trkpt>
      <trkpt lat="43.40173" lon="2.26611">
        <ele>791.4</ele>
        <time>2019-08-11T06:52:04.000Z</time>
      </trkpt>
      <trkpt lat="43.40173" lon="2.26612">
        <ele>791.4</ele>
        <time>2019-08-11T06:52:05.000Z</time>
      </trkpt>
      <trkpt lat="43.40172" lon="2.26612">
        <ele>791.5</ele>
        <time>2019-08-11T06:52:06.000Z</time>
      </trkpt>
      <trkpt lat="43.40172" lon="2.26612">
        <ele>791.5</ele>
        <time>2019-08-11T06:52:07.000Z</time>
      </trkpt>
      <trkpt lat="43.40172" lon="2.26613">
        <ele>791.5</ele>
        <time>2019-08-11T06:52:08.000Z</time>
      </trkpt>
      <trkpt lat="43.40172" lon="2.26613">
        <ele>791.5</ele>
        <time>2019-08-11T06:52:09.000Z</time>
      </trkpt>
      <trkpt lat="43.40172" lon="2.26612">
        <ele>791.5</ele>
        <time>2019-08-11T06:52:10.000Z</time>
      </trkpt>
      <trkpt lat="43.40172" lon="2.26612">
        <ele>791.5</ele>
        <time>2019-08-11T06:52:11.000Z</time>
      </trkpt>
      <trkpt lat="43.40172" lon="2.26612">
        <ele>791.5</ele>
        <time>2019-08-11T06:52:12.000Z</time>
      </trkpt>
      <trkpt lat="43.40172" lon="2.26612">
        <ele>791.5</ele>
        <time>2019-08-11T06:52:13.000Z</time>
      </trkpt>
      <trkpt lat="43.40172" lon="2.26612">
        <ele>791.5</ele>
        <time>2019-08-11T06:52:14.000Z</time>
      </trkpt>
      <trkpt lat="43.40172" lon="2.26612">
        <ele>791.5</ele>
        <time>2019-08-11T06:52:15.000Z</time>
      </trkpt>
      <trkpt lat="43.40172" lon="2.26612">
        <ele>791.5</ele>
        <time>2019-08-11T06:52:16.000Z</time>
      </trkpt>
      <trkpt lat="43.40172" lon="2.26612">
        <ele>791.5</ele>
        <time>2019-08-11T06:52:17.000Z</time>
      </trkpt>
      <trkpt lat="43.40172" lon="2.26612">
        <ele>791.5</ele>
        <time>2019-08-11T06:52:18.000Z</time>
      </trkpt>
      <trkpt lat="43.40172" lon="2.26612">
        <ele>791.5</ele>
        <time>2019-08-11T06:52:19.000Z</time>
      </trkpt>
      <trkpt lat="43.40172" lon="2.26612">
        <ele>791.5</ele>
        <time>2019-08-11T06:52:20.000Z</time>
      </trkpt>
      <trkpt lat="43.40172" lon="2.26612">
        <ele>791.5</ele>
        <time>2019-08-11T06:52:21.000Z</time>
      </trkpt>
      <trkpt lat="43.40172" lon="2.26612">
        <ele>791.5</ele>
        <time>2019-08-11T06:52:22.000Z</time>
      </trkpt>
      <trkpt lat="43.40172" lon="2.26612">
        <ele>791.5</ele>
        <time>2019-08-11T06:52:23.000Z</time>
      </trkpt>
      <trkpt lat="43.40172" lon="2.26612">
        <ele>791.4</ele>
        <time>2019-08-11T06:52:24.000Z</time>
      </trkpt>
      <trkpt lat="43.40172" lon="2.26612">
        <ele>791.4</ele>
        <time>2019-08-11T06:52:25.000Z</time>
      </trkpt>
      <trkpt lat="43.40172" lon="2.26611">
        <ele>791.4</ele>
        <time>2019-08-11T06:52:26.000Z</time>
      </trkpt>
      <trkpt lat="43.40173" lon="2.26609">
        <ele>791.3</ele>
        <time>2019-08-11T06:52:27.000Z</time>
      </trkpt>
      <trkpt lat="43.40173" lon="2.26607">
        <ele>791.2</ele>
        <time>2019-08-11T06:52:28.000Z</time>
      </trkpt>
      <trkpt lat="43.40173" lon="2.26606">
        <ele>791.2</ele>
        <time>2019-08-11T06:52:29.000Z</time>
      </trkpt>
      <trkpt lat="43.40174" lon="2.26604">
        <ele>791.1</ele>
        <time>2019-08-11T06:52:30.000Z</time>
      </trkpt>
      <trkpt lat="43.40175" lon="2.26603">
        <ele>791</ele>
        <time>2019-08-11T06:52:31.000Z</time>
      </trkpt>
      <trkpt lat="43.40176" lon="2.26602">
        <ele>791</ele>
        <time>2019-08-11T06:52:32.000Z</time>
      </trkpt>
      <trkpt lat="43.40177" lon="2.26601">
        <ele>791</ele>
        <time>2019-08-11T06:52:33.000Z</time>
      </trkpt>
      <trkpt lat="43.40178" lon="2.26601">
        <ele>791</ele>
        <time>2019-08-11T06:52:34.000Z</time>
      </trkpt>
      <trkpt lat="43.40179" lon="2.266">
        <ele>790.9</ele>
        <time>2019-08-11T06:52:35.000Z</time>
      </trkpt>
      <trkpt lat="43.4018" lon="2.266">
        <ele>790.9</ele>
        <time>2019-08-11T06:52:36.000Z</time>
      </trkpt>
      <trkpt lat="43.40181" lon="2.26599">
        <ele>790.9</ele>
        <time>2019-08-11T06:52:37.000Z</time>
      </trkpt>
      <trkpt lat="43.40181" lon="2.26598">
        <ele>790.9</ele>
        <time>2019-08-11T06:52:38.000Z</time>
      </trkpt>
      <trkpt lat="43.40182" lon="2.26598">
        <ele>790.9</ele>
        <time>2019-08-11T06:52:39.000Z</time>
      </trkpt>
      <trkpt lat="43.40183" lon="2.26598">
        <ele>790.9</ele>
        <time>2019-08-11T06:52:40.000Z</time>
      </trkpt>
      <trkpt lat="43.40184" lon="2.26597">
        <ele>790.9</ele>
        <time>2019-08-11T06:52:41.000Z</time>
      </trkpt>
      <trkpt lat="43.40185" lon="2.26597">
        <ele>790.9</ele>
        <time>2019-08-11T06:52:42.000Z</time>
      </trkpt>
      <trkpt lat="43.40186" lon="2.26597">
        <ele>790.9</ele>
        <time>2019-08-11T06:52:43.000Z</time>
      </trkpt>
      <trkpt lat="43.40187" lon="2.26597">
        <ele>790.9</ele>
        <time>2019-08-11T06:52:44.000Z</time>
      </trkpt>
      <trkpt lat="43.40188" lon="2.26597">
        <ele>790.9</ele>
        <time>2019-08-11T06:52:45.000Z</time>
      </trkpt>
      <trkpt lat="43.40189" lon="2.26597">
        <ele>790.9</ele>
        <time>2019-08-11T06:52:46.000Z</time>
      </trkpt>
      <trkpt lat="43.40191" lon="2.26597">
        <ele>791</ele>
        <time>2019-08-11T06:52:47.000Z</time>
      </trkpt>
      <trkpt lat="43.40192" lon="2.26598">
        <ele>791</ele>
        <time>2019-08-11T06:52:48.000Z</time>
      </trkpt>
      <trkpt lat="43.40193" lon="2.26598">
        <ele>791</ele>
        <time>2019-08-11T06:52:49.000Z</time>
      </trkpt>
      <trkpt lat="43.40194" lon="2.26598">
        <ele>791</ele>
        <time>2019-08-11T06:52:50.000Z</time>
      </trkpt>
      <trkpt lat="43.40196" lon="2.26598">
        <ele>791.1</ele>
        <time>2019-08-11T06:52:51.000Z</time>
      </trkpt>
      <trkpt lat="43.40197" lon="2.26598">
        <ele>791.1</ele>
        <time>2019-08-11T06:52:52.000Z</time>
      </trkpt>
      <trkpt lat="43.40198" lon="2.26598">
        <ele>791.1</ele>
        <time>2019-08-11T06:52:53.000Z</time>
      </trkpt>
      <trkpt lat="43.402" lon="2.26598">
        <ele>791.1</ele>
        <time>2019-08-11T06:52:54.000Z</time>
      </trkpt>
      <trkpt lat="43.40202" lon="2.26598">
        <ele>791.1</ele>
        <time>2019-08-11T06:52:55.000Z</time>
      </trkpt>
      <trkpt lat="43.40203" lon="2.26597">
        <ele>791.1</ele>
        <time>2019-08-11T06:52:56.000Z</time>
      </trkpt>
      <trkpt lat="43.40205" lon="2.26597">
        <ele>791.1</ele>
        <time>2019-08-11T06:52:57.000Z</time>
      </trkpt>
      <trkpt lat="43.40207" lon="2.26596">
        <ele>791.1</ele>
        <time>2019-08-11T06:52:58.000Z</time>
      </trkpt>
      <trkpt lat="43.40209" lon="2.26595">
        <ele>791.1</ele>
        <time>2019-08-11T06:52:59.000Z</time>
      </trkpt>
      <trkpt lat="43.40211" lon="2.26595">
        <ele>791.1</ele>
        <time>2019-08-11T06:53:00.000Z</time>
      </trkpt>
      <trkpt lat="43.40213" lon="2.26594">
        <ele>791</ele>
        <time>2019-08-11T06:53:01.000Z</time>
      </trkpt>
      <trkpt lat="43.40215" lon="2.26593">
        <ele>791</ele>
        <time>2019-08-11T06:53:02.000Z</time>
      </trkpt>
      <trkpt lat="43.40217" lon="2.26592">
        <ele>791</ele>
        <time>2019-08-11T06:53:03.000Z</time>
      </trkpt>
      <trkpt lat="43.40219" lon="2.2659">
        <ele>791</ele>
        <time>2019-08-11T06:53:04.000Z</time>
      </trkpt>
      <trkpt lat="43.40221" lon="2.26589">
        <ele>790.9</ele>
        <time>2019-08-11T06:53:05.000Z</time>
      </trkpt>
      <trkpt lat="43.40222" lon="2.26588">
        <ele>790.9</ele>
        <time>2019-08-11T06:53:06.000Z</time>
      </trkpt>
      <trkpt lat="43.40224" lon="2.26586">
        <ele>790.8</ele>
        <time>2019-08-11T06:53:07.000Z</time>
      </trkpt>
      <trkpt lat="43.40225" lon="2.26585">
        <ele>790.8</ele>
        <time>2019-08-11T06:53:08.000Z</time>
      </trkpt>
      <trkpt lat="43.40226" lon="2.26583">
        <ele>790.7</ele>
        <time>2019-08-11T06:53:09.000Z</time>
      </trkpt>
      <trkpt lat="43.40227" lon="2.26581">
        <ele>790.7</ele>
        <time>2019-08-11T06:53:10.000Z</time>
      </trkpt>
      <trkpt lat="43.40228" lon="2.26579">
        <ele>790.7</ele>
        <time>2019-08-11T06:53:11.000Z</time>
      </trkpt>
      <trkpt lat="43.4023" lon="2.26577">
        <ele>790.6</ele>
        <time>2019-08-11T06:53:12.000Z</time>
      </trkpt>
      <trkpt lat="43.40231" lon="2.26576">
        <ele>790.6</ele>
        <time>2019-08-11T06:53:13.000Z</time>
      </trkpt>
      <trkpt lat="43.40232" lon="2.26574">
        <ele>790.6</ele>
        <time>2019-08-11T06:53:14.000Z</time>
      </trkpt>
      <trkpt lat="43.40233" lon="2.26572">
        <ele>790.6</ele>
        <time>2019-08-11T06:53:15.000Z</time>
      </trkpt>
      <trkpt lat="43.40235" lon="2.2657">
        <ele>790.5</ele>
        <time>2019-08-11T06:53:16.000Z</time>
      </trkpt>
      <trkpt lat="43.40236" lon="2.26568">
        <ele>790.5</ele>
        <time>2019-08-11T06:53:17.000Z</time>
      </trkpt>
      <trkpt lat="43.40238" lon="2.26565">
        <ele>790.5</ele>
        <time>2019-08-11T06:53:18.000Z</time>
      </trkpt>
      <trkpt lat="43.4024" lon="2.26563">
        <ele>790.4</ele>
        <time>2019-08-11T06:53:19.000Z</time>
      </trkpt>
      <trkpt lat="43.40242" lon="2.2656">
        <ele>790.4</ele>
        <time>2019-08-11T06:53:20.000Z</time>
      </trkpt>
      <trkpt lat="43.40244" lon="2.26557">
        <ele>790.3</ele>
        <time>2019-08-11T06:53:21.000Z</time>
      </trkpt>
      <trkpt lat="43.40246" lon="2.26554">
        <ele>790.3</ele>
        <time>2019-08-11T06:53:22.000Z</time>
      </trkpt>
      <trkpt lat="43.40249" lon="2.26551">
        <ele>790.2</ele>
        <time>2019-08-11T06:53:23.000Z</time>
      </trkpt>
      <trkpt lat="43.40251" lon="2.26549">
        <ele>790.2</ele>
        <time>2019-08-11T06:53:24.000Z</time>
      </trkpt>
      <trkpt lat="43.40253" lon="2.26546">
        <ele>790.1</ele>
        <time>2019-08-11T06:53:25.000Z</time>
      </trkpt>
      <trkpt lat="43.40255" lon="2.26544">
        <ele>790.1</ele>
        <time>2019-08-11T06:53:26.000Z</time>
      </trkpt>
      <trkpt lat="43.40257" lon="2.26543">
        <ele>790</ele>
        <time>2019-08-11T06:53:27.000Z</time>
      </trkpt>
      <trkpt lat="43.40259" lon="2.26541">
        <ele>790</ele>
        <time>2019-08-11T06:53:28.000Z</time>
      </trkpt>
      <trkpt lat="43.40261" lon="2.2654">
        <ele>790</ele>
        <time>2019-08-11T06:53:29.000Z</time>
      </trkpt>
      <trkpt lat="43.40263" lon="2.2654">
        <ele>789.9</ele>
        <time>2019-08-11T06:53:30.000Z</time>
      </trkpt>
      <trkpt lat="43.40265" lon="2.26539">
        <ele>789.9</ele>
        <time>2019-08-11T06:53:31.000Z</time>
      </trkpt>
      <trkpt lat="43.40266" lon="2.26538">
        <ele>789.9</ele>
        <time>2019-08-11T06:53:32.000Z</time>
      </trkpt>
      <trkpt lat="43.40268" lon="2.26537">
        <ele>789.9</ele>
        <time>2019-08-11T06:53:33.000Z</time>
      </trkpt>
      <trkpt lat="43.4027" lon="2.26535">
        <ele>789.8</ele>
        <time>2019-08-11T06:53:34.000Z</time>
      </trkpt>
      <trkpt lat="43.40272" lon="2.26533">
        <ele>789.8</ele>
        <time>2019-08-11T06:53:35.000Z</time>
      </trkpt>
      <trkpt lat="43.40274" lon="2.26531">
        <ele>789.8</ele>
        <time>2019-08-11T06:53:36.000Z</time>
      </trkpt>
      <trkpt lat="43.40276" lon="2.26529">
        <ele>789.7</ele>
        <time>2019-08-11T06:53:37.000Z</time>
      </trkpt>
      <trkpt lat="43.40278" lon="2.26527">
        <ele>789.6</ele>
        <time>2019-08-11T06:53:38.000Z</time>
      </trkpt>
      <trkpt lat="43.4028" lon="2.26524">
        <ele>789.6</ele>
        <time>2019-08-11T06:53:39.000Z</time>
      </trkpt>
      <trkpt lat="43.40281" lon="2.26521">
        <ele>789.5</ele>
        <time>2019-08-11T06:53:40.000Z</time>
      </trkpt>
      <trkpt lat="43.40283" lon="2.26518">
        <ele>789.4</ele>
        <time>2019-08-11T06:53:41.000Z</time>
      </trkpt>
      <trkpt lat="43.40285" lon="2.26515">
        <ele>789.3</ele>
        <time>2019-08-11T06:53:42.000Z</time>
      </trkpt>
      <trkpt lat="43.40287" lon="2.26511">
        <ele>789.3</ele>
        <time>2019-08-11T06:53:43.000Z</time>
      </trkpt>
      <trkpt lat="43.40289" lon="2.26508">
        <ele>789.2</ele>
        <time>2019-08-11T06:53:44.000Z</time>
      </trkpt>
      <trkpt lat="43.4029" lon="2.26505">
        <ele>789.1</ele>
        <time>2019-08-11T06:53:45.000Z</time>
      </trkpt>
      <trkpt lat="43.40292" lon="2.26502">
        <ele>789</ele>
        <time>2019-08-11T06:53:46.000Z</time>
      </trkpt>
      <trkpt lat="43.40294" lon="2.26499">
        <ele>789</ele>
        <time>2019-08-11T06:53:47.000Z</time>
      </trkpt>
      <trkpt lat="43.40296" lon="2.26497">
        <ele>789</ele>
        <time>2019-08-11T06:53:48.000Z</time>
      </trkpt>
      <trkpt lat="43.40297" lon="2.26495">
        <ele>788.9</ele>
        <time>2019-08-11T06:53:49.000Z</time>
      </trkpt>
      <trkpt lat="43.40299" lon="2.26492">
        <ele>788.9</ele>
        <time>2019-08-11T06:53:50.000Z</time>
      </trkpt>
      <trkpt lat="43.40301" lon="2.2649">
        <ele>788.9</ele>
        <time>2019-08-11T06:53:51.000Z</time>
      </trkpt>
      <trkpt lat="43.40302" lon="2.26488">
        <ele>788.9</ele>
        <time>2019-08-11T06:53:52.000Z</time>
      </trkpt>
      <trkpt lat="43.40304" lon="2.26486">
        <ele>788.8</ele>
        <time>2019-08-11T06:53:53.000Z</time>
      </trkpt>
      <trkpt lat="43.40306" lon="2.26484">
        <ele>788.8</ele>
        <time>2019-08-11T06:53:54.000Z</time>
      </trkpt>
      <trkpt lat="43.40308" lon="2.26482">
        <ele>788.8</ele>
        <time>2019-08-11T06:53:55.000Z</time>
      </trkpt>
      <trkpt lat="43.40309" lon="2.2648">
        <ele>788.8</ele>
        <time>2019-08-11T06:53:56.000Z</time>
      </trkpt>
      <trkpt lat="43.40311" lon="2.26478">
        <ele>788.7</ele>
        <time>2019-08-11T06:53:57.000Z</time>
      </trkpt>
      <trkpt lat="43.40313" lon="2.26475">
        <ele>788.7</ele>
        <time>2019-08-11T06:53:58.000Z</time>
      </trkpt>
      <trkpt lat="43.40315" lon="2.26473">
        <ele>788.7</ele>
        <time>2019-08-11T06:53:59.000Z</time>
      </trkpt>
      <trkpt lat="43.40318" lon="2.2647">
        <ele>788.6</ele>
        <time>2019-08-11T06:54:00.000Z</time>
      </trkpt>
      <trkpt lat="43.4032" lon="2.26468">
        <ele>788.6</ele>
        <time>2019-08-11T06:54:01.000Z</time>
      </trkpt>
      <trkpt lat="43.40322" lon="2.26466">
        <ele>788.6</ele>
        <time>2019-08-11T06:54:02.000Z</time>
      </trkpt>
      <trkpt lat="43.40324" lon="2.26464">
        <ele>788.6</ele>
        <time>2019-08-11T06:54:03.000Z</time>
      </trkpt>
      <trkpt lat="43.40327" lon="2.26462">
        <ele>788.5</ele>
        <time>2019-08-11T06:54:04.000Z</time>
      </trkpt>
      <trkpt lat="43.40329" lon="2.2646">
        <ele>788.5</ele>
        <time>2019-08-11T06:54:05.000Z</time>
      </trkpt>
      <trkpt lat="43.40332" lon="2.26458">
        <ele>788.5</ele>
        <time>2019-08-11T06:54:06.000Z</time>
      </trkpt>
      <trkpt lat="43.40334" lon="2.26456">
        <ele>788.5</ele>
        <time>2019-08-11T06:54:07.000Z</time>
      </trkpt>
      <trkpt lat="43.40336" lon="2.26453">
        <ele>788.5</ele>
        <time>2019-08-11T06:54:08.000Z</time>
      </trkpt>
      <trkpt lat="43.40338" lon="2.26451">
        <ele>788.5</ele>
        <time>2019-08-11T06:54:09.000Z</time>
      </trkpt>
      <trkpt lat="43.4034" lon="2.26448">
        <ele>788.5</ele>
        <time>2019-08-11T06:54:10.000Z</time>
      </trkpt>
      <trkpt lat="43.40342" lon="2.26445">
        <ele>788.5</ele>
        <time>2019-08-11T06:54:11.000Z</time>
      </trkpt>
      <trkpt lat="43.40344" lon="2.26443">
        <ele>788.5</ele>
        <time>2019-08-11T06:54:12.000Z</time>
      </trkpt>
      <trkpt lat="43.40346" lon="2.2644">
        <ele>788.6</ele>
        <time>2019-08-11T06:54:13.000Z</time>
      </trkpt>
      <trkpt lat="43.40347" lon="2.26437">
        <ele>788.6</ele>
        <time>2019-08-11T06:54:14.000Z</time>
      </trkpt>
      <trkpt lat="43.40349" lon="2.26435">
        <ele>788.6</ele>
        <time>2019-08-11T06:54:15.000Z</time>
      </trkpt>
      <trkpt lat="43.40351" lon="2.26433">
        <ele>788.7</ele>
        <time>2019-08-11T06:54:16.000Z</time>
      </trkpt>
      <trkpt lat="43.40352" lon="2.2643">
        <ele>788.7</ele>
        <time>2019-08-11T06:54:17.000Z</time>
      </trkpt>
      <trkpt lat="43.40354" lon="2.26428">
        <ele>788.8</ele>
        <time>2019-08-11T06:54:18.000Z</time>
      </trkpt>
      <trkpt lat="43.40356" lon="2.26426">
        <ele>788.8</ele>
        <time>2019-08-11T06:54:19.000Z</time>
      </trkpt>
      <trkpt lat="43.40358" lon="2.26424">
        <ele>788.9</ele>
        <time>2019-08-11T06:54:20.000Z</time>
      </trkpt>
      <trkpt lat="43.4036" lon="2.26422">
        <ele>788.9</ele>
        <time>2019-08-11T06:54:21.000Z</time>
      </trkpt>
      <trkpt lat="43.40362" lon="2.2642">
        <ele>789</ele>
        <time>2019-08-11T06:54:22.000Z</time>
      </trkpt>
      <trkpt lat="43.40364" lon="2.26417">
        <ele>789.1</ele>
        <time>2019-08-11T06:54:23.000Z</time>
      </trkpt>
      <trkpt lat="43.40366" lon="2.26414">
        <ele>789.2</ele>
        <time>2019-08-11T06:54:24.000Z</time>
      </trkpt>
      <trkpt lat="43.40369" lon="2.26412">
        <ele>789.3</ele>
        <time>2019-08-11T06:54:25.000Z</time>
      </trkpt>
      <trkpt lat="43.40371" lon="2.26409">
        <ele>789.4</ele>
        <time>2019-08-11T06:54:26.000Z</time>
      </trkpt>
      <trkpt lat="43.40373" lon="2.26406">
        <ele>789.5</ele>
        <time>2019-08-11T06:54:27.000Z</time>
      </trkpt>
      <trkpt lat="43.40375" lon="2.26403">
        <ele>789.6</ele>
        <time>2019-08-11T06:54:28.000Z</time>
      </trkpt>
      <trkpt lat="43.40377" lon="2.264">
        <ele>789.7</ele>
        <time>2019-08-11T06:54:29.000Z</time>
      </trkpt>
      <trkpt lat="43.40379" lon="2.26398">
        <ele>789.8</ele>
        <time>2019-08-11T06:54:30.000Z</time>
      </trkpt>
      <trkpt lat="43.40381" lon="2.26396">
        <ele>789.8</ele>
        <time>2019-08-11T06:54:31.000Z</time>
      </trkpt>
      <trkpt lat="43.40383" lon="2.26394">
        <ele>789.9</ele>
        <time>2019-08-11T06:54:32.000Z</time>
      </trkpt>
      <trkpt lat="43.40385" lon="2.26392">
        <ele>790</ele>
        <time>2019-08-11T06:54:33.000Z</time>
      </trkpt>
      <trkpt lat="43.40386" lon="2.2639">
        <ele>790</ele>
        <time>2019-08-11T06:54:34.000Z</time>
      </trkpt>
      <trkpt lat="43.40388" lon="2.26387">
        <ele>790.1</ele>
        <time>2019-08-11T06:54:35.000Z</time>
      </trkpt>
      <trkpt lat="43.4039" lon="2.26385">
        <ele>790.2</ele>
        <time>2019-08-11T06:54:36.000Z</time>
      </trkpt>
      <trkpt lat="43.40392" lon="2.26382">
        <ele>790.2</ele>
        <time>2019-08-11T06:54:37.000Z</time>
      </trkpt>
      <trkpt lat="43.40394" lon="2.2638">
        <ele>790.3</ele>
        <time>2019-08-11T06:54:38.000Z</time>
      </trkpt>
      <trkpt lat="43.40396" lon="2.26377">
        <ele>790.4</ele>
        <time>2019-08-11T06:54:39.000Z</time>
      </trkpt>
      <trkpt lat="43.40398" lon="2.26374">
        <ele>790.4</ele>
        <time>2019-08-11T06:54:40.000Z</time>
      </trkpt>
      <trkpt lat="43.404" lon="2.26371">
        <ele>790.5</ele>
        <time>2019-08-11T06:54:41.000Z</time>
      </trkpt>
      <trkpt lat="43.40402" lon="2.26368">
        <ele>790.6</ele>
        <time>2019-08-11T06:54:42.000Z</time>
      </trkpt>
      <trkpt lat="43.40404" lon="2.26365">
        <ele>790.6</ele>
        <time>2019-08-11T06:54:43.000Z</time>
      </trkpt>
      <trkpt lat="43.40406" lon="2.26362">
        <ele>790.7</ele>
        <time>2019-08-11T06:54:44.000Z</time>
      </trkpt>
      <trkpt lat="43.40408" lon="2.26359">
        <ele>790.8</ele>
        <time>2019-08-11T06:54:45.000Z</time>
      </trkpt>
      <trkpt lat="43.4041" lon="2.26357">
        <ele>790.8</ele>
        <time>2019-08-11T06:54:46.000Z</time>
      </trkpt>
      <trkpt lat="43.40412" lon="2.26354">
        <ele>790.9</ele>
        <time>2019-08-11T06:54:47.000Z</time>
      </trkpt>
      <trkpt lat="43.40414" lon="2.26352">
        <ele>790.9</ele>
        <time>2019-08-11T06:54:48.000Z</time>
      </trkpt>
      <trkpt lat="43.40416" lon="2.2635">
        <ele>791</ele>
        <time>2019-08-11T06:54:49.000Z</time>
      </trkpt>
      <trkpt lat="43.40418" lon="2.26347">
        <ele>791</ele>
        <time>2019-08-11T06:54:50.000Z</time>
      </trkpt>
      <trkpt lat="43.4042" lon="2.26345">
        <ele>790.9</ele>
        <time>2019-08-11T06:54:51.000Z</time>
      </trkpt>
      <trkpt lat="43.40422" lon="2.26343">
        <ele>790.9</ele>
        <time>2019-08-11T06:54:52.000Z</time>
      </trkpt>
      <trkpt lat="43.40424" lon="2.2634">
        <ele>790.8</ele>
        <time>2019-08-11T06:54:53.000Z</time>
      </trkpt>
      <trkpt lat="43.40426" lon="2.26338">
        <ele>790.8</ele>
        <time>2019-08-11T06:54:54.000Z</time>
      </trkpt>
      <trkpt lat="43.40428" lon="2.26335">
        <ele>790.7</ele>
        <time>2019-08-11T06:54:55.000Z</time>
      </trkpt>
      <trkpt lat="43.4043" lon="2.26333">
        <ele>790.6</ele>
        <time>2019-08-11T06:54:56.000Z</time>
      </trkpt>
      <trkpt lat="43.40432" lon="2.2633">
        <ele>790.3</ele>
        <time>2019-08-11T06:54:57.000Z</time>
      </trkpt>
      <trkpt lat="43.40434" lon="2.26327">
        <ele>790.1</ele>
        <time>2019-08-11T06:54:58.000Z</time>
      </trkpt>
      <trkpt lat="43.40436" lon="2.26325">
        <ele>789.8</ele>
        <time>2019-08-11T06:54:59.000Z</time>
      </trkpt>
      <trkpt lat="43.40438" lon="2.26322">
        <ele>789.5</ele>
        <time>2019-08-11T06:55:00.000Z</time>
      </trkpt>
      <trkpt lat="43.4044" lon="2.26319">
        <ele>789.2</ele>
        <time>2019-08-11T06:55:01.000Z</time>
      </trkpt>
      <trkpt lat="43.40442" lon="2.26316">
        <ele>788.9</ele>
        <time>2019-08-11T06:55:02.000Z</time>
      </trkpt>
      <trkpt lat="43.40444" lon="2.26313">
        <ele>788.6</ele>
        <time>2019-08-11T06:55:03.000Z</time>
      </trkpt>
      <trkpt lat="43.40446" lon="2.2631">
        <ele>788.3</ele>
        <time>2019-08-11T06:55:04.000Z</time>
      </trkpt>
      <trkpt lat="43.40448" lon="2.26307">
        <ele>788</ele>
        <time>2019-08-11T06:55:05.000Z</time>
      </trkpt>
      <trkpt lat="43.4045" lon="2.26304">
        <ele>787.8</ele>
        <time>2019-08-11T06:55:06.000Z</time>
      </trkpt>
      <trkpt lat="43.40452" lon="2.26301">
        <ele>787.5</ele>
        <time>2019-08-11T06:55:07.000Z</time>
      </trkpt>
      <trkpt lat="43.40454" lon="2.26298">
        <ele>787.3</ele>
        <time>2019-08-11T06:55:08.000Z</time>
      </trkpt>
      <trkpt lat="43.40456" lon="2.26295">
        <ele>787</ele>
        <time>2019-08-11T06:55:09.000Z</time>
      </trkpt>
      <trkpt lat="43.40458" lon="2.26292">
        <ele>786.8</ele>
        <time>2019-08-11T06:55:10.000Z</time>
      </trkpt>
      <trkpt lat="43.4046" lon="2.2629">
        <ele>786.6</ele>
        <time>2019-08-11T06:55:11.000Z</time>
      </trkpt>
      <trkpt lat="43.40462" lon="2.26288">
        <ele>786.4</ele>
        <time>2019-08-11T06:55:12.000Z</time>
      </trkpt>
      <trkpt lat="43.40464" lon="2.26285">
        <ele>786.2</ele>
        <time>2019-08-11T06:55:13.000Z</time>
      </trkpt>
      <trkpt lat="43.40466" lon="2.26283">
        <ele>786.1</ele>
        <time>2019-08-11T06:55:14.000Z</time>
      </trkpt>
      <trkpt lat="43.40468" lon="2.26281">
        <ele>785.9</ele>
        <time>2019-08-11T06:55:15.000Z</time>
      </trkpt>
      <trkpt lat="43.4047" lon="2.26279">
        <ele>785.8</ele>
        <time>2019-08-11T06:55:16.000Z</time>
      </trkpt>
      <trkpt lat="43.40472" lon="2.26277">
        <ele>785.6</ele>
        <time>2019-08-11T06:55:17.000Z</time>
      </trkpt>
      <trkpt lat="43.40474" lon="2.26275">
        <ele>785.4</ele>
        <time>2019-08-11T06:55:18.000Z</time>
      </trkpt>
      <trkpt lat="43.40476" lon="2.26272">
        <ele>785.3</ele>
        <time>2019-08-11T06:55:19.000Z</time>
      </trkpt>
      <trkpt lat="43.40478" lon="2.2627">
        <ele>785.1</ele>
        <time>2019-08-11T06:55:20.000Z</time>
      </trkpt>
      <trkpt lat="43.4048" lon="2.26267">
        <ele>784.9</ele>
        <time>2019-08-11T06:55:21.000Z</time>
      </trkpt>
      <trkpt lat="43.40482" lon="2.26265">
        <ele>784.8</ele>
        <time>2019-08-11T06:55:22.000Z</time>
      </trkpt>
      <trkpt lat="43.40484" lon="2.26262">
        <ele>784.6</ele>
        <time>2019-08-11T06:55:23.000Z</time>
      </trkpt>
      <trkpt lat="43.40486" lon="2.2626">
        <ele>784.5</ele>
        <time>2019-08-11T06:55:24.000Z</time>
      </trkpt>
      <trkpt lat="43.40488" lon="2.26257">
        <ele>784.3</ele>
        <time>2019-08-11T06:55:25.000Z</time>
      </trkpt>
      <trkpt lat="43.4049" lon="2.26255">
        <ele>784.2</ele>
        <time>2019-08-11T06:55:26.000Z</time>
      </trkpt>
      <trkpt lat="43.40492" lon="2.26253">
        <ele>784.1</ele>
        <time>2019-08-11T06:55:27.000Z</time>
      </trkpt>
      <trkpt lat="43.40494" lon="2.26251">
        <ele>784</ele>
        <time>2019-08-11T06:55:28.000Z</time>
      </trkpt>
      <trkpt lat="43.40496" lon="2.26249">
        <ele>783.8</ele>
        <time>2019-08-11T06:55:29.000Z</time>
      </trkpt>
      <trkpt lat="43.40498" lon="2.26247">
        <ele>783.6</ele>
        <time>2019-08-11T06:55:30.000Z</time>
      </trkpt>
      <trkpt lat="43.405" lon="2.26245">
        <ele>783.4</ele>
        <time>2019-08-11T06:55:31.000Z</time>
      </trkpt>
      <trkpt lat="43.40502" lon="2.26243">
        <ele>783.1</ele>
        <time>2019-08-11T06:55:32.000Z</time>
      </trkpt>
      <trkpt lat="43.40503" lon="2.26242">
        <ele>782.8</ele>
        <time>2019-08-11T06:55:33.000Z</time>
      </trkpt>
      <trkpt lat="43.40505" lon="2.2624">
        <ele>782.4</ele>
        <time>2019-08-11T06:55:34.000Z</time>
      </trkpt>
      <trkpt lat="43.40507" lon="2.26238">
        <ele>782</ele>
        <time>2019-08-11T06:55:35.000Z</time>
      </trkpt>
      <trkpt lat="43.40509" lon="2.26235">
        <ele>781.6</ele>
        <time>2019-08-11T06:55:36.000Z</time>
      </trkpt>
      <trkpt lat="43.40511" lon="2.26233">
        <ele>781.2</ele>
        <time>2019-08-11T06:55:37.000Z</time>
      </trkpt>
      <trkpt lat="43.40513" lon="2.2623">
        <ele>780.8</ele>
        <time>2019-08-11T06:55:38.000Z</time>
      </trkpt>
      <trkpt lat="43.40515" lon="2.26227">
        <ele>780.4</ele>
        <time>2019-08-11T06:55:39.000Z</time>
      </trkpt>
      <trkpt lat="43.40517" lon="2.26224">
        <ele>780</ele>
        <time>2019-08-11T06:55:40.000Z</time>
      </trkpt>
      <trkpt lat="43.40519" lon="2.26222">
        <ele>779.7</ele>
        <time>2019-08-11T06:55:41.000Z</time>
      </trkpt>
      <trkpt lat="43.40521" lon="2.26219">
        <ele>779.3</ele>
        <time>2019-08-11T06:55:42.000Z</time>
      </trkpt>
      <trkpt lat="43.40523" lon="2.26217">
        <ele>779</ele>
        <time>2019-08-11T06:55:43.000Z</time>
      </trkpt>
      <trkpt lat="43.40524" lon="2.26214">
        <ele>778.7</ele>
        <time>2019-08-11T06:55:44.000Z</time>
      </trkpt>
      <trkpt lat="43.40526" lon="2.26211">
        <ele>778.4</ele>
        <time>2019-08-11T06:55:45.000Z</time>
      </trkpt>
      <trkpt lat="43.40527" lon="2.26208">
        <ele>778</ele>
        <time>2019-08-11T06:55:46.000Z</time>
      </trkpt>
      <trkpt lat="43.40528" lon="2.26205">
        <ele>777.7</ele>
        <time>2019-08-11T06:55:47.000Z</time>
      </trkpt>
      <trkpt lat="43.40529" lon="2.26201">
        <ele>777.3</ele>
        <time>2019-08-11T06:55:48.000Z</time>
      </trkpt>
      <trkpt lat="43.4053" lon="2.26197">
        <ele>777</ele>
        <time>2019-08-11T06:55:49.000Z</time>
      </trkpt>
      <trkpt lat="43.40531" lon="2.26194">
        <ele>776.7</ele>
        <time>2019-08-11T06:55:50.000Z</time>
      </trkpt>
      <trkpt lat="43.40532" lon="2.26191">
        <ele>776.4</ele>
        <time>2019-08-11T06:55:51.000Z</time>
      </trkpt>
      <trkpt lat="43.40534" lon="2.26188">
        <ele>776.1</ele>
        <time>2019-08-11T06:55:52.000Z</time>
      </trkpt>
      <trkpt lat="43.40535" lon="2.26185">
        <ele>775.9</ele>
        <time>2019-08-11T06:55:53.000Z</time>
      </trkpt>
      <trkpt lat="43.40536" lon="2.26183">
        <ele>775.7</ele>
        <time>2019-08-11T06:55:54.000Z</time>
      </trkpt>
      <trkpt lat="43.40537" lon="2.2618">
        <ele>775.5</ele>
        <time>2019-08-11T06:55:55.000Z</time>
      </trkpt>
      <trkpt lat="43.40539" lon="2.26177">
        <ele>775.2</ele>
        <time>2019-08-11T06:55:56.000Z</time>
      </trkpt>
      <trkpt lat="43.4054" lon="2.26174">
        <ele>775</ele>
        <time>2019-08-11T06:55:57.000Z</time>
      </trkpt>
      <trkpt lat="43.40541" lon="2.26171">
        <ele>774.8</ele>
        <time>2019-08-11T06:55:58.000Z</time>
      </trkpt>
      <trkpt lat="43.40542" lon="2.26168">
        <ele>774.6</ele>
        <time>2019-08-11T06:55:59.000Z</time>
      </trkpt>
      <trkpt lat="43.40543" lon="2.26165">
        <ele>774.4</ele>
        <time>2019-08-11T06:56:00.000Z</time>
      </trkpt>
      <trkpt lat="43.40543" lon="2.26162">
        <ele>774.2</ele>
        <time>2019-08-11T06:56:01.000Z</time>
      </trkpt>
      <trkpt lat="43.40544" lon="2.26158">
        <ele>774</ele>
        <time>2019-08-11T06:56:02.000Z</time>
      </trkpt>
      <trkpt lat="43.40545" lon="2.26155">
        <ele>773.8</ele>
        <time>2019-08-11T06:56:03.000Z</time>
      </trkpt>
      <trkpt lat="43.40546" lon="2.26152">
        <ele>773.6</ele>
        <time>2019-08-11T06:56:04.000Z</time>
      </trkpt>
      <trkpt lat="43.40546" lon="2.26148">
        <ele>773.4</ele>
        <time>2019-08-11T06:56:05.000Z</time>
      </trkpt>
      <trkpt lat="43.40547" lon="2.26145">
        <ele>773.2</ele>
        <time>2019-08-11T06:56:06.000Z</time>
      </trkpt>
      <trkpt lat="43.40548" lon="2.26142">
        <ele>773</ele>
        <time>2019-08-11T06:56:07.000Z</time>
      </trkpt>
      <trkpt lat="43.40549" lon="2.26138">
        <ele>772.9</ele>
        <time>2019-08-11T06:56:08.000Z</time>
      </trkpt>
      <trkpt lat="43.40549" lon="2.26135">
        <ele>772.7</ele>
        <time>2019-08-11T06:56:09.000Z</time>
      </trkpt>
      <trkpt lat="43.4055" lon="2.26132">
        <ele>772.5</ele>
        <time>2019-08-11T06:56:10.000Z</time>
      </trkpt>
      <trkpt lat="43.4055" lon="2.26129">
        <ele>772.3</ele>
        <time>2019-08-11T06:56:11.000Z</time>
      </trkpt>
      <trkpt lat="43.40551" lon="2.26125">
        <ele>772.2</ele>
        <time>2019-08-11T06:56:12.000Z</time>
      </trkpt>
      <trkpt lat="43.40552" lon="2.26122">
        <ele>772</ele>
        <time>2019-08-11T06:56:13.000Z</time>
      </trkpt>
      <trkpt lat="43.40553" lon="2.26119">
        <ele>771.8</ele>
        <time>2019-08-11T06:56:14.000Z</time>
      </trkpt>
      <trkpt lat="43.40553" lon="2.26115">
        <ele>771.7</ele>
        <time>2019-08-11T06:56:15.000Z</time>
      </trkpt>
      <trkpt lat="43.40554" lon="2.26112">
        <ele>771.5</ele>
        <time>2019-08-11T06:56:16.000Z</time>
      </trkpt>
      <trkpt lat="43.40555" lon="2.26109">
        <ele>771.4</ele>
        <time>2019-08-11T06:56:17.000Z</time>
      </trkpt>
      <trkpt lat="43.40555" lon="2.26106">
        <ele>771.2</ele>
        <time>2019-08-11T06:56:18.000Z</time>
      </trkpt>
      <trkpt lat="43.40556" lon="2.26102">
        <ele>771.1</ele>
        <time>2019-08-11T06:56:19.000Z</time>
      </trkpt>
      <trkpt lat="43.40557" lon="2.26099">
        <ele>771</ele>
        <time>2019-08-11T06:56:20.000Z</time>
      </trkpt>
      <trkpt lat="43.40558" lon="2.26096">
        <ele>770.8</ele>
        <time>2019-08-11T06:56:21.000Z</time>
      </trkpt>
      <trkpt lat="43.40559" lon="2.26093">
        <ele>770.7</ele>
        <time>2019-08-11T06:56:22.000Z</time>
      </trkpt>
      <trkpt lat="43.4056" lon="2.26089">
        <ele>770.6</ele>
        <time>2019-08-11T06:56:23.000Z</time>
      </trkpt>
      <trkpt lat="43.4056" lon="2.26086">
        <ele>770.5</ele>
        <time>2019-08-11T06:56:24.000Z</time>
      </trkpt>
      <trkpt lat="43.40561" lon="2.26083">
        <ele>770.4</ele>
        <time>2019-08-11T06:56:25.000Z</time>
      </trkpt>
      <trkpt lat="43.40562" lon="2.2608">
        <ele>770.2</ele>
        <time>2019-08-11T06:56:26.000Z</time>
      </trkpt>
      <trkpt lat="43.40563" lon="2.26077">
        <ele>770</ele>
        <time>2019-08-11T06:56:27.000Z</time>
      </trkpt>
      <trkpt lat="43.40564" lon="2.26073">
        <ele>769.8</ele>
        <time>2019-08-11T06:56:28.000Z</time>
      </trkpt>
      <trkpt lat="43.40564" lon="2.2607">
        <ele>769.6</ele>
        <time>2019-08-11T06:56:29.000Z</time>
      </trkpt>
      <trkpt lat="43.40565" lon="2.26067">
        <ele>769.4</ele>
        <time>2019-08-11T06:56:30.000Z</time>
      </trkpt>
      <trkpt lat="43.40566" lon="2.26064">
        <ele>769.2</ele>
        <time>2019-08-11T06:56:31.000Z</time>
      </trkpt>
      <trkpt lat="43.40567" lon="2.2606">
        <ele>769.1</ele>
        <time>2019-08-11T06:56:32.000Z</time>
      </trkpt>
      <trkpt lat="43.40568" lon="2.26057">
        <ele>769</ele>
        <time>2019-08-11T06:56:33.000Z</time>
      </trkpt>
      <trkpt lat="43.4057" lon="2.26054">
        <ele>768.9</ele>
        <time>2019-08-11T06:56:34.000Z</time>
      </trkpt>
      <trkpt lat="43.40572" lon="2.26051">
        <ele>768.9</ele>
        <time>2019-08-11T06:56:35.000Z</time>
      </trkpt>
      <trkpt lat="43.40573" lon="2.26048">
        <ele>768.9</ele>
        <time>2019-08-11T06:56:36.000Z</time>
      </trkpt>
      <trkpt lat="43.40575" lon="2.26045">
        <ele>768.9</ele>
        <time>2019-08-11T06:56:37.000Z</time>
      </trkpt>
      <trkpt lat="43.40577" lon="2.26042">
        <ele>768.8</ele>
        <time>2019-08-11T06:56:38.000Z</time>
      </trkpt>
      <trkpt lat="43.40579" lon="2.26039">
        <ele>768.9</ele>
        <time>2019-08-11T06:56:39.000Z</time>
      </trkpt>
      <trkpt lat="43.40581" lon="2.26036">
        <ele>768.9</ele>
        <time>2019-08-11T06:56:40.000Z</time>
      </trkpt>
      <trkpt lat="43.40583" lon="2.26033">
        <ele>768.9</ele>
        <time>2019-08-11T06:56:41.000Z</time>
      </trkpt>
      <trkpt lat="43.40585" lon="2.2603">
        <ele>768.7</ele>
        <time>2019-08-11T06:56:42.000Z</time>
      </trkpt>
      <trkpt lat="43.40586" lon="2.26026">
        <ele>768.3</ele>
        <time>2019-08-11T06:56:43.000Z</time>
      </trkpt>
      <trkpt lat="43.40588" lon="2.26023">
        <ele>768</ele>
        <time>2019-08-11T06:56:44.000Z</time>
      </trkpt>
      <trkpt lat="43.4059" lon="2.2602">
        <ele>767.7</ele>
        <time>2019-08-11T06:56:45.000Z</time>
      </trkpt>
      <trkpt lat="43.40592" lon="2.26016">
        <ele>767.3</ele>
        <time>2019-08-11T06:56:46.000Z</time>
      </trkpt>
      <trkpt lat="43.40594" lon="2.26013">
        <ele>767</ele>
        <time>2019-08-11T06:56:47.000Z</time>
      </trkpt>
      <trkpt lat="43.40595" lon="2.2601">
        <ele>766.7</ele>
        <time>2019-08-11T06:56:48.000Z</time>
      </trkpt>
      <trkpt lat="43.40597" lon="2.26007">
        <ele>766.4</ele>
        <time>2019-08-11T06:56:49.000Z</time>
      </trkpt>
      <trkpt lat="43.40599" lon="2.26005">
        <ele>766.1</ele>
        <time>2019-08-11T06:56:50.000Z</time>
      </trkpt>
      <trkpt lat="43.40601" lon="2.26003">
        <ele>765.9</ele>
        <time>2019-08-11T06:56:51.000Z</time>
      </trkpt>
      <trkpt lat="43.40603" lon="2.26001">
        <ele>765.6</ele>
        <time>2019-08-11T06:56:52.000Z</time>
      </trkpt>
      <trkpt lat="43.40605" lon="2.25999">
        <ele>765.3</ele>
        <time>2019-08-11T06:56:53.000Z</time>
      </trkpt>
      <trkpt lat="43.40607" lon="2.25997">
        <ele>765</ele>
        <time>2019-08-11T06:56:54.000Z</time>
      </trkpt>
      <trkpt lat="43.40609" lon="2.25995">
        <ele>764.7</ele>
        <time>2019-08-11T06:56:55.000Z</time>
      </trkpt>
      <trkpt lat="43.40611" lon="2.25994">
        <ele>764.5</ele>
        <time>2019-08-11T06:56:56.000Z</time>
      </trkpt>
      <trkpt lat="43.40613" lon="2.25992">
        <ele>764.2</ele>
        <time>2019-08-11T06:56:57.000Z</time>
      </trkpt>
      <trkpt lat="43.40615" lon="2.25991">
        <ele>764</ele>
        <time>2019-08-11T06:56:58.000Z</time>
      </trkpt>
      <trkpt lat="43.40617" lon="2.25989">
        <ele>763.8</ele>
        <time>2019-08-11T06:56:59.000Z</time>
      </trkpt>
      <trkpt lat="43.40618" lon="2.25987">
        <ele>763.5</ele>
        <time>2019-08-11T06:57:00.000Z</time>
      </trkpt>
      <trkpt lat="43.4062" lon="2.25986">
        <ele>763.3</ele>
        <time>2019-08-11T06:57:01.000Z</time>
      </trkpt>
      <trkpt lat="43.40622" lon="2.25984">
        <ele>763.1</ele>
        <time>2019-08-11T06:57:02.000Z</time>
      </trkpt>
      <trkpt lat="43.40624" lon="2.25982">
        <ele>762.9</ele>
        <time>2019-08-11T06:57:03.000Z</time>
      </trkpt>
      <trkpt lat="43.40626" lon="2.25981">
        <ele>762.7</ele>
        <time>2019-08-11T06:57:04.000Z</time>
      </trkpt>
      <trkpt lat="43.40628" lon="2.2598">
        <ele>762.6</ele>
        <time>2019-08-11T06:57:05.000Z</time>
      </trkpt>
      <trkpt lat="43.4063" lon="2.25979">
        <ele>762.4</ele>
        <time>2019-08-11T06:57:06.000Z</time>
      </trkpt>
      <trkpt lat="43.40632" lon="2.25978">
        <ele>762.3</ele>
        <time>2019-08-11T06:57:07.000Z</time>
      </trkpt>
      <trkpt lat="43.40634" lon="2.25978">
        <ele>762.1</ele>
        <time>2019-08-11T06:57:08.000Z</time>
      </trkpt>
      <trkpt lat="43.40637" lon="2.25978">
        <ele>762</ele>
        <time>2019-08-11T06:57:09.000Z</time>
      </trkpt>
      <trkpt lat="43.40639" lon="2.25977">
        <ele>761.9</ele>
        <time>2019-08-11T06:57:10.000Z</time>
      </trkpt>
      <trkpt lat="43.40641" lon="2.25978">
        <ele>761.8</ele>
        <time>2019-08-11T06:57:11.000Z</time>
      </trkpt>
      <trkpt lat="43.40644" lon="2.25978">
        <ele>761.7</ele>
        <time>2019-08-11T06:57:12.000Z</time>
      </trkpt>
      <trkpt lat="43.40646" lon="2.25979">
        <ele>761.7</ele>
        <time>2019-08-11T06:57:13.000Z</time>
      </trkpt>
      <trkpt lat="43.40648" lon="2.25979">
        <ele>761.6</ele>
        <time>2019-08-11T06:57:14.000Z</time>
      </trkpt>
      <trkpt lat="43.40651" lon="2.2598">
        <ele>761.5</ele>
        <time>2019-08-11T06:57:15.000Z</time>
      </trkpt>
      <trkpt lat="43.40653" lon="2.25981">
        <ele>761.4</ele>
        <time>2019-08-11T06:57:16.000Z</time>
      </trkpt>
      <trkpt lat="43.40656" lon="2.25981">
        <ele>761.3</ele>
        <time>2019-08-11T06:57:17.000Z</time>
      </trkpt>
      <trkpt lat="43.40658" lon="2.25982">
        <ele>761.2</ele>
        <time>2019-08-11T06:57:18.000Z</time>
      </trkpt>
      <trkpt lat="43.4066" lon="2.25982">
        <ele>761.1</ele>
        <time>2019-08-11T06:57:19.000Z</time>
      </trkpt>
      <trkpt lat="43.40663" lon="2.25982">
        <ele>761</ele>
        <time>2019-08-11T06:57:20.000Z</time>
      </trkpt>
      <trkpt lat="43.40665" lon="2.25982">
        <ele>760.9</ele>
        <time>2019-08-11T06:57:21.000Z</time>
      </trkpt>
      <trkpt lat="43.40667" lon="2.25981">
        <ele>760.7</ele>
        <time>2019-08-11T06:57:22.000Z</time>
      </trkpt>
      <trkpt lat="43.4067" lon="2.25981">
        <ele>760.3</ele>
        <time>2019-08-11T06:57:23.000Z</time>
      </trkpt>
      <trkpt lat="43.40672" lon="2.2598">
        <ele>760</ele>
        <time>2019-08-11T06:57:24.000Z</time>
      </trkpt>
      <trkpt lat="43.40674" lon="2.25979">
        <ele>759.6</ele>
        <time>2019-08-11T06:57:25.000Z</time>
      </trkpt>
      <trkpt lat="43.40677" lon="2.25977">
        <ele>759.3</ele>
        <time>2019-08-11T06:57:26.000Z</time>
      </trkpt>
      <trkpt lat="43.40679" lon="2.25976">
        <ele>759</ele>
        <time>2019-08-11T06:57:27.000Z</time>
      </trkpt>
      <trkpt lat="43.40681" lon="2.25974">
        <ele>758.7</ele>
        <time>2019-08-11T06:57:28.000Z</time>
      </trkpt>
      <trkpt lat="43.40683" lon="2.25973">
        <ele>758.3</ele>
        <time>2019-08-11T06:57:29.000Z</time>
      </trkpt>
      <trkpt lat="43.40685" lon="2.25971">
        <ele>758</ele>
        <time>2019-08-11T06:57:30.000Z</time>
      </trkpt>
      <trkpt lat="43.40687" lon="2.25969">
        <ele>757.7</ele>
        <time>2019-08-11T06:57:31.000Z</time>
      </trkpt>
      <trkpt lat="43.40689" lon="2.25968">
        <ele>757.4</ele>
        <time>2019-08-11T06:57:32.000Z</time>
      </trkpt>
      <trkpt lat="43.40691" lon="2.25967">
        <ele>757</ele>
        <time>2019-08-11T06:57:33.000Z</time>
      </trkpt>
      <trkpt lat="43.40694" lon="2.25966">
        <ele>756.7</ele>
        <time>2019-08-11T06:57:34.000Z</time>
      </trkpt>
      <trkpt lat="43.40696" lon="2.25965">
        <ele>756.4</ele>
        <time>2019-08-11T06:57:35.000Z</time>
      </trkpt>
      <trkpt lat="43.40698" lon="2.25964">
        <ele>756.1</ele>
        <time>2019-08-11T06:57:36.000Z</time>
      </trkpt>
      <trkpt lat="43.407" lon="2.25962">
        <ele>755.8</ele>
        <time>2019-08-11T06:57:37.000Z</time>
      </trkpt>
      <trkpt lat="43.40702" lon="2.25961">
        <ele>755.5</ele>
        <time>2019-08-11T06:57:38.000Z</time>
      </trkpt>
      <trkpt lat="43.40704" lon="2.2596">
        <ele>755.2</ele>
        <time>2019-08-11T06:57:39.000Z</time>
      </trkpt>
      <trkpt lat="43.40705" lon="2.25959">
        <ele>755</ele>
        <time>2019-08-11T06:57:40.000Z</time>
      </trkpt>
      <trkpt lat="43.40707" lon="2.25957">
        <ele>754.7</ele>
        <time>2019-08-11T06:57:41.000Z</time>
      </trkpt>
      <trkpt lat="43.40708" lon="2.25956">
        <ele>754.5</ele>
        <time>2019-08-11T06:57:42.000Z</time>
      </trkpt>
      <trkpt lat="43.4071" lon="2.25954">
        <ele>754.2</ele>
        <time>2019-08-11T06:57:43.000Z</time>
      </trkpt>
      <trkpt lat="43.40712" lon="2.25951">
        <ele>753.9</ele>
        <time>2019-08-11T06:57:44.000Z</time>
      </trkpt>
      <trkpt lat="43.40714" lon="2.25949">
        <ele>753.6</ele>
        <time>2019-08-11T06:57:45.000Z</time>
      </trkpt>
      <trkpt lat="43.40716" lon="2.25947">
        <ele>753.2</ele>
        <time>2019-08-11T06:57:46.000Z</time>
      </trkpt>
      <trkpt lat="43.40719" lon="2.25944">
        <ele>752.9</ele>
        <time>2019-08-11T06:57:47.000Z</time>
      </trkpt>
      <trkpt lat="43.40721" lon="2.25942">
        <ele>752.5</ele>
        <time>2019-08-11T06:57:48.000Z</time>
      </trkpt>
      <trkpt lat="43.40723" lon="2.25939">
        <ele>752.2</ele>
        <time>2019-08-11T06:57:49.000Z</time>
      </trkpt>
      <trkpt lat="43.40725" lon="2.25937">
        <ele>751.8</ele>
        <time>2019-08-11T06:57:50.000Z</time>
      </trkpt>
      <trkpt lat="43.40727" lon="2.25935">
        <ele>751.5</ele>
        <time>2019-08-11T06:57:51.000Z</time>
      </trkpt>
      <trkpt lat="43.40729" lon="2.25932">
        <ele>751.2</ele>
        <time>2019-08-11T06:57:52.000Z</time>
      </trkpt>
      <trkpt lat="43.40731" lon="2.2593">
        <ele>750.9</ele>
        <time>2019-08-11T06:57:53.000Z</time>
      </trkpt>
      <trkpt lat="43.40733" lon="2.25927">
        <ele>750.6</ele>
        <time>2019-08-11T06:57:54.000Z</time>
      </trkpt>
      <trkpt lat="43.40734" lon="2.25925">
        <ele>750.3</ele>
        <time>2019-08-11T06:57:55.000Z</time>
      </trkpt>
      <trkpt lat="43.40736" lon="2.25922">
        <ele>750.1</ele>
        <time>2019-08-11T06:57:56.000Z</time>
      </trkpt>
      <trkpt lat="43.40738" lon="2.2592">
        <ele>749.8</ele>
        <time>2019-08-11T06:57:57.000Z</time>
      </trkpt>
      <trkpt lat="43.40739" lon="2.25917">
        <ele>749.6</ele>
        <time>2019-08-11T06:57:58.000Z</time>
      </trkpt>
      <trkpt lat="43.40741" lon="2.25914">
        <ele>749.2</ele>
        <time>2019-08-11T06:57:59.000Z</time>
      </trkpt>
      <trkpt lat="43.40742" lon="2.25911">
        <ele>748.8</ele>
        <time>2019-08-11T06:58:00.000Z</time>
      </trkpt>
      <trkpt lat="43.40744" lon="2.25909">
        <ele>748.4</ele>
        <time>2019-08-11T06:58:01.000Z</time>
      </trkpt>
      <trkpt lat="43.40745" lon="2.25906">
        <ele>748</ele>
        <time>2019-08-11T06:58:02.000Z</time>
      </trkpt>
      <trkpt lat="43.40747" lon="2.25903">
        <ele>747.6</ele>
        <time>2019-08-11T06:58:03.000Z</time>
      </trkpt>
      <trkpt lat="43.40748" lon="2.259">
        <ele>747.2</ele>
        <time>2019-08-11T06:58:04.000Z</time>
      </trkpt>
      <trkpt lat="43.4075" lon="2.25896">
        <ele>746.8</ele>
        <time>2019-08-11T06:58:05.000Z</time>
      </trkpt>
      <trkpt lat="43.40752" lon="2.25893">
        <ele>746.5</ele>
        <time>2019-08-11T06:58:06.000Z</time>
      </trkpt>
      <trkpt lat="43.40753" lon="2.2589">
        <ele>746.2</ele>
        <time>2019-08-11T06:58:07.000Z</time>
      </trkpt>
      <trkpt lat="43.40755" lon="2.25887">
        <ele>745.9</ele>
        <time>2019-08-11T06:58:08.000Z</time>
      </trkpt>
      <trkpt lat="43.40756" lon="2.25883">
        <ele>745.6</ele>
        <time>2019-08-11T06:58:09.000Z</time>
      </trkpt>
      <trkpt lat="43.40758" lon="2.2588">
        <ele>745.3</ele>
        <time>2019-08-11T06:58:10.000Z</time>
      </trkpt>
      <trkpt lat="43.40759" lon="2.25877">
        <ele>745</ele>
        <time>2019-08-11T06:58:11.000Z</time>
      </trkpt>
      <trkpt lat="43.40761" lon="2.25873">
        <ele>744.7</ele>
        <time>2019-08-11T06:58:12.000Z</time>
      </trkpt>
      <trkpt lat="43.40762" lon="2.2587">
        <ele>744.4</ele>
        <time>2019-08-11T06:58:13.000Z</time>
      </trkpt>
      <trkpt lat="43.40763" lon="2.25867">
        <ele>744</ele>
        <time>2019-08-11T06:58:14.000Z</time>
      </trkpt>
      <trkpt lat="43.40765" lon="2.25863">
        <ele>743.7</ele>
        <time>2019-08-11T06:58:15.000Z</time>
      </trkpt>
      <trkpt lat="43.40766" lon="2.2586">
        <ele>743.4</ele>
        <time>2019-08-11T06:58:16.000Z</time>
      </trkpt>
      <trkpt lat="43.40767" lon="2.25857">
        <ele>743</ele>
        <time>2019-08-11T06:58:17.000Z</time>
      </trkpt>
      <trkpt lat="43.40768" lon="2.25855">
        <ele>742.8</ele>
        <time>2019-08-11T06:58:18.000Z</time>
      </trkpt>
      <trkpt lat="43.40769" lon="2.25853">
        <ele>742.7</ele>
        <time>2019-08-11T06:58:19.000Z</time>
      </trkpt>
      <trkpt lat="43.40769" lon="2.25853">
        <ele>742.7</ele>
        <time>2019-08-11T06:58:20.000Z</time>
      </trkpt>
      <trkpt lat="43.40769" lon="2.25853">
        <ele>742.7</ele>
        <time>2019-08-11T06:58:21.000Z</time>
      </trkpt>
      <trkpt lat="43.40769" lon="2.25853">
        <ele>742.7</ele>
        <time>2019-08-11T06:58:22.000Z</time>
      </trkpt>
      <trkpt lat="43.40769" lon="2.25853">
        <ele>742.6</ele>
        <time>2019-08-11T06:58:23.000Z</time>
      </trkpt>
      <trkpt lat="43.40769" lon="2.25852">
        <ele>742.5</ele>
        <time>2019-08-11T06:58:24.000Z</time>
      </trkpt>
      <trkpt lat="43.4077" lon="2.2585">
        <ele>742.4</ele>
        <time>2019-08-11T06:58:25.000Z</time>
      </trkpt>
      <trkpt lat="43.40771" lon="2.25848">
        <ele>742.1</ele>
        <time>2019-08-11T06:58:26.000Z</time>
      </trkpt>
      <trkpt lat="43.40772" lon="2.25846">
        <ele>741.9</ele>
        <time>2019-08-11T06:58:27.000Z</time>
      </trkpt>
      <trkpt lat="43.40773" lon="2.25843">
        <ele>741.5</ele>
        <time>2019-08-11T06:58:28.000Z</time>
      </trkpt>
      <trkpt lat="43.40774" lon="2.2584">
        <ele>741.2</ele>
        <time>2019-08-11T06:58:29.000Z</time>
      </trkpt>
      <trkpt lat="43.40775" lon="2.25837">
        <ele>740.9</ele>
        <time>2019-08-11T06:58:30.000Z</time>
      </trkpt>
      <trkpt lat="43.40776" lon="2.25834">
        <ele>740.5</ele>
        <time>2019-08-11T06:58:31.000Z</time>
      </trkpt>
      <trkpt lat="43.40777" lon="2.25831">
        <ele>739.9</ele>
        <time>2019-08-11T06:58:32.000Z</time>
      </trkpt>
      <trkpt lat="43.40778" lon="2.25828">
        <ele>739.3</ele>
        <time>2019-08-11T06:58:33.000Z</time>
      </trkpt>
      <trkpt lat="43.40779" lon="2.25824">
        <ele>738.7</ele>
        <time>2019-08-11T06:58:34.000Z</time>
      </trkpt>
      <trkpt lat="43.4078" lon="2.25821">
        <ele>738</ele>
        <time>2019-08-11T06:58:35.000Z</time>
      </trkpt>
      <trkpt lat="43.40781" lon="2.25817">
        <ele>737.3</ele>
        <time>2019-08-11T06:58:36.000Z</time>
      </trkpt>
      <trkpt lat="43.40782" lon="2.25814">
        <ele>736.6</ele>
        <time>2019-08-11T06:58:37.000Z</time>
      </trkpt>
      <trkpt lat="43.40783" lon="2.2581">
        <ele>735.9</ele>
        <time>2019-08-11T06:58:38.000Z</time>
      </trkpt>
      <trkpt lat="43.40784" lon="2.25806">
        <ele>735.2</ele>
        <time>2019-08-11T06:58:39.000Z</time>
      </trkpt>
      <trkpt lat="43.40784" lon="2.25803">
        <ele>734.6</ele>
        <time>2019-08-11T06:58:40.000Z</time>
      </trkpt>
      <trkpt lat="43.40785" lon="2.25799">
        <ele>733.9</ele>
        <time>2019-08-11T06:58:41.000Z</time>
      </trkpt>
      <trkpt lat="43.40785" lon="2.25796">
        <ele>733.3</ele>
        <time>2019-08-11T06:58:42.000Z</time>
      </trkpt>
      <trkpt lat="43.40785" lon="2.25793">
        <ele>732.8</ele>
        <time>2019-08-11T06:58:43.000Z</time>
      </trkpt>
      <trkpt lat="43.40786" lon="2.2579">
        <ele>732.3</ele>
        <time>2019-08-11T06:58:44.000Z</time>
      </trkpt>
      <trkpt lat="43.40786" lon="2.25787">
        <ele>731.9</ele>
        <time>2019-08-11T06:58:45.000Z</time>
      </trkpt>
      <trkpt lat="43.40786" lon="2.25785">
        <ele>731.5</ele>
        <time>2019-08-11T06:58:46.000Z</time>
      </trkpt>
      <trkpt lat="43.40786" lon="2.25782">
        <ele>731</ele>
        <time>2019-08-11T06:58:47.000Z</time>
      </trkpt>
      <trkpt lat="43.40786" lon="2.25779">
        <ele>730.6</ele>
        <time>2019-08-11T06:58:48.000Z</time>
      </trkpt>
      <trkpt lat="43.40786" lon="2.25777">
        <ele>730.1</ele>
        <time>2019-08-11T06:58:49.000Z</time>
      </trkpt>
      <trkpt lat="43.40786" lon="2.25773">
        <ele>729.6</ele>
        <time>2019-08-11T06:58:50.000Z</time>
      </trkpt>
      <trkpt lat="43.40786" lon="2.2577">
        <ele>729</ele>
        <time>2019-08-11T06:58:51.000Z</time>
      </trkpt>
      <trkpt lat="43.40786" lon="2.25766">
        <ele>728.4</ele>
        <time>2019-08-11T06:58:52.000Z</time>
      </trkpt>
      <trkpt lat="43.40787" lon="2.25762">
        <ele>727.7</ele>
        <time>2019-08-11T06:58:53.000Z</time>
      </trkpt>
      <trkpt lat="43.40787" lon="2.25758">
        <ele>727</ele>
        <time>2019-08-11T06:58:54.000Z</time>
      </trkpt>
      <trkpt lat="43.40788" lon="2.25754">
        <ele>726.3</ele>
        <time>2019-08-11T06:58:55.000Z</time>
      </trkpt>
      <trkpt lat="43.40788" lon="2.2575">
        <ele>725.7</ele>
        <time>2019-08-11T06:58:56.000Z</time>
      </trkpt>
      <trkpt lat="43.40789" lon="2.25747">
        <ele>725.5</ele>
        <time>2019-08-11T06:58:57.000Z</time>
      </trkpt>
      <trkpt lat="43.40789" lon="2.25744">
        <ele>725.4</ele>
        <time>2019-08-11T06:58:58.000Z</time>
      </trkpt>
      <trkpt lat="43.4079" lon="2.25742">
        <ele>725.3</ele>
        <time>2019-08-11T06:58:59.000Z</time>
      </trkpt>
      <trkpt lat="43.4079" lon="2.2574">
        <ele>725.2</ele>
        <time>2019-08-11T06:59:00.000Z</time>
      </trkpt>
      <trkpt lat="43.40791" lon="2.25738">
        <ele>725.2</ele>
        <time>2019-08-11T06:59:01.000Z</time>
      </trkpt>
      <trkpt lat="43.40791" lon="2.25736">
        <ele>725.1</ele>
        <time>2019-08-11T06:59:02.000Z</time>
      </trkpt>
      <trkpt lat="43.40791" lon="2.25734">
        <ele>725</ele>
        <time>2019-08-11T06:59:03.000Z</time>
      </trkpt>
      <trkpt lat="43.4079" lon="2.25732">
        <ele>725</ele>
        <time>2019-08-11T06:59:04.000Z</time>
      </trkpt>
      <trkpt lat="43.4079" lon="2.2573">
        <ele>724.9</ele>
        <time>2019-08-11T06:59:05.000Z</time>
      </trkpt>
      <trkpt lat="43.40789" lon="2.25728">
        <ele>724.9</ele>
        <time>2019-08-11T06:59:06.000Z</time>
      </trkpt>
      <trkpt lat="43.40788" lon="2.25726">
        <ele>724.8</ele>
        <time>2019-08-11T06:59:07.000Z</time>
      </trkpt>
      <trkpt lat="43.40786" lon="2.25724">
        <ele>724.8</ele>
        <time>2019-08-11T06:59:08.000Z</time>
      </trkpt>
      <trkpt lat="43.40785" lon="2.25721">
        <ele>724.7</ele>
        <time>2019-08-11T06:59:09.000Z</time>
      </trkpt>
      <trkpt lat="43.40784" lon="2.25719">
        <ele>724.7</ele>
        <time>2019-08-11T06:59:10.000Z</time>
      </trkpt>
      <trkpt lat="43.40783" lon="2.25717">
        <ele>724.6</ele>
        <time>2019-08-11T06:59:11.000Z</time>
      </trkpt>
      <trkpt lat="43.40782" lon="2.25716">
        <ele>724.6</ele>
        <time>2019-08-11T06:59:12.000Z</time>
      </trkpt>
      <trkpt lat="43.40781" lon="2.25714">
        <ele>724.5</ele>
        <time>2019-08-11T06:59:13.000Z</time>
      </trkpt>
      <trkpt lat="43.4078" lon="2.25712">
        <ele>724.5</ele>
        <time>2019-08-11T06:59:14.000Z</time>
      </trkpt>
      <trkpt lat="43.4078" lon="2.25711">
        <ele>724.4</ele>
        <time>2019-08-11T06:59:15.000Z</time>
      </trkpt>
      <trkpt lat="43.40779" lon="2.25709">
        <ele>724.4</ele>
        <time>2019-08-11T06:59:16.000Z</time>
      </trkpt>
      <trkpt lat="43.40779" lon="2.25708">
        <ele>724.3</ele>
        <time>2019-08-11T06:59:17.000Z</time>
      </trkpt>
      <trkpt lat="43.40778" lon="2.25707">
        <ele>724.3</ele>
        <time>2019-08-11T06:59:18.000Z</time>
      </trkpt>
      <trkpt lat="43.40778" lon="2.25705">
        <ele>724.2</ele>
        <time>2019-08-11T06:59:19.000Z</time>
      </trkpt>
      <trkpt lat="43.40778" lon="2.25704">
        <ele>724.2</ele>
        <time>2019-08-11T06:59:20.000Z</time>
      </trkpt>
      <trkpt lat="43.40777" lon="2.25703">
        <ele>724.1</ele>
        <time>2019-08-11T06:59:21.000Z</time>
      </trkpt>
      <trkpt lat="43.40777" lon="2.25702">
        <ele>724.1</ele>
        <time>2019-08-11T06:59:22.000Z</time>
      </trkpt>
      <trkpt lat="43.40777" lon="2.25701">
        <ele>724</ele>
        <time>2019-08-11T06:59:23.000Z</time>
      </trkpt>
      <trkpt lat="43.40777" lon="2.25701">
        <ele>724</ele>
        <time>2019-08-11T06:59:24.000Z</time>
      </trkpt>
      <trkpt lat="43.40776" lon="2.257">
        <ele>724</ele>
        <time>2019-08-11T06:59:25.000Z</time>
      </trkpt>
      <trkpt lat="43.40776" lon="2.257">
        <ele>724</ele>
        <time>2019-08-11T06:59:26.000Z</time>
      </trkpt>
      <trkpt lat="43.40775" lon="2.257">
        <ele>724</ele>
        <time>2019-08-11T06:59:27.000Z</time>
      </trkpt>
      <trkpt lat="43.40774" lon="2.25699">
        <ele>724</ele>
        <time>2019-08-11T06:59:28.000Z</time>
      </trkpt>
      <trkpt lat="43.40773" lon="2.25699">
        <ele>723.9</ele>
        <time>2019-08-11T06:59:29.000Z</time>
      </trkpt>
      <trkpt lat="43.40773" lon="2.25698">
        <ele>723.9</ele>
        <time>2019-08-11T06:59:30.000Z</time>
      </trkpt>
      <trkpt lat="43.40772" lon="2.25697">
        <ele>723.9</ele>
        <time>2019-08-11T06:59:31.000Z</time>
      </trkpt>
      <trkpt lat="43.40772" lon="2.25696">
        <ele>723.8</ele>
        <time>2019-08-11T06:59:32.000Z</time>
      </trkpt>
      <trkpt lat="43.40772" lon="2.25694">
        <ele>723.8</ele>
        <time>2019-08-11T06:59:33.000Z</time>
      </trkpt>
      <trkpt lat="43.40771" lon="2.25693">
        <ele>723.7</ele>
        <time>2019-08-11T06:59:34.000Z</time>
      </trkpt>
      <trkpt lat="43.40771" lon="2.25692">
        <ele>723.7</ele>
        <time>2019-08-11T06:59:35.000Z</time>
      </trkpt>
      <trkpt lat="43.40771" lon="2.25692">
        <ele>723.6</ele>
        <time>2019-08-11T06:59:36.000Z</time>
      </trkpt>
      <trkpt lat="43.4077" lon="2.25692">
        <ele>723.6</ele>
        <time>2019-08-11T06:59:37.000Z</time>
      </trkpt>
      <trkpt lat="43.4077" lon="2.25692">
        <ele>723.6</ele>
        <time>2019-08-11T06:59:38.000Z</time>
      </trkpt>
      <trkpt lat="43.4077" lon="2.25692">
        <ele>723.6</ele>
        <time>2019-08-11T06:59:39.000Z</time>
      </trkpt>
      <trkpt lat="43.4077" lon="2.25691">
        <ele>723.6</ele>
        <time>2019-08-11T06:59:40.000Z</time>
      </trkpt>
      <trkpt lat="43.40769" lon="2.2569">
        <ele>723.5</ele>
        <time>2019-08-11T06:59:41.000Z</time>
      </trkpt>
      <trkpt lat="43.40769" lon="2.25689">
        <ele>723.5</ele>
        <time>2019-08-11T06:59:42.000Z</time>
      </trkpt>
      <trkpt lat="43.40769" lon="2.25689">
        <ele>723.5</ele>
        <time>2019-08-11T06:59:43.000Z</time>
      </trkpt>
      <trkpt lat="43.40769" lon="2.25688">
        <ele>723.4</ele>
        <time>2019-08-11T06:59:44.000Z</time>
      </trkpt>
      <trkpt lat="43.40769" lon="2.25687">
        <ele>723.4</ele>
        <time>2019-08-11T06:59:45.000Z</time>
      </trkpt>
      <trkpt lat="43.40768" lon="2.25686">
        <ele>723.3</ele>
        <time>2019-08-11T06:59:46.000Z</time>
      </trkpt>
      <trkpt lat="43.40768" lon="2.25685">
        <ele>723.3</ele>
        <time>2019-08-11T06:59:47.000Z</time>
      </trkpt>
      <trkpt lat="43.40768" lon="2.25685">
        <ele>723.3</ele>
        <time>2019-08-11T06:59:48.000Z</time>
      </trkpt>
      <trkpt lat="43.40768" lon="2.25684">
        <ele>723.2</ele>
        <time>2019-08-11T06:59:49.000Z</time>
      </trkpt>
      <trkpt lat="43.40767" lon="2.25684">
        <ele>723.2</ele>
        <time>2019-08-11T06:59:50.000Z</time>
      </trkpt>
      <trkpt lat="43.40767" lon="2.25683">
        <ele>723.2</ele>
        <time>2019-08-11T06:59:51.000Z</time>
      </trkpt>
      <trkpt lat="43.40766" lon="2.25683">
        <ele>723.2</ele>
        <time>2019-08-11T06:59:52.000Z</time>
      </trkpt>
      <trkpt lat="43.40766" lon="2.25683">
        <ele>723.2</ele>
        <time>2019-08-11T06:59:53.000Z</time>
      </trkpt>
      <trkpt lat="43.40765" lon="2.25683">
        <ele>723.1</ele>
        <time>2019-08-11T06:59:54.000Z</time>
      </trkpt>
      <trkpt lat="43.40765" lon="2.25683">
        <ele>723.1</ele>
        <time>2019-08-11T06:59:55.000Z</time>
      </trkpt>
      <trkpt lat="43.40765" lon="2.25682">
        <ele>723.1</ele>
        <time>2019-08-11T06:59:56.000Z</time>
      </trkpt>
      <trkpt lat="43.40765" lon="2.25682">
        <ele>723.1</ele>
        <time>2019-08-11T06:59:57.000Z</time>
      </trkpt>
      <trkpt lat="43.40765" lon="2.25682">
        <ele>723.1</ele>
        <time>2019-08-11T06:59:58.000Z</time>
      </trkpt>
      <trkpt lat="43.40764" lon="2.25682">
        <ele>723.1</ele>
        <time>2019-08-11T06:59:59.000Z</time>
      </trkpt>
      <trkpt lat="43.40764" lon="2.25682">
        <ele>723.1</ele>
        <time>2019-08-11T07:00:00.000Z</time>
      </trkpt>
      <trkpt lat="43.40764" lon="2.25682">
        <ele>723.1</ele>
        <time>2019-08-11T07:00:01.000Z</time>
      </trkpt>
      <trkpt lat="43.40764" lon="2.25682">
        <ele>723.1</ele>
        <time>2019-08-11T07:00:02.000Z</time>
      </trkpt>
      <trkpt lat="43.40764" lon="2.25682">
        <ele>723.1</ele>
        <time>2019-08-11T07:00:03.000Z</time>
      </trkpt>
      <trkpt lat="43.40764" lon="2.25682">
        <ele>723.1</ele>
        <time>2019-08-11T07:00:04.000Z</time>
      </trkpt>
      <trkpt lat="43.40764" lon="2.25682">
        <ele>723.1</ele>
        <time>2019-08-11T07:00:05.000Z</time>
      </trkpt>
      <trkpt lat="43.40764" lon="2.25683">
        <ele>723.1</ele>
        <time>2019-08-11T07:00:06.000Z</time>
      </trkpt>
      <trkpt lat="43.40764" lon="2.25683">
        <ele>723.1</ele>
        <time>2019-08-11T07:00:07.000Z</time>
      </trkpt>
      <trkpt lat="43.40764" lon="2.25683">
        <ele>723.1</ele>
        <time>2019-08-11T07:00:08.000Z</time>
      </trkpt>
      <trkpt lat="43.40764" lon="2.25683">
        <ele>723.1</ele>
        <time>2019-08-11T07:00:09.000Z</time>
      </trkpt>
      <trkpt lat="43.40764" lon="2.25683">
        <ele>723.1</ele>
        <time>2019-08-11T07:00:10.000Z</time>
      </trkpt>
      <trkpt lat="43.40764" lon="2.25683">
        <ele>723.1</ele>
        <time>2019-08-11T07:00:11.000Z</time>
      </trkpt>
      <trkpt lat="43.40764" lon="2.25683">
        <ele>723.1</ele>
        <time>2019-08-11T07:00:12.000Z</time>
      </trkpt>
      <trkpt lat="43.40764" lon="2.25683">
        <ele>723.1</ele>
        <time>2019-08-11T07:00:13.000Z</time>
      </trkpt>
      <trkpt lat="43.40764" lon="2.25683">
        <ele>723.1</ele>
        <time>2019-08-11T07:00:14.000Z</time>
      </trkpt>
      <trkpt lat="43.40764" lon="2.25683">
        <ele>723.1</ele>
        <time>2019-08-11T07:00:15.000Z</time>
      </trkpt>
      <trkpt lat="43.40764" lon="2.25683">
        <ele>723.2</ele>
        <time>2019-08-11T07:00:16.000Z</time>
      </trkpt>
      <trkpt lat="43.40764" lon="2.25685">
        <ele>723.2</ele>
        <time>2019-08-11T07:00:17.000Z</time>
      </trkpt>
      <trkpt lat="43.40763" lon="2.25685">
        <ele>723.3</ele>
        <time>2019-08-11T07:00:18.000Z</time>
      </trkpt>
      <trkpt lat="43.40763" lon="2.25686">
        <ele>723.3</ele>
        <time>2019-08-11T07:00:19.000Z</time>
      </trkpt>
      <trkpt lat="43.40763" lon="2.25685">
        <ele>723.2</ele>
        <time>2019-08-11T07:00:20.000Z</time>
      </trkpt>
      <trkpt lat="43.40762" lon="2.25684">
        <ele>723.2</ele>
        <time>2019-08-11T07:00:21.000Z</time>
      </trkpt>
      <trkpt lat="43.40762" lon="2.25684">
        <ele>723.2</ele>
        <time>2019-08-11T07:00:22.000Z</time>
      </trkpt>
      <trkpt lat="43.40762" lon="2.25683">
        <ele>723.1</ele>
        <time>2019-08-11T07:00:23.000Z</time>
      </trkpt>
      <trkpt lat="43.40761" lon="2.25682">
        <ele>723.1</ele>
        <time>2019-08-11T07:00:24.000Z</time>
      </trkpt>
      <trkpt lat="43.40761" lon="2.25682">
        <ele>723.1</ele>
        <time>2019-08-11T07:00:25.000Z</time>
      </trkpt>
      <trkpt lat="43.40761" lon="2.25681">
        <ele>723</ele>
        <time>2019-08-11T07:00:26.000Z</time>
      </trkpt>
      <trkpt lat="43.4076" lon="2.25681">
        <ele>723</ele>
        <time>2019-08-11T07:00:27.000Z</time>
      </trkpt>
      <trkpt lat="43.40759" lon="2.25681">
        <ele>723</ele>
        <time>2019-08-11T07:00:28.000Z</time>
      </trkpt>
      <trkpt lat="43.40759" lon="2.2568">
        <ele>722.9</ele>
        <time>2019-08-11T07:00:29.000Z</time>
      </trkpt>
      <trkpt lat="43.40758" lon="2.2568">
        <ele>722.9</ele>
        <time>2019-08-11T07:00:30.000Z</time>
      </trkpt>
      <trkpt lat="43.40757" lon="2.2568">
        <ele>722.9</ele>
        <time>2019-08-11T07:00:31.000Z</time>
      </trkpt>
      <trkpt lat="43.40756" lon="2.25679">
        <ele>722.8</ele>
        <time>2019-08-11T07:00:32.000Z</time>
      </trkpt>
      <trkpt lat="43.40756" lon="2.25679">
        <ele>722.8</ele>
        <time>2019-08-11T07:00:33.000Z</time>
      </trkpt>
      <trkpt lat="43.40755" lon="2.25679">
        <ele>722.8</ele>
        <time>2019-08-11T07:00:34.000Z</time>
      </trkpt>
      <trkpt lat="43.40754" lon="2.25679">
        <ele>722.8</ele>
        <time>2019-08-11T07:00:35.000Z</time>
      </trkpt>
      <trkpt lat="43.40754" lon="2.25678">
        <ele>722.8</ele>
        <time>2019-08-11T07:00:36.000Z</time>
      </trkpt>
      <trkpt lat="43.40754" lon="2.25678">
        <ele>722.8</ele>
        <time>2019-08-11T07:00:37.000Z</time>
      </trkpt>
      <trkpt lat="43.40754" lon="2.25678">
        <ele>722.8</ele>
        <time>2019-08-11T07:00:38.000Z</time>
      </trkpt>
      <trkpt lat="43.40754" lon="2.25678">
        <ele>722.8</ele>
        <time>2019-08-11T07:00:39.000Z</time>
      </trkpt>
      <trkpt lat="43.40754" lon="2.25678">
        <ele>722.8</ele>
        <time>2019-08-11T07:00:40.000Z</time>
      </trkpt>
      <trkpt lat="43.40754" lon="2.25678">
        <ele>722.8</ele>
        <time>2019-08-11T07:00:41.000Z</time>
      </trkpt>
      <trkpt lat="43.40754" lon="2.25678">
        <ele>722.8</ele>
        <time>2019-08-11T07:00:42.000Z</time>
      </trkpt>
      <trkpt lat="43.40753" lon="2.25678">
        <ele>722.7</ele>
        <time>2019-08-11T07:00:43.000Z</time>
      </trkpt>
      <trkpt lat="43.40753" lon="2.25678">
        <ele>722.7</ele>
        <time>2019-08-11T07:00:44.000Z</time>
      </trkpt>
      <trkpt lat="43.40752" lon="2.25678">
        <ele>722.7</ele>
        <time>2019-08-11T07:00:45.000Z</time>
      </trkpt>
      <trkpt lat="43.40751" lon="2.25678">
        <ele>722.7</ele>
        <time>2019-08-11T07:00:46.000Z</time>
      </trkpt>
      <trkpt lat="43.40751" lon="2.25678">
        <ele>722.7</ele>
        <time>2019-08-11T07:00:47.000Z</time>
      </trkpt>
      <trkpt lat="43.4075" lon="2.25678">
        <ele>722.7</ele>
        <time>2019-08-11T07:00:48.000Z</time>
      </trkpt>
      <trkpt lat="43.40749" lon="2.25678">
        <ele>722.7</ele>
        <time>2019-08-11T07:00:49.000Z</time>
      </trkpt>
      <trkpt lat="43.40748" lon="2.25677">
        <ele>722.6</ele>
        <time>2019-08-11T07:00:50.000Z</time>
      </trkpt>
      <trkpt lat="43.40747" lon="2.25677">
        <ele>722.6</ele>
        <time>2019-08-11T07:00:51.000Z</time>
      </trkpt>
      <trkpt lat="43.40746" lon="2.25676">
        <ele>722.6</ele>
        <time>2019-08-11T07:00:52.000Z</time>
      </trkpt>
      <trkpt lat="43.40745" lon="2.25676">
        <ele>722.5</ele>
        <time>2019-08-11T07:00:53.000Z</time>
      </trkpt>
      <trkpt lat="43.40743" lon="2.25676">
        <ele>722.5</ele>
        <time>2019-08-11T07:00:54.000Z</time>
      </trkpt>
      <trkpt lat="43.40742" lon="2.25676">
        <ele>722.5</ele>
        <time>2019-08-11T07:00:55.000Z</time>
      </trkpt>
      <trkpt lat="43.4074" lon="2.25676">
        <ele>722.5</ele>
        <time>2019-08-11T07:00:56.000Z</time>
      </trkpt>
      <trkpt lat="43.40738" lon="2.25676">
        <ele>722.5</ele>
        <time>2019-08-11T07:00:57.000Z</time>
      </trkpt>
      <trkpt lat="43.40737" lon="2.25675">
        <ele>722.5</ele>
        <time>2019-08-11T07:00:58.000Z</time>
      </trkpt>
      <trkpt lat="43.40736" lon="2.25675">
        <ele>722.4</ele>
        <time>2019-08-11T07:00:59.000Z</time>
      </trkpt>
      <trkpt lat="43.40735" lon="2.25675">
        <ele>722.4</ele>
        <time>2019-08-11T07:01:00.000Z</time>
      </trkpt>
      <trkpt lat="43.40734" lon="2.25674">
        <ele>722.3</ele>
        <time>2019-08-11T07:01:01.000Z</time>
      </trkpt>
      <trkpt lat="43.40733" lon="2.25673">
        <ele>722.3</ele>
        <time>2019-08-11T07:01:02.000Z</time>
      </trkpt>
      <trkpt lat="43.40733" lon="2.25673">
        <ele>722.2</ele>
        <time>2019-08-11T07:01:03.000Z</time>
      </trkpt>
      <trkpt lat="43.40732" lon="2.25672">
        <ele>722.2</ele>
        <time>2019-08-11T07:01:04.000Z</time>
      </trkpt>
      <trkpt lat="43.40731" lon="2.25672">
        <ele>722.2</ele>
        <time>2019-08-11T07:01:05.000Z</time>
      </trkpt>
      <trkpt lat="43.4073" lon="2.25671">
        <ele>722.1</ele>
        <time>2019-08-11T07:01:06.000Z</time>
      </trkpt>
      <trkpt lat="43.40729" lon="2.25671">
        <ele>722.1</ele>
        <time>2019-08-11T07:01:07.000Z</time>
      </trkpt>
      <trkpt lat="43.40728" lon="2.25671">
        <ele>722</ele>
        <time>2019-08-11T07:01:08.000Z</time>
      </trkpt>
      <trkpt lat="43.40727" lon="2.2567">
        <ele>722</ele>
        <time>2019-08-11T07:01:09.000Z</time>
      </trkpt>
      <trkpt lat="43.40726" lon="2.2567">
        <ele>722</ele>
        <time>2019-08-11T07:01:10.000Z</time>
      </trkpt>
      <trkpt lat="43.40725" lon="2.25669">
        <ele>721.9</ele>
        <time>2019-08-11T07:01:11.000Z</time>
      </trkpt>
      <trkpt lat="43.40724" lon="2.25669">
        <ele>721.8</ele>
        <time>2019-08-11T07:01:12.000Z</time>
      </trkpt>
      <trkpt lat="43.40723" lon="2.25668">
        <ele>721.8</ele>
        <time>2019-08-11T07:01:13.000Z</time>
      </trkpt>
      <trkpt lat="43.40722" lon="2.25667">
        <ele>721.7</ele>
        <time>2019-08-11T07:01:14.000Z</time>
      </trkpt>
      <trkpt lat="43.40721" lon="2.25666">
        <ele>721.7</ele>
        <time>2019-08-11T07:01:15.000Z</time>
      </trkpt>
      <trkpt lat="43.4072" lon="2.25666">
        <ele>721.7</ele>
        <time>2019-08-11T07:01:16.000Z</time>
      </trkpt>
      <trkpt lat="43.40719" lon="2.25665">
        <ele>721.8</ele>
        <time>2019-08-11T07:01:17.000Z</time>
      </trkpt>
      <trkpt lat="43.40718" lon="2.25664">
        <ele>721.9</ele>
        <time>2019-08-11T07:01:18.000Z</time>
      </trkpt>
      <trkpt lat="43.40718" lon="2.25664">
        <ele>721.9</ele>
        <time>2019-08-11T07:01:19.000Z</time>
      </trkpt>
      <trkpt lat="43.40717" lon="2.25664">
        <ele>721.9</ele>
        <time>2019-08-11T07:01:20.000Z</time>
      </trkpt>
      <trkpt lat="43.40716" lon="2.25663">
        <ele>721.9</ele>
        <time>2019-08-11T07:01:21.000Z</time>
      </trkpt>
      <trkpt lat="43.40715" lon="2.25663">
        <ele>722</ele>
        <time>2019-08-11T07:01:22.000Z</time>
      </trkpt>
      <trkpt lat="43.40715" lon="2.25663">
        <ele>722</ele>
        <time>2019-08-11T07:01:23.000Z</time>
      </trkpt>
      <trkpt lat="43.40714" lon="2.25662">
        <ele>722</ele>
        <time>2019-08-11T07:01:24.000Z</time>
      </trkpt>
      <trkpt lat="43.40713" lon="2.25662">
        <ele>722.1</ele>
        <time>2019-08-11T07:01:25.000Z</time>
      </trkpt>
      <trkpt lat="43.40712" lon="2.25661">
        <ele>722.1</ele>
        <time>2019-08-11T07:01:26.000Z</time>
      </trkpt>
      <trkpt lat="43.40711" lon="2.2566">
        <ele>722.2</ele>
        <time>2019-08-11T07:01:27.000Z</time>
      </trkpt>
      <trkpt lat="43.4071" lon="2.25659">
        <ele>722.2</ele>
        <time>2019-08-11T07:01:28.000Z</time>
      </trkpt>
      <trkpt lat="43.40708" lon="2.25659">
        <ele>722.3</ele>
        <time>2019-08-11T07:01:29.000Z</time>
      </trkpt>
      <trkpt lat="43.40707" lon="2.25658">
        <ele>722.3</ele>
        <time>2019-08-11T07:01:30.000Z</time>
      </trkpt>
      <trkpt lat="43.40706" lon="2.25658">
        <ele>722.3</ele>
        <time>2019-08-11T07:01:31.000Z</time>
      </trkpt>
      <trkpt lat="43.40705" lon="2.25657">
        <ele>722.3</ele>
        <time>2019-08-11T07:01:32.000Z</time>
      </trkpt>
      <trkpt lat="43.40705" lon="2.25657">
        <ele>722.4</ele>
        <time>2019-08-11T07:01:33.000Z</time>
      </trkpt>
      <trkpt lat="43.40704" lon="2.25656">
        <ele>722.4</ele>
        <time>2019-08-11T07:01:34.000Z</time>
      </trkpt>
      <trkpt lat="43.40704" lon="2.25656">
        <ele>722.5</ele>
        <time>2019-08-11T07:01:35.000Z</time>
      </trkpt>
      <trkpt lat="43.40704" lon="2.25655">
        <ele>722.5</ele>
        <time>2019-08-11T07:01:36.000Z</time>
      </trkpt>
      <trkpt lat="43.40703" lon="2.25655">
        <ele>722.5</ele>
        <time>2019-08-11T07:01:37.000Z</time>
      </trkpt>
      <trkpt lat="43.40703" lon="2.25654">
        <ele>722.6</ele>
        <time>2019-08-11T07:01:38.000Z</time>
      </trkpt>
      <trkpt lat="43.40702" lon="2.25654">
        <ele>722.6</ele>
        <time>2019-08-11T07:01:39.000Z</time>
      </trkpt>
      <trkpt lat="43.40701" lon="2.25653">
        <ele>722.7</ele>
        <time>2019-08-11T07:01:40.000Z</time>
      </trkpt>
      <trkpt lat="43.407" lon="2.25652">
        <ele>722.7</ele>
        <time>2019-08-11T07:01:41.000Z</time>
      </trkpt>
      <trkpt lat="43.407" lon="2.25652">
        <ele>722.7</ele>
        <time>2019-08-11T07:01:42.000Z</time>
      </trkpt>
      <trkpt lat="43.40699" lon="2.25651">
        <ele>722.8</ele>
        <time>2019-08-11T07:01:43.000Z</time>
      </trkpt>
      <trkpt lat="43.40698" lon="2.25651">
        <ele>722.8</ele>
        <time>2019-08-11T07:01:44.000Z</time>
      </trkpt>
      <trkpt lat="43.40697" lon="2.2565">
        <ele>722.8</ele>
        <time>2019-08-11T07:01:45.000Z</time>
      </trkpt>
      <trkpt lat="43.40696" lon="2.2565">
        <ele>722.9</ele>
        <time>2019-08-11T07:01:46.000Z</time>
      </trkpt>
      <trkpt lat="43.40695" lon="2.25649">
        <ele>722.9</ele>
        <time>2019-08-11T07:01:47.000Z</time>
      </trkpt>
      <trkpt lat="43.40694" lon="2.25649">
        <ele>722.9</ele>
        <time>2019-08-11T07:01:48.000Z</time>
      </trkpt>
      <trkpt lat="43.40693" lon="2.25649">
        <ele>722.9</ele>
        <time>2019-08-11T07:01:49.000Z</time>
      </trkpt>
      <trkpt lat="43.40692" lon="2.25649">
        <ele>722.9</ele>
        <time>2019-08-11T07:01:50.000Z</time>
      </trkpt>
      <trkpt lat="43.40691" lon="2.25648">
        <ele>722.9</ele>
        <time>2019-08-11T07:01:51.000Z</time>
      </trkpt>
      <trkpt lat="43.4069" lon="2.25648">
        <ele>722.9</ele>
        <time>2019-08-11T07:01:52.000Z</time>
      </trkpt>
      <trkpt lat="43.40688" lon="2.25647">
        <ele>722.9</ele>
        <time>2019-08-11T07:01:53.000Z</time>
      </trkpt>
      <trkpt lat="43.40687" lon="2.25647">
        <ele>722.9</ele>
        <time>2019-08-11T07:01:54.000Z</time>
      </trkpt>
      <trkpt lat="43.40686" lon="2.25647">
        <ele>722.9</ele>
        <time>2019-08-11T07:01:55.000Z</time>
      </trkpt>
      <trkpt lat="43.40684" lon="2.25646">
        <ele>722.9</ele>
        <time>2019-08-11T07:01:56.000Z</time>
      </trkpt>
      <trkpt lat="43.40683" lon="2.25645">
        <ele>722.9</ele>
        <time>2019-08-11T07:01:57.000Z</time>
      </trkpt>
      <trkpt lat="43.40682" lon="2.25645">
        <ele>722.9</ele>
        <time>2019-08-11T07:01:58.000Z</time>
      </trkpt>
      <trkpt lat="43.4068" lon="2.25644">
        <ele>723</ele>
        <time>2019-08-11T07:01:59.000Z</time>
      </trkpt>
      <trkpt lat="43.40679" lon="2.25643">
        <ele>723</ele>
        <time>2019-08-11T07:02:00.000Z</time>
      </trkpt>
      <trkpt lat="43.40677" lon="2.25643">
        <ele>723</ele>
        <time>2019-08-11T07:02:01.000Z</time>
      </trkpt>
      <trkpt lat="43.40676" lon="2.25642">
        <ele>723</ele>
        <time>2019-08-11T07:02:02.000Z</time>
      </trkpt>
      <trkpt lat="43.40674" lon="2.25641">
        <ele>723</ele>
        <time>2019-08-11T07:02:03.000Z</time>
      </trkpt>
      <trkpt lat="43.40673" lon="2.2564">
        <ele>723.1</ele>
        <time>2019-08-11T07:02:04.000Z</time>
      </trkpt>
      <trkpt lat="43.40672" lon="2.2564">
        <ele>723.1</ele>
        <time>2019-08-11T07:02:05.000Z</time>
      </trkpt>
      <trkpt lat="43.4067" lon="2.25639">
        <ele>723.1</ele>
        <time>2019-08-11T07:02:06.000Z</time>
      </trkpt>
      <trkpt lat="43.40669" lon="2.25638">
        <ele>723.1</ele>
        <time>2019-08-11T07:02:07.000Z</time>
      </trkpt>
      <trkpt lat="43.40668" lon="2.25638">
        <ele>723.1</ele>
        <time>2019-08-11T07:02:08.000Z</time>
      </trkpt>
      <trkpt lat="43.40666" lon="2.25637">
        <ele>723.1</ele>
        <time>2019-08-11T07:02:09.000Z</time>
      </trkpt>
      <trkpt lat="43.40665" lon="2.25636">
        <ele>723</ele>
        <time>2019-08-11T07:02:10.000Z</time>
      </trkpt>
      <trkpt lat="43.40664" lon="2.25636">
        <ele>722.9</ele>
        <time>2019-08-11T07:02:11.000Z</time>
      </trkpt>
      <trkpt lat="43.40662" lon="2.25635">
        <ele>722.8</ele>
        <time>2019-08-11T07:02:12.000Z</time>
      </trkpt>
      <trkpt lat="43.40661" lon="2.25634">
        <ele>722.8</ele>
        <time>2019-08-11T07:02:13.000Z</time>
      </trkpt>
      <trkpt lat="43.4066" lon="2.25633">
        <ele>722.7</ele>
        <time>2019-08-11T07:02:14.000Z</time>
      </trkpt>
      <trkpt lat="43.40658" lon="2.25633">
        <ele>722.6</ele>
        <time>2019-08-11T07:02:15.000Z</time>
      </trkpt>
      <trkpt lat="43.40657" lon="2.25632">
        <ele>722.5</ele>
        <time>2019-08-11T07:02:16.000Z</time>
      </trkpt>
      <trkpt lat="43.40656" lon="2.25631">
        <ele>722.4</ele>
        <time>2019-08-11T07:02:17.000Z</time>
      </trkpt>
      <trkpt lat="43.40655" lon="2.2563">
        <ele>722.3</ele>
        <time>2019-08-11T07:02:18.000Z</time>
      </trkpt>
      <trkpt lat="43.40653" lon="2.25629">
        <ele>722.2</ele>
        <time>2019-08-11T07:02:19.000Z</time>
      </trkpt>
      <trkpt lat="43.40652" lon="2.25628">
        <ele>722.2</ele>
        <time>2019-08-11T07:02:20.000Z</time>
      </trkpt>
      <trkpt lat="43.40651" lon="2.25627">
        <ele>722.1</ele>
        <time>2019-08-11T07:02:21.000Z</time>
      </trkpt>
      <trkpt lat="43.4065" lon="2.25626">
        <ele>722</ele>
        <time>2019-08-11T07:02:22.000Z</time>
      </trkpt>
      <trkpt lat="43.40648" lon="2.25625">
        <ele>721.9</ele>
        <time>2019-08-11T07:02:23.000Z</time>
      </trkpt>
      <trkpt lat="43.40647" lon="2.25624">
        <ele>721.8</ele>
        <time>2019-08-11T07:02:24.000Z</time>
      </trkpt>
      <trkpt lat="43.40645" lon="2.25622">
        <ele>721.7</ele>
        <time>2019-08-11T07:02:25.000Z</time>
      </trkpt>
      <trkpt lat="43.40644" lon="2.25621">
        <ele>721.6</ele>
        <time>2019-08-11T07:02:26.000Z</time>
      </trkpt>
      <trkpt lat="43.40642" lon="2.25619">
        <ele>721.5</ele>
        <time>2019-08-11T07:02:27.000Z</time>
      </trkpt>
      <trkpt lat="43.4064" lon="2.25616">
        <ele>721.3</ele>
        <time>2019-08-11T07:02:28.000Z</time>
      </trkpt>
      <trkpt lat="43.40638" lon="2.25614">
        <ele>721.2</ele>
        <time>2019-08-11T07:02:29.000Z</time>
      </trkpt>
      <trkpt lat="43.40636" lon="2.25611">
        <ele>721</ele>
        <time>2019-08-11T07:02:30.000Z</time>
      </trkpt>
      <trkpt lat="43.40634" lon="2.25609">
        <ele>720.8</ele>
        <time>2019-08-11T07:02:31.000Z</time>
      </trkpt>
      <trkpt lat="43.40632" lon="2.25606">
        <ele>720.6</ele>
        <time>2019-08-11T07:02:32.000Z</time>
      </trkpt>
      <trkpt lat="43.4063" lon="2.25603">
        <ele>720.4</ele>
        <time>2019-08-11T07:02:33.000Z</time>
      </trkpt>
      <trkpt lat="43.40629" lon="2.256">
        <ele>720.2</ele>
        <time>2019-08-11T07:02:34.000Z</time>
      </trkpt>
      <trkpt lat="43.40627" lon="2.25597">
        <ele>720</ele>
        <time>2019-08-11T07:02:35.000Z</time>
      </trkpt>
      <trkpt lat="43.40625" lon="2.25594">
        <ele>719.8</ele>
        <time>2019-08-11T07:02:36.000Z</time>
      </trkpt>
      <trkpt lat="43.40624" lon="2.25591">
        <ele>719.7</ele>
        <time>2019-08-11T07:02:37.000Z</time>
      </trkpt>
      <trkpt lat="43.40623" lon="2.25588">
        <ele>719.5</ele>
        <time>2019-08-11T07:02:38.000Z</time>
      </trkpt>
      <trkpt lat="43.40622" lon="2.25586">
        <ele>719.4</ele>
        <time>2019-08-11T07:02:39.000Z</time>
      </trkpt>
      <trkpt lat="43.40621" lon="2.25583">
        <ele>719.3</ele>
        <time>2019-08-11T07:02:40.000Z</time>
      </trkpt>
      <trkpt lat="43.4062" lon="2.2558">
        <ele>719.4</ele>
        <time>2019-08-11T07:02:41.000Z</time>
      </trkpt>
      <trkpt lat="43.40619" lon="2.25578">
        <ele>719.5</ele>
        <time>2019-08-11T07:02:42.000Z</time>
      </trkpt>
      <trkpt lat="43.40619" lon="2.25575">
        <ele>719.7</ele>
        <time>2019-08-11T07:02:43.000Z</time>
      </trkpt>
      <trkpt lat="43.40618" lon="2.25572">
        <ele>719.8</ele>
        <time>2019-08-11T07:02:44.000Z</time>
      </trkpt>
      <trkpt lat="43.40618" lon="2.2557">
        <ele>720</ele>
        <time>2019-08-11T07:02:45.000Z</time>
      </trkpt>
      <trkpt lat="43.40617" lon="2.25567">
        <ele>720.2</ele>
        <time>2019-08-11T07:02:46.000Z</time>
      </trkpt>
      <trkpt lat="43.40617" lon="2.25565">
        <ele>720.4</ele>
        <time>2019-08-11T07:02:47.000Z</time>
      </trkpt>
      <trkpt lat="43.40617" lon="2.25562">
        <ele>720.6</ele>
        <time>2019-08-11T07:02:48.000Z</time>
      </trkpt>
      <trkpt lat="43.40617" lon="2.2556">
        <ele>720.8</ele>
        <time>2019-08-11T07:02:49.000Z</time>
      </trkpt>
      <trkpt lat="43.40618" lon="2.25558">
        <ele>721</ele>
        <time>2019-08-11T07:02:50.000Z</time>
      </trkpt>
      <trkpt lat="43.40618" lon="2.25557">
        <ele>721.2</ele>
        <time>2019-08-11T07:02:51.000Z</time>
      </trkpt>
      <trkpt lat="43.40619" lon="2.25555">
        <ele>721.5</ele>
        <time>2019-08-11T07:02:52.000Z</time>
      </trkpt>
      <trkpt lat="43.4062" lon="2.25554">
        <ele>721.7</ele>
        <time>2019-08-11T07:02:53.000Z</time>
      </trkpt>
      <trkpt lat="43.40621" lon="2.25553">
        <ele>722</ele>
        <time>2019-08-11T07:02:54.000Z</time>
      </trkpt>
      <trkpt lat="43.40622" lon="2.25552">
        <ele>722.2</ele>
        <time>2019-08-11T07:02:55.000Z</time>
      </trkpt>
      <trkpt lat="43.40622" lon="2.25551">
        <ele>722.5</ele>
        <time>2019-08-11T07:02:56.000Z</time>
      </trkpt>
      <trkpt lat="43.40623" lon="2.2555">
        <ele>722.7</ele>
        <time>2019-08-11T07:02:57.000Z</time>
      </trkpt>
      <trkpt lat="43.40624" lon="2.25549">
        <ele>722.9</ele>
        <time>2019-08-11T07:02:58.000Z</time>
      </trkpt>
      <trkpt lat="43.40625" lon="2.25549">
        <ele>723.1</ele>
        <time>2019-08-11T07:02:59.000Z</time>
      </trkpt>
      <trkpt lat="43.40626" lon="2.25548">
        <ele>723.4</ele>
        <time>2019-08-11T07:03:00.000Z</time>
      </trkpt>
      <trkpt lat="43.40627" lon="2.25548">
        <ele>723.6</ele>
        <time>2019-08-11T07:03:01.000Z</time>
      </trkpt>
      <trkpt lat="43.40628" lon="2.25548">
        <ele>723.7</ele>
        <time>2019-08-11T07:03:02.000Z</time>
      </trkpt>
      <trkpt lat="43.40629" lon="2.25548">
        <ele>723.9</ele>
        <time>2019-08-11T07:03:03.000Z</time>
      </trkpt>
      <trkpt lat="43.4063" lon="2.25548">
        <ele>724.1</ele>
        <time>2019-08-11T07:03:04.000Z</time>
      </trkpt>
      <trkpt lat="43.40631" lon="2.25548">
        <ele>724.2</ele>
        <time>2019-08-11T07:03:05.000Z</time>
      </trkpt>
      <trkpt lat="43.40631" lon="2.25547">
        <ele>724.3</ele>
        <time>2019-08-11T07:03:06.000Z</time>
      </trkpt>
      <trkpt lat="43.40632" lon="2.25547">
        <ele>724.4</ele>
        <time>2019-08-11T07:03:07.000Z</time>
      </trkpt>
      <trkpt lat="43.40632" lon="2.25547">
        <ele>724.5</ele>
        <time>2019-08-11T07:03:08.000Z</time>
      </trkpt>
      <trkpt lat="43.40633" lon="2.25547">
        <ele>724.6</ele>
        <time>2019-08-11T07:03:09.000Z</time>
      </trkpt>
      <trkpt lat="43.40633" lon="2.25547">
        <ele>724.7</ele>
        <time>2019-08-11T07:03:10.000Z</time>
      </trkpt>
      <trkpt lat="43.40634" lon="2.25547">
        <ele>724.7</ele>
        <time>2019-08-11T07:03:11.000Z</time>
      </trkpt>
      <trkpt lat="43.40634" lon="2.25547">
        <ele>724.8</ele>
        <time>2019-08-11T07:03:12.000Z</time>
      </trkpt>
      <trkpt lat="43.40634" lon="2.25547">
        <ele>724.8</ele>
        <time>2019-08-11T07:03:13.000Z</time>
      </trkpt>
      <trkpt lat="43.40634" lon="2.25547">
        <ele>724.8</ele>
        <time>2019-08-11T07:03:14.000Z</time>
      </trkpt>
      <trkpt lat="43.40634" lon="2.25547">
        <ele>724.9</ele>
        <time>2019-08-11T07:03:15.000Z</time>
      </trkpt>
      <trkpt lat="43.40634" lon="2.25547">
        <ele>724.8</ele>
        <time>2019-08-11T07:03:16.000Z</time>
      </trkpt>
      <trkpt lat="43.40634" lon="2.25547">
        <ele>724.8</ele>
        <time>2019-08-11T07:03:17.000Z</time>
      </trkpt>
      <trkpt lat="43.40634" lon="2.25547">
        <ele>724.8</ele>
        <time>2019-08-11T07:03:18.000Z</time>
      </trkpt>
      <trkpt lat="43.40634" lon="2.25547">
        <ele>724.8</ele>
        <time>2019-08-11T07:03:19.000Z</time>
      </trkpt>
      <trkpt lat="43.40634" lon="2.25547">
        <ele>724.8</ele>
        <time>2019-08-11T07:03:20.000Z</time>
      </trkpt>
      <trkpt lat="43.40634" lon="2.25548">
        <ele>724.9</ele>
        <time>2019-08-11T07:03:21.000Z</time>
      </trkpt>
      <trkpt lat="43.40634" lon="2.25547">
        <ele>724.8</ele>
        <time>2019-08-11T07:03:22.000Z</time>
      </trkpt>
      <trkpt lat="43.40633" lon="2.25547">
        <ele>724.8</ele>
        <time>2019-08-11T07:03:23.000Z</time>
      </trkpt>
      <trkpt lat="43.40633" lon="2.25546">
        <ele>724.7</ele>
        <time>2019-08-11T07:03:24.000Z</time>
      </trkpt>
      <trkpt lat="43.40632" lon="2.25545">
        <ele>724.7</ele>
        <time>2019-08-11T07:03:25.000Z</time>
      </trkpt>
      <trkpt lat="43.40632" lon="2.25545">
        <ele>724.7</ele>
        <time>2019-08-11T07:03:26.000Z</time>
      </trkpt>
      <trkpt lat="43.40632" lon="2.25544">
        <ele>724.7</ele>
        <time>2019-08-11T07:03:27.000Z</time>
      </trkpt>
      <trkpt lat="43.40632" lon="2.25544">
        <ele>724.8</ele>
        <time>2019-08-11T07:03:28.000Z</time>
      </trkpt>
      <trkpt lat="43.40632" lon="2.25544">
        <ele>724.8</ele>
        <time>2019-08-11T07:03:29.000Z</time>
      </trkpt>
      <trkpt lat="43.40632" lon="2.25544">
        <ele>724.8</ele>
        <time>2019-08-11T07:03:30.000Z</time>
      </trkpt>
      <trkpt lat="43.40633" lon="2.25544">
        <ele>724.9</ele>
        <time>2019-08-11T07:03:31.000Z</time>
      </trkpt>
      <trkpt lat="43.40633" lon="2.25544">
        <ele>724.9</ele>
        <time>2019-08-11T07:03:32.000Z</time>
      </trkpt>
      <trkpt lat="43.40633" lon="2.25544">
        <ele>724.9</ele>
        <time>2019-08-11T07:03:33.000Z</time>
      </trkpt>
      <trkpt lat="43.40633" lon="2.25544">
        <ele>724.9</ele>
        <time>2019-08-11T07:03:34.000Z</time>
      </trkpt>
      <trkpt lat="43.40633" lon="2.25544">
        <ele>724.9</ele>
        <time>2019-08-11T07:03:35.000Z</time>
      </trkpt>
      <trkpt lat="43.40633" lon="2.25544">
        <ele>725</ele>
        <time>2019-08-11T07:03:36.000Z</time>
      </trkpt>
      <trkpt lat="43.40633" lon="2.25544">
        <ele>725</ele>
        <time>2019-08-11T07:03:37.000Z</time>
      </trkpt>
      <trkpt lat="43.40633" lon="2.25544">
        <ele>725</ele>
        <time>2019-08-11T07:03:38.000Z</time>
      </trkpt>
      <trkpt lat="43.40633" lon="2.25544">
        <ele>725</ele>
        <time>2019-08-11T07:03:39.000Z</time>
      </trkpt>
      <trkpt lat="43.40633" lon="2.25544">
        <ele>725</ele>
        <time>2019-08-11T07:03:40.000Z</time>
      </trkpt>
      <trkpt lat="43.40633" lon="2.25544">
        <ele>725</ele>
        <time>2019-08-11T07:03:41.000Z</time>
      </trkpt>
      <trkpt lat="43.40633" lon="2.25544">
        <ele>724.9</ele>
        <time>2019-08-11T07:03:42.000Z</time>
      </trkpt>
      <trkpt lat="43.40633" lon="2.25544">
        <ele>724.9</ele>
        <time>2019-08-11T07:03:43.000Z</time>
      </trkpt>
      <trkpt lat="43.40633" lon="2.25544">
        <ele>724.9</ele>
        <time>2019-08-11T07:03:44.000Z</time>
      </trkpt>
      <trkpt lat="43.40633" lon="2.25544">
        <ele>724.9</ele>
        <time>2019-08-11T07:03:45.000Z</time>
      </trkpt>
      <trkpt lat="43.40633" lon="2.25544">
        <ele>724.9</ele>
        <time>2019-08-11T07:03:46.000Z</time>
      </trkpt>
      <trkpt lat="43.40633" lon="2.25544">
        <ele>724.9</ele>
        <time>2019-08-11T07:03:47.000Z</time>
      </trkpt>
      <trkpt lat="43.40633" lon="2.25544">
        <ele>724.9</ele>
        <time>2019-08-11T07:03:48.000Z</time>
      </trkpt>
      <trkpt lat="43.40633" lon="2.25544">
        <ele>724.9</ele>
        <time>2019-08-11T07:03:49.000Z</time>
      </trkpt>
      <trkpt lat="43.40633" lon="2.25544">
        <ele>724.9</ele>
        <time>2019-08-11T07:03:50.000Z</time>
      </trkpt>
      <trkpt lat="43.40633" lon="2.25544">
        <ele>724.9</ele>
        <time>2019-08-11T07:03:51.000Z</time>
      </trkpt>
      <trkpt lat="43.40633" lon="2.25544">
        <ele>724.9</ele>
        <time>2019-08-11T07:03:52.000Z</time>
      </trkpt>
      <trkpt lat="43.40633" lon="2.25544">
        <ele>724.9</ele>
        <time>2019-08-11T07:03:53.000Z</time>
      </trkpt>
      <trkpt lat="43.40633" lon="2.25544">
        <ele>724.9</ele>
        <time>2019-08-11T07:03:54.000Z</time>
      </trkpt>
      <trkpt lat="43.40633" lon="2.25544">
        <ele>725</ele>
        <time>2019-08-11T07:03:55.000Z</time>
      </trkpt>
      <trkpt lat="43.40633" lon="2.25544">
        <ele>725</ele>
        <time>2019-08-11T07:03:56.000Z</time>
      </trkpt>
      <trkpt lat="43.40633" lon="2.25544">
        <ele>725</ele>
        <time>2019-08-11T07:03:57.000Z</time>
      </trkpt>
      <trkpt lat="43.40633" lon="2.25544">
        <ele>725</ele>
        <time>2019-08-11T07:03:58.000Z</time>
      </trkpt>
      <trkpt lat="43.40633" lon="2.25544">
        <ele>725</ele>
        <time>2019-08-11T07:03:59.000Z</time>
      </trkpt>
      <trkpt lat="43.40633" lon="2.25544">
        <ele>725</ele>
        <time>2019-08-11T07:04:00.000Z</time>
      </trkpt>
      <trkpt lat="43.40633" lon="2.25544">
        <ele>725</ele>
        <time>2019-08-11T07:04:01.000Z</time>
      </trkpt>
      <trkpt lat="43.40633" lon="2.25544">
        <ele>725</ele>
        <time>2019-08-11T07:04:02.000Z</time>
      </trkpt>
      <trkpt lat="43.40633" lon="2.25544">
        <ele>725</ele>
        <time>2019-08-11T07:04:03.000Z</time>
      </trkpt>
      <trkpt lat="43.40633" lon="2.25544">
        <ele>725</ele>
        <time>2019-08-11T07:04:04.000Z</time>
      </trkpt>
      <trkpt lat="43.40633" lon="2.25544">
        <ele>725</ele>
        <time>2019-08-11T07:04:05.000Z</time>
      </trkpt>
      <trkpt lat="43.40633" lon="2.25544">
        <ele>725</ele>
        <time>2019-08-11T07:04:06.000Z</time>
      </trkpt>
      <trkpt lat="43.40633" lon="2.25544">
        <ele>725</ele>
        <time>2019-08-11T07:04:07.000Z</time>
      </trkpt>
      <trkpt lat="43.40633" lon="2.25544">
        <ele>725</ele>
        <time>2019-08-11T07:04:08.000Z</time>
      </trkpt>
      <trkpt lat="43.40633" lon="2.25544">
        <ele>725</ele>
        <time>2019-08-11T07:04:09.000Z</time>
      </trkpt>
      <trkpt lat="43.40633" lon="2.25544">
        <ele>725</ele>
        <time>2019-08-11T07:04:10.000Z</time>
      </trkpt>
      <trkpt lat="43.40633" lon="2.25544">
        <ele>724.9</ele>
        <time>2019-08-11T07:04:11.000Z</time>
      </trkpt>
      <trkpt lat="43.40633" lon="2.25544">
        <ele>724.9</ele>
        <time>2019-08-11T07:04:12.000Z</time>
      </trkpt>
      <trkpt lat="43.40633" lon="2.25544">
        <ele>724.9</ele>
        <time>2019-08-11T07:04:13.000Z</time>
      </trkpt>
      <trkpt lat="43.40633" lon="2.25544">
        <ele>724.9</ele>
        <time>2019-08-11T07:04:14.000Z</time>
      </trkpt>
      <trkpt lat="43.40633" lon="2.25544">
        <ele>724.9</ele>
        <time>2019-08-11T07:04:15.000Z</time>
      </trkpt>
      <trkpt lat="43.40633" lon="2.25544">
        <ele>724.9</ele>
        <time>2019-08-11T07:04:16.000Z</time>
      </trkpt>
      <trkpt lat="43.40633" lon="2.25544">
        <ele>724.9</ele>
        <time>2019-08-11T07:04:17.000Z</time>
      </trkpt>
      <trkpt lat="43.40633" lon="2.25544">
        <ele>724.9</ele>
        <time>2019-08-11T07:04:18.000Z</time>
      </trkpt>
      <trkpt lat="43.40633" lon="2.25544">
        <ele>724.9</ele>
        <time>2019-08-11T07:04:19.000Z</time>
      </trkpt>
      <trkpt lat="43.40633" lon="2.25544">
        <ele>724.9</ele>
        <time>2019-08-11T07:04:20.000Z</time>
      </trkpt>
      <trkpt lat="43.40633" lon="2.25544">
        <ele>724.9</ele>
        <time>2019-08-11T07:04:21.000Z</time>
      </trkpt>
      <trkpt lat="43.40633" lon="2.25544">
        <ele>724.9</ele>
        <time>2019-08-11T07:04:22.000Z</time>
      </trkpt>
      <trkpt lat="43.40633" lon="2.25544">
        <ele>725</ele>
        <time>2019-08-11T07:04:23.000Z</time>
      </trkpt>
      <trkpt lat="43.40633" lon="2.25544">
        <ele>724.9</ele>
        <time>2019-08-11T07:04:24.000Z</time>
      </trkpt>
      <trkpt lat="43.40633" lon="2.25544">
        <ele>724.9</ele>
        <time>2019-08-11T07:04:25.000Z</time>
      </trkpt>
      <trkpt lat="43.40633" lon="2.25544">
        <ele>724.9</ele>
        <time>2019-08-11T07:04:26.000Z</time>
      </trkpt>
      <trkpt lat="43.40633" lon="2.25545">
        <ele>724.8</ele>
        <time>2019-08-11T07:04:27.000Z</time>
      </trkpt>
      <trkpt lat="43.40632" lon="2.25549">
        <ele>724.4</ele>
        <time>2019-08-11T07:04:28.000Z</time>
      </trkpt>
      <trkpt lat="43.40632" lon="2.25554">
        <ele>723.8</ele>
        <time>2019-08-11T07:04:29.000Z</time>
      </trkpt>
      <trkpt lat="43.40631" lon="2.25557">
        <ele>723.5</ele>
        <time>2019-08-11T07:04:30.000Z</time>
      </trkpt>
      <trkpt lat="43.40631" lon="2.25558">
        <ele>723.4</ele>
        <time>2019-08-11T07:04:31.000Z</time>
      </trkpt>
      <trkpt lat="43.40631" lon="2.25558">
        <ele>723.3</ele>
        <time>2019-08-11T07:04:32.000Z</time>
      </trkpt>
      <trkpt lat="43.40631" lon="2.25558">
        <ele>723.3</ele>
        <time>2019-08-11T07:04:33.000Z</time>
      </trkpt>
      <trkpt lat="43.40631" lon="2.25558">
        <ele>723.3</ele>
        <time>2019-08-11T07:04:34.000Z</time>
      </trkpt>
      <trkpt lat="43.40631" lon="2.25558">
        <ele>723.3</ele>
        <time>2019-08-11T07:04:35.000Z</time>
      </trkpt>
      <trkpt lat="43.40631" lon="2.25558">
        <ele>723.3</ele>
        <time>2019-08-11T07:04:36.000Z</time>
      </trkpt>
      <trkpt lat="43.40631" lon="2.25558">
        <ele>723.3</ele>
        <time>2019-08-11T07:04:37.000Z</time>
      </trkpt>
      <trkpt lat="43.40631" lon="2.25558">
        <ele>723.3</ele>
        <time>2019-08-11T07:04:38.000Z</time>
      </trkpt>
      <trkpt lat="43.40631" lon="2.25558">
        <ele>723.3</ele>
        <time>2019-08-11T07:04:39.000Z</time>
      </trkpt>
      <trkpt lat="43.40631" lon="2.25558">
        <ele>723.3</ele>
        <time>2019-08-11T07:04:40.000Z</time>
      </trkpt>
      <trkpt lat="43.40631" lon="2.25558">
        <ele>723.3</ele>
        <time>2019-08-11T07:04:41.000Z</time>
      </trkpt>
      <trkpt lat="43.40631" lon="2.25558">
        <ele>723.3</ele>
        <time>2019-08-11T07:04:42.000Z</time>
      </trkpt>
      <trkpt lat="43.40631" lon="2.25558">
        <ele>723.3</ele>
        <time>2019-08-11T07:04:43.000Z</time>
      </trkpt>
      <trkpt lat="43.40631" lon="2.25558">
        <ele>723.3</ele>
        <time>2019-08-11T07:04:44.000Z</time>
      </trkpt>
      <trkpt lat="43.40631" lon="2.25558">
        <ele>723.3</ele>
        <time>2019-08-11T07:04:45.000Z</time>
      </trkpt>
      <trkpt lat="43.40631" lon="2.25558">
        <ele>723.3</ele>
        <time>2019-08-11T07:04:46.000Z</time>
      </trkpt>
      <trkpt lat="43.40631" lon="2.25558">
        <ele>723.3</ele>
        <time>2019-08-11T07:04:47.000Z</time>
      </trkpt>
      <trkpt lat="43.40631" lon="2.25558">
        <ele>723.3</ele>
        <time>2019-08-11T07:04:48.000Z</time>
      </trkpt>
      <trkpt lat="43.40631" lon="2.25558">
        <ele>723.3</ele>
        <time>2019-08-11T07:04:49.000Z</time>
      </trkpt>
      <trkpt lat="43.40631" lon="2.25558">
        <ele>723.3</ele>
        <time>2019-08-11T07:04:50.000Z</time>
      </trkpt>
      <trkpt lat="43.40631" lon="2.25558">
        <ele>723.3</ele>
        <time>2019-08-11T07:04:51.000Z</time>
      </trkpt>
      <trkpt lat="43.40631" lon="2.25558">
        <ele>723.4</ele>
        <time>2019-08-11T07:04:52.000Z</time>
      </trkpt>
      <trkpt lat="43.40632" lon="2.25558">
        <ele>723.4</ele>
        <time>2019-08-11T07:04:53.000Z</time>
      </trkpt>
      <trkpt lat="43.40632" lon="2.25559">
        <ele>723.4</ele>
        <time>2019-08-11T07:04:54.000Z</time>
      </trkpt>
      <trkpt lat="43.40633" lon="2.25559">
        <ele>723.5</ele>
        <time>2019-08-11T07:04:55.000Z</time>
      </trkpt>
      <trkpt lat="43.40633" lon="2.25559">
        <ele>723.5</ele>
        <time>2019-08-11T07:04:56.000Z</time>
      </trkpt>
      <trkpt lat="43.40633" lon="2.25559">
        <ele>723.5</ele>
        <time>2019-08-11T07:04:57.000Z</time>
      </trkpt>
      <trkpt lat="43.40633" lon="2.25559">
        <ele>723.5</ele>
        <time>2019-08-11T07:04:58.000Z</time>
      </trkpt>
      <trkpt lat="43.40633" lon="2.25559">
        <ele>723.5</ele>
        <time>2019-08-11T07:04:59.000Z</time>
      </trkpt>
      <trkpt lat="43.40633" lon="2.25559">
        <ele>723.5</ele>
        <time>2019-08-11T07:05:00.000Z</time>
      </trkpt>
      <trkpt lat="43.40633" lon="2.25559">
        <ele>723.5</ele>
        <time>2019-08-11T07:05:01.000Z</time>
      </trkpt>
      <trkpt lat="43.40633" lon="2.25559">
        <ele>723.5</ele>
        <time>2019-08-11T07:05:02.000Z</time>
      </trkpt>
      <trkpt lat="43.40633" lon="2.25559">
        <ele>723.5</ele>
        <time>2019-08-11T07:05:03.000Z</time>
      </trkpt>
      <trkpt lat="43.40633" lon="2.25559">
        <ele>723.5</ele>
        <time>2019-08-11T07:05:04.000Z</time>
      </trkpt>
      <trkpt lat="43.40633" lon="2.25559">
        <ele>723.5</ele>
        <time>2019-08-11T07:05:05.000Z</time>
      </trkpt>
      <trkpt lat="43.40633" lon="2.25559">
        <ele>723.5</ele>
        <time>2019-08-11T07:05:06.000Z</time>
      </trkpt>
      <trkpt lat="43.40633" lon="2.25559">
        <ele>723.5</ele>
        <time>2019-08-11T07:05:07.000Z</time>
      </trkpt>
      <trkpt lat="43.40632" lon="2.2556">
        <ele>723.4</ele>
        <time>2019-08-11T07:05:08.000Z</time>
      </trkpt>
      <trkpt lat="43.40632" lon="2.2556">
        <ele>723.3</ele>
        <time>2019-08-11T07:05:09.000Z</time>
      </trkpt>
      <trkpt lat="43.40631" lon="2.2556">
        <ele>723.2</ele>
        <time>2019-08-11T07:05:10.000Z</time>
      </trkpt>
      <trkpt lat="43.40631" lon="2.2556">
        <ele>723.1</ele>
        <time>2019-08-11T07:05:11.000Z</time>
      </trkpt>
      <trkpt lat="43.4063" lon="2.2556">
        <ele>723</ele>
        <time>2019-08-11T07:05:12.000Z</time>
      </trkpt>
      <trkpt lat="43.4063" lon="2.2556">
        <ele>723</ele>
        <time>2019-08-11T07:05:13.000Z</time>
      </trkpt>
      <trkpt lat="43.4063" lon="2.2556">
        <ele>722.9</ele>
        <time>2019-08-11T07:05:14.000Z</time>
      </trkpt>
      <trkpt lat="43.40629" lon="2.2556">
        <ele>722.8</ele>
        <time>2019-08-11T07:05:15.000Z</time>
      </trkpt>
      <trkpt lat="43.40629" lon="2.2556">
        <ele>722.7</ele>
        <time>2019-08-11T07:05:16.000Z</time>
      </trkpt>
      <trkpt lat="43.40628" lon="2.25561">
        <ele>722.6</ele>
        <time>2019-08-11T07:05:17.000Z</time>
      </trkpt>
      <trkpt lat="43.40628" lon="2.25561">
        <ele>722.5</ele>
        <time>2019-08-11T07:05:18.000Z</time>
      </trkpt>
      <trkpt lat="43.40627" lon="2.25561">
        <ele>722.4</ele>
        <time>2019-08-11T07:05:19.000Z</time>
      </trkpt>
      <trkpt lat="43.40626" lon="2.25561">
        <ele>722.3</ele>
        <time>2019-08-11T07:05:20.000Z</time>
      </trkpt>
      <trkpt lat="43.40626" lon="2.25561">
        <ele>722.1</ele>
        <time>2019-08-11T07:05:21.000Z</time>
      </trkpt>
      <trkpt lat="43.40625" lon="2.25561">
        <ele>722</ele>
        <time>2019-08-11T07:05:22.000Z</time>
      </trkpt>
      <trkpt lat="43.40624" lon="2.25561">
        <ele>721.8</ele>
        <time>2019-08-11T07:05:23.000Z</time>
      </trkpt>
      <trkpt lat="43.40623" lon="2.25561">
        <ele>721.7</ele>
        <time>2019-08-11T07:05:24.000Z</time>
      </trkpt>
      <trkpt lat="43.40622" lon="2.25562">
        <ele>721.5</ele>
        <time>2019-08-11T07:05:25.000Z</time>
      </trkpt>
      <trkpt lat="43.40622" lon="2.25562">
        <ele>721.3</ele>
        <time>2019-08-11T07:05:26.000Z</time>
      </trkpt>
      <trkpt lat="43.4062" lon="2.25563">
        <ele>721.1</ele>
        <time>2019-08-11T07:05:27.000Z</time>
      </trkpt>
      <trkpt lat="43.40619" lon="2.25564">
        <ele>720.8</ele>
        <time>2019-08-11T07:05:28.000Z</time>
      </trkpt>
      <trkpt lat="43.40618" lon="2.25564">
        <ele>720.5</ele>
        <time>2019-08-11T07:05:29.000Z</time>
      </trkpt>
      <trkpt lat="43.40616" lon="2.25565">
        <ele>720.2</ele>
        <time>2019-08-11T07:05:30.000Z</time>
      </trkpt>
      <trkpt lat="43.40614" lon="2.25565">
        <ele>719.8</ele>
        <time>2019-08-11T07:05:31.000Z</time>
      </trkpt>
      <trkpt lat="43.40612" lon="2.25564">
        <ele>719.5</ele>
        <time>2019-08-11T07:05:32.000Z</time>
      </trkpt>
      <trkpt lat="43.4061" lon="2.25563">
        <ele>719.3</ele>
        <time>2019-08-11T07:05:33.000Z</time>
      </trkpt>
      <trkpt lat="43.40608" lon="2.25561">
        <ele>719</ele>
        <time>2019-08-11T07:05:34.000Z</time>
      </trkpt>
      <trkpt lat="43.40605" lon="2.2556">
        <ele>718.8</ele>
        <time>2019-08-11T07:05:35.000Z</time>
      </trkpt>
      <trkpt lat="43.40603" lon="2.25557">
        <ele>718.6</ele>
        <time>2019-08-11T07:05:36.000Z</time>
      </trkpt>
      <trkpt lat="43.40601" lon="2.25555">
        <ele>718.4</ele>
        <time>2019-08-11T07:05:37.000Z</time>
      </trkpt>
      <trkpt lat="43.40599" lon="2.25552">
        <ele>718.3</ele>
        <time>2019-08-11T07:05:38.000Z</time>
      </trkpt>
      <trkpt lat="43.40597" lon="2.2555">
        <ele>718.1</ele>
        <time>2019-08-11T07:05:39.000Z</time>
      </trkpt>
      <trkpt lat="43.40595" lon="2.25548">
        <ele>718</ele>
        <time>2019-08-11T07:05:40.000Z</time>
      </trkpt>
      <trkpt lat="43.40593" lon="2.25545">
        <ele>717.9</ele>
        <time>2019-08-11T07:05:41.000Z</time>
      </trkpt>
      <trkpt lat="43.40592" lon="2.25543">
        <ele>717.9</ele>
        <time>2019-08-11T07:05:42.000Z</time>
      </trkpt>
      <trkpt lat="43.4059" lon="2.25541">
        <ele>717.8</ele>
        <time>2019-08-11T07:05:43.000Z</time>
      </trkpt>
      <trkpt lat="43.40589" lon="2.25538">
        <ele>717.7</ele>
        <time>2019-08-11T07:05:44.000Z</time>
      </trkpt>
      <trkpt lat="43.40587" lon="2.25536">
        <ele>717.6</ele>
        <time>2019-08-11T07:05:45.000Z</time>
      </trkpt>
      <trkpt lat="43.40586" lon="2.25534">
        <ele>717.6</ele>
        <time>2019-08-11T07:05:46.000Z</time>
      </trkpt>
      <trkpt lat="43.40584" lon="2.25532">
        <ele>717.5</ele>
        <time>2019-08-11T07:05:47.000Z</time>
      </trkpt>
      <trkpt lat="43.40583" lon="2.25529">
        <ele>717.5</ele>
        <time>2019-08-11T07:05:48.000Z</time>
      </trkpt>
      <trkpt lat="43.40581" lon="2.25527">
        <ele>717.4</ele>
        <time>2019-08-11T07:05:49.000Z</time>
      </trkpt>
      <trkpt lat="43.4058" lon="2.25525">
        <ele>717.4</ele>
        <time>2019-08-11T07:05:50.000Z</time>
      </trkpt>
      <trkpt lat="43.40579" lon="2.25522">
        <ele>717.4</ele>
        <time>2019-08-11T07:05:51.000Z</time>
      </trkpt>
      <trkpt lat="43.40577" lon="2.2552">
        <ele>717.4</ele>
        <time>2019-08-11T07:05:52.000Z</time>
      </trkpt>
      <trkpt lat="43.40576" lon="2.25518">
        <ele>717.3</ele>
        <time>2019-08-11T07:05:53.000Z</time>
      </trkpt>
      <trkpt lat="43.40575" lon="2.25515">
        <ele>717.3</ele>
        <time>2019-08-11T07:05:54.000Z</time>
      </trkpt>
      <trkpt lat="43.40573" lon="2.25512">
        <ele>717.3</ele>
        <time>2019-08-11T07:05:55.000Z</time>
      </trkpt>
      <trkpt lat="43.40572" lon="2.25509">
        <ele>717.4</ele>
        <time>2019-08-11T07:05:56.000Z</time>
      </trkpt>
      <trkpt lat="43.40571" lon="2.25506">
        <ele>717.4</ele>
        <time>2019-08-11T07:05:57.000Z</time>
      </trkpt>
      <trkpt lat="43.4057" lon="2.25503">
        <ele>717.4</ele>
        <time>2019-08-11T07:05:58.000Z</time>
      </trkpt>
      <trkpt lat="43.4057" lon="2.255">
        <ele>717.5</ele>
        <time>2019-08-11T07:05:59.000Z</time>
      </trkpt>
      <trkpt lat="43.40569" lon="2.25497">
        <ele>717.6</ele>
        <time>2019-08-11T07:06:00.000Z</time>
      </trkpt>
      <trkpt lat="43.40568" lon="2.25493">
        <ele>717.6</ele>
        <time>2019-08-11T07:06:01.000Z</time>
      </trkpt>
      <trkpt lat="43.40568" lon="2.2549">
        <ele>717.7</ele>
        <time>2019-08-11T07:06:02.000Z</time>
      </trkpt>
      <trkpt lat="43.40568" lon="2.25486">
        <ele>717.9</ele>
        <time>2019-08-11T07:06:03.000Z</time>
      </trkpt>
      <trkpt lat="43.40567" lon="2.25483">
        <ele>718</ele>
        <time>2019-08-11T07:06:04.000Z</time>
      </trkpt>
      <trkpt lat="43.40567" lon="2.25479">
        <ele>718.2</ele>
        <time>2019-08-11T07:06:05.000Z</time>
      </trkpt>
      <trkpt lat="43.40567" lon="2.25476">
        <ele>718.3</ele>
        <time>2019-08-11T07:06:06.000Z</time>
      </trkpt>
      <trkpt lat="43.40567" lon="2.25472">
        <ele>718.5</ele>
        <time>2019-08-11T07:06:07.000Z</time>
      </trkpt>
      <trkpt lat="43.40567" lon="2.25469">
        <ele>718.7</ele>
        <time>2019-08-11T07:06:08.000Z</time>
      </trkpt>
      <trkpt lat="43.40567" lon="2.25466">
        <ele>718.9</ele>
        <time>2019-08-11T07:06:09.000Z</time>
      </trkpt>
      <trkpt lat="43.40568" lon="2.25463">
        <ele>719.1</ele>
        <time>2019-08-11T07:06:10.000Z</time>
      </trkpt>
      <trkpt lat="43.40568" lon="2.2546">
        <ele>719.3</ele>
        <time>2019-08-11T07:06:11.000Z</time>
      </trkpt>
      <trkpt lat="43.40568" lon="2.25457">
        <ele>719.5</ele>
        <time>2019-08-11T07:06:12.000Z</time>
      </trkpt>
      <trkpt lat="43.40568" lon="2.25454">
        <ele>719.7</ele>
        <time>2019-08-11T07:06:13.000Z</time>
      </trkpt>
      <trkpt lat="43.40568" lon="2.25451">
        <ele>719.9</ele>
        <time>2019-08-11T07:06:14.000Z</time>
      </trkpt>
      <trkpt lat="43.40568" lon="2.25448">
        <ele>720</ele>
        <time>2019-08-11T07:06:15.000Z</time>
      </trkpt>
      <trkpt lat="43.40568" lon="2.25445">
        <ele>720.1</ele>
        <time>2019-08-11T07:06:16.000Z</time>
      </trkpt>
      <trkpt lat="43.40568" lon="2.25442">
        <ele>720.3</ele>
        <time>2019-08-11T07:06:17.000Z</time>
      </trkpt>
      <trkpt lat="43.40568" lon="2.25438">
        <ele>720.4</ele>
        <time>2019-08-11T07:06:18.000Z</time>
      </trkpt>
      <trkpt lat="43.40567" lon="2.25435">
        <ele>720.6</ele>
        <time>2019-08-11T07:06:19.000Z</time>
      </trkpt>
      <trkpt lat="43.40567" lon="2.25431">
        <ele>720.7</ele>
        <time>2019-08-11T07:06:20.000Z</time>
      </trkpt>
      <trkpt lat="43.40567" lon="2.25427">
        <ele>720.9</ele>
        <time>2019-08-11T07:06:21.000Z</time>
      </trkpt>
      <trkpt lat="43.40567" lon="2.25423">
        <ele>721.1</ele>
        <time>2019-08-11T07:06:22.000Z</time>
      </trkpt>
      <trkpt lat="43.40567" lon="2.25419">
        <ele>721.3</ele>
        <time>2019-08-11T07:06:23.000Z</time>
      </trkpt>
      <trkpt lat="43.40567" lon="2.25415">
        <ele>721.6</ele>
        <time>2019-08-11T07:06:24.000Z</time>
      </trkpt>
      <trkpt lat="43.40567" lon="2.25412">
        <ele>721.7</ele>
        <time>2019-08-11T07:06:25.000Z</time>
      </trkpt>
      <trkpt lat="43.40567" lon="2.25409">
        <ele>721.9</ele>
        <time>2019-08-11T07:06:26.000Z</time>
      </trkpt>
      <trkpt lat="43.40567" lon="2.25406">
        <ele>722</ele>
        <time>2019-08-11T07:06:27.000Z</time>
      </trkpt>
      <trkpt lat="43.40567" lon="2.25403">
        <ele>722.2</ele>
        <time>2019-08-11T07:06:28.000Z</time>
      </trkpt>
      <trkpt lat="43.40567" lon="2.25399">
        <ele>722.3</ele>
        <time>2019-08-11T07:06:29.000Z</time>
      </trkpt>
      <trkpt lat="43.40566" lon="2.25395">
        <ele>722.5</ele>
        <time>2019-08-11T07:06:30.000Z</time>
      </trkpt>
      <trkpt lat="43.40566" lon="2.2539">
        <ele>722.7</ele>
        <time>2019-08-11T07:06:31.000Z</time>
      </trkpt>
      <trkpt lat="43.40565" lon="2.25386">
        <ele>722.8</ele>
        <time>2019-08-11T07:06:32.000Z</time>
      </trkpt>
      <trkpt lat="43.40565" lon="2.25382">
        <ele>723</ele>
        <time>2019-08-11T07:06:33.000Z</time>
      </trkpt>
      <trkpt lat="43.40565" lon="2.25378">
        <ele>723.2</ele>
        <time>2019-08-11T07:06:34.000Z</time>
      </trkpt>
      <trkpt lat="43.40565" lon="2.25375">
        <ele>723.4</ele>
        <time>2019-08-11T07:06:35.000Z</time>
      </trkpt>
      <trkpt lat="43.40565" lon="2.25372">
        <ele>723.6</ele>
        <time>2019-08-11T07:06:36.000Z</time>
      </trkpt>
      <trkpt lat="43.40565" lon="2.25369">
        <ele>723.7</ele>
        <time>2019-08-11T07:06:37.000Z</time>
      </trkpt>
      <trkpt lat="43.40565" lon="2.25366">
        <ele>723.9</ele>
        <time>2019-08-11T07:06:38.000Z</time>
      </trkpt>
      <trkpt lat="43.40564" lon="2.25363">
        <ele>724</ele>
        <time>2019-08-11T07:06:39.000Z</time>
      </trkpt>
      <trkpt lat="43.40563" lon="2.25359">
        <ele>724.1</ele>
        <time>2019-08-11T07:06:40.000Z</time>
      </trkpt>
      <trkpt lat="43.40562" lon="2.25356">
        <ele>724.1</ele>
        <time>2019-08-11T07:06:41.000Z</time>
      </trkpt>
      <trkpt lat="43.40561" lon="2.25352">
        <ele>724.2</ele>
        <time>2019-08-11T07:06:42.000Z</time>
      </trkpt>
      <trkpt lat="43.40559" lon="2.25349">
        <ele>724.3</ele>
        <time>2019-08-11T07:06:43.000Z</time>
      </trkpt>
      <trkpt lat="43.40558" lon="2.25345">
        <ele>724.5</ele>
        <time>2019-08-11T07:06:44.000Z</time>
      </trkpt>
      <trkpt lat="43.40557" lon="2.25342">
        <ele>724.6</ele>
        <time>2019-08-11T07:06:45.000Z</time>
      </trkpt>
      <trkpt lat="43.40556" lon="2.25338">
        <ele>724.7</ele>
        <time>2019-08-11T07:06:46.000Z</time>
      </trkpt>
      <trkpt lat="43.40555" lon="2.25335">
        <ele>724.9</ele>
        <time>2019-08-11T07:06:47.000Z</time>
      </trkpt>
      <trkpt lat="43.40555" lon="2.25331">
        <ele>725</ele>
        <time>2019-08-11T07:06:48.000Z</time>
      </trkpt>
      <trkpt lat="43.40554" lon="2.25328">
        <ele>725.1</ele>
        <time>2019-08-11T07:06:49.000Z</time>
      </trkpt>
      <trkpt lat="43.40553" lon="2.25325">
        <ele>725.2</ele>
        <time>2019-08-11T07:06:50.000Z</time>
      </trkpt>
      <trkpt lat="43.40552" lon="2.25321">
        <ele>725.2</ele>
        <time>2019-08-11T07:06:51.000Z</time>
      </trkpt>
      <trkpt lat="43.40552" lon="2.25318">
        <ele>725.3</ele>
        <time>2019-08-11T07:06:52.000Z</time>
      </trkpt>
      <trkpt lat="43.40551" lon="2.25315">
        <ele>725.4</ele>
        <time>2019-08-11T07:06:53.000Z</time>
      </trkpt>
      <trkpt lat="43.4055" lon="2.25311">
        <ele>725.5</ele>
        <time>2019-08-11T07:06:54.000Z</time>
      </trkpt>
      <trkpt lat="43.4055" lon="2.25308">
        <ele>725.6</ele>
        <time>2019-08-11T07:06:55.000Z</time>
      </trkpt>
      <trkpt lat="43.40549" lon="2.25305">
        <ele>725.6</ele>
        <time>2019-08-11T07:06:56.000Z</time>
      </trkpt>
      <trkpt lat="43.40549" lon="2.25302">
        <ele>725.7</ele>
        <time>2019-08-11T07:06:57.000Z</time>
      </trkpt>
      <trkpt lat="43.40548" lon="2.25299">
        <ele>725.8</ele>
        <time>2019-08-11T07:06:58.000Z</time>
      </trkpt>
      <trkpt lat="43.40548" lon="2.25296">
        <ele>725.8</ele>
        <time>2019-08-11T07:06:59.000Z</time>
      </trkpt>
      <trkpt lat="43.40547" lon="2.25293">
        <ele>725.9</ele>
        <time>2019-08-11T07:07:00.000Z</time>
      </trkpt>
      <trkpt lat="43.40546" lon="2.25291">
        <ele>725.9</ele>
        <time>2019-08-11T07:07:01.000Z</time>
      </trkpt>
      <trkpt lat="43.40546" lon="2.25288">
        <ele>726</ele>
        <time>2019-08-11T07:07:02.000Z</time>
      </trkpt>
      <trkpt lat="43.40545" lon="2.25286">
        <ele>726</ele>
        <time>2019-08-11T07:07:03.000Z</time>
      </trkpt>
      <trkpt lat="43.40544" lon="2.25283">
        <ele>726</ele>
        <time>2019-08-11T07:07:04.000Z</time>
      </trkpt>
      <trkpt lat="43.40543" lon="2.25281">
        <ele>726</ele>
        <time>2019-08-11T07:07:05.000Z</time>
      </trkpt>
      <trkpt lat="43.40543" lon="2.25279">
        <ele>726.1</ele>
        <time>2019-08-11T07:07:06.000Z</time>
      </trkpt>
      <trkpt lat="43.40542" lon="2.25276">
        <ele>726</ele>
        <time>2019-08-11T07:07:07.000Z</time>
      </trkpt>
      <trkpt lat="43.40541" lon="2.25274">
        <ele>726</ele>
        <time>2019-08-11T07:07:08.000Z</time>
      </trkpt>
      <trkpt lat="43.40539" lon="2.25272">
        <ele>726</ele>
        <time>2019-08-11T07:07:09.000Z</time>
      </trkpt>
      <trkpt lat="43.40538" lon="2.2527">
        <ele>726</ele>
        <time>2019-08-11T07:07:10.000Z</time>
      </trkpt>
      <trkpt lat="43.40537" lon="2.25268">
        <ele>725.9</ele>
        <time>2019-08-11T07:07:11.000Z</time>
      </trkpt>
      <trkpt lat="43.40535" lon="2.25266">
        <ele>725.8</ele>
        <time>2019-08-11T07:07:12.000Z</time>
      </trkpt>
      <trkpt lat="43.40534" lon="2.25264">
        <ele>725.8</ele>
        <time>2019-08-11T07:07:13.000Z</time>
      </trkpt>
      <trkpt lat="43.40532" lon="2.25262">
        <ele>725.7</ele>
        <time>2019-08-11T07:07:14.000Z</time>
      </trkpt>
      <trkpt lat="43.4053" lon="2.25261">
        <ele>725.6</ele>
        <time>2019-08-11T07:07:15.000Z</time>
      </trkpt>
      <trkpt lat="43.40529" lon="2.25259">
        <ele>725.5</ele>
        <time>2019-08-11T07:07:16.000Z</time>
      </trkpt>
      <trkpt lat="43.40527" lon="2.25257">
        <ele>725.3</ele>
        <time>2019-08-11T07:07:17.000Z</time>
      </trkpt>
      <trkpt lat="43.40525" lon="2.25255">
        <ele>725.2</ele>
        <time>2019-08-11T07:07:18.000Z</time>
      </trkpt>
      <trkpt lat="43.40523" lon="2.25253">
        <ele>725.1</ele>
        <time>2019-08-11T07:07:19.000Z</time>
      </trkpt>
      <trkpt lat="43.40521" lon="2.25251">
        <ele>725</ele>
        <time>2019-08-11T07:07:20.000Z</time>
      </trkpt>
      <trkpt lat="43.4052" lon="2.25249">
        <ele>725</ele>
        <time>2019-08-11T07:07:21.000Z</time>
      </trkpt>
      <trkpt lat="43.40518" lon="2.25247">
        <ele>725</ele>
        <time>2019-08-11T07:07:22.000Z</time>
      </trkpt>
      <trkpt lat="43.40516" lon="2.25245">
        <ele>725.1</ele>
        <time>2019-08-11T07:07:23.000Z</time>
      </trkpt>
      <trkpt lat="43.40515" lon="2.25243">
        <ele>725.2</ele>
        <time>2019-08-11T07:07:24.000Z</time>
      </trkpt>
      <trkpt lat="43.40513" lon="2.2524">
        <ele>725.2</ele>
        <time>2019-08-11T07:07:25.000Z</time>
      </trkpt>
      <trkpt lat="43.40512" lon="2.25238">
        <ele>725.4</ele>
        <time>2019-08-11T07:07:26.000Z</time>
      </trkpt>
      <trkpt lat="43.4051" lon="2.25235">
        <ele>725.5</ele>
        <time>2019-08-11T07:07:27.000Z</time>
      </trkpt>
      <trkpt lat="43.40509" lon="2.25231">
        <ele>725.8</ele>
        <time>2019-08-11T07:07:28.000Z</time>
      </trkpt>
      <trkpt lat="43.40508" lon="2.25227">
        <ele>726.1</ele>
        <time>2019-08-11T07:07:29.000Z</time>
      </trkpt>
      <trkpt lat="43.40507" lon="2.25223">
        <ele>726.4</ele>
        <time>2019-08-11T07:07:30.000Z</time>
      </trkpt>
      <trkpt lat="43.40507" lon="2.25218">
        <ele>726.8</ele>
        <time>2019-08-11T07:07:31.000Z</time>
      </trkpt>
      <trkpt lat="43.40506" lon="2.25214">
        <ele>727.1</ele>
        <time>2019-08-11T07:07:32.000Z</time>
      </trkpt>
      <trkpt lat="43.40506" lon="2.2521">
        <ele>727.5</ele>
        <time>2019-08-11T07:07:33.000Z</time>
      </trkpt>
      <trkpt lat="43.40506" lon="2.25207">
        <ele>727.8</ele>
        <time>2019-08-11T07:07:34.000Z</time>
      </trkpt>
      <trkpt lat="43.40505" lon="2.25204">
        <ele>728.1</ele>
        <time>2019-08-11T07:07:35.000Z</time>
      </trkpt>
      <trkpt lat="43.40505" lon="2.252">
        <ele>728.4</ele>
        <time>2019-08-11T07:07:36.000Z</time>
      </trkpt>
      <trkpt lat="43.40505" lon="2.25197">
        <ele>728.6</ele>
        <time>2019-08-11T07:07:37.000Z</time>
      </trkpt>
      <trkpt lat="43.40505" lon="2.25194">
        <ele>728.9</ele>
        <time>2019-08-11T07:07:38.000Z</time>
      </trkpt>
      <trkpt lat="43.40504" lon="2.25191">
        <ele>729.1</ele>
        <time>2019-08-11T07:07:39.000Z</time>
      </trkpt>
      <trkpt lat="43.40503" lon="2.25188">
        <ele>729.4</ele>
        <time>2019-08-11T07:07:40.000Z</time>
      </trkpt>
      <trkpt lat="43.40503" lon="2.25185">
        <ele>729.6</ele>
        <time>2019-08-11T07:07:41.000Z</time>
      </trkpt>
      <trkpt lat="43.40502" lon="2.25182">
        <ele>729.7</ele>
        <time>2019-08-11T07:07:42.000Z</time>
      </trkpt>
      <trkpt lat="43.40501" lon="2.25179">
        <ele>729.9</ele>
        <time>2019-08-11T07:07:43.000Z</time>
      </trkpt>
      <trkpt lat="43.405" lon="2.25177">
        <ele>730</ele>
        <time>2019-08-11T07:07:44.000Z</time>
      </trkpt>
      <trkpt lat="43.40499" lon="2.25174">
        <ele>730.1</ele>
        <time>2019-08-11T07:07:45.000Z</time>
      </trkpt>
      <trkpt lat="43.40497" lon="2.25171">
        <ele>730.2</ele>
        <time>2019-08-11T07:07:46.000Z</time>
      </trkpt>
      <trkpt lat="43.40496" lon="2.25169">
        <ele>730.3</ele>
        <time>2019-08-11T07:07:47.000Z</time>
      </trkpt>
      <trkpt lat="43.40494" lon="2.25166">
        <ele>730.3</ele>
        <time>2019-08-11T07:07:48.000Z</time>
      </trkpt>
      <trkpt lat="43.40493" lon="2.25164">
        <ele>730.3</ele>
        <time>2019-08-11T07:07:49.000Z</time>
      </trkpt>
      <trkpt lat="43.40491" lon="2.25162">
        <ele>730.3</ele>
        <time>2019-08-11T07:07:50.000Z</time>
      </trkpt>
      <trkpt lat="43.4049" lon="2.2516">
        <ele>730.3</ele>
        <time>2019-08-11T07:07:51.000Z</time>
      </trkpt>
      <trkpt lat="43.40488" lon="2.25158">
        <ele>730.3</ele>
        <time>2019-08-11T07:07:52.000Z</time>
      </trkpt>
      <trkpt lat="43.40486" lon="2.25157">
        <ele>730.2</ele>
        <time>2019-08-11T07:07:53.000Z</time>
      </trkpt>
      <trkpt lat="43.40484" lon="2.25156">
        <ele>730</ele>
        <time>2019-08-11T07:07:54.000Z</time>
      </trkpt>
      <trkpt lat="43.40482" lon="2.25155">
        <ele>729.9</ele>
        <time>2019-08-11T07:07:55.000Z</time>
      </trkpt>
      <trkpt lat="43.4048" lon="2.25154">
        <ele>729.7</ele>
        <time>2019-08-11T07:07:56.000Z</time>
      </trkpt>
      <trkpt lat="43.40478" lon="2.25153">
        <ele>729.5</ele>
        <time>2019-08-11T07:07:57.000Z</time>
      </trkpt>
      <trkpt lat="43.40476" lon="2.25152">
        <ele>729.3</ele>
        <time>2019-08-11T07:07:58.000Z</time>
      </trkpt>
      <trkpt lat="43.40473" lon="2.25152">
        <ele>729.1</ele>
        <time>2019-08-11T07:07:59.000Z</time>
      </trkpt>
      <trkpt lat="43.40471" lon="2.25151">
        <ele>728.8</ele>
        <time>2019-08-11T07:08:00.000Z</time>
      </trkpt>
      <trkpt lat="43.40469" lon="2.25151">
        <ele>728.5</ele>
        <time>2019-08-11T07:08:01.000Z</time>
      </trkpt>
      <trkpt lat="43.40466" lon="2.25151">
        <ele>728.2</ele>
        <time>2019-08-11T07:08:02.000Z</time>
      </trkpt>
      <trkpt lat="43.40464" lon="2.25151">
        <ele>727.9</ele>
        <time>2019-08-11T07:08:03.000Z</time>
      </trkpt>
      <trkpt lat="43.40462" lon="2.2515">
        <ele>727.6</ele>
        <time>2019-08-11T07:08:04.000Z</time>
      </trkpt>
      <trkpt lat="43.40459" lon="2.2515">
        <ele>727.3</ele>
        <time>2019-08-11T07:08:05.000Z</time>
      </trkpt>
      <trkpt lat="43.40457" lon="2.2515">
        <ele>727</ele>
        <time>2019-08-11T07:08:06.000Z</time>
      </trkpt>
      <trkpt lat="43.40454" lon="2.2515">
        <ele>726.7</ele>
        <time>2019-08-11T07:08:07.000Z</time>
      </trkpt>
      <trkpt lat="43.40452" lon="2.25149">
        <ele>726.4</ele>
        <time>2019-08-11T07:08:08.000Z</time>
      </trkpt>
      <trkpt lat="43.4045" lon="2.25149">
        <ele>726.2</ele>
        <time>2019-08-11T07:08:09.000Z</time>
      </trkpt>
      <trkpt lat="43.40447" lon="2.25148">
        <ele>725.9</ele>
        <time>2019-08-11T07:08:10.000Z</time>
      </trkpt>
      <trkpt lat="43.40445" lon="2.25147">
        <ele>725.6</ele>
        <time>2019-08-11T07:08:11.000Z</time>
      </trkpt>
      <trkpt lat="43.40442" lon="2.25146">
        <ele>725.4</ele>
        <time>2019-08-11T07:08:12.000Z</time>
      </trkpt>
      <trkpt lat="43.4044" lon="2.25145">
        <ele>725.2</ele>
        <time>2019-08-11T07:08:13.000Z</time>
      </trkpt>
      <trkpt lat="43.40437" lon="2.25144">
        <ele>724.9</ele>
        <time>2019-08-11T07:08:14.000Z</time>
      </trkpt>
      <trkpt lat="43.40434" lon="2.25143">
        <ele>724.7</ele>
        <time>2019-08-11T07:08:15.000Z</time>
      </trkpt>
      <trkpt lat="43.40432" lon="2.25141">
        <ele>724.5</ele>
        <time>2019-08-11T07:08:16.000Z</time>
      </trkpt>
      <trkpt lat="43.40429" lon="2.25139">
        <ele>724.3</ele>
        <time>2019-08-11T07:08:17.000Z</time>
      </trkpt>
      <trkpt lat="43.40426" lon="2.25137">
        <ele>724.1</ele>
        <time>2019-08-11T07:08:18.000Z</time>
      </trkpt>
      <trkpt lat="43.40424" lon="2.25135">
        <ele>724</ele>
        <time>2019-08-11T07:08:19.000Z</time>
      </trkpt>
      <trkpt lat="43.40421" lon="2.25133">
        <ele>723.8</ele>
        <time>2019-08-11T07:08:20.000Z</time>
      </trkpt>
      <trkpt lat="43.40419" lon="2.25131">
        <ele>723.7</ele>
        <time>2019-08-11T07:08:21.000Z</time>
      </trkpt>
      <trkpt lat="43.40417" lon="2.25129">
        <ele>723.6</ele>
        <time>2019-08-11T07:08:22.000Z</time>
      </trkpt>
      <trkpt lat="43.40415" lon="2.25127">
        <ele>723.7</ele>
        <time>2019-08-11T07:08:23.000Z</time>
      </trkpt>
      <trkpt lat="43.40413" lon="2.25125">
        <ele>723.8</ele>
        <time>2019-08-11T07:08:24.000Z</time>
      </trkpt>
      <trkpt lat="43.40411" lon="2.25122">
        <ele>724</ele>
        <time>2019-08-11T07:08:25.000Z</time>
      </trkpt>
      <trkpt lat="43.4041" lon="2.2512">
        <ele>724.1</ele>
        <time>2019-08-11T07:08:26.000Z</time>
      </trkpt>
      <trkpt lat="43.40408" lon="2.25117">
        <ele>724.3</ele>
        <time>2019-08-11T07:08:27.000Z</time>
      </trkpt>
      <trkpt lat="43.40407" lon="2.25114">
        <ele>724.5</ele>
        <time>2019-08-11T07:08:28.000Z</time>
      </trkpt>
      <trkpt lat="43.40406" lon="2.25111">
        <ele>724.6</ele>
        <time>2019-08-11T07:08:29.000Z</time>
      </trkpt>
      <trkpt lat="43.40405" lon="2.25108">
        <ele>724.8</ele>
        <time>2019-08-11T07:08:30.000Z</time>
      </trkpt>
      <trkpt lat="43.40403" lon="2.25105">
        <ele>725</ele>
        <time>2019-08-11T07:08:31.000Z</time>
      </trkpt>
      <trkpt lat="43.40402" lon="2.25101">
        <ele>725.2</ele>
        <time>2019-08-11T07:08:32.000Z</time>
      </trkpt>
      <trkpt lat="43.40401" lon="2.25098">
        <ele>725.4</ele>
        <time>2019-08-11T07:08:33.000Z</time>
      </trkpt>
      <trkpt lat="43.40399" lon="2.25094">
        <ele>725.6</ele>
        <time>2019-08-11T07:08:34.000Z</time>
      </trkpt>
      <trkpt lat="43.40398" lon="2.25091">
        <ele>725.8</ele>
        <time>2019-08-11T07:08:35.000Z</time>
      </trkpt>
      <trkpt lat="43.40396" lon="2.25087">
        <ele>726</ele>
        <time>2019-08-11T07:08:36.000Z</time>
      </trkpt>
      <trkpt lat="43.40395" lon="2.25083">
        <ele>726.2</ele>
        <time>2019-08-11T07:08:37.000Z</time>
      </trkpt>
      <trkpt lat="43.40393" lon="2.25079">
        <ele>726.2</ele>
        <time>2019-08-11T07:08:38.000Z</time>
      </trkpt>
      <trkpt lat="43.40391" lon="2.25075">
        <ele>726.2</ele>
        <time>2019-08-11T07:08:39.000Z</time>
      </trkpt>
      <trkpt lat="43.4039" lon="2.25071">
        <ele>726.2</ele>
        <time>2019-08-11T07:08:40.000Z</time>
      </trkpt>
      <trkpt lat="43.40388" lon="2.25067">
        <ele>726.3</ele>
        <time>2019-08-11T07:08:41.000Z</time>
      </trkpt>
      <trkpt lat="43.40387" lon="2.25064">
        <ele>726.3</ele>
        <time>2019-08-11T07:08:42.000Z</time>
      </trkpt>
      <trkpt lat="43.40386" lon="2.25061">
        <ele>726.3</ele>
        <time>2019-08-11T07:08:43.000Z</time>
      </trkpt>
      <trkpt lat="43.40385" lon="2.25058">
        <ele>726.4</ele>
        <time>2019-08-11T07:08:44.000Z</time>
      </trkpt>
      <trkpt lat="43.40384" lon="2.25055">
        <ele>726.4</ele>
        <time>2019-08-11T07:08:45.000Z</time>
      </trkpt>
      <trkpt lat="43.40383" lon="2.25052">
        <ele>726.5</ele>
        <time>2019-08-11T07:08:46.000Z</time>
      </trkpt>
      <trkpt lat="43.40382" lon="2.2505">
        <ele>726.5</ele>
        <time>2019-08-11T07:08:47.000Z</time>
      </trkpt>
      <trkpt lat="43.40381" lon="2.25047">
        <ele>726.5</ele>
        <time>2019-08-11T07:08:48.000Z</time>
      </trkpt>
      <trkpt lat="43.4038" lon="2.25045">
        <ele>726.5</ele>
        <time>2019-08-11T07:08:49.000Z</time>
      </trkpt>
      <trkpt lat="43.40379" lon="2.25042">
        <ele>726.5</ele>
        <time>2019-08-11T07:08:50.000Z</time>
      </trkpt>
      <trkpt lat="43.40377" lon="2.25039">
        <ele>726.5</ele>
        <time>2019-08-11T07:08:51.000Z</time>
      </trkpt>
      <trkpt lat="43.40376" lon="2.25037">
        <ele>726.5</ele>
        <time>2019-08-11T07:08:52.000Z</time>
      </trkpt>
      <trkpt lat="43.40374" lon="2.25034">
        <ele>726.5</ele>
        <time>2019-08-11T07:08:53.000Z</time>
      </trkpt>
      <trkpt lat="43.40372" lon="2.25032">
        <ele>726.4</ele>
        <time>2019-08-11T07:08:54.000Z</time>
      </trkpt>
      <trkpt lat="43.4037" lon="2.25029">
        <ele>726.4</ele>
        <time>2019-08-11T07:08:55.000Z</time>
      </trkpt>
      <trkpt lat="43.40368" lon="2.25026">
        <ele>726.4</ele>
        <time>2019-08-11T07:08:56.000Z</time>
      </trkpt>
      <trkpt lat="43.40366" lon="2.25023">
        <ele>726.4</ele>
        <time>2019-08-11T07:08:57.000Z</time>
      </trkpt>
      <trkpt lat="43.40365" lon="2.2502">
        <ele>726.4</ele>
        <time>2019-08-11T07:08:58.000Z</time>
      </trkpt>
      <trkpt lat="43.40363" lon="2.25017">
        <ele>726.4</ele>
        <time>2019-08-11T07:08:59.000Z</time>
      </trkpt>
      <trkpt lat="43.40361" lon="2.25014">
        <ele>726.3</ele>
        <time>2019-08-11T07:09:00.000Z</time>
      </trkpt>
      <trkpt lat="43.40359" lon="2.25011">
        <ele>726.3</ele>
        <time>2019-08-11T07:09:01.000Z</time>
      </trkpt>
      <trkpt lat="43.40357" lon="2.25008">
        <ele>726.3</ele>
        <time>2019-08-11T07:09:02.000Z</time>
      </trkpt>
      <trkpt lat="43.40355" lon="2.25006">
        <ele>726.3</ele>
        <time>2019-08-11T07:09:03.000Z</time>
      </trkpt>
      <trkpt lat="43.40353" lon="2.25003">
        <ele>726.3</ele>
        <time>2019-08-11T07:09:04.000Z</time>
      </trkpt>
      <trkpt lat="43.40351" lon="2.25">
        <ele>726.3</ele>
        <time>2019-08-11T07:09:05.000Z</time>
      </trkpt>
      <trkpt lat="43.40349" lon="2.24997">
        <ele>726.3</ele>
        <time>2019-08-11T07:09:06.000Z</time>
      </trkpt>
      <trkpt lat="43.40346" lon="2.24994">
        <ele>726.4</ele>
        <time>2019-08-11T07:09:07.000Z</time>
      </trkpt>
      <trkpt lat="43.40344" lon="2.24992">
        <ele>726.4</ele>
        <time>2019-08-11T07:09:08.000Z</time>
      </trkpt>
      <trkpt lat="43.40342" lon="2.2499">
        <ele>726.4</ele>
        <time>2019-08-11T07:09:09.000Z</time>
      </trkpt>
      <trkpt lat="43.40339" lon="2.24987">
        <ele>726.4</ele>
        <time>2019-08-11T07:09:10.000Z</time>
      </trkpt>
      <trkpt lat="43.40336" lon="2.24986">
        <ele>726.4</ele>
        <time>2019-08-11T07:09:11.000Z</time>
      </trkpt>
      <trkpt lat="43.40334" lon="2.24984">
        <ele>726.4</ele>
        <time>2019-08-11T07:09:12.000Z</time>
      </trkpt>
      <trkpt lat="43.40331" lon="2.24982">
        <ele>726.4</ele>
        <time>2019-08-11T07:09:13.000Z</time>
      </trkpt>
      <trkpt lat="43.40328" lon="2.24981">
        <ele>726.3</ele>
        <time>2019-08-11T07:09:14.000Z</time>
      </trkpt>
      <trkpt lat="43.40326" lon="2.2498">
        <ele>726.3</ele>
        <time>2019-08-11T07:09:15.000Z</time>
      </trkpt>
      <trkpt lat="43.40323" lon="2.24979">
        <ele>726.2</ele>
        <time>2019-08-11T07:09:16.000Z</time>
      </trkpt>
      <trkpt lat="43.4032" lon="2.24978">
        <ele>726.1</ele>
        <time>2019-08-11T07:09:17.000Z</time>
      </trkpt>
      <trkpt lat="43.40318" lon="2.24977">
        <ele>726.1</ele>
        <time>2019-08-11T07:09:18.000Z</time>
      </trkpt>
      <trkpt lat="43.40315" lon="2.24977">
        <ele>726</ele>
        <time>2019-08-11T07:09:19.000Z</time>
      </trkpt>
      <trkpt lat="43.40313" lon="2.24976">
        <ele>725.9</ele>
        <time>2019-08-11T07:09:20.000Z</time>
      </trkpt>
      <trkpt lat="43.4031" lon="2.24975">
        <ele>725.8</ele>
        <time>2019-08-11T07:09:21.000Z</time>
      </trkpt>
      <trkpt lat="43.40308" lon="2.24975">
        <ele>725.8</ele>
        <time>2019-08-11T07:09:22.000Z</time>
      </trkpt>
      <trkpt lat="43.40305" lon="2.24975">
        <ele>725.7</ele>
        <time>2019-08-11T07:09:23.000Z</time>
      </trkpt>
      <trkpt lat="43.40303" lon="2.24974">
        <ele>725.6</ele>
        <time>2019-08-11T07:09:24.000Z</time>
      </trkpt>
      <trkpt lat="43.403" lon="2.24974">
        <ele>725.5</ele>
        <time>2019-08-11T07:09:25.000Z</time>
      </trkpt>
      <trkpt lat="43.40298" lon="2.24973">
        <ele>725.4</ele>
        <time>2019-08-11T07:09:26.000Z</time>
      </trkpt>
      <trkpt lat="43.40296" lon="2.24973">
        <ele>725.3</ele>
        <time>2019-08-11T07:09:27.000Z</time>
      </trkpt>
      <trkpt lat="43.40294" lon="2.24973">
        <ele>725.2</ele>
        <time>2019-08-11T07:09:28.000Z</time>
      </trkpt>
      <trkpt lat="43.40291" lon="2.24972">
        <ele>725.2</ele>
        <time>2019-08-11T07:09:29.000Z</time>
      </trkpt>
      <trkpt lat="43.40289" lon="2.24971">
        <ele>725.1</ele>
        <time>2019-08-11T07:09:30.000Z</time>
      </trkpt>
      <trkpt lat="43.40287" lon="2.24971">
        <ele>725.1</ele>
        <time>2019-08-11T07:09:31.000Z</time>
      </trkpt>
      <trkpt lat="43.40285" lon="2.2497">
        <ele>725</ele>
        <time>2019-08-11T07:09:32.000Z</time>
      </trkpt>
      <trkpt lat="43.40283" lon="2.24969">
        <ele>725</ele>
        <time>2019-08-11T07:09:33.000Z</time>
      </trkpt>
      <trkpt lat="43.4028" lon="2.24969">
        <ele>724.9</ele>
        <time>2019-08-11T07:09:34.000Z</time>
      </trkpt>
      <trkpt lat="43.40277" lon="2.24968">
        <ele>724.8</ele>
        <time>2019-08-11T07:09:35.000Z</time>
      </trkpt>
      <trkpt lat="43.40274" lon="2.24967">
        <ele>724.7</ele>
        <time>2019-08-11T07:09:36.000Z</time>
      </trkpt>
      <trkpt lat="43.4027" lon="2.24967">
        <ele>724.6</ele>
        <time>2019-08-11T07:09:37.000Z</time>
      </trkpt>
      <trkpt lat="43.40267" lon="2.24966">
        <ele>724.5</ele>
        <time>2019-08-11T07:09:38.000Z</time>
      </trkpt>
      <trkpt lat="43.40264" lon="2.24966">
        <ele>724.4</ele>
        <time>2019-08-11T07:09:39.000Z</time>
      </trkpt>
      <trkpt lat="43.40261" lon="2.24965">
        <ele>724.4</ele>
        <time>2019-08-11T07:09:40.000Z</time>
      </trkpt>
      <trkpt lat="43.40259" lon="2.24964">
        <ele>724.3</ele>
        <time>2019-08-11T07:09:41.000Z</time>
      </trkpt>
      <trkpt lat="43.40257" lon="2.24963">
        <ele>724.3</ele>
        <time>2019-08-11T07:09:42.000Z</time>
      </trkpt>
      <trkpt lat="43.40254" lon="2.24962">
        <ele>724.4</ele>
        <time>2019-08-11T07:09:43.000Z</time>
      </trkpt>
      <trkpt lat="43.40252" lon="2.2496">
        <ele>724.4</ele>
        <time>2019-08-11T07:09:44.000Z</time>
      </trkpt>
      <trkpt lat="43.4025" lon="2.24959">
        <ele>724.4</ele>
        <time>2019-08-11T07:09:45.000Z</time>
      </trkpt>
      <trkpt lat="43.40247" lon="2.24958">
        <ele>724.5</ele>
        <time>2019-08-11T07:09:46.000Z</time>
      </trkpt>
      <trkpt lat="43.40244" lon="2.24956">
        <ele>724.6</ele>
        <time>2019-08-11T07:09:47.000Z</time>
      </trkpt>
      <trkpt lat="43.40242" lon="2.24955">
        <ele>724.6</ele>
        <time>2019-08-11T07:09:48.000Z</time>
      </trkpt>
      <trkpt lat="43.40239" lon="2.24954">
        <ele>724.7</ele>
        <time>2019-08-11T07:09:49.000Z</time>
      </trkpt>
      <trkpt lat="43.40237" lon="2.24952">
        <ele>724.7</ele>
        <time>2019-08-11T07:09:50.000Z</time>
      </trkpt>
      <trkpt lat="43.40235" lon="2.24952">
        <ele>724.7</ele>
        <time>2019-08-11T07:09:51.000Z</time>
      </trkpt>
      <trkpt lat="43.40233" lon="2.24951">
        <ele>724.8</ele>
        <time>2019-08-11T07:09:52.000Z</time>
      </trkpt>
      <trkpt lat="43.40231" lon="2.2495">
        <ele>724.8</ele>
        <time>2019-08-11T07:09:53.000Z</time>
      </trkpt>
      <trkpt lat="43.40229" lon="2.24949">
        <ele>724.8</ele>
        <time>2019-08-11T07:09:54.000Z</time>
      </trkpt>
      <trkpt lat="43.40227" lon="2.24948">
        <ele>724.8</ele>
        <time>2019-08-11T07:09:55.000Z</time>
      </trkpt>
      <trkpt lat="43.40224" lon="2.24947">
        <ele>724.8</ele>
        <time>2019-08-11T07:09:56.000Z</time>
      </trkpt>
      <trkpt lat="43.40221" lon="2.24946">
        <ele>724.8</ele>
        <time>2019-08-11T07:09:57.000Z</time>
      </trkpt>
      <trkpt lat="43.40218" lon="2.24945">
        <ele>724.8</ele>
        <time>2019-08-11T07:09:58.000Z</time>
      </trkpt>
      <trkpt lat="43.40216" lon="2.24944">
        <ele>724.9</ele>
        <time>2019-08-11T07:09:59.000Z</time>
      </trkpt>
      <trkpt lat="43.40213" lon="2.24943">
        <ele>724.9</ele>
        <time>2019-08-11T07:10:00.000Z</time>
      </trkpt>
      <trkpt lat="43.40211" lon="2.24942">
        <ele>724.8</ele>
        <time>2019-08-11T07:10:01.000Z</time>
      </trkpt>
      <trkpt lat="43.40208" lon="2.24941">
        <ele>724.9</ele>
        <time>2019-08-11T07:10:02.000Z</time>
      </trkpt>
      <trkpt lat="43.40206" lon="2.2494">
        <ele>724.9</ele>
        <time>2019-08-11T07:10:03.000Z</time>
      </trkpt>
      <trkpt lat="43.40204" lon="2.24939">
        <ele>724.9</ele>
        <time>2019-08-11T07:10:04.000Z</time>
      </trkpt>
      <trkpt lat="43.40202" lon="2.24938">
        <ele>724.9</ele>
        <time>2019-08-11T07:10:05.000Z</time>
      </trkpt>
      <trkpt lat="43.402" lon="2.24937">
        <ele>724.8</ele>
        <time>2019-08-11T07:10:06.000Z</time>
      </trkpt>
      <trkpt lat="43.40197" lon="2.24936">
        <ele>724.8</ele>
        <time>2019-08-11T07:10:07.000Z</time>
      </trkpt>
      <trkpt lat="43.40195" lon="2.24935">
        <ele>724.8</ele>
        <time>2019-08-11T07:10:08.000Z</time>
      </trkpt>
      <trkpt lat="43.40192" lon="2.24934">
        <ele>724.8</ele>
        <time>2019-08-11T07:10:09.000Z</time>
      </trkpt>
      <trkpt lat="43.40189" lon="2.24934">
        <ele>724.7</ele>
        <time>2019-08-11T07:10:10.000Z</time>
      </trkpt>
      <trkpt lat="43.40186" lon="2.24933">
        <ele>724.6</ele>
        <time>2019-08-11T07:10:11.000Z</time>
      </trkpt>
      <trkpt lat="43.40183" lon="2.24932">
        <ele>724.6</ele>
        <time>2019-08-11T07:10:12.000Z</time>
      </trkpt>
      <trkpt lat="43.4018" lon="2.24932">
        <ele>724.5</ele>
        <time>2019-08-11T07:10:13.000Z</time>
      </trkpt>
      <trkpt lat="43.40178" lon="2.24932">
        <ele>724.4</ele>
        <time>2019-08-11T07:10:14.000Z</time>
      </trkpt>
      <trkpt lat="43.40175" lon="2.24932">
        <ele>724.3</ele>
        <time>2019-08-11T07:10:15.000Z</time>
      </trkpt>
      <trkpt lat="43.40172" lon="2.24932">
        <ele>724.1</ele>
        <time>2019-08-11T07:10:16.000Z</time>
      </trkpt>
      <trkpt lat="43.4017" lon="2.24932">
        <ele>724</ele>
        <time>2019-08-11T07:10:17.000Z</time>
      </trkpt>
      <trkpt lat="43.40167" lon="2.24933">
        <ele>723.9</ele>
        <time>2019-08-11T07:10:18.000Z</time>
      </trkpt>
      <trkpt lat="43.40165" lon="2.24933">
        <ele>723.9</ele>
        <time>2019-08-11T07:10:19.000Z</time>
      </trkpt>
      <trkpt lat="43.40162" lon="2.24934">
        <ele>723.9</ele>
        <time>2019-08-11T07:10:20.000Z</time>
      </trkpt>
      <trkpt lat="43.4016" lon="2.24935">
        <ele>724</ele>
        <time>2019-08-11T07:10:21.000Z</time>
      </trkpt>
      <trkpt lat="43.40158" lon="2.24936">
        <ele>724</ele>
        <time>2019-08-11T07:10:22.000Z</time>
      </trkpt>
      <trkpt lat="43.40155" lon="2.24937">
        <ele>724</ele>
        <time>2019-08-11T07:10:23.000Z</time>
      </trkpt>
      <trkpt lat="43.40153" lon="2.24938">
        <ele>724</ele>
        <time>2019-08-11T07:10:24.000Z</time>
      </trkpt>
      <trkpt lat="43.40151" lon="2.24939">
        <ele>724</ele>
        <time>2019-08-11T07:10:25.000Z</time>
      </trkpt>
      <trkpt lat="43.40149" lon="2.2494">
        <ele>724</ele>
        <time>2019-08-11T07:10:26.000Z</time>
      </trkpt>
      <trkpt lat="43.40147" lon="2.24941">
        <ele>723.9</ele>
        <time>2019-08-11T07:10:27.000Z</time>
      </trkpt>
      <trkpt lat="43.40145" lon="2.24942">
        <ele>723.9</ele>
        <time>2019-08-11T07:10:28.000Z</time>
      </trkpt>
      <trkpt lat="43.40144" lon="2.24943">
        <ele>723.9</ele>
        <time>2019-08-11T07:10:29.000Z</time>
      </trkpt>
      <trkpt lat="43.40142" lon="2.24944">
        <ele>723.9</ele>
        <time>2019-08-11T07:10:30.000Z</time>
      </trkpt>
      <trkpt lat="43.4014" lon="2.24945">
        <ele>723.9</ele>
        <time>2019-08-11T07:10:31.000Z</time>
      </trkpt>
      <trkpt lat="43.40138" lon="2.24946">
        <ele>723.9</ele>
        <time>2019-08-11T07:10:32.000Z</time>
      </trkpt>
      <trkpt lat="43.40136" lon="2.24947">
        <ele>723.9</ele>
        <time>2019-08-11T07:10:33.000Z</time>
      </trkpt>
      <trkpt lat="43.40134" lon="2.24948">
        <ele>723.9</ele>
        <time>2019-08-11T07:10:34.000Z</time>
      </trkpt>
      <trkpt lat="43.40132" lon="2.24949">
        <ele>723.8</ele>
        <time>2019-08-11T07:10:35.000Z</time>
      </trkpt>
      <trkpt lat="43.4013" lon="2.24951">
        <ele>723.8</ele>
        <time>2019-08-11T07:10:36.000Z</time>
      </trkpt>
      <trkpt lat="43.40128" lon="2.24953">
        <ele>723.7</ele>
        <time>2019-08-11T07:10:37.000Z</time>
      </trkpt>
      <trkpt lat="43.40126" lon="2.24955">
        <ele>723.6</ele>
        <time>2019-08-11T07:10:38.000Z</time>
      </trkpt>
      <trkpt lat="43.40124" lon="2.24957">
        <ele>723.4</ele>
        <time>2019-08-11T07:10:39.000Z</time>
      </trkpt>
      <trkpt lat="43.40121" lon="2.24959">
        <ele>723.3</ele>
        <time>2019-08-11T07:10:40.000Z</time>
      </trkpt>
      <trkpt lat="43.40119" lon="2.24962">
        <ele>723.1</ele>
        <time>2019-08-11T07:10:41.000Z</time>
      </trkpt>
      <trkpt lat="43.40117" lon="2.24964">
        <ele>722.9</ele>
        <time>2019-08-11T07:10:42.000Z</time>
      </trkpt>
      <trkpt lat="43.40115" lon="2.24967">
        <ele>722.7</ele>
        <time>2019-08-11T07:10:43.000Z</time>
      </trkpt>
      <trkpt lat="43.40113" lon="2.24969">
        <ele>722.6</ele>
        <time>2019-08-11T07:10:44.000Z</time>
      </trkpt>
      <trkpt lat="43.40111" lon="2.24972">
        <ele>722.4</ele>
        <time>2019-08-11T07:10:45.000Z</time>
      </trkpt>
      <trkpt lat="43.40109" lon="2.24974">
        <ele>722.2</ele>
        <time>2019-08-11T07:10:46.000Z</time>
      </trkpt>
      <trkpt lat="43.40106" lon="2.24977">
        <ele>722</ele>
        <time>2019-08-11T07:10:47.000Z</time>
      </trkpt>
      <trkpt lat="43.40104" lon="2.24979">
        <ele>721.9</ele>
        <time>2019-08-11T07:10:48.000Z</time>
      </trkpt>
      <trkpt lat="43.40101" lon="2.24981">
        <ele>721.7</ele>
        <time>2019-08-11T07:10:49.000Z</time>
      </trkpt>
      <trkpt lat="43.40098" lon="2.24983">
        <ele>721.5</ele>
        <time>2019-08-11T07:10:50.000Z</time>
      </trkpt>
      <trkpt lat="43.40095" lon="2.24985">
        <ele>721.4</ele>
        <time>2019-08-11T07:10:51.000Z</time>
      </trkpt>
      <trkpt lat="43.40092" lon="2.24987">
        <ele>721.3</ele>
        <time>2019-08-11T07:10:52.000Z</time>
      </trkpt>
      <trkpt lat="43.40089" lon="2.24989">
        <ele>721.1</ele>
        <time>2019-08-11T07:10:53.000Z</time>
      </trkpt>
      <trkpt lat="43.40086" lon="2.2499">
        <ele>721</ele>
        <time>2019-08-11T07:10:54.000Z</time>
      </trkpt>
      <trkpt lat="43.40082" lon="2.24992">
        <ele>720.8</ele>
        <time>2019-08-11T07:10:55.000Z</time>
      </trkpt>
      <trkpt lat="43.40079" lon="2.24993">
        <ele>720.3</ele>
        <time>2019-08-11T07:10:56.000Z</time>
      </trkpt>
      <trkpt lat="43.40076" lon="2.24994">
        <ele>719.9</ele>
        <time>2019-08-11T07:10:57.000Z</time>
      </trkpt>
      <trkpt lat="43.40073" lon="2.24995">
        <ele>719.4</ele>
        <time>2019-08-11T07:10:58.000Z</time>
      </trkpt>
      <trkpt lat="43.4007" lon="2.24996">
        <ele>719</ele>
        <time>2019-08-11T07:10:59.000Z</time>
      </trkpt>
      <trkpt lat="43.40067" lon="2.24996">
        <ele>718.6</ele>
        <time>2019-08-11T07:11:00.000Z</time>
      </trkpt>
      <trkpt lat="43.40064" lon="2.24996">
        <ele>718.2</ele>
        <time>2019-08-11T07:11:01.000Z</time>
      </trkpt>
      <trkpt lat="43.40061" lon="2.24997">
        <ele>717.9</ele>
        <time>2019-08-11T07:11:02.000Z</time>
      </trkpt>
      <trkpt lat="43.40059" lon="2.24997">
        <ele>717.6</ele>
        <time>2019-08-11T07:11:03.000Z</time>
      </trkpt>
      <trkpt lat="43.40056" lon="2.24997">
        <ele>717.3</ele>
        <time>2019-08-11T07:11:04.000Z</time>
      </trkpt>
      <trkpt lat="43.40054" lon="2.24996">
        <ele>717</ele>
        <time>2019-08-11T07:11:05.000Z</time>
      </trkpt>
      <trkpt lat="43.40051" lon="2.24996">
        <ele>716.8</ele>
        <time>2019-08-11T07:11:06.000Z</time>
      </trkpt>
      <trkpt lat="43.40049" lon="2.24995">
        <ele>716.6</ele>
        <time>2019-08-11T07:11:07.000Z</time>
      </trkpt>
      <trkpt lat="43.40047" lon="2.24995">
        <ele>716.5</ele>
        <time>2019-08-11T07:11:08.000Z</time>
      </trkpt>
      <trkpt lat="43.40045" lon="2.24994">
        <ele>716.4</ele>
        <time>2019-08-11T07:11:09.000Z</time>
      </trkpt>
      <trkpt lat="43.40042" lon="2.24993">
        <ele>716.4</ele>
        <time>2019-08-11T07:11:10.000Z</time>
      </trkpt>
      <trkpt lat="43.4004" lon="2.24992">
        <ele>716.4</ele>
        <time>2019-08-11T07:11:11.000Z</time>
      </trkpt>
      <trkpt lat="43.40038" lon="2.24991">
        <ele>716.4</ele>
        <time>2019-08-11T07:11:12.000Z</time>
      </trkpt>
      <trkpt lat="43.40037" lon="2.24989">
        <ele>716.4</ele>
        <time>2019-08-11T07:11:13.000Z</time>
      </trkpt>
      <trkpt lat="43.40035" lon="2.24988">
        <ele>716.5</ele>
        <time>2019-08-11T07:11:14.000Z</time>
      </trkpt>
      <trkpt lat="43.40033" lon="2.24986">
        <ele>716.7</ele>
        <time>2019-08-11T07:11:15.000Z</time>
      </trkpt>
      <trkpt lat="43.40031" lon="2.24984">
        <ele>716.8</ele>
        <time>2019-08-11T07:11:16.000Z</time>
      </trkpt>
      <trkpt lat="43.40029" lon="2.24982">
        <ele>717</ele>
        <time>2019-08-11T07:11:17.000Z</time>
      </trkpt>
      <trkpt lat="43.40027" lon="2.2498">
        <ele>717.3</ele>
        <time>2019-08-11T07:11:18.000Z</time>
      </trkpt>
      <trkpt lat="43.40024" lon="2.24978">
        <ele>717.5</ele>
        <time>2019-08-11T07:11:19.000Z</time>
      </trkpt>
      <trkpt lat="43.40022" lon="2.24976">
        <ele>717.8</ele>
        <time>2019-08-11T07:11:20.000Z</time>
      </trkpt>
      <trkpt lat="43.4002" lon="2.24974">
        <ele>718.2</ele>
        <time>2019-08-11T07:11:21.000Z</time>
      </trkpt>
      <trkpt lat="43.40018" lon="2.24971">
        <ele>718.5</ele>
        <time>2019-08-11T07:11:22.000Z</time>
      </trkpt>
      <trkpt lat="43.40015" lon="2.24969">
        <ele>718.9</ele>
        <time>2019-08-11T07:11:23.000Z</time>
      </trkpt>
      <trkpt lat="43.40014" lon="2.24967">
        <ele>719.2</ele>
        <time>2019-08-11T07:11:24.000Z</time>
      </trkpt>
      <trkpt lat="43.40012" lon="2.24965">
        <ele>719.5</ele>
        <time>2019-08-11T07:11:25.000Z</time>
      </trkpt>
      <trkpt lat="43.40012" lon="2.24964">
        <ele>719.6</ele>
        <time>2019-08-11T07:11:26.000Z</time>
      </trkpt>
      <trkpt lat="43.40011" lon="2.24964">
        <ele>719.8</ele>
        <time>2019-08-11T07:11:27.000Z</time>
      </trkpt>
      <trkpt lat="43.40011" lon="2.24963">
        <ele>720</ele>
        <time>2019-08-11T07:11:28.000Z</time>
      </trkpt>
      <trkpt lat="43.4001" lon="2.24962">
        <ele>720.2</ele>
        <time>2019-08-11T07:11:29.000Z</time>
      </trkpt>
      <trkpt lat="43.40009" lon="2.2496">
        <ele>720.5</ele>
        <time>2019-08-11T07:11:30.000Z</time>
      </trkpt>
      <trkpt lat="43.40008" lon="2.24959">
        <ele>720.8</ele>
        <time>2019-08-11T07:11:31.000Z</time>
      </trkpt>
      <trkpt lat="43.40007" lon="2.24957">
        <ele>721.1</ele>
        <time>2019-08-11T07:11:32.000Z</time>
      </trkpt>
      <trkpt lat="43.40005" lon="2.24956">
        <ele>721.4</ele>
        <time>2019-08-11T07:11:33.000Z</time>
      </trkpt>
      <trkpt lat="43.40002" lon="2.24954">
        <ele>721.8</ele>
        <time>2019-08-11T07:11:34.000Z</time>
      </trkpt>
      <trkpt lat="43.4" lon="2.24952">
        <ele>722.1</ele>
        <time>2019-08-11T07:11:35.000Z</time>
      </trkpt>
      <trkpt lat="43.39997" lon="2.2495">
        <ele>722</ele>
        <time>2019-08-11T07:11:36.000Z</time>
      </trkpt>
      <trkpt lat="43.39994" lon="2.24948">
        <ele>721.9</ele>
        <time>2019-08-11T07:11:37.000Z</time>
      </trkpt>
      <trkpt lat="43.39991" lon="2.24947">
        <ele>721.8</ele>
        <time>2019-08-11T07:11:38.000Z</time>
      </trkpt>
      <trkpt lat="43.39989" lon="2.24945">
        <ele>721.7</ele>
        <time>2019-08-11T07:11:39.000Z</time>
      </trkpt>
      <trkpt lat="43.39986" lon="2.24943">
        <ele>721.6</ele>
        <time>2019-08-11T07:11:40.000Z</time>
      </trkpt>
      <trkpt lat="43.39984" lon="2.24942">
        <ele>721.5</ele>
        <time>2019-08-11T07:11:41.000Z</time>
      </trkpt>
      <trkpt lat="43.39981" lon="2.24941">
        <ele>721.3</ele>
        <time>2019-08-11T07:11:42.000Z</time>
      </trkpt>
      <trkpt lat="43.39979" lon="2.24939">
        <ele>721.2</ele>
        <time>2019-08-11T07:11:43.000Z</time>
      </trkpt>
      <trkpt lat="43.39977" lon="2.24938">
        <ele>721</ele>
        <time>2019-08-11T07:11:44.000Z</time>
      </trkpt>
      <trkpt lat="43.39974" lon="2.24937">
        <ele>720.9</ele>
        <time>2019-08-11T07:11:45.000Z</time>
      </trkpt>
      <trkpt lat="43.39972" lon="2.24935">
        <ele>720.7</ele>
        <time>2019-08-11T07:11:46.000Z</time>
      </trkpt>
      <trkpt lat="43.3997" lon="2.24934">
        <ele>720.6</ele>
        <time>2019-08-11T07:11:47.000Z</time>
      </trkpt>
      <trkpt lat="43.39967" lon="2.24933">
        <ele>720.4</ele>
        <time>2019-08-11T07:11:48.000Z</time>
      </trkpt>
      <trkpt lat="43.39965" lon="2.24931">
        <ele>720.2</ele>
        <time>2019-08-11T07:11:49.000Z</time>
      </trkpt>
      <trkpt lat="43.39963" lon="2.2493">
        <ele>720</ele>
        <time>2019-08-11T07:11:50.000Z</time>
      </trkpt>
      <trkpt lat="43.3996" lon="2.24929">
        <ele>719.8</ele>
        <time>2019-08-11T07:11:51.000Z</time>
      </trkpt>
      <trkpt lat="43.39958" lon="2.24928">
        <ele>719.5</ele>
        <time>2019-08-11T07:11:52.000Z</time>
      </trkpt>
      <trkpt lat="43.39955" lon="2.24927">
        <ele>719.3</ele>
        <time>2019-08-11T07:11:53.000Z</time>
      </trkpt>
      <trkpt lat="43.39953" lon="2.24926">
        <ele>719</ele>
        <time>2019-08-11T07:11:54.000Z</time>
      </trkpt>
      <trkpt lat="43.39951" lon="2.24925">
        <ele>718.7</ele>
        <time>2019-08-11T07:11:55.000Z</time>
      </trkpt>
      <trkpt lat="43.39949" lon="2.24924">
        <ele>718.4</ele>
        <time>2019-08-11T07:11:56.000Z</time>
      </trkpt>
      <trkpt lat="43.39946" lon="2.24923">
        <ele>718.1</ele>
        <time>2019-08-11T07:11:57.000Z</time>
      </trkpt>
      <trkpt lat="43.39944" lon="2.24922">
        <ele>717.8</ele>
        <time>2019-08-11T07:11:58.000Z</time>
      </trkpt>
      <trkpt lat="43.39942" lon="2.24921">
        <ele>717.6</ele>
        <time>2019-08-11T07:11:59.000Z</time>
      </trkpt>
      <trkpt lat="43.3994" lon="2.2492">
        <ele>717.3</ele>
        <time>2019-08-11T07:12:00.000Z</time>
      </trkpt>
      <trkpt lat="43.39938" lon="2.24919">
        <ele>717.1</ele>
        <time>2019-08-11T07:12:01.000Z</time>
      </trkpt>
      <trkpt lat="43.39936" lon="2.24917">
        <ele>716.9</ele>
        <time>2019-08-11T07:12:02.000Z</time>
      </trkpt>
      <trkpt lat="43.39934" lon="2.24916">
        <ele>716.8</ele>
        <time>2019-08-11T07:12:03.000Z</time>
      </trkpt>
      <trkpt lat="43.39932" lon="2.24914">
        <ele>716.6</ele>
        <time>2019-08-11T07:12:04.000Z</time>
      </trkpt>
      <trkpt lat="43.3993" lon="2.24912">
        <ele>716.4</ele>
        <time>2019-08-11T07:12:05.000Z</time>
      </trkpt>
      <trkpt lat="43.39928" lon="2.2491">
        <ele>716.3</ele>
        <time>2019-08-11T07:12:06.000Z</time>
      </trkpt>
      <trkpt lat="43.39926" lon="2.24907">
        <ele>716.3</ele>
        <time>2019-08-11T07:12:07.000Z</time>
      </trkpt>
      <trkpt lat="43.39924" lon="2.24904">
        <ele>716.4</ele>
        <time>2019-08-11T07:12:08.000Z</time>
      </trkpt>
      <trkpt lat="43.39923" lon="2.249">
        <ele>716.5</ele>
        <time>2019-08-11T07:12:09.000Z</time>
      </trkpt>
      <trkpt lat="43.39921" lon="2.24897">
        <ele>716.6</ele>
        <time>2019-08-11T07:12:10.000Z</time>
      </trkpt>
      <trkpt lat="43.3992" lon="2.24893">
        <ele>716.8</ele>
        <time>2019-08-11T07:12:11.000Z</time>
      </trkpt>
      <trkpt lat="43.39919" lon="2.24889">
        <ele>717</ele>
        <time>2019-08-11T07:12:12.000Z</time>
      </trkpt>
      <trkpt lat="43.39917" lon="2.24885">
        <ele>717.3</ele>
        <time>2019-08-11T07:12:13.000Z</time>
      </trkpt>
      <trkpt lat="43.39916" lon="2.24881">
        <ele>717.6</ele>
        <time>2019-08-11T07:12:14.000Z</time>
      </trkpt>
      <trkpt lat="43.39915" lon="2.24877">
        <ele>717.8</ele>
        <time>2019-08-11T07:12:15.000Z</time>
      </trkpt>
      <trkpt lat="43.39915" lon="2.24873">
        <ele>718.1</ele>
        <time>2019-08-11T07:12:16.000Z</time>
      </trkpt>
      <trkpt lat="43.39914" lon="2.2487">
        <ele>718.3</ele>
        <time>2019-08-11T07:12:17.000Z</time>
      </trkpt>
      <trkpt lat="43.39913" lon="2.24866">
        <ele>718.6</ele>
        <time>2019-08-11T07:12:18.000Z</time>
      </trkpt>
      <trkpt lat="43.39913" lon="2.24862">
        <ele>718.9</ele>
        <time>2019-08-11T07:12:19.000Z</time>
      </trkpt>
      <trkpt lat="43.39913" lon="2.24858">
        <ele>719.3</ele>
        <time>2019-08-11T07:12:20.000Z</time>
      </trkpt>
      <trkpt lat="43.39912" lon="2.24855">
        <ele>719.7</ele>
        <time>2019-08-11T07:12:21.000Z</time>
      </trkpt>
      <trkpt lat="43.39912" lon="2.24851">
        <ele>720.1</ele>
        <time>2019-08-11T07:12:22.000Z</time>
      </trkpt>
      <trkpt lat="43.39912" lon="2.24846">
        <ele>720.5</ele>
        <time>2019-08-11T07:12:23.000Z</time>
      </trkpt>
      <trkpt lat="43.39911" lon="2.24842">
        <ele>720.9</ele>
        <time>2019-08-11T07:12:24.000Z</time>
      </trkpt>
      <trkpt lat="43.39911" lon="2.24838">
        <ele>721.3</ele>
        <time>2019-08-11T07:12:25.000Z</time>
      </trkpt>
      <trkpt lat="43.39911" lon="2.24834">
        <ele>721.6</ele>
        <time>2019-08-11T07:12:26.000Z</time>
      </trkpt>
      <trkpt lat="43.3991" lon="2.2483">
        <ele>721.7</ele>
        <time>2019-08-11T07:12:27.000Z</time>
      </trkpt>
      <trkpt lat="43.3991" lon="2.24827">
        <ele>721.7</ele>
        <time>2019-08-11T07:12:28.000Z</time>
      </trkpt>
      <trkpt lat="43.39909" lon="2.24823">
        <ele>721.6</ele>
        <time>2019-08-11T07:12:29.000Z</time>
      </trkpt>
      <trkpt lat="43.39909" lon="2.24819">
        <ele>721.5</ele>
        <time>2019-08-11T07:12:30.000Z</time>
      </trkpt>
      <trkpt lat="43.39908" lon="2.24816">
        <ele>721.4</ele>
        <time>2019-08-11T07:12:31.000Z</time>
      </trkpt>
      <trkpt lat="43.39907" lon="2.24813">
        <ele>721.2</ele>
        <time>2019-08-11T07:12:32.000Z</time>
      </trkpt>
      <trkpt lat="43.39907" lon="2.2481">
        <ele>721.1</ele>
        <time>2019-08-11T07:12:33.000Z</time>
      </trkpt>
      <trkpt lat="43.39906" lon="2.24807">
        <ele>721</ele>
        <time>2019-08-11T07:12:34.000Z</time>
      </trkpt>
      <trkpt lat="43.39905" lon="2.24804">
        <ele>720.8</ele>
        <time>2019-08-11T07:12:35.000Z</time>
      </trkpt>
      <trkpt lat="43.39905" lon="2.24801">
        <ele>720.7</ele>
        <time>2019-08-11T07:12:36.000Z</time>
      </trkpt>
      <trkpt lat="43.39904" lon="2.24798">
        <ele>720.6</ele>
        <time>2019-08-11T07:12:37.000Z</time>
      </trkpt>
      <trkpt lat="43.39904" lon="2.24795">
        <ele>720.6</ele>
        <time>2019-08-11T07:12:38.000Z</time>
      </trkpt>
      <trkpt lat="43.39903" lon="2.24792">
        <ele>720.5</ele>
        <time>2019-08-11T07:12:39.000Z</time>
      </trkpt>
      <trkpt lat="43.39903" lon="2.24789">
        <ele>720.4</ele>
        <time>2019-08-11T07:12:40.000Z</time>
      </trkpt>
      <trkpt lat="43.39902" lon="2.24786">
        <ele>720.3</ele>
        <time>2019-08-11T07:12:41.000Z</time>
      </trkpt>
      <trkpt lat="43.39902" lon="2.24783">
        <ele>720.2</ele>
        <time>2019-08-11T07:12:42.000Z</time>
      </trkpt>
      <trkpt lat="43.39901" lon="2.2478">
        <ele>720</ele>
        <time>2019-08-11T07:12:43.000Z</time>
      </trkpt>
      <trkpt lat="43.399" lon="2.24777">
        <ele>719.8</ele>
        <time>2019-08-11T07:12:44.000Z</time>
      </trkpt>
      <trkpt lat="43.39899" lon="2.24774">
        <ele>719.6</ele>
        <time>2019-08-11T07:12:45.000Z</time>
      </trkpt>
      <trkpt lat="43.39898" lon="2.24771">
        <ele>719.4</ele>
        <time>2019-08-11T07:12:46.000Z</time>
      </trkpt>
      <trkpt lat="43.39897" lon="2.24767">
        <ele>719.2</ele>
        <time>2019-08-11T07:12:47.000Z</time>
      </trkpt>
      <trkpt lat="43.39897" lon="2.24764">
        <ele>719</ele>
        <time>2019-08-11T07:12:48.000Z</time>
      </trkpt>
      <trkpt lat="43.39896" lon="2.2476">
        <ele>718.9</ele>
        <time>2019-08-11T07:12:49.000Z</time>
      </trkpt>
      <trkpt lat="43.39895" lon="2.24756">
        <ele>718.8</ele>
        <time>2019-08-11T07:12:50.000Z</time>
      </trkpt>
      <trkpt lat="43.39895" lon="2.24752">
        <ele>718.8</ele>
        <time>2019-08-11T07:12:51.000Z</time>
      </trkpt>
      <trkpt lat="43.39895" lon="2.24748">
        <ele>718.7</ele>
        <time>2019-08-11T07:12:52.000Z</time>
      </trkpt>
      <trkpt lat="43.39895" lon="2.24744">
        <ele>718.4</ele>
        <time>2019-08-11T07:12:53.000Z</time>
      </trkpt>
      <trkpt lat="43.39895" lon="2.2474">
        <ele>718.2</ele>
        <time>2019-08-11T07:12:54.000Z</time>
      </trkpt>
      <trkpt lat="43.39895" lon="2.24735">
        <ele>718</ele>
        <time>2019-08-11T07:12:55.000Z</time>
      </trkpt>
      <trkpt lat="43.39895" lon="2.24731">
        <ele>717.8</ele>
        <time>2019-08-11T07:12:56.000Z</time>
      </trkpt>
      <trkpt lat="43.39895" lon="2.24727">
        <ele>717.7</ele>
        <time>2019-08-11T07:12:57.000Z</time>
      </trkpt>
      <trkpt lat="43.39896" lon="2.24722">
        <ele>717.6</ele>
        <time>2019-08-11T07:12:58.000Z</time>
      </trkpt>
      <trkpt lat="43.39896" lon="2.24718">
        <ele>717.6</ele>
        <time>2019-08-11T07:12:59.000Z</time>
      </trkpt>
      <trkpt lat="43.39897" lon="2.24713">
        <ele>717.6</ele>
        <time>2019-08-11T07:13:00.000Z</time>
      </trkpt>
      <trkpt lat="43.39898" lon="2.24709">
        <ele>717.6</ele>
        <time>2019-08-11T07:13:01.000Z</time>
      </trkpt>
      <trkpt lat="43.39899" lon="2.24705">
        <ele>717.7</ele>
        <time>2019-08-11T07:13:02.000Z</time>
      </trkpt>
      <trkpt lat="43.399" lon="2.24701">
        <ele>717.8</ele>
        <time>2019-08-11T07:13:03.000Z</time>
      </trkpt>
      <trkpt lat="43.39901" lon="2.24697">
        <ele>717.9</ele>
        <time>2019-08-11T07:13:04.000Z</time>
      </trkpt>
      <trkpt lat="43.39902" lon="2.24693">
        <ele>718.1</ele>
        <time>2019-08-11T07:13:05.000Z</time>
      </trkpt>
      <trkpt lat="43.39904" lon="2.24689">
        <ele>718.3</ele>
        <time>2019-08-11T07:13:06.000Z</time>
      </trkpt>
      <trkpt lat="43.39905" lon="2.24685">
        <ele>718.5</ele>
        <time>2019-08-11T07:13:07.000Z</time>
      </trkpt>
      <trkpt lat="43.39906" lon="2.24681">
        <ele>718.7</ele>
        <time>2019-08-11T07:13:08.000Z</time>
      </trkpt>
      <trkpt lat="43.39908" lon="2.24678">
        <ele>719</ele>
        <time>2019-08-11T07:13:09.000Z</time>
      </trkpt>
      <trkpt lat="43.39909" lon="2.24674">
        <ele>719.2</ele>
        <time>2019-08-11T07:13:10.000Z</time>
      </trkpt>
      <trkpt lat="43.39911" lon="2.24671">
        <ele>719.5</ele>
        <time>2019-08-11T07:13:11.000Z</time>
      </trkpt>
      <trkpt lat="43.39913" lon="2.24667">
        <ele>719.7</ele>
        <time>2019-08-11T07:13:12.000Z</time>
      </trkpt>
      <trkpt lat="43.39914" lon="2.24664">
        <ele>719.9</ele>
        <time>2019-08-11T07:13:13.000Z</time>
      </trkpt>
      <trkpt lat="43.39916" lon="2.2466">
        <ele>720.1</ele>
        <time>2019-08-11T07:13:14.000Z</time>
      </trkpt>
      <trkpt lat="43.39917" lon="2.24657">
        <ele>720.2</ele>
        <time>2019-08-11T07:13:15.000Z</time>
      </trkpt>
      <trkpt lat="43.39919" lon="2.24654">
        <ele>720.1</ele>
        <time>2019-08-11T07:13:16.000Z</time>
      </trkpt>
      <trkpt lat="43.39921" lon="2.24651">
        <ele>720</ele>
        <time>2019-08-11T07:13:17.000Z</time>
      </trkpt>
      <trkpt lat="43.39922" lon="2.24647">
        <ele>719.9</ele>
        <time>2019-08-11T07:13:18.000Z</time>
      </trkpt>
      <trkpt lat="43.39924" lon="2.24644">
        <ele>719.8</ele>
        <time>2019-08-11T07:13:19.000Z</time>
      </trkpt>
      <trkpt lat="43.39925" lon="2.24641">
        <ele>719.7</ele>
        <time>2019-08-11T07:13:20.000Z</time>
      </trkpt>
      <trkpt lat="43.39927" lon="2.24638">
        <ele>719.6</ele>
        <time>2019-08-11T07:13:21.000Z</time>
      </trkpt>
      <trkpt lat="43.39928" lon="2.24635">
        <ele>719.5</ele>
        <time>2019-08-11T07:13:22.000Z</time>
      </trkpt>
      <trkpt lat="43.3993" lon="2.24632">
        <ele>719.4</ele>
        <time>2019-08-11T07:13:23.000Z</time>
      </trkpt>
      <trkpt lat="43.39931" lon="2.24628">
        <ele>719.3</ele>
        <time>2019-08-11T07:13:24.000Z</time>
      </trkpt>
      <trkpt lat="43.39932" lon="2.24625">
        <ele>719.2</ele>
        <time>2019-08-11T07:13:25.000Z</time>
      </trkpt>
      <trkpt lat="43.39934" lon="2.24622">
        <ele>719.1</ele>
        <time>2019-08-11T07:13:26.000Z</time>
      </trkpt>
      <trkpt lat="43.39935" lon="2.24619">
        <ele>719</ele>
        <time>2019-08-11T07:13:27.000Z</time>
      </trkpt>
      <trkpt lat="43.39937" lon="2.24616">
        <ele>718.9</ele>
        <time>2019-08-11T07:13:28.000Z</time>
      </trkpt>
      <trkpt lat="43.39938" lon="2.24613">
        <ele>718.9</ele>
        <time>2019-08-11T07:13:29.000Z</time>
      </trkpt>
      <trkpt lat="43.3994" lon="2.2461">
        <ele>718.8</ele>
        <time>2019-08-11T07:13:30.000Z</time>
      </trkpt>
      <trkpt lat="43.39941" lon="2.24607">
        <ele>718.7</ele>
        <time>2019-08-11T07:13:31.000Z</time>
      </trkpt>
      <trkpt lat="43.39943" lon="2.24603">
        <ele>718.6</ele>
        <time>2019-08-11T07:13:32.000Z</time>
      </trkpt>
      <trkpt lat="43.39945" lon="2.246">
        <ele>718.6</ele>
        <time>2019-08-11T07:13:33.000Z</time>
      </trkpt>
      <trkpt lat="43.39946" lon="2.24597">
        <ele>718.5</ele>
        <time>2019-08-11T07:13:34.000Z</time>
      </trkpt>
      <trkpt lat="43.39948" lon="2.24594">
        <ele>718.4</ele>
        <time>2019-08-11T07:13:35.000Z</time>
      </trkpt>
      <trkpt lat="43.39949" lon="2.2459">
        <ele>718.3</ele>
        <time>2019-08-11T07:13:36.000Z</time>
      </trkpt>
      <trkpt lat="43.39951" lon="2.24587">
        <ele>718.3</ele>
        <time>2019-08-11T07:13:37.000Z</time>
      </trkpt>
      <trkpt lat="43.39953" lon="2.24583">
        <ele>718.2</ele>
        <time>2019-08-11T07:13:38.000Z</time>
      </trkpt>
      <trkpt lat="43.39954" lon="2.2458">
        <ele>718.2</ele>
        <time>2019-08-11T07:13:39.000Z</time>
      </trkpt>
      <trkpt lat="43.39956" lon="2.24576">
        <ele>718.3</ele>
        <time>2019-08-11T07:13:40.000Z</time>
      </trkpt>
      <trkpt lat="43.39958" lon="2.24573">
        <ele>718.3</ele>
        <time>2019-08-11T07:13:41.000Z</time>
      </trkpt>
      <trkpt lat="43.3996" lon="2.24569">
        <ele>718.4</ele>
        <time>2019-08-11T07:13:42.000Z</time>
      </trkpt>
      <trkpt lat="43.39961" lon="2.24566">
        <ele>718.4</ele>
        <time>2019-08-11T07:13:43.000Z</time>
      </trkpt>
      <trkpt lat="43.39963" lon="2.24562">
        <ele>718.5</ele>
        <time>2019-08-11T07:13:44.000Z</time>
      </trkpt>
      <trkpt lat="43.39965" lon="2.24559">
        <ele>718.6</ele>
        <time>2019-08-11T07:13:45.000Z</time>
      </trkpt>
      <trkpt lat="43.39967" lon="2.24555">
        <ele>718.6</ele>
        <time>2019-08-11T07:13:46.000Z</time>
      </trkpt>
      <trkpt lat="43.39969" lon="2.24552">
        <ele>718.7</ele>
        <time>2019-08-11T07:13:47.000Z</time>
      </trkpt>
      <trkpt lat="43.3997" lon="2.24549">
        <ele>718.8</ele>
        <time>2019-08-11T07:13:48.000Z</time>
      </trkpt>
      <trkpt lat="43.39972" lon="2.24546">
        <ele>718.9</ele>
        <time>2019-08-11T07:13:49.000Z</time>
      </trkpt>
      <trkpt lat="43.39974" lon="2.24543">
        <ele>719</ele>
        <time>2019-08-11T07:13:50.000Z</time>
      </trkpt>
      <trkpt lat="43.39976" lon="2.2454">
        <ele>719.1</ele>
        <time>2019-08-11T07:13:51.000Z</time>
      </trkpt>
      <trkpt lat="43.39978" lon="2.24538">
        <ele>719.3</ele>
        <time>2019-08-11T07:13:52.000Z</time>
      </trkpt>
      <trkpt lat="43.3998" lon="2.24535">
        <ele>719.4</ele>
        <time>2019-08-11T07:13:53.000Z</time>
      </trkpt>
      <trkpt lat="43.39982" lon="2.24533">
        <ele>719.5</ele>
        <time>2019-08-11T07:13:54.000Z</time>
      </trkpt>
      <trkpt lat="43.39984" lon="2.2453">
        <ele>719.7</ele>
        <time>2019-08-11T07:13:55.000Z</time>
      </trkpt>
      <trkpt lat="43.39987" lon="2.24528">
        <ele>719.8</ele>
        <time>2019-08-11T07:13:56.000Z</time>
      </trkpt>
      <trkpt lat="43.39989" lon="2.24525">
        <ele>719.9</ele>
        <time>2019-08-11T07:13:57.000Z</time>
      </trkpt>
      <trkpt lat="43.39991" lon="2.24522">
        <ele>720.1</ele>
        <time>2019-08-11T07:13:58.000Z</time>
      </trkpt>
      <trkpt lat="43.39993" lon="2.2452">
        <ele>720.2</ele>
        <time>2019-08-11T07:13:59.000Z</time>
      </trkpt>
      <trkpt lat="43.39995" lon="2.24517">
        <ele>720.4</ele>
        <time>2019-08-11T07:14:00.000Z</time>
      </trkpt>
      <trkpt lat="43.39997" lon="2.24515">
        <ele>720.5</ele>
        <time>2019-08-11T07:14:01.000Z</time>
      </trkpt>
      <trkpt lat="43.39999" lon="2.24512">
        <ele>720.6</ele>
        <time>2019-08-11T07:14:02.000Z</time>
      </trkpt>
      <trkpt lat="43.40002" lon="2.24509">
        <ele>720.6</ele>
        <time>2019-08-11T07:14:03.000Z</time>
      </trkpt>
      <trkpt lat="43.40004" lon="2.24507">
        <ele>720.5</ele>
        <time>2019-08-11T07:14:04.000Z</time>
      </trkpt>
      <trkpt lat="43.40006" lon="2.24504">
        <ele>720.5</ele>
        <time>2019-08-11T07:14:05.000Z</time>
      </trkpt>
      <trkpt lat="43.40008" lon="2.24501">
        <ele>720.4</ele>
        <time>2019-08-11T07:14:06.000Z</time>
      </trkpt>
      <trkpt lat="43.4001" lon="2.24499">
        <ele>720.3</ele>
        <time>2019-08-11T07:14:07.000Z</time>
      </trkpt>
      <trkpt lat="43.40013" lon="2.24496">
        <ele>720.2</ele>
        <time>2019-08-11T07:14:08.000Z</time>
      </trkpt>
      <trkpt lat="43.40015" lon="2.24493">
        <ele>720.1</ele>
        <time>2019-08-11T07:14:09.000Z</time>
      </trkpt>
      <trkpt lat="43.40017" lon="2.2449">
        <ele>720.1</ele>
        <time>2019-08-11T07:14:10.000Z</time>
      </trkpt>
      <trkpt lat="43.40019" lon="2.24487">
        <ele>720</ele>
        <time>2019-08-11T07:14:11.000Z</time>
      </trkpt>
      <trkpt lat="43.40022" lon="2.24485">
        <ele>719.9</ele>
        <time>2019-08-11T07:14:12.000Z</time>
      </trkpt>
      <trkpt lat="43.40024" lon="2.24482">
        <ele>719.8</ele>
        <time>2019-08-11T07:14:13.000Z</time>
      </trkpt>
      <trkpt lat="43.40026" lon="2.24479">
        <ele>719.8</ele>
        <time>2019-08-11T07:14:14.000Z</time>
      </trkpt>
      <trkpt lat="43.40028" lon="2.24477">
        <ele>719.7</ele>
        <time>2019-08-11T07:14:15.000Z</time>
      </trkpt>
      <trkpt lat="43.40031" lon="2.24474">
        <ele>719.6</ele>
        <time>2019-08-11T07:14:16.000Z</time>
      </trkpt>
      <trkpt lat="43.40033" lon="2.24471">
        <ele>719.6</ele>
        <time>2019-08-11T07:14:17.000Z</time>
      </trkpt>
      <trkpt lat="43.40035" lon="2.24469">
        <ele>719.5</ele>
        <time>2019-08-11T07:14:18.000Z</time>
      </trkpt>
      <trkpt lat="43.40037" lon="2.24466">
        <ele>719.5</ele>
        <time>2019-08-11T07:14:19.000Z</time>
      </trkpt>
      <trkpt lat="43.4004" lon="2.24463">
        <ele>719.4</ele>
        <time>2019-08-11T07:14:20.000Z</time>
      </trkpt>
      <trkpt lat="43.40042" lon="2.24461">
        <ele>719.4</ele>
        <time>2019-08-11T07:14:21.000Z</time>
      </trkpt>
      <trkpt lat="43.40044" lon="2.24458">
        <ele>719.3</ele>
        <time>2019-08-11T07:14:22.000Z</time>
      </trkpt>
      <trkpt lat="43.40046" lon="2.24456">
        <ele>719.3</ele>
        <time>2019-08-11T07:14:23.000Z</time>
      </trkpt>
      <trkpt lat="43.40048" lon="2.24454">
        <ele>719.2</ele>
        <time>2019-08-11T07:14:24.000Z</time>
      </trkpt>
      <trkpt lat="43.40049" lon="2.24451">
        <ele>719.2</ele>
        <time>2019-08-11T07:14:25.000Z</time>
      </trkpt>
      <trkpt lat="43.40051" lon="2.24449">
        <ele>719.1</ele>
        <time>2019-08-11T07:14:26.000Z</time>
      </trkpt>
      <trkpt lat="43.40053" lon="2.24446">
        <ele>719.1</ele>
        <time>2019-08-11T07:14:27.000Z</time>
      </trkpt>
      <trkpt lat="43.40054" lon="2.24444">
        <ele>719</ele>
        <time>2019-08-11T07:14:28.000Z</time>
      </trkpt>
      <trkpt lat="43.40055" lon="2.24442">
        <ele>719</ele>
        <time>2019-08-11T07:14:29.000Z</time>
      </trkpt>
      <trkpt lat="43.40056" lon="2.2444">
        <ele>718.9</ele>
        <time>2019-08-11T07:14:30.000Z</time>
      </trkpt>
      <trkpt lat="43.40057" lon="2.24437">
        <ele>718.8</ele>
        <time>2019-08-11T07:14:31.000Z</time>
      </trkpt>
      <trkpt lat="43.40058" lon="2.24435">
        <ele>718.7</ele>
        <time>2019-08-11T07:14:32.000Z</time>
      </trkpt>
      <trkpt lat="43.40059" lon="2.24433">
        <ele>718.6</ele>
        <time>2019-08-11T07:14:33.000Z</time>
      </trkpt>
      <trkpt lat="43.40059" lon="2.2443">
        <ele>718.5</ele>
        <time>2019-08-11T07:14:34.000Z</time>
      </trkpt>
      <trkpt lat="43.4006" lon="2.24427">
        <ele>718.4</ele>
        <time>2019-08-11T07:14:35.000Z</time>
      </trkpt>
      <trkpt lat="43.4006" lon="2.24424">
        <ele>718.3</ele>
        <time>2019-08-11T07:14:36.000Z</time>
      </trkpt>
      <trkpt lat="43.40061" lon="2.24421">
        <ele>718.1</ele>
        <time>2019-08-11T07:14:37.000Z</time>
      </trkpt>
      <trkpt lat="43.40061" lon="2.24418">
        <ele>718</ele>
        <time>2019-08-11T07:14:38.000Z</time>
      </trkpt>
      <trkpt lat="43.4006" lon="2.24415">
        <ele>717.9</ele>
        <time>2019-08-11T07:14:39.000Z</time>
      </trkpt>
      <trkpt lat="43.4006" lon="2.24411">
        <ele>717.9</ele>
        <time>2019-08-11T07:14:40.000Z</time>
      </trkpt>
      <trkpt lat="43.4006" lon="2.24408">
        <ele>717.9</ele>
        <time>2019-08-11T07:14:41.000Z</time>
      </trkpt>
      <trkpt lat="43.40059" lon="2.24404">
        <ele>717.8</ele>
        <time>2019-08-11T07:14:42.000Z</time>
      </trkpt>
      <trkpt lat="43.40058" lon="2.24401">
        <ele>717.8</ele>
        <time>2019-08-11T07:14:43.000Z</time>
      </trkpt>
      <trkpt lat="43.40057" lon="2.24398">
        <ele>717.7</ele>
        <time>2019-08-11T07:14:44.000Z</time>
      </trkpt>
      <trkpt lat="43.40055" lon="2.24394">
        <ele>717.7</ele>
        <time>2019-08-11T07:14:45.000Z</time>
      </trkpt>
      <trkpt lat="43.40054" lon="2.24391">
        <ele>717.6</ele>
        <time>2019-08-11T07:14:46.000Z</time>
      </trkpt>
      <trkpt lat="43.40053" lon="2.24388">
        <ele>717.5</ele>
        <time>2019-08-11T07:14:47.000Z</time>
      </trkpt>
      <trkpt lat="43.40051" lon="2.24385">
        <ele>717.5</ele>
        <time>2019-08-11T07:14:48.000Z</time>
      </trkpt>
      <trkpt lat="43.4005" lon="2.24382">
        <ele>717.4</ele>
        <time>2019-08-11T07:14:49.000Z</time>
      </trkpt>
      <trkpt lat="43.40048" lon="2.2438">
        <ele>717.3</ele>
        <time>2019-08-11T07:14:50.000Z</time>
      </trkpt>
      <trkpt lat="43.40047" lon="2.24377">
        <ele>717.3</ele>
        <time>2019-08-11T07:14:51.000Z</time>
      </trkpt>
      <trkpt lat="43.40046" lon="2.24375">
        <ele>717.2</ele>
        <time>2019-08-11T07:14:52.000Z</time>
      </trkpt>
      <trkpt lat="43.40045" lon="2.24373">
        <ele>717.1</ele>
        <time>2019-08-11T07:14:53.000Z</time>
      </trkpt>
      <trkpt lat="43.40043" lon="2.24371">
        <ele>717.1</ele>
        <time>2019-08-11T07:14:54.000Z</time>
      </trkpt>
      <trkpt lat="43.40042" lon="2.24369">
        <ele>717</ele>
        <time>2019-08-11T07:14:55.000Z</time>
      </trkpt>
      <trkpt lat="43.4004" lon="2.24368">
        <ele>716.9</ele>
        <time>2019-08-11T07:14:56.000Z</time>
      </trkpt>
      <trkpt lat="43.40038" lon="2.24366">
        <ele>716.8</ele>
        <time>2019-08-11T07:14:57.000Z</time>
      </trkpt>
      <trkpt lat="43.40036" lon="2.24365">
        <ele>716.7</ele>
        <time>2019-08-11T07:14:58.000Z</time>
      </trkpt>
      <trkpt lat="43.40033" lon="2.24364">
        <ele>716.6</ele>
        <time>2019-08-11T07:14:59.000Z</time>
      </trkpt>
      <trkpt lat="43.40031" lon="2.24363">
        <ele>716.5</ele>
        <time>2019-08-11T07:15:00.000Z</time>
      </trkpt>
      <trkpt lat="43.40028" lon="2.24362">
        <ele>716.4</ele>
        <time>2019-08-11T07:15:01.000Z</time>
      </trkpt>
      <trkpt lat="43.40026" lon="2.24361">
        <ele>716.2</ele>
        <time>2019-08-11T07:15:02.000Z</time>
      </trkpt>
      <trkpt lat="43.40023" lon="2.2436">
        <ele>716.1</ele>
        <time>2019-08-11T07:15:03.000Z</time>
      </trkpt>
      <trkpt lat="43.40021" lon="2.24359">
        <ele>716</ele>
        <time>2019-08-11T07:15:04.000Z</time>
      </trkpt>
      <trkpt lat="43.40018" lon="2.24359">
        <ele>715.9</ele>
        <time>2019-08-11T07:15:05.000Z</time>
      </trkpt>
      <trkpt lat="43.40015" lon="2.24358">
        <ele>715.7</ele>
        <time>2019-08-11T07:15:06.000Z</time>
      </trkpt>
      <trkpt lat="43.40013" lon="2.24357">
        <ele>715.6</ele>
        <time>2019-08-11T07:15:07.000Z</time>
      </trkpt>
      <trkpt lat="43.4001" lon="2.24356">
        <ele>715.5</ele>
        <time>2019-08-11T07:15:08.000Z</time>
      </trkpt>
      <trkpt lat="43.40008" lon="2.24355">
        <ele>715.4</ele>
        <time>2019-08-11T07:15:09.000Z</time>
      </trkpt>
      <trkpt lat="43.40005" lon="2.24354">
        <ele>715.3</ele>
        <time>2019-08-11T07:15:10.000Z</time>
      </trkpt>
      <trkpt lat="43.40003" lon="2.24352">
        <ele>715.1</ele>
        <time>2019-08-11T07:15:11.000Z</time>
      </trkpt>
      <trkpt lat="43.40001" lon="2.24351">
        <ele>715</ele>
        <time>2019-08-11T07:15:12.000Z</time>
      </trkpt>
      <trkpt lat="43.39998" lon="2.24349">
        <ele>715</ele>
        <time>2019-08-11T07:15:13.000Z</time>
      </trkpt>
      <trkpt lat="43.39996" lon="2.24348">
        <ele>715.1</ele>
        <time>2019-08-11T07:15:14.000Z</time>
      </trkpt>
      <trkpt lat="43.39994" lon="2.24346">
        <ele>715.2</ele>
        <time>2019-08-11T07:15:15.000Z</time>
      </trkpt>
      <trkpt lat="43.39992" lon="2.24345">
        <ele>715.2</ele>
        <time>2019-08-11T07:15:16.000Z</time>
      </trkpt>
      <trkpt lat="43.3999" lon="2.24343">
        <ele>715.3</ele>
        <time>2019-08-11T07:15:17.000Z</time>
      </trkpt>
      <trkpt lat="43.39987" lon="2.24341">
        <ele>715.4</ele>
        <time>2019-08-11T07:15:18.000Z</time>
      </trkpt>
      <trkpt lat="43.39985" lon="2.24339">
        <ele>715.5</ele>
        <time>2019-08-11T07:15:19.000Z</time>
      </trkpt>
      <trkpt lat="43.39983" lon="2.24337">
        <ele>715.6</ele>
        <time>2019-08-11T07:15:20.000Z</time>
      </trkpt>
      <trkpt lat="43.39981" lon="2.24335">
        <ele>715.7</ele>
        <time>2019-08-11T07:15:21.000Z</time>
      </trkpt>
      <trkpt lat="43.39979" lon="2.24333">
        <ele>715.8</ele>
        <time>2019-08-11T07:15:22.000Z</time>
      </trkpt>
      <trkpt lat="43.39977" lon="2.24331">
        <ele>716</ele>
        <time>2019-08-11T07:15:23.000Z</time>
      </trkpt>
      <trkpt lat="43.39975" lon="2.24329">
        <ele>716.2</ele>
        <time>2019-08-11T07:15:24.000Z</time>
      </trkpt>
      <trkpt lat="43.39973" lon="2.24327">
        <ele>716.5</ele>
        <time>2019-08-11T07:15:25.000Z</time>
      </trkpt>
      <trkpt lat="43.39971" lon="2.24325">
        <ele>716.7</ele>
        <time>2019-08-11T07:15:26.000Z</time>
      </trkpt>
      <trkpt lat="43.39969" lon="2.24323">
        <ele>716.9</ele>
        <time>2019-08-11T07:15:27.000Z</time>
      </trkpt>
      <trkpt lat="43.39967" lon="2.24321">
        <ele>717.1</ele>
        <time>2019-08-11T07:15:28.000Z</time>
      </trkpt>
      <trkpt lat="43.39965" lon="2.24319">
        <ele>717.3</ele>
        <time>2019-08-11T07:15:29.000Z</time>
      </trkpt>
      <trkpt lat="43.39962" lon="2.24317">
        <ele>717.5</ele>
        <time>2019-08-11T07:15:30.000Z</time>
      </trkpt>
      <trkpt lat="43.3996" lon="2.24315">
        <ele>717.7</ele>
        <time>2019-08-11T07:15:31.000Z</time>
      </trkpt>
      <trkpt lat="43.39958" lon="2.24313">
        <ele>717.8</ele>
        <time>2019-08-11T07:15:32.000Z</time>
      </trkpt>
      <trkpt lat="43.39956" lon="2.24311">
        <ele>718</ele>
        <time>2019-08-11T07:15:33.000Z</time>
      </trkpt>
      <trkpt lat="43.39954" lon="2.24309">
        <ele>718.2</ele>
        <time>2019-08-11T07:15:34.000Z</time>
      </trkpt>
      <trkpt lat="43.39952" lon="2.24307">
        <ele>718.3</ele>
        <time>2019-08-11T07:15:35.000Z</time>
      </trkpt>
      <trkpt lat="43.3995" lon="2.24305">
        <ele>718.5</ele>
        <time>2019-08-11T07:15:36.000Z</time>
      </trkpt>
      <trkpt lat="43.39948" lon="2.24303">
        <ele>718.6</ele>
        <time>2019-08-11T07:15:37.000Z</time>
      </trkpt>
      <trkpt lat="43.39946" lon="2.24301">
        <ele>718.8</ele>
        <time>2019-08-11T07:15:38.000Z</time>
      </trkpt>
      <trkpt lat="43.39944" lon="2.24299">
        <ele>718.9</ele>
        <time>2019-08-11T07:15:39.000Z</time>
      </trkpt>
      <trkpt lat="43.39942" lon="2.24297">
        <ele>719.1</ele>
        <time>2019-08-11T07:15:40.000Z</time>
      </trkpt>
      <trkpt lat="43.3994" lon="2.24295">
        <ele>719.2</ele>
        <time>2019-08-11T07:15:41.000Z</time>
      </trkpt>
      <trkpt lat="43.39938" lon="2.24293">
        <ele>719.3</ele>
        <time>2019-08-11T07:15:42.000Z</time>
      </trkpt>
      <trkpt lat="43.39936" lon="2.24291">
        <ele>719.4</ele>
        <time>2019-08-11T07:15:43.000Z</time>
      </trkpt>
      <trkpt lat="43.39935" lon="2.24289">
        <ele>719.5</ele>
        <time>2019-08-11T07:15:44.000Z</time>
      </trkpt>
      <trkpt lat="43.39933" lon="2.24287">
        <ele>719.6</ele>
        <time>2019-08-11T07:15:45.000Z</time>
      </trkpt>
      <trkpt lat="43.39931" lon="2.24285">
        <ele>719.7</ele>
        <time>2019-08-11T07:15:46.000Z</time>
      </trkpt>
      <trkpt lat="43.39929" lon="2.24283">
        <ele>719.8</ele>
        <time>2019-08-11T07:15:47.000Z</time>
      </trkpt>
      <trkpt lat="43.39927" lon="2.24281">
        <ele>719.9</ele>
        <time>2019-08-11T07:15:48.000Z</time>
      </trkpt>
      <trkpt lat="43.39926" lon="2.24279">
        <ele>720</ele>
        <time>2019-08-11T07:15:49.000Z</time>
      </trkpt>
      <trkpt lat="43.39924" lon="2.24277">
        <ele>720.1</ele>
        <time>2019-08-11T07:15:50.000Z</time>
      </trkpt>
      <trkpt lat="43.39922" lon="2.24275">
        <ele>720.2</ele>
        <time>2019-08-11T07:15:51.000Z</time>
      </trkpt>
      <trkpt lat="43.3992" lon="2.24272">
        <ele>720.2</ele>
        <time>2019-08-11T07:15:52.000Z</time>
      </trkpt>
      <trkpt lat="43.39918" lon="2.2427">
        <ele>720.3</ele>
        <time>2019-08-11T07:15:53.000Z</time>
      </trkpt>
      <trkpt lat="43.39917" lon="2.24268">
        <ele>720.4</ele>
        <time>2019-08-11T07:15:54.000Z</time>
      </trkpt>
      <trkpt lat="43.39915" lon="2.24266">
        <ele>720.7</ele>
        <time>2019-08-11T07:15:55.000Z</time>
      </trkpt>
      <trkpt lat="43.39913" lon="2.24264">
        <ele>721.1</ele>
        <time>2019-08-11T07:15:56.000Z</time>
      </trkpt>
      <trkpt lat="43.39911" lon="2.24262">
        <ele>721.4</ele>
        <time>2019-08-11T07:15:57.000Z</time>
      </trkpt>
      <trkpt lat="43.39909" lon="2.2426">
        <ele>721.8</ele>
        <time>2019-08-11T07:15:58.000Z</time>
      </trkpt>
      <trkpt lat="43.39908" lon="2.24258">
        <ele>722.1</ele>
        <time>2019-08-11T07:15:59.000Z</time>
      </trkpt>
      <trkpt lat="43.39906" lon="2.24256">
        <ele>722.5</ele>
        <time>2019-08-11T07:16:00.000Z</time>
      </trkpt>
      <trkpt lat="43.39904" lon="2.24253">
        <ele>722.8</ele>
        <time>2019-08-11T07:16:01.000Z</time>
      </trkpt>
      <trkpt lat="43.39903" lon="2.24251">
        <ele>723.2</ele>
        <time>2019-08-11T07:16:02.000Z</time>
      </trkpt>
      <trkpt lat="43.39901" lon="2.24249">
        <ele>723.6</ele>
        <time>2019-08-11T07:16:03.000Z</time>
      </trkpt>
      <trkpt lat="43.39899" lon="2.24247">
        <ele>724</ele>
        <time>2019-08-11T07:16:04.000Z</time>
      </trkpt>
      <trkpt lat="43.39898" lon="2.24245">
        <ele>724.4</ele>
        <time>2019-08-11T07:16:05.000Z</time>
      </trkpt>
      <trkpt lat="43.39896" lon="2.24242">
        <ele>724.8</ele>
        <time>2019-08-11T07:16:06.000Z</time>
      </trkpt>
      <trkpt lat="43.39895" lon="2.2424">
        <ele>725.2</ele>
        <time>2019-08-11T07:16:07.000Z</time>
      </trkpt>
      <trkpt lat="43.39894" lon="2.24238">
        <ele>725.6</ele>
        <time>2019-08-11T07:16:08.000Z</time>
      </trkpt>
      <trkpt lat="43.39892" lon="2.24235">
        <ele>726</ele>
        <time>2019-08-11T07:16:09.000Z</time>
      </trkpt>
      <trkpt lat="43.39891" lon="2.24233">
        <ele>726.3</ele>
        <time>2019-08-11T07:16:10.000Z</time>
      </trkpt>
      <trkpt lat="43.3989" lon="2.24231">
        <ele>726.7</ele>
        <time>2019-08-11T07:16:11.000Z</time>
      </trkpt>
      <trkpt lat="43.39889" lon="2.24228">
        <ele>727</ele>
        <time>2019-08-11T07:16:12.000Z</time>
      </trkpt>
      <trkpt lat="43.39888" lon="2.24226">
        <ele>727.3</ele>
        <time>2019-08-11T07:16:13.000Z</time>
      </trkpt>
      <trkpt lat="43.39887" lon="2.24223">
        <ele>727.6</ele>
        <time>2019-08-11T07:16:14.000Z</time>
      </trkpt>
      <trkpt lat="43.39886" lon="2.24221">
        <ele>727.9</ele>
        <time>2019-08-11T07:16:15.000Z</time>
      </trkpt>
      <trkpt lat="43.39885" lon="2.24218">
        <ele>728.2</ele>
        <time>2019-08-11T07:16:16.000Z</time>
      </trkpt>
      <trkpt lat="43.39884" lon="2.24216">
        <ele>728.5</ele>
        <time>2019-08-11T07:16:17.000Z</time>
      </trkpt>
      <trkpt lat="43.39883" lon="2.24213">
        <ele>728.8</ele>
        <time>2019-08-11T07:16:18.000Z</time>
      </trkpt>
      <trkpt lat="43.39882" lon="2.24211">
        <ele>729.1</ele>
        <time>2019-08-11T07:16:19.000Z</time>
      </trkpt>
      <trkpt lat="43.39881" lon="2.24209">
        <ele>729.4</ele>
        <time>2019-08-11T07:16:20.000Z</time>
      </trkpt>
      <trkpt lat="43.3988" lon="2.24207">
        <ele>729.6</ele>
        <time>2019-08-11T07:16:21.000Z</time>
      </trkpt>
      <trkpt lat="43.39878" lon="2.24205">
        <ele>729.9</ele>
        <time>2019-08-11T07:16:22.000Z</time>
      </trkpt>
      <trkpt lat="43.39877" lon="2.24204">
        <ele>730.1</ele>
        <time>2019-08-11T07:16:23.000Z</time>
      </trkpt>
      <trkpt lat="43.39876" lon="2.24202">
        <ele>730.3</ele>
        <time>2019-08-11T07:16:24.000Z</time>
      </trkpt>
      <trkpt lat="43.39874" lon="2.24201">
        <ele>730.5</ele>
        <time>2019-08-11T07:16:25.000Z</time>
      </trkpt>
      <trkpt lat="43.39873" lon="2.242">
        <ele>730.7</ele>
        <time>2019-08-11T07:16:26.000Z</time>
      </trkpt>
      <trkpt lat="43.39871" lon="2.24199">
        <ele>730.9</ele>
        <time>2019-08-11T07:16:27.000Z</time>
      </trkpt>
      <trkpt lat="43.3987" lon="2.24198">
        <ele>731.1</ele>
        <time>2019-08-11T07:16:28.000Z</time>
      </trkpt>
      <trkpt lat="43.39868" lon="2.24197">
        <ele>731.4</ele>
        <time>2019-08-11T07:16:29.000Z</time>
      </trkpt>
      <trkpt lat="43.39867" lon="2.24195">
        <ele>731.6</ele>
        <time>2019-08-11T07:16:30.000Z</time>
      </trkpt>
      <trkpt lat="43.39865" lon="2.24194">
        <ele>731.8</ele>
        <time>2019-08-11T07:16:31.000Z</time>
      </trkpt>
      <trkpt lat="43.39864" lon="2.24192">
        <ele>732</ele>
        <time>2019-08-11T07:16:32.000Z</time>
      </trkpt>
      <trkpt lat="43.39862" lon="2.2419">
        <ele>732.2</ele>
        <time>2019-08-11T07:16:33.000Z</time>
      </trkpt>
      <trkpt lat="43.39861" lon="2.24189">
        <ele>732.4</ele>
        <time>2019-08-11T07:16:34.000Z</time>
      </trkpt>
      <trkpt lat="43.3986" lon="2.24187">
        <ele>732.6</ele>
        <time>2019-08-11T07:16:35.000Z</time>
      </trkpt>
      <trkpt lat="43.39859" lon="2.24185">
        <ele>732.7</ele>
        <time>2019-08-11T07:16:36.000Z</time>
      </trkpt>
      <trkpt lat="43.39858" lon="2.24184">
        <ele>732.9</ele>
        <time>2019-08-11T07:16:37.000Z</time>
      </trkpt>
      <trkpt lat="43.39857" lon="2.24182">
        <ele>733</ele>
        <time>2019-08-11T07:16:38.000Z</time>
      </trkpt>
      <trkpt lat="43.39856" lon="2.2418">
        <ele>733.1</ele>
        <time>2019-08-11T07:16:39.000Z</time>
      </trkpt>
      <trkpt lat="43.39855" lon="2.24179">
        <ele>733.3</ele>
        <time>2019-08-11T07:16:40.000Z</time>
      </trkpt>
      <trkpt lat="43.39854" lon="2.24177">
        <ele>733.4</ele>
        <time>2019-08-11T07:16:41.000Z</time>
      </trkpt>
      <trkpt lat="43.39854" lon="2.24176">
        <ele>733.5</ele>
        <time>2019-08-11T07:16:42.000Z</time>
      </trkpt>
      <trkpt lat="43.39853" lon="2.24175">
        <ele>733.5</ele>
        <time>2019-08-11T07:16:43.000Z</time>
      </trkpt>
      <trkpt lat="43.39853" lon="2.24173">
        <ele>733.6</ele>
        <time>2019-08-11T07:16:44.000Z</time>
      </trkpt>
      <trkpt lat="43.39852" lon="2.24172">
        <ele>733.7</ele>
        <time>2019-08-11T07:16:45.000Z</time>
      </trkpt>
      <trkpt lat="43.39852" lon="2.24171">
        <ele>733.8</ele>
        <time>2019-08-11T07:16:46.000Z</time>
      </trkpt>
      <trkpt lat="43.39851" lon="2.2417">
        <ele>733.8</ele>
        <time>2019-08-11T07:16:47.000Z</time>
      </trkpt>
      <trkpt lat="43.39851" lon="2.24169">
        <ele>733.9</ele>
        <time>2019-08-11T07:16:48.000Z</time>
      </trkpt>
      <trkpt lat="43.39851" lon="2.24169">
        <ele>733.9</ele>
        <time>2019-08-11T07:16:49.000Z</time>
      </trkpt>
      <trkpt lat="43.3985" lon="2.24168">
        <ele>733.9</ele>
        <time>2019-08-11T07:16:50.000Z</time>
      </trkpt>
      <trkpt lat="43.3985" lon="2.24168">
        <ele>734</ele>
        <time>2019-08-11T07:16:51.000Z</time>
      </trkpt>
      <trkpt lat="43.3985" lon="2.24168">
        <ele>734</ele>
        <time>2019-08-11T07:16:52.000Z</time>
      </trkpt>
      <trkpt lat="43.3985" lon="2.24167">
        <ele>734</ele>
        <time>2019-08-11T07:16:53.000Z</time>
      </trkpt>
      <trkpt lat="43.3985" lon="2.24167">
        <ele>734</ele>
        <time>2019-08-11T07:16:54.000Z</time>
      </trkpt>
      <trkpt lat="43.3985" lon="2.24167">
        <ele>734</ele>
        <time>2019-08-11T07:16:55.000Z</time>
      </trkpt>
      <trkpt lat="43.39849" lon="2.24167">
        <ele>734</ele>
        <time>2019-08-11T07:16:56.000Z</time>
      </trkpt>
      <trkpt lat="43.39849" lon="2.24168">
        <ele>734</ele>
        <time>2019-08-11T07:16:57.000Z</time>
      </trkpt>
      <trkpt lat="43.39849" lon="2.24168">
        <ele>734</ele>
        <time>2019-08-11T07:16:58.000Z</time>
      </trkpt>
      <trkpt lat="43.39849" lon="2.24168">
        <ele>734</ele>
        <time>2019-08-11T07:16:59.000Z</time>
      </trkpt>
      <trkpt lat="43.39849" lon="2.24168">
        <ele>734</ele>
        <time>2019-08-11T07:17:00.000Z</time>
      </trkpt>
      <trkpt lat="43.39849" lon="2.24168">
        <ele>734</ele>
        <time>2019-08-11T07:17:01.000Z</time>
      </trkpt>
      <trkpt lat="43.39849" lon="2.24168">
        <ele>734</ele>
        <time>2019-08-11T07:17:02.000Z</time>
      </trkpt>
      <trkpt lat="43.39849" lon="2.24168">
        <ele>734</ele>
        <time>2019-08-11T07:17:03.000Z</time>
      </trkpt>
      <trkpt lat="43.39849" lon="2.24169">
        <ele>734</ele>
        <time>2019-08-11T07:17:04.000Z</time>
      </trkpt>
      <trkpt lat="43.39849" lon="2.24169">
        <ele>734</ele>
        <time>2019-08-11T07:17:05.000Z</time>
      </trkpt>
      <trkpt lat="43.39849" lon="2.24168">
        <ele>734</ele>
        <time>2019-08-11T07:17:06.000Z</time>
      </trkpt>
      <trkpt lat="43.39849" lon="2.24168">
        <ele>734</ele>
        <time>2019-08-11T07:17:07.000Z</time>
      </trkpt>
      <trkpt lat="43.39849" lon="2.24168">
        <ele>734</ele>
        <time>2019-08-11T07:17:08.000Z</time>
      </trkpt>
      <trkpt lat="43.39849" lon="2.24168">
        <ele>734</ele>
        <time>2019-08-11T07:17:09.000Z</time>
      </trkpt>
      <trkpt lat="43.39849" lon="2.24168">
        <ele>734</ele>
        <time>2019-08-11T07:17:10.000Z</time>
      </trkpt>
      <trkpt lat="43.39849" lon="2.24168">
        <ele>734</ele>
        <time>2019-08-11T07:17:11.000Z</time>
      </trkpt>
      <trkpt lat="43.39849" lon="2.24168">
        <ele>734</ele>
        <time>2019-08-11T07:17:12.000Z</time>
      </trkpt>
      <trkpt lat="43.39849" lon="2.24168">
        <ele>734</ele>
        <time>2019-08-11T07:17:13.000Z</time>
      </trkpt>
      <trkpt lat="43.39849" lon="2.24168">
        <ele>734</ele>
        <time>2019-08-11T07:17:14.000Z</time>
      </trkpt>
      <trkpt lat="43.39849" lon="2.24168">
        <ele>734</ele>
        <time>2019-08-11T07:17:15.000Z</time>
      </trkpt>
      <trkpt lat="43.39848" lon="2.24169">
        <ele>734</ele>
        <time>2019-08-11T07:17:16.000Z</time>
      </trkpt>
      <trkpt lat="43.39848" lon="2.24169">
        <ele>734.1</ele>
        <time>2019-08-11T07:17:17.000Z</time>
      </trkpt>
      <trkpt lat="43.39848" lon="2.24169">
        <ele>734.1</ele>
        <time>2019-08-11T07:17:18.000Z</time>
      </trkpt>
      <trkpt lat="43.39848" lon="2.24169">
        <ele>734.1</ele>
        <time>2019-08-11T07:17:19.000Z</time>
      </trkpt>
      <trkpt lat="43.39848" lon="2.24169">
        <ele>734.1</ele>
        <time>2019-08-11T07:17:20.000Z</time>
      </trkpt>
      <trkpt lat="43.39848" lon="2.24169">
        <ele>734.1</ele>
        <time>2019-08-11T07:17:21.000Z</time>
      </trkpt>
      <trkpt lat="43.39848" lon="2.24169">
        <ele>734.1</ele>
        <time>2019-08-11T07:17:22.000Z</time>
      </trkpt>
      <trkpt lat="43.39848" lon="2.24169">
        <ele>734.1</ele>
        <time>2019-08-11T07:17:23.000Z</time>
      </trkpt>
      <trkpt lat="43.39848" lon="2.24169">
        <ele>734.1</ele>
        <time>2019-08-11T07:17:24.000Z</time>
      </trkpt>
      <trkpt lat="43.39848" lon="2.24169">
        <ele>734.1</ele>
        <time>2019-08-11T07:17:25.000Z</time>
      </trkpt>
      <trkpt lat="43.39848" lon="2.24169">
        <ele>734.1</ele>
        <time>2019-08-11T07:17:26.000Z</time>
      </trkpt>
      <trkpt lat="43.39847" lon="2.24169">
        <ele>734.1</ele>
        <time>2019-08-11T07:17:27.000Z</time>
      </trkpt>
      <trkpt lat="43.39847" lon="2.24169">
        <ele>734.1</ele>
        <time>2019-08-11T07:17:28.000Z</time>
      </trkpt>
      <trkpt lat="43.39847" lon="2.24169">
        <ele>734.1</ele>
        <time>2019-08-11T07:17:29.000Z</time>
      </trkpt>
      <trkpt lat="43.39847" lon="2.24169">
        <ele>734.1</ele>
        <time>2019-08-11T07:17:30.000Z</time>
      </trkpt>
      <trkpt lat="43.39847" lon="2.24169">
        <ele>734.1</ele>
        <time>2019-08-11T07:17:31.000Z</time>
      </trkpt>
      <trkpt lat="43.39847" lon="2.24169">
        <ele>734.1</ele>
        <time>2019-08-11T07:17:32.000Z</time>
      </trkpt>
      <trkpt lat="43.39847" lon="2.24169">
        <ele>734.1</ele>
        <time>2019-08-11T07:17:33.000Z</time>
      </trkpt>
      <trkpt lat="43.39847" lon="2.24169">
        <ele>734.1</ele>
        <time>2019-08-11T07:17:34.000Z</time>
      </trkpt>
      <trkpt lat="43.39847" lon="2.24169">
        <ele>734.1</ele>
        <time>2019-08-11T07:17:35.000Z</time>
      </trkpt>
      <trkpt lat="43.39847" lon="2.24169">
        <ele>734.1</ele>
        <time>2019-08-11T07:17:36.000Z</time>
      </trkpt>
      <trkpt lat="43.39847" lon="2.24169">
        <ele>734.1</ele>
        <time>2019-08-11T07:17:37.000Z</time>
      </trkpt>
      <trkpt lat="43.39847" lon="2.24169">
        <ele>734.1</ele>
        <time>2019-08-11T07:17:38.000Z</time>
      </trkpt>
      <trkpt lat="43.39847" lon="2.24169">
        <ele>734.1</ele>
        <time>2019-08-11T07:17:39.000Z</time>
      </trkpt>
      <trkpt lat="43.39847" lon="2.24169">
        <ele>734.1</ele>
        <time>2019-08-11T07:17:40.000Z</time>
      </trkpt>
      <trkpt lat="43.39847" lon="2.24169">
        <ele>734.1</ele>
        <time>2019-08-11T07:17:41.000Z</time>
      </trkpt>
      <trkpt lat="43.39847" lon="2.24169">
        <ele>734.1</ele>
        <time>2019-08-11T07:17:42.000Z</time>
      </trkpt>
      <trkpt lat="43.39847" lon="2.24169">
        <ele>734.1</ele>
        <time>2019-08-11T07:17:43.000Z</time>
      </trkpt>
      <trkpt lat="43.39847" lon="2.24169">
        <ele>734.1</ele>
        <time>2019-08-11T07:17:44.000Z</time>
      </trkpt>
      <trkpt lat="43.39847" lon="2.24169">
        <ele>734.1</ele>
        <time>2019-08-11T07:17:45.000Z</time>
      </trkpt>
      <trkpt lat="43.39847" lon="2.24169">
        <ele>734.1</ele>
        <time>2019-08-11T07:17:46.000Z</time>
      </trkpt>
      <trkpt lat="43.39847" lon="2.24169">
        <ele>734.1</ele>
        <time>2019-08-11T07:17:47.000Z</time>
      </trkpt>
      <trkpt lat="43.39847" lon="2.24169">
        <ele>734.1</ele>
        <time>2019-08-11T07:17:48.000Z</time>
      </trkpt>
      <trkpt lat="43.39847" lon="2.24169">
        <ele>734.1</ele>
        <time>2019-08-11T07:17:49.000Z</time>
      </trkpt>
      <trkpt lat="43.39847" lon="2.24169">
        <ele>734.1</ele>
        <time>2019-08-11T07:17:50.000Z</time>
      </trkpt>
      <trkpt lat="43.39847" lon="2.24169">
        <ele>734.1</ele>
        <time>2019-08-11T07:17:51.000Z</time>
      </trkpt>
      <trkpt lat="43.39847" lon="2.24169">
        <ele>734.1</ele>
        <time>2019-08-11T07:17:52.000Z</time>
      </trkpt>
      <trkpt lat="43.39847" lon="2.24168">
        <ele>734.1</ele>
        <time>2019-08-11T07:17:53.000Z</time>
      </trkpt>
      <trkpt lat="43.39847" lon="2.24168">
        <ele>734.1</ele>
        <time>2019-08-11T07:17:54.000Z</time>
      </trkpt>
      <trkpt lat="43.39847" lon="2.24168">
        <ele>734.1</ele>
        <time>2019-08-11T07:17:55.000Z</time>
      </trkpt>
      <trkpt lat="43.39847" lon="2.24168">
        <ele>734.1</ele>
        <time>2019-08-11T07:17:56.000Z</time>
      </trkpt>
      <trkpt lat="43.39847" lon="2.24167">
        <ele>734.1</ele>
        <time>2019-08-11T07:17:57.000Z</time>
      </trkpt>
      <trkpt lat="43.39847" lon="2.24167">
        <ele>734.2</ele>
        <time>2019-08-11T07:17:58.000Z</time>
      </trkpt>
      <trkpt lat="43.39847" lon="2.24167">
        <ele>734.2</ele>
        <time>2019-08-11T07:17:59.000Z</time>
      </trkpt>
      <trkpt lat="43.39847" lon="2.24167">
        <ele>734.2</ele>
        <time>2019-08-11T07:18:00.000Z</time>
      </trkpt>
      <trkpt lat="43.39847" lon="2.24166">
        <ele>734.2</ele>
        <time>2019-08-11T07:18:01.000Z</time>
      </trkpt>
      <trkpt lat="43.39847" lon="2.24166">
        <ele>734.2</ele>
        <time>2019-08-11T07:18:02.000Z</time>
      </trkpt>
      <trkpt lat="43.39847" lon="2.24166">
        <ele>734.2</ele>
        <time>2019-08-11T07:18:03.000Z</time>
      </trkpt>
      <trkpt lat="43.39847" lon="2.24166">
        <ele>734.2</ele>
        <time>2019-08-11T07:18:04.000Z</time>
      </trkpt>
      <trkpt lat="43.39847" lon="2.24166">
        <ele>734.2</ele>
        <time>2019-08-11T07:18:05.000Z</time>
      </trkpt>
      <trkpt lat="43.39847" lon="2.24166">
        <ele>734.2</ele>
        <time>2019-08-11T07:18:06.000Z</time>
      </trkpt>
      <trkpt lat="43.39847" lon="2.24166">
        <ele>734.2</ele>
        <time>2019-08-11T07:18:07.000Z</time>
      </trkpt>
      <trkpt lat="43.39847" lon="2.24166">
        <ele>734.2</ele>
        <time>2019-08-11T07:18:08.000Z</time>
      </trkpt>
      <trkpt lat="43.39847" lon="2.24166">
        <ele>734.2</ele>
        <time>2019-08-11T07:18:09.000Z</time>
      </trkpt>
      <trkpt lat="43.39847" lon="2.24166">
        <ele>734.2</ele>
        <time>2019-08-11T07:18:10.000Z</time>
      </trkpt>
      <trkpt lat="43.39847" lon="2.24166">
        <ele>734.2</ele>
        <time>2019-08-11T07:18:11.000Z</time>
      </trkpt>
      <trkpt lat="43.39847" lon="2.24166">
        <ele>734.2</ele>
        <time>2019-08-11T07:18:12.000Z</time>
      </trkpt>
      <trkpt lat="43.39847" lon="2.24166">
        <ele>734.2</ele>
        <time>2019-08-11T07:18:13.000Z</time>
      </trkpt>
      <trkpt lat="43.39847" lon="2.24166">
        <ele>734.2</ele>
        <time>2019-08-11T07:18:14.000Z</time>
      </trkpt>
      <trkpt lat="43.39847" lon="2.24166">
        <ele>734.2</ele>
        <time>2019-08-11T07:18:15.000Z</time>
      </trkpt>
      <trkpt lat="43.39847" lon="2.24166">
        <ele>734.2</ele>
        <time>2019-08-11T07:18:16.000Z</time>
      </trkpt>
      <trkpt lat="43.39847" lon="2.24166">
        <ele>734.2</ele>
        <time>2019-08-11T07:18:17.000Z</time>
      </trkpt>
      <trkpt lat="43.39847" lon="2.24166">
        <ele>734.2</ele>
        <time>2019-08-11T07:18:18.000Z</time>
      </trkpt>
      <trkpt lat="43.39848" lon="2.24166">
        <ele>734.2</ele>
        <time>2019-08-11T07:18:19.000Z</time>
      </trkpt>
      <trkpt lat="43.39848" lon="2.24165">
        <ele>734.2</ele>
        <time>2019-08-11T07:18:20.000Z</time>
      </trkpt>
      <trkpt lat="43.39848" lon="2.24164">
        <ele>734.2</ele>
        <time>2019-08-11T07:18:21.000Z</time>
      </trkpt>
      <trkpt lat="43.39848" lon="2.24164">
        <ele>734.3</ele>
        <time>2019-08-11T07:18:22.000Z</time>
      </trkpt>
      <trkpt lat="43.39849" lon="2.24163">
        <ele>734.3</ele>
        <time>2019-08-11T07:18:23.000Z</time>
      </trkpt>
      <trkpt lat="43.39849" lon="2.24162">
        <ele>734.3</ele>
        <time>2019-08-11T07:18:24.000Z</time>
      </trkpt>
      <trkpt lat="43.39849" lon="2.24161">
        <ele>734.4</ele>
        <time>2019-08-11T07:18:25.000Z</time>
      </trkpt>
      <trkpt lat="43.39849" lon="2.2416">
        <ele>734.4</ele>
        <time>2019-08-11T07:18:26.000Z</time>
      </trkpt>
      <trkpt lat="43.3985" lon="2.24159">
        <ele>734.4</ele>
        <time>2019-08-11T07:18:27.000Z</time>
      </trkpt>
      <trkpt lat="43.3985" lon="2.24159">
        <ele>734.5</ele>
        <time>2019-08-11T07:18:28.000Z</time>
      </trkpt>
      <trkpt lat="43.3985" lon="2.24158">
        <ele>734.5</ele>
        <time>2019-08-11T07:18:29.000Z</time>
      </trkpt>
      <trkpt lat="43.39849" lon="2.24158">
        <ele>734.5</ele>
        <time>2019-08-11T07:18:30.000Z</time>
      </trkpt>
      <trkpt lat="43.39849" lon="2.24158">
        <ele>734.5</ele>
        <time>2019-08-11T07:18:31.000Z</time>
      </trkpt>
      <trkpt lat="43.39849" lon="2.24157">
        <ele>734.6</ele>
        <time>2019-08-11T07:18:32.000Z</time>
      </trkpt>
      <trkpt lat="43.39849" lon="2.24157">
        <ele>734.6</ele>
        <time>2019-08-11T07:18:33.000Z</time>
      </trkpt>
      <trkpt lat="43.39848" lon="2.24156">
        <ele>734.7</ele>
        <time>2019-08-11T07:18:34.000Z</time>
      </trkpt>
      <trkpt lat="43.39848" lon="2.24156">
        <ele>734.7</ele>
        <time>2019-08-11T07:18:35.000Z</time>
      </trkpt>
      <trkpt lat="43.39847" lon="2.24155">
        <ele>734.8</ele>
        <time>2019-08-11T07:18:36.000Z</time>
      </trkpt>
      <trkpt lat="43.39847" lon="2.24154">
        <ele>734.8</ele>
        <time>2019-08-11T07:18:37.000Z</time>
      </trkpt>
      <trkpt lat="43.39846" lon="2.24153">
        <ele>734.9</ele>
        <time>2019-08-11T07:18:38.000Z</time>
      </trkpt>
      <trkpt lat="43.39846" lon="2.24152">
        <ele>735</ele>
        <time>2019-08-11T07:18:39.000Z</time>
      </trkpt>
      <trkpt lat="43.39845" lon="2.24151">
        <ele>735.1</ele>
        <time>2019-08-11T07:18:40.000Z</time>
      </trkpt>
      <trkpt lat="43.39844" lon="2.2415">
        <ele>735.2</ele>
        <time>2019-08-11T07:18:41.000Z</time>
      </trkpt>
      <trkpt lat="43.39844" lon="2.24149">
        <ele>735.2</ele>
        <time>2019-08-11T07:18:42.000Z</time>
      </trkpt>
      <trkpt lat="43.39843" lon="2.24148">
        <ele>735.3</ele>
        <time>2019-08-11T07:18:43.000Z</time>
      </trkpt>
      <trkpt lat="43.39843" lon="2.24147">
        <ele>735.4</ele>
        <time>2019-08-11T07:18:44.000Z</time>
      </trkpt>
      <trkpt lat="43.39842" lon="2.24146">
        <ele>735.4</ele>
        <time>2019-08-11T07:18:45.000Z</time>
      </trkpt>
      <trkpt lat="43.39842" lon="2.24145">
        <ele>735.5</ele>
        <time>2019-08-11T07:18:46.000Z</time>
      </trkpt>
      <trkpt lat="43.39841" lon="2.24143">
        <ele>735.6</ele>
        <time>2019-08-11T07:18:47.000Z</time>
      </trkpt>
      <trkpt lat="43.39841" lon="2.24142">
        <ele>735.6</ele>
        <time>2019-08-11T07:18:48.000Z</time>
      </trkpt>
      <trkpt lat="43.39842" lon="2.2414">
        <ele>735.7</ele>
        <time>2019-08-11T07:18:49.000Z</time>
      </trkpt>
      <trkpt lat="43.39842" lon="2.24138">
        <ele>735.8</ele>
        <time>2019-08-11T07:18:50.000Z</time>
      </trkpt>
      <trkpt lat="43.39842" lon="2.24137">
        <ele>735.9</ele>
        <time>2019-08-11T07:18:51.000Z</time>
      </trkpt>
      <trkpt lat="43.39843" lon="2.24135">
        <ele>735.9</ele>
        <time>2019-08-11T07:18:52.000Z</time>
      </trkpt>
      <trkpt lat="43.39843" lon="2.24133">
        <ele>736</ele>
        <time>2019-08-11T07:18:53.000Z</time>
      </trkpt>
      <trkpt lat="43.39844" lon="2.24132">
        <ele>736</ele>
        <time>2019-08-11T07:18:54.000Z</time>
      </trkpt>
      <trkpt lat="43.39844" lon="2.24131">
        <ele>736.1</ele>
        <time>2019-08-11T07:18:55.000Z</time>
      </trkpt>
      <trkpt lat="43.39844" lon="2.2413">
        <ele>736.1</ele>
        <time>2019-08-11T07:18:56.000Z</time>
      </trkpt>
      <trkpt lat="43.39844" lon="2.2413">
        <ele>736.1</ele>
        <time>2019-08-11T07:18:57.000Z</time>
      </trkpt>
      <trkpt lat="43.39844" lon="2.24129">
        <ele>736.2</ele>
        <time>2019-08-11T07:18:58.000Z</time>
      </trkpt>
      <trkpt lat="43.39844" lon="2.24129">
        <ele>736.2</ele>
        <time>2019-08-11T07:18:59.000Z</time>
      </trkpt>
      <trkpt lat="43.39844" lon="2.24129">
        <ele>736.2</ele>
        <time>2019-08-11T07:19:00.000Z</time>
      </trkpt>
      <trkpt lat="43.39844" lon="2.24128">
        <ele>736.2</ele>
        <time>2019-08-11T07:19:01.000Z</time>
      </trkpt>
      <trkpt lat="43.39844" lon="2.24128">
        <ele>736.2</ele>
        <time>2019-08-11T07:19:02.000Z</time>
      </trkpt>
      <trkpt lat="43.39844" lon="2.24127">
        <ele>736.3</ele>
        <time>2019-08-11T07:19:03.000Z</time>
      </trkpt>
      <trkpt lat="43.39844" lon="2.24127">
        <ele>736.3</ele>
        <time>2019-08-11T07:19:04.000Z</time>
      </trkpt>
      <trkpt lat="43.39845" lon="2.24126">
        <ele>736.3</ele>
        <time>2019-08-11T07:19:05.000Z</time>
      </trkpt>
      <trkpt lat="43.39845" lon="2.24124">
        <ele>736.4</ele>
        <time>2019-08-11T07:19:06.000Z</time>
      </trkpt>
      <trkpt lat="43.39845" lon="2.24123">
        <ele>736.4</ele>
        <time>2019-08-11T07:19:07.000Z</time>
      </trkpt>
      <trkpt lat="43.39846" lon="2.24122">
        <ele>736.5</ele>
        <time>2019-08-11T07:19:08.000Z</time>
      </trkpt>
      <trkpt lat="43.39846" lon="2.2412">
        <ele>736.6</ele>
        <time>2019-08-11T07:19:09.000Z</time>
      </trkpt>
      <trkpt lat="43.39847" lon="2.24119">
        <ele>736.7</ele>
        <time>2019-08-11T07:19:10.000Z</time>
      </trkpt>
      <trkpt lat="43.39847" lon="2.24117">
        <ele>736.8</ele>
        <time>2019-08-11T07:19:11.000Z</time>
      </trkpt>
      <trkpt lat="43.39848" lon="2.24115">
        <ele>736.9</ele>
        <time>2019-08-11T07:19:12.000Z</time>
      </trkpt>
      <trkpt lat="43.39848" lon="2.24113">
        <ele>737</ele>
        <time>2019-08-11T07:19:13.000Z</time>
      </trkpt>
      <trkpt lat="43.39848" lon="2.24111">
        <ele>737.1</ele>
        <time>2019-08-11T07:19:14.000Z</time>
      </trkpt>
      <trkpt lat="43.39848" lon="2.24109">
        <ele>737.2</ele>
        <time>2019-08-11T07:19:15.000Z</time>
      </trkpt>
      <trkpt lat="43.39848" lon="2.24106">
        <ele>737.3</ele>
        <time>2019-08-11T07:19:16.000Z</time>
      </trkpt>
      <trkpt lat="43.39848" lon="2.24104">
        <ele>737.4</ele>
        <time>2019-08-11T07:19:17.000Z</time>
      </trkpt>
      <trkpt lat="43.39847" lon="2.24102">
        <ele>737.5</ele>
        <time>2019-08-11T07:19:18.000Z</time>
      </trkpt>
      <trkpt lat="43.39846" lon="2.24099">
        <ele>737.7</ele>
        <time>2019-08-11T07:19:19.000Z</time>
      </trkpt>
      <trkpt lat="43.39846" lon="2.24097">
        <ele>737.7</ele>
        <time>2019-08-11T07:19:20.000Z</time>
      </trkpt>
      <trkpt lat="43.39844" lon="2.24095">
        <ele>737.8</ele>
        <time>2019-08-11T07:19:21.000Z</time>
      </trkpt>
      <trkpt lat="43.39843" lon="2.24092">
        <ele>737.9</ele>
        <time>2019-08-11T07:19:22.000Z</time>
      </trkpt>
      <trkpt lat="43.39842" lon="2.2409">
        <ele>738</ele>
        <time>2019-08-11T07:19:23.000Z</time>
      </trkpt>
      <trkpt lat="43.39841" lon="2.24088">
        <ele>738.1</ele>
        <time>2019-08-11T07:19:24.000Z</time>
      </trkpt>
      <trkpt lat="43.3984" lon="2.24085">
        <ele>738.1</ele>
        <time>2019-08-11T07:19:25.000Z</time>
      </trkpt>
      <trkpt lat="43.39838" lon="2.24083">
        <ele>738.2</ele>
        <time>2019-08-11T07:19:26.000Z</time>
      </trkpt>
      <trkpt lat="43.39837" lon="2.24081">
        <ele>738.2</ele>
        <time>2019-08-11T07:19:27.000Z</time>
      </trkpt>
      <trkpt lat="43.39836" lon="2.24078">
        <ele>738.2</ele>
        <time>2019-08-11T07:19:28.000Z</time>
      </trkpt>
      <trkpt lat="43.39835" lon="2.24076">
        <ele>738.2</ele>
        <time>2019-08-11T07:19:29.000Z</time>
      </trkpt>
      <trkpt lat="43.39834" lon="2.24073">
        <ele>738.3</ele>
        <time>2019-08-11T07:19:30.000Z</time>
      </trkpt>
      <trkpt lat="43.39833" lon="2.2407">
        <ele>738.3</ele>
        <time>2019-08-11T07:19:31.000Z</time>
      </trkpt>
      <trkpt lat="43.39831" lon="2.24068">
        <ele>738.5</ele>
        <time>2019-08-11T07:19:32.000Z</time>
      </trkpt>
      <trkpt lat="43.3983" lon="2.24065">
        <ele>738.6</ele>
        <time>2019-08-11T07:19:33.000Z</time>
      </trkpt>
      <trkpt lat="43.39829" lon="2.24062">
        <ele>738.7</ele>
        <time>2019-08-11T07:19:34.000Z</time>
      </trkpt>
      <trkpt lat="43.39828" lon="2.24059">
        <ele>738.8</ele>
        <time>2019-08-11T07:19:35.000Z</time>
      </trkpt>
      <trkpt lat="43.39826" lon="2.24056">
        <ele>739</ele>
        <time>2019-08-11T07:19:36.000Z</time>
      </trkpt>
      <trkpt lat="43.39825" lon="2.24053">
        <ele>739.1</ele>
        <time>2019-08-11T07:19:37.000Z</time>
      </trkpt>
      <trkpt lat="43.39824" lon="2.24049">
        <ele>739.2</ele>
        <time>2019-08-11T07:19:38.000Z</time>
      </trkpt>
      <trkpt lat="43.39823" lon="2.24046">
        <ele>739.3</ele>
        <time>2019-08-11T07:19:39.000Z</time>
      </trkpt>
      <trkpt lat="43.39822" lon="2.24043">
        <ele>739.4</ele>
        <time>2019-08-11T07:19:40.000Z</time>
      </trkpt>
      <trkpt lat="43.39821" lon="2.2404">
        <ele>739.6</ele>
        <time>2019-08-11T07:19:41.000Z</time>
      </trkpt>
      <trkpt lat="43.3982" lon="2.24037">
        <ele>739.7</ele>
        <time>2019-08-11T07:19:42.000Z</time>
      </trkpt>
      <trkpt lat="43.39819" lon="2.24034">
        <ele>739.8</ele>
        <time>2019-08-11T07:19:43.000Z</time>
      </trkpt>
      <trkpt lat="43.39818" lon="2.24031">
        <ele>739.9</ele>
        <time>2019-08-11T07:19:44.000Z</time>
      </trkpt>
      <trkpt lat="43.39817" lon="2.24027">
        <ele>740</ele>
        <time>2019-08-11T07:19:45.000Z</time>
      </trkpt>
      <trkpt lat="43.39817" lon="2.24024">
        <ele>740.1</ele>
        <time>2019-08-11T07:19:46.000Z</time>
      </trkpt>
      <trkpt lat="43.39816" lon="2.24021">
        <ele>740.2</ele>
        <time>2019-08-11T07:19:47.000Z</time>
      </trkpt>
      <trkpt lat="43.39815" lon="2.24018">
        <ele>740.3</ele>
        <time>2019-08-11T07:19:48.000Z</time>
      </trkpt>
      <trkpt lat="43.39814" lon="2.24015">
        <ele>740.4</ele>
        <time>2019-08-11T07:19:49.000Z</time>
      </trkpt>
      <trkpt lat="43.39813" lon="2.24012">
        <ele>740.5</ele>
        <time>2019-08-11T07:19:50.000Z</time>
      </trkpt>
      <trkpt lat="43.39812" lon="2.24009">
        <ele>740.6</ele>
        <time>2019-08-11T07:19:51.000Z</time>
      </trkpt>
      <trkpt lat="43.39811" lon="2.24006">
        <ele>740.7</ele>
        <time>2019-08-11T07:19:52.000Z</time>
      </trkpt>
      <trkpt lat="43.3981" lon="2.24003">
        <ele>740.8</ele>
        <time>2019-08-11T07:19:53.000Z</time>
      </trkpt>
      <trkpt lat="43.3981" lon="2.24">
        <ele>740.9</ele>
        <time>2019-08-11T07:19:54.000Z</time>
      </trkpt>
      <trkpt lat="43.39809" lon="2.23997">
        <ele>741.1</ele>
        <time>2019-08-11T07:19:55.000Z</time>
      </trkpt>
      <trkpt lat="43.39808" lon="2.23994">
        <ele>741.3</ele>
        <time>2019-08-11T07:19:56.000Z</time>
      </trkpt>
      <trkpt lat="43.39807" lon="2.2399">
        <ele>741.5</ele>
        <time>2019-08-11T07:19:57.000Z</time>
      </trkpt>
      <trkpt lat="43.39806" lon="2.23987">
        <ele>741.6</ele>
        <time>2019-08-11T07:19:58.000Z</time>
      </trkpt>
      <trkpt lat="43.39806" lon="2.23984">
        <ele>741.8</ele>
        <time>2019-08-11T07:19:59.000Z</time>
      </trkpt>
      <trkpt lat="43.39805" lon="2.2398">
        <ele>742</ele>
        <time>2019-08-11T07:20:00.000Z</time>
      </trkpt>
      <trkpt lat="43.39805" lon="2.23977">
        <ele>742.2</ele>
        <time>2019-08-11T07:20:01.000Z</time>
      </trkpt>
      <trkpt lat="43.39804" lon="2.23973">
        <ele>742.4</ele>
        <time>2019-08-11T07:20:02.000Z</time>
      </trkpt>
      <trkpt lat="43.39804" lon="2.23969">
        <ele>742.6</ele>
        <time>2019-08-11T07:20:03.000Z</time>
      </trkpt>
      <trkpt lat="43.39804" lon="2.23966">
        <ele>742.8</ele>
        <time>2019-08-11T07:20:04.000Z</time>
      </trkpt>
      <trkpt lat="43.39804" lon="2.23962">
        <ele>743</ele>
        <time>2019-08-11T07:20:05.000Z</time>
      </trkpt>
      <trkpt lat="43.39803" lon="2.23958">
        <ele>743.2</ele>
        <time>2019-08-11T07:20:06.000Z</time>
      </trkpt>
      <trkpt lat="43.39803" lon="2.23955">
        <ele>743.4</ele>
        <time>2019-08-11T07:20:07.000Z</time>
      </trkpt>
      <trkpt lat="43.39803" lon="2.23952">
        <ele>743.6</ele>
        <time>2019-08-11T07:20:08.000Z</time>
      </trkpt>
      <trkpt lat="43.39802" lon="2.23948">
        <ele>743.8</ele>
        <time>2019-08-11T07:20:09.000Z</time>
      </trkpt>
      <trkpt lat="43.39802" lon="2.23945">
        <ele>743.9</ele>
        <time>2019-08-11T07:20:10.000Z</time>
      </trkpt>
      <trkpt lat="43.39801" lon="2.23942">
        <ele>744.1</ele>
        <time>2019-08-11T07:20:11.000Z</time>
      </trkpt>
      <trkpt lat="43.398" lon="2.23939">
        <ele>744.3</ele>
        <time>2019-08-11T07:20:12.000Z</time>
      </trkpt>
      <trkpt lat="43.398" lon="2.23936">
        <ele>744.4</ele>
        <time>2019-08-11T07:20:13.000Z</time>
      </trkpt>
      <trkpt lat="43.39799" lon="2.23933">
        <ele>744.6</ele>
        <time>2019-08-11T07:20:14.000Z</time>
      </trkpt>
      <trkpt lat="43.39798" lon="2.2393">
        <ele>744.8</ele>
        <time>2019-08-11T07:20:15.000Z</time>
      </trkpt>
      <trkpt lat="43.39797" lon="2.23927">
        <ele>744.9</ele>
        <time>2019-08-11T07:20:16.000Z</time>
      </trkpt>
      <trkpt lat="43.39797" lon="2.23924">
        <ele>745.1</ele>
        <time>2019-08-11T07:20:17.000Z</time>
      </trkpt>
      <trkpt lat="43.39796" lon="2.23921">
        <ele>745.2</ele>
        <time>2019-08-11T07:20:18.000Z</time>
      </trkpt>
      <trkpt lat="43.39795" lon="2.23918">
        <ele>745.4</ele>
        <time>2019-08-11T07:20:19.000Z</time>
      </trkpt>
      <trkpt lat="43.39795" lon="2.23915">
        <ele>745.6</ele>
        <time>2019-08-11T07:20:20.000Z</time>
      </trkpt>
      <trkpt lat="43.39794" lon="2.23911">
        <ele>745.7</ele>
        <time>2019-08-11T07:20:21.000Z</time>
      </trkpt>
      <trkpt lat="43.39794" lon="2.23908">
        <ele>745.9</ele>
        <time>2019-08-11T07:20:22.000Z</time>
      </trkpt>
      <trkpt lat="43.39794" lon="2.23905">
        <ele>746</ele>
        <time>2019-08-11T07:20:23.000Z</time>
      </trkpt>
      <trkpt lat="43.39794" lon="2.23902">
        <ele>746.2</ele>
        <time>2019-08-11T07:20:24.000Z</time>
      </trkpt>
      <trkpt lat="43.39794" lon="2.23898">
        <ele>746.4</ele>
        <time>2019-08-11T07:20:25.000Z</time>
      </trkpt>
      <trkpt lat="43.39794" lon="2.23895">
        <ele>746.5</ele>
        <time>2019-08-11T07:20:26.000Z</time>
      </trkpt>
      <trkpt lat="43.39794" lon="2.23892">
        <ele>746.7</ele>
        <time>2019-08-11T07:20:27.000Z</time>
      </trkpt>
      <trkpt lat="43.39794" lon="2.23888">
        <ele>746.9</ele>
        <time>2019-08-11T07:20:28.000Z</time>
      </trkpt>
      <trkpt lat="43.39794" lon="2.23885">
        <ele>747</ele>
        <time>2019-08-11T07:20:29.000Z</time>
      </trkpt>
      <trkpt lat="43.39794" lon="2.23881">
        <ele>747.2</ele>
        <time>2019-08-11T07:20:30.000Z</time>
      </trkpt>
      <trkpt lat="43.39794" lon="2.23878">
        <ele>747.4</ele>
        <time>2019-08-11T07:20:31.000Z</time>
      </trkpt>
      <trkpt lat="43.39794" lon="2.23874">
        <ele>747.6</ele>
        <time>2019-08-11T07:20:32.000Z</time>
      </trkpt>
      <trkpt lat="43.39793" lon="2.2387">
        <ele>747.7</ele>
        <time>2019-08-11T07:20:33.000Z</time>
      </trkpt>
      <trkpt lat="43.39793" lon="2.23867">
        <ele>747.9</ele>
        <time>2019-08-11T07:20:34.000Z</time>
      </trkpt>
      <trkpt lat="43.39793" lon="2.23863">
        <ele>748.1</ele>
        <time>2019-08-11T07:20:35.000Z</time>
      </trkpt>
      <trkpt lat="43.39792" lon="2.2386">
        <ele>748.2</ele>
        <time>2019-08-11T07:20:36.000Z</time>
      </trkpt>
      <trkpt lat="43.39791" lon="2.23856">
        <ele>748.4</ele>
        <time>2019-08-11T07:20:37.000Z</time>
      </trkpt>
      <trkpt lat="43.39791" lon="2.23853">
        <ele>748.6</ele>
        <time>2019-08-11T07:20:38.000Z</time>
      </trkpt>
      <trkpt lat="43.39791" lon="2.23849">
        <ele>748.7</ele>
        <time>2019-08-11T07:20:39.000Z</time>
      </trkpt>
      <trkpt lat="43.39791" lon="2.23846">
        <ele>748.9</ele>
        <time>2019-08-11T07:20:40.000Z</time>
      </trkpt>
      <trkpt lat="43.3979" lon="2.23843">
        <ele>749</ele>
        <time>2019-08-11T07:20:41.000Z</time>
      </trkpt>
      <trkpt lat="43.3979" lon="2.23839">
        <ele>749.2</ele>
        <time>2019-08-11T07:20:42.000Z</time>
      </trkpt>
      <trkpt lat="43.3979" lon="2.23836">
        <ele>749.4</ele>
        <time>2019-08-11T07:20:43.000Z</time>
      </trkpt>
      <trkpt lat="43.3979" lon="2.23832">
        <ele>749.6</ele>
        <time>2019-08-11T07:20:44.000Z</time>
      </trkpt>
      <trkpt lat="43.3979" lon="2.23828">
        <ele>749.7</ele>
        <time>2019-08-11T07:20:45.000Z</time>
      </trkpt>
      <trkpt lat="43.3979" lon="2.23824">
        <ele>749.9</ele>
        <time>2019-08-11T07:20:46.000Z</time>
      </trkpt>
      <trkpt lat="43.3979" lon="2.2382">
        <ele>750.1</ele>
        <time>2019-08-11T07:20:47.000Z</time>
      </trkpt>
      <trkpt lat="43.3979" lon="2.23816">
        <ele>750.3</ele>
        <time>2019-08-11T07:20:48.000Z</time>
      </trkpt>
      <trkpt lat="43.3979" lon="2.23812">
        <ele>750.5</ele>
        <time>2019-08-11T07:20:49.000Z</time>
      </trkpt>
      <trkpt lat="43.3979" lon="2.23808">
        <ele>750.7</ele>
        <time>2019-08-11T07:20:50.000Z</time>
      </trkpt>
      <trkpt lat="43.3979" lon="2.23804">
        <ele>750.8</ele>
        <time>2019-08-11T07:20:51.000Z</time>
      </trkpt>
      <trkpt lat="43.3979" lon="2.23801">
        <ele>751</ele>
        <time>2019-08-11T07:20:52.000Z</time>
      </trkpt>
      <trkpt lat="43.3979" lon="2.23797">
        <ele>751.2</ele>
        <time>2019-08-11T07:20:53.000Z</time>
      </trkpt>
      <trkpt lat="43.3979" lon="2.23793">
        <ele>751.4</ele>
        <time>2019-08-11T07:20:54.000Z</time>
      </trkpt>
      <trkpt lat="43.3979" lon="2.23789">
        <ele>751.5</ele>
        <time>2019-08-11T07:20:55.000Z</time>
      </trkpt>
      <trkpt lat="43.39789" lon="2.23786">
        <ele>751.7</ele>
        <time>2019-08-11T07:20:56.000Z</time>
      </trkpt>
      <trkpt lat="43.39789" lon="2.23782">
        <ele>751.9</ele>
        <time>2019-08-11T07:20:57.000Z</time>
      </trkpt>
      <trkpt lat="43.39789" lon="2.23778">
        <ele>752</ele>
        <time>2019-08-11T07:20:58.000Z</time>
      </trkpt>
      <trkpt lat="43.39788" lon="2.23775">
        <ele>752.2</ele>
        <time>2019-08-11T07:20:59.000Z</time>
      </trkpt>
      <trkpt lat="43.39787" lon="2.23771">
        <ele>752.3</ele>
        <time>2019-08-11T07:21:00.000Z</time>
      </trkpt>
      <trkpt lat="43.39787" lon="2.23768">
        <ele>752.4</ele>
        <time>2019-08-11T07:21:01.000Z</time>
      </trkpt>
      <trkpt lat="43.39786" lon="2.23764">
        <ele>752.5</ele>
        <time>2019-08-11T07:21:02.000Z</time>
      </trkpt>
      <trkpt lat="43.39785" lon="2.23761">
        <ele>752.6</ele>
        <time>2019-08-11T07:21:03.000Z</time>
      </trkpt>
      <trkpt lat="43.39785" lon="2.23758">
        <ele>752.7</ele>
        <time>2019-08-11T07:21:04.000Z</time>
      </trkpt>
      <trkpt lat="43.39784" lon="2.23755">
        <ele>752.8</ele>
        <time>2019-08-11T07:21:05.000Z</time>
      </trkpt>
      <trkpt lat="43.39783" lon="2.23752">
        <ele>752.9</ele>
        <time>2019-08-11T07:21:06.000Z</time>
      </trkpt>
      <trkpt lat="43.39783" lon="2.23749">
        <ele>752.9</ele>
        <time>2019-08-11T07:21:07.000Z</time>
      </trkpt>
      <trkpt lat="43.39782" lon="2.23747">
        <ele>752.8</ele>
        <time>2019-08-11T07:21:08.000Z</time>
      </trkpt>
      <trkpt lat="43.39782" lon="2.23744">
        <ele>752.6</ele>
        <time>2019-08-11T07:21:09.000Z</time>
      </trkpt>
      <trkpt lat="43.39781" lon="2.23742">
        <ele>752.5</ele>
        <time>2019-08-11T07:21:10.000Z</time>
      </trkpt>
      <trkpt lat="43.39781" lon="2.2374">
        <ele>752.4</ele>
        <time>2019-08-11T07:21:11.000Z</time>
      </trkpt>
      <trkpt lat="43.39781" lon="2.23738">
        <ele>752.2</ele>
        <time>2019-08-11T07:21:12.000Z</time>
      </trkpt>
      <trkpt lat="43.3978" lon="2.23736">
        <ele>752.1</ele>
        <time>2019-08-11T07:21:13.000Z</time>
      </trkpt>
      <trkpt lat="43.3978" lon="2.23735">
        <ele>752.1</ele>
        <time>2019-08-11T07:21:14.000Z</time>
      </trkpt>
      <trkpt lat="43.3978" lon="2.23733">
        <ele>752</ele>
        <time>2019-08-11T07:21:15.000Z</time>
      </trkpt>
      <trkpt lat="43.3978" lon="2.23732">
        <ele>751.9</ele>
        <time>2019-08-11T07:21:16.000Z</time>
      </trkpt>
      <trkpt lat="43.3978" lon="2.23731">
        <ele>751.9</ele>
        <time>2019-08-11T07:21:17.000Z</time>
      </trkpt>
      <trkpt lat="43.3978" lon="2.2373">
        <ele>751.8</ele>
        <time>2019-08-11T07:21:18.000Z</time>
      </trkpt>
      <trkpt lat="43.3978" lon="2.2373">
        <ele>751.8</ele>
        <time>2019-08-11T07:21:19.000Z</time>
      </trkpt>
      <trkpt lat="43.3978" lon="2.23729">
        <ele>751.8</ele>
        <time>2019-08-11T07:21:20.000Z</time>
      </trkpt>
      <trkpt lat="43.3978" lon="2.23729">
        <ele>751.8</ele>
        <time>2019-08-11T07:21:21.000Z</time>
      </trkpt>
      <trkpt lat="43.3978" lon="2.23729">
        <ele>751.8</ele>
        <time>2019-08-11T07:21:22.000Z</time>
      </trkpt>
      <trkpt lat="43.3978" lon="2.23729">
        <ele>751.8</ele>
        <time>2019-08-11T07:21:23.000Z</time>
      </trkpt>
      <trkpt lat="43.3978" lon="2.23729">
        <ele>751.8</ele>
        <time>2019-08-11T07:21:24.000Z</time>
      </trkpt>
      <trkpt lat="43.3978" lon="2.23729">
        <ele>751.8</ele>
        <time>2019-08-11T07:21:25.000Z</time>
      </trkpt>
      <trkpt lat="43.3978" lon="2.23729">
        <ele>751.8</ele>
        <time>2019-08-11T07:21:26.000Z</time>
      </trkpt>
      <trkpt lat="43.3978" lon="2.23729">
        <ele>751.8</ele>
        <time>2019-08-11T07:21:27.000Z</time>
      </trkpt>
      <trkpt lat="43.3978" lon="2.23729">
        <ele>751.8</ele>
        <time>2019-08-11T07:21:28.000Z</time>
      </trkpt>
      <trkpt lat="43.3978" lon="2.23728">
        <ele>751.8</ele>
        <time>2019-08-11T07:21:29.000Z</time>
      </trkpt>
      <trkpt lat="43.3978" lon="2.23728">
        <ele>751.8</ele>
        <time>2019-08-11T07:21:30.000Z</time>
      </trkpt>
      <trkpt lat="43.3978" lon="2.23728">
        <ele>751.8</ele>
        <time>2019-08-11T07:21:31.000Z</time>
      </trkpt>
      <trkpt lat="43.3978" lon="2.23728">
        <ele>751.8</ele>
        <time>2019-08-11T07:21:32.000Z</time>
      </trkpt>
      <trkpt lat="43.3978" lon="2.23728">
        <ele>751.8</ele>
        <time>2019-08-11T07:21:33.000Z</time>
      </trkpt>
      <trkpt lat="43.3978" lon="2.23728">
        <ele>751.8</ele>
        <time>2019-08-11T07:21:34.000Z</time>
      </trkpt>
      <trkpt lat="43.3978" lon="2.23728">
        <ele>751.8</ele>
        <time>2019-08-11T07:21:35.000Z</time>
      </trkpt>
      <trkpt lat="43.3978" lon="2.23728">
        <ele>751.8</ele>
        <time>2019-08-11T07:21:36.000Z</time>
      </trkpt>
      <trkpt lat="43.3978" lon="2.23728">
        <ele>751.8</ele>
        <time>2019-08-11T07:21:37.000Z</time>
      </trkpt>
      <trkpt lat="43.3978" lon="2.23728">
        <ele>751.8</ele>
        <time>2019-08-11T07:21:38.000Z</time>
      </trkpt>
      <trkpt lat="43.3978" lon="2.23728">
        <ele>751.8</ele>
        <time>2019-08-11T07:21:39.000Z</time>
      </trkpt>
      <trkpt lat="43.3978" lon="2.23728">
        <ele>751.8</ele>
        <time>2019-08-11T07:21:40.000Z</time>
      </trkpt>
      <trkpt lat="43.3978" lon="2.23728">
        <ele>751.8</ele>
        <time>2019-08-11T07:21:41.000Z</time>
      </trkpt>
      <trkpt lat="43.3978" lon="2.23728">
        <ele>751.8</ele>
        <time>2019-08-11T07:21:42.000Z</time>
      </trkpt>
      <trkpt lat="43.3978" lon="2.23728">
        <ele>751.8</ele>
        <time>2019-08-11T07:21:43.000Z</time>
      </trkpt>
      <trkpt lat="43.3978" lon="2.23728">
        <ele>751.7</ele>
        <time>2019-08-11T07:21:44.000Z</time>
      </trkpt>
      <trkpt lat="43.39779" lon="2.23728">
        <ele>751.7</ele>
        <time>2019-08-11T07:21:45.000Z</time>
      </trkpt>
      <trkpt lat="43.39779" lon="2.23728">
        <ele>751.7</ele>
        <time>2019-08-11T07:21:46.000Z</time>
      </trkpt>
      <trkpt lat="43.39779" lon="2.23728">
        <ele>751.7</ele>
        <time>2019-08-11T07:21:47.000Z</time>
      </trkpt>
      <trkpt lat="43.39778" lon="2.23728">
        <ele>751.6</ele>
        <time>2019-08-11T07:21:48.000Z</time>
      </trkpt>
      <trkpt lat="43.39777" lon="2.23728">
        <ele>751.6</ele>
        <time>2019-08-11T07:21:49.000Z</time>
      </trkpt>
      <trkpt lat="43.39777" lon="2.23728">
        <ele>751.6</ele>
        <time>2019-08-11T07:21:50.000Z</time>
      </trkpt>
      <trkpt lat="43.39776" lon="2.23729">
        <ele>751.5</ele>
        <time>2019-08-11T07:21:51.000Z</time>
      </trkpt>
      <trkpt lat="43.39776" lon="2.23729">
        <ele>751.5</ele>
        <time>2019-08-11T07:21:52.000Z</time>
      </trkpt>
      <trkpt lat="43.39775" lon="2.23729">
        <ele>751.5</ele>
        <time>2019-08-11T07:21:53.000Z</time>
      </trkpt>
      <trkpt lat="43.39775" lon="2.2373">
        <ele>751.5</ele>
        <time>2019-08-11T07:21:54.000Z</time>
      </trkpt>
      <trkpt lat="43.39774" lon="2.2373">
        <ele>751.5</ele>
        <time>2019-08-11T07:21:55.000Z</time>
      </trkpt>
      <trkpt lat="43.39773" lon="2.23731">
        <ele>751.5</ele>
        <time>2019-08-11T07:21:56.000Z</time>
      </trkpt>
      <trkpt lat="43.39773" lon="2.23731">
        <ele>751.5</ele>
        <time>2019-08-11T07:21:57.000Z</time>
      </trkpt>
      <trkpt lat="43.39772" lon="2.23732">
        <ele>751.4</ele>
        <time>2019-08-11T07:21:58.000Z</time>
      </trkpt>
      <trkpt lat="43.39772" lon="2.23732">
        <ele>751.4</ele>
        <time>2019-08-11T07:21:59.000Z</time>
      </trkpt>
      <trkpt lat="43.39771" lon="2.23732">
        <ele>751.4</ele>
        <time>2019-08-11T07:22:00.000Z</time>
      </trkpt>
      <trkpt lat="43.3977" lon="2.23731">
        <ele>751.3</ele>
        <time>2019-08-11T07:22:01.000Z</time>
      </trkpt>
      <trkpt lat="43.3977" lon="2.23731">
        <ele>751.3</ele>
        <time>2019-08-11T07:22:02.000Z</time>
      </trkpt>
      <trkpt lat="43.39769" lon="2.23731">
        <ele>751.2</ele>
        <time>2019-08-11T07:22:03.000Z</time>
      </trkpt>
      <trkpt lat="43.39768" lon="2.2373">
        <ele>751.1</ele>
        <time>2019-08-11T07:22:04.000Z</time>
      </trkpt>
      <trkpt lat="43.39767" lon="2.2373">
        <ele>751.1</ele>
        <time>2019-08-11T07:22:05.000Z</time>
      </trkpt>
      <trkpt lat="43.39767" lon="2.23729">
        <ele>751</ele>
        <time>2019-08-11T07:22:06.000Z</time>
      </trkpt>
      <trkpt lat="43.39766" lon="2.23729">
        <ele>751</ele>
        <time>2019-08-11T07:22:07.000Z</time>
      </trkpt>
      <trkpt lat="43.39765" lon="2.23729">
        <ele>750.9</ele>
        <time>2019-08-11T07:22:08.000Z</time>
      </trkpt>
      <trkpt lat="43.39765" lon="2.23729">
        <ele>750.9</ele>
        <time>2019-08-11T07:22:09.000Z</time>
      </trkpt>
      <trkpt lat="43.39764" lon="2.23729">
        <ele>750.8</ele>
        <time>2019-08-11T07:22:10.000Z</time>
      </trkpt>
      <trkpt lat="43.39763" lon="2.23729">
        <ele>750.8</ele>
        <time>2019-08-11T07:22:11.000Z</time>
      </trkpt>
      <trkpt lat="43.39763" lon="2.23729">
        <ele>750.7</ele>
        <time>2019-08-11T07:22:12.000Z</time>
      </trkpt>
      <trkpt lat="43.39762" lon="2.23728">
        <ele>750.7</ele>
        <time>2019-08-11T07:22:13.000Z</time>
      </trkpt>
      <trkpt lat="43.39761" lon="2.23728">
        <ele>750.6</ele>
        <time>2019-08-11T07:22:14.000Z</time>
      </trkpt>
      <trkpt lat="43.3976" lon="2.23728">
        <ele>750.5</ele>
        <time>2019-08-11T07:22:15.000Z</time>
      </trkpt>
      <trkpt lat="43.39759" lon="2.23728">
        <ele>750.5</ele>
        <time>2019-08-11T07:22:16.000Z</time>
      </trkpt>
      <trkpt lat="43.39758" lon="2.23727">
        <ele>750.4</ele>
        <time>2019-08-11T07:22:17.000Z</time>
      </trkpt>
      <trkpt lat="43.39757" lon="2.23727">
        <ele>750.3</ele>
        <time>2019-08-11T07:22:18.000Z</time>
      </trkpt>
      <trkpt lat="43.39756" lon="2.23726">
        <ele>750.2</ele>
        <time>2019-08-11T07:22:19.000Z</time>
      </trkpt>
      <trkpt lat="43.39755" lon="2.23726">
        <ele>750.1</ele>
        <time>2019-08-11T07:22:20.000Z</time>
      </trkpt>
      <trkpt lat="43.39754" lon="2.23725">
        <ele>750</ele>
        <time>2019-08-11T07:22:21.000Z</time>
      </trkpt>
      <trkpt lat="43.39753" lon="2.23725">
        <ele>750</ele>
        <time>2019-08-11T07:22:22.000Z</time>
      </trkpt>
      <trkpt lat="43.39752" lon="2.23724">
        <ele>749.9</ele>
        <time>2019-08-11T07:22:23.000Z</time>
      </trkpt>
      <trkpt lat="43.39751" lon="2.23724">
        <ele>749.8</ele>
        <time>2019-08-11T07:22:24.000Z</time>
      </trkpt>
      <trkpt lat="43.39749" lon="2.23723">
        <ele>749.7</ele>
        <time>2019-08-11T07:22:25.000Z</time>
      </trkpt>
      <trkpt lat="43.39748" lon="2.23723">
        <ele>749.7</ele>
        <time>2019-08-11T07:22:26.000Z</time>
      </trkpt>
      <trkpt lat="43.39747" lon="2.23722">
        <ele>749.7</ele>
        <time>2019-08-11T07:22:27.000Z</time>
      </trkpt>
      <trkpt lat="43.39746" lon="2.23722">
        <ele>749.8</ele>
        <time>2019-08-11T07:22:28.000Z</time>
      </trkpt>
      <trkpt lat="43.39745" lon="2.23722">
        <ele>749.8</ele>
        <time>2019-08-11T07:22:29.000Z</time>
      </trkpt>
      <trkpt lat="43.39744" lon="2.23721">
        <ele>749.8</ele>
        <time>2019-08-11T07:22:30.000Z</time>
      </trkpt>
      <trkpt lat="43.39743" lon="2.23721">
        <ele>749.8</ele>
        <time>2019-08-11T07:22:31.000Z</time>
      </trkpt>
      <trkpt lat="43.39742" lon="2.2372">
        <ele>749.8</ele>
        <time>2019-08-11T07:22:32.000Z</time>
      </trkpt>
      <trkpt lat="43.39741" lon="2.2372">
        <ele>749.8</ele>
        <time>2019-08-11T07:22:33.000Z</time>
      </trkpt>
      <trkpt lat="43.3974" lon="2.2372">
        <ele>749.8</ele>
        <time>2019-08-11T07:22:34.000Z</time>
      </trkpt>
      <trkpt lat="43.39739" lon="2.23719">
        <ele>749.8</ele>
        <time>2019-08-11T07:22:35.000Z</time>
      </trkpt>
      <trkpt lat="43.39737" lon="2.23719">
        <ele>749.9</ele>
        <time>2019-08-11T07:22:36.000Z</time>
      </trkpt>
      <trkpt lat="43.39736" lon="2.23718">
        <ele>749.9</ele>
        <time>2019-08-11T07:22:37.000Z</time>
      </trkpt>
      <trkpt lat="43.39735" lon="2.23718">
        <ele>749.9</ele>
        <time>2019-08-11T07:22:38.000Z</time>
      </trkpt>
      <trkpt lat="43.39733" lon="2.23717">
        <ele>749.9</ele>
        <time>2019-08-11T07:22:39.000Z</time>
      </trkpt>
      <trkpt lat="43.39732" lon="2.23717">
        <ele>749.9</ele>
        <time>2019-08-11T07:22:40.000Z</time>
      </trkpt>
      <trkpt lat="43.3973" lon="2.23716">
        <ele>749.9</ele>
        <time>2019-08-11T07:22:41.000Z</time>
      </trkpt>
      <trkpt lat="43.39729" lon="2.23716">
        <ele>750</ele>
        <time>2019-08-11T07:22:42.000Z</time>
      </trkpt>
      <trkpt lat="43.39727" lon="2.23715">
        <ele>750</ele>
        <time>2019-08-11T07:22:43.000Z</time>
      </trkpt>
      <trkpt lat="43.39725" lon="2.23714">
        <ele>750</ele>
        <time>2019-08-11T07:22:44.000Z</time>
      </trkpt>
      <trkpt lat="43.39723" lon="2.23713">
        <ele>750</ele>
        <time>2019-08-11T07:22:45.000Z</time>
      </trkpt>
      <trkpt lat="43.39721" lon="2.23713">
        <ele>750.1</ele>
        <time>2019-08-11T07:22:46.000Z</time>
      </trkpt>
      <trkpt lat="43.39719" lon="2.23712">
        <ele>750.1</ele>
        <time>2019-08-11T07:22:47.000Z</time>
      </trkpt>
      <trkpt lat="43.39716" lon="2.23711">
        <ele>750.1</ele>
        <time>2019-08-11T07:22:48.000Z</time>
      </trkpt>
      <trkpt lat="43.39714" lon="2.2371">
        <ele>750.2</ele>
        <time>2019-08-11T07:22:49.000Z</time>
      </trkpt>
      <trkpt lat="43.39712" lon="2.23709">
        <ele>750.2</ele>
        <time>2019-08-11T07:22:50.000Z</time>
      </trkpt>
      <trkpt lat="43.39709" lon="2.23708">
        <ele>750.2</ele>
        <time>2019-08-11T07:22:51.000Z</time>
      </trkpt>
      <trkpt lat="43.39707" lon="2.23707">
        <ele>750.3</ele>
        <time>2019-08-11T07:22:52.000Z</time>
      </trkpt>
      <trkpt lat="43.39705" lon="2.23706">
        <ele>750.3</ele>
        <time>2019-08-11T07:22:53.000Z</time>
      </trkpt>
      <trkpt lat="43.39702" lon="2.23705">
        <ele>750.3</ele>
        <time>2019-08-11T07:22:54.000Z</time>
      </trkpt>
      <trkpt lat="43.397" lon="2.23705">
        <ele>750.4</ele>
        <time>2019-08-11T07:22:55.000Z</time>
      </trkpt>
      <trkpt lat="43.39697" lon="2.23704">
        <ele>750.4</ele>
        <time>2019-08-11T07:22:56.000Z</time>
      </trkpt>
      <trkpt lat="43.39695" lon="2.23703">
        <ele>750.4</ele>
        <time>2019-08-11T07:22:57.000Z</time>
      </trkpt>
      <trkpt lat="43.39693" lon="2.23702">
        <ele>750.5</ele>
        <time>2019-08-11T07:22:58.000Z</time>
      </trkpt>
      <trkpt lat="43.3969" lon="2.23701">
        <ele>750.5</ele>
        <time>2019-08-11T07:22:59.000Z</time>
      </trkpt>
      <trkpt lat="43.39688" lon="2.237">
        <ele>750.5</ele>
        <time>2019-08-11T07:23:00.000Z</time>
      </trkpt>
      <trkpt lat="43.39685" lon="2.23699">
        <ele>750.6</ele>
        <time>2019-08-11T07:23:01.000Z</time>
      </trkpt>
      <trkpt lat="43.39683" lon="2.23697">
        <ele>750.6</ele>
        <time>2019-08-11T07:23:02.000Z</time>
      </trkpt>
      <trkpt lat="43.3968" lon="2.23696">
        <ele>750.6</ele>
        <time>2019-08-11T07:23:03.000Z</time>
      </trkpt>
      <trkpt lat="43.39678" lon="2.23695">
        <ele>750.7</ele>
        <time>2019-08-11T07:23:04.000Z</time>
      </trkpt>
      <trkpt lat="43.39675" lon="2.23694">
        <ele>750.7</ele>
        <time>2019-08-11T07:23:05.000Z</time>
      </trkpt>
      <trkpt lat="43.39673" lon="2.23693">
        <ele>750.7</ele>
        <time>2019-08-11T07:23:06.000Z</time>
      </trkpt>
      <trkpt lat="43.3967" lon="2.23692">
        <ele>750.8</ele>
        <time>2019-08-11T07:23:07.000Z</time>
      </trkpt>
      <trkpt lat="43.39668" lon="2.23691">
        <ele>750.8</ele>
        <time>2019-08-11T07:23:08.000Z</time>
      </trkpt>
      <trkpt lat="43.39665" lon="2.2369">
        <ele>750.8</ele>
        <time>2019-08-11T07:23:09.000Z</time>
      </trkpt>
      <trkpt lat="43.39663" lon="2.23688">
        <ele>750.8</ele>
        <time>2019-08-11T07:23:10.000Z</time>
      </trkpt>
      <trkpt lat="43.3966" lon="2.23687">
        <ele>750.7</ele>
        <time>2019-08-11T07:23:11.000Z</time>
      </trkpt>
      <trkpt lat="43.39657" lon="2.23686">
        <ele>750.7</ele>
        <time>2019-08-11T07:23:12.000Z</time>
      </trkpt>
      <trkpt lat="43.39655" lon="2.23685">
        <ele>750.6</ele>
        <time>2019-08-11T07:23:13.000Z</time>
      </trkpt>
      <trkpt lat="43.39652" lon="2.23684">
        <ele>750.6</ele>
        <time>2019-08-11T07:23:14.000Z</time>
      </trkpt>
      <trkpt lat="43.3965" lon="2.23683">
        <ele>750.5</ele>
        <time>2019-08-11T07:23:15.000Z</time>
      </trkpt>
      <trkpt lat="43.39647" lon="2.23682">
        <ele>750.5</ele>
        <time>2019-08-11T07:23:16.000Z</time>
      </trkpt>
      <trkpt lat="43.39645" lon="2.23681">
        <ele>750.4</ele>
        <time>2019-08-11T07:23:17.000Z</time>
      </trkpt>
      <trkpt lat="43.39642" lon="2.2368">
        <ele>750.3</ele>
        <time>2019-08-11T07:23:18.000Z</time>
      </trkpt>
      <trkpt lat="43.3964" lon="2.23679">
        <ele>750.3</ele>
        <time>2019-08-11T07:23:19.000Z</time>
      </trkpt>
      <trkpt lat="43.39637" lon="2.23678">
        <ele>750.2</ele>
        <time>2019-08-11T07:23:20.000Z</time>
      </trkpt>
      <trkpt lat="43.39635" lon="2.23677">
        <ele>750.1</ele>
        <time>2019-08-11T07:23:21.000Z</time>
      </trkpt>
      <trkpt lat="43.39632" lon="2.23676">
        <ele>750.1</ele>
        <time>2019-08-11T07:23:22.000Z</time>
      </trkpt>
      <trkpt lat="43.3963" lon="2.23675">
        <ele>750</ele>
        <time>2019-08-11T07:23:23.000Z</time>
      </trkpt>
      <trkpt lat="43.39627" lon="2.23674">
        <ele>749.9</ele>
        <time>2019-08-11T07:23:24.000Z</time>
      </trkpt>
      <trkpt lat="43.39625" lon="2.23673">
        <ele>749.8</ele>
        <time>2019-08-11T07:23:25.000Z</time>
      </trkpt>
      <trkpt lat="43.39622" lon="2.23672">
        <ele>749.7</ele>
        <time>2019-08-11T07:23:26.000Z</time>
      </trkpt>
      <trkpt lat="43.39619" lon="2.2367">
        <ele>749.6</ele>
        <time>2019-08-11T07:23:27.000Z</time>
      </trkpt>
      <trkpt lat="43.39617" lon="2.23669">
        <ele>749.5</ele>
        <time>2019-08-11T07:23:28.000Z</time>
      </trkpt>
      <trkpt lat="43.39614" lon="2.23668">
        <ele>749.4</ele>
        <time>2019-08-11T07:23:29.000Z</time>
      </trkpt>
      <trkpt lat="43.39612" lon="2.23666">
        <ele>749.3</ele>
        <time>2019-08-11T07:23:30.000Z</time>
      </trkpt>
      <trkpt lat="43.39609" lon="2.23665">
        <ele>749.2</ele>
        <time>2019-08-11T07:23:31.000Z</time>
      </trkpt>
      <trkpt lat="43.39606" lon="2.23664">
        <ele>749.1</ele>
        <time>2019-08-11T07:23:32.000Z</time>
      </trkpt>
      <trkpt lat="43.39604" lon="2.23662">
        <ele>748.9</ele>
        <time>2019-08-11T07:23:33.000Z</time>
      </trkpt>
      <trkpt lat="43.39601" lon="2.23661">
        <ele>748.8</ele>
        <time>2019-08-11T07:23:34.000Z</time>
      </trkpt>
      <trkpt lat="43.39598" lon="2.2366">
        <ele>748.7</ele>
        <time>2019-08-11T07:23:35.000Z</time>
      </trkpt>
      <trkpt lat="43.39595" lon="2.23658">
        <ele>748.5</ele>
        <time>2019-08-11T07:23:36.000Z</time>
      </trkpt>
      <trkpt lat="43.39593" lon="2.23657">
        <ele>748.4</ele>
        <time>2019-08-11T07:23:37.000Z</time>
      </trkpt>
      <trkpt lat="43.3959" lon="2.23656">
        <ele>748.3</ele>
        <time>2019-08-11T07:23:38.000Z</time>
      </trkpt>
      <trkpt lat="43.39587" lon="2.23655">
        <ele>748.2</ele>
        <time>2019-08-11T07:23:39.000Z</time>
      </trkpt>
      <trkpt lat="43.39585" lon="2.23654">
        <ele>748.1</ele>
        <time>2019-08-11T07:23:40.000Z</time>
      </trkpt>
      <trkpt lat="43.39582" lon="2.23653">
        <ele>748.1</ele>
        <time>2019-08-11T07:23:41.000Z</time>
      </trkpt>
      <trkpt lat="43.39579" lon="2.23652">
        <ele>748.1</ele>
        <time>2019-08-11T07:23:42.000Z</time>
      </trkpt>
      <trkpt lat="43.39577" lon="2.23651">
        <ele>748.2</ele>
        <time>2019-08-11T07:23:43.000Z</time>
      </trkpt>
      <trkpt lat="43.39574" lon="2.2365">
        <ele>748.3</ele>
        <time>2019-08-11T07:23:44.000Z</time>
      </trkpt>
      <trkpt lat="43.39572" lon="2.23649">
        <ele>748.3</ele>
        <time>2019-08-11T07:23:45.000Z</time>
      </trkpt>
      <trkpt lat="43.39569" lon="2.23648">
        <ele>748.4</ele>
        <time>2019-08-11T07:23:46.000Z</time>
      </trkpt>
      <trkpt lat="43.39567" lon="2.23647">
        <ele>748.5</ele>
        <time>2019-08-11T07:23:47.000Z</time>
      </trkpt>
      <trkpt lat="43.39564" lon="2.23646">
        <ele>748.5</ele>
        <time>2019-08-11T07:23:48.000Z</time>
      </trkpt>
      <trkpt lat="43.39562" lon="2.23645">
        <ele>748.6</ele>
        <time>2019-08-11T07:23:49.000Z</time>
      </trkpt>
      <trkpt lat="43.39559" lon="2.23644">
        <ele>748.6</ele>
        <time>2019-08-11T07:23:50.000Z</time>
      </trkpt>
      <trkpt lat="43.39557" lon="2.23643">
        <ele>748.7</ele>
        <time>2019-08-11T07:23:51.000Z</time>
      </trkpt>
      <trkpt lat="43.39554" lon="2.23642">
        <ele>748.7</ele>
        <time>2019-08-11T07:23:52.000Z</time>
      </trkpt>
      <trkpt lat="43.39552" lon="2.23641">
        <ele>748.8</ele>
        <time>2019-08-11T07:23:53.000Z</time>
      </trkpt>
      <trkpt lat="43.39549" lon="2.2364">
        <ele>748.8</ele>
        <time>2019-08-11T07:23:54.000Z</time>
      </trkpt>
      <trkpt lat="43.39547" lon="2.23639">
        <ele>748.9</ele>
        <time>2019-08-11T07:23:55.000Z</time>
      </trkpt>
      <trkpt lat="43.39544" lon="2.23638">
        <ele>748.9</ele>
        <time>2019-08-11T07:23:56.000Z</time>
      </trkpt>
      <trkpt lat="43.39542" lon="2.23636">
        <ele>749</ele>
        <time>2019-08-11T07:23:57.000Z</time>
      </trkpt>
      <trkpt lat="43.39539" lon="2.23635">
        <ele>749</ele>
        <time>2019-08-11T07:23:58.000Z</time>
      </trkpt>
      <trkpt lat="43.39537" lon="2.23634">
        <ele>749</ele>
        <time>2019-08-11T07:23:59.000Z</time>
      </trkpt>
      <trkpt lat="43.39534" lon="2.23633">
        <ele>749.1</ele>
        <time>2019-08-11T07:24:00.000Z</time>
      </trkpt>
      <trkpt lat="43.39532" lon="2.23632">
        <ele>749.1</ele>
        <time>2019-08-11T07:24:01.000Z</time>
      </trkpt>
      <trkpt lat="43.39529" lon="2.23631">
        <ele>749.2</ele>
        <time>2019-08-11T07:24:02.000Z</time>
      </trkpt>
      <trkpt lat="43.39526" lon="2.2363">
        <ele>749.2</ele>
        <time>2019-08-11T07:24:03.000Z</time>
      </trkpt>
      <trkpt lat="43.39524" lon="2.23629">
        <ele>749.2</ele>
        <time>2019-08-11T07:24:04.000Z</time>
      </trkpt>
      <trkpt lat="43.39521" lon="2.23628">
        <ele>749.3</ele>
        <time>2019-08-11T07:24:05.000Z</time>
      </trkpt>
      <trkpt lat="43.39519" lon="2.23627">
        <ele>749.3</ele>
        <time>2019-08-11T07:24:06.000Z</time>
      </trkpt>
      <trkpt lat="43.39516" lon="2.23626">
        <ele>749.3</ele>
        <time>2019-08-11T07:24:07.000Z</time>
      </trkpt>
      <trkpt lat="43.39513" lon="2.23625">
        <ele>749.4</ele>
        <time>2019-08-11T07:24:08.000Z</time>
      </trkpt>
      <trkpt lat="43.39511" lon="2.23624">
        <ele>749.4</ele>
        <time>2019-08-11T07:24:09.000Z</time>
      </trkpt>
      <trkpt lat="43.39508" lon="2.23623">
        <ele>749.4</ele>
        <time>2019-08-11T07:24:10.000Z</time>
      </trkpt>
      <trkpt lat="43.39505" lon="2.23622">
        <ele>749.5</ele>
        <time>2019-08-11T07:24:11.000Z</time>
      </trkpt>
      <trkpt lat="43.39503" lon="2.23621">
        <ele>749.5</ele>
        <time>2019-08-11T07:24:12.000Z</time>
      </trkpt>
      <trkpt lat="43.395" lon="2.2362">
        <ele>749.5</ele>
        <time>2019-08-11T07:24:13.000Z</time>
      </trkpt>
      <trkpt lat="43.39498" lon="2.23619">
        <ele>749.5</ele>
        <time>2019-08-11T07:24:14.000Z</time>
      </trkpt>
      <trkpt lat="43.39495" lon="2.23618">
        <ele>749.5</ele>
        <time>2019-08-11T07:24:15.000Z</time>
      </trkpt>
      <trkpt lat="43.39492" lon="2.23617">
        <ele>749.5</ele>
        <time>2019-08-11T07:24:16.000Z</time>
      </trkpt>
      <trkpt lat="43.3949" lon="2.23616">
        <ele>749.5</ele>
        <time>2019-08-11T07:24:17.000Z</time>
      </trkpt>
      <trkpt lat="43.39487" lon="2.23615">
        <ele>749.5</ele>
        <time>2019-08-11T07:24:18.000Z</time>
      </trkpt>
      <trkpt lat="43.39485" lon="2.23614">
        <ele>749.5</ele>
        <time>2019-08-11T07:24:19.000Z</time>
      </trkpt>
      <trkpt lat="43.39482" lon="2.23613">
        <ele>749.5</ele>
        <time>2019-08-11T07:24:20.000Z</time>
      </trkpt>
      <trkpt lat="43.3948" lon="2.23612">
        <ele>749.5</ele>
        <time>2019-08-11T07:24:21.000Z</time>
      </trkpt>
      <trkpt lat="43.39477" lon="2.23611">
        <ele>749.5</ele>
        <time>2019-08-11T07:24:22.000Z</time>
      </trkpt>
      <trkpt lat="43.39474" lon="2.2361">
        <ele>749.5</ele>
        <time>2019-08-11T07:24:23.000Z</time>
      </trkpt>
      <trkpt lat="43.39472" lon="2.2361">
        <ele>749.6</ele>
        <time>2019-08-11T07:24:24.000Z</time>
      </trkpt>
      <trkpt lat="43.39469" lon="2.23609">
        <ele>749.6</ele>
        <time>2019-08-11T07:24:25.000Z</time>
      </trkpt>
      <trkpt lat="43.39467" lon="2.23608">
        <ele>749.6</ele>
        <time>2019-08-11T07:24:26.000Z</time>
      </trkpt>
      <trkpt lat="43.39464" lon="2.23607">
        <ele>749.7</ele>
        <time>2019-08-11T07:24:27.000Z</time>
      </trkpt>
      <trkpt lat="43.39462" lon="2.23606">
        <ele>749.7</ele>
        <time>2019-08-11T07:24:28.000Z</time>
      </trkpt>
      <trkpt lat="43.39459" lon="2.23605">
        <ele>749.7</ele>
        <time>2019-08-11T07:24:29.000Z</time>
      </trkpt>
      <trkpt lat="43.39457" lon="2.23604">
        <ele>749.8</ele>
        <time>2019-08-11T07:24:30.000Z</time>
      </trkpt>
      <trkpt lat="43.39454" lon="2.23603">
        <ele>749.8</ele>
        <time>2019-08-11T07:24:31.000Z</time>
      </trkpt>
      <trkpt lat="43.39452" lon="2.23602">
        <ele>749.9</ele>
        <time>2019-08-11T07:24:32.000Z</time>
      </trkpt>
      <trkpt lat="43.39449" lon="2.23601">
        <ele>749.9</ele>
        <time>2019-08-11T07:24:33.000Z</time>
      </trkpt>
      <trkpt lat="43.39447" lon="2.23599">
        <ele>750</ele>
        <time>2019-08-11T07:24:34.000Z</time>
      </trkpt>
      <trkpt lat="43.39444" lon="2.23598">
        <ele>750.1</ele>
        <time>2019-08-11T07:24:35.000Z</time>
      </trkpt>
      <trkpt lat="43.39442" lon="2.23597">
        <ele>750.1</ele>
        <time>2019-08-11T07:24:36.000Z</time>
      </trkpt>
      <trkpt lat="43.39439" lon="2.23596">
        <ele>750.2</ele>
        <time>2019-08-11T07:24:37.000Z</time>
      </trkpt>
      <trkpt lat="43.39436" lon="2.23595">
        <ele>750.3</ele>
        <time>2019-08-11T07:24:38.000Z</time>
      </trkpt>
      <trkpt lat="43.39434" lon="2.23594">
        <ele>750.4</ele>
        <time>2019-08-11T07:24:39.000Z</time>
      </trkpt>
      <trkpt lat="43.39431" lon="2.23592">
        <ele>750.5</ele>
        <time>2019-08-11T07:24:40.000Z</time>
      </trkpt>
      <trkpt lat="43.39429" lon="2.23591">
        <ele>750.5</ele>
        <time>2019-08-11T07:24:41.000Z</time>
      </trkpt>
      <trkpt lat="43.39426" lon="2.2359">
        <ele>750.6</ele>
        <time>2019-08-11T07:24:42.000Z</time>
      </trkpt>
      <trkpt lat="43.39424" lon="2.23589">
        <ele>750.7</ele>
        <time>2019-08-11T07:24:43.000Z</time>
      </trkpt>
      <trkpt lat="43.39421" lon="2.23587">
        <ele>750.8</ele>
        <time>2019-08-11T07:24:44.000Z</time>
      </trkpt>
      <trkpt lat="43.39419" lon="2.23586">
        <ele>750.9</ele>
        <time>2019-08-11T07:24:45.000Z</time>
      </trkpt>
      <trkpt lat="43.39416" lon="2.23585">
        <ele>751</ele>
        <time>2019-08-11T07:24:46.000Z</time>
      </trkpt>
      <trkpt lat="43.39414" lon="2.23583">
        <ele>751</ele>
        <time>2019-08-11T07:24:47.000Z</time>
      </trkpt>
      <trkpt lat="43.39411" lon="2.23582">
        <ele>750.8</ele>
        <time>2019-08-11T07:24:48.000Z</time>
      </trkpt>
      <trkpt lat="43.39409" lon="2.2358">
        <ele>750.7</ele>
        <time>2019-08-11T07:24:49.000Z</time>
      </trkpt>
      <trkpt lat="43.39406" lon="2.23579">
        <ele>750.6</ele>
        <time>2019-08-11T07:24:50.000Z</time>
      </trkpt>
      <trkpt lat="43.39404" lon="2.23577">
        <ele>750.5</ele>
        <time>2019-08-11T07:24:51.000Z</time>
      </trkpt>
      <trkpt lat="43.39402" lon="2.23576">
        <ele>750.4</ele>
        <time>2019-08-11T07:24:52.000Z</time>
      </trkpt>
      <trkpt lat="43.39399" lon="2.23574">
        <ele>750.3</ele>
        <time>2019-08-11T07:24:53.000Z</time>
      </trkpt>
      <trkpt lat="43.39397" lon="2.23573">
        <ele>750.2</ele>
        <time>2019-08-11T07:24:54.000Z</time>
      </trkpt>
      <trkpt lat="43.39395" lon="2.23571">
        <ele>750.1</ele>
        <time>2019-08-11T07:24:55.000Z</time>
      </trkpt>
      <trkpt lat="43.39392" lon="2.23569">
        <ele>749.9</ele>
        <time>2019-08-11T07:24:56.000Z</time>
      </trkpt>
      <trkpt lat="43.3939" lon="2.23567">
        <ele>749.8</ele>
        <time>2019-08-11T07:24:57.000Z</time>
      </trkpt>
      <trkpt lat="43.39388" lon="2.23565">
        <ele>749.7</ele>
        <time>2019-08-11T07:24:58.000Z</time>
      </trkpt>
      <trkpt lat="43.39386" lon="2.23563">
        <ele>749.6</ele>
        <time>2019-08-11T07:24:59.000Z</time>
      </trkpt>
      <trkpt lat="43.39383" lon="2.2356">
        <ele>749.4</ele>
        <time>2019-08-11T07:25:00.000Z</time>
      </trkpt>
      <trkpt lat="43.39381" lon="2.23558">
        <ele>749.3</ele>
        <time>2019-08-11T07:25:01.000Z</time>
      </trkpt>
      <trkpt lat="43.39379" lon="2.23556">
        <ele>749.2</ele>
        <time>2019-08-11T07:25:02.000Z</time>
      </trkpt>
      <trkpt lat="43.39377" lon="2.23554">
        <ele>749.1</ele>
        <time>2019-08-11T07:25:03.000Z</time>
      </trkpt>
      <trkpt lat="43.39374" lon="2.23551">
        <ele>749</ele>
        <time>2019-08-11T07:25:04.000Z</time>
      </trkpt>
      <trkpt lat="43.39372" lon="2.23549">
        <ele>748.9</ele>
        <time>2019-08-11T07:25:05.000Z</time>
      </trkpt>
      <trkpt lat="43.3937" lon="2.23547">
        <ele>748.7</ele>
        <time>2019-08-11T07:25:06.000Z</time>
      </trkpt>
      <trkpt lat="43.39367" lon="2.23545">
        <ele>748.6</ele>
        <time>2019-08-11T07:25:07.000Z</time>
      </trkpt>
      <trkpt lat="43.39365" lon="2.23543">
        <ele>748.5</ele>
        <time>2019-08-11T07:25:08.000Z</time>
      </trkpt>
      <trkpt lat="43.39363" lon="2.2354">
        <ele>748.4</ele>
        <time>2019-08-11T07:25:09.000Z</time>
      </trkpt>
      <trkpt lat="43.3936" lon="2.23538">
        <ele>748.3</ele>
        <time>2019-08-11T07:25:10.000Z</time>
      </trkpt>
      <trkpt lat="43.39358" lon="2.23536">
        <ele>748.3</ele>
        <time>2019-08-11T07:25:11.000Z</time>
      </trkpt>
      <trkpt lat="43.39356" lon="2.23534">
        <ele>748.2</ele>
        <time>2019-08-11T07:25:12.000Z</time>
      </trkpt>
      <trkpt lat="43.39354" lon="2.23532">
        <ele>748.1</ele>
        <time>2019-08-11T07:25:13.000Z</time>
      </trkpt>
      <trkpt lat="43.39351" lon="2.2353">
        <ele>748</ele>
        <time>2019-08-11T07:25:14.000Z</time>
      </trkpt>
      <trkpt lat="43.39349" lon="2.23528">
        <ele>747.9</ele>
        <time>2019-08-11T07:25:15.000Z</time>
      </trkpt>
      <trkpt lat="43.39347" lon="2.23526">
        <ele>747.9</ele>
        <time>2019-08-11T07:25:16.000Z</time>
      </trkpt>
      <trkpt lat="43.39344" lon="2.23524">
        <ele>747.8</ele>
        <time>2019-08-11T07:25:17.000Z</time>
      </trkpt>
      <trkpt lat="43.39342" lon="2.23522">
        <ele>747.7</ele>
        <time>2019-08-11T07:25:18.000Z</time>
      </trkpt>
      <trkpt lat="43.3934" lon="2.2352">
        <ele>747.7</ele>
        <time>2019-08-11T07:25:19.000Z</time>
      </trkpt>
      <trkpt lat="43.39337" lon="2.23518">
        <ele>747.6</ele>
        <time>2019-08-11T07:25:20.000Z</time>
      </trkpt>
      <trkpt lat="43.39335" lon="2.23516">
        <ele>747.6</ele>
        <time>2019-08-11T07:25:21.000Z</time>
      </trkpt>
      <trkpt lat="43.39333" lon="2.23514">
        <ele>747.5</ele>
        <time>2019-08-11T07:25:22.000Z</time>
      </trkpt>
      <trkpt lat="43.3933" lon="2.23513">
        <ele>747.4</ele>
        <time>2019-08-11T07:25:23.000Z</time>
      </trkpt>
      <trkpt lat="43.39328" lon="2.23511">
        <ele>747.3</ele>
        <time>2019-08-11T07:25:24.000Z</time>
      </trkpt>
      <trkpt lat="43.39325" lon="2.23509">
        <ele>747.2</ele>
        <time>2019-08-11T07:25:25.000Z</time>
      </trkpt>
      <trkpt lat="43.39323" lon="2.23508">
        <ele>747.1</ele>
        <time>2019-08-11T07:25:26.000Z</time>
      </trkpt>
      <trkpt lat="43.39321" lon="2.23506">
        <ele>747</ele>
        <time>2019-08-11T07:25:27.000Z</time>
      </trkpt>
      <trkpt lat="43.39318" lon="2.23504">
        <ele>746.9</ele>
        <time>2019-08-11T07:25:28.000Z</time>
      </trkpt>
      <trkpt lat="43.39316" lon="2.23503">
        <ele>746.9</ele>
        <time>2019-08-11T07:25:29.000Z</time>
      </trkpt>
      <trkpt lat="43.39313" lon="2.23502">
        <ele>746.8</ele>
        <time>2019-08-11T07:25:30.000Z</time>
      </trkpt>
      <trkpt lat="43.3931" lon="2.235">
        <ele>746.7</ele>
        <time>2019-08-11T07:25:31.000Z</time>
      </trkpt>
      <trkpt lat="43.39308" lon="2.23499">
        <ele>746.7</ele>
        <time>2019-08-11T07:25:32.000Z</time>
      </trkpt>
      <trkpt lat="43.39305" lon="2.23498">
        <ele>746.6</ele>
        <time>2019-08-11T07:25:33.000Z</time>
      </trkpt>
      <trkpt lat="43.39302" lon="2.23497">
        <ele>746.6</ele>
        <time>2019-08-11T07:25:34.000Z</time>
      </trkpt>
      <trkpt lat="43.393" lon="2.23496">
        <ele>746.5</ele>
        <time>2019-08-11T07:25:35.000Z</time>
      </trkpt>
      <trkpt lat="43.39297" lon="2.23495">
        <ele>746.5</ele>
        <time>2019-08-11T07:25:36.000Z</time>
      </trkpt>
      <trkpt lat="43.39295" lon="2.23494">
        <ele>746.5</ele>
        <time>2019-08-11T07:25:37.000Z</time>
      </trkpt>
      <trkpt lat="43.39292" lon="2.23493">
        <ele>746.4</ele>
        <time>2019-08-11T07:25:38.000Z</time>
      </trkpt>
      <trkpt lat="43.3929" lon="2.23493">
        <ele>746.4</ele>
        <time>2019-08-11T07:25:39.000Z</time>
      </trkpt>
      <trkpt lat="43.39287" lon="2.23492">
        <ele>746.4</ele>
        <time>2019-08-11T07:25:40.000Z</time>
      </trkpt>
      <trkpt lat="43.39285" lon="2.23492">
        <ele>746.3</ele>
        <time>2019-08-11T07:25:41.000Z</time>
      </trkpt>
      <trkpt lat="43.39283" lon="2.23491">
        <ele>746.3</ele>
        <time>2019-08-11T07:25:42.000Z</time>
      </trkpt>
      <trkpt lat="43.39281" lon="2.23491">
        <ele>746.3</ele>
        <time>2019-08-11T07:25:43.000Z</time>
      </trkpt>
      <trkpt lat="43.39279" lon="2.2349">
        <ele>746.2</ele>
        <time>2019-08-11T07:25:44.000Z</time>
      </trkpt>
      <trkpt lat="43.39277" lon="2.2349">
        <ele>746.2</ele>
        <time>2019-08-11T07:25:45.000Z</time>
      </trkpt>
      <trkpt lat="43.39275" lon="2.2349">
        <ele>746.2</ele>
        <time>2019-08-11T07:25:46.000Z</time>
      </trkpt>
      <trkpt lat="43.39274" lon="2.2349">
        <ele>746.2</ele>
        <time>2019-08-11T07:25:47.000Z</time>
      </trkpt>
      <trkpt lat="43.39273" lon="2.23489">
        <ele>746.1</ele>
        <time>2019-08-11T07:25:48.000Z</time>
      </trkpt>
      <trkpt lat="43.39272" lon="2.23489">
        <ele>746.1</ele>
        <time>2019-08-11T07:25:49.000Z</time>
      </trkpt>
      <trkpt lat="43.39271" lon="2.23489">
        <ele>746.1</ele>
        <time>2019-08-11T07:25:50.000Z</time>
      </trkpt>
      <trkpt lat="43.3927" lon="2.23489">
        <ele>746.1</ele>
        <time>2019-08-11T07:25:51.000Z</time>
      </trkpt>
      <trkpt lat="43.3927" lon="2.23488">
        <ele>746.1</ele>
        <time>2019-08-11T07:25:52.000Z</time>
      </trkpt>
      <trkpt lat="43.39269" lon="2.23487">
        <ele>746.1</ele>
        <time>2019-08-11T07:25:53.000Z</time>
      </trkpt>
      <trkpt lat="43.39269" lon="2.23487">
        <ele>746.1</ele>
        <time>2019-08-11T07:25:54.000Z</time>
      </trkpt>
      <trkpt lat="43.39269" lon="2.23487">
        <ele>746.1</ele>
        <time>2019-08-11T07:25:55.000Z</time>
      </trkpt>
      <trkpt lat="43.39269" lon="2.23486">
        <ele>746.1</ele>
        <time>2019-08-11T07:25:56.000Z</time>
      </trkpt>
      <trkpt lat="43.39269" lon="2.23486">
        <ele>746.1</ele>
        <time>2019-08-11T07:25:57.000Z</time>
      </trkpt>
      <trkpt lat="43.39269" lon="2.23486">
        <ele>746.1</ele>
        <time>2019-08-11T07:25:58.000Z</time>
      </trkpt>
      <trkpt lat="43.39268" lon="2.23486">
        <ele>746</ele>
        <time>2019-08-11T07:25:59.000Z</time>
      </trkpt>
      <trkpt lat="43.39267" lon="2.23485">
        <ele>746</ele>
        <time>2019-08-11T07:26:00.000Z</time>
      </trkpt>
      <trkpt lat="43.39267" lon="2.23485">
        <ele>746</ele>
        <time>2019-08-11T07:26:01.000Z</time>
      </trkpt>
      <trkpt lat="43.39266" lon="2.23485">
        <ele>746</ele>
        <time>2019-08-11T07:26:02.000Z</time>
      </trkpt>
      <trkpt lat="43.39266" lon="2.23484">
        <ele>746</ele>
        <time>2019-08-11T07:26:03.000Z</time>
      </trkpt>
      <trkpt lat="43.39266" lon="2.23484">
        <ele>746</ele>
        <time>2019-08-11T07:26:04.000Z</time>
      </trkpt>
      <trkpt lat="43.39266" lon="2.23484">
        <ele>746</ele>
        <time>2019-08-11T07:26:05.000Z</time>
      </trkpt>
      <trkpt lat="43.39266" lon="2.23484">
        <ele>746</ele>
        <time>2019-08-11T07:26:06.000Z</time>
      </trkpt>
      <trkpt lat="43.39265" lon="2.23485">
        <ele>746</ele>
        <time>2019-08-11T07:26:07.000Z</time>
      </trkpt>
      <trkpt lat="43.39265" lon="2.23486">
        <ele>746</ele>
        <time>2019-08-11T07:26:08.000Z</time>
      </trkpt>
      <trkpt lat="43.39265" lon="2.23487">
        <ele>746</ele>
        <time>2019-08-11T07:26:09.000Z</time>
      </trkpt>
      <trkpt lat="43.39264" lon="2.23488">
        <ele>746</ele>
        <time>2019-08-11T07:26:10.000Z</time>
      </trkpt>
      <trkpt lat="43.39264" lon="2.23489">
        <ele>746</ele>
        <time>2019-08-11T07:26:11.000Z</time>
      </trkpt>
      <trkpt lat="43.39263" lon="2.23489">
        <ele>746</ele>
        <time>2019-08-11T07:26:12.000Z</time>
      </trkpt>
      <trkpt lat="43.39263" lon="2.2349">
        <ele>746</ele>
        <time>2019-08-11T07:26:13.000Z</time>
      </trkpt>
      <trkpt lat="43.39263" lon="2.2349">
        <ele>746</ele>
        <time>2019-08-11T07:26:14.000Z</time>
      </trkpt>
      <trkpt lat="43.39263" lon="2.2349">
        <ele>746</ele>
        <time>2019-08-11T07:26:15.000Z</time>
      </trkpt>
      <trkpt lat="43.39263" lon="2.2349">
        <ele>746</ele>
        <time>2019-08-11T07:26:16.000Z</time>
      </trkpt>
      <trkpt lat="43.39263" lon="2.2349">
        <ele>746</ele>
        <time>2019-08-11T07:26:17.000Z</time>
      </trkpt>
      <trkpt lat="43.39264" lon="2.2349">
        <ele>746</ele>
        <time>2019-08-11T07:26:18.000Z</time>
      </trkpt>
      <trkpt lat="43.39264" lon="2.2349">
        <ele>746.1</ele>
        <time>2019-08-11T07:26:19.000Z</time>
      </trkpt>
      <trkpt lat="43.39265" lon="2.2349">
        <ele>746.1</ele>
        <time>2019-08-11T07:26:20.000Z</time>
      </trkpt>
      <trkpt lat="43.39266" lon="2.2349">
        <ele>746.1</ele>
        <time>2019-08-11T07:26:21.000Z</time>
      </trkpt>
      <trkpt lat="43.39267" lon="2.2349">
        <ele>746.1</ele>
        <time>2019-08-11T07:26:22.000Z</time>
      </trkpt>
      <trkpt lat="43.39268" lon="2.2349">
        <ele>746.1</ele>
        <time>2019-08-11T07:26:23.000Z</time>
      </trkpt>
      <trkpt lat="43.3927" lon="2.2349">
        <ele>746.1</ele>
        <time>2019-08-11T07:26:24.000Z</time>
      </trkpt>
      <trkpt lat="43.39271" lon="2.2349">
        <ele>746.1</ele>
        <time>2019-08-11T07:26:25.000Z</time>
      </trkpt>
      <trkpt lat="43.39272" lon="2.23489">
        <ele>746.1</ele>
        <time>2019-08-11T07:26:26.000Z</time>
      </trkpt>
      <trkpt lat="43.39273" lon="2.23489">
        <ele>746.1</ele>
        <time>2019-08-11T07:26:27.000Z</time>
      </trkpt>
      <trkpt lat="43.39274" lon="2.23488">
        <ele>746.1</ele>
        <time>2019-08-11T07:26:28.000Z</time>
      </trkpt>
      <trkpt lat="43.39275" lon="2.23487">
        <ele>746.2</ele>
        <time>2019-08-11T07:26:29.000Z</time>
      </trkpt>
      <trkpt lat="43.39276" lon="2.23486">
        <ele>746.2</ele>
        <time>2019-08-11T07:26:30.000Z</time>
      </trkpt>
      <trkpt lat="43.39277" lon="2.23486">
        <ele>746.2</ele>
        <time>2019-08-11T07:26:31.000Z</time>
      </trkpt>
      <trkpt lat="43.39278" lon="2.23485">
        <ele>746.1</ele>
        <time>2019-08-11T07:26:32.000Z</time>
      </trkpt>
      <trkpt lat="43.39278" lon="2.23484">
        <ele>746.1</ele>
        <time>2019-08-11T07:26:33.000Z</time>
      </trkpt>
      <trkpt lat="43.39279" lon="2.23484">
        <ele>746.1</ele>
        <time>2019-08-11T07:26:34.000Z</time>
      </trkpt>
      <trkpt lat="43.39279" lon="2.23483">
        <ele>746.1</ele>
        <time>2019-08-11T07:26:35.000Z</time>
      </trkpt>
      <trkpt lat="43.39279" lon="2.23483">
        <ele>746.1</ele>
        <time>2019-08-11T07:26:36.000Z</time>
      </trkpt>
      <trkpt lat="43.3928" lon="2.23482">
        <ele>746.1</ele>
        <time>2019-08-11T07:26:37.000Z</time>
      </trkpt>
      <trkpt lat="43.3928" lon="2.23482">
        <ele>746.1</ele>
        <time>2019-08-11T07:26:38.000Z</time>
      </trkpt>
      <trkpt lat="43.3928" lon="2.23482">
        <ele>746.1</ele>
        <time>2019-08-11T07:26:39.000Z</time>
      </trkpt>
      <trkpt lat="43.3928" lon="2.23482">
        <ele>746.1</ele>
        <time>2019-08-11T07:26:40.000Z</time>
      </trkpt>
      <trkpt lat="43.3928" lon="2.23482">
        <ele>746.1</ele>
        <time>2019-08-11T07:26:41.000Z</time>
      </trkpt>
      <trkpt lat="43.3928" lon="2.23482">
        <ele>746.1</ele>
        <time>2019-08-11T07:26:42.000Z</time>
      </trkpt>
      <trkpt lat="43.3928" lon="2.23481">
        <ele>746.1</ele>
        <time>2019-08-11T07:26:43.000Z</time>
      </trkpt>
      <trkpt lat="43.3928" lon="2.23481">
        <ele>746.1</ele>
        <time>2019-08-11T07:26:44.000Z</time>
      </trkpt>
      <trkpt lat="43.3928" lon="2.23481">
        <ele>746.1</ele>
        <time>2019-08-11T07:26:45.000Z</time>
      </trkpt>
      <trkpt lat="43.3928" lon="2.23481">
        <ele>746.1</ele>
        <time>2019-08-11T07:26:46.000Z</time>
      </trkpt>
      <trkpt lat="43.3928" lon="2.23481">
        <ele>746.1</ele>
        <time>2019-08-11T07:26:47.000Z</time>
      </trkpt>
      <trkpt lat="43.3928" lon="2.23481">
        <ele>746.1</ele>
        <time>2019-08-11T07:26:48.000Z</time>
      </trkpt>
      <trkpt lat="43.3928" lon="2.23481">
        <ele>746.1</ele>
        <time>2019-08-11T07:26:49.000Z</time>
      </trkpt>
      <trkpt lat="43.3928" lon="2.23482">
        <ele>746.1</ele>
        <time>2019-08-11T07:26:50.000Z</time>
      </trkpt>
      <trkpt lat="43.3928" lon="2.23482">
        <ele>746.1</ele>
        <time>2019-08-11T07:26:51.000Z</time>
      </trkpt>
      <trkpt lat="43.3928" lon="2.23482">
        <ele>746.1</ele>
        <time>2019-08-11T07:26:52.000Z</time>
      </trkpt>
      <trkpt lat="43.3928" lon="2.23482">
        <ele>746.1</ele>
        <time>2019-08-11T07:26:53.000Z</time>
      </trkpt>
      <trkpt lat="43.3928" lon="2.23482">
        <ele>746.1</ele>
        <time>2019-08-11T07:26:54.000Z</time>
      </trkpt>
      <trkpt lat="43.3928" lon="2.23482">
        <ele>746.1</ele>
        <time>2019-08-11T07:26:55.000Z</time>
      </trkpt>
      <trkpt lat="43.3928" lon="2.23482">
        <ele>746.1</ele>
        <time>2019-08-11T07:26:56.000Z</time>
      </trkpt>
      <trkpt lat="43.3928" lon="2.23482">
        <ele>746.1</ele>
        <time>2019-08-11T07:26:57.000Z</time>
      </trkpt>
      <trkpt lat="43.3928" lon="2.23481">
        <ele>746.1</ele>
        <time>2019-08-11T07:26:58.000Z</time>
      </trkpt>
      <trkpt lat="43.3928" lon="2.23481">
        <ele>746.1</ele>
        <time>2019-08-11T07:26:59.000Z</time>
      </trkpt>
      <trkpt lat="43.3928" lon="2.23481">
        <ele>746.1</ele>
        <time>2019-08-11T07:27:00.000Z</time>
      </trkpt>
      <trkpt lat="43.3928" lon="2.23481">
        <ele>746.1</ele>
        <time>2019-08-11T07:27:01.000Z</time>
      </trkpt>
      <trkpt lat="43.3928" lon="2.23481">
        <ele>746.1</ele>
        <time>2019-08-11T07:27:02.000Z</time>
      </trkpt>
      <trkpt lat="43.3928" lon="2.2348">
        <ele>746.1</ele>
        <time>2019-08-11T07:27:03.000Z</time>
      </trkpt>
      <trkpt lat="43.39279" lon="2.2348">
        <ele>746.1</ele>
        <time>2019-08-11T07:27:04.000Z</time>
      </trkpt>
      <trkpt lat="43.39279" lon="2.2348">
        <ele>746.1</ele>
        <time>2019-08-11T07:27:05.000Z</time>
      </trkpt>
      <trkpt lat="43.39278" lon="2.23479">
        <ele>746.1</ele>
        <time>2019-08-11T07:27:06.000Z</time>
      </trkpt>
      <trkpt lat="43.39277" lon="2.23478">
        <ele>746.1</ele>
        <time>2019-08-11T07:27:07.000Z</time>
      </trkpt>
      <trkpt lat="43.39276" lon="2.23478">
        <ele>746</ele>
        <time>2019-08-11T07:27:08.000Z</time>
      </trkpt>
      <trkpt lat="43.39275" lon="2.23477">
        <ele>746</ele>
        <time>2019-08-11T07:27:09.000Z</time>
      </trkpt>
      <trkpt lat="43.39274" lon="2.23476">
        <ele>746</ele>
        <time>2019-08-11T07:27:10.000Z</time>
      </trkpt>
      <trkpt lat="43.39273" lon="2.23475">
        <ele>746</ele>
        <time>2019-08-11T07:27:11.000Z</time>
      </trkpt>
      <trkpt lat="43.39271" lon="2.23474">
        <ele>745.9</ele>
        <time>2019-08-11T07:27:12.000Z</time>
      </trkpt>
      <trkpt lat="43.39269" lon="2.23473">
        <ele>745.9</ele>
        <time>2019-08-11T07:27:13.000Z</time>
      </trkpt>
      <trkpt lat="43.39267" lon="2.23471">
        <ele>745.9</ele>
        <time>2019-08-11T07:27:14.000Z</time>
      </trkpt>
      <trkpt lat="43.39265" lon="2.2347">
        <ele>745.8</ele>
        <time>2019-08-11T07:27:15.000Z</time>
      </trkpt>
      <trkpt lat="43.39263" lon="2.23469">
        <ele>745.8</ele>
        <time>2019-08-11T07:27:16.000Z</time>
      </trkpt>
      <trkpt lat="43.39261" lon="2.23467">
        <ele>745.7</ele>
        <time>2019-08-11T07:27:17.000Z</time>
      </trkpt>
      <trkpt lat="43.39259" lon="2.23466">
        <ele>745.7</ele>
        <time>2019-08-11T07:27:18.000Z</time>
      </trkpt>
      <trkpt lat="43.39256" lon="2.23465">
        <ele>745.6</ele>
        <time>2019-08-11T07:27:19.000Z</time>
      </trkpt>
      <trkpt lat="43.39254" lon="2.23463">
        <ele>745.6</ele>
        <time>2019-08-11T07:27:20.000Z</time>
      </trkpt>
      <trkpt lat="43.39252" lon="2.23462">
        <ele>745.6</ele>
        <time>2019-08-11T07:27:21.000Z</time>
      </trkpt>
      <trkpt lat="43.39249" lon="2.2346">
        <ele>745.5</ele>
        <time>2019-08-11T07:27:22.000Z</time>
      </trkpt>
      <trkpt lat="43.39247" lon="2.23459">
        <ele>745.5</ele>
        <time>2019-08-11T07:27:23.000Z</time>
      </trkpt>
      <trkpt lat="43.39245" lon="2.23458">
        <ele>745.5</ele>
        <time>2019-08-11T07:27:24.000Z</time>
      </trkpt>
      <trkpt lat="43.39243" lon="2.23456">
        <ele>745.4</ele>
        <time>2019-08-11T07:27:25.000Z</time>
      </trkpt>
      <trkpt lat="43.3924" lon="2.23455">
        <ele>745.4</ele>
        <time>2019-08-11T07:27:26.000Z</time>
      </trkpt>
      <trkpt lat="43.39238" lon="2.23454">
        <ele>745.4</ele>
        <time>2019-08-11T07:27:27.000Z</time>
      </trkpt>
      <trkpt lat="43.39236" lon="2.23453">
        <ele>745.4</ele>
        <time>2019-08-11T07:27:28.000Z</time>
      </trkpt>
      <trkpt lat="43.39234" lon="2.23452">
        <ele>745.3</ele>
        <time>2019-08-11T07:27:29.000Z</time>
      </trkpt>
      <trkpt lat="43.39232" lon="2.2345">
        <ele>745.3</ele>
        <time>2019-08-11T07:27:30.000Z</time>
      </trkpt>
      <trkpt lat="43.39231" lon="2.23449">
        <ele>745.3</ele>
        <time>2019-08-11T07:27:31.000Z</time>
      </trkpt>
      <trkpt lat="43.39229" lon="2.23448">
        <ele>745.3</ele>
        <time>2019-08-11T07:27:32.000Z</time>
      </trkpt>
      <trkpt lat="43.39227" lon="2.23447">
        <ele>745.3</ele>
        <time>2019-08-11T07:27:33.000Z</time>
      </trkpt>
      <trkpt lat="43.39225" lon="2.23446">
        <ele>745.2</ele>
        <time>2019-08-11T07:27:34.000Z</time>
      </trkpt>
      <trkpt lat="43.39224" lon="2.23445">
        <ele>745.2</ele>
        <time>2019-08-11T07:27:35.000Z</time>
      </trkpt>
      <trkpt lat="43.39223" lon="2.23444">
        <ele>745.2</ele>
        <time>2019-08-11T07:27:36.000Z</time>
      </trkpt>
      <trkpt lat="43.39221" lon="2.23443">
        <ele>745.2</ele>
        <time>2019-08-11T07:27:37.000Z</time>
      </trkpt>
      <trkpt lat="43.3922" lon="2.23443">
        <ele>745.2</ele>
        <time>2019-08-11T07:27:38.000Z</time>
      </trkpt>
      <trkpt lat="43.39219" lon="2.23442">
        <ele>745.2</ele>
        <time>2019-08-11T07:27:39.000Z</time>
      </trkpt>
      <trkpt lat="43.39218" lon="2.23442">
        <ele>745.2</ele>
        <time>2019-08-11T07:27:40.000Z</time>
      </trkpt>
      <trkpt lat="43.39217" lon="2.23441">
        <ele>745.2</ele>
        <time>2019-08-11T07:27:41.000Z</time>
      </trkpt>
      <trkpt lat="43.39216" lon="2.23441">
        <ele>745.2</ele>
        <time>2019-08-11T07:27:42.000Z</time>
      </trkpt>
      <trkpt lat="43.39215" lon="2.2344">
        <ele>745.2</ele>
        <time>2019-08-11T07:27:43.000Z</time>
      </trkpt>
      <trkpt lat="43.39214" lon="2.23439">
        <ele>745.2</ele>
        <time>2019-08-11T07:27:44.000Z</time>
      </trkpt>
      <trkpt lat="43.39212" lon="2.23439">
        <ele>745.1</ele>
        <time>2019-08-11T07:27:45.000Z</time>
      </trkpt>
      <trkpt lat="43.3921" lon="2.23438">
        <ele>745.1</ele>
        <time>2019-08-11T07:27:46.000Z</time>
      </trkpt>
      <trkpt lat="43.39208" lon="2.23437">
        <ele>745.1</ele>
        <time>2019-08-11T07:27:47.000Z</time>
      </trkpt>
      <trkpt lat="43.39206" lon="2.23436">
        <ele>745.1</ele>
        <time>2019-08-11T07:27:48.000Z</time>
      </trkpt>
      <trkpt lat="43.39204" lon="2.23434">
        <ele>745.1</ele>
        <time>2019-08-11T07:27:49.000Z</time>
      </trkpt>
      <trkpt lat="43.39202" lon="2.23433">
        <ele>745.1</ele>
        <time>2019-08-11T07:27:50.000Z</time>
      </trkpt>
      <trkpt lat="43.392" lon="2.23431">
        <ele>745.1</ele>
        <time>2019-08-11T07:27:51.000Z</time>
      </trkpt>
      <trkpt lat="43.39198" lon="2.2343">
        <ele>745.1</ele>
        <time>2019-08-11T07:27:52.000Z</time>
      </trkpt>
      <trkpt lat="43.39196" lon="2.23428">
        <ele>745</ele>
        <time>2019-08-11T07:27:53.000Z</time>
      </trkpt>
      <trkpt lat="43.39194" lon="2.23426">
        <ele>745</ele>
        <time>2019-08-11T07:27:54.000Z</time>
      </trkpt>
      <trkpt lat="43.39192" lon="2.23424">
        <ele>745</ele>
        <time>2019-08-11T07:27:55.000Z</time>
      </trkpt>
      <trkpt lat="43.3919" lon="2.23422">
        <ele>745</ele>
        <time>2019-08-11T07:27:56.000Z</time>
      </trkpt>
      <trkpt lat="43.39188" lon="2.23421">
        <ele>745</ele>
        <time>2019-08-11T07:27:57.000Z</time>
      </trkpt>
      <trkpt lat="43.39186" lon="2.23419">
        <ele>745</ele>
        <time>2019-08-11T07:27:58.000Z</time>
      </trkpt>
      <trkpt lat="43.39185" lon="2.23417">
        <ele>745</ele>
        <time>2019-08-11T07:27:59.000Z</time>
      </trkpt>
      <trkpt lat="43.39183" lon="2.23416">
        <ele>745</ele>
        <time>2019-08-11T07:28:00.000Z</time>
      </trkpt>
      <trkpt lat="43.39181" lon="2.23415">
        <ele>745</ele>
        <time>2019-08-11T07:28:01.000Z</time>
      </trkpt>
      <trkpt lat="43.39179" lon="2.23413">
        <ele>745.1</ele>
        <time>2019-08-11T07:28:02.000Z</time>
      </trkpt>
      <trkpt lat="43.39177" lon="2.23412">
        <ele>745.1</ele>
        <time>2019-08-11T07:28:03.000Z</time>
      </trkpt>
      <trkpt lat="43.39175" lon="2.23411">
        <ele>745.1</ele>
        <time>2019-08-11T07:28:04.000Z</time>
      </trkpt>
      <trkpt lat="43.39173" lon="2.2341">
        <ele>745.1</ele>
        <time>2019-08-11T07:28:05.000Z</time>
      </trkpt>
      <trkpt lat="43.39171" lon="2.23409">
        <ele>745.2</ele>
        <time>2019-08-11T07:28:06.000Z</time>
      </trkpt>
      <trkpt lat="43.39169" lon="2.23408">
        <ele>745.2</ele>
        <time>2019-08-11T07:28:07.000Z</time>
      </trkpt>
      <trkpt lat="43.39168" lon="2.23407">
        <ele>745.2</ele>
        <time>2019-08-11T07:28:08.000Z</time>
      </trkpt>
      <trkpt lat="43.39166" lon="2.23406">
        <ele>745.3</ele>
        <time>2019-08-11T07:28:09.000Z</time>
      </trkpt>
      <trkpt lat="43.39164" lon="2.23404">
        <ele>745.3</ele>
        <time>2019-08-11T07:28:10.000Z</time>
      </trkpt>
      <trkpt lat="43.39162" lon="2.23403">
        <ele>745.3</ele>
        <time>2019-08-11T07:28:11.000Z</time>
      </trkpt>
      <trkpt lat="43.3916" lon="2.23402">
        <ele>745.3</ele>
        <time>2019-08-11T07:28:12.000Z</time>
      </trkpt>
      <trkpt lat="43.39158" lon="2.23401">
        <ele>745.3</ele>
        <time>2019-08-11T07:28:13.000Z</time>
      </trkpt>
      <trkpt lat="43.39157" lon="2.234">
        <ele>745.3</ele>
        <time>2019-08-11T07:28:14.000Z</time>
      </trkpt>
      <trkpt lat="43.39155" lon="2.23398">
        <ele>745.3</ele>
        <time>2019-08-11T07:28:15.000Z</time>
      </trkpt>
      <trkpt lat="43.39153" lon="2.23397">
        <ele>745.3</ele>
        <time>2019-08-11T07:28:16.000Z</time>
      </trkpt>
      <trkpt lat="43.39151" lon="2.23396">
        <ele>745.3</ele>
        <time>2019-08-11T07:28:17.000Z</time>
      </trkpt>
      <trkpt lat="43.39149" lon="2.23394">
        <ele>745.3</ele>
        <time>2019-08-11T07:28:18.000Z</time>
      </trkpt>
      <trkpt lat="43.39148" lon="2.23393">
        <ele>745.3</ele>
        <time>2019-08-11T07:28:19.000Z</time>
      </trkpt>
      <trkpt lat="43.39146" lon="2.23392">
        <ele>745.4</ele>
        <time>2019-08-11T07:28:20.000Z</time>
      </trkpt>
      <trkpt lat="43.39144" lon="2.2339">
        <ele>745.4</ele>
        <time>2019-08-11T07:28:21.000Z</time>
      </trkpt>
      <trkpt lat="43.39142" lon="2.23389">
        <ele>745.4</ele>
        <time>2019-08-11T07:28:22.000Z</time>
      </trkpt>
      <trkpt lat="43.3914" lon="2.23387">
        <ele>745.4</ele>
        <time>2019-08-11T07:28:23.000Z</time>
      </trkpt>
      <trkpt lat="43.39139" lon="2.23386">
        <ele>745.4</ele>
        <time>2019-08-11T07:28:24.000Z</time>
      </trkpt>
      <trkpt lat="43.39137" lon="2.23384">
        <ele>745.4</ele>
        <time>2019-08-11T07:28:25.000Z</time>
      </trkpt>
      <trkpt lat="43.39135" lon="2.23383">
        <ele>745.4</ele>
        <time>2019-08-11T07:28:26.000Z</time>
      </trkpt>
      <trkpt lat="43.39133" lon="2.23381">
        <ele>745.4</ele>
        <time>2019-08-11T07:28:27.000Z</time>
      </trkpt>
      <trkpt lat="43.39132" lon="2.2338">
        <ele>745.5</ele>
        <time>2019-08-11T07:28:28.000Z</time>
      </trkpt>
      <trkpt lat="43.3913" lon="2.23378">
        <ele>745.5</ele>
        <time>2019-08-11T07:28:29.000Z</time>
      </trkpt>
      <trkpt lat="43.39128" lon="2.23377">
        <ele>745.5</ele>
        <time>2019-08-11T07:28:30.000Z</time>
      </trkpt>
      <trkpt lat="43.39126" lon="2.23375">
        <ele>745.5</ele>
        <time>2019-08-11T07:28:31.000Z</time>
      </trkpt>
      <trkpt lat="43.39124" lon="2.23374">
        <ele>745.5</ele>
        <time>2019-08-11T07:28:32.000Z</time>
      </trkpt>
      <trkpt lat="43.39122" lon="2.23372">
        <ele>745.5</ele>
        <time>2019-08-11T07:28:33.000Z</time>
      </trkpt>
      <trkpt lat="43.3912" lon="2.23371">
        <ele>745.6</ele>
        <time>2019-08-11T07:28:34.000Z</time>
      </trkpt>
      <trkpt lat="43.39119" lon="2.23369">
        <ele>745.6</ele>
        <time>2019-08-11T07:28:35.000Z</time>
      </trkpt>
      <trkpt lat="43.39117" lon="2.23367">
        <ele>745.6</ele>
        <time>2019-08-11T07:28:36.000Z</time>
      </trkpt>
      <trkpt lat="43.39115" lon="2.23366">
        <ele>745.6</ele>
        <time>2019-08-11T07:28:37.000Z</time>
      </trkpt>
      <trkpt lat="43.39113" lon="2.23364">
        <ele>745.6</ele>
        <time>2019-08-11T07:28:38.000Z</time>
      </trkpt>
      <trkpt lat="43.39111" lon="2.23362">
        <ele>745.6</ele>
        <time>2019-08-11T07:28:39.000Z</time>
      </trkpt>
      <trkpt lat="43.39109" lon="2.23361">
        <ele>745.6</ele>
        <time>2019-08-11T07:28:40.000Z</time>
      </trkpt>
      <trkpt lat="43.39107" lon="2.23359">
        <ele>745.7</ele>
        <time>2019-08-11T07:28:41.000Z</time>
      </trkpt>
      <trkpt lat="43.39105" lon="2.23358">
        <ele>745.7</ele>
        <time>2019-08-11T07:28:42.000Z</time>
      </trkpt>
      <trkpt lat="43.39103" lon="2.23356">
        <ele>745.7</ele>
        <time>2019-08-11T07:28:43.000Z</time>
      </trkpt>
      <trkpt lat="43.391" lon="2.23354">
        <ele>745.7</ele>
        <time>2019-08-11T07:28:44.000Z</time>
      </trkpt>
      <trkpt lat="43.39098" lon="2.23352">
        <ele>745.7</ele>
        <time>2019-08-11T07:28:45.000Z</time>
      </trkpt>
      <trkpt lat="43.39096" lon="2.23351">
        <ele>745.7</ele>
        <time>2019-08-11T07:28:46.000Z</time>
      </trkpt>
      <trkpt lat="43.39094" lon="2.23349">
        <ele>745.8</ele>
        <time>2019-08-11T07:28:47.000Z</time>
      </trkpt>
      <trkpt lat="43.39092" lon="2.23347">
        <ele>745.8</ele>
        <time>2019-08-11T07:28:48.000Z</time>
      </trkpt>
      <trkpt lat="43.3909" lon="2.23346">
        <ele>745.8</ele>
        <time>2019-08-11T07:28:49.000Z</time>
      </trkpt>
      <trkpt lat="43.39087" lon="2.23344">
        <ele>745.8</ele>
        <time>2019-08-11T07:28:50.000Z</time>
      </trkpt>
      <trkpt lat="43.39085" lon="2.23342">
        <ele>745.8</ele>
        <time>2019-08-11T07:28:51.000Z</time>
      </trkpt>
      <trkpt lat="43.39083" lon="2.2334">
        <ele>745.8</ele>
        <time>2019-08-11T07:28:52.000Z</time>
      </trkpt>
      <trkpt lat="43.3908" lon="2.23339">
        <ele>745.9</ele>
        <time>2019-08-11T07:28:53.000Z</time>
      </trkpt>
      <trkpt lat="43.39078" lon="2.23337">
        <ele>745.9</ele>
        <time>2019-08-11T07:28:54.000Z</time>
      </trkpt>
      <trkpt lat="43.39076" lon="2.23335">
        <ele>746</ele>
        <time>2019-08-11T07:28:55.000Z</time>
      </trkpt>
      <trkpt lat="43.39073" lon="2.23333">
        <ele>746</ele>
        <time>2019-08-11T07:28:56.000Z</time>
      </trkpt>
      <trkpt lat="43.39071" lon="2.23331">
        <ele>746</ele>
        <time>2019-08-11T07:28:57.000Z</time>
      </trkpt>
      <trkpt lat="43.39069" lon="2.2333">
        <ele>746</ele>
        <time>2019-08-11T07:28:58.000Z</time>
      </trkpt>
      <trkpt lat="43.39066" lon="2.23328">
        <ele>746</ele>
        <time>2019-08-11T07:28:59.000Z</time>
      </trkpt>
      <trkpt lat="43.39064" lon="2.23326">
        <ele>746</ele>
        <time>2019-08-11T07:29:00.000Z</time>
      </trkpt>
      <trkpt lat="43.39061" lon="2.23324">
        <ele>745.9</ele>
        <time>2019-08-11T07:29:01.000Z</time>
      </trkpt>
      <trkpt lat="43.39059" lon="2.23322">
        <ele>745.9</ele>
        <time>2019-08-11T07:29:02.000Z</time>
      </trkpt>
      <trkpt lat="43.39057" lon="2.2332">
        <ele>745.9</ele>
        <time>2019-08-11T07:29:03.000Z</time>
      </trkpt>
      <trkpt lat="43.39055" lon="2.23319">
        <ele>745.9</ele>
        <time>2019-08-11T07:29:04.000Z</time>
      </trkpt>
      <trkpt lat="43.39052" lon="2.23317">
        <ele>745.9</ele>
        <time>2019-08-11T07:29:05.000Z</time>
      </trkpt>
      <trkpt lat="43.3905" lon="2.23315">
        <ele>746</ele>
        <time>2019-08-11T07:29:06.000Z</time>
      </trkpt>
      <trkpt lat="43.39048" lon="2.23313">
        <ele>746</ele>
        <time>2019-08-11T07:29:07.000Z</time>
      </trkpt>
      <trkpt lat="43.39045" lon="2.23311">
        <ele>746</ele>
        <time>2019-08-11T07:29:08.000Z</time>
      </trkpt>
      <trkpt lat="43.39043" lon="2.2331">
        <ele>746</ele>
        <time>2019-08-11T07:29:09.000Z</time>
      </trkpt>
      <trkpt lat="43.39041" lon="2.23308">
        <ele>746</ele>
        <time>2019-08-11T07:29:10.000Z</time>
      </trkpt>
      <trkpt lat="43.39039" lon="2.23306">
        <ele>746</ele>
        <time>2019-08-11T07:29:11.000Z</time>
      </trkpt>
      <trkpt lat="43.39037" lon="2.23304">
        <ele>746</ele>
        <time>2019-08-11T07:29:12.000Z</time>
      </trkpt>
      <trkpt lat="43.39035" lon="2.23303">
        <ele>746.1</ele>
        <time>2019-08-11T07:29:13.000Z</time>
      </trkpt>
      <trkpt lat="43.39033" lon="2.23301">
        <ele>746.1</ele>
        <time>2019-08-11T07:29:14.000Z</time>
      </trkpt>
      <trkpt lat="43.39031" lon="2.233">
        <ele>746.1</ele>
        <time>2019-08-11T07:29:15.000Z</time>
      </trkpt>
      <trkpt lat="43.39029" lon="2.23298">
        <ele>746.1</ele>
        <time>2019-08-11T07:29:16.000Z</time>
      </trkpt>
      <trkpt lat="43.39027" lon="2.23297">
        <ele>746.2</ele>
        <time>2019-08-11T07:29:17.000Z</time>
      </trkpt>
      <trkpt lat="43.39025" lon="2.23295">
        <ele>746.2</ele>
        <time>2019-08-11T07:29:18.000Z</time>
      </trkpt>
      <trkpt lat="43.39022" lon="2.23294">
        <ele>746.2</ele>
        <time>2019-08-11T07:29:19.000Z</time>
      </trkpt>
      <trkpt lat="43.3902" lon="2.23292">
        <ele>746.3</ele>
        <time>2019-08-11T07:29:20.000Z</time>
      </trkpt>
      <trkpt lat="43.39018" lon="2.2329">
        <ele>746.3</ele>
        <time>2019-08-11T07:29:21.000Z</time>
      </trkpt>
      <trkpt lat="43.39015" lon="2.23288">
        <ele>746.3</ele>
        <time>2019-08-11T07:29:22.000Z</time>
      </trkpt>
      <trkpt lat="43.39012" lon="2.23286">
        <ele>746.4</ele>
        <time>2019-08-11T07:29:23.000Z</time>
      </trkpt>
      <trkpt lat="43.39009" lon="2.23284">
        <ele>746.5</ele>
        <time>2019-08-11T07:29:24.000Z</time>
      </trkpt>
      <trkpt lat="43.39007" lon="2.23282">
        <ele>746.5</ele>
        <time>2019-08-11T07:29:25.000Z</time>
      </trkpt>
      <trkpt lat="43.39004" lon="2.2328">
        <ele>746.6</ele>
        <time>2019-08-11T07:29:26.000Z</time>
      </trkpt>
      <trkpt lat="43.39002" lon="2.23277">
        <ele>746.6</ele>
        <time>2019-08-11T07:29:27.000Z</time>
      </trkpt>
      <trkpt lat="43.38999" lon="2.23275">
        <ele>746.7</ele>
        <time>2019-08-11T07:29:28.000Z</time>
      </trkpt>
      <trkpt lat="43.38997" lon="2.23272">
        <ele>746.5</ele>
        <time>2019-08-11T07:29:29.000Z</time>
      </trkpt>
      <trkpt lat="43.38995" lon="2.23269">
        <ele>746.4</ele>
        <time>2019-08-11T07:29:30.000Z</time>
      </trkpt>
      <trkpt lat="43.38993" lon="2.23266">
        <ele>746.3</ele>
        <time>2019-08-11T07:29:31.000Z</time>
      </trkpt>
      <trkpt lat="43.38991" lon="2.23263">
        <ele>746.3</ele>
        <time>2019-08-11T07:29:32.000Z</time>
      </trkpt>
      <trkpt lat="43.38989" lon="2.2326">
        <ele>746.2</ele>
        <time>2019-08-11T07:29:33.000Z</time>
      </trkpt>
      <trkpt lat="43.38987" lon="2.23257">
        <ele>746.1</ele>
        <time>2019-08-11T07:29:34.000Z</time>
      </trkpt>
      <trkpt lat="43.38985" lon="2.23254">
        <ele>746</ele>
        <time>2019-08-11T07:29:35.000Z</time>
      </trkpt>
      <trkpt lat="43.38983" lon="2.23251">
        <ele>746</ele>
        <time>2019-08-11T07:29:36.000Z</time>
      </trkpt>
      <trkpt lat="43.38981" lon="2.23248">
        <ele>745.8</ele>
        <time>2019-08-11T07:29:37.000Z</time>
      </trkpt>
      <trkpt lat="43.38979" lon="2.23246">
        <ele>745.7</ele>
        <time>2019-08-11T07:29:38.000Z</time>
      </trkpt>
      <trkpt lat="43.38976" lon="2.23243">
        <ele>745.6</ele>
        <time>2019-08-11T07:29:39.000Z</time>
      </trkpt>
      <trkpt lat="43.38974" lon="2.23241">
        <ele>745.5</ele>
        <time>2019-08-11T07:29:40.000Z</time>
      </trkpt>
      <trkpt lat="43.38972" lon="2.23239">
        <ele>745.4</ele>
        <time>2019-08-11T07:29:41.000Z</time>
      </trkpt>
      <trkpt lat="43.38969" lon="2.23237">
        <ele>745.2</ele>
        <time>2019-08-11T07:29:42.000Z</time>
      </trkpt>
      <trkpt lat="43.38967" lon="2.23235">
        <ele>745.1</ele>
        <time>2019-08-11T07:29:43.000Z</time>
      </trkpt>
      <trkpt lat="43.38965" lon="2.23233">
        <ele>745</ele>
        <time>2019-08-11T07:29:44.000Z</time>
      </trkpt>
      <trkpt lat="43.38962" lon="2.23231">
        <ele>744.8</ele>
        <time>2019-08-11T07:29:45.000Z</time>
      </trkpt>
      <trkpt lat="43.3896" lon="2.23228">
        <ele>744.7</ele>
        <time>2019-08-11T07:29:46.000Z</time>
      </trkpt>
      <trkpt lat="43.38957" lon="2.23226">
        <ele>744.6</ele>
        <time>2019-08-11T07:29:47.000Z</time>
      </trkpt>
      <trkpt lat="43.38955" lon="2.23223">
        <ele>744.5</ele>
        <time>2019-08-11T07:29:48.000Z</time>
      </trkpt>
      <trkpt lat="43.38952" lon="2.23221">
        <ele>744.3</ele>
        <time>2019-08-11T07:29:49.000Z</time>
      </trkpt>
      <trkpt lat="43.38949" lon="2.23219">
        <ele>744.2</ele>
        <time>2019-08-11T07:29:50.000Z</time>
      </trkpt>
      <trkpt lat="43.38947" lon="2.23217">
        <ele>744.1</ele>
        <time>2019-08-11T07:29:51.000Z</time>
      </trkpt>
      <trkpt lat="43.38944" lon="2.23215">
        <ele>743.9</ele>
        <time>2019-08-11T07:29:52.000Z</time>
      </trkpt>
      <trkpt lat="43.38941" lon="2.23213">
        <ele>743.8</ele>
        <time>2019-08-11T07:29:53.000Z</time>
      </trkpt>
      <trkpt lat="43.38939" lon="2.23212">
        <ele>743.7</ele>
        <time>2019-08-11T07:29:54.000Z</time>
      </trkpt>
      <trkpt lat="43.38936" lon="2.23211">
        <ele>743.5</ele>
        <time>2019-08-11T07:29:55.000Z</time>
      </trkpt>
      <trkpt lat="43.38933" lon="2.2321">
        <ele>743.4</ele>
        <time>2019-08-11T07:29:56.000Z</time>
      </trkpt>
      <trkpt lat="43.38931" lon="2.23208">
        <ele>743.2</ele>
        <time>2019-08-11T07:29:57.000Z</time>
      </trkpt>
      <trkpt lat="43.38928" lon="2.23207">
        <ele>743.1</ele>
        <time>2019-08-11T07:29:58.000Z</time>
      </trkpt>
      <trkpt lat="43.38925" lon="2.23205">
        <ele>743</ele>
        <time>2019-08-11T07:29:59.000Z</time>
      </trkpt>
      <trkpt lat="43.38923" lon="2.23204">
        <ele>742.9</ele>
        <time>2019-08-11T07:30:00.000Z</time>
      </trkpt>
      <trkpt lat="43.38921" lon="2.23202">
        <ele>742.8</ele>
        <time>2019-08-11T07:30:01.000Z</time>
      </trkpt>
      <trkpt lat="43.38918" lon="2.23199">
        <ele>742.7</ele>
        <time>2019-08-11T07:30:02.000Z</time>
      </trkpt>
      <trkpt lat="43.38916" lon="2.23197">
        <ele>742.6</ele>
        <time>2019-08-11T07:30:03.000Z</time>
      </trkpt>
      <trkpt lat="43.38914" lon="2.23195">
        <ele>742.3</ele>
        <time>2019-08-11T07:30:04.000Z</time>
      </trkpt>
      <trkpt lat="43.38912" lon="2.23192">
        <ele>742.1</ele>
        <time>2019-08-11T07:30:05.000Z</time>
      </trkpt>
      <trkpt lat="43.3891" lon="2.2319">
        <ele>741.8</ele>
        <time>2019-08-11T07:30:06.000Z</time>
      </trkpt>
      <trkpt lat="43.38908" lon="2.23187">
        <ele>741.6</ele>
        <time>2019-08-11T07:30:07.000Z</time>
      </trkpt>
      <trkpt lat="43.38905" lon="2.23185">
        <ele>741.4</ele>
        <time>2019-08-11T07:30:08.000Z</time>
      </trkpt>
      <trkpt lat="43.38903" lon="2.23182">
        <ele>741.1</ele>
        <time>2019-08-11T07:30:09.000Z</time>
      </trkpt>
      <trkpt lat="43.38901" lon="2.23179">
        <ele>740.9</ele>
        <time>2019-08-11T07:30:10.000Z</time>
      </trkpt>
      <trkpt lat="43.38899" lon="2.23176">
        <ele>740.6</ele>
        <time>2019-08-11T07:30:11.000Z</time>
      </trkpt>
      <trkpt lat="43.38897" lon="2.23174">
        <ele>740.4</ele>
        <time>2019-08-11T07:30:12.000Z</time>
      </trkpt>
      <trkpt lat="43.38895" lon="2.23171">
        <ele>740.1</ele>
        <time>2019-08-11T07:30:13.000Z</time>
      </trkpt>
      <trkpt lat="43.38893" lon="2.23168">
        <ele>739.9</ele>
        <time>2019-08-11T07:30:14.000Z</time>
      </trkpt>
      <trkpt lat="43.38891" lon="2.23165">
        <ele>739.6</ele>
        <time>2019-08-11T07:30:15.000Z</time>
      </trkpt>
      <trkpt lat="43.38889" lon="2.23163">
        <ele>739.2</ele>
        <time>2019-08-11T07:30:16.000Z</time>
      </trkpt>
      <trkpt lat="43.38887" lon="2.2316">
        <ele>738.8</ele>
        <time>2019-08-11T07:30:17.000Z</time>
      </trkpt>
      <trkpt lat="43.38885" lon="2.23158">
        <ele>738.5</ele>
        <time>2019-08-11T07:30:18.000Z</time>
      </trkpt>
      <trkpt lat="43.38882" lon="2.23155">
        <ele>738.1</ele>
        <time>2019-08-11T07:30:19.000Z</time>
      </trkpt>
      <trkpt lat="43.3888" lon="2.23153">
        <ele>737.8</ele>
        <time>2019-08-11T07:30:20.000Z</time>
      </trkpt>
      <trkpt lat="43.38878" lon="2.2315">
        <ele>737.4</ele>
        <time>2019-08-11T07:30:21.000Z</time>
      </trkpt>
      <trkpt lat="43.38876" lon="2.23148">
        <ele>737.1</ele>
        <time>2019-08-11T07:30:22.000Z</time>
      </trkpt>
      <trkpt lat="43.38874" lon="2.23145">
        <ele>736.7</ele>
        <time>2019-08-11T07:30:23.000Z</time>
      </trkpt>
      <trkpt lat="43.38872" lon="2.23143">
        <ele>736.3</ele>
        <time>2019-08-11T07:30:24.000Z</time>
      </trkpt>
      <trkpt lat="43.38869" lon="2.2314">
        <ele>736</ele>
        <time>2019-08-11T07:30:25.000Z</time>
      </trkpt>
      <trkpt lat="43.38867" lon="2.23138">
        <ele>735.6</ele>
        <time>2019-08-11T07:30:26.000Z</time>
      </trkpt>
      <trkpt lat="43.38865" lon="2.23135">
        <ele>735.2</ele>
        <time>2019-08-11T07:30:27.000Z</time>
      </trkpt>
      <trkpt lat="43.38862" lon="2.23132">
        <ele>734.9</ele>
        <time>2019-08-11T07:30:28.000Z</time>
      </trkpt>
      <trkpt lat="43.3886" lon="2.23129">
        <ele>734.5</ele>
        <time>2019-08-11T07:30:29.000Z</time>
      </trkpt>
      <trkpt lat="43.38858" lon="2.23126">
        <ele>734.1</ele>
        <time>2019-08-11T07:30:30.000Z</time>
      </trkpt>
      <trkpt lat="43.38855" lon="2.23123">
        <ele>733.7</ele>
        <time>2019-08-11T07:30:31.000Z</time>
      </trkpt>
      <trkpt lat="43.38853" lon="2.2312">
        <ele>733.3</ele>
        <time>2019-08-11T07:30:32.000Z</time>
      </trkpt>
      <trkpt lat="43.3885" lon="2.23118">
        <ele>733</ele>
        <time>2019-08-11T07:30:33.000Z</time>
      </trkpt>
      <trkpt lat="43.38848" lon="2.23115">
        <ele>732.6</ele>
        <time>2019-08-11T07:30:34.000Z</time>
      </trkpt>
      <trkpt lat="43.38846" lon="2.23112">
        <ele>732.2</ele>
        <time>2019-08-11T07:30:35.000Z</time>
      </trkpt>
      <trkpt lat="43.38843" lon="2.2311">
        <ele>731.9</ele>
        <time>2019-08-11T07:30:36.000Z</time>
      </trkpt>
      <trkpt lat="43.38841" lon="2.23108">
        <ele>731.5</ele>
        <time>2019-08-11T07:30:37.000Z</time>
      </trkpt>
      <trkpt lat="43.38839" lon="2.23105">
        <ele>731.2</ele>
        <time>2019-08-11T07:30:38.000Z</time>
      </trkpt>
      <trkpt lat="43.38836" lon="2.23103">
        <ele>730.9</ele>
        <time>2019-08-11T07:30:39.000Z</time>
      </trkpt>
      <trkpt lat="43.38834" lon="2.23101">
        <ele>730.5</ele>
        <time>2019-08-11T07:30:40.000Z</time>
      </trkpt>
      <trkpt lat="43.38832" lon="2.23099">
        <ele>730.3</ele>
        <time>2019-08-11T07:30:41.000Z</time>
      </trkpt>
      <trkpt lat="43.3883" lon="2.23097">
        <ele>730</ele>
        <time>2019-08-11T07:30:42.000Z</time>
      </trkpt>
      <trkpt lat="43.38827" lon="2.23094">
        <ele>729.8</ele>
        <time>2019-08-11T07:30:43.000Z</time>
      </trkpt>
      <trkpt lat="43.38825" lon="2.23092">
        <ele>729.5</ele>
        <time>2019-08-11T07:30:44.000Z</time>
      </trkpt>
      <trkpt lat="43.38823" lon="2.2309">
        <ele>729.3</ele>
        <time>2019-08-11T07:30:45.000Z</time>
      </trkpt>
      <trkpt lat="43.38821" lon="2.23088">
        <ele>729</ele>
        <time>2019-08-11T07:30:46.000Z</time>
      </trkpt>
      <trkpt lat="43.38818" lon="2.23085">
        <ele>728.8</ele>
        <time>2019-08-11T07:30:47.000Z</time>
      </trkpt>
      <trkpt lat="43.38816" lon="2.23083">
        <ele>728.5</ele>
        <time>2019-08-11T07:30:48.000Z</time>
      </trkpt>
      <trkpt lat="43.38814" lon="2.2308">
        <ele>728.3</ele>
        <time>2019-08-11T07:30:49.000Z</time>
      </trkpt>
      <trkpt lat="43.38812" lon="2.23078">
        <ele>728</ele>
        <time>2019-08-11T07:30:50.000Z</time>
      </trkpt>
      <trkpt lat="43.38809" lon="2.23076">
        <ele>727.7</ele>
        <time>2019-08-11T07:30:51.000Z</time>
      </trkpt>
      <trkpt lat="43.38807" lon="2.23073">
        <ele>727.4</ele>
        <time>2019-08-11T07:30:52.000Z</time>
      </trkpt>
      <trkpt lat="43.38804" lon="2.23071">
        <ele>727.1</ele>
        <time>2019-08-11T07:30:53.000Z</time>
      </trkpt>
      <trkpt lat="43.38802" lon="2.23069">
        <ele>726.8</ele>
        <time>2019-08-11T07:30:54.000Z</time>
      </trkpt>
      <trkpt lat="43.38799" lon="2.23066">
        <ele>726.5</ele>
        <time>2019-08-11T07:30:55.000Z</time>
      </trkpt>
      <trkpt lat="43.38797" lon="2.23064">
        <ele>726.2</ele>
        <time>2019-08-11T07:30:56.000Z</time>
      </trkpt>
      <trkpt lat="43.38794" lon="2.23062">
        <ele>725.9</ele>
        <time>2019-08-11T07:30:57.000Z</time>
      </trkpt>
      <trkpt lat="43.38792" lon="2.23059">
        <ele>725.6</ele>
        <time>2019-08-11T07:30:58.000Z</time>
      </trkpt>
      <trkpt lat="43.38789" lon="2.23057">
        <ele>725.3</ele>
        <time>2019-08-11T07:30:59.000Z</time>
      </trkpt>
      <trkpt lat="43.38786" lon="2.23055">
        <ele>725</ele>
        <time>2019-08-11T07:31:00.000Z</time>
      </trkpt>
      <trkpt lat="43.38784" lon="2.23053">
        <ele>724.7</ele>
        <time>2019-08-11T07:31:01.000Z</time>
      </trkpt>
      <trkpt lat="43.38781" lon="2.23051">
        <ele>724.4</ele>
        <time>2019-08-11T07:31:02.000Z</time>
      </trkpt>
      <trkpt lat="43.38779" lon="2.23048">
        <ele>724.1</ele>
        <time>2019-08-11T07:31:03.000Z</time>
      </trkpt>
      <trkpt lat="43.38776" lon="2.23046">
        <ele>723.8</ele>
        <time>2019-08-11T07:31:04.000Z</time>
      </trkpt>
      <trkpt lat="43.38774" lon="2.23044">
        <ele>723.6</ele>
        <time>2019-08-11T07:31:05.000Z</time>
      </trkpt>
      <trkpt lat="43.38771" lon="2.23042">
        <ele>723.3</ele>
        <time>2019-08-11T07:31:06.000Z</time>
      </trkpt>
      <trkpt lat="43.38769" lon="2.2304">
        <ele>723</ele>
        <time>2019-08-11T07:31:07.000Z</time>
      </trkpt>
      <trkpt lat="43.38767" lon="2.23038">
        <ele>722.8</ele>
        <time>2019-08-11T07:31:08.000Z</time>
      </trkpt>
      <trkpt lat="43.38765" lon="2.23036">
        <ele>722.5</ele>
        <time>2019-08-11T07:31:09.000Z</time>
      </trkpt>
      <trkpt lat="43.38763" lon="2.23034">
        <ele>722.3</ele>
        <time>2019-08-11T07:31:10.000Z</time>
      </trkpt>
      <trkpt lat="43.38761" lon="2.23032">
        <ele>722</ele>
        <time>2019-08-11T07:31:11.000Z</time>
      </trkpt>
      <trkpt lat="43.38759" lon="2.2303">
        <ele>721.8</ele>
        <time>2019-08-11T07:31:12.000Z</time>
      </trkpt>
      <trkpt lat="43.38757" lon="2.23029">
        <ele>721.6</ele>
        <time>2019-08-11T07:31:13.000Z</time>
      </trkpt>
      <trkpt lat="43.38756" lon="2.23027">
        <ele>721.5</ele>
        <time>2019-08-11T07:31:14.000Z</time>
      </trkpt>
      <trkpt lat="43.38754" lon="2.23026">
        <ele>721.3</ele>
        <time>2019-08-11T07:31:15.000Z</time>
      </trkpt>
      <trkpt lat="43.38753" lon="2.23025">
        <ele>721.1</ele>
        <time>2019-08-11T07:31:16.000Z</time>
      </trkpt>
      <trkpt lat="43.38752" lon="2.23024">
        <ele>721</ele>
        <time>2019-08-11T07:31:17.000Z</time>
      </trkpt>
      <trkpt lat="43.3875" lon="2.23024">
        <ele>720.9</ele>
        <time>2019-08-11T07:31:18.000Z</time>
      </trkpt>
      <trkpt lat="43.38749" lon="2.23024">
        <ele>720.8</ele>
        <time>2019-08-11T07:31:19.000Z</time>
      </trkpt>
      <trkpt lat="43.38748" lon="2.23024">
        <ele>720.7</ele>
        <time>2019-08-11T07:31:20.000Z</time>
      </trkpt>
      <trkpt lat="43.38747" lon="2.23024">
        <ele>720.7</ele>
        <time>2019-08-11T07:31:21.000Z</time>
      </trkpt>
      <trkpt lat="43.38746" lon="2.23024">
        <ele>720.7</ele>
        <time>2019-08-11T07:31:22.000Z</time>
      </trkpt>
      <trkpt lat="43.38746" lon="2.23024">
        <ele>720.6</ele>
        <time>2019-08-11T07:31:23.000Z</time>
      </trkpt>
      <trkpt lat="43.38745" lon="2.23024">
        <ele>720.6</ele>
        <time>2019-08-11T07:31:24.000Z</time>
      </trkpt>
      <trkpt lat="43.38745" lon="2.23024">
        <ele>720.6</ele>
        <time>2019-08-11T07:31:25.000Z</time>
      </trkpt>
      <trkpt lat="43.38744" lon="2.23024">
        <ele>720.6</ele>
        <time>2019-08-11T07:31:26.000Z</time>
      </trkpt>
      <trkpt lat="43.38744" lon="2.23024">
        <ele>720.5</ele>
        <time>2019-08-11T07:31:27.000Z</time>
      </trkpt>
      <trkpt lat="43.38744" lon="2.23024">
        <ele>720.5</ele>
        <time>2019-08-11T07:31:28.000Z</time>
      </trkpt>
      <trkpt lat="43.38743" lon="2.23025">
        <ele>720.5</ele>
        <time>2019-08-11T07:31:29.000Z</time>
      </trkpt>
      <trkpt lat="43.38743" lon="2.23025">
        <ele>720.5</ele>
        <time>2019-08-11T07:31:30.000Z</time>
      </trkpt>
      <trkpt lat="43.38743" lon="2.23025">
        <ele>720.5</ele>
        <time>2019-08-11T07:31:31.000Z</time>
      </trkpt>
      <trkpt lat="43.38743" lon="2.23025">
        <ele>720.5</ele>
        <time>2019-08-11T07:31:32.000Z</time>
      </trkpt>
      <trkpt lat="43.38743" lon="2.23025">
        <ele>720.5</ele>
        <time>2019-08-11T07:31:33.000Z</time>
      </trkpt>
      <trkpt lat="43.38743" lon="2.23025">
        <ele>720.5</ele>
        <time>2019-08-11T07:31:34.000Z</time>
      </trkpt>
      <trkpt lat="43.38743" lon="2.23024">
        <ele>720.5</ele>
        <time>2019-08-11T07:31:35.000Z</time>
      </trkpt>
      <trkpt lat="43.38744" lon="2.23024">
        <ele>720.5</ele>
        <time>2019-08-11T07:31:36.000Z</time>
      </trkpt>
      <trkpt lat="43.38744" lon="2.23024">
        <ele>720.5</ele>
        <time>2019-08-11T07:31:37.000Z</time>
      </trkpt>
      <trkpt lat="43.38744" lon="2.23024">
        <ele>720.5</ele>
        <time>2019-08-11T07:31:38.000Z</time>
      </trkpt>
      <trkpt lat="43.38744" lon="2.23024">
        <ele>720.5</ele>
        <time>2019-08-11T07:31:39.000Z</time>
      </trkpt>
      <trkpt lat="43.38744" lon="2.23024">
        <ele>720.5</ele>
        <time>2019-08-11T07:31:40.000Z</time>
      </trkpt>
      <trkpt lat="43.38744" lon="2.23024">
        <ele>720.5</ele>
        <time>2019-08-11T07:31:41.000Z</time>
      </trkpt>
      <trkpt lat="43.38744" lon="2.23024">
        <ele>720.5</ele>
        <time>2019-08-11T07:31:42.000Z</time>
      </trkpt>
      <trkpt lat="43.38744" lon="2.23024">
        <ele>720.5</ele>
        <time>2019-08-11T07:31:43.000Z</time>
      </trkpt>
      <trkpt lat="43.38744" lon="2.23024">
        <ele>720.5</ele>
        <time>2019-08-11T07:31:44.000Z</time>
      </trkpt>
      <trkpt lat="43.38744" lon="2.23024">
        <ele>720.5</ele>
        <time>2019-08-11T07:31:45.000Z</time>
      </trkpt>
      <trkpt lat="43.38744" lon="2.23024">
        <ele>720.5</ele>
        <time>2019-08-11T07:31:46.000Z</time>
      </trkpt>
      <trkpt lat="43.38744" lon="2.23024">
        <ele>720.5</ele>
        <time>2019-08-11T07:31:47.000Z</time>
      </trkpt>
      <trkpt lat="43.38744" lon="2.23024">
        <ele>720.5</ele>
        <time>2019-08-11T07:31:48.000Z</time>
      </trkpt>
      <trkpt lat="43.38744" lon="2.23024">
        <ele>720.5</ele>
        <time>2019-08-11T07:31:49.000Z</time>
      </trkpt>
      <trkpt lat="43.38744" lon="2.23024">
        <ele>720.5</ele>
        <time>2019-08-11T07:31:50.000Z</time>
      </trkpt>
      <trkpt lat="43.38744" lon="2.23024">
        <ele>720.5</ele>
        <time>2019-08-11T07:31:51.000Z</time>
      </trkpt>
      <trkpt lat="43.38744" lon="2.23024">
        <ele>720.5</ele>
        <time>2019-08-11T07:31:52.000Z</time>
      </trkpt>
      <trkpt lat="43.38744" lon="2.23024">
        <ele>720.5</ele>
        <time>2019-08-11T07:31:53.000Z</time>
      </trkpt>
      <trkpt lat="43.38744" lon="2.23024">
        <ele>720.5</ele>
        <time>2019-08-11T07:31:54.000Z</time>
      </trkpt>
      <trkpt lat="43.38744" lon="2.23024">
        <ele>720.5</ele>
        <time>2019-08-11T07:31:55.000Z</time>
      </trkpt>
      <trkpt lat="43.38744" lon="2.23024">
        <ele>720.5</ele>
        <time>2019-08-11T07:31:56.000Z</time>
      </trkpt>
      <trkpt lat="43.38744" lon="2.23024">
        <ele>720.5</ele>
        <time>2019-08-11T07:31:57.000Z</time>
      </trkpt>
      <trkpt lat="43.38744" lon="2.23024">
        <ele>720.5</ele>
        <time>2019-08-11T07:31:58.000Z</time>
      </trkpt>
      <trkpt lat="43.38744" lon="2.23024">
        <ele>720.5</ele>
        <time>2019-08-11T07:31:59.000Z</time>
      </trkpt>
      <trkpt lat="43.38744" lon="2.23024">
        <ele>720.5</ele>
        <time>2019-08-11T07:32:00.000Z</time>
      </trkpt>
      <trkpt lat="43.38744" lon="2.23024">
        <ele>720.5</ele>
        <time>2019-08-11T07:32:01.000Z</time>
      </trkpt>
      <trkpt lat="43.38744" lon="2.23024">
        <ele>720.5</ele>
        <time>2019-08-11T07:32:02.000Z</time>
      </trkpt>
      <trkpt lat="43.38744" lon="2.23024">
        <ele>720.5</ele>
        <time>2019-08-11T07:32:03.000Z</time>
      </trkpt>
      <trkpt lat="43.38744" lon="2.23024">
        <ele>720.5</ele>
        <time>2019-08-11T07:32:04.000Z</time>
      </trkpt>
      <trkpt lat="43.38744" lon="2.23024">
        <ele>720.5</ele>
        <time>2019-08-11T07:32:05.000Z</time>
      </trkpt>
      <trkpt lat="43.38744" lon="2.23024">
        <ele>720.5</ele>
        <time>2019-08-11T07:32:06.000Z</time>
      </trkpt>
      <trkpt lat="43.38744" lon="2.23024">
        <ele>720.5</ele>
        <time>2019-08-11T07:32:07.000Z</time>
      </trkpt>
      <trkpt lat="43.38744" lon="2.23024">
        <ele>720.5</ele>
        <time>2019-08-11T07:32:08.000Z</time>
      </trkpt>
      <trkpt lat="43.38744" lon="2.23024">
        <ele>720.5</ele>
        <time>2019-08-11T07:32:09.000Z</time>
      </trkpt>
      <trkpt lat="43.38744" lon="2.23024">
        <ele>720.5</ele>
        <time>2019-08-11T07:32:10.000Z</time>
      </trkpt>
      <trkpt lat="43.38744" lon="2.23024">
        <ele>720.5</ele>
        <time>2019-08-11T07:32:11.000Z</time>
      </trkpt>
      <trkpt lat="43.38744" lon="2.23024">
        <ele>720.5</ele>
        <time>2019-08-11T07:32:12.000Z</time>
      </trkpt>
      <trkpt lat="43.38744" lon="2.23024">
        <ele>720.5</ele>
        <time>2019-08-11T07:32:13.000Z</time>
      </trkpt>
      <trkpt lat="43.38744" lon="2.23024">
        <ele>720.5</ele>
        <time>2019-08-11T07:32:14.000Z</time>
      </trkpt>
      <trkpt lat="43.38744" lon="2.23024">
        <ele>720.5</ele>
        <time>2019-08-11T07:32:15.000Z</time>
      </trkpt>
      <trkpt lat="43.38744" lon="2.23024">
        <ele>720.5</ele>
        <time>2019-08-11T07:32:16.000Z</time>
      </trkpt>
      <trkpt lat="43.38744" lon="2.23024">
        <ele>720.5</ele>
        <time>2019-08-11T07:32:17.000Z</time>
      </trkpt>
      <trkpt lat="43.38744" lon="2.23025">
        <ele>720.5</ele>
        <time>2019-08-11T07:32:18.000Z</time>
      </trkpt>
      <trkpt lat="43.38744" lon="2.23025">
        <ele>720.5</ele>
        <time>2019-08-11T07:32:19.000Z</time>
      </trkpt>
      <trkpt lat="43.38744" lon="2.23025">
        <ele>720.5</ele>
        <time>2019-08-11T07:32:20.000Z</time>
      </trkpt>
      <trkpt lat="43.38743" lon="2.23025">
        <ele>720.5</ele>
        <time>2019-08-11T07:32:21.000Z</time>
      </trkpt>
      <trkpt lat="43.38743" lon="2.23025">
        <ele>720.5</ele>
        <time>2019-08-11T07:32:22.000Z</time>
      </trkpt>
      <trkpt lat="43.38743" lon="2.23025">
        <ele>720.5</ele>
        <time>2019-08-11T07:32:23.000Z</time>
      </trkpt>
      <trkpt lat="43.38743" lon="2.23025">
        <ele>720.5</ele>
        <time>2019-08-11T07:32:24.000Z</time>
      </trkpt>
      <trkpt lat="43.38743" lon="2.23024">
        <ele>720.5</ele>
        <time>2019-08-11T07:32:25.000Z</time>
      </trkpt>
      <trkpt lat="43.38742" lon="2.23024">
        <ele>720.4</ele>
        <time>2019-08-11T07:32:26.000Z</time>
      </trkpt>
      <trkpt lat="43.38742" lon="2.23024">
        <ele>720.4</ele>
        <time>2019-08-11T07:32:27.000Z</time>
      </trkpt>
      <trkpt lat="43.38741" lon="2.23023">
        <ele>720.3</ele>
        <time>2019-08-11T07:32:28.000Z</time>
      </trkpt>
      <trkpt lat="43.3874" lon="2.23023">
        <ele>720.3</ele>
        <time>2019-08-11T07:32:29.000Z</time>
      </trkpt>
      <trkpt lat="43.3874" lon="2.23023">
        <ele>720.2</ele>
        <time>2019-08-11T07:32:30.000Z</time>
      </trkpt>
      <trkpt lat="43.38739" lon="2.23022">
        <ele>720.2</ele>
        <time>2019-08-11T07:32:31.000Z</time>
      </trkpt>
      <trkpt lat="43.38738" lon="2.23022">
        <ele>720.1</ele>
        <time>2019-08-11T07:32:32.000Z</time>
      </trkpt>
      <trkpt lat="43.38737" lon="2.23021">
        <ele>720.1</ele>
        <time>2019-08-11T07:32:33.000Z</time>
      </trkpt>
      <trkpt lat="43.38737" lon="2.23021">
        <ele>720.1</ele>
        <time>2019-08-11T07:32:34.000Z</time>
      </trkpt>
      <trkpt lat="43.38737" lon="2.23021">
        <ele>720</ele>
        <time>2019-08-11T07:32:35.000Z</time>
      </trkpt>
      <trkpt lat="43.38736" lon="2.23021">
        <ele>720</ele>
        <time>2019-08-11T07:32:36.000Z</time>
      </trkpt>
      <trkpt lat="43.38736" lon="2.23021">
        <ele>720</ele>
        <time>2019-08-11T07:32:37.000Z</time>
      </trkpt>
      <trkpt lat="43.38736" lon="2.23021">
        <ele>720</ele>
        <time>2019-08-11T07:32:38.000Z</time>
      </trkpt>
      <trkpt lat="43.38736" lon="2.23021">
        <ele>720</ele>
        <time>2019-08-11T07:32:39.000Z</time>
      </trkpt>
      <trkpt lat="43.38736" lon="2.23021">
        <ele>720</ele>
        <time>2019-08-11T07:32:40.000Z</time>
      </trkpt>
      <trkpt lat="43.38736" lon="2.23021">
        <ele>720</ele>
        <time>2019-08-11T07:32:41.000Z</time>
      </trkpt>
      <trkpt lat="43.38735" lon="2.23021">
        <ele>720</ele>
        <time>2019-08-11T07:32:42.000Z</time>
      </trkpt>
      <trkpt lat="43.38735" lon="2.23021">
        <ele>720</ele>
        <time>2019-08-11T07:32:43.000Z</time>
      </trkpt>
      <trkpt lat="43.38735" lon="2.23021">
        <ele>720</ele>
        <time>2019-08-11T07:32:44.000Z</time>
      </trkpt>
      <trkpt lat="43.38735" lon="2.23021">
        <ele>720</ele>
        <time>2019-08-11T07:32:45.000Z</time>
      </trkpt>
      <trkpt lat="43.38735" lon="2.23021">
        <ele>720</ele>
        <time>2019-08-11T07:32:46.000Z</time>
      </trkpt>
      <trkpt lat="43.38735" lon="2.23021">
        <ele>720</ele>
        <time>2019-08-11T07:32:47.000Z</time>
      </trkpt>
      <trkpt lat="43.38735" lon="2.23021">
        <ele>720</ele>
        <time>2019-08-11T07:32:48.000Z</time>
      </trkpt>
      <trkpt lat="43.38735" lon="2.23021">
        <ele>720</ele>
        <time>2019-08-11T07:32:49.000Z</time>
      </trkpt>
      <trkpt lat="43.38735" lon="2.23021">
        <ele>720</ele>
        <time>2019-08-11T07:32:50.000Z</time>
      </trkpt>
      <trkpt lat="43.38735" lon="2.23021">
        <ele>720</ele>
        <time>2019-08-11T07:32:51.000Z</time>
      </trkpt>
      <trkpt lat="43.38735" lon="2.23021">
        <ele>720</ele>
        <time>2019-08-11T07:32:52.000Z</time>
      </trkpt>
      <trkpt lat="43.38735" lon="2.23021">
        <ele>720</ele>
        <time>2019-08-11T07:32:53.000Z</time>
      </trkpt>
      <trkpt lat="43.38735" lon="2.23021">
        <ele>720</ele>
        <time>2019-08-11T07:32:54.000Z</time>
      </trkpt>
      <trkpt lat="43.38735" lon="2.23021">
        <ele>720</ele>
        <time>2019-08-11T07:32:55.000Z</time>
      </trkpt>
      <trkpt lat="43.38735" lon="2.23021">
        <ele>720</ele>
        <time>2019-08-11T07:32:56.000Z</time>
      </trkpt>
      <trkpt lat="43.38735" lon="2.23021">
        <ele>720</ele>
        <time>2019-08-11T07:32:57.000Z</time>
      </trkpt>
      <trkpt lat="43.38735" lon="2.23021">
        <ele>720</ele>
        <time>2019-08-11T07:32:58.000Z</time>
      </trkpt>
      <trkpt lat="43.38735" lon="2.23021">
        <ele>720</ele>
        <time>2019-08-11T07:32:59.000Z</time>
      </trkpt>
      <trkpt lat="43.38735" lon="2.23021">
        <ele>720</ele>
        <time>2019-08-11T07:33:00.000Z</time>
      </trkpt>
      <trkpt lat="43.38735" lon="2.23021">
        <ele>720</ele>
        <time>2019-08-11T07:33:01.000Z</time>
      </trkpt>
      <trkpt lat="43.38735" lon="2.23021">
        <ele>720</ele>
        <time>2019-08-11T07:33:02.000Z</time>
      </trkpt>
      <trkpt lat="43.38735" lon="2.23021">
        <ele>720</ele>
        <time>2019-08-11T07:33:03.000Z</time>
      </trkpt>
      <trkpt lat="43.38735" lon="2.23021">
        <ele>720</ele>
        <time>2019-08-11T07:33:04.000Z</time>
      </trkpt>
      <trkpt lat="43.38735" lon="2.23021">
        <ele>720</ele>
        <time>2019-08-11T07:33:05.000Z</time>
      </trkpt>
      <trkpt lat="43.38735" lon="2.23021">
        <ele>720</ele>
        <time>2019-08-11T07:33:06.000Z</time>
      </trkpt>
      <trkpt lat="43.38735" lon="2.23021">
        <ele>720</ele>
        <time>2019-08-11T07:33:07.000Z</time>
      </trkpt>
      <trkpt lat="43.38735" lon="2.23021">
        <ele>720</ele>
        <time>2019-08-11T07:33:08.000Z</time>
      </trkpt>
      <trkpt lat="43.38735" lon="2.23021">
        <ele>720</ele>
        <time>2019-08-11T07:33:09.000Z</time>
      </trkpt>
      <trkpt lat="43.38735" lon="2.23021">
        <ele>720</ele>
        <time>2019-08-11T07:33:10.000Z</time>
      </trkpt>
      <trkpt lat="43.38735" lon="2.23021">
        <ele>720</ele>
        <time>2019-08-11T07:33:11.000Z</time>
      </trkpt>
      <trkpt lat="43.38735" lon="2.23021">
        <ele>720</ele>
        <time>2019-08-11T07:33:12.000Z</time>
      </trkpt>
      <trkpt lat="43.38735" lon="2.23021">
        <ele>720</ele>
        <time>2019-08-11T07:33:13.000Z</time>
      </trkpt>
      <trkpt lat="43.38735" lon="2.23021">
        <ele>720</ele>
        <time>2019-08-11T07:33:14.000Z</time>
      </trkpt>
      <trkpt lat="43.38735" lon="2.23021">
        <ele>720</ele>
        <time>2019-08-11T07:33:15.000Z</time>
      </trkpt>
      <trkpt lat="43.38736" lon="2.23021">
        <ele>720</ele>
        <time>2019-08-11T07:33:16.000Z</time>
      </trkpt>
      <trkpt lat="43.38736" lon="2.23021">
        <ele>720</ele>
        <time>2019-08-11T07:33:17.000Z</time>
      </trkpt>
      <trkpt lat="43.38736" lon="2.23021">
        <ele>720</ele>
        <time>2019-08-11T07:33:18.000Z</time>
      </trkpt>
      <trkpt lat="43.38736" lon="2.23021">
        <ele>720</ele>
        <time>2019-08-11T07:33:19.000Z</time>
      </trkpt>
      <trkpt lat="43.38736" lon="2.23021">
        <ele>720</ele>
        <time>2019-08-11T07:33:20.000Z</time>
      </trkpt>
      <trkpt lat="43.38736" lon="2.23021">
        <ele>720</ele>
        <time>2019-08-11T07:33:21.000Z</time>
      </trkpt>
      <trkpt lat="43.38736" lon="2.23021">
        <ele>720</ele>
        <time>2019-08-11T07:33:22.000Z</time>
      </trkpt>
      <trkpt lat="43.38735" lon="2.23021">
        <ele>720</ele>
        <time>2019-08-11T07:33:23.000Z</time>
      </trkpt>
      <trkpt lat="43.38735" lon="2.23021">
        <ele>720</ele>
        <time>2019-08-11T07:33:24.000Z</time>
      </trkpt>
      <trkpt lat="43.38735" lon="2.23021">
        <ele>720</ele>
        <time>2019-08-11T07:33:25.000Z</time>
      </trkpt>
      <trkpt lat="43.38735" lon="2.23021">
        <ele>720</ele>
        <time>2019-08-11T07:33:26.000Z</time>
      </trkpt>
      <trkpt lat="43.38735" lon="2.23022">
        <ele>719.9</ele>
        <time>2019-08-11T07:33:27.000Z</time>
      </trkpt>
      <trkpt lat="43.38734" lon="2.23022">
        <ele>719.9</ele>
        <time>2019-08-11T07:33:28.000Z</time>
      </trkpt>
      <trkpt lat="43.38734" lon="2.23022">
        <ele>719.9</ele>
        <time>2019-08-11T07:33:29.000Z</time>
      </trkpt>
      <trkpt lat="43.38734" lon="2.23023">
        <ele>719.9</ele>
        <time>2019-08-11T07:33:30.000Z</time>
      </trkpt>
      <trkpt lat="43.38733" lon="2.23023">
        <ele>719.9</ele>
        <time>2019-08-11T07:33:31.000Z</time>
      </trkpt>
      <trkpt lat="43.38733" lon="2.23023">
        <ele>719.9</ele>
        <time>2019-08-11T07:33:32.000Z</time>
      </trkpt>
      <trkpt lat="43.38732" lon="2.23024">
        <ele>719.9</ele>
        <time>2019-08-11T07:33:33.000Z</time>
      </trkpt>
      <trkpt lat="43.38731" lon="2.23024">
        <ele>719.8</ele>
        <time>2019-08-11T07:33:34.000Z</time>
      </trkpt>
      <trkpt lat="43.38731" lon="2.23024">
        <ele>719.8</ele>
        <time>2019-08-11T07:33:35.000Z</time>
      </trkpt>
      <trkpt lat="43.3873" lon="2.23024">
        <ele>719.8</ele>
        <time>2019-08-11T07:33:36.000Z</time>
      </trkpt>
      <trkpt lat="43.38729" lon="2.23024">
        <ele>719.7</ele>
        <time>2019-08-11T07:33:37.000Z</time>
      </trkpt>
      <trkpt lat="43.38728" lon="2.23024">
        <ele>719.7</ele>
        <time>2019-08-11T07:33:38.000Z</time>
      </trkpt>
      <trkpt lat="43.38727" lon="2.23024">
        <ele>719.6</ele>
        <time>2019-08-11T07:33:39.000Z</time>
      </trkpt>
      <trkpt lat="43.38726" lon="2.23024">
        <ele>719.5</ele>
        <time>2019-08-11T07:33:40.000Z</time>
      </trkpt>
      <trkpt lat="43.38725" lon="2.23024">
        <ele>719.5</ele>
        <time>2019-08-11T07:33:41.000Z</time>
      </trkpt>
      <trkpt lat="43.38724" lon="2.23023">
        <ele>719.4</ele>
        <time>2019-08-11T07:33:42.000Z</time>
      </trkpt>
      <trkpt lat="43.38722" lon="2.23023">
        <ele>719.3</ele>
        <time>2019-08-11T07:33:43.000Z</time>
      </trkpt>
      <trkpt lat="43.38721" lon="2.23023">
        <ele>719.2</ele>
        <time>2019-08-11T07:33:44.000Z</time>
      </trkpt>
      <trkpt lat="43.38719" lon="2.23022">
        <ele>719.1</ele>
        <time>2019-08-11T07:33:45.000Z</time>
      </trkpt>
      <trkpt lat="43.38718" lon="2.23022">
        <ele>719</ele>
        <time>2019-08-11T07:33:46.000Z</time>
      </trkpt>
      <trkpt lat="43.38716" lon="2.23022">
        <ele>718.9</ele>
        <time>2019-08-11T07:33:47.000Z</time>
      </trkpt>
      <trkpt lat="43.38714" lon="2.23021">
        <ele>718.8</ele>
        <time>2019-08-11T07:33:48.000Z</time>
      </trkpt>
      <trkpt lat="43.38712" lon="2.23021">
        <ele>718.7</ele>
        <time>2019-08-11T07:33:49.000Z</time>
      </trkpt>
      <trkpt lat="43.38709" lon="2.23021">
        <ele>718.5</ele>
        <time>2019-08-11T07:33:50.000Z</time>
      </trkpt>
      <trkpt lat="43.38707" lon="2.2302">
        <ele>718.4</ele>
        <time>2019-08-11T07:33:51.000Z</time>
      </trkpt>
      <trkpt lat="43.38704" lon="2.2302">
        <ele>718.3</ele>
        <time>2019-08-11T07:33:52.000Z</time>
      </trkpt>
      <trkpt lat="43.38702" lon="2.23019">
        <ele>718.1</ele>
        <time>2019-08-11T07:33:53.000Z</time>
      </trkpt>
      <trkpt lat="43.387" lon="2.23019">
        <ele>718</ele>
        <time>2019-08-11T07:33:54.000Z</time>
      </trkpt>
      <trkpt lat="43.38698" lon="2.23019">
        <ele>717.9</ele>
        <time>2019-08-11T07:33:55.000Z</time>
      </trkpt>
      <trkpt lat="43.38696" lon="2.23018">
        <ele>717.8</ele>
        <time>2019-08-11T07:33:56.000Z</time>
      </trkpt>
      <trkpt lat="43.38695" lon="2.23018">
        <ele>717.7</ele>
        <time>2019-08-11T07:33:57.000Z</time>
      </trkpt>
      <trkpt lat="43.38694" lon="2.23019">
        <ele>717.7</ele>
        <time>2019-08-11T07:33:58.000Z</time>
      </trkpt>
      <trkpt lat="43.38693" lon="2.23019">
        <ele>717.6</ele>
        <time>2019-08-11T07:33:59.000Z</time>
      </trkpt>
      <trkpt lat="43.38691" lon="2.2302">
        <ele>717.6</ele>
        <time>2019-08-11T07:34:00.000Z</time>
      </trkpt>
      <trkpt lat="43.3869" lon="2.2302">
        <ele>717.5</ele>
        <time>2019-08-11T07:34:01.000Z</time>
      </trkpt>
      <trkpt lat="43.38689" lon="2.2302">
        <ele>717.4</ele>
        <time>2019-08-11T07:34:02.000Z</time>
      </trkpt>
      <trkpt lat="43.38687" lon="2.2302">
        <ele>717.3</ele>
        <time>2019-08-11T07:34:03.000Z</time>
      </trkpt>
      <trkpt lat="43.38685" lon="2.2302">
        <ele>717.2</ele>
        <time>2019-08-11T07:34:04.000Z</time>
      </trkpt>
      <trkpt lat="43.38683" lon="2.2302">
        <ele>717.1</ele>
        <time>2019-08-11T07:34:05.000Z</time>
      </trkpt>
      <trkpt lat="43.38681" lon="2.2302">
        <ele>717</ele>
        <time>2019-08-11T07:34:06.000Z</time>
      </trkpt>
      <trkpt lat="43.38679" lon="2.2302">
        <ele>716.9</ele>
        <time>2019-08-11T07:34:07.000Z</time>
      </trkpt>
      <trkpt lat="43.38676" lon="2.2302">
        <ele>716.8</ele>
        <time>2019-08-11T07:34:08.000Z</time>
      </trkpt>
      <trkpt lat="43.38674" lon="2.2302">
        <ele>716.6</ele>
        <time>2019-08-11T07:34:09.000Z</time>
      </trkpt>
      <trkpt lat="43.38672" lon="2.2302">
        <ele>716.5</ele>
        <time>2019-08-11T07:34:10.000Z</time>
      </trkpt>
      <trkpt lat="43.38669" lon="2.2302">
        <ele>716.4</ele>
        <time>2019-08-11T07:34:11.000Z</time>
      </trkpt>
      <trkpt lat="43.38667" lon="2.2302">
        <ele>716.3</ele>
        <time>2019-08-11T07:34:12.000Z</time>
      </trkpt>
      <trkpt lat="43.38665" lon="2.2302">
        <ele>716</ele>
        <time>2019-08-11T07:34:13.000Z</time>
      </trkpt>
      <trkpt lat="43.38662" lon="2.2302">
        <ele>715.8</ele>
        <time>2019-08-11T07:34:14.000Z</time>
      </trkpt>
      <trkpt lat="43.3866" lon="2.2302">
        <ele>715.5</ele>
        <time>2019-08-11T07:34:15.000Z</time>
      </trkpt>
      <trkpt lat="43.38658" lon="2.23021">
        <ele>715.3</ele>
        <time>2019-08-11T07:34:16.000Z</time>
      </trkpt>
      <trkpt lat="43.38655" lon="2.23021">
        <ele>715.1</ele>
        <time>2019-08-11T07:34:17.000Z</time>
      </trkpt>
      <trkpt lat="43.38653" lon="2.23021">
        <ele>714.8</ele>
        <time>2019-08-11T07:34:18.000Z</time>
      </trkpt>
      <trkpt lat="43.38651" lon="2.23021">
        <ele>714.6</ele>
        <time>2019-08-11T07:34:19.000Z</time>
      </trkpt>
      <trkpt lat="43.38649" lon="2.23021">
        <ele>714.3</ele>
        <time>2019-08-11T07:34:20.000Z</time>
      </trkpt>
      <trkpt lat="43.38646" lon="2.23021">
        <ele>714.1</ele>
        <time>2019-08-11T07:34:21.000Z</time>
      </trkpt>
      <trkpt lat="43.38644" lon="2.23021">
        <ele>713.9</ele>
        <time>2019-08-11T07:34:22.000Z</time>
      </trkpt>
      <trkpt lat="43.38642" lon="2.23021">
        <ele>713.6</ele>
        <time>2019-08-11T07:34:23.000Z</time>
      </trkpt>
      <trkpt lat="43.3864" lon="2.2302">
        <ele>713.4</ele>
        <time>2019-08-11T07:34:24.000Z</time>
      </trkpt>
      <trkpt lat="43.38637" lon="2.2302">
        <ele>713.2</ele>
        <time>2019-08-11T07:34:25.000Z</time>
      </trkpt>
      <trkpt lat="43.38635" lon="2.23019">
        <ele>712.9</ele>
        <time>2019-08-11T07:34:26.000Z</time>
      </trkpt>
      <trkpt lat="43.38633" lon="2.23018">
        <ele>712.7</ele>
        <time>2019-08-11T07:34:27.000Z</time>
      </trkpt>
      <trkpt lat="43.38631" lon="2.23017">
        <ele>712.4</ele>
        <time>2019-08-11T07:34:28.000Z</time>
      </trkpt>
      <trkpt lat="43.38629" lon="2.23016">
        <ele>712.2</ele>
        <time>2019-08-11T07:34:29.000Z</time>
      </trkpt>
      <trkpt lat="43.38627" lon="2.23014">
        <ele>711.9</ele>
        <time>2019-08-11T07:34:30.000Z</time>
      </trkpt>
      <trkpt lat="43.38625" lon="2.23013">
        <ele>711.7</ele>
        <time>2019-08-11T07:34:31.000Z</time>
      </trkpt>
      <trkpt lat="43.38623" lon="2.23011">
        <ele>711.4</ele>
        <time>2019-08-11T07:34:32.000Z</time>
      </trkpt>
      <trkpt lat="43.38621" lon="2.2301">
        <ele>711.2</ele>
        <time>2019-08-11T07:34:33.000Z</time>
      </trkpt>
      <trkpt lat="43.38619" lon="2.23008">
        <ele>710.9</ele>
        <time>2019-08-11T07:34:34.000Z</time>
      </trkpt>
      <trkpt lat="43.38616" lon="2.23006">
        <ele>710.7</ele>
        <time>2019-08-11T07:34:35.000Z</time>
      </trkpt>
      <trkpt lat="43.38614" lon="2.23004">
        <ele>710.4</ele>
        <time>2019-08-11T07:34:36.000Z</time>
      </trkpt>
      <trkpt lat="43.38612" lon="2.23003">
        <ele>710.2</ele>
        <time>2019-08-11T07:34:37.000Z</time>
      </trkpt>
      <trkpt lat="43.3861" lon="2.23001">
        <ele>709.9</ele>
        <time>2019-08-11T07:34:38.000Z</time>
      </trkpt>
      <trkpt lat="43.38608" lon="2.22999">
        <ele>709.7</ele>
        <time>2019-08-11T07:34:39.000Z</time>
      </trkpt>
      <trkpt lat="43.38606" lon="2.22998">
        <ele>709.4</ele>
        <time>2019-08-11T07:34:40.000Z</time>
      </trkpt>
      <trkpt lat="43.38604" lon="2.22996">
        <ele>709.1</ele>
        <time>2019-08-11T07:34:41.000Z</time>
      </trkpt>
      <trkpt lat="43.38602" lon="2.22995">
        <ele>708.9</ele>
        <time>2019-08-11T07:34:42.000Z</time>
      </trkpt>
      <trkpt lat="43.38601" lon="2.22994">
        <ele>708.7</ele>
        <time>2019-08-11T07:34:43.000Z</time>
      </trkpt>
      <trkpt lat="43.386" lon="2.22993">
        <ele>708.6</ele>
        <time>2019-08-11T07:34:44.000Z</time>
      </trkpt>
      <trkpt lat="43.38599" lon="2.22993">
        <ele>708.6</ele>
        <time>2019-08-11T07:34:45.000Z</time>
      </trkpt>
      <trkpt lat="43.38599" lon="2.22993">
        <ele>708.6</ele>
        <time>2019-08-11T07:34:46.000Z</time>
      </trkpt>
      <trkpt lat="43.38599" lon="2.22993">
        <ele>708.6</ele>
        <time>2019-08-11T07:34:47.000Z</time>
      </trkpt>
      <trkpt lat="43.38599" lon="2.22992">
        <ele>708.5</ele>
        <time>2019-08-11T07:34:48.000Z</time>
      </trkpt>
      <trkpt lat="43.38598" lon="2.22991">
        <ele>708.4</ele>
        <time>2019-08-11T07:34:49.000Z</time>
      </trkpt>
      <trkpt lat="43.38596" lon="2.2299">
        <ele>708.2</ele>
        <time>2019-08-11T07:34:50.000Z</time>
      </trkpt>
      <trkpt lat="43.38594" lon="2.22988">
        <ele>707.9</ele>
        <time>2019-08-11T07:34:51.000Z</time>
      </trkpt>
      <trkpt lat="43.38592" lon="2.22986">
        <ele>707.6</ele>
        <time>2019-08-11T07:34:52.000Z</time>
      </trkpt>
      <trkpt lat="43.3859" lon="2.22984">
        <ele>707.3</ele>
        <time>2019-08-11T07:34:53.000Z</time>
      </trkpt>
      <trkpt lat="43.38587" lon="2.22982">
        <ele>707</ele>
        <time>2019-08-11T07:34:54.000Z</time>
      </trkpt>
      <trkpt lat="43.38584" lon="2.22979">
        <ele>706.6</ele>
        <time>2019-08-11T07:34:55.000Z</time>
      </trkpt>
      <trkpt lat="43.38582" lon="2.22977">
        <ele>706.3</ele>
        <time>2019-08-11T07:34:56.000Z</time>
      </trkpt>
      <trkpt lat="43.38579" lon="2.22974">
        <ele>706.1</ele>
        <time>2019-08-11T07:34:57.000Z</time>
      </trkpt>
      <trkpt lat="43.38577" lon="2.22972">
        <ele>705.8</ele>
        <time>2019-08-11T07:34:58.000Z</time>
      </trkpt>
      <trkpt lat="43.38575" lon="2.2297">
        <ele>705.6</ele>
        <time>2019-08-11T07:34:59.000Z</time>
      </trkpt>
      <trkpt lat="43.38573" lon="2.22967">
        <ele>705.4</ele>
        <time>2019-08-11T07:35:00.000Z</time>
      </trkpt>
      <trkpt lat="43.38572" lon="2.22965">
        <ele>705.2</ele>
        <time>2019-08-11T07:35:01.000Z</time>
      </trkpt>
      <trkpt lat="43.3857" lon="2.22963">
        <ele>705.1</ele>
        <time>2019-08-11T07:35:02.000Z</time>
      </trkpt>
      <trkpt lat="43.38569" lon="2.22962">
        <ele>705</ele>
        <time>2019-08-11T07:35:03.000Z</time>
      </trkpt>
      <trkpt lat="43.38569" lon="2.2296">
        <ele>704.9</ele>
        <time>2019-08-11T07:35:04.000Z</time>
      </trkpt>
      <trkpt lat="43.38568" lon="2.22959">
        <ele>704.8</ele>
        <time>2019-08-11T07:35:05.000Z</time>
      </trkpt>
      <trkpt lat="43.38568" lon="2.22958">
        <ele>704.8</ele>
        <time>2019-08-11T07:35:06.000Z</time>
      </trkpt>
      <trkpt lat="43.38567" lon="2.22957">
        <ele>704.7</ele>
        <time>2019-08-11T07:35:07.000Z</time>
      </trkpt>
      <trkpt lat="43.38567" lon="2.22956">
        <ele>704.7</ele>
        <time>2019-08-11T07:35:08.000Z</time>
      </trkpt>
      <trkpt lat="43.38567" lon="2.22955">
        <ele>704.6</ele>
        <time>2019-08-11T07:35:09.000Z</time>
      </trkpt>
      <trkpt lat="43.38567" lon="2.22954">
        <ele>704.6</ele>
        <time>2019-08-11T07:35:10.000Z</time>
      </trkpt>
      <trkpt lat="43.38566" lon="2.22954">
        <ele>704.6</ele>
        <time>2019-08-11T07:35:11.000Z</time>
      </trkpt>
      <trkpt lat="43.38566" lon="2.22953">
        <ele>704.5</ele>
        <time>2019-08-11T07:35:12.000Z</time>
      </trkpt>
      <trkpt lat="43.38565" lon="2.22951">
        <ele>704.4</ele>
        <time>2019-08-11T07:35:13.000Z</time>
      </trkpt>
      <trkpt lat="43.38565" lon="2.22949">
        <ele>704.4</ele>
        <time>2019-08-11T07:35:14.000Z</time>
      </trkpt>
      <trkpt lat="43.38565" lon="2.22947">
        <ele>704.3</ele>
        <time>2019-08-11T07:35:15.000Z</time>
      </trkpt>
      <trkpt lat="43.38564" lon="2.22944">
        <ele>704.2</ele>
        <time>2019-08-11T07:35:16.000Z</time>
      </trkpt>
      <trkpt lat="43.38564" lon="2.22941">
        <ele>704.1</ele>
        <time>2019-08-11T07:35:17.000Z</time>
      </trkpt>
      <trkpt lat="43.38564" lon="2.22939">
        <ele>704.1</ele>
        <time>2019-08-11T07:35:18.000Z</time>
      </trkpt>
      <trkpt lat="43.38564" lon="2.22936">
        <ele>704</ele>
        <time>2019-08-11T07:35:19.000Z</time>
      </trkpt>
      <trkpt lat="43.38564" lon="2.22933">
        <ele>703.9</ele>
        <time>2019-08-11T07:35:20.000Z</time>
      </trkpt>
      <trkpt lat="43.38563" lon="2.22931">
        <ele>703.9</ele>
        <time>2019-08-11T07:35:21.000Z</time>
      </trkpt>
      <trkpt lat="43.38563" lon="2.22929">
        <ele>703.8</ele>
        <time>2019-08-11T07:35:22.000Z</time>
      </trkpt>
      <trkpt lat="43.38563" lon="2.22927">
        <ele>703.7</ele>
        <time>2019-08-11T07:35:23.000Z</time>
      </trkpt>
      <trkpt lat="43.38562" lon="2.22926">
        <ele>703.7</ele>
        <time>2019-08-11T07:35:24.000Z</time>
      </trkpt>
      <trkpt lat="43.38562" lon="2.22925">
        <ele>703.6</ele>
        <time>2019-08-11T07:35:25.000Z</time>
      </trkpt>
      <trkpt lat="43.38561" lon="2.22924">
        <ele>703.6</ele>
        <time>2019-08-11T07:35:26.000Z</time>
      </trkpt>
      <trkpt lat="43.38561" lon="2.22923">
        <ele>703.5</ele>
        <time>2019-08-11T07:35:27.000Z</time>
      </trkpt>
      <trkpt lat="43.3856" lon="2.22922">
        <ele>703.4</ele>
        <time>2019-08-11T07:35:28.000Z</time>
      </trkpt>
      <trkpt lat="43.38559" lon="2.22921">
        <ele>703.4</ele>
        <time>2019-08-11T07:35:29.000Z</time>
      </trkpt>
      <trkpt lat="43.38559" lon="2.22919">
        <ele>703.3</ele>
        <time>2019-08-11T07:35:30.000Z</time>
      </trkpt>
      <trkpt lat="43.38558" lon="2.22917">
        <ele>703.2</ele>
        <time>2019-08-11T07:35:31.000Z</time>
      </trkpt>
      <trkpt lat="43.38557" lon="2.22915">
        <ele>703</ele>
        <time>2019-08-11T07:35:32.000Z</time>
      </trkpt>
      <trkpt lat="43.38556" lon="2.22912">
        <ele>702.9</ele>
        <time>2019-08-11T07:35:33.000Z</time>
      </trkpt>
      <trkpt lat="43.38555" lon="2.22909">
        <ele>702.8</ele>
        <time>2019-08-11T07:35:34.000Z</time>
      </trkpt>
      <trkpt lat="43.38554" lon="2.22907">
        <ele>702.7</ele>
        <time>2019-08-11T07:35:35.000Z</time>
      </trkpt>
      <trkpt lat="43.38553" lon="2.22904">
        <ele>702.6</ele>
        <time>2019-08-11T07:35:36.000Z</time>
      </trkpt>
      <trkpt lat="43.38552" lon="2.22901">
        <ele>702.5</ele>
        <time>2019-08-11T07:35:37.000Z</time>
      </trkpt>
      <trkpt lat="43.38551" lon="2.22898">
        <ele>702.3</ele>
        <time>2019-08-11T07:35:38.000Z</time>
      </trkpt>
      <trkpt lat="43.3855" lon="2.22895">
        <ele>702.2</ele>
        <time>2019-08-11T07:35:39.000Z</time>
      </trkpt>
      <trkpt lat="43.38549" lon="2.22892">
        <ele>702.1</ele>
        <time>2019-08-11T07:35:40.000Z</time>
      </trkpt>
      <trkpt lat="43.38548" lon="2.2289">
        <ele>702</ele>
        <time>2019-08-11T07:35:41.000Z</time>
      </trkpt>
      <trkpt lat="43.38547" lon="2.22887">
        <ele>701.8</ele>
        <time>2019-08-11T07:35:42.000Z</time>
      </trkpt>
      <trkpt lat="43.38545" lon="2.22884">
        <ele>701.7</ele>
        <time>2019-08-11T07:35:43.000Z</time>
      </trkpt>
      <trkpt lat="43.38544" lon="2.22881">
        <ele>701.6</ele>
        <time>2019-08-11T07:35:44.000Z</time>
      </trkpt>
      <trkpt lat="43.38543" lon="2.22878">
        <ele>701.4</ele>
        <time>2019-08-11T07:35:45.000Z</time>
      </trkpt>
      <trkpt lat="43.38542" lon="2.22875">
        <ele>701.3</ele>
        <time>2019-08-11T07:35:46.000Z</time>
      </trkpt>
      <trkpt lat="43.38541" lon="2.22872">
        <ele>701.1</ele>
        <time>2019-08-11T07:35:47.000Z</time>
      </trkpt>
      <trkpt lat="43.38539" lon="2.22869">
        <ele>701</ele>
        <time>2019-08-11T07:35:48.000Z</time>
      </trkpt>
      <trkpt lat="43.38538" lon="2.22865">
        <ele>700.8</ele>
        <time>2019-08-11T07:35:49.000Z</time>
      </trkpt>
      <trkpt lat="43.38537" lon="2.22862">
        <ele>700.6</ele>
        <time>2019-08-11T07:35:50.000Z</time>
      </trkpt>
      <trkpt lat="43.38535" lon="2.22859">
        <ele>700.5</ele>
        <time>2019-08-11T07:35:51.000Z</time>
      </trkpt>
      <trkpt lat="43.38534" lon="2.22856">
        <ele>700.3</ele>
        <time>2019-08-11T07:35:52.000Z</time>
      </trkpt>
      <trkpt lat="43.38533" lon="2.22852">
        <ele>700.1</ele>
        <time>2019-08-11T07:35:53.000Z</time>
      </trkpt>
      <trkpt lat="43.38531" lon="2.22849">
        <ele>699.9</ele>
        <time>2019-08-11T07:35:54.000Z</time>
      </trkpt>
      <trkpt lat="43.3853" lon="2.22845">
        <ele>699.7</ele>
        <time>2019-08-11T07:35:55.000Z</time>
      </trkpt>
      <trkpt lat="43.38528" lon="2.22842">
        <ele>699.5</ele>
        <time>2019-08-11T07:35:56.000Z</time>
      </trkpt>
      <trkpt lat="43.38527" lon="2.22838">
        <ele>699.3</ele>
        <time>2019-08-11T07:35:57.000Z</time>
      </trkpt>
      <trkpt lat="43.38525" lon="2.22835">
        <ele>699.2</ele>
        <time>2019-08-11T07:35:58.000Z</time>
      </trkpt>
      <trkpt lat="43.38524" lon="2.22831">
        <ele>699</ele>
        <time>2019-08-11T07:35:59.000Z</time>
      </trkpt>
      <trkpt lat="43.38523" lon="2.22828">
        <ele>698.8</ele>
        <time>2019-08-11T07:36:00.000Z</time>
      </trkpt>
      <trkpt lat="43.38521" lon="2.22824">
        <ele>698.6</ele>
        <time>2019-08-11T07:36:01.000Z</time>
      </trkpt>
      <trkpt lat="43.3852" lon="2.22821">
        <ele>698.5</ele>
        <time>2019-08-11T07:36:02.000Z</time>
      </trkpt>
      <trkpt lat="43.38519" lon="2.22817">
        <ele>698.3</ele>
        <time>2019-08-11T07:36:03.000Z</time>
      </trkpt>
      <trkpt lat="43.38518" lon="2.22814">
        <ele>698.2</ele>
        <time>2019-08-11T07:36:04.000Z</time>
      </trkpt>
      <trkpt lat="43.38517" lon="2.22811">
        <ele>698.1</ele>
        <time>2019-08-11T07:36:05.000Z</time>
      </trkpt>
      <trkpt lat="43.38516" lon="2.22807">
        <ele>697.9</ele>
        <time>2019-08-11T07:36:06.000Z</time>
      </trkpt>
      <trkpt lat="43.38515" lon="2.22804">
        <ele>697.8</ele>
        <time>2019-08-11T07:36:07.000Z</time>
      </trkpt>
      <trkpt lat="43.38514" lon="2.22801">
        <ele>697.7</ele>
        <time>2019-08-11T07:36:08.000Z</time>
      </trkpt>
      <trkpt lat="43.38513" lon="2.22797">
        <ele>697.6</ele>
        <time>2019-08-11T07:36:09.000Z</time>
      </trkpt>
      <trkpt lat="43.38512" lon="2.22794">
        <ele>697.5</ele>
        <time>2019-08-11T07:36:10.000Z</time>
      </trkpt>
      <trkpt lat="43.38511" lon="2.22791">
        <ele>697.3</ele>
        <time>2019-08-11T07:36:11.000Z</time>
      </trkpt>
      <trkpt lat="43.3851" lon="2.22787">
        <ele>697.2</ele>
        <time>2019-08-11T07:36:12.000Z</time>
      </trkpt>
      <trkpt lat="43.38509" lon="2.22784">
        <ele>697.1</ele>
        <time>2019-08-11T07:36:13.000Z</time>
      </trkpt>
      <trkpt lat="43.38508" lon="2.2278">
        <ele>697</ele>
        <time>2019-08-11T07:36:14.000Z</time>
      </trkpt>
      <trkpt lat="43.38506" lon="2.22777">
        <ele>696.8</ele>
        <time>2019-08-11T07:36:15.000Z</time>
      </trkpt>
      <trkpt lat="43.38505" lon="2.22774">
        <ele>696.7</ele>
        <time>2019-08-11T07:36:16.000Z</time>
      </trkpt>
      <trkpt lat="43.38503" lon="2.22771">
        <ele>696.5</ele>
        <time>2019-08-11T07:36:17.000Z</time>
      </trkpt>
      <trkpt lat="43.38501" lon="2.22768">
        <ele>696.3</ele>
        <time>2019-08-11T07:36:18.000Z</time>
      </trkpt>
      <trkpt lat="43.38499" lon="2.22765">
        <ele>696.1</ele>
        <time>2019-08-11T07:36:19.000Z</time>
      </trkpt>
      <trkpt lat="43.38497" lon="2.22763">
        <ele>695.9</ele>
        <time>2019-08-11T07:36:20.000Z</time>
      </trkpt>
      <trkpt lat="43.38494" lon="2.22761">
        <ele>695.6</ele>
        <time>2019-08-11T07:36:21.000Z</time>
      </trkpt>
      <trkpt lat="43.38491" lon="2.22759">
        <ele>695.3</ele>
        <time>2019-08-11T07:36:22.000Z</time>
      </trkpt>
      <trkpt lat="43.38488" lon="2.22758">
        <ele>695.1</ele>
        <time>2019-08-11T07:36:23.000Z</time>
      </trkpt>
      <trkpt lat="43.38485" lon="2.22756">
        <ele>694.8</ele>
        <time>2019-08-11T07:36:24.000Z</time>
      </trkpt>
      <trkpt lat="43.38482" lon="2.22754">
        <ele>694.5</ele>
        <time>2019-08-11T07:36:25.000Z</time>
      </trkpt>
      <trkpt lat="43.38479" lon="2.22753">
        <ele>694.2</ele>
        <time>2019-08-11T07:36:26.000Z</time>
      </trkpt>
      <trkpt lat="43.38476" lon="2.22751">
        <ele>694</ele>
        <time>2019-08-11T07:36:27.000Z</time>
      </trkpt>
      <trkpt lat="43.38473" lon="2.22749">
        <ele>693.8</ele>
        <time>2019-08-11T07:36:28.000Z</time>
      </trkpt>
      <trkpt lat="43.3847" lon="2.22747">
        <ele>693.7</ele>
        <time>2019-08-11T07:36:29.000Z</time>
      </trkpt>
      <trkpt lat="43.38468" lon="2.22745">
        <ele>693.6</ele>
        <time>2019-08-11T07:36:30.000Z</time>
      </trkpt>
      <trkpt lat="43.38465" lon="2.22743">
        <ele>693.6</ele>
        <time>2019-08-11T07:36:31.000Z</time>
      </trkpt>
      <trkpt lat="43.38463" lon="2.22741">
        <ele>693.5</ele>
        <time>2019-08-11T07:36:32.000Z</time>
      </trkpt>
      <trkpt lat="43.3846" lon="2.22738">
        <ele>693.5</ele>
        <time>2019-08-11T07:36:33.000Z</time>
      </trkpt>
      <trkpt lat="43.38457" lon="2.22736">
        <ele>693.4</ele>
        <time>2019-08-11T07:36:34.000Z</time>
      </trkpt>
      <trkpt lat="43.38455" lon="2.22734">
        <ele>693.4</ele>
        <time>2019-08-11T07:36:35.000Z</time>
      </trkpt>
      <trkpt lat="43.38452" lon="2.22732">
        <ele>693.3</ele>
        <time>2019-08-11T07:36:36.000Z</time>
      </trkpt>
      <trkpt lat="43.38449" lon="2.2273">
        <ele>693.3</ele>
        <time>2019-08-11T07:36:37.000Z</time>
      </trkpt>
      <trkpt lat="43.38447" lon="2.22727">
        <ele>693.2</ele>
        <time>2019-08-11T07:36:38.000Z</time>
      </trkpt>
      <trkpt lat="43.38444" lon="2.22725">
        <ele>693.2</ele>
        <time>2019-08-11T07:36:39.000Z</time>
      </trkpt>
      <trkpt lat="43.38441" lon="2.22723">
        <ele>693.2</ele>
        <time>2019-08-11T07:36:40.000Z</time>
      </trkpt>
      <trkpt lat="43.38439" lon="2.2272">
        <ele>693.1</ele>
        <time>2019-08-11T07:36:41.000Z</time>
      </trkpt>
      <trkpt lat="43.38436" lon="2.22718">
        <ele>693.1</ele>
        <time>2019-08-11T07:36:42.000Z</time>
      </trkpt>
      <trkpt lat="43.38433" lon="2.22715">
        <ele>693.2</ele>
        <time>2019-08-11T07:36:43.000Z</time>
      </trkpt>
      <trkpt lat="43.38431" lon="2.22712">
        <ele>693.2</ele>
        <time>2019-08-11T07:36:44.000Z</time>
      </trkpt>
      <trkpt lat="43.38428" lon="2.2271">
        <ele>693.2</ele>
        <time>2019-08-11T07:36:45.000Z</time>
      </trkpt>
      <trkpt lat="43.38426" lon="2.22707">
        <ele>693.3</ele>
        <time>2019-08-11T07:36:46.000Z</time>
      </trkpt>
      <trkpt lat="43.38424" lon="2.22704">
        <ele>693.4</ele>
        <time>2019-08-11T07:36:47.000Z</time>
      </trkpt>
      <trkpt lat="43.38421" lon="2.227">
        <ele>693.5</ele>
        <time>2019-08-11T07:36:48.000Z</time>
      </trkpt>
      <trkpt lat="43.38419" lon="2.22697">
        <ele>693.6</ele>
        <time>2019-08-11T07:36:49.000Z</time>
      </trkpt>
      <trkpt lat="43.38417" lon="2.22694">
        <ele>693.8</ele>
        <time>2019-08-11T07:36:50.000Z</time>
      </trkpt>
      <trkpt lat="43.38415" lon="2.2269">
        <ele>694.1</ele>
        <time>2019-08-11T07:36:51.000Z</time>
      </trkpt>
      <trkpt lat="43.38413" lon="2.22687">
        <ele>694.4</ele>
        <time>2019-08-11T07:36:52.000Z</time>
      </trkpt>
      <trkpt lat="43.38411" lon="2.22683">
        <ele>694.7</ele>
        <time>2019-08-11T07:36:53.000Z</time>
      </trkpt>
      <trkpt lat="43.3841" lon="2.2268">
        <ele>695</ele>
        <time>2019-08-11T07:36:54.000Z</time>
      </trkpt>
      <trkpt lat="43.38408" lon="2.22677">
        <ele>695.3</ele>
        <time>2019-08-11T07:36:55.000Z</time>
      </trkpt>
      <trkpt lat="43.38406" lon="2.22674">
        <ele>695.5</ele>
        <time>2019-08-11T07:36:56.000Z</time>
      </trkpt>
      <trkpt lat="43.38405" lon="2.22671">
        <ele>695.8</ele>
        <time>2019-08-11T07:36:57.000Z</time>
      </trkpt>
      <trkpt lat="43.38404" lon="2.22668">
        <ele>696</ele>
        <time>2019-08-11T07:36:58.000Z</time>
      </trkpt>
      <trkpt lat="43.38402" lon="2.22666">
        <ele>696.2</ele>
        <time>2019-08-11T07:36:59.000Z</time>
      </trkpt>
      <trkpt lat="43.38402" lon="2.22664">
        <ele>696.3</ele>
        <time>2019-08-11T07:37:00.000Z</time>
      </trkpt>
      <trkpt lat="43.38401" lon="2.22663">
        <ele>696.4</ele>
        <time>2019-08-11T07:37:01.000Z</time>
      </trkpt>
      <trkpt lat="43.38401" lon="2.22661">
        <ele>696.4</ele>
        <time>2019-08-11T07:37:02.000Z</time>
      </trkpt>
      <trkpt lat="43.38401" lon="2.22661">
        <ele>696.5</ele>
        <time>2019-08-11T07:37:03.000Z</time>
      </trkpt>
      <trkpt lat="43.38401" lon="2.2266">
        <ele>696.5</ele>
        <time>2019-08-11T07:37:04.000Z</time>
      </trkpt>
      <trkpt lat="43.38402" lon="2.2266">
        <ele>696.5</ele>
        <time>2019-08-11T07:37:05.000Z</time>
      </trkpt>
      <trkpt lat="43.38402" lon="2.2266">
        <ele>696.5</ele>
        <time>2019-08-11T07:37:06.000Z</time>
      </trkpt>
      <trkpt lat="43.38402" lon="2.2266">
        <ele>696.5</ele>
        <time>2019-08-11T07:37:07.000Z</time>
      </trkpt>
      <trkpt lat="43.38402" lon="2.22661">
        <ele>696.5</ele>
        <time>2019-08-11T07:37:08.000Z</time>
      </trkpt>
      <trkpt lat="43.38402" lon="2.22661">
        <ele>696.4</ele>
        <time>2019-08-11T07:37:09.000Z</time>
      </trkpt>
      <trkpt lat="43.38401" lon="2.22662">
        <ele>696.4</ele>
        <time>2019-08-11T07:37:10.000Z</time>
      </trkpt>
      <trkpt lat="43.384" lon="2.22662">
        <ele>696.4</ele>
        <time>2019-08-11T07:37:11.000Z</time>
      </trkpt>
      <trkpt lat="43.38399" lon="2.22663">
        <ele>696.4</ele>
        <time>2019-08-11T07:37:12.000Z</time>
      </trkpt>
      <trkpt lat="43.38398" lon="2.22663">
        <ele>696.4</ele>
        <time>2019-08-11T07:37:13.000Z</time>
      </trkpt>
      <trkpt lat="43.38397" lon="2.22663">
        <ele>696.4</ele>
        <time>2019-08-11T07:37:14.000Z</time>
      </trkpt>
      <trkpt lat="43.38396" lon="2.22663">
        <ele>696.4</ele>
        <time>2019-08-11T07:37:15.000Z</time>
      </trkpt>
      <trkpt lat="43.38395" lon="2.22663">
        <ele>696.4</ele>
        <time>2019-08-11T07:37:16.000Z</time>
      </trkpt>
      <trkpt lat="43.38394" lon="2.22663">
        <ele>696.5</ele>
        <time>2019-08-11T07:37:17.000Z</time>
      </trkpt>
      <trkpt lat="43.38393" lon="2.22662">
        <ele>696.5</ele>
        <time>2019-08-11T07:37:18.000Z</time>
      </trkpt>
      <trkpt lat="43.38393" lon="2.22662">
        <ele>696.5</ele>
        <time>2019-08-11T07:37:19.000Z</time>
      </trkpt>
      <trkpt lat="43.38392" lon="2.22662">
        <ele>696.5</ele>
        <time>2019-08-11T07:37:20.000Z</time>
      </trkpt>
      <trkpt lat="43.38392" lon="2.22661">
        <ele>696.6</ele>
        <time>2019-08-11T07:37:21.000Z</time>
      </trkpt>
      <trkpt lat="43.38391" lon="2.22661">
        <ele>696.6</ele>
        <time>2019-08-11T07:37:22.000Z</time>
      </trkpt>
      <trkpt lat="43.38391" lon="2.22661">
        <ele>696.6</ele>
        <time>2019-08-11T07:37:23.000Z</time>
      </trkpt>
      <trkpt lat="43.38392" lon="2.22661">
        <ele>696.6</ele>
        <time>2019-08-11T07:37:24.000Z</time>
      </trkpt>
      <trkpt lat="43.38392" lon="2.22661">
        <ele>696.6</ele>
        <time>2019-08-11T07:37:25.000Z</time>
      </trkpt>
      <trkpt lat="43.38392" lon="2.2266">
        <ele>696.6</ele>
        <time>2019-08-11T07:37:26.000Z</time>
      </trkpt>
      <trkpt lat="43.38392" lon="2.2266">
        <ele>696.6</ele>
        <time>2019-08-11T07:37:27.000Z</time>
      </trkpt>
      <trkpt lat="43.38391" lon="2.22659">
        <ele>696.7</ele>
        <time>2019-08-11T07:37:28.000Z</time>
      </trkpt>
      <trkpt lat="43.38391" lon="2.22659">
        <ele>696.7</ele>
        <time>2019-08-11T07:37:29.000Z</time>
      </trkpt>
      <trkpt lat="43.38391" lon="2.22658">
        <ele>696.7</ele>
        <time>2019-08-11T07:37:30.000Z</time>
      </trkpt>
      <trkpt lat="43.3839" lon="2.22657">
        <ele>696.8</ele>
        <time>2019-08-11T07:37:31.000Z</time>
      </trkpt>
      <trkpt lat="43.3839" lon="2.22657">
        <ele>696.8</ele>
        <time>2019-08-11T07:37:32.000Z</time>
      </trkpt>
      <trkpt lat="43.3839" lon="2.22657">
        <ele>696.8</ele>
        <time>2019-08-11T07:37:33.000Z</time>
      </trkpt>
      <trkpt lat="43.3839" lon="2.22656">
        <ele>696.8</ele>
        <time>2019-08-11T07:37:34.000Z</time>
      </trkpt>
      <trkpt lat="43.3839" lon="2.22656">
        <ele>696.8</ele>
        <time>2019-08-11T07:37:35.000Z</time>
      </trkpt>
      <trkpt lat="43.3839" lon="2.22656">
        <ele>696.8</ele>
        <time>2019-08-11T07:37:36.000Z</time>
      </trkpt>
      <trkpt lat="43.3839" lon="2.22655">
        <ele>696.9</ele>
        <time>2019-08-11T07:37:37.000Z</time>
      </trkpt>
      <trkpt lat="43.3839" lon="2.22655">
        <ele>696.9</ele>
        <time>2019-08-11T07:37:38.000Z</time>
      </trkpt>
      <trkpt lat="43.38391" lon="2.22655">
        <ele>696.9</ele>
        <time>2019-08-11T07:37:39.000Z</time>
      </trkpt>
      <trkpt lat="43.38391" lon="2.22655">
        <ele>696.9</ele>
        <time>2019-08-11T07:37:40.000Z</time>
      </trkpt>
      <trkpt lat="43.38391" lon="2.22655">
        <ele>696.9</ele>
        <time>2019-08-11T07:37:41.000Z</time>
      </trkpt>
      <trkpt lat="43.3839" lon="2.22655">
        <ele>696.9</ele>
        <time>2019-08-11T07:37:42.000Z</time>
      </trkpt>
      <trkpt lat="43.3839" lon="2.22655">
        <ele>696.9</ele>
        <time>2019-08-11T07:37:43.000Z</time>
      </trkpt>
      <trkpt lat="43.3839" lon="2.22655">
        <ele>696.9</ele>
        <time>2019-08-11T07:37:44.000Z</time>
      </trkpt>
      <trkpt lat="43.3839" lon="2.22655">
        <ele>696.9</ele>
        <time>2019-08-11T07:37:45.000Z</time>
      </trkpt>
      <trkpt lat="43.38389" lon="2.22655">
        <ele>696.9</ele>
        <time>2019-08-11T07:37:46.000Z</time>
      </trkpt>
      <trkpt lat="43.38389" lon="2.22654">
        <ele>696.9</ele>
        <time>2019-08-11T07:37:47.000Z</time>
      </trkpt>
      <trkpt lat="43.38389" lon="2.22654">
        <ele>696.9</ele>
        <time>2019-08-11T07:37:48.000Z</time>
      </trkpt>
      <trkpt lat="43.38388" lon="2.22654">
        <ele>696.9</ele>
        <time>2019-08-11T07:37:49.000Z</time>
      </trkpt>
      <trkpt lat="43.38387" lon="2.22654">
        <ele>696.9</ele>
        <time>2019-08-11T07:37:50.000Z</time>
      </trkpt>
      <trkpt lat="43.38387" lon="2.22654">
        <ele>697</ele>
        <time>2019-08-11T07:37:51.000Z</time>
      </trkpt>
      <trkpt lat="43.38386" lon="2.22654">
        <ele>697</ele>
        <time>2019-08-11T07:37:52.000Z</time>
      </trkpt>
      <trkpt lat="43.38386" lon="2.22654">
        <ele>697</ele>
        <time>2019-08-11T07:37:53.000Z</time>
      </trkpt>
      <trkpt lat="43.38385" lon="2.22654">
        <ele>697</ele>
        <time>2019-08-11T07:37:54.000Z</time>
      </trkpt>
      <trkpt lat="43.38384" lon="2.22654">
        <ele>697</ele>
        <time>2019-08-11T07:37:55.000Z</time>
      </trkpt>
      <trkpt lat="43.38384" lon="2.22654">
        <ele>697</ele>
        <time>2019-08-11T07:37:56.000Z</time>
      </trkpt>
      <trkpt lat="43.38383" lon="2.22654">
        <ele>697</ele>
        <time>2019-08-11T07:37:57.000Z</time>
      </trkpt>
      <trkpt lat="43.38382" lon="2.22654">
        <ele>697</ele>
        <time>2019-08-11T07:37:58.000Z</time>
      </trkpt>
      <trkpt lat="43.38381" lon="2.22654">
        <ele>697</ele>
        <time>2019-08-11T07:37:59.000Z</time>
      </trkpt>
      <trkpt lat="43.38379" lon="2.22655">
        <ele>697</ele>
        <time>2019-08-11T07:38:00.000Z</time>
      </trkpt>
      <trkpt lat="43.38378" lon="2.22655">
        <ele>697</ele>
        <time>2019-08-11T07:38:01.000Z</time>
      </trkpt>
      <trkpt lat="43.38376" lon="2.22655">
        <ele>697</ele>
        <time>2019-08-11T07:38:02.000Z</time>
      </trkpt>
      <trkpt lat="43.38375" lon="2.22655">
        <ele>697</ele>
        <time>2019-08-11T07:38:03.000Z</time>
      </trkpt>
      <trkpt lat="43.38373" lon="2.22656">
        <ele>697</ele>
        <time>2019-08-11T07:38:04.000Z</time>
      </trkpt>
      <trkpt lat="43.38371" lon="2.22656">
        <ele>697.1</ele>
        <time>2019-08-11T07:38:05.000Z</time>
      </trkpt>
      <trkpt lat="43.38369" lon="2.22656">
        <ele>697.1</ele>
        <time>2019-08-11T07:38:06.000Z</time>
      </trkpt>
      <trkpt lat="43.38367" lon="2.22657">
        <ele>697.1</ele>
        <time>2019-08-11T07:38:07.000Z</time>
      </trkpt>
      <trkpt lat="43.38365" lon="2.22657">
        <ele>697.1</ele>
        <time>2019-08-11T07:38:08.000Z</time>
      </trkpt>
      <trkpt lat="43.38363" lon="2.22658">
        <ele>697.1</ele>
        <time>2019-08-11T07:38:09.000Z</time>
      </trkpt>
      <trkpt lat="43.3836" lon="2.22658">
        <ele>697.1</ele>
        <time>2019-08-11T07:38:10.000Z</time>
      </trkpt>
      <trkpt lat="43.38358" lon="2.22658">
        <ele>697.1</ele>
        <time>2019-08-11T07:38:11.000Z</time>
      </trkpt>
      <trkpt lat="43.38355" lon="2.22659">
        <ele>697.1</ele>
        <time>2019-08-11T07:38:12.000Z</time>
      </trkpt>
      <trkpt lat="43.38353" lon="2.22659">
        <ele>697.1</ele>
        <time>2019-08-11T07:38:13.000Z</time>
      </trkpt>
      <trkpt lat="43.3835" lon="2.2266">
        <ele>697.1</ele>
        <time>2019-08-11T07:38:14.000Z</time>
      </trkpt>
      <trkpt lat="43.38348" lon="2.2266">
        <ele>697.1</ele>
        <time>2019-08-11T07:38:15.000Z</time>
      </trkpt>
      <trkpt lat="43.38345" lon="2.22661">
        <ele>697.1</ele>
        <time>2019-08-11T07:38:16.000Z</time>
      </trkpt>
      <trkpt lat="43.38343" lon="2.22661">
        <ele>697.1</ele>
        <time>2019-08-11T07:38:17.000Z</time>
      </trkpt>
      <trkpt lat="43.3834" lon="2.22662">
        <ele>697.2</ele>
        <time>2019-08-11T07:38:18.000Z</time>
      </trkpt>
      <trkpt lat="43.38338" lon="2.22662">
        <ele>697.2</ele>
        <time>2019-08-11T07:38:19.000Z</time>
      </trkpt>
      <trkpt lat="43.38335" lon="2.22663">
        <ele>697.2</ele>
        <time>2019-08-11T07:38:20.000Z</time>
      </trkpt>
      <trkpt lat="43.38332" lon="2.22664">
        <ele>697.1</ele>
        <time>2019-08-11T07:38:21.000Z</time>
      </trkpt>
      <trkpt lat="43.3833" lon="2.22664">
        <ele>697</ele>
        <time>2019-08-11T07:38:22.000Z</time>
      </trkpt>
      <trkpt lat="43.38327" lon="2.22665">
        <ele>696.9</ele>
        <time>2019-08-11T07:38:23.000Z</time>
      </trkpt>
      <trkpt lat="43.38324" lon="2.22666">
        <ele>696.7</ele>
        <time>2019-08-11T07:38:24.000Z</time>
      </trkpt>
      <trkpt lat="43.38322" lon="2.22666">
        <ele>696.6</ele>
        <time>2019-08-11T07:38:25.000Z</time>
      </trkpt>
      <trkpt lat="43.38319" lon="2.22667">
        <ele>696.5</ele>
        <time>2019-08-11T07:38:26.000Z</time>
      </trkpt>
      <trkpt lat="43.38316" lon="2.22667">
        <ele>696.3</ele>
        <time>2019-08-11T07:38:27.000Z</time>
      </trkpt>
      <trkpt lat="43.38314" lon="2.22668">
        <ele>696.2</ele>
        <time>2019-08-11T07:38:28.000Z</time>
      </trkpt>
      <trkpt lat="43.38311" lon="2.22668">
        <ele>696.1</ele>
        <time>2019-08-11T07:38:29.000Z</time>
      </trkpt>
      <trkpt lat="43.38309" lon="2.22669">
        <ele>695.9</ele>
        <time>2019-08-11T07:38:30.000Z</time>
      </trkpt>
      <trkpt lat="43.38306" lon="2.22669">
        <ele>695.8</ele>
        <time>2019-08-11T07:38:31.000Z</time>
      </trkpt>
      <trkpt lat="43.38303" lon="2.2267">
        <ele>695.7</ele>
        <time>2019-08-11T07:38:32.000Z</time>
      </trkpt>
      <trkpt lat="43.38301" lon="2.22671">
        <ele>695.5</ele>
        <time>2019-08-11T07:38:33.000Z</time>
      </trkpt>
      <trkpt lat="43.38298" lon="2.22671">
        <ele>695.4</ele>
        <time>2019-08-11T07:38:34.000Z</time>
      </trkpt>
      <trkpt lat="43.38295" lon="2.22672">
        <ele>695.2</ele>
        <time>2019-08-11T07:38:35.000Z</time>
      </trkpt>
      <trkpt lat="43.38293" lon="2.22672">
        <ele>695.1</ele>
        <time>2019-08-11T07:38:36.000Z</time>
      </trkpt>
      <trkpt lat="43.3829" lon="2.22673">
        <ele>695</ele>
        <time>2019-08-11T07:38:37.000Z</time>
      </trkpt>
      <trkpt lat="43.38287" lon="2.22674">
        <ele>694.8</ele>
        <time>2019-08-11T07:38:38.000Z</time>
      </trkpt>
      <trkpt lat="43.38285" lon="2.22674">
        <ele>694.7</ele>
        <time>2019-08-11T07:38:39.000Z</time>
      </trkpt>
      <trkpt lat="43.38282" lon="2.22675">
        <ele>694.5</ele>
        <time>2019-08-11T07:38:40.000Z</time>
      </trkpt>
      <trkpt lat="43.38279" lon="2.22676">
        <ele>694.4</ele>
        <time>2019-08-11T07:38:41.000Z</time>
      </trkpt>
      <trkpt lat="43.38277" lon="2.22677">
        <ele>694.2</ele>
        <time>2019-08-11T07:38:42.000Z</time>
      </trkpt>
      <trkpt lat="43.38274" lon="2.22677">
        <ele>694.1</ele>
        <time>2019-08-11T07:38:43.000Z</time>
      </trkpt>
      <trkpt lat="43.38271" lon="2.22678">
        <ele>693.9</ele>
        <time>2019-08-11T07:38:44.000Z</time>
      </trkpt>
      <trkpt lat="43.38268" lon="2.22679">
        <ele>693.7</ele>
        <time>2019-08-11T07:38:45.000Z</time>
      </trkpt>
      <trkpt lat="43.38266" lon="2.2268">
        <ele>693.6</ele>
        <time>2019-08-11T07:38:46.000Z</time>
      </trkpt>
      <trkpt lat="43.38263" lon="2.22681">
        <ele>693.4</ele>
        <time>2019-08-11T07:38:47.000Z</time>
      </trkpt>
      <trkpt lat="43.3826" lon="2.22682">
        <ele>693.2</ele>
        <time>2019-08-11T07:38:48.000Z</time>
      </trkpt>
      <trkpt lat="43.38258" lon="2.22683">
        <ele>693.1</ele>
        <time>2019-08-11T07:38:49.000Z</time>
      </trkpt>
      <trkpt lat="43.38255" lon="2.22684">
        <ele>692.9</ele>
        <time>2019-08-11T07:38:50.000Z</time>
      </trkpt>
      <trkpt lat="43.38252" lon="2.22686">
        <ele>692.7</ele>
        <time>2019-08-11T07:38:51.000Z</time>
      </trkpt>
      <trkpt lat="43.3825" lon="2.22687">
        <ele>692.5</ele>
        <time>2019-08-11T07:38:52.000Z</time>
      </trkpt>
      <trkpt lat="43.38247" lon="2.22688">
        <ele>692.1</ele>
        <time>2019-08-11T07:38:53.000Z</time>
      </trkpt>
      <trkpt lat="43.38244" lon="2.22689">
        <ele>691.7</ele>
        <time>2019-08-11T07:38:54.000Z</time>
      </trkpt>
      <trkpt lat="43.38242" lon="2.22691">
        <ele>691.4</ele>
        <time>2019-08-11T07:38:55.000Z</time>
      </trkpt>
      <trkpt lat="43.38239" lon="2.22692">
        <ele>691</ele>
        <time>2019-08-11T07:38:56.000Z</time>
      </trkpt>
      <trkpt lat="43.38237" lon="2.22693">
        <ele>690.6</ele>
        <time>2019-08-11T07:38:57.000Z</time>
      </trkpt>
      <trkpt lat="43.38234" lon="2.22695">
        <ele>690.2</ele>
        <time>2019-08-11T07:38:58.000Z</time>
      </trkpt>
      <trkpt lat="43.38232" lon="2.22696">
        <ele>689.9</ele>
        <time>2019-08-11T07:38:59.000Z</time>
      </trkpt>
      <trkpt lat="43.38229" lon="2.22697">
        <ele>689.5</ele>
        <time>2019-08-11T07:39:00.000Z</time>
      </trkpt>
      <trkpt lat="43.38227" lon="2.22699">
        <ele>689.2</ele>
        <time>2019-08-11T07:39:01.000Z</time>
      </trkpt>
      <trkpt lat="43.38224" lon="2.227">
        <ele>688.8</ele>
        <time>2019-08-11T07:39:02.000Z</time>
      </trkpt>
      <trkpt lat="43.38221" lon="2.22701">
        <ele>688.5</ele>
        <time>2019-08-11T07:39:03.000Z</time>
      </trkpt>
      <trkpt lat="43.38219" lon="2.22702">
        <ele>688.1</ele>
        <time>2019-08-11T07:39:04.000Z</time>
      </trkpt>
      <trkpt lat="43.38216" lon="2.22703">
        <ele>687.8</ele>
        <time>2019-08-11T07:39:05.000Z</time>
      </trkpt>
      <trkpt lat="43.38213" lon="2.22705">
        <ele>687.4</ele>
        <time>2019-08-11T07:39:06.000Z</time>
      </trkpt>
      <trkpt lat="43.38211" lon="2.22706">
        <ele>687.1</ele>
        <time>2019-08-11T07:39:07.000Z</time>
      </trkpt>
      <trkpt lat="43.38208" lon="2.22707">
        <ele>686.8</ele>
        <time>2019-08-11T07:39:08.000Z</time>
      </trkpt>
      <trkpt lat="43.38205" lon="2.22708">
        <ele>686.4</ele>
        <time>2019-08-11T07:39:09.000Z</time>
      </trkpt>
      <trkpt lat="43.38202" lon="2.2271">
        <ele>686.1</ele>
        <time>2019-08-11T07:39:10.000Z</time>
      </trkpt>
      <trkpt lat="43.382" lon="2.22711">
        <ele>685.8</ele>
        <time>2019-08-11T07:39:11.000Z</time>
      </trkpt>
      <trkpt lat="43.38197" lon="2.22712">
        <ele>685.4</ele>
        <time>2019-08-11T07:39:12.000Z</time>
      </trkpt>
      <trkpt lat="43.38194" lon="2.22714">
        <ele>685.1</ele>
        <time>2019-08-11T07:39:13.000Z</time>
      </trkpt>
      <trkpt lat="43.38191" lon="2.22715">
        <ele>684.8</ele>
        <time>2019-08-11T07:39:14.000Z</time>
      </trkpt>
      <trkpt lat="43.38189" lon="2.22717">
        <ele>684.5</ele>
        <time>2019-08-11T07:39:15.000Z</time>
      </trkpt>
      <trkpt lat="43.38186" lon="2.22718">
        <ele>684.2</ele>
        <time>2019-08-11T07:39:16.000Z</time>
      </trkpt>
      <trkpt lat="43.38184" lon="2.2272">
        <ele>683.9</ele>
        <time>2019-08-11T07:39:17.000Z</time>
      </trkpt>
      <trkpt lat="43.38181" lon="2.22722">
        <ele>683.7</ele>
        <time>2019-08-11T07:39:18.000Z</time>
      </trkpt>
      <trkpt lat="43.38178" lon="2.22723">
        <ele>683.4</ele>
        <time>2019-08-11T07:39:19.000Z</time>
      </trkpt>
      <trkpt lat="43.38176" lon="2.22725">
        <ele>683.1</ele>
        <time>2019-08-11T07:39:20.000Z</time>
      </trkpt>
      <trkpt lat="43.38173" lon="2.22727">
        <ele>682.9</ele>
        <time>2019-08-11T07:39:21.000Z</time>
      </trkpt>
      <trkpt lat="43.38171" lon="2.22729">
        <ele>682.6</ele>
        <time>2019-08-11T07:39:22.000Z</time>
      </trkpt>
      <trkpt lat="43.38168" lon="2.22731">
        <ele>682.4</ele>
        <time>2019-08-11T07:39:23.000Z</time>
      </trkpt>
      <trkpt lat="43.38166" lon="2.22733">
        <ele>682.1</ele>
        <time>2019-08-11T07:39:24.000Z</time>
      </trkpt>
      <trkpt lat="43.38164" lon="2.22736">
        <ele>681.8</ele>
        <time>2019-08-11T07:39:25.000Z</time>
      </trkpt>
      <trkpt lat="43.38161" lon="2.22738">
        <ele>681.5</ele>
        <time>2019-08-11T07:39:26.000Z</time>
      </trkpt>
      <trkpt lat="43.38159" lon="2.2274">
        <ele>681.1</ele>
        <time>2019-08-11T07:39:27.000Z</time>
      </trkpt>
      <trkpt lat="43.38156" lon="2.22742">
        <ele>680.8</ele>
        <time>2019-08-11T07:39:28.000Z</time>
      </trkpt>
      <trkpt lat="43.38154" lon="2.22744">
        <ele>680.5</ele>
        <time>2019-08-11T07:39:29.000Z</time>
      </trkpt>
      <trkpt lat="43.38151" lon="2.22746">
        <ele>680.2</ele>
        <time>2019-08-11T07:39:30.000Z</time>
      </trkpt>
      <trkpt lat="43.38149" lon="2.22747">
        <ele>679.9</ele>
        <time>2019-08-11T07:39:31.000Z</time>
      </trkpt>
      <trkpt lat="43.38146" lon="2.22749">
        <ele>679.6</ele>
        <time>2019-08-11T07:39:32.000Z</time>
      </trkpt>
      <trkpt lat="43.38144" lon="2.2275">
        <ele>679.3</ele>
        <time>2019-08-11T07:39:33.000Z</time>
      </trkpt>
      <trkpt lat="43.38141" lon="2.22752">
        <ele>679</ele>
        <time>2019-08-11T07:39:34.000Z</time>
      </trkpt>
      <trkpt lat="43.38139" lon="2.22753">
        <ele>678.8</ele>
        <time>2019-08-11T07:39:35.000Z</time>
      </trkpt>
      <trkpt lat="43.38136" lon="2.22754">
        <ele>678.5</ele>
        <time>2019-08-11T07:39:36.000Z</time>
      </trkpt>
      <trkpt lat="43.38134" lon="2.22755">
        <ele>678.3</ele>
        <time>2019-08-11T07:39:37.000Z</time>
      </trkpt>
      <trkpt lat="43.38131" lon="2.22757">
        <ele>678</ele>
        <time>2019-08-11T07:39:38.000Z</time>
      </trkpt>
      <trkpt lat="43.38128" lon="2.22758">
        <ele>677.7</ele>
        <time>2019-08-11T07:39:39.000Z</time>
      </trkpt>
      <trkpt lat="43.38126" lon="2.22759">
        <ele>677.5</ele>
        <time>2019-08-11T07:39:40.000Z</time>
      </trkpt>
      <trkpt lat="43.38123" lon="2.2276">
        <ele>677.2</ele>
        <time>2019-08-11T07:39:41.000Z</time>
      </trkpt>
      <trkpt lat="43.3812" lon="2.22761">
        <ele>676.9</ele>
        <time>2019-08-11T07:39:42.000Z</time>
      </trkpt>
      <trkpt lat="43.38117" lon="2.22762">
        <ele>676.7</ele>
        <time>2019-08-11T07:39:43.000Z</time>
      </trkpt>
      <trkpt lat="43.38114" lon="2.22763">
        <ele>676.4</ele>
        <time>2019-08-11T07:39:44.000Z</time>
      </trkpt>
      <trkpt lat="43.38112" lon="2.22765">
        <ele>676.1</ele>
        <time>2019-08-11T07:39:45.000Z</time>
      </trkpt>
      <trkpt lat="43.38109" lon="2.22766">
        <ele>675.9</ele>
        <time>2019-08-11T07:39:46.000Z</time>
      </trkpt>
      <trkpt lat="43.38107" lon="2.22767">
        <ele>675.7</ele>
        <time>2019-08-11T07:39:47.000Z</time>
      </trkpt>
      <trkpt lat="43.38105" lon="2.22768">
        <ele>675.5</ele>
        <time>2019-08-11T07:39:48.000Z</time>
      </trkpt>
      <trkpt lat="43.38103" lon="2.22769">
        <ele>675.4</ele>
        <time>2019-08-11T07:39:49.000Z</time>
      </trkpt>
      <trkpt lat="43.38102" lon="2.2277">
        <ele>675.4</ele>
        <time>2019-08-11T07:39:50.000Z</time>
      </trkpt>
      <trkpt lat="43.38102" lon="2.22771">
        <ele>675.4</ele>
        <time>2019-08-11T07:39:51.000Z</time>
      </trkpt>
      <trkpt lat="43.38102" lon="2.22771">
        <ele>675.4</ele>
        <time>2019-08-11T07:39:52.000Z</time>
      </trkpt>
      <trkpt lat="43.38102" lon="2.22772">
        <ele>675.5</ele>
        <time>2019-08-11T07:39:53.000Z</time>
      </trkpt>
      <trkpt lat="43.38103" lon="2.22773">
        <ele>675.5</ele>
        <time>2019-08-11T07:39:54.000Z</time>
      </trkpt>
      <trkpt lat="43.38102" lon="2.22773">
        <ele>675.6</ele>
        <time>2019-08-11T07:39:55.000Z</time>
      </trkpt>
      <trkpt lat="43.38102" lon="2.22774">
        <ele>675.5</ele>
        <time>2019-08-11T07:39:56.000Z</time>
      </trkpt>
      <trkpt lat="43.38101" lon="2.22774">
        <ele>675.5</ele>
        <time>2019-08-11T07:39:57.000Z</time>
      </trkpt>
      <trkpt lat="43.381" lon="2.22775">
        <ele>675.4</ele>
        <time>2019-08-11T07:39:58.000Z</time>
      </trkpt>
      <trkpt lat="43.38099" lon="2.22775">
        <ele>675.3</ele>
        <time>2019-08-11T07:39:59.000Z</time>
      </trkpt>
      <trkpt lat="43.38098" lon="2.22776">
        <ele>675.2</ele>
        <time>2019-08-11T07:40:00.000Z</time>
      </trkpt>
      <trkpt lat="43.38096" lon="2.22776">
        <ele>675</ele>
        <time>2019-08-11T07:40:01.000Z</time>
      </trkpt>
      <trkpt lat="43.38095" lon="2.22776">
        <ele>674.9</ele>
        <time>2019-08-11T07:40:02.000Z</time>
      </trkpt>
      <trkpt lat="43.38093" lon="2.22777">
        <ele>674.7</ele>
        <time>2019-08-11T07:40:03.000Z</time>
      </trkpt>
      <trkpt lat="43.38091" lon="2.22777">
        <ele>674.5</ele>
        <time>2019-08-11T07:40:04.000Z</time>
      </trkpt>
      <trkpt lat="43.38089" lon="2.22778">
        <ele>674.4</ele>
        <time>2019-08-11T07:40:05.000Z</time>
      </trkpt>
      <trkpt lat="43.38088" lon="2.22779">
        <ele>674.2</ele>
        <time>2019-08-11T07:40:06.000Z</time>
      </trkpt>
      <trkpt lat="43.38086" lon="2.2278">
        <ele>674.1</ele>
        <time>2019-08-11T07:40:07.000Z</time>
      </trkpt>
      <trkpt lat="43.38084" lon="2.22781">
        <ele>673.9</ele>
        <time>2019-08-11T07:40:08.000Z</time>
      </trkpt>
      <trkpt lat="43.38082" lon="2.22782">
        <ele>673.8</ele>
        <time>2019-08-11T07:40:09.000Z</time>
      </trkpt>
      <trkpt lat="43.3808" lon="2.22784">
        <ele>673.7</ele>
        <time>2019-08-11T07:40:10.000Z</time>
      </trkpt>
      <trkpt lat="43.38078" lon="2.22785">
        <ele>673.5</ele>
        <time>2019-08-11T07:40:11.000Z</time>
      </trkpt>
      <trkpt lat="43.38076" lon="2.22787">
        <ele>673.4</ele>
        <time>2019-08-11T07:40:12.000Z</time>
      </trkpt>
      <trkpt lat="43.38075" lon="2.22787">
        <ele>673.3</ele>
        <time>2019-08-11T07:40:13.000Z</time>
      </trkpt>
      <trkpt lat="43.38074" lon="2.22787">
        <ele>673.2</ele>
        <time>2019-08-11T07:40:14.000Z</time>
      </trkpt>
      <trkpt lat="43.38073" lon="2.22787">
        <ele>673.1</ele>
        <time>2019-08-11T07:40:15.000Z</time>
      </trkpt>
      <trkpt lat="43.38073" lon="2.22787">
        <ele>673</ele>
        <time>2019-08-11T07:40:16.000Z</time>
      </trkpt>
      <trkpt lat="43.38072" lon="2.22787">
        <ele>673</ele>
        <time>2019-08-11T07:40:17.000Z</time>
      </trkpt>
      <trkpt lat="43.38072" lon="2.22788">
        <ele>673</ele>
        <time>2019-08-11T07:40:18.000Z</time>
      </trkpt>
      <trkpt lat="43.38072" lon="2.22789">
        <ele>673</ele>
        <time>2019-08-11T07:40:19.000Z</time>
      </trkpt>
      <trkpt lat="43.38071" lon="2.22789">
        <ele>673</ele>
        <time>2019-08-11T07:40:20.000Z</time>
      </trkpt>
      <trkpt lat="43.38071" lon="2.2279">
        <ele>672.9</ele>
        <time>2019-08-11T07:40:21.000Z</time>
      </trkpt>
      <trkpt lat="43.3807" lon="2.22791">
        <ele>672.9</ele>
        <time>2019-08-11T07:40:22.000Z</time>
      </trkpt>
      <trkpt lat="43.38068" lon="2.22792">
        <ele>672.8</ele>
        <time>2019-08-11T07:40:23.000Z</time>
      </trkpt>
      <trkpt lat="43.38067" lon="2.22793">
        <ele>672.7</ele>
        <time>2019-08-11T07:40:24.000Z</time>
      </trkpt>
      <trkpt lat="43.38065" lon="2.22794">
        <ele>672.5</ele>
        <time>2019-08-11T07:40:25.000Z</time>
      </trkpt>
      <trkpt lat="43.38063" lon="2.22795">
        <ele>672.4</ele>
        <time>2019-08-11T07:40:26.000Z</time>
      </trkpt>
      <trkpt lat="43.38061" lon="2.22796">
        <ele>672.2</ele>
        <time>2019-08-11T07:40:27.000Z</time>
      </trkpt>
      <trkpt lat="43.38059" lon="2.22798">
        <ele>672</ele>
        <time>2019-08-11T07:40:28.000Z</time>
      </trkpt>
      <trkpt lat="43.38057" lon="2.22799">
        <ele>671.8</ele>
        <time>2019-08-11T07:40:29.000Z</time>
      </trkpt>
      <trkpt lat="43.38055" lon="2.228">
        <ele>671.6</ele>
        <time>2019-08-11T07:40:30.000Z</time>
      </trkpt>
      <trkpt lat="43.38052" lon="2.22802">
        <ele>671.4</ele>
        <time>2019-08-11T07:40:31.000Z</time>
      </trkpt>
      <trkpt lat="43.3805" lon="2.22803">
        <ele>671.2</ele>
        <time>2019-08-11T07:40:32.000Z</time>
      </trkpt>
      <trkpt lat="43.38048" lon="2.22805">
        <ele>671</ele>
        <time>2019-08-11T07:40:33.000Z</time>
      </trkpt>
      <trkpt lat="43.38045" lon="2.22806">
        <ele>670.8</ele>
        <time>2019-08-11T07:40:34.000Z</time>
      </trkpt>
      <trkpt lat="43.38043" lon="2.22808">
        <ele>670.5</ele>
        <time>2019-08-11T07:40:35.000Z</time>
      </trkpt>
      <trkpt lat="43.3804" lon="2.22809">
        <ele>670.3</ele>
        <time>2019-08-11T07:40:36.000Z</time>
      </trkpt>
      <trkpt lat="43.38038" lon="2.22811">
        <ele>670.1</ele>
        <time>2019-08-11T07:40:37.000Z</time>
      </trkpt>
      <trkpt lat="43.38035" lon="2.22812">
        <ele>669.8</ele>
        <time>2019-08-11T07:40:38.000Z</time>
      </trkpt>
      <trkpt lat="43.38033" lon="2.22814">
        <ele>669.6</ele>
        <time>2019-08-11T07:40:39.000Z</time>
      </trkpt>
      <trkpt lat="43.38031" lon="2.22815">
        <ele>669.4</ele>
        <time>2019-08-11T07:40:40.000Z</time>
      </trkpt>
      <trkpt lat="43.38028" lon="2.22817">
        <ele>669.1</ele>
        <time>2019-08-11T07:40:41.000Z</time>
      </trkpt>
      <trkpt lat="43.38026" lon="2.22818">
        <ele>668.9</ele>
        <time>2019-08-11T07:40:42.000Z</time>
      </trkpt>
      <trkpt lat="43.38024" lon="2.22819">
        <ele>668.6</ele>
        <time>2019-08-11T07:40:43.000Z</time>
      </trkpt>
      <trkpt lat="43.38021" lon="2.22821">
        <ele>668.4</ele>
        <time>2019-08-11T07:40:44.000Z</time>
      </trkpt>
      <trkpt lat="43.38019" lon="2.22822">
        <ele>668.1</ele>
        <time>2019-08-11T07:40:45.000Z</time>
      </trkpt>
      <trkpt lat="43.38017" lon="2.22823">
        <ele>667.9</ele>
        <time>2019-08-11T07:40:46.000Z</time>
      </trkpt>
      <trkpt lat="43.38014" lon="2.22824">
        <ele>667.6</ele>
        <time>2019-08-11T07:40:47.000Z</time>
      </trkpt>
      <trkpt lat="43.38012" lon="2.22825">
        <ele>667.3</ele>
        <time>2019-08-11T07:40:48.000Z</time>
      </trkpt>
      <trkpt lat="43.3801" lon="2.22825">
        <ele>667.1</ele>
        <time>2019-08-11T07:40:49.000Z</time>
      </trkpt>
      <trkpt lat="43.38007" lon="2.22826">
        <ele>666.8</ele>
        <time>2019-08-11T07:40:50.000Z</time>
      </trkpt>
      <trkpt lat="43.38005" lon="2.22827">
        <ele>666.5</ele>
        <time>2019-08-11T07:40:51.000Z</time>
      </trkpt>
      <trkpt lat="43.38003" lon="2.22827">
        <ele>666.2</ele>
        <time>2019-08-11T07:40:52.000Z</time>
      </trkpt>
      <trkpt lat="43.38" lon="2.22828">
        <ele>665.9</ele>
        <time>2019-08-11T07:40:53.000Z</time>
      </trkpt>
      <trkpt lat="43.37998" lon="2.22828">
        <ele>665.7</ele>
        <time>2019-08-11T07:40:54.000Z</time>
      </trkpt>
      <trkpt lat="43.37995" lon="2.22828">
        <ele>665.6</ele>
        <time>2019-08-11T07:40:55.000Z</time>
      </trkpt>
      <trkpt lat="43.37993" lon="2.22829">
        <ele>665.4</ele>
        <time>2019-08-11T07:40:56.000Z</time>
      </trkpt>
      <trkpt lat="43.3799" lon="2.22829">
        <ele>665.3</ele>
        <time>2019-08-11T07:40:57.000Z</time>
      </trkpt>
      <trkpt lat="43.37987" lon="2.2283">
        <ele>665.1</ele>
        <time>2019-08-11T07:40:58.000Z</time>
      </trkpt>
      <trkpt lat="43.37985" lon="2.2283">
        <ele>665</ele>
        <time>2019-08-11T07:40:59.000Z</time>
      </trkpt>
      <trkpt lat="43.37982" lon="2.22831">
        <ele>664.8</ele>
        <time>2019-08-11T07:41:00.000Z</time>
      </trkpt>
      <trkpt lat="43.3798" lon="2.22831">
        <ele>664.7</ele>
        <time>2019-08-11T07:41:01.000Z</time>
      </trkpt>
      <trkpt lat="43.37977" lon="2.22832">
        <ele>664.6</ele>
        <time>2019-08-11T07:41:02.000Z</time>
      </trkpt>
      <trkpt lat="43.37974" lon="2.22833">
        <ele>664.4</ele>
        <time>2019-08-11T07:41:03.000Z</time>
      </trkpt>
      <trkpt lat="43.37971" lon="2.22834">
        <ele>664.3</ele>
        <time>2019-08-11T07:41:04.000Z</time>
      </trkpt>
      <trkpt lat="43.37969" lon="2.22834">
        <ele>664.1</ele>
        <time>2019-08-11T07:41:05.000Z</time>
      </trkpt>
      <trkpt lat="43.37966" lon="2.22835">
        <ele>663.9</ele>
        <time>2019-08-11T07:41:06.000Z</time>
      </trkpt>
      <trkpt lat="43.37963" lon="2.22836">
        <ele>663.8</ele>
        <time>2019-08-11T07:41:07.000Z</time>
      </trkpt>
      <trkpt lat="43.3796" lon="2.22837">
        <ele>663.6</ele>
        <time>2019-08-11T07:41:08.000Z</time>
      </trkpt>
      <trkpt lat="43.37958" lon="2.22838">
        <ele>663.4</ele>
        <time>2019-08-11T07:41:09.000Z</time>
      </trkpt>
      <trkpt lat="43.37955" lon="2.22839">
        <ele>663.3</ele>
        <time>2019-08-11T07:41:10.000Z</time>
      </trkpt>
      <trkpt lat="43.37952" lon="2.22839">
        <ele>663.1</ele>
        <time>2019-08-11T07:41:11.000Z</time>
      </trkpt>
      <trkpt lat="43.37949" lon="2.2284">
        <ele>663</ele>
        <time>2019-08-11T07:41:12.000Z</time>
      </trkpt>
      <trkpt lat="43.37947" lon="2.22841">
        <ele>662.8</ele>
        <time>2019-08-11T07:41:13.000Z</time>
      </trkpt>
      <trkpt lat="43.37944" lon="2.22841">
        <ele>662.7</ele>
        <time>2019-08-11T07:41:14.000Z</time>
      </trkpt>
      <trkpt lat="43.37942" lon="2.22842">
        <ele>662.5</ele>
        <time>2019-08-11T07:41:15.000Z</time>
      </trkpt>
      <trkpt lat="43.37939" lon="2.22842">
        <ele>662.4</ele>
        <time>2019-08-11T07:41:16.000Z</time>
      </trkpt>
      <trkpt lat="43.37937" lon="2.22843">
        <ele>662.2</ele>
        <time>2019-08-11T07:41:17.000Z</time>
      </trkpt>
      <trkpt lat="43.37935" lon="2.22843">
        <ele>662.1</ele>
        <time>2019-08-11T07:41:18.000Z</time>
      </trkpt>
      <trkpt lat="43.37932" lon="2.22844">
        <ele>661.9</ele>
        <time>2019-08-11T07:41:19.000Z</time>
      </trkpt>
      <trkpt lat="43.3793" lon="2.22844">
        <ele>661.8</ele>
        <time>2019-08-11T07:41:20.000Z</time>
      </trkpt>
      <trkpt lat="43.37927" lon="2.22845">
        <ele>661.6</ele>
        <time>2019-08-11T07:41:21.000Z</time>
      </trkpt>
      <trkpt lat="43.37925" lon="2.22845">
        <ele>661.5</ele>
        <time>2019-08-11T07:41:22.000Z</time>
      </trkpt>
      <trkpt lat="43.37922" lon="2.22846">
        <ele>661.3</ele>
        <time>2019-08-11T07:41:23.000Z</time>
      </trkpt>
      <trkpt lat="43.3792" lon="2.22847">
        <ele>661.2</ele>
        <time>2019-08-11T07:41:24.000Z</time>
      </trkpt>
      <trkpt lat="43.37917" lon="2.22847">
        <ele>661</ele>
        <time>2019-08-11T07:41:25.000Z</time>
      </trkpt>
      <trkpt lat="43.37915" lon="2.22848">
        <ele>660.9</ele>
        <time>2019-08-11T07:41:26.000Z</time>
      </trkpt>
      <trkpt lat="43.37912" lon="2.22849">
        <ele>660.7</ele>
        <time>2019-08-11T07:41:27.000Z</time>
      </trkpt>
      <trkpt lat="43.37909" lon="2.22849">
        <ele>660.6</ele>
        <time>2019-08-11T07:41:28.000Z</time>
      </trkpt>
      <trkpt lat="43.37907" lon="2.2285">
        <ele>660.4</ele>
        <time>2019-08-11T07:41:29.000Z</time>
      </trkpt>
      <trkpt lat="43.37904" lon="2.22851">
        <ele>660.2</ele>
        <time>2019-08-11T07:41:30.000Z</time>
      </trkpt>
      <trkpt lat="43.37901" lon="2.22852">
        <ele>660.1</ele>
        <time>2019-08-11T07:41:31.000Z</time>
      </trkpt>
      <trkpt lat="43.37898" lon="2.22853">
        <ele>659.9</ele>
        <time>2019-08-11T07:41:32.000Z</time>
      </trkpt>
      <trkpt lat="43.37895" lon="2.22854">
        <ele>659.7</ele>
        <time>2019-08-11T07:41:33.000Z</time>
      </trkpt>
      <trkpt lat="43.37893" lon="2.22854">
        <ele>659.6</ele>
        <time>2019-08-11T07:41:34.000Z</time>
      </trkpt>
      <trkpt lat="43.3789" lon="2.22855">
        <ele>659.4</ele>
        <time>2019-08-11T07:41:35.000Z</time>
      </trkpt>
      <trkpt lat="43.37887" lon="2.22856">
        <ele>659.2</ele>
        <time>2019-08-11T07:41:36.000Z</time>
      </trkpt>
      <trkpt lat="43.37884" lon="2.22856">
        <ele>659.1</ele>
        <time>2019-08-11T07:41:37.000Z</time>
      </trkpt>
      <trkpt lat="43.37881" lon="2.22857">
        <ele>658.9</ele>
        <time>2019-08-11T07:41:38.000Z</time>
      </trkpt>
      <trkpt lat="43.37879" lon="2.22857">
        <ele>658.7</ele>
        <time>2019-08-11T07:41:39.000Z</time>
      </trkpt>
      <trkpt lat="43.37876" lon="2.22857">
        <ele>658.5</ele>
        <time>2019-08-11T07:41:40.000Z</time>
      </trkpt>
      <trkpt lat="43.37873" lon="2.22857">
        <ele>658.4</ele>
        <time>2019-08-11T07:41:41.000Z</time>
      </trkpt>
      <trkpt lat="43.37869" lon="2.22857">
        <ele>658.2</ele>
        <time>2019-08-11T07:41:42.000Z</time>
      </trkpt>
      <trkpt lat="43.37866" lon="2.22858">
        <ele>658</ele>
        <time>2019-08-11T07:41:43.000Z</time>
      </trkpt>
      <trkpt lat="43.37863" lon="2.22858">
        <ele>657.8</ele>
        <time>2019-08-11T07:41:44.000Z</time>
      </trkpt>
      <trkpt lat="43.37859" lon="2.22858">
        <ele>657.5</ele>
        <time>2019-08-11T07:41:45.000Z</time>
      </trkpt>
      <trkpt lat="43.37855" lon="2.22859">
        <ele>657.3</ele>
        <time>2019-08-11T07:41:46.000Z</time>
      </trkpt>
      <trkpt lat="43.37852" lon="2.22859">
        <ele>657.1</ele>
        <time>2019-08-11T07:41:47.000Z</time>
      </trkpt>
      <trkpt lat="43.37849" lon="2.22859">
        <ele>656.9</ele>
        <time>2019-08-11T07:41:48.000Z</time>
      </trkpt>
      <trkpt lat="43.37845" lon="2.22858">
        <ele>656.7</ele>
        <time>2019-08-11T07:41:49.000Z</time>
      </trkpt>
      <trkpt lat="43.37842" lon="2.22858">
        <ele>656.5</ele>
        <time>2019-08-11T07:41:50.000Z</time>
      </trkpt>
      <trkpt lat="43.37839" lon="2.22857">
        <ele>656.3</ele>
        <time>2019-08-11T07:41:51.000Z</time>
      </trkpt>
      <trkpt lat="43.37836" lon="2.22856">
        <ele>656.2</ele>
        <time>2019-08-11T07:41:52.000Z</time>
      </trkpt>
      <trkpt lat="43.37833" lon="2.22856">
        <ele>656</ele>
        <time>2019-08-11T07:41:53.000Z</time>
      </trkpt>
      <trkpt lat="43.3783" lon="2.22855">
        <ele>655.8</ele>
        <time>2019-08-11T07:41:54.000Z</time>
      </trkpt>
      <trkpt lat="43.37826" lon="2.22855">
        <ele>655.7</ele>
        <time>2019-08-11T07:41:55.000Z</time>
      </trkpt>
      <trkpt lat="43.37822" lon="2.22854">
        <ele>655.5</ele>
        <time>2019-08-11T07:41:56.000Z</time>
      </trkpt>
      <trkpt lat="43.37819" lon="2.22854">
        <ele>655.4</ele>
        <time>2019-08-11T07:41:57.000Z</time>
      </trkpt>
      <trkpt lat="43.37815" lon="2.22853">
        <ele>655.2</ele>
        <time>2019-08-11T07:41:58.000Z</time>
      </trkpt>
      <trkpt lat="43.37811" lon="2.22852">
        <ele>655</ele>
        <time>2019-08-11T07:41:59.000Z</time>
      </trkpt>
      <trkpt lat="43.37808" lon="2.22852">
        <ele>654.9</ele>
        <time>2019-08-11T07:42:00.000Z</time>
      </trkpt>
      <trkpt lat="43.37804" lon="2.22851">
        <ele>654.7</ele>
        <time>2019-08-11T07:42:01.000Z</time>
      </trkpt>
      <trkpt lat="43.37801" lon="2.2285">
        <ele>654.6</ele>
        <time>2019-08-11T07:42:02.000Z</time>
      </trkpt>
      <trkpt lat="43.37798" lon="2.22849">
        <ele>654.5</ele>
        <time>2019-08-11T07:42:03.000Z</time>
      </trkpt>
      <trkpt lat="43.37795" lon="2.22849">
        <ele>654.3</ele>
        <time>2019-08-11T07:42:04.000Z</time>
      </trkpt>
      <trkpt lat="43.37792" lon="2.22848">
        <ele>654.2</ele>
        <time>2019-08-11T07:42:05.000Z</time>
      </trkpt>
      <trkpt lat="43.37789" lon="2.22847">
        <ele>654.1</ele>
        <time>2019-08-11T07:42:06.000Z</time>
      </trkpt>
      <trkpt lat="43.37787" lon="2.22846">
        <ele>653.9</ele>
        <time>2019-08-11T07:42:07.000Z</time>
      </trkpt>
      <trkpt lat="43.37784" lon="2.22846">
        <ele>653.8</ele>
        <time>2019-08-11T07:42:08.000Z</time>
      </trkpt>
      <trkpt lat="43.37781" lon="2.22845">
        <ele>653.7</ele>
        <time>2019-08-11T07:42:09.000Z</time>
      </trkpt>
      <trkpt lat="43.37778" lon="2.22844">
        <ele>653.5</ele>
        <time>2019-08-11T07:42:10.000Z</time>
      </trkpt>
      <trkpt lat="43.37776" lon="2.22843">
        <ele>653.4</ele>
        <time>2019-08-11T07:42:11.000Z</time>
      </trkpt>
      <trkpt lat="43.37773" lon="2.22842">
        <ele>653.2</ele>
        <time>2019-08-11T07:42:12.000Z</time>
      </trkpt>
      <trkpt lat="43.3777" lon="2.22841">
        <ele>653.1</ele>
        <time>2019-08-11T07:42:13.000Z</time>
      </trkpt>
      <trkpt lat="43.37767" lon="2.22841">
        <ele>652.9</ele>
        <time>2019-08-11T07:42:14.000Z</time>
      </trkpt>
      <trkpt lat="43.37764" lon="2.2284">
        <ele>652.8</ele>
        <time>2019-08-11T07:42:15.000Z</time>
      </trkpt>
      <trkpt lat="43.37761" lon="2.22839">
        <ele>652.6</ele>
        <time>2019-08-11T07:42:16.000Z</time>
      </trkpt>
      <trkpt lat="43.37758" lon="2.22838">
        <ele>652.5</ele>
        <time>2019-08-11T07:42:17.000Z</time>
      </trkpt>
      <trkpt lat="43.37754" lon="2.22837">
        <ele>652.3</ele>
        <time>2019-08-11T07:42:18.000Z</time>
      </trkpt>
      <trkpt lat="43.37751" lon="2.22837">
        <ele>652.1</ele>
        <time>2019-08-11T07:42:19.000Z</time>
      </trkpt>
      <trkpt lat="43.37748" lon="2.22836">
        <ele>652</ele>
        <time>2019-08-11T07:42:20.000Z</time>
      </trkpt>
      <trkpt lat="43.37745" lon="2.22835">
        <ele>651.9</ele>
        <time>2019-08-11T07:42:21.000Z</time>
      </trkpt>
      <trkpt lat="43.37742" lon="2.22834">
        <ele>651.7</ele>
        <time>2019-08-11T07:42:22.000Z</time>
      </trkpt>
      <trkpt lat="43.37739" lon="2.22833">
        <ele>651.6</ele>
        <time>2019-08-11T07:42:23.000Z</time>
      </trkpt>
      <trkpt lat="43.37736" lon="2.22833">
        <ele>651.5</ele>
        <time>2019-08-11T07:42:24.000Z</time>
      </trkpt>
      <trkpt lat="43.37733" lon="2.22832">
        <ele>651.3</ele>
        <time>2019-08-11T07:42:25.000Z</time>
      </trkpt>
      <trkpt lat="43.3773" lon="2.22831">
        <ele>651.2</ele>
        <time>2019-08-11T07:42:26.000Z</time>
      </trkpt>
      <trkpt lat="43.37727" lon="2.2283">
        <ele>651.1</ele>
        <time>2019-08-11T07:42:27.000Z</time>
      </trkpt>
      <trkpt lat="43.37725" lon="2.2283">
        <ele>651</ele>
        <time>2019-08-11T07:42:28.000Z</time>
      </trkpt>
      <trkpt lat="43.37722" lon="2.22829">
        <ele>650.9</ele>
        <time>2019-08-11T07:42:29.000Z</time>
      </trkpt>
      <trkpt lat="43.37719" lon="2.22828">
        <ele>650.7</ele>
        <time>2019-08-11T07:42:30.000Z</time>
      </trkpt>
      <trkpt lat="43.37716" lon="2.22827">
        <ele>650.6</ele>
        <time>2019-08-11T07:42:31.000Z</time>
      </trkpt>
      <trkpt lat="43.37714" lon="2.22826">
        <ele>650.5</ele>
        <time>2019-08-11T07:42:32.000Z</time>
      </trkpt>
      <trkpt lat="43.37711" lon="2.22826">
        <ele>650.4</ele>
        <time>2019-08-11T07:42:33.000Z</time>
      </trkpt>
      <trkpt lat="43.37708" lon="2.22825">
        <ele>650.3</ele>
        <time>2019-08-11T07:42:34.000Z</time>
      </trkpt>
      <trkpt lat="43.37705" lon="2.22824">
        <ele>650.2</ele>
        <time>2019-08-11T07:42:35.000Z</time>
      </trkpt>
      <trkpt lat="43.37702" lon="2.22823">
        <ele>650</ele>
        <time>2019-08-11T07:42:36.000Z</time>
      </trkpt>
      <trkpt lat="43.37699" lon="2.22822">
        <ele>649.9</ele>
        <time>2019-08-11T07:42:37.000Z</time>
      </trkpt>
      <trkpt lat="43.37696" lon="2.22821">
        <ele>649.8</ele>
        <time>2019-08-11T07:42:38.000Z</time>
      </trkpt>
      <trkpt lat="43.37693" lon="2.2282">
        <ele>649.7</ele>
        <time>2019-08-11T07:42:39.000Z</time>
      </trkpt>
      <trkpt lat="43.3769" lon="2.22819">
        <ele>649.6</ele>
        <time>2019-08-11T07:42:40.000Z</time>
      </trkpt>
      <trkpt lat="43.37687" lon="2.22819">
        <ele>649.5</ele>
        <time>2019-08-11T07:42:41.000Z</time>
      </trkpt>
      <trkpt lat="43.37684" lon="2.22818">
        <ele>649.4</ele>
        <time>2019-08-11T07:42:42.000Z</time>
      </trkpt>
      <trkpt lat="43.37681" lon="2.22817">
        <ele>649.3</ele>
        <time>2019-08-11T07:42:43.000Z</time>
      </trkpt>
      <trkpt lat="43.37679" lon="2.22817">
        <ele>649.2</ele>
        <time>2019-08-11T07:42:44.000Z</time>
      </trkpt>
      <trkpt lat="43.37676" lon="2.22816">
        <ele>649.1</ele>
        <time>2019-08-11T07:42:45.000Z</time>
      </trkpt>
      <trkpt lat="43.37673" lon="2.22815">
        <ele>649</ele>
        <time>2019-08-11T07:42:46.000Z</time>
      </trkpt>
      <trkpt lat="43.3767" lon="2.22815">
        <ele>648.9</ele>
        <time>2019-08-11T07:42:47.000Z</time>
      </trkpt>
      <trkpt lat="43.37667" lon="2.22814">
        <ele>648.8</ele>
        <time>2019-08-11T07:42:48.000Z</time>
      </trkpt>
      <trkpt lat="43.37665" lon="2.22814">
        <ele>648.7</ele>
        <time>2019-08-11T07:42:49.000Z</time>
      </trkpt>
      <trkpt lat="43.37662" lon="2.22814">
        <ele>648.6</ele>
        <time>2019-08-11T07:42:50.000Z</time>
      </trkpt>
      <trkpt lat="43.3766" lon="2.22814">
        <ele>648.6</ele>
        <time>2019-08-11T07:42:51.000Z</time>
      </trkpt>
      <trkpt lat="43.37658" lon="2.22814">
        <ele>648.5</ele>
        <time>2019-08-11T07:42:52.000Z</time>
      </trkpt>
      <trkpt lat="43.37656" lon="2.22815">
        <ele>648.5</ele>
        <time>2019-08-11T07:42:53.000Z</time>
      </trkpt>
      <trkpt lat="43.37654" lon="2.22817">
        <ele>648.4</ele>
        <time>2019-08-11T07:42:54.000Z</time>
      </trkpt>
      <trkpt lat="43.37653" lon="2.22819">
        <ele>648.4</ele>
        <time>2019-08-11T07:42:55.000Z</time>
      </trkpt>
      <trkpt lat="43.37652" lon="2.22821">
        <ele>648.4</ele>
        <time>2019-08-11T07:42:56.000Z</time>
      </trkpt>
      <trkpt lat="43.37651" lon="2.22824">
        <ele>648.4</ele>
        <time>2019-08-11T07:42:57.000Z</time>
      </trkpt>
      <trkpt lat="43.37651" lon="2.22826">
        <ele>648.4</ele>
        <time>2019-08-11T07:42:58.000Z</time>
      </trkpt>
      <trkpt lat="43.3765" lon="2.22829">
        <ele>648.4</ele>
        <time>2019-08-11T07:42:59.000Z</time>
      </trkpt>
      <trkpt lat="43.3765" lon="2.22831">
        <ele>648.4</ele>
        <time>2019-08-11T07:43:00.000Z</time>
      </trkpt>
      <trkpt lat="43.37649" lon="2.22832">
        <ele>648.4</ele>
        <time>2019-08-11T07:43:01.000Z</time>
      </trkpt>
      <trkpt lat="43.37649" lon="2.22833">
        <ele>648.4</ele>
        <time>2019-08-11T07:43:02.000Z</time>
      </trkpt>
      <trkpt lat="43.37648" lon="2.22833">
        <ele>648.3</ele>
        <time>2019-08-11T07:43:03.000Z</time>
      </trkpt>
      <trkpt lat="43.37648" lon="2.22832">
        <ele>648.3</ele>
        <time>2019-08-11T07:43:04.000Z</time>
      </trkpt>
      <trkpt lat="43.37648" lon="2.22832">
        <ele>648.3</ele>
        <time>2019-08-11T07:43:05.000Z</time>
      </trkpt>
      <trkpt lat="43.37647" lon="2.22831">
        <ele>648.3</ele>
        <time>2019-08-11T07:43:06.000Z</time>
      </trkpt>
      <trkpt lat="43.37647" lon="2.2283">
        <ele>648.3</ele>
        <time>2019-08-11T07:43:07.000Z</time>
      </trkpt>
      <trkpt lat="43.37647" lon="2.22829">
        <ele>648.3</ele>
        <time>2019-08-11T07:43:08.000Z</time>
      </trkpt>
      <trkpt lat="43.37647" lon="2.22828">
        <ele>648.3</ele>
        <time>2019-08-11T07:43:09.000Z</time>
      </trkpt>
      <trkpt lat="43.37647" lon="2.22828">
        <ele>648.3</ele>
        <time>2019-08-11T07:43:10.000Z</time>
      </trkpt>
      <trkpt lat="43.37648" lon="2.22828">
        <ele>648.3</ele>
        <time>2019-08-11T07:43:11.000Z</time>
      </trkpt>
      <trkpt lat="43.37648" lon="2.22828">
        <ele>648.3</ele>
        <time>2019-08-11T07:43:12.000Z</time>
      </trkpt>
      <trkpt lat="43.37648" lon="2.22828">
        <ele>648.3</ele>
        <time>2019-08-11T07:43:13.000Z</time>
      </trkpt>
      <trkpt lat="43.37648" lon="2.22829">
        <ele>648.3</ele>
        <time>2019-08-11T07:43:14.000Z</time>
      </trkpt>
      <trkpt lat="43.37648" lon="2.2283">
        <ele>648.3</ele>
        <time>2019-08-11T07:43:15.000Z</time>
      </trkpt>
      <trkpt lat="43.37648" lon="2.22831">
        <ele>648.3</ele>
        <time>2019-08-11T07:43:16.000Z</time>
      </trkpt>
      <trkpt lat="43.37648" lon="2.22832">
        <ele>648.3</ele>
        <time>2019-08-11T07:43:17.000Z</time>
      </trkpt>
      <trkpt lat="43.37647" lon="2.22834">
        <ele>648.3</ele>
        <time>2019-08-11T07:43:18.000Z</time>
      </trkpt>
      <trkpt lat="43.37647" lon="2.22835">
        <ele>648.3</ele>
        <time>2019-08-11T07:43:19.000Z</time>
      </trkpt>
      <trkpt lat="43.37646" lon="2.22837">
        <ele>648.3</ele>
        <time>2019-08-11T07:43:20.000Z</time>
      </trkpt>
      <trkpt lat="43.37646" lon="2.22838">
        <ele>648.2</ele>
        <time>2019-08-11T07:43:21.000Z</time>
      </trkpt>
      <trkpt lat="43.37645" lon="2.2284">
        <ele>648.2</ele>
        <time>2019-08-11T07:43:22.000Z</time>
      </trkpt>
      <trkpt lat="43.37645" lon="2.22841">
        <ele>648.2</ele>
        <time>2019-08-11T07:43:23.000Z</time>
      </trkpt>
      <trkpt lat="43.37644" lon="2.22843">
        <ele>648.2</ele>
        <time>2019-08-11T07:43:24.000Z</time>
      </trkpt>
      <trkpt lat="43.37644" lon="2.22844">
        <ele>648.2</ele>
        <time>2019-08-11T07:43:25.000Z</time>
      </trkpt>
      <trkpt lat="43.37644" lon="2.22845">
        <ele>648.2</ele>
        <time>2019-08-11T07:43:26.000Z</time>
      </trkpt>
      <trkpt lat="43.37643" lon="2.22847">
        <ele>648.2</ele>
        <time>2019-08-11T07:43:27.000Z</time>
      </trkpt>
      <trkpt lat="43.37643" lon="2.22849">
        <ele>648.1</ele>
        <time>2019-08-11T07:43:28.000Z</time>
      </trkpt>
      <trkpt lat="43.37642" lon="2.2285">
        <ele>648.1</ele>
        <time>2019-08-11T07:43:29.000Z</time>
      </trkpt>
      <trkpt lat="43.37642" lon="2.22852">
        <ele>648.1</ele>
        <time>2019-08-11T07:43:30.000Z</time>
      </trkpt>
      <trkpt lat="43.37641" lon="2.22854">
        <ele>648.1</ele>
        <time>2019-08-11T07:43:31.000Z</time>
      </trkpt>
      <trkpt lat="43.3764" lon="2.22856">
        <ele>648.1</ele>
        <time>2019-08-11T07:43:32.000Z</time>
      </trkpt>
      <trkpt lat="43.3764" lon="2.22858">
        <ele>648</ele>
        <time>2019-08-11T07:43:33.000Z</time>
      </trkpt>
      <trkpt lat="43.37639" lon="2.2286">
        <ele>648</ele>
        <time>2019-08-11T07:43:34.000Z</time>
      </trkpt>
      <trkpt lat="43.37638" lon="2.22863">
        <ele>648</ele>
        <time>2019-08-11T07:43:35.000Z</time>
      </trkpt>
      <trkpt lat="43.37637" lon="2.22865">
        <ele>647.9</ele>
        <time>2019-08-11T07:43:36.000Z</time>
      </trkpt>
      <trkpt lat="43.37636" lon="2.22868">
        <ele>647.9</ele>
        <time>2019-08-11T07:43:37.000Z</time>
      </trkpt>
      <trkpt lat="43.37635" lon="2.22871">
        <ele>647.9</ele>
        <time>2019-08-11T07:43:38.000Z</time>
      </trkpt>
      <trkpt lat="43.37634" lon="2.22874">
        <ele>647.8</ele>
        <time>2019-08-11T07:43:39.000Z</time>
      </trkpt>
      <trkpt lat="43.37633" lon="2.22877">
        <ele>647.8</ele>
        <time>2019-08-11T07:43:40.000Z</time>
      </trkpt>
      <trkpt lat="43.37632" lon="2.2288">
        <ele>647.8</ele>
        <time>2019-08-11T07:43:41.000Z</time>
      </trkpt>
      <trkpt lat="43.37631" lon="2.22883">
        <ele>647.7</ele>
        <time>2019-08-11T07:43:42.000Z</time>
      </trkpt>
      <trkpt lat="43.3763" lon="2.22887">
        <ele>647.7</ele>
        <time>2019-08-11T07:43:43.000Z</time>
      </trkpt>
      <trkpt lat="43.37629" lon="2.2289">
        <ele>647.7</ele>
        <time>2019-08-11T07:43:44.000Z</time>
      </trkpt>
      <trkpt lat="43.37628" lon="2.22894">
        <ele>647.6</ele>
        <time>2019-08-11T07:43:45.000Z</time>
      </trkpt>
      <trkpt lat="43.37627" lon="2.22898">
        <ele>647.6</ele>
        <time>2019-08-11T07:43:46.000Z</time>
      </trkpt>
      <trkpt lat="43.37626" lon="2.22902">
        <ele>647.5</ele>
        <time>2019-08-11T07:43:47.000Z</time>
      </trkpt>
      <trkpt lat="43.37625" lon="2.22906">
        <ele>647.5</ele>
        <time>2019-08-11T07:43:48.000Z</time>
      </trkpt>
      <trkpt lat="43.37624" lon="2.2291">
        <ele>647.5</ele>
        <time>2019-08-11T07:43:49.000Z</time>
      </trkpt>
      <trkpt lat="43.37623" lon="2.22914">
        <ele>647.4</ele>
        <time>2019-08-11T07:43:50.000Z</time>
      </trkpt>
      <trkpt lat="43.37622" lon="2.22918">
        <ele>647.4</ele>
        <time>2019-08-11T07:43:51.000Z</time>
      </trkpt>
      <trkpt lat="43.3762" lon="2.22922">
        <ele>647.3</ele>
        <time>2019-08-11T07:43:52.000Z</time>
      </trkpt>
      <trkpt lat="43.37619" lon="2.22926">
        <ele>647.2</ele>
        <time>2019-08-11T07:43:53.000Z</time>
      </trkpt>
      <trkpt lat="43.37618" lon="2.2293">
        <ele>647.1</ele>
        <time>2019-08-11T07:43:54.000Z</time>
      </trkpt>
      <trkpt lat="43.37617" lon="2.22935">
        <ele>647.1</ele>
        <time>2019-08-11T07:43:55.000Z</time>
      </trkpt>
      <trkpt lat="43.37615" lon="2.22939">
        <ele>647</ele>
        <time>2019-08-11T07:43:56.000Z</time>
      </trkpt>
      <trkpt lat="43.37614" lon="2.22943">
        <ele>646.9</ele>
        <time>2019-08-11T07:43:57.000Z</time>
      </trkpt>
      <trkpt lat="43.37613" lon="2.22948">
        <ele>646.8</ele>
        <time>2019-08-11T07:43:58.000Z</time>
      </trkpt>
      <trkpt lat="43.37611" lon="2.22952">
        <ele>646.7</ele>
        <time>2019-08-11T07:43:59.000Z</time>
      </trkpt>
      <trkpt lat="43.3761" lon="2.22956">
        <ele>646.6</ele>
        <time>2019-08-11T07:44:00.000Z</time>
      </trkpt>
      <trkpt lat="43.37609" lon="2.2296">
        <ele>646.5</ele>
        <time>2019-08-11T07:44:01.000Z</time>
      </trkpt>
      <trkpt lat="43.37607" lon="2.22964">
        <ele>646.5</ele>
        <time>2019-08-11T07:44:02.000Z</time>
      </trkpt>
      <trkpt lat="43.37606" lon="2.22968">
        <ele>646.4</ele>
        <time>2019-08-11T07:44:03.000Z</time>
      </trkpt>
      <trkpt lat="43.37605" lon="2.22972">
        <ele>646.3</ele>
        <time>2019-08-11T07:44:04.000Z</time>
      </trkpt>
      <trkpt lat="43.37604" lon="2.22976">
        <ele>646.2</ele>
        <time>2019-08-11T07:44:05.000Z</time>
      </trkpt>
      <trkpt lat="43.37603" lon="2.2298">
        <ele>646.1</ele>
        <time>2019-08-11T07:44:06.000Z</time>
      </trkpt>
      <trkpt lat="43.37601" lon="2.22984">
        <ele>646</ele>
        <time>2019-08-11T07:44:07.000Z</time>
      </trkpt>
      <trkpt lat="43.376" lon="2.22987">
        <ele>645.9</ele>
        <time>2019-08-11T07:44:08.000Z</time>
      </trkpt>
      <trkpt lat="43.37599" lon="2.22991">
        <ele>645.9</ele>
        <time>2019-08-11T07:44:09.000Z</time>
      </trkpt>
      <trkpt lat="43.37598" lon="2.22994">
        <ele>645.8</ele>
        <time>2019-08-11T07:44:10.000Z</time>
      </trkpt>
      <trkpt lat="43.37597" lon="2.22997">
        <ele>645.7</ele>
        <time>2019-08-11T07:44:11.000Z</time>
      </trkpt>
      <trkpt lat="43.37596" lon="2.23001">
        <ele>645.6</ele>
        <time>2019-08-11T07:44:12.000Z</time>
      </trkpt>
      <trkpt lat="43.37596" lon="2.23004">
        <ele>645.4</ele>
        <time>2019-08-11T07:44:13.000Z</time>
      </trkpt>
      <trkpt lat="43.37595" lon="2.23007">
        <ele>645.3</ele>
        <time>2019-08-11T07:44:14.000Z</time>
      </trkpt>
      <trkpt lat="43.37594" lon="2.2301">
        <ele>645.1</ele>
        <time>2019-08-11T07:44:15.000Z</time>
      </trkpt>
      <trkpt lat="43.37593" lon="2.23013">
        <ele>644.9</ele>
        <time>2019-08-11T07:44:16.000Z</time>
      </trkpt>
      <trkpt lat="43.37592" lon="2.23016">
        <ele>644.7</ele>
        <time>2019-08-11T07:44:17.000Z</time>
      </trkpt>
      <trkpt lat="43.37591" lon="2.2302">
        <ele>644.5</ele>
        <time>2019-08-11T07:44:18.000Z</time>
      </trkpt>
      <trkpt lat="43.3759" lon="2.23023">
        <ele>644.3</ele>
        <time>2019-08-11T07:44:19.000Z</time>
      </trkpt>
      <trkpt lat="43.37589" lon="2.23026">
        <ele>644.1</ele>
        <time>2019-08-11T07:44:20.000Z</time>
      </trkpt>
      <trkpt lat="43.37588" lon="2.23029">
        <ele>643.9</ele>
        <time>2019-08-11T07:44:21.000Z</time>
      </trkpt>
      <trkpt lat="43.37587" lon="2.23032">
        <ele>643.7</ele>
        <time>2019-08-11T07:44:22.000Z</time>
      </trkpt>
      <trkpt lat="43.37586" lon="2.23035">
        <ele>643.5</ele>
        <time>2019-08-11T07:44:23.000Z</time>
      </trkpt>
      <trkpt lat="43.37585" lon="2.23038">
        <ele>643.3</ele>
        <time>2019-08-11T07:44:24.000Z</time>
      </trkpt>
      <trkpt lat="43.37584" lon="2.2304">
        <ele>643.1</ele>
        <time>2019-08-11T07:44:25.000Z</time>
      </trkpt>
      <trkpt lat="43.37584" lon="2.23043">
        <ele>643</ele>
        <time>2019-08-11T07:44:26.000Z</time>
      </trkpt>
      <trkpt lat="43.37583" lon="2.23045">
        <ele>642.8</ele>
        <time>2019-08-11T07:44:27.000Z</time>
      </trkpt>
      <trkpt lat="43.37582" lon="2.23047">
        <ele>642.7</ele>
        <time>2019-08-11T07:44:28.000Z</time>
      </trkpt>
      <trkpt lat="43.37581" lon="2.23049">
        <ele>642.5</ele>
        <time>2019-08-11T07:44:29.000Z</time>
      </trkpt>
      <trkpt lat="43.37581" lon="2.2305">
        <ele>642.4</ele>
        <time>2019-08-11T07:44:30.000Z</time>
      </trkpt>
      <trkpt lat="43.3758" lon="2.23052">
        <ele>642.3</ele>
        <time>2019-08-11T07:44:31.000Z</time>
      </trkpt>
      <trkpt lat="43.3758" lon="2.23054">
        <ele>642.2</ele>
        <time>2019-08-11T07:44:32.000Z</time>
      </trkpt>
      <trkpt lat="43.37579" lon="2.23056">
        <ele>642</ele>
        <time>2019-08-11T07:44:33.000Z</time>
      </trkpt>
      <trkpt lat="43.37579" lon="2.23058">
        <ele>641.9</ele>
        <time>2019-08-11T07:44:34.000Z</time>
      </trkpt>
      <trkpt lat="43.37578" lon="2.2306">
        <ele>641.7</ele>
        <time>2019-08-11T07:44:35.000Z</time>
      </trkpt>
      <trkpt lat="43.37577" lon="2.23062">
        <ele>641.6</ele>
        <time>2019-08-11T07:44:36.000Z</time>
      </trkpt>
      <trkpt lat="43.37577" lon="2.23065">
        <ele>641.4</ele>
        <time>2019-08-11T07:44:37.000Z</time>
      </trkpt>
      <trkpt lat="43.37576" lon="2.23067">
        <ele>641.2</ele>
        <time>2019-08-11T07:44:38.000Z</time>
      </trkpt>
      <trkpt lat="43.37575" lon="2.2307">
        <ele>641</ele>
        <time>2019-08-11T07:44:39.000Z</time>
      </trkpt>
      <trkpt lat="43.37575" lon="2.23073">
        <ele>640.8</ele>
        <time>2019-08-11T07:44:40.000Z</time>
      </trkpt>
      <trkpt lat="43.37574" lon="2.23076">
        <ele>640.6</ele>
        <time>2019-08-11T07:44:41.000Z</time>
      </trkpt>
      <trkpt lat="43.37573" lon="2.2308">
        <ele>640.4</ele>
        <time>2019-08-11T07:44:42.000Z</time>
      </trkpt>
      <trkpt lat="43.37572" lon="2.23083">
        <ele>640.2</ele>
        <time>2019-08-11T07:44:43.000Z</time>
      </trkpt>
      <trkpt lat="43.37571" lon="2.23086">
        <ele>640</ele>
        <time>2019-08-11T07:44:44.000Z</time>
      </trkpt>
      <trkpt lat="43.3757" lon="2.2309">
        <ele>639.9</ele>
        <time>2019-08-11T07:44:45.000Z</time>
      </trkpt>
      <trkpt lat="43.37569" lon="2.23093">
        <ele>639.7</ele>
        <time>2019-08-11T07:44:46.000Z</time>
      </trkpt>
      <trkpt lat="43.37568" lon="2.23097">
        <ele>639.6</ele>
        <time>2019-08-11T07:44:47.000Z</time>
      </trkpt>
      <trkpt lat="43.37567" lon="2.231">
        <ele>639.4</ele>
        <time>2019-08-11T07:44:48.000Z</time>
      </trkpt>
      <trkpt lat="43.37565" lon="2.23103">
        <ele>639.2</ele>
        <time>2019-08-11T07:44:49.000Z</time>
      </trkpt>
      <trkpt lat="43.37564" lon="2.23106">
        <ele>639.1</ele>
        <time>2019-08-11T07:44:50.000Z</time>
      </trkpt>
      <trkpt lat="43.37563" lon="2.23109">
        <ele>638.9</ele>
        <time>2019-08-11T07:44:51.000Z</time>
      </trkpt>
      <trkpt lat="43.37562" lon="2.23112">
        <ele>638.8</ele>
        <time>2019-08-11T07:44:52.000Z</time>
      </trkpt>
      <trkpt lat="43.3756" lon="2.23114">
        <ele>638.6</ele>
        <time>2019-08-11T07:44:53.000Z</time>
      </trkpt>
      <trkpt lat="43.37559" lon="2.23117">
        <ele>638.4</ele>
        <time>2019-08-11T07:44:54.000Z</time>
      </trkpt>
      <trkpt lat="43.37558" lon="2.2312">
        <ele>638.3</ele>
        <time>2019-08-11T07:44:55.000Z</time>
      </trkpt>
      <trkpt lat="43.37557" lon="2.23123">
        <ele>638.1</ele>
        <time>2019-08-11T07:44:56.000Z</time>
      </trkpt>
      <trkpt lat="43.37555" lon="2.23126">
        <ele>637.9</ele>
        <time>2019-08-11T07:44:57.000Z</time>
      </trkpt>
      <trkpt lat="43.37554" lon="2.2313">
        <ele>637.8</ele>
        <time>2019-08-11T07:44:58.000Z</time>
      </trkpt>
      <trkpt lat="43.37553" lon="2.23133">
        <ele>637.6</ele>
        <time>2019-08-11T07:44:59.000Z</time>
      </trkpt>
      <trkpt lat="43.37552" lon="2.23136">
        <ele>637.5</ele>
        <time>2019-08-11T07:45:00.000Z</time>
      </trkpt>
      <trkpt lat="43.37551" lon="2.2314">
        <ele>637.3</ele>
        <time>2019-08-11T07:45:01.000Z</time>
      </trkpt>
      <trkpt lat="43.3755" lon="2.23143">
        <ele>637.1</ele>
        <time>2019-08-11T07:45:02.000Z</time>
      </trkpt>
      <trkpt lat="43.37549" lon="2.23147">
        <ele>637</ele>
        <time>2019-08-11T07:45:03.000Z</time>
      </trkpt>
      <trkpt lat="43.37548" lon="2.2315">
        <ele>636.8</ele>
        <time>2019-08-11T07:45:04.000Z</time>
      </trkpt>
      <trkpt lat="43.37547" lon="2.23154">
        <ele>636.7</ele>
        <time>2019-08-11T07:45:05.000Z</time>
      </trkpt>
      <trkpt lat="43.37546" lon="2.23157">
        <ele>636.5</ele>
        <time>2019-08-11T07:45:06.000Z</time>
      </trkpt>
      <trkpt lat="43.37544" lon="2.23161">
        <ele>636.3</ele>
        <time>2019-08-11T07:45:07.000Z</time>
      </trkpt>
      <trkpt lat="43.37543" lon="2.23164">
        <ele>636.2</ele>
        <time>2019-08-11T07:45:08.000Z</time>
      </trkpt>
      <trkpt lat="43.37542" lon="2.23168">
        <ele>636</ele>
        <time>2019-08-11T07:45:09.000Z</time>
      </trkpt>
      <trkpt lat="43.3754" lon="2.23171">
        <ele>635.9</ele>
        <time>2019-08-11T07:45:10.000Z</time>
      </trkpt>
      <trkpt lat="43.37539" lon="2.23174">
        <ele>635.7</ele>
        <time>2019-08-11T07:45:11.000Z</time>
      </trkpt>
      <trkpt lat="43.37537" lon="2.23177">
        <ele>635.6</ele>
        <time>2019-08-11T07:45:12.000Z</time>
      </trkpt>
      <trkpt lat="43.37535" lon="2.2318">
        <ele>635.5</ele>
        <time>2019-08-11T07:45:13.000Z</time>
      </trkpt>
      <trkpt lat="43.37534" lon="2.23183">
        <ele>635.4</ele>
        <time>2019-08-11T07:45:14.000Z</time>
      </trkpt>
      <trkpt lat="43.37532" lon="2.23186">
        <ele>635.3</ele>
        <time>2019-08-11T07:45:15.000Z</time>
      </trkpt>
      <trkpt lat="43.3753" lon="2.23189">
        <ele>635.1</ele>
        <time>2019-08-11T07:45:16.000Z</time>
      </trkpt>
      <trkpt lat="43.37528" lon="2.23192">
        <ele>635</ele>
        <time>2019-08-11T07:45:17.000Z</time>
      </trkpt>
      <trkpt lat="43.37526" lon="2.23195">
        <ele>634.9</ele>
        <time>2019-08-11T07:45:18.000Z</time>
      </trkpt>
      <trkpt lat="43.37524" lon="2.23197">
        <ele>634.8</ele>
        <time>2019-08-11T07:45:19.000Z</time>
      </trkpt>
      <trkpt lat="43.37522" lon="2.23199">
        <ele>634.7</ele>
        <time>2019-08-11T07:45:20.000Z</time>
      </trkpt>
      <trkpt lat="43.3752" lon="2.232">
        <ele>634.6</ele>
        <time>2019-08-11T07:45:21.000Z</time>
      </trkpt>
      <trkpt lat="43.37518" lon="2.23201">
        <ele>634.4</ele>
        <time>2019-08-11T07:45:22.000Z</time>
      </trkpt>
      <trkpt lat="43.37516" lon="2.232">
        <ele>634.3</ele>
        <time>2019-08-11T07:45:23.000Z</time>
      </trkpt>
      <trkpt lat="43.37514" lon="2.232">
        <ele>634.2</ele>
        <time>2019-08-11T07:45:24.000Z</time>
      </trkpt>
      <trkpt lat="43.37513" lon="2.23199">
        <ele>634.1</ele>
        <time>2019-08-11T07:45:25.000Z</time>
      </trkpt>
      <trkpt lat="43.37511" lon="2.232">
        <ele>634</ele>
        <time>2019-08-11T07:45:26.000Z</time>
      </trkpt>
      <trkpt lat="43.37509" lon="2.23201">
        <ele>633.9</ele>
        <time>2019-08-11T07:45:27.000Z</time>
      </trkpt>
      <trkpt lat="43.37508" lon="2.23203">
        <ele>633.9</ele>
        <time>2019-08-11T07:45:28.000Z</time>
      </trkpt>
      <trkpt lat="43.37506" lon="2.23205">
        <ele>633.8</ele>
        <time>2019-08-11T07:45:29.000Z</time>
      </trkpt>
      <trkpt lat="43.37505" lon="2.23208">
        <ele>633.8</ele>
        <time>2019-08-11T07:45:30.000Z</time>
      </trkpt>
      <trkpt lat="43.37504" lon="2.2321">
        <ele>633.7</ele>
        <time>2019-08-11T07:45:31.000Z</time>
      </trkpt>
      <trkpt lat="43.37502" lon="2.23213">
        <ele>633.7</ele>
        <time>2019-08-11T07:45:32.000Z</time>
      </trkpt>
      <trkpt lat="43.37501" lon="2.23216">
        <ele>633.6</ele>
        <time>2019-08-11T07:45:33.000Z</time>
      </trkpt>
      <trkpt lat="43.375" lon="2.23219">
        <ele>633.6</ele>
        <time>2019-08-11T07:45:34.000Z</time>
      </trkpt>
      <trkpt lat="43.37499" lon="2.23221">
        <ele>633.6</ele>
        <time>2019-08-11T07:45:35.000Z</time>
      </trkpt>
      <trkpt lat="43.37498" lon="2.23224">
        <ele>633.4</ele>
        <time>2019-08-11T07:45:36.000Z</time>
      </trkpt>
      <trkpt lat="43.37497" lon="2.23228">
        <ele>633.3</ele>
        <time>2019-08-11T07:45:37.000Z</time>
      </trkpt>
      <trkpt lat="43.37496" lon="2.23231">
        <ele>633.1</ele>
        <time>2019-08-11T07:45:38.000Z</time>
      </trkpt>
      <trkpt lat="43.37494" lon="2.23234">
        <ele>632.9</ele>
        <time>2019-08-11T07:45:39.000Z</time>
      </trkpt>
      <trkpt lat="43.37493" lon="2.23238">
        <ele>632.7</ele>
        <time>2019-08-11T07:45:40.000Z</time>
      </trkpt>
      <trkpt lat="43.37491" lon="2.23241">
        <ele>632.5</ele>
        <time>2019-08-11T07:45:41.000Z</time>
      </trkpt>
      <trkpt lat="43.37489" lon="2.23245">
        <ele>632.3</ele>
        <time>2019-08-11T07:45:42.000Z</time>
      </trkpt>
      <trkpt lat="43.37488" lon="2.23248">
        <ele>632</ele>
        <time>2019-08-11T07:45:43.000Z</time>
      </trkpt>
      <trkpt lat="43.37486" lon="2.23251">
        <ele>631.7</ele>
        <time>2019-08-11T07:45:44.000Z</time>
      </trkpt>
      <trkpt lat="43.37485" lon="2.23254">
        <ele>631.4</ele>
        <time>2019-08-11T07:45:45.000Z</time>
      </trkpt>
      <trkpt lat="43.37483" lon="2.23257">
        <ele>631</ele>
        <time>2019-08-11T07:45:46.000Z</time>
      </trkpt>
      <trkpt lat="43.37482" lon="2.2326">
        <ele>630.7</ele>
        <time>2019-08-11T07:45:47.000Z</time>
      </trkpt>
      <trkpt lat="43.37481" lon="2.23263">
        <ele>630.4</ele>
        <time>2019-08-11T07:45:48.000Z</time>
      </trkpt>
      <trkpt lat="43.3748" lon="2.23266">
        <ele>630.1</ele>
        <time>2019-08-11T07:45:49.000Z</time>
      </trkpt>
      <trkpt lat="43.37479" lon="2.23269">
        <ele>629.8</ele>
        <time>2019-08-11T07:45:50.000Z</time>
      </trkpt>
      <trkpt lat="43.37478" lon="2.23272">
        <ele>629.5</ele>
        <time>2019-08-11T07:45:51.000Z</time>
      </trkpt>
      <trkpt lat="43.37476" lon="2.23275">
        <ele>629.2</ele>
        <time>2019-08-11T07:45:52.000Z</time>
      </trkpt>
      <trkpt lat="43.37475" lon="2.23279">
        <ele>628.9</ele>
        <time>2019-08-11T07:45:53.000Z</time>
      </trkpt>
      <trkpt lat="43.37474" lon="2.23282">
        <ele>628.5</ele>
        <time>2019-08-11T07:45:54.000Z</time>
      </trkpt>
      <trkpt lat="43.37473" lon="2.23286">
        <ele>628.2</ele>
        <time>2019-08-11T07:45:55.000Z</time>
      </trkpt>
      <trkpt lat="43.37472" lon="2.23289">
        <ele>627.8</ele>
        <time>2019-08-11T07:45:56.000Z</time>
      </trkpt>
      <trkpt lat="43.3747" lon="2.23293">
        <ele>627.5</ele>
        <time>2019-08-11T07:45:57.000Z</time>
      </trkpt>
      <trkpt lat="43.37469" lon="2.23295">
        <ele>627.2</ele>
        <time>2019-08-11T07:45:58.000Z</time>
      </trkpt>
      <trkpt lat="43.37468" lon="2.23298">
        <ele>626.9</ele>
        <time>2019-08-11T07:45:59.000Z</time>
      </trkpt>
      <trkpt lat="43.37466" lon="2.233">
        <ele>626.6</ele>
        <time>2019-08-11T07:46:00.000Z</time>
      </trkpt>
      <trkpt lat="43.37465" lon="2.23302">
        <ele>626.2</ele>
        <time>2019-08-11T07:46:01.000Z</time>
      </trkpt>
      <trkpt lat="43.37463" lon="2.23304">
        <ele>625.9</ele>
        <time>2019-08-11T07:46:02.000Z</time>
      </trkpt>
      <trkpt lat="43.37462" lon="2.23306">
        <ele>625.6</ele>
        <time>2019-08-11T07:46:03.000Z</time>
      </trkpt>
      <trkpt lat="43.3746" lon="2.23308">
        <ele>625.3</ele>
        <time>2019-08-11T07:46:04.000Z</time>
      </trkpt>
      <trkpt lat="43.37459" lon="2.2331">
        <ele>625</ele>
        <time>2019-08-11T07:46:05.000Z</time>
      </trkpt>
      <trkpt lat="43.37457" lon="2.23312">
        <ele>624.7</ele>
        <time>2019-08-11T07:46:06.000Z</time>
      </trkpt>
      <trkpt lat="43.37455" lon="2.23314">
        <ele>624.3</ele>
        <time>2019-08-11T07:46:07.000Z</time>
      </trkpt>
      <trkpt lat="43.37454" lon="2.23316">
        <ele>624.1</ele>
        <time>2019-08-11T07:46:08.000Z</time>
      </trkpt>
      <trkpt lat="43.37453" lon="2.23318">
        <ele>623.8</ele>
        <time>2019-08-11T07:46:09.000Z</time>
      </trkpt>
      <trkpt lat="43.37452" lon="2.23319">
        <ele>623.7</ele>
        <time>2019-08-11T07:46:10.000Z</time>
      </trkpt>
      <trkpt lat="43.37452" lon="2.2332">
        <ele>623.6</ele>
        <time>2019-08-11T07:46:11.000Z</time>
      </trkpt>
      <trkpt lat="43.37452" lon="2.2332">
        <ele>623.5</ele>
        <time>2019-08-11T07:46:12.000Z</time>
      </trkpt>
      <trkpt lat="43.37451" lon="2.23321">
        <ele>623.5</ele>
        <time>2019-08-11T07:46:13.000Z</time>
      </trkpt>
      <trkpt lat="43.37451" lon="2.23321">
        <ele>623.5</ele>
        <time>2019-08-11T07:46:14.000Z</time>
      </trkpt>
      <trkpt lat="43.37451" lon="2.23321">
        <ele>623.5</ele>
        <time>2019-08-11T07:46:15.000Z</time>
      </trkpt>
      <trkpt lat="43.37451" lon="2.23321">
        <ele>623.5</ele>
        <time>2019-08-11T07:46:16.000Z</time>
      </trkpt>
      <trkpt lat="43.37451" lon="2.23321">
        <ele>623.5</ele>
        <time>2019-08-11T07:46:17.000Z</time>
      </trkpt>
      <trkpt lat="43.37451" lon="2.23321">
        <ele>623.5</ele>
        <time>2019-08-11T07:46:18.000Z</time>
      </trkpt>
      <trkpt lat="43.37451" lon="2.23321">
        <ele>623.5</ele>
        <time>2019-08-11T07:46:19.000Z</time>
      </trkpt>
      <trkpt lat="43.37451" lon="2.23321">
        <ele>623.5</ele>
        <time>2019-08-11T07:46:20.000Z</time>
      </trkpt>
      <trkpt lat="43.37451" lon="2.23321">
        <ele>623.5</ele>
        <time>2019-08-11T07:46:21.000Z</time>
      </trkpt>
      <trkpt lat="43.37451" lon="2.23321">
        <ele>623.5</ele>
        <time>2019-08-11T07:46:22.000Z</time>
      </trkpt>
      <trkpt lat="43.37451" lon="2.23321">
        <ele>623.5</ele>
        <time>2019-08-11T07:46:23.000Z</time>
      </trkpt>
      <trkpt lat="43.37451" lon="2.23321">
        <ele>623.5</ele>
        <time>2019-08-11T07:46:24.000Z</time>
      </trkpt>
      <trkpt lat="43.37451" lon="2.23321">
        <ele>623.5</ele>
        <time>2019-08-11T07:46:25.000Z</time>
      </trkpt>
      <trkpt lat="43.37451" lon="2.23321">
        <ele>623.5</ele>
        <time>2019-08-11T07:46:26.000Z</time>
      </trkpt>
      <trkpt lat="43.37451" lon="2.23321">
        <ele>623.5</ele>
        <time>2019-08-11T07:46:27.000Z</time>
      </trkpt>
      <trkpt lat="43.37451" lon="2.23321">
        <ele>623.5</ele>
        <time>2019-08-11T07:46:28.000Z</time>
      </trkpt>
      <trkpt lat="43.37451" lon="2.23321">
        <ele>623.5</ele>
        <time>2019-08-11T07:46:29.000Z</time>
      </trkpt>
      <trkpt lat="43.37451" lon="2.23321">
        <ele>623.5</ele>
        <time>2019-08-11T07:46:30.000Z</time>
      </trkpt>
      <trkpt lat="43.37451" lon="2.23321">
        <ele>623.5</ele>
        <time>2019-08-11T07:46:31.000Z</time>
      </trkpt>
      <trkpt lat="43.37451" lon="2.23321">
        <ele>623.5</ele>
        <time>2019-08-11T07:46:32.000Z</time>
      </trkpt>
      <trkpt lat="43.37451" lon="2.23321">
        <ele>623.4</ele>
        <time>2019-08-11T07:46:33.000Z</time>
      </trkpt>
      <trkpt lat="43.37451" lon="2.23321">
        <ele>623.4</ele>
        <time>2019-08-11T07:46:34.000Z</time>
      </trkpt>
      <trkpt lat="43.37451" lon="2.23321">
        <ele>623.4</ele>
        <time>2019-08-11T07:46:35.000Z</time>
      </trkpt>
      <trkpt lat="43.3745" lon="2.23321">
        <ele>623.3</ele>
        <time>2019-08-11T07:46:36.000Z</time>
      </trkpt>
      <trkpt lat="43.3745" lon="2.23322">
        <ele>623.3</ele>
        <time>2019-08-11T07:46:37.000Z</time>
      </trkpt>
      <trkpt lat="43.3745" lon="2.23322">
        <ele>623.2</ele>
        <time>2019-08-11T07:46:38.000Z</time>
      </trkpt>
      <trkpt lat="43.3745" lon="2.23323">
        <ele>623.2</ele>
        <time>2019-08-11T07:46:39.000Z</time>
      </trkpt>
      <trkpt lat="43.3745" lon="2.23324">
        <ele>623.2</ele>
        <time>2019-08-11T07:46:40.000Z</time>
      </trkpt>
      <trkpt lat="43.3745" lon="2.23325">
        <ele>623.1</ele>
        <time>2019-08-11T07:46:41.000Z</time>
      </trkpt>
      <trkpt lat="43.3745" lon="2.23326">
        <ele>623.1</ele>
        <time>2019-08-11T07:46:42.000Z</time>
      </trkpt>
      <trkpt lat="43.37451" lon="2.23328">
        <ele>623.1</ele>
        <time>2019-08-11T07:46:43.000Z</time>
      </trkpt>
      <trkpt lat="43.37451" lon="2.23329">
        <ele>623.1</ele>
        <time>2019-08-11T07:46:44.000Z</time>
      </trkpt>
      <trkpt lat="43.37451" lon="2.2333">
        <ele>623.1</ele>
        <time>2019-08-11T07:46:45.000Z</time>
      </trkpt>
      <trkpt lat="43.37452" lon="2.23331">
        <ele>623.1</ele>
        <time>2019-08-11T07:46:46.000Z</time>
      </trkpt>
      <trkpt lat="43.37452" lon="2.23332">
        <ele>623.1</ele>
        <time>2019-08-11T07:46:47.000Z</time>
      </trkpt>
      <trkpt lat="43.37452" lon="2.23334">
        <ele>623.1</ele>
        <time>2019-08-11T07:46:48.000Z</time>
      </trkpt>
      <trkpt lat="43.37452" lon="2.23335">
        <ele>623.1</ele>
        <time>2019-08-11T07:46:49.000Z</time>
      </trkpt>
      <trkpt lat="43.37452" lon="2.23336">
        <ele>623.2</ele>
        <time>2019-08-11T07:46:50.000Z</time>
      </trkpt>
      <trkpt lat="43.37453" lon="2.23337">
        <ele>623.2</ele>
        <time>2019-08-11T07:46:51.000Z</time>
      </trkpt>
      <trkpt lat="43.37453" lon="2.23338">
        <ele>623.2</ele>
        <time>2019-08-11T07:46:52.000Z</time>
      </trkpt>
      <trkpt lat="43.37453" lon="2.23339">
        <ele>623.3</ele>
        <time>2019-08-11T07:46:53.000Z</time>
      </trkpt>
      <trkpt lat="43.37453" lon="2.2334">
        <ele>623.3</ele>
        <time>2019-08-11T07:46:54.000Z</time>
      </trkpt>
      <trkpt lat="43.37453" lon="2.23342">
        <ele>623.4</ele>
        <time>2019-08-11T07:46:55.000Z</time>
      </trkpt>
      <trkpt lat="43.37454" lon="2.23343">
        <ele>623.5</ele>
        <time>2019-08-11T07:46:56.000Z</time>
      </trkpt>
      <trkpt lat="43.37454" lon="2.23345">
        <ele>623.6</ele>
        <time>2019-08-11T07:46:57.000Z</time>
      </trkpt>
      <trkpt lat="43.37455" lon="2.23347">
        <ele>623.7</ele>
        <time>2019-08-11T07:46:58.000Z</time>
      </trkpt>
      <trkpt lat="43.37455" lon="2.23349">
        <ele>623.8</ele>
        <time>2019-08-11T07:46:59.000Z</time>
      </trkpt>
      <trkpt lat="43.37456" lon="2.23351">
        <ele>623.9</ele>
        <time>2019-08-11T07:47:00.000Z</time>
      </trkpt>
      <trkpt lat="43.37456" lon="2.23352">
        <ele>624</ele>
        <time>2019-08-11T07:47:01.000Z</time>
      </trkpt>
      <trkpt lat="43.37457" lon="2.23354">
        <ele>624</ele>
        <time>2019-08-11T07:47:02.000Z</time>
      </trkpt>
      <trkpt lat="43.37457" lon="2.23355">
        <ele>624.1</ele>
        <time>2019-08-11T07:47:03.000Z</time>
      </trkpt>
      <trkpt lat="43.37458" lon="2.23357">
        <ele>624.2</ele>
        <time>2019-08-11T07:47:04.000Z</time>
      </trkpt>
      <trkpt lat="43.37458" lon="2.23358">
        <ele>624.3</ele>
        <time>2019-08-11T07:47:05.000Z</time>
      </trkpt>
      <trkpt lat="43.37458" lon="2.2336">
        <ele>624.3</ele>
        <time>2019-08-11T07:47:06.000Z</time>
      </trkpt>
      <trkpt lat="43.37459" lon="2.23361">
        <ele>624.4</ele>
        <time>2019-08-11T07:47:07.000Z</time>
      </trkpt>
      <trkpt lat="43.37459" lon="2.23363">
        <ele>624.4</ele>
        <time>2019-08-11T07:47:08.000Z</time>
      </trkpt>
      <trkpt lat="43.37459" lon="2.23365">
        <ele>624.5</ele>
        <time>2019-08-11T07:47:09.000Z</time>
      </trkpt>
      <trkpt lat="43.3746" lon="2.23367">
        <ele>624.6</ele>
        <time>2019-08-11T07:47:10.000Z</time>
      </trkpt>
      <trkpt lat="43.3746" lon="2.23369">
        <ele>624.6</ele>
        <time>2019-08-11T07:47:11.000Z</time>
      </trkpt>
      <trkpt lat="43.37461" lon="2.23372">
        <ele>624.7</ele>
        <time>2019-08-11T07:47:12.000Z</time>
      </trkpt>
      <trkpt lat="43.37461" lon="2.23374">
        <ele>624.8</ele>
        <time>2019-08-11T07:47:13.000Z</time>
      </trkpt>
      <trkpt lat="43.37462" lon="2.23377">
        <ele>625</ele>
        <time>2019-08-11T07:47:14.000Z</time>
      </trkpt>
      <trkpt lat="43.37463" lon="2.23379">
        <ele>625.1</ele>
        <time>2019-08-11T07:47:15.000Z</time>
      </trkpt>
      <trkpt lat="43.37464" lon="2.23382">
        <ele>625.2</ele>
        <time>2019-08-11T07:47:16.000Z</time>
      </trkpt>
      <trkpt lat="43.37465" lon="2.23386">
        <ele>625.3</ele>
        <time>2019-08-11T07:47:17.000Z</time>
      </trkpt>
      <trkpt lat="43.37465" lon="2.23389">
        <ele>625.4</ele>
        <time>2019-08-11T07:47:18.000Z</time>
      </trkpt>
      <trkpt lat="43.37466" lon="2.23393">
        <ele>625.6</ele>
        <time>2019-08-11T07:47:19.000Z</time>
      </trkpt>
      <trkpt lat="43.37467" lon="2.23397">
        <ele>625.6</ele>
        <time>2019-08-11T07:47:20.000Z</time>
      </trkpt>
      <trkpt lat="43.37467" lon="2.23401">
        <ele>625.8</ele>
        <time>2019-08-11T07:47:21.000Z</time>
      </trkpt>
      <trkpt lat="43.37468" lon="2.23405">
        <ele>625.9</ele>
        <time>2019-08-11T07:47:22.000Z</time>
      </trkpt>
      <trkpt lat="43.37469" lon="2.23409">
        <ele>626</ele>
        <time>2019-08-11T07:47:23.000Z</time>
      </trkpt>
      <trkpt lat="43.3747" lon="2.23413">
        <ele>626.1</ele>
        <time>2019-08-11T07:47:24.000Z</time>
      </trkpt>
      <trkpt lat="43.37471" lon="2.23416">
        <ele>626.2</ele>
        <time>2019-08-11T07:47:25.000Z</time>
      </trkpt>
      <trkpt lat="43.37472" lon="2.2342">
        <ele>625.9</ele>
        <time>2019-08-11T07:47:26.000Z</time>
      </trkpt>
      <trkpt lat="43.37472" lon="2.23424">
        <ele>625.6</ele>
        <time>2019-08-11T07:47:27.000Z</time>
      </trkpt>
      <trkpt lat="43.37473" lon="2.23428">
        <ele>625.3</ele>
        <time>2019-08-11T07:47:28.000Z</time>
      </trkpt>
      <trkpt lat="43.37474" lon="2.23431">
        <ele>625</ele>
        <time>2019-08-11T07:47:29.000Z</time>
      </trkpt>
      <trkpt lat="43.37475" lon="2.23435">
        <ele>624.7</ele>
        <time>2019-08-11T07:47:30.000Z</time>
      </trkpt>
      <trkpt lat="43.37476" lon="2.23439">
        <ele>624.4</ele>
        <time>2019-08-11T07:47:31.000Z</time>
      </trkpt>
      <trkpt lat="43.37477" lon="2.23442">
        <ele>624.2</ele>
        <time>2019-08-11T07:47:32.000Z</time>
      </trkpt>
      <trkpt lat="43.37478" lon="2.23446">
        <ele>623.9</ele>
        <time>2019-08-11T07:47:33.000Z</time>
      </trkpt>
      <trkpt lat="43.37479" lon="2.23449">
        <ele>623.6</ele>
        <time>2019-08-11T07:47:34.000Z</time>
      </trkpt>
      <trkpt lat="43.3748" lon="2.23452">
        <ele>623.4</ele>
        <time>2019-08-11T07:47:35.000Z</time>
      </trkpt>
      <trkpt lat="43.37481" lon="2.23455">
        <ele>623.1</ele>
        <time>2019-08-11T07:47:36.000Z</time>
      </trkpt>
      <trkpt lat="43.37482" lon="2.23458">
        <ele>622.9</ele>
        <time>2019-08-11T07:47:37.000Z</time>
      </trkpt>
      <trkpt lat="43.37483" lon="2.23462">
        <ele>622.6</ele>
        <time>2019-08-11T07:47:38.000Z</time>
      </trkpt>
      <trkpt lat="43.37483" lon="2.23465">
        <ele>622.4</ele>
        <time>2019-08-11T07:47:39.000Z</time>
      </trkpt>
      <trkpt lat="43.37484" lon="2.23468">
        <ele>622.1</ele>
        <time>2019-08-11T07:47:40.000Z</time>
      </trkpt>
      <trkpt lat="43.37485" lon="2.23471">
        <ele>621.8</ele>
        <time>2019-08-11T07:47:41.000Z</time>
      </trkpt>
      <trkpt lat="43.37486" lon="2.23474">
        <ele>621.6</ele>
        <time>2019-08-11T07:47:42.000Z</time>
      </trkpt>
      <trkpt lat="43.37487" lon="2.23477">
        <ele>621.3</ele>
        <time>2019-08-11T07:47:43.000Z</time>
      </trkpt>
      <trkpt lat="43.37488" lon="2.23481">
        <ele>621</ele>
        <time>2019-08-11T07:47:44.000Z</time>
      </trkpt>
      <trkpt lat="43.37489" lon="2.23485">
        <ele>620.7</ele>
        <time>2019-08-11T07:47:45.000Z</time>
      </trkpt>
      <trkpt lat="43.3749" lon="2.23489">
        <ele>620.4</ele>
        <time>2019-08-11T07:47:46.000Z</time>
      </trkpt>
      <trkpt lat="43.37491" lon="2.23492">
        <ele>620.1</ele>
        <time>2019-08-11T07:47:47.000Z</time>
      </trkpt>
      <trkpt lat="43.37492" lon="2.23496">
        <ele>619.8</ele>
        <time>2019-08-11T07:47:48.000Z</time>
      </trkpt>
      <trkpt lat="43.37493" lon="2.235">
        <ele>619.4</ele>
        <time>2019-08-11T07:47:49.000Z</time>
      </trkpt>
      <trkpt lat="43.37494" lon="2.23504">
        <ele>619.3</ele>
        <time>2019-08-11T07:47:50.000Z</time>
      </trkpt>
      <trkpt lat="43.37495" lon="2.23507">
        <ele>619.1</ele>
        <time>2019-08-11T07:47:51.000Z</time>
      </trkpt>
      <trkpt lat="43.37496" lon="2.23511">
        <ele>619</ele>
        <time>2019-08-11T07:47:52.000Z</time>
      </trkpt>
      <trkpt lat="43.37497" lon="2.23514">
        <ele>618.8</ele>
        <time>2019-08-11T07:47:53.000Z</time>
      </trkpt>
      <trkpt lat="43.37498" lon="2.23517">
        <ele>618.7</ele>
        <time>2019-08-11T07:47:54.000Z</time>
      </trkpt>
      <trkpt lat="43.37499" lon="2.2352">
        <ele>618.5</ele>
        <time>2019-08-11T07:47:55.000Z</time>
      </trkpt>
      <trkpt lat="43.375" lon="2.23524">
        <ele>618.3</ele>
        <time>2019-08-11T07:47:56.000Z</time>
      </trkpt>
      <trkpt lat="43.37501" lon="2.23527">
        <ele>618.3</ele>
        <time>2019-08-11T07:47:57.000Z</time>
      </trkpt>
      <trkpt lat="43.37502" lon="2.2353">
        <ele>618.1</ele>
        <time>2019-08-11T07:47:58.000Z</time>
      </trkpt>
      <trkpt lat="43.37502" lon="2.23534">
        <ele>617.9</ele>
        <time>2019-08-11T07:47:59.000Z</time>
      </trkpt>
      <trkpt lat="43.37502" lon="2.23538">
        <ele>617.7</ele>
        <time>2019-08-11T07:48:00.000Z</time>
      </trkpt>
      <trkpt lat="43.37502" lon="2.23542">
        <ele>617.4</ele>
        <time>2019-08-11T07:48:01.000Z</time>
      </trkpt>
      <trkpt lat="43.37502" lon="2.23546">
        <ele>617.1</ele>
        <time>2019-08-11T07:48:02.000Z</time>
      </trkpt>
      <trkpt lat="43.37502" lon="2.23551">
        <ele>616.7</ele>
        <time>2019-08-11T07:48:03.000Z</time>
      </trkpt>
      <trkpt lat="43.37502" lon="2.23555">
        <ele>616.4</ele>
        <time>2019-08-11T07:48:04.000Z</time>
      </trkpt>
      <trkpt lat="43.37501" lon="2.23559">
        <ele>616</ele>
        <time>2019-08-11T07:48:05.000Z</time>
      </trkpt>
      <trkpt lat="43.37501" lon="2.23564">
        <ele>615.6</ele>
        <time>2019-08-11T07:48:06.000Z</time>
      </trkpt>
      <trkpt lat="43.375" lon="2.23568">
        <ele>615.2</ele>
        <time>2019-08-11T07:48:07.000Z</time>
      </trkpt>
      <trkpt lat="43.37499" lon="2.23572">
        <ele>614.8</ele>
        <time>2019-08-11T07:48:08.000Z</time>
      </trkpt>
      <trkpt lat="43.37499" lon="2.23576">
        <ele>614.6</ele>
        <time>2019-08-11T07:48:09.000Z</time>
      </trkpt>
      <trkpt lat="43.37497" lon="2.23579">
        <ele>614.4</ele>
        <time>2019-08-11T07:48:10.000Z</time>
      </trkpt>
      <trkpt lat="43.37496" lon="2.23583">
        <ele>614.2</ele>
        <time>2019-08-11T07:48:11.000Z</time>
      </trkpt>
      <trkpt lat="43.37495" lon="2.23586">
        <ele>614.3</ele>
        <time>2019-08-11T07:48:12.000Z</time>
      </trkpt>
      <trkpt lat="43.37493" lon="2.23589">
        <ele>614.4</ele>
        <time>2019-08-11T07:48:13.000Z</time>
      </trkpt>
      <trkpt lat="43.37491" lon="2.23592">
        <ele>614.6</ele>
        <time>2019-08-11T07:48:14.000Z</time>
      </trkpt>
      <trkpt lat="43.3749" lon="2.23595">
        <ele>614.7</ele>
        <time>2019-08-11T07:48:15.000Z</time>
      </trkpt>
      <trkpt lat="43.37488" lon="2.23598">
        <ele>614.9</ele>
        <time>2019-08-11T07:48:16.000Z</time>
      </trkpt>
      <trkpt lat="43.37486" lon="2.23601">
        <ele>615</ele>
        <time>2019-08-11T07:48:17.000Z</time>
      </trkpt>
      <trkpt lat="43.37484" lon="2.23603">
        <ele>615.2</ele>
        <time>2019-08-11T07:48:18.000Z</time>
      </trkpt>
      <trkpt lat="43.37482" lon="2.23606">
        <ele>615.4</ele>
        <time>2019-08-11T07:48:19.000Z</time>
      </trkpt>
      <trkpt lat="43.3748" lon="2.23608">
        <ele>615.6</ele>
        <time>2019-08-11T07:48:20.000Z</time>
      </trkpt>
      <trkpt lat="43.37478" lon="2.23611">
        <ele>615.7</ele>
        <time>2019-08-11T07:48:21.000Z</time>
      </trkpt>
      <trkpt lat="43.37476" lon="2.23613">
        <ele>615.9</ele>
        <time>2019-08-11T07:48:22.000Z</time>
      </trkpt>
      <trkpt lat="43.37474" lon="2.23616">
        <ele>616.1</ele>
        <time>2019-08-11T07:48:23.000Z</time>
      </trkpt>
      <trkpt lat="43.37472" lon="2.23618">
        <ele>616.3</ele>
        <time>2019-08-11T07:48:24.000Z</time>
      </trkpt>
      <trkpt lat="43.37471" lon="2.2362">
        <ele>616.5</ele>
        <time>2019-08-11T07:48:25.000Z</time>
      </trkpt>
      <trkpt lat="43.37469" lon="2.23623">
        <ele>616.7</ele>
        <time>2019-08-11T07:48:26.000Z</time>
      </trkpt>
      <trkpt lat="43.37467" lon="2.23625">
        <ele>616.9</ele>
        <time>2019-08-11T07:48:27.000Z</time>
      </trkpt>
      <trkpt lat="43.37465" lon="2.23627">
        <ele>617.1</ele>
        <time>2019-08-11T07:48:28.000Z</time>
      </trkpt>
      <trkpt lat="43.37463" lon="2.23629">
        <ele>617.3</ele>
        <time>2019-08-11T07:48:29.000Z</time>
      </trkpt>
      <trkpt lat="43.37461" lon="2.23632">
        <ele>617.5</ele>
        <time>2019-08-11T07:48:30.000Z</time>
      </trkpt>
      <trkpt lat="43.3746" lon="2.23634">
        <ele>617.7</ele>
        <time>2019-08-11T07:48:31.000Z</time>
      </trkpt>
      <trkpt lat="43.37458" lon="2.23636">
        <ele>617.9</ele>
        <time>2019-08-11T07:48:32.000Z</time>
      </trkpt>
      <trkpt lat="43.37456" lon="2.23638">
        <ele>618.2</ele>
        <time>2019-08-11T07:48:33.000Z</time>
      </trkpt>
      <trkpt lat="43.37454" lon="2.2364">
        <ele>618.4</ele>
        <time>2019-08-11T07:48:34.000Z</time>
      </trkpt>
      <trkpt lat="43.37452" lon="2.23642">
        <ele>618.6</ele>
        <time>2019-08-11T07:48:35.000Z</time>
      </trkpt>
      <trkpt lat="43.37451" lon="2.23644">
        <ele>618.8</ele>
        <time>2019-08-11T07:48:36.000Z</time>
      </trkpt>
      <trkpt lat="43.37449" lon="2.23646">
        <ele>619.1</ele>
        <time>2019-08-11T07:48:37.000Z</time>
      </trkpt>
      <trkpt lat="43.37447" lon="2.23648">
        <ele>619.3</ele>
        <time>2019-08-11T07:48:38.000Z</time>
      </trkpt>
      <trkpt lat="43.37445" lon="2.2365">
        <ele>619.5</ele>
        <time>2019-08-11T07:48:39.000Z</time>
      </trkpt>
      <trkpt lat="43.37443" lon="2.23652">
        <ele>619.8</ele>
        <time>2019-08-11T07:48:40.000Z</time>
      </trkpt>
      <trkpt lat="43.37442" lon="2.23654">
        <ele>620</ele>
        <time>2019-08-11T07:48:41.000Z</time>
      </trkpt>
      <trkpt lat="43.3744" lon="2.23656">
        <ele>620.3</ele>
        <time>2019-08-11T07:48:42.000Z</time>
      </trkpt>
      <trkpt lat="43.37438" lon="2.23659">
        <ele>620.6</ele>
        <time>2019-08-11T07:48:43.000Z</time>
      </trkpt>
      <trkpt lat="43.37436" lon="2.23661">
        <ele>620.8</ele>
        <time>2019-08-11T07:48:44.000Z</time>
      </trkpt>
      <trkpt lat="43.37434" lon="2.23663">
        <ele>621.1</ele>
        <time>2019-08-11T07:48:45.000Z</time>
      </trkpt>
      <trkpt lat="43.37433" lon="2.23665">
        <ele>621.4</ele>
        <time>2019-08-11T07:48:46.000Z</time>
      </trkpt>
      <trkpt lat="43.37431" lon="2.23667">
        <ele>621.7</ele>
        <time>2019-08-11T07:48:47.000Z</time>
      </trkpt>
      <trkpt lat="43.37429" lon="2.23669">
        <ele>621.9</ele>
        <time>2019-08-11T07:48:48.000Z</time>
      </trkpt>
      <trkpt lat="43.37427" lon="2.23671">
        <ele>622.1</ele>
        <time>2019-08-11T07:48:49.000Z</time>
      </trkpt>
      <trkpt lat="43.37425" lon="2.23673">
        <ele>622.2</ele>
        <time>2019-08-11T07:48:50.000Z</time>
      </trkpt>
      <trkpt lat="43.37423" lon="2.23675">
        <ele>622.4</ele>
        <time>2019-08-11T07:48:51.000Z</time>
      </trkpt>
      <trkpt lat="43.37421" lon="2.23677">
        <ele>622.6</ele>
        <time>2019-08-11T07:48:52.000Z</time>
      </trkpt>
      <trkpt lat="43.37419" lon="2.23679">
        <ele>622.8</ele>
        <time>2019-08-11T07:48:53.000Z</time>
      </trkpt>
      <trkpt lat="43.37418" lon="2.23681">
        <ele>622.9</ele>
        <time>2019-08-11T07:48:54.000Z</time>
      </trkpt>
      <trkpt lat="43.37416" lon="2.23683">
        <ele>623.1</ele>
        <time>2019-08-11T07:48:55.000Z</time>
      </trkpt>
      <trkpt lat="43.37414" lon="2.23685">
        <ele>623.3</ele>
        <time>2019-08-11T07:48:56.000Z</time>
      </trkpt>
      <trkpt lat="43.37412" lon="2.23687">
        <ele>623.5</ele>
        <time>2019-08-11T07:48:57.000Z</time>
      </trkpt>
      <trkpt lat="43.3741" lon="2.23689">
        <ele>623.7</ele>
        <time>2019-08-11T07:48:58.000Z</time>
      </trkpt>
      <trkpt lat="43.37408" lon="2.23691">
        <ele>623.9</ele>
        <time>2019-08-11T07:48:59.000Z</time>
      </trkpt>
      <trkpt lat="43.37407" lon="2.23693">
        <ele>624</ele>
        <time>2019-08-11T07:49:00.000Z</time>
      </trkpt>
      <trkpt lat="43.37405" lon="2.23695">
        <ele>624.2</ele>
        <time>2019-08-11T07:49:01.000Z</time>
      </trkpt>
      <trkpt lat="43.37403" lon="2.23697">
        <ele>624.4</ele>
        <time>2019-08-11T07:49:02.000Z</time>
      </trkpt>
      <trkpt lat="43.37401" lon="2.23698">
        <ele>624.6</ele>
        <time>2019-08-11T07:49:03.000Z</time>
      </trkpt>
      <trkpt lat="43.374" lon="2.237">
        <ele>624.8</ele>
        <time>2019-08-11T07:49:04.000Z</time>
      </trkpt>
      <trkpt lat="43.37398" lon="2.23702">
        <ele>624.9</ele>
        <time>2019-08-11T07:49:05.000Z</time>
      </trkpt>
      <trkpt lat="43.37396" lon="2.23704">
        <ele>625.1</ele>
        <time>2019-08-11T07:49:06.000Z</time>
      </trkpt>
      <trkpt lat="43.37394" lon="2.23705">
        <ele>625.3</ele>
        <time>2019-08-11T07:49:07.000Z</time>
      </trkpt>
      <trkpt lat="43.37393" lon="2.23707">
        <ele>625.4</ele>
        <time>2019-08-11T07:49:08.000Z</time>
      </trkpt>
      <trkpt lat="43.37391" lon="2.23708">
        <ele>625.6</ele>
        <time>2019-08-11T07:49:09.000Z</time>
      </trkpt>
      <trkpt lat="43.3739" lon="2.2371">
        <ele>625.7</ele>
        <time>2019-08-11T07:49:10.000Z</time>
      </trkpt>
      <trkpt lat="43.37389" lon="2.2371">
        <ele>625.8</ele>
        <time>2019-08-11T07:49:11.000Z</time>
      </trkpt>
      <trkpt lat="43.37389" lon="2.23711">
        <ele>625.9</ele>
        <time>2019-08-11T07:49:12.000Z</time>
      </trkpt>
      <trkpt lat="43.37388" lon="2.23711">
        <ele>625.9</ele>
        <time>2019-08-11T07:49:13.000Z</time>
      </trkpt>
      <trkpt lat="43.37388" lon="2.23711">
        <ele>625.9</ele>
        <time>2019-08-11T07:49:14.000Z</time>
      </trkpt>
      <trkpt lat="43.37388" lon="2.23711">
        <ele>625.9</ele>
        <time>2019-08-11T07:49:15.000Z</time>
      </trkpt>
      <trkpt lat="43.37388" lon="2.23711">
        <ele>625.9</ele>
        <time>2019-08-11T07:49:16.000Z</time>
      </trkpt>
      <trkpt lat="43.37388" lon="2.23711">
        <ele>625.9</ele>
        <time>2019-08-11T07:49:17.000Z</time>
      </trkpt>
      <trkpt lat="43.37388" lon="2.23711">
        <ele>625.9</ele>
        <time>2019-08-11T07:49:18.000Z</time>
      </trkpt>
      <trkpt lat="43.37388" lon="2.23711">
        <ele>626</ele>
        <time>2019-08-11T07:49:19.000Z</time>
      </trkpt>
      <trkpt lat="43.37388" lon="2.23711">
        <ele>626</ele>
        <time>2019-08-11T07:49:20.000Z</time>
      </trkpt>
      <trkpt lat="43.37387" lon="2.23711">
        <ele>626</ele>
        <time>2019-08-11T07:49:21.000Z</time>
      </trkpt>
      <trkpt lat="43.37387" lon="2.23711">
        <ele>626</ele>
        <time>2019-08-11T07:49:22.000Z</time>
      </trkpt>
      <trkpt lat="43.37387" lon="2.23711">
        <ele>626</ele>
        <time>2019-08-11T07:49:23.000Z</time>
      </trkpt>
      <trkpt lat="43.37387" lon="2.23711">
        <ele>626</ele>
        <time>2019-08-11T07:49:24.000Z</time>
      </trkpt>
      <trkpt lat="43.37387" lon="2.23711">
        <ele>626</ele>
        <time>2019-08-11T07:49:25.000Z</time>
      </trkpt>
      <trkpt lat="43.37387" lon="2.23711">
        <ele>626</ele>
        <time>2019-08-11T07:49:26.000Z</time>
      </trkpt>
      <trkpt lat="43.37387" lon="2.23711">
        <ele>626.1</ele>
        <time>2019-08-11T07:49:27.000Z</time>
      </trkpt>
      <trkpt lat="43.37386" lon="2.2371">
        <ele>626.1</ele>
        <time>2019-08-11T07:49:28.000Z</time>
      </trkpt>
      <trkpt lat="43.37386" lon="2.2371">
        <ele>626.1</ele>
        <time>2019-08-11T07:49:29.000Z</time>
      </trkpt>
      <trkpt lat="43.37386" lon="2.2371">
        <ele>626.1</ele>
        <time>2019-08-11T07:49:30.000Z</time>
      </trkpt>
      <trkpt lat="43.37386" lon="2.2371">
        <ele>626.1</ele>
        <time>2019-08-11T07:49:31.000Z</time>
      </trkpt>
      <trkpt lat="43.37386" lon="2.2371">
        <ele>626.1</ele>
        <time>2019-08-11T07:49:32.000Z</time>
      </trkpt>
      <trkpt lat="43.37386" lon="2.2371">
        <ele>626.1</ele>
        <time>2019-08-11T07:49:33.000Z</time>
      </trkpt>
      <trkpt lat="43.37386" lon="2.2371">
        <ele>626.1</ele>
        <time>2019-08-11T07:49:34.000Z</time>
      </trkpt>
      <trkpt lat="43.37386" lon="2.2371">
        <ele>626.1</ele>
        <time>2019-08-11T07:49:35.000Z</time>
      </trkpt>
      <trkpt lat="43.37386" lon="2.2371">
        <ele>626.1</ele>
        <time>2019-08-11T07:49:36.000Z</time>
      </trkpt>
      <trkpt lat="43.37386" lon="2.2371">
        <ele>626.1</ele>
        <time>2019-08-11T07:49:37.000Z</time>
      </trkpt>
      <trkpt lat="43.37386" lon="2.2371">
        <ele>626.1</ele>
        <time>2019-08-11T07:49:38.000Z</time>
      </trkpt>
      <trkpt lat="43.37386" lon="2.2371">
        <ele>626.1</ele>
        <time>2019-08-11T07:49:39.000Z</time>
      </trkpt>
      <trkpt lat="43.37386" lon="2.2371">
        <ele>626.1</ele>
        <time>2019-08-11T07:49:40.000Z</time>
      </trkpt>
      <trkpt lat="43.37386" lon="2.2371">
        <ele>626.1</ele>
        <time>2019-08-11T07:49:41.000Z</time>
      </trkpt>
      <trkpt lat="43.37386" lon="2.2371">
        <ele>626.1</ele>
        <time>2019-08-11T07:49:42.000Z</time>
      </trkpt>
      <trkpt lat="43.37386" lon="2.2371">
        <ele>626.1</ele>
        <time>2019-08-11T07:49:43.000Z</time>
      </trkpt>
      <trkpt lat="43.37386" lon="2.2371">
        <ele>626.1</ele>
        <time>2019-08-11T07:49:44.000Z</time>
      </trkpt>
      <trkpt lat="43.37386" lon="2.2371">
        <ele>626.1</ele>
        <time>2019-08-11T07:49:45.000Z</time>
      </trkpt>
      <trkpt lat="43.37386" lon="2.2371">
        <ele>626.1</ele>
        <time>2019-08-11T07:49:46.000Z</time>
      </trkpt>
      <trkpt lat="43.37386" lon="2.2371">
        <ele>626.1</ele>
        <time>2019-08-11T07:49:47.000Z</time>
      </trkpt>
      <trkpt lat="43.37386" lon="2.2371">
        <ele>626.1</ele>
        <time>2019-08-11T07:49:48.000Z</time>
      </trkpt>
      <trkpt lat="43.37386" lon="2.2371">
        <ele>626.1</ele>
        <time>2019-08-11T07:49:49.000Z</time>
      </trkpt>
      <trkpt lat="43.37386" lon="2.2371">
        <ele>626.1</ele>
        <time>2019-08-11T07:49:50.000Z</time>
      </trkpt>
      <trkpt lat="43.37386" lon="2.2371">
        <ele>626.1</ele>
        <time>2019-08-11T07:49:51.000Z</time>
      </trkpt>
      <trkpt lat="43.37386" lon="2.2371">
        <ele>626.1</ele>
        <time>2019-08-11T07:49:52.000Z</time>
      </trkpt>
      <trkpt lat="43.37386" lon="2.2371">
        <ele>626.1</ele>
        <time>2019-08-11T07:49:53.000Z</time>
      </trkpt>
      <trkpt lat="43.37386" lon="2.2371">
        <ele>626.1</ele>
        <time>2019-08-11T07:49:54.000Z</time>
      </trkpt>
      <trkpt lat="43.37386" lon="2.2371">
        <ele>626.1</ele>
        <time>2019-08-11T07:49:55.000Z</time>
      </trkpt>
      <trkpt lat="43.37386" lon="2.2371">
        <ele>626.1</ele>
        <time>2019-08-11T07:49:56.000Z</time>
      </trkpt>
      <trkpt lat="43.37386" lon="2.2371">
        <ele>626.1</ele>
        <time>2019-08-11T07:49:57.000Z</time>
      </trkpt>
      <trkpt lat="43.37386" lon="2.2371">
        <ele>626.1</ele>
        <time>2019-08-11T07:49:58.000Z</time>
      </trkpt>
      <trkpt lat="43.37386" lon="2.2371">
        <ele>626.1</ele>
        <time>2019-08-11T07:49:59.000Z</time>
      </trkpt>
      <trkpt lat="43.37386" lon="2.2371">
        <ele>626.2</ele>
        <time>2019-08-11T07:50:00.000Z</time>
      </trkpt>
      <trkpt lat="43.37386" lon="2.2371">
        <ele>626.2</ele>
        <time>2019-08-11T07:50:01.000Z</time>
      </trkpt>
      <trkpt lat="43.37386" lon="2.23709">
        <ele>626.2</ele>
        <time>2019-08-11T07:50:02.000Z</time>
      </trkpt>
      <trkpt lat="43.37385" lon="2.23709">
        <ele>626.2</ele>
        <time>2019-08-11T07:50:03.000Z</time>
      </trkpt>
      <trkpt lat="43.37385" lon="2.23709">
        <ele>626.2</ele>
        <time>2019-08-11T07:50:04.000Z</time>
      </trkpt>
      <trkpt lat="43.37385" lon="2.23708">
        <ele>626.3</ele>
        <time>2019-08-11T07:50:05.000Z</time>
      </trkpt>
      <trkpt lat="43.37384" lon="2.23708">
        <ele>626.3</ele>
        <time>2019-08-11T07:50:06.000Z</time>
      </trkpt>
      <trkpt lat="43.37384" lon="2.23707">
        <ele>626.3</ele>
        <time>2019-08-11T07:50:07.000Z</time>
      </trkpt>
      <trkpt lat="43.37384" lon="2.23707">
        <ele>626.4</ele>
        <time>2019-08-11T07:50:08.000Z</time>
      </trkpt>
      <trkpt lat="43.37383" lon="2.23706">
        <ele>626.4</ele>
        <time>2019-08-11T07:50:09.000Z</time>
      </trkpt>
      <trkpt lat="43.37383" lon="2.23706">
        <ele>626.5</ele>
        <time>2019-08-11T07:50:10.000Z</time>
      </trkpt>
      <trkpt lat="43.37382" lon="2.23705">
        <ele>626.5</ele>
        <time>2019-08-11T07:50:11.000Z</time>
      </trkpt>
      <trkpt lat="43.37382" lon="2.23704">
        <ele>626.6</ele>
        <time>2019-08-11T07:50:12.000Z</time>
      </trkpt>
      <trkpt lat="43.37381" lon="2.23704">
        <ele>626.7</ele>
        <time>2019-08-11T07:50:13.000Z</time>
      </trkpt>
      <trkpt lat="43.3738" lon="2.23703">
        <ele>626.7</ele>
        <time>2019-08-11T07:50:14.000Z</time>
      </trkpt>
      <trkpt lat="43.3738" lon="2.23703">
        <ele>626.8</ele>
        <time>2019-08-11T07:50:15.000Z</time>
      </trkpt>
      <trkpt lat="43.37379" lon="2.23702">
        <ele>626.9</ele>
        <time>2019-08-11T07:50:16.000Z</time>
      </trkpt>
      <trkpt lat="43.37379" lon="2.23702">
        <ele>626.9</ele>
        <time>2019-08-11T07:50:17.000Z</time>
      </trkpt>
      <trkpt lat="43.37378" lon="2.23701">
        <ele>627</ele>
        <time>2019-08-11T07:50:18.000Z</time>
      </trkpt>
      <trkpt lat="43.37378" lon="2.237">
        <ele>627</ele>
        <time>2019-08-11T07:50:19.000Z</time>
      </trkpt>
      <trkpt lat="43.37377" lon="2.23699">
        <ele>627.1</ele>
        <time>2019-08-11T07:50:20.000Z</time>
      </trkpt>
      <trkpt lat="43.37377" lon="2.23697">
        <ele>627.1</ele>
        <time>2019-08-11T07:50:21.000Z</time>
      </trkpt>
      <trkpt lat="43.37376" lon="2.23696">
        <ele>627.2</ele>
        <time>2019-08-11T07:50:22.000Z</time>
      </trkpt>
      <trkpt lat="43.37376" lon="2.23694">
        <ele>627.3</ele>
        <time>2019-08-11T07:50:23.000Z</time>
      </trkpt>
      <trkpt lat="43.37375" lon="2.23692">
        <ele>627.4</ele>
        <time>2019-08-11T07:50:24.000Z</time>
      </trkpt>
      <trkpt lat="43.37374" lon="2.2369">
        <ele>627.5</ele>
        <time>2019-08-11T07:50:25.000Z</time>
      </trkpt>
      <trkpt lat="43.37373" lon="2.23688">
        <ele>627.6</ele>
        <time>2019-08-11T07:50:26.000Z</time>
      </trkpt>
      <trkpt lat="43.37372" lon="2.23686">
        <ele>627.7</ele>
        <time>2019-08-11T07:50:27.000Z</time>
      </trkpt>
      <trkpt lat="43.37371" lon="2.23683">
        <ele>627.8</ele>
        <time>2019-08-11T07:50:28.000Z</time>
      </trkpt>
      <trkpt lat="43.3737" lon="2.23681">
        <ele>628</ele>
        <time>2019-08-11T07:50:29.000Z</time>
      </trkpt>
      <trkpt lat="43.37368" lon="2.23678">
        <ele>628.1</ele>
        <time>2019-08-11T07:50:30.000Z</time>
      </trkpt>
      <trkpt lat="43.37367" lon="2.23676">
        <ele>628.3</ele>
        <time>2019-08-11T07:50:31.000Z</time>
      </trkpt>
      <trkpt lat="43.37366" lon="2.23675">
        <ele>628.5</ele>
        <time>2019-08-11T07:50:32.000Z</time>
      </trkpt>
      <trkpt lat="43.37364" lon="2.23673">
        <ele>628.6</ele>
        <time>2019-08-11T07:50:33.000Z</time>
      </trkpt>
      <trkpt lat="43.37363" lon="2.23672">
        <ele>628.8</ele>
        <time>2019-08-11T07:50:34.000Z</time>
      </trkpt>
      <trkpt lat="43.37361" lon="2.23671">
        <ele>629</ele>
        <time>2019-08-11T07:50:35.000Z</time>
      </trkpt>
      <trkpt lat="43.3736" lon="2.2367">
        <ele>629.1</ele>
        <time>2019-08-11T07:50:36.000Z</time>
      </trkpt>
      <trkpt lat="43.37358" lon="2.23669">
        <ele>629.3</ele>
        <time>2019-08-11T07:50:37.000Z</time>
      </trkpt>
      <trkpt lat="43.37357" lon="2.23668">
        <ele>629.5</ele>
        <time>2019-08-11T07:50:38.000Z</time>
      </trkpt>
      <trkpt lat="43.37355" lon="2.23667">
        <ele>629.6</ele>
        <time>2019-08-11T07:50:39.000Z</time>
      </trkpt>
      <trkpt lat="43.37354" lon="2.23666">
        <ele>629.8</ele>
        <time>2019-08-11T07:50:40.000Z</time>
      </trkpt>
      <trkpt lat="43.37352" lon="2.23665">
        <ele>629.8</ele>
        <time>2019-08-11T07:50:41.000Z</time>
      </trkpt>
      <trkpt lat="43.37351" lon="2.23663">
        <ele>629.8</ele>
        <time>2019-08-11T07:50:42.000Z</time>
      </trkpt>
      <trkpt lat="43.3735" lon="2.23661">
        <ele>629.8</ele>
        <time>2019-08-11T07:50:43.000Z</time>
      </trkpt>
      <trkpt lat="43.37348" lon="2.23659">
        <ele>629.8</ele>
        <time>2019-08-11T07:50:44.000Z</time>
      </trkpt>
      <trkpt lat="43.37347" lon="2.23657">
        <ele>629.8</ele>
        <time>2019-08-11T07:50:45.000Z</time>
      </trkpt>
      <trkpt lat="43.37345" lon="2.23655">
        <ele>629.8</ele>
        <time>2019-08-11T07:50:46.000Z</time>
      </trkpt>
      <trkpt lat="43.37344" lon="2.23653">
        <ele>629.8</ele>
        <time>2019-08-11T07:50:47.000Z</time>
      </trkpt>
      <trkpt lat="43.37342" lon="2.23651">
        <ele>629.8</ele>
        <time>2019-08-11T07:50:48.000Z</time>
      </trkpt>
      <trkpt lat="43.37341" lon="2.23649">
        <ele>629.8</ele>
        <time>2019-08-11T07:50:49.000Z</time>
      </trkpt>
      <trkpt lat="43.37339" lon="2.23648">
        <ele>629.8</ele>
        <time>2019-08-11T07:50:50.000Z</time>
      </trkpt>
      <trkpt lat="43.37338" lon="2.23646">
        <ele>629.8</ele>
        <time>2019-08-11T07:50:51.000Z</time>
      </trkpt>
      <trkpt lat="43.37336" lon="2.23644">
        <ele>629.8</ele>
        <time>2019-08-11T07:50:52.000Z</time>
      </trkpt>
      <trkpt lat="43.37335" lon="2.23643">
        <ele>629.8</ele>
        <time>2019-08-11T07:50:53.000Z</time>
      </trkpt>
      <trkpt lat="43.37333" lon="2.23641">
        <ele>629.8</ele>
        <time>2019-08-11T07:50:54.000Z</time>
      </trkpt>
      <trkpt lat="43.37332" lon="2.2364">
        <ele>629.9</ele>
        <time>2019-08-11T07:50:55.000Z</time>
      </trkpt>
      <trkpt lat="43.3733" lon="2.23638">
        <ele>629.9</ele>
        <time>2019-08-11T07:50:56.000Z</time>
      </trkpt>
      <trkpt lat="43.37329" lon="2.23637">
        <ele>630</ele>
        <time>2019-08-11T07:50:57.000Z</time>
      </trkpt>
      <trkpt lat="43.37327" lon="2.23635">
        <ele>630</ele>
        <time>2019-08-11T07:50:58.000Z</time>
      </trkpt>
      <trkpt lat="43.37325" lon="2.23634">
        <ele>630.1</ele>
        <time>2019-08-11T07:50:59.000Z</time>
      </trkpt>
      <trkpt lat="43.37324" lon="2.23632">
        <ele>630.1</ele>
        <time>2019-08-11T07:51:00.000Z</time>
      </trkpt>
      <trkpt lat="43.37322" lon="2.2363">
        <ele>630.1</ele>
        <time>2019-08-11T07:51:01.000Z</time>
      </trkpt>
      <trkpt lat="43.3732" lon="2.23628">
        <ele>630.2</ele>
        <time>2019-08-11T07:51:02.000Z</time>
      </trkpt>
      <trkpt lat="43.37319" lon="2.23626">
        <ele>630.2</ele>
        <time>2019-08-11T07:51:03.000Z</time>
      </trkpt>
      <trkpt lat="43.37317" lon="2.23624">
        <ele>630.2</ele>
        <time>2019-08-11T07:51:04.000Z</time>
      </trkpt>
      <trkpt lat="43.37315" lon="2.23622">
        <ele>630.2</ele>
        <time>2019-08-11T07:51:05.000Z</time>
      </trkpt>
      <trkpt lat="43.37313" lon="2.23619">
        <ele>630.2</ele>
        <time>2019-08-11T07:51:06.000Z</time>
      </trkpt>
      <trkpt lat="43.37312" lon="2.23617">
        <ele>630.2</ele>
        <time>2019-08-11T07:51:07.000Z</time>
      </trkpt>
      <trkpt lat="43.3731" lon="2.23615">
        <ele>630.2</ele>
        <time>2019-08-11T07:51:08.000Z</time>
      </trkpt>
      <trkpt lat="43.37308" lon="2.23613">
        <ele>630.3</ele>
        <time>2019-08-11T07:51:09.000Z</time>
      </trkpt>
      <trkpt lat="43.37307" lon="2.23611">
        <ele>630.3</ele>
        <time>2019-08-11T07:51:10.000Z</time>
      </trkpt>
      <trkpt lat="43.37305" lon="2.23609">
        <ele>630.3</ele>
        <time>2019-08-11T07:51:11.000Z</time>
      </trkpt>
      <trkpt lat="43.37303" lon="2.23607">
        <ele>630.4</ele>
        <time>2019-08-11T07:51:12.000Z</time>
      </trkpt>
      <trkpt lat="43.37302" lon="2.23605">
        <ele>630.4</ele>
        <time>2019-08-11T07:51:13.000Z</time>
      </trkpt>
      <trkpt lat="43.373" lon="2.23603">
        <ele>630.5</ele>
        <time>2019-08-11T07:51:14.000Z</time>
      </trkpt>
      <trkpt lat="43.37298" lon="2.23602">
        <ele>630.6</ele>
        <time>2019-08-11T07:51:15.000Z</time>
      </trkpt>
      <trkpt lat="43.37297" lon="2.236">
        <ele>630.6</ele>
        <time>2019-08-11T07:51:16.000Z</time>
      </trkpt>
      <trkpt lat="43.37295" lon="2.23598">
        <ele>630.7</ele>
        <time>2019-08-11T07:51:17.000Z</time>
      </trkpt>
      <trkpt lat="43.37293" lon="2.23597">
        <ele>630.8</ele>
        <time>2019-08-11T07:51:18.000Z</time>
      </trkpt>
      <trkpt lat="43.37291" lon="2.23595">
        <ele>631</ele>
        <time>2019-08-11T07:51:19.000Z</time>
      </trkpt>
      <trkpt lat="43.37289" lon="2.23594">
        <ele>631.1</ele>
        <time>2019-08-11T07:51:20.000Z</time>
      </trkpt>
      <trkpt lat="43.37287" lon="2.23592">
        <ele>631.2</ele>
        <time>2019-08-11T07:51:21.000Z</time>
      </trkpt>
      <trkpt lat="43.37285" lon="2.23591">
        <ele>631.4</ele>
        <time>2019-08-11T07:51:22.000Z</time>
      </trkpt>
      <trkpt lat="43.37282" lon="2.23589">
        <ele>631.5</ele>
        <time>2019-08-11T07:51:23.000Z</time>
      </trkpt>
      <trkpt lat="43.3728" lon="2.23588">
        <ele>631.7</ele>
        <time>2019-08-11T07:51:24.000Z</time>
      </trkpt>
      <trkpt lat="43.37278" lon="2.23586">
        <ele>631.9</ele>
        <time>2019-08-11T07:51:25.000Z</time>
      </trkpt>
      <trkpt lat="43.37276" lon="2.23585">
        <ele>632</ele>
        <time>2019-08-11T07:51:26.000Z</time>
      </trkpt>
      <trkpt lat="43.37274" lon="2.23583">
        <ele>632.1</ele>
        <time>2019-08-11T07:51:27.000Z</time>
      </trkpt>
      <trkpt lat="43.37272" lon="2.23582">
        <ele>632.2</ele>
        <time>2019-08-11T07:51:28.000Z</time>
      </trkpt>
      <trkpt lat="43.3727" lon="2.2358">
        <ele>632.2</ele>
        <time>2019-08-11T07:51:29.000Z</time>
      </trkpt>
      <trkpt lat="43.37269" lon="2.23578">
        <ele>632.2</ele>
        <time>2019-08-11T07:51:30.000Z</time>
      </trkpt>
      <trkpt lat="43.37267" lon="2.23576">
        <ele>632.2</ele>
        <time>2019-08-11T07:51:31.000Z</time>
      </trkpt>
      <trkpt lat="43.37265" lon="2.23573">
        <ele>632.2</ele>
        <time>2019-08-11T07:51:32.000Z</time>
      </trkpt>
      <trkpt lat="43.37263" lon="2.23571">
        <ele>632.2</ele>
        <time>2019-08-11T07:51:33.000Z</time>
      </trkpt>
      <trkpt lat="43.37261" lon="2.23568">
        <ele>632.2</ele>
        <time>2019-08-11T07:51:34.000Z</time>
      </trkpt>
      <trkpt lat="43.37259" lon="2.23566">
        <ele>632.2</ele>
        <time>2019-08-11T07:51:35.000Z</time>
      </trkpt>
      <trkpt lat="43.37257" lon="2.23563">
        <ele>632.2</ele>
        <time>2019-08-11T07:51:36.000Z</time>
      </trkpt>
      <trkpt lat="43.37255" lon="2.23561">
        <ele>632.2</ele>
        <time>2019-08-11T07:51:37.000Z</time>
      </trkpt>
      <trkpt lat="43.37253" lon="2.23559">
        <ele>632.2</ele>
        <time>2019-08-11T07:51:38.000Z</time>
      </trkpt>
      <trkpt lat="43.37252" lon="2.23557">
        <ele>632.2</ele>
        <time>2019-08-11T07:51:39.000Z</time>
      </trkpt>
      <trkpt lat="43.37251" lon="2.23555">
        <ele>632.2</ele>
        <time>2019-08-11T07:51:40.000Z</time>
      </trkpt>
      <trkpt lat="43.37249" lon="2.23553">
        <ele>632.2</ele>
        <time>2019-08-11T07:51:41.000Z</time>
      </trkpt>
      <trkpt lat="43.37248" lon="2.23552">
        <ele>632.2</ele>
        <time>2019-08-11T07:51:42.000Z</time>
      </trkpt>
      <trkpt lat="43.37247" lon="2.2355">
        <ele>632.2</ele>
        <time>2019-08-11T07:51:43.000Z</time>
      </trkpt>
      <trkpt lat="43.37246" lon="2.23548">
        <ele>632.2</ele>
        <time>2019-08-11T07:51:44.000Z</time>
      </trkpt>
      <trkpt lat="43.37245" lon="2.23547">
        <ele>632.2</ele>
        <time>2019-08-11T07:51:45.000Z</time>
      </trkpt>
      <trkpt lat="43.37244" lon="2.23546">
        <ele>632.2</ele>
        <time>2019-08-11T07:51:46.000Z</time>
      </trkpt>
      <trkpt lat="43.37242" lon="2.23544">
        <ele>632.3</ele>
        <time>2019-08-11T07:51:47.000Z</time>
      </trkpt>
      <trkpt lat="43.37242" lon="2.23544">
        <ele>632.3</ele>
        <time>2019-08-11T07:51:48.000Z</time>
      </trkpt>
      <trkpt lat="43.37241" lon="2.23543">
        <ele>632.3</ele>
        <time>2019-08-11T07:51:49.000Z</time>
      </trkpt>
      <trkpt lat="43.3724" lon="2.23543">
        <ele>632.3</ele>
        <time>2019-08-11T07:51:50.000Z</time>
      </trkpt>
      <trkpt lat="43.3724" lon="2.23542">
        <ele>632.4</ele>
        <time>2019-08-11T07:51:51.000Z</time>
      </trkpt>
      <trkpt lat="43.37239" lon="2.23541">
        <ele>632.4</ele>
        <time>2019-08-11T07:51:52.000Z</time>
      </trkpt>
      <trkpt lat="43.37238" lon="2.2354">
        <ele>632.4</ele>
        <time>2019-08-11T07:51:53.000Z</time>
      </trkpt>
      <trkpt lat="43.37236" lon="2.23538">
        <ele>632.5</ele>
        <time>2019-08-11T07:51:54.000Z</time>
      </trkpt>
      <trkpt lat="43.37235" lon="2.23537">
        <ele>632.5</ele>
        <time>2019-08-11T07:51:55.000Z</time>
      </trkpt>
      <trkpt lat="43.37234" lon="2.23535">
        <ele>632.5</ele>
        <time>2019-08-11T07:51:56.000Z</time>
      </trkpt>
      <trkpt lat="43.37232" lon="2.23533">
        <ele>632.5</ele>
        <time>2019-08-11T07:51:57.000Z</time>
      </trkpt>
      <trkpt lat="43.37231" lon="2.23531">
        <ele>632.6</ele>
        <time>2019-08-11T07:51:58.000Z</time>
      </trkpt>
      <trkpt lat="43.37229" lon="2.23528">
        <ele>632.6</ele>
        <time>2019-08-11T07:51:59.000Z</time>
      </trkpt>
      <trkpt lat="43.37228" lon="2.23526">
        <ele>632.6</ele>
        <time>2019-08-11T07:52:00.000Z</time>
      </trkpt>
      <trkpt lat="43.37226" lon="2.23524">
        <ele>632.6</ele>
        <time>2019-08-11T07:52:01.000Z</time>
      </trkpt>
      <trkpt lat="43.37224" lon="2.23522">
        <ele>632.6</ele>
        <time>2019-08-11T07:52:02.000Z</time>
      </trkpt>
      <trkpt lat="43.37223" lon="2.23519">
        <ele>632.7</ele>
        <time>2019-08-11T07:52:03.000Z</time>
      </trkpt>
      <trkpt lat="43.37221" lon="2.23518">
        <ele>632.7</ele>
        <time>2019-08-11T07:52:04.000Z</time>
      </trkpt>
      <trkpt lat="43.37219" lon="2.23516">
        <ele>632.8</ele>
        <time>2019-08-11T07:52:05.000Z</time>
      </trkpt>
      <trkpt lat="43.37218" lon="2.23515">
        <ele>632.9</ele>
        <time>2019-08-11T07:52:06.000Z</time>
      </trkpt>
      <trkpt lat="43.37216" lon="2.23513">
        <ele>633</ele>
        <time>2019-08-11T07:52:07.000Z</time>
      </trkpt>
      <trkpt lat="43.37215" lon="2.23511">
        <ele>633</ele>
        <time>2019-08-11T07:52:08.000Z</time>
      </trkpt>
      <trkpt lat="43.37214" lon="2.23509">
        <ele>633</ele>
        <time>2019-08-11T07:52:09.000Z</time>
      </trkpt>
      <trkpt lat="43.37212" lon="2.23507">
        <ele>633</ele>
        <time>2019-08-11T07:52:10.000Z</time>
      </trkpt>
      <trkpt lat="43.37211" lon="2.23505">
        <ele>633</ele>
        <time>2019-08-11T07:52:11.000Z</time>
      </trkpt>
      <trkpt lat="43.3721" lon="2.23503">
        <ele>633.1</ele>
        <time>2019-08-11T07:52:12.000Z</time>
      </trkpt>
      <trkpt lat="43.37208" lon="2.23501">
        <ele>633.1</ele>
        <time>2019-08-11T07:52:13.000Z</time>
      </trkpt>
      <trkpt lat="43.37207" lon="2.23499">
        <ele>633.1</ele>
        <time>2019-08-11T07:52:14.000Z</time>
      </trkpt>
      <trkpt lat="43.37205" lon="2.23497">
        <ele>633</ele>
        <time>2019-08-11T07:52:15.000Z</time>
      </trkpt>
      <trkpt lat="43.37204" lon="2.23495">
        <ele>633</ele>
        <time>2019-08-11T07:52:16.000Z</time>
      </trkpt>
      <trkpt lat="43.37203" lon="2.23494">
        <ele>633</ele>
        <time>2019-08-11T07:52:17.000Z</time>
      </trkpt>
      <trkpt lat="43.37201" lon="2.23492">
        <ele>633</ele>
        <time>2019-08-11T07:52:18.000Z</time>
      </trkpt>
      <trkpt lat="43.372" lon="2.23491">
        <ele>633</ele>
        <time>2019-08-11T07:52:19.000Z</time>
      </trkpt>
      <trkpt lat="43.37198" lon="2.23489">
        <ele>633</ele>
        <time>2019-08-11T07:52:20.000Z</time>
      </trkpt>
      <trkpt lat="43.37197" lon="2.23488">
        <ele>633</ele>
        <time>2019-08-11T07:52:21.000Z</time>
      </trkpt>
      <trkpt lat="43.37195" lon="2.23486">
        <ele>633.1</ele>
        <time>2019-08-11T07:52:22.000Z</time>
      </trkpt>
      <trkpt lat="43.37194" lon="2.23485">
        <ele>633.1</ele>
        <time>2019-08-11T07:52:23.000Z</time>
      </trkpt>
      <trkpt lat="43.37192" lon="2.23483">
        <ele>633.1</ele>
        <time>2019-08-11T07:52:24.000Z</time>
      </trkpt>
      <trkpt lat="43.3719" lon="2.23482">
        <ele>633.2</ele>
        <time>2019-08-11T07:52:25.000Z</time>
      </trkpt>
      <trkpt lat="43.37189" lon="2.23481">
        <ele>633.2</ele>
        <time>2019-08-11T07:52:26.000Z</time>
      </trkpt>
      <trkpt lat="43.37187" lon="2.23479">
        <ele>633.3</ele>
        <time>2019-08-11T07:52:27.000Z</time>
      </trkpt>
      <trkpt lat="43.37185" lon="2.23477">
        <ele>633.4</ele>
        <time>2019-08-11T07:52:28.000Z</time>
      </trkpt>
      <trkpt lat="43.37184" lon="2.23476">
        <ele>633.4</ele>
        <time>2019-08-11T07:52:29.000Z</time>
      </trkpt>
      <trkpt lat="43.37182" lon="2.23474">
        <ele>633.5</ele>
        <time>2019-08-11T07:52:30.000Z</time>
      </trkpt>
      <trkpt lat="43.3718" lon="2.23473">
        <ele>633.5</ele>
        <time>2019-08-11T07:52:31.000Z</time>
      </trkpt>
      <trkpt lat="43.37178" lon="2.23471">
        <ele>633.6</ele>
        <time>2019-08-11T07:52:32.000Z</time>
      </trkpt>
      <trkpt lat="43.37177" lon="2.23469">
        <ele>633.7</ele>
        <time>2019-08-11T07:52:33.000Z</time>
      </trkpt>
      <trkpt lat="43.37175" lon="2.23467">
        <ele>633.7</ele>
        <time>2019-08-11T07:52:34.000Z</time>
      </trkpt>
      <trkpt lat="43.37173" lon="2.23465">
        <ele>633.8</ele>
        <time>2019-08-11T07:52:35.000Z</time>
      </trkpt>
      <trkpt lat="43.37171" lon="2.23463">
        <ele>633.9</ele>
        <time>2019-08-11T07:52:36.000Z</time>
      </trkpt>
      <trkpt lat="43.37169" lon="2.23462">
        <ele>633.9</ele>
        <time>2019-08-11T07:52:37.000Z</time>
      </trkpt>
      <trkpt lat="43.37168" lon="2.2346">
        <ele>634</ele>
        <time>2019-08-11T07:52:38.000Z</time>
      </trkpt>
      <trkpt lat="43.37166" lon="2.23458">
        <ele>633.9</ele>
        <time>2019-08-11T07:52:39.000Z</time>
      </trkpt>
      <trkpt lat="43.37164" lon="2.23456">
        <ele>633.7</ele>
        <time>2019-08-11T07:52:40.000Z</time>
      </trkpt>
      <trkpt lat="43.37162" lon="2.23455">
        <ele>633.5</ele>
        <time>2019-08-11T07:52:41.000Z</time>
      </trkpt>
      <trkpt lat="43.3716" lon="2.23453">
        <ele>633.3</ele>
        <time>2019-08-11T07:52:42.000Z</time>
      </trkpt>
      <trkpt lat="43.37158" lon="2.23452">
        <ele>633.1</ele>
        <time>2019-08-11T07:52:43.000Z</time>
      </trkpt>
      <trkpt lat="43.37157" lon="2.2345">
        <ele>632.9</ele>
        <time>2019-08-11T07:52:44.000Z</time>
      </trkpt>
      <trkpt lat="43.37155" lon="2.23449">
        <ele>632.7</ele>
        <time>2019-08-11T07:52:45.000Z</time>
      </trkpt>
      <trkpt lat="43.37154" lon="2.23448">
        <ele>632.5</ele>
        <time>2019-08-11T07:52:46.000Z</time>
      </trkpt>
      <trkpt lat="43.37152" lon="2.23447">
        <ele>632.3</ele>
        <time>2019-08-11T07:52:47.000Z</time>
      </trkpt>
      <trkpt lat="43.37151" lon="2.23445">
        <ele>632.2</ele>
        <time>2019-08-11T07:52:48.000Z</time>
      </trkpt>
      <trkpt lat="43.3715" lon="2.23444">
        <ele>632</ele>
        <time>2019-08-11T07:52:49.000Z</time>
      </trkpt>
      <trkpt lat="43.37149" lon="2.23443">
        <ele>631.9</ele>
        <time>2019-08-11T07:52:50.000Z</time>
      </trkpt>
      <trkpt lat="43.37148" lon="2.23442">
        <ele>631.7</ele>
        <time>2019-08-11T07:52:51.000Z</time>
      </trkpt>
      <trkpt lat="43.37147" lon="2.23441">
        <ele>631.6</ele>
        <time>2019-08-11T07:52:52.000Z</time>
      </trkpt>
      <trkpt lat="43.37146" lon="2.2344">
        <ele>631.4</ele>
        <time>2019-08-11T07:52:53.000Z</time>
      </trkpt>
      <trkpt lat="43.37145" lon="2.23439">
        <ele>631.3</ele>
        <time>2019-08-11T07:52:54.000Z</time>
      </trkpt>
      <trkpt lat="43.37144" lon="2.23438">
        <ele>631.2</ele>
        <time>2019-08-11T07:52:55.000Z</time>
      </trkpt>
      <trkpt lat="43.37143" lon="2.23437">
        <ele>631.1</ele>
        <time>2019-08-11T07:52:56.000Z</time>
      </trkpt>
      <trkpt lat="43.37142" lon="2.23436">
        <ele>630.9</ele>
        <time>2019-08-11T07:52:57.000Z</time>
      </trkpt>
      <trkpt lat="43.37142" lon="2.23435">
        <ele>630.8</ele>
        <time>2019-08-11T07:52:58.000Z</time>
      </trkpt>
      <trkpt lat="43.37141" lon="2.23434">
        <ele>630.8</ele>
        <time>2019-08-11T07:52:59.000Z</time>
      </trkpt>
      <trkpt lat="43.37141" lon="2.23434">
        <ele>630.7</ele>
        <time>2019-08-11T07:53:00.000Z</time>
      </trkpt>
      <trkpt lat="43.37141" lon="2.23433">
        <ele>630.6</ele>
        <time>2019-08-11T07:53:01.000Z</time>
      </trkpt>
      <trkpt lat="43.37141" lon="2.23433">
        <ele>630.6</ele>
        <time>2019-08-11T07:53:02.000Z</time>
      </trkpt>
      <trkpt lat="43.37141" lon="2.23433">
        <ele>630.6</ele>
        <time>2019-08-11T07:53:03.000Z</time>
      </trkpt>
      <trkpt lat="43.37141" lon="2.23433">
        <ele>630.5</ele>
        <time>2019-08-11T07:53:04.000Z</time>
      </trkpt>
      <trkpt lat="43.37141" lon="2.23433">
        <ele>630.5</ele>
        <time>2019-08-11T07:53:05.000Z</time>
      </trkpt>
      <trkpt lat="43.37141" lon="2.23432">
        <ele>630.5</ele>
        <time>2019-08-11T07:53:06.000Z</time>
      </trkpt>
      <trkpt lat="43.37141" lon="2.23432">
        <ele>630.5</ele>
        <time>2019-08-11T07:53:07.000Z</time>
      </trkpt>
      <trkpt lat="43.37141" lon="2.23432">
        <ele>630.5</ele>
        <time>2019-08-11T07:53:08.000Z</time>
      </trkpt>
      <trkpt lat="43.37141" lon="2.23432">
        <ele>630.5</ele>
        <time>2019-08-11T07:53:09.000Z</time>
      </trkpt>
      <trkpt lat="43.37141" lon="2.23432">
        <ele>630.5</ele>
        <time>2019-08-11T07:53:10.000Z</time>
      </trkpt>
      <trkpt lat="43.37141" lon="2.23432">
        <ele>630.5</ele>
        <time>2019-08-11T07:53:11.000Z</time>
      </trkpt>
      <trkpt lat="43.37141" lon="2.23432">
        <ele>630.5</ele>
        <time>2019-08-11T07:53:12.000Z</time>
      </trkpt>
      <trkpt lat="43.3714" lon="2.23432">
        <ele>630.5</ele>
        <time>2019-08-11T07:53:13.000Z</time>
      </trkpt>
      <trkpt lat="43.3714" lon="2.23432">
        <ele>630.4</ele>
        <time>2019-08-11T07:53:14.000Z</time>
      </trkpt>
      <trkpt lat="43.3714" lon="2.23432">
        <ele>630.4</ele>
        <time>2019-08-11T07:53:15.000Z</time>
      </trkpt>
      <trkpt lat="43.3714" lon="2.23432">
        <ele>630.4</ele>
        <time>2019-08-11T07:53:16.000Z</time>
      </trkpt>
      <trkpt lat="43.3714" lon="2.23432">
        <ele>630.4</ele>
        <time>2019-08-11T07:53:17.000Z</time>
      </trkpt>
      <trkpt lat="43.37141" lon="2.23432">
        <ele>630.4</ele>
        <time>2019-08-11T07:53:18.000Z</time>
      </trkpt>
      <trkpt lat="43.37141" lon="2.23432">
        <ele>630.4</ele>
        <time>2019-08-11T07:53:19.000Z</time>
      </trkpt>
      <trkpt lat="43.37142" lon="2.23432">
        <ele>630.5</ele>
        <time>2019-08-11T07:53:20.000Z</time>
      </trkpt>
      <trkpt lat="43.37143" lon="2.23432">
        <ele>630.5</ele>
        <time>2019-08-11T07:53:21.000Z</time>
      </trkpt>
      <trkpt lat="43.37143" lon="2.23433">
        <ele>630.6</ele>
        <time>2019-08-11T07:53:22.000Z</time>
      </trkpt>
      <trkpt lat="43.37144" lon="2.23434">
        <ele>630.7</ele>
        <time>2019-08-11T07:53:23.000Z</time>
      </trkpt>
      <trkpt lat="43.37145" lon="2.23434">
        <ele>630.7</ele>
        <time>2019-08-11T07:53:24.000Z</time>
      </trkpt>
      <trkpt lat="43.37145" lon="2.23434">
        <ele>630.7</ele>
        <time>2019-08-11T07:53:25.000Z</time>
      </trkpt>
      <trkpt lat="43.37145" lon="2.23434">
        <ele>630.7</ele>
        <time>2019-08-11T07:53:26.000Z</time>
      </trkpt>
      <trkpt lat="43.37145" lon="2.23434">
        <ele>630.7</ele>
        <time>2019-08-11T07:53:27.000Z</time>
      </trkpt>
      <trkpt lat="43.37145" lon="2.23434">
        <ele>630.7</ele>
        <time>2019-08-11T07:53:28.000Z</time>
      </trkpt>
      <trkpt lat="43.37145" lon="2.23434">
        <ele>630.8</ele>
        <time>2019-08-11T07:53:29.000Z</time>
      </trkpt>
      <trkpt lat="43.37145" lon="2.23434">
        <ele>630.8</ele>
        <time>2019-08-11T07:53:30.000Z</time>
      </trkpt>
      <trkpt lat="43.37145" lon="2.23435">
        <ele>630.9</ele>
        <time>2019-08-11T07:53:31.000Z</time>
      </trkpt>
      <trkpt lat="43.37145" lon="2.23436">
        <ele>631</ele>
        <time>2019-08-11T07:53:32.000Z</time>
      </trkpt>
      <trkpt lat="43.37145" lon="2.23437">
        <ele>631.1</ele>
        <time>2019-08-11T07:53:33.000Z</time>
      </trkpt>
      <trkpt lat="43.37145" lon="2.23438">
        <ele>631.2</ele>
        <time>2019-08-11T07:53:34.000Z</time>
      </trkpt>
      <trkpt lat="43.37145" lon="2.23439">
        <ele>631.4</ele>
        <time>2019-08-11T07:53:35.000Z</time>
      </trkpt>
      <trkpt lat="43.37145" lon="2.23441">
        <ele>631.6</ele>
        <time>2019-08-11T07:53:36.000Z</time>
      </trkpt>
      <trkpt lat="43.37145" lon="2.23443">
        <ele>631.8</ele>
        <time>2019-08-11T07:53:37.000Z</time>
      </trkpt>
      <trkpt lat="43.37145" lon="2.23444">
        <ele>632</ele>
        <time>2019-08-11T07:53:38.000Z</time>
      </trkpt>
      <trkpt lat="43.37145" lon="2.23446">
        <ele>632.2</ele>
        <time>2019-08-11T07:53:39.000Z</time>
      </trkpt>
      <trkpt lat="43.37144" lon="2.23448">
        <ele>632.4</ele>
        <time>2019-08-11T07:53:40.000Z</time>
      </trkpt>
      <trkpt lat="43.37144" lon="2.23449">
        <ele>632.5</ele>
        <time>2019-08-11T07:53:41.000Z</time>
      </trkpt>
      <trkpt lat="43.37143" lon="2.23451">
        <ele>632.7</ele>
        <time>2019-08-11T07:53:42.000Z</time>
      </trkpt>
      <trkpt lat="43.37142" lon="2.23453">
        <ele>632.9</ele>
        <time>2019-08-11T07:53:43.000Z</time>
      </trkpt>
      <trkpt lat="43.37141" lon="2.23455">
        <ele>633.1</ele>
        <time>2019-08-11T07:53:44.000Z</time>
      </trkpt>
      <trkpt lat="43.3714" lon="2.23457">
        <ele>633.3</ele>
        <time>2019-08-11T07:53:45.000Z</time>
      </trkpt>
      <trkpt lat="43.37139" lon="2.23459">
        <ele>633.6</ele>
        <time>2019-08-11T07:53:46.000Z</time>
      </trkpt>
      <trkpt lat="43.37138" lon="2.23461">
        <ele>633.8</ele>
        <time>2019-08-11T07:53:47.000Z</time>
      </trkpt>
      <trkpt lat="43.37138" lon="2.23463">
        <ele>634</ele>
        <time>2019-08-11T07:53:48.000Z</time>
      </trkpt>
      <trkpt lat="43.37137" lon="2.23465">
        <ele>634.3</ele>
        <time>2019-08-11T07:53:49.000Z</time>
      </trkpt>
      <trkpt lat="43.37136" lon="2.23468">
        <ele>634.5</ele>
        <time>2019-08-11T07:53:50.000Z</time>
      </trkpt>
      <trkpt lat="43.37135" lon="2.2347">
        <ele>634.8</ele>
        <time>2019-08-11T07:53:51.000Z</time>
      </trkpt>
      <trkpt lat="43.37134" lon="2.23472">
        <ele>635</ele>
        <time>2019-08-11T07:53:52.000Z</time>
      </trkpt>
      <trkpt lat="43.37133" lon="2.23475">
        <ele>635.3</ele>
        <time>2019-08-11T07:53:53.000Z</time>
      </trkpt>
      <trkpt lat="43.37132" lon="2.23477">
        <ele>635.5</ele>
        <time>2019-08-11T07:53:54.000Z</time>
      </trkpt>
      <trkpt lat="43.37132" lon="2.23479">
        <ele>635.7</ele>
        <time>2019-08-11T07:53:55.000Z</time>
      </trkpt>
      <trkpt lat="43.37131" lon="2.2348">
        <ele>635.9</ele>
        <time>2019-08-11T07:53:56.000Z</time>
      </trkpt>
      <trkpt lat="43.37131" lon="2.23482">
        <ele>636</ele>
        <time>2019-08-11T07:53:57.000Z</time>
      </trkpt>
      <trkpt lat="43.37131" lon="2.23482">
        <ele>636.1</ele>
        <time>2019-08-11T07:53:58.000Z</time>
      </trkpt>
      <trkpt lat="43.3713" lon="2.23482">
        <ele>636.1</ele>
        <time>2019-08-11T07:53:59.000Z</time>
      </trkpt>
      <trkpt lat="43.3713" lon="2.23483">
        <ele>636.1</ele>
        <time>2019-08-11T07:54:00.000Z</time>
      </trkpt>
      <trkpt lat="43.3713" lon="2.23483">
        <ele>636.1</ele>
        <time>2019-08-11T07:54:01.000Z</time>
      </trkpt>
      <trkpt lat="43.3713" lon="2.23483">
        <ele>636.2</ele>
        <time>2019-08-11T07:54:02.000Z</time>
      </trkpt>
      <trkpt lat="43.3713" lon="2.23483">
        <ele>636.2</ele>
        <time>2019-08-11T07:54:03.000Z</time>
      </trkpt>
      <trkpt lat="43.3713" lon="2.23484">
        <ele>636.3</ele>
        <time>2019-08-11T07:54:04.000Z</time>
      </trkpt>
      <trkpt lat="43.3713" lon="2.23486">
        <ele>636.5</ele>
        <time>2019-08-11T07:54:05.000Z</time>
      </trkpt>
      <trkpt lat="43.3713" lon="2.23488">
        <ele>636.7</ele>
        <time>2019-08-11T07:54:06.000Z</time>
      </trkpt>
      <trkpt lat="43.37129" lon="2.2349">
        <ele>636.9</ele>
        <time>2019-08-11T07:54:07.000Z</time>
      </trkpt>
      <trkpt lat="43.37129" lon="2.23492">
        <ele>637.1</ele>
        <time>2019-08-11T07:54:08.000Z</time>
      </trkpt>
      <trkpt lat="43.37128" lon="2.23494">
        <ele>637.3</ele>
        <time>2019-08-11T07:54:09.000Z</time>
      </trkpt>
      <trkpt lat="43.37128" lon="2.23496">
        <ele>637.5</ele>
        <time>2019-08-11T07:54:10.000Z</time>
      </trkpt>
      <trkpt lat="43.37127" lon="2.23497">
        <ele>637.7</ele>
        <time>2019-08-11T07:54:11.000Z</time>
      </trkpt>
      <trkpt lat="43.37127" lon="2.23499">
        <ele>637.9</ele>
        <time>2019-08-11T07:54:12.000Z</time>
      </trkpt>
      <trkpt lat="43.37126" lon="2.235">
        <ele>638</ele>
        <time>2019-08-11T07:54:13.000Z</time>
      </trkpt>
      <trkpt lat="43.37126" lon="2.23501">
        <ele>638.1</ele>
        <time>2019-08-11T07:54:14.000Z</time>
      </trkpt>
      <trkpt lat="43.37126" lon="2.23502">
        <ele>638.2</ele>
        <time>2019-08-11T07:54:15.000Z</time>
      </trkpt>
      <trkpt lat="43.37125" lon="2.23503">
        <ele>638.2</ele>
        <time>2019-08-11T07:54:16.000Z</time>
      </trkpt>
      <trkpt lat="43.37125" lon="2.23504">
        <ele>638.3</ele>
        <time>2019-08-11T07:54:17.000Z</time>
      </trkpt>
      <trkpt lat="43.37125" lon="2.23505">
        <ele>638.3</ele>
        <time>2019-08-11T07:54:18.000Z</time>
      </trkpt>
      <trkpt lat="43.37125" lon="2.23507">
        <ele>638.4</ele>
        <time>2019-08-11T07:54:19.000Z</time>
      </trkpt>
      <trkpt lat="43.37124" lon="2.23508">
        <ele>638.4</ele>
        <time>2019-08-11T07:54:20.000Z</time>
      </trkpt>
      <trkpt lat="43.37124" lon="2.23509">
        <ele>638.5</ele>
        <time>2019-08-11T07:54:21.000Z</time>
      </trkpt>
      <trkpt lat="43.37124" lon="2.2351">
        <ele>638.6</ele>
        <time>2019-08-11T07:54:22.000Z</time>
      </trkpt>
      <trkpt lat="43.37123" lon="2.23511">
        <ele>638.6</ele>
        <time>2019-08-11T07:54:23.000Z</time>
      </trkpt>
      <trkpt lat="43.37123" lon="2.23512">
        <ele>638.7</ele>
        <time>2019-08-11T07:54:24.000Z</time>
      </trkpt>
      <trkpt lat="43.37123" lon="2.23514">
        <ele>638.8</ele>
        <time>2019-08-11T07:54:25.000Z</time>
      </trkpt>
      <trkpt lat="43.37123" lon="2.23515">
        <ele>638.8</ele>
        <time>2019-08-11T07:54:26.000Z</time>
      </trkpt>
      <trkpt lat="43.37123" lon="2.23516">
        <ele>638.9</ele>
        <time>2019-08-11T07:54:27.000Z</time>
      </trkpt>
      <trkpt lat="43.37123" lon="2.23518">
        <ele>639</ele>
        <time>2019-08-11T07:54:28.000Z</time>
      </trkpt>
      <trkpt lat="43.37123" lon="2.23519">
        <ele>639.1</ele>
        <time>2019-08-11T07:54:29.000Z</time>
      </trkpt>
      <trkpt lat="43.37122" lon="2.2352">
        <ele>639.1</ele>
        <time>2019-08-11T07:54:30.000Z</time>
      </trkpt>
      <trkpt lat="43.37122" lon="2.23522">
        <ele>639.2</ele>
        <time>2019-08-11T07:54:31.000Z</time>
      </trkpt>
      <trkpt lat="43.37122" lon="2.23523">
        <ele>639.3</ele>
        <time>2019-08-11T07:54:32.000Z</time>
      </trkpt>
      <trkpt lat="43.37122" lon="2.23524">
        <ele>639.4</ele>
        <time>2019-08-11T07:54:33.000Z</time>
      </trkpt>
      <trkpt lat="43.37122" lon="2.23526">
        <ele>639.4</ele>
        <time>2019-08-11T07:54:34.000Z</time>
      </trkpt>
      <trkpt lat="43.37121" lon="2.23527">
        <ele>639.5</ele>
        <time>2019-08-11T07:54:35.000Z</time>
      </trkpt>
      <trkpt lat="43.37121" lon="2.23529">
        <ele>639.6</ele>
        <time>2019-08-11T07:54:36.000Z</time>
      </trkpt>
      <trkpt lat="43.37121" lon="2.2353">
        <ele>639.7</ele>
        <time>2019-08-11T07:54:37.000Z</time>
      </trkpt>
      <trkpt lat="43.3712" lon="2.23531">
        <ele>639.7</ele>
        <time>2019-08-11T07:54:38.000Z</time>
      </trkpt>
      <trkpt lat="43.3712" lon="2.23533">
        <ele>639.8</ele>
        <time>2019-08-11T07:54:39.000Z</time>
      </trkpt>
      <trkpt lat="43.3712" lon="2.23534">
        <ele>639.9</ele>
        <time>2019-08-11T07:54:40.000Z</time>
      </trkpt>
      <trkpt lat="43.37119" lon="2.23536">
        <ele>639.9</ele>
        <time>2019-08-11T07:54:41.000Z</time>
      </trkpt>
      <trkpt lat="43.37119" lon="2.23537">
        <ele>640</ele>
        <time>2019-08-11T07:54:42.000Z</time>
      </trkpt>
      <trkpt lat="43.37119" lon="2.23538">
        <ele>640.1</ele>
        <time>2019-08-11T07:54:43.000Z</time>
      </trkpt>
      <trkpt lat="43.37118" lon="2.2354">
        <ele>640.1</ele>
        <time>2019-08-11T07:54:44.000Z</time>
      </trkpt>
      <trkpt lat="43.37118" lon="2.23541">
        <ele>640.2</ele>
        <time>2019-08-11T07:54:45.000Z</time>
      </trkpt>
      <trkpt lat="43.37118" lon="2.23542">
        <ele>640.3</ele>
        <time>2019-08-11T07:54:46.000Z</time>
      </trkpt>
      <trkpt lat="43.37117" lon="2.23544">
        <ele>640.3</ele>
        <time>2019-08-11T07:54:47.000Z</time>
      </trkpt>
      <trkpt lat="43.37117" lon="2.23545">
        <ele>640.4</ele>
        <time>2019-08-11T07:54:48.000Z</time>
      </trkpt>
      <trkpt lat="43.37116" lon="2.23547">
        <ele>640.5</ele>
        <time>2019-08-11T07:54:49.000Z</time>
      </trkpt>
      <trkpt lat="43.37116" lon="2.23549">
        <ele>640.6</ele>
        <time>2019-08-11T07:54:50.000Z</time>
      </trkpt>
      <trkpt lat="43.37115" lon="2.2355">
        <ele>640.6</ele>
        <time>2019-08-11T07:54:51.000Z</time>
      </trkpt>
      <trkpt lat="43.37115" lon="2.23552">
        <ele>640.7</ele>
        <time>2019-08-11T07:54:52.000Z</time>
      </trkpt>
      <trkpt lat="43.37114" lon="2.23554">
        <ele>640.8</ele>
        <time>2019-08-11T07:54:53.000Z</time>
      </trkpt>
      <trkpt lat="43.37113" lon="2.23556">
        <ele>640.9</ele>
        <time>2019-08-11T07:54:54.000Z</time>
      </trkpt>
      <trkpt lat="43.37112" lon="2.23559">
        <ele>641</ele>
        <time>2019-08-11T07:54:55.000Z</time>
      </trkpt>
      <trkpt lat="43.37111" lon="2.23561">
        <ele>641.1</ele>
        <time>2019-08-11T07:54:56.000Z</time>
      </trkpt>
      <trkpt lat="43.3711" lon="2.23563">
        <ele>641.2</ele>
        <time>2019-08-11T07:54:57.000Z</time>
      </trkpt>
      <trkpt lat="43.37109" lon="2.23566">
        <ele>641.3</ele>
        <time>2019-08-11T07:54:58.000Z</time>
      </trkpt>
      <trkpt lat="43.37108" lon="2.23568">
        <ele>641.4</ele>
        <time>2019-08-11T07:54:59.000Z</time>
      </trkpt>
      <trkpt lat="43.37107" lon="2.23571">
        <ele>641.5</ele>
        <time>2019-08-11T07:55:00.000Z</time>
      </trkpt>
      <trkpt lat="43.37106" lon="2.23574">
        <ele>641.6</ele>
        <time>2019-08-11T07:55:01.000Z</time>
      </trkpt>
      <trkpt lat="43.37105" lon="2.23577">
        <ele>641.7</ele>
        <time>2019-08-11T07:55:02.000Z</time>
      </trkpt>
      <trkpt lat="43.37104" lon="2.2358">
        <ele>641.8</ele>
        <time>2019-08-11T07:55:03.000Z</time>
      </trkpt>
      <trkpt lat="43.37103" lon="2.23582">
        <ele>641.9</ele>
        <time>2019-08-11T07:55:04.000Z</time>
      </trkpt>
      <trkpt lat="43.37102" lon="2.23585">
        <ele>642</ele>
        <time>2019-08-11T07:55:05.000Z</time>
      </trkpt>
      <trkpt lat="43.37101" lon="2.23588">
        <ele>642</ele>
        <time>2019-08-11T07:55:06.000Z</time>
      </trkpt>
      <trkpt lat="43.371" lon="2.23591">
        <ele>642.1</ele>
        <time>2019-08-11T07:55:07.000Z</time>
      </trkpt>
      <trkpt lat="43.37099" lon="2.23594">
        <ele>642.2</ele>
        <time>2019-08-11T07:55:08.000Z</time>
      </trkpt>
      <trkpt lat="43.37098" lon="2.23597">
        <ele>642.3</ele>
        <time>2019-08-11T07:55:09.000Z</time>
      </trkpt>
      <trkpt lat="43.37097" lon="2.23599">
        <ele>642.4</ele>
        <time>2019-08-11T07:55:10.000Z</time>
      </trkpt>
      <trkpt lat="43.37096" lon="2.23602">
        <ele>642.5</ele>
        <time>2019-08-11T07:55:11.000Z</time>
      </trkpt>
      <trkpt lat="43.37096" lon="2.23605">
        <ele>642.5</ele>
        <time>2019-08-11T07:55:12.000Z</time>
      </trkpt>
      <trkpt lat="43.37095" lon="2.23607">
        <ele>642.6</ele>
        <time>2019-08-11T07:55:13.000Z</time>
      </trkpt>
      <trkpt lat="43.37095" lon="2.2361">
        <ele>642.7</ele>
        <time>2019-08-11T07:55:14.000Z</time>
      </trkpt>
      <trkpt lat="43.37094" lon="2.23612">
        <ele>642.8</ele>
        <time>2019-08-11T07:55:15.000Z</time>
      </trkpt>
      <trkpt lat="43.37094" lon="2.23614">
        <ele>642.9</ele>
        <time>2019-08-11T07:55:16.000Z</time>
      </trkpt>
      <trkpt lat="43.37094" lon="2.23616">
        <ele>643</ele>
        <time>2019-08-11T07:55:17.000Z</time>
      </trkpt>
      <trkpt lat="43.37093" lon="2.23618">
        <ele>643.1</ele>
        <time>2019-08-11T07:55:18.000Z</time>
      </trkpt>
      <trkpt lat="43.37093" lon="2.23621">
        <ele>643.1</ele>
        <time>2019-08-11T07:55:19.000Z</time>
      </trkpt>
      <trkpt lat="43.37093" lon="2.23623">
        <ele>643.2</ele>
        <time>2019-08-11T07:55:20.000Z</time>
      </trkpt>
      <trkpt lat="43.37092" lon="2.23625">
        <ele>643.3</ele>
        <time>2019-08-11T07:55:21.000Z</time>
      </trkpt>
      <trkpt lat="43.37091" lon="2.23628">
        <ele>643.4</ele>
        <time>2019-08-11T07:55:22.000Z</time>
      </trkpt>
      <trkpt lat="43.3709" lon="2.23631">
        <ele>643.5</ele>
        <time>2019-08-11T07:55:23.000Z</time>
      </trkpt>
      <trkpt lat="43.37089" lon="2.23633">
        <ele>643.6</ele>
        <time>2019-08-11T07:55:24.000Z</time>
      </trkpt>
      <trkpt lat="43.37088" lon="2.23636">
        <ele>643.7</ele>
        <time>2019-08-11T07:55:25.000Z</time>
      </trkpt>
      <trkpt lat="43.37087" lon="2.23639">
        <ele>643.8</ele>
        <time>2019-08-11T07:55:26.000Z</time>
      </trkpt>
      <trkpt lat="43.37086" lon="2.23642">
        <ele>643.9</ele>
        <time>2019-08-11T07:55:27.000Z</time>
      </trkpt>
      <trkpt lat="43.37085" lon="2.23645">
        <ele>644</ele>
        <time>2019-08-11T07:55:28.000Z</time>
      </trkpt>
      <trkpt lat="43.37084" lon="2.23648">
        <ele>644.1</ele>
        <time>2019-08-11T07:55:29.000Z</time>
      </trkpt>
      <trkpt lat="43.37084" lon="2.2365">
        <ele>644.2</ele>
        <time>2019-08-11T07:55:30.000Z</time>
      </trkpt>
      <trkpt lat="43.37083" lon="2.23653">
        <ele>644.3</ele>
        <time>2019-08-11T07:55:31.000Z</time>
      </trkpt>
      <trkpt lat="43.37083" lon="2.23656">
        <ele>644.4</ele>
        <time>2019-08-11T07:55:32.000Z</time>
      </trkpt>
      <trkpt lat="43.37083" lon="2.23658">
        <ele>644.5</ele>
        <time>2019-08-11T07:55:33.000Z</time>
      </trkpt>
      <trkpt lat="43.37082" lon="2.23661">
        <ele>644.6</ele>
        <time>2019-08-11T07:55:34.000Z</time>
      </trkpt>
      <trkpt lat="43.37082" lon="2.23663">
        <ele>644.7</ele>
        <time>2019-08-11T07:55:35.000Z</time>
      </trkpt>
      <trkpt lat="43.37081" lon="2.23666">
        <ele>644.8</ele>
        <time>2019-08-11T07:55:36.000Z</time>
      </trkpt>
      <trkpt lat="43.3708" lon="2.23669">
        <ele>644.7</ele>
        <time>2019-08-11T07:55:37.000Z</time>
      </trkpt>
      <trkpt lat="43.37079" lon="2.23672">
        <ele>644.5</ele>
        <time>2019-08-11T07:55:38.000Z</time>
      </trkpt>
      <trkpt lat="43.37079" lon="2.23674">
        <ele>644.3</ele>
        <time>2019-08-11T07:55:39.000Z</time>
      </trkpt>
      <trkpt lat="43.37078" lon="2.23677">
        <ele>644.1</ele>
        <time>2019-08-11T07:55:40.000Z</time>
      </trkpt>
      <trkpt lat="43.37076" lon="2.2368">
        <ele>644</ele>
        <time>2019-08-11T07:55:41.000Z</time>
      </trkpt>
      <trkpt lat="43.37075" lon="2.23683">
        <ele>643.8</ele>
        <time>2019-08-11T07:55:42.000Z</time>
      </trkpt>
      <trkpt lat="43.37074" lon="2.23686">
        <ele>643.6</ele>
        <time>2019-08-11T07:55:43.000Z</time>
      </trkpt>
      <trkpt lat="43.37073" lon="2.23689">
        <ele>643.4</ele>
        <time>2019-08-11T07:55:44.000Z</time>
      </trkpt>
      <trkpt lat="43.37072" lon="2.23692">
        <ele>643.3</ele>
        <time>2019-08-11T07:55:45.000Z</time>
      </trkpt>
      <trkpt lat="43.37071" lon="2.23695">
        <ele>643.1</ele>
        <time>2019-08-11T07:55:46.000Z</time>
      </trkpt>
      <trkpt lat="43.3707" lon="2.23698">
        <ele>642.9</ele>
        <time>2019-08-11T07:55:47.000Z</time>
      </trkpt>
      <trkpt lat="43.37069" lon="2.23701">
        <ele>642.7</ele>
        <time>2019-08-11T07:55:48.000Z</time>
      </trkpt>
      <trkpt lat="43.37069" lon="2.23704">
        <ele>642.6</ele>
        <time>2019-08-11T07:55:49.000Z</time>
      </trkpt>
      <trkpt lat="43.37068" lon="2.23707">
        <ele>642.4</ele>
        <time>2019-08-11T07:55:50.000Z</time>
      </trkpt>
      <trkpt lat="43.37067" lon="2.2371">
        <ele>642.2</ele>
        <time>2019-08-11T07:55:51.000Z</time>
      </trkpt>
      <trkpt lat="43.37066" lon="2.23714">
        <ele>642.1</ele>
        <time>2019-08-11T07:55:52.000Z</time>
      </trkpt>
      <trkpt lat="43.37065" lon="2.23717">
        <ele>641.9</ele>
        <time>2019-08-11T07:55:53.000Z</time>
      </trkpt>
      <trkpt lat="43.37064" lon="2.2372">
        <ele>641.7</ele>
        <time>2019-08-11T07:55:54.000Z</time>
      </trkpt>
      <trkpt lat="43.37063" lon="2.23724">
        <ele>641.6</ele>
        <time>2019-08-11T07:55:55.000Z</time>
      </trkpt>
      <trkpt lat="43.37062" lon="2.23727">
        <ele>641.4</ele>
        <time>2019-08-11T07:55:56.000Z</time>
      </trkpt>
      <trkpt lat="43.37061" lon="2.2373">
        <ele>641.2</ele>
        <time>2019-08-11T07:55:57.000Z</time>
      </trkpt>
      <trkpt lat="43.37059" lon="2.23734">
        <ele>641</ele>
        <time>2019-08-11T07:55:58.000Z</time>
      </trkpt>
      <trkpt lat="43.37058" lon="2.23737">
        <ele>640.8</ele>
        <time>2019-08-11T07:55:59.000Z</time>
      </trkpt>
      <trkpt lat="43.37057" lon="2.2374">
        <ele>640.7</ele>
        <time>2019-08-11T07:56:00.000Z</time>
      </trkpt>
      <trkpt lat="43.37055" lon="2.23744">
        <ele>640.5</ele>
        <time>2019-08-11T07:56:01.000Z</time>
      </trkpt>
      <trkpt lat="43.37054" lon="2.23747">
        <ele>640.3</ele>
        <time>2019-08-11T07:56:02.000Z</time>
      </trkpt>
      <trkpt lat="43.37052" lon="2.23751">
        <ele>640.1</ele>
        <time>2019-08-11T07:56:03.000Z</time>
      </trkpt>
      <trkpt lat="43.37051" lon="2.23755">
        <ele>639.7</ele>
        <time>2019-08-11T07:56:04.000Z</time>
      </trkpt>
      <trkpt lat="43.3705" lon="2.23758">
        <ele>639.3</ele>
        <time>2019-08-11T07:56:05.000Z</time>
      </trkpt>
      <trkpt lat="43.37048" lon="2.23762">
        <ele>638.9</ele>
        <time>2019-08-11T07:56:06.000Z</time>
      </trkpt>
      <trkpt lat="43.37047" lon="2.23766">
        <ele>638.5</ele>
        <time>2019-08-11T07:56:07.000Z</time>
      </trkpt>
      <trkpt lat="43.37046" lon="2.2377">
        <ele>638.1</ele>
        <time>2019-08-11T07:56:08.000Z</time>
      </trkpt>
      <trkpt lat="43.37045" lon="2.23773">
        <ele>637.7</ele>
        <time>2019-08-11T07:56:09.000Z</time>
      </trkpt>
      <trkpt lat="43.37044" lon="2.23777">
        <ele>637.3</ele>
        <time>2019-08-11T07:56:10.000Z</time>
      </trkpt>
      <trkpt lat="43.37043" lon="2.23781">
        <ele>636.9</ele>
        <time>2019-08-11T07:56:11.000Z</time>
      </trkpt>
      <trkpt lat="43.37042" lon="2.23785">
        <ele>636.6</ele>
        <time>2019-08-11T07:56:12.000Z</time>
      </trkpt>
      <trkpt lat="43.37041" lon="2.23789">
        <ele>636.2</ele>
        <time>2019-08-11T07:56:13.000Z</time>
      </trkpt>
      <trkpt lat="43.3704" lon="2.23792">
        <ele>635.9</ele>
        <time>2019-08-11T07:56:14.000Z</time>
      </trkpt>
      <trkpt lat="43.37039" lon="2.23796">
        <ele>635.5</ele>
        <time>2019-08-11T07:56:15.000Z</time>
      </trkpt>
      <trkpt lat="43.37038" lon="2.23799">
        <ele>635.2</ele>
        <time>2019-08-11T07:56:16.000Z</time>
      </trkpt>
      <trkpt lat="43.37037" lon="2.23802">
        <ele>634.9</ele>
        <time>2019-08-11T07:56:17.000Z</time>
      </trkpt>
      <trkpt lat="43.37036" lon="2.23806">
        <ele>634.6</ele>
        <time>2019-08-11T07:56:18.000Z</time>
      </trkpt>
      <trkpt lat="43.37035" lon="2.23809">
        <ele>634.3</ele>
        <time>2019-08-11T07:56:19.000Z</time>
      </trkpt>
      <trkpt lat="43.37034" lon="2.23812">
        <ele>634</ele>
        <time>2019-08-11T07:56:20.000Z</time>
      </trkpt>
      <trkpt lat="43.37033" lon="2.23815">
        <ele>633.7</ele>
        <time>2019-08-11T07:56:21.000Z</time>
      </trkpt>
      <trkpt lat="43.37032" lon="2.23818">
        <ele>633.4</ele>
        <time>2019-08-11T07:56:22.000Z</time>
      </trkpt>
      <trkpt lat="43.37031" lon="2.23821">
        <ele>633.1</ele>
        <time>2019-08-11T07:56:23.000Z</time>
      </trkpt>
      <trkpt lat="43.3703" lon="2.23824">
        <ele>632.9</ele>
        <time>2019-08-11T07:56:24.000Z</time>
      </trkpt>
      <trkpt lat="43.37029" lon="2.23827">
        <ele>632.6</ele>
        <time>2019-08-11T07:56:25.000Z</time>
      </trkpt>
      <trkpt lat="43.37028" lon="2.2383">
        <ele>632.3</ele>
        <time>2019-08-11T07:56:26.000Z</time>
      </trkpt>
      <trkpt lat="43.37027" lon="2.23833">
        <ele>632</ele>
        <time>2019-08-11T07:56:27.000Z</time>
      </trkpt>
      <trkpt lat="43.37027" lon="2.23836">
        <ele>631.9</ele>
        <time>2019-08-11T07:56:28.000Z</time>
      </trkpt>
      <trkpt lat="43.37026" lon="2.2384">
        <ele>631.8</ele>
        <time>2019-08-11T07:56:29.000Z</time>
      </trkpt>
      <trkpt lat="43.37025" lon="2.23843">
        <ele>631.8</ele>
        <time>2019-08-11T07:56:30.000Z</time>
      </trkpt>
      <trkpt lat="43.37024" lon="2.23846">
        <ele>631.7</ele>
        <time>2019-08-11T07:56:31.000Z</time>
      </trkpt>
      <trkpt lat="43.37023" lon="2.23849">
        <ele>631.6</ele>
        <time>2019-08-11T07:56:32.000Z</time>
      </trkpt>
      <trkpt lat="43.37022" lon="2.23852">
        <ele>631.6</ele>
        <time>2019-08-11T07:56:33.000Z</time>
      </trkpt>
      <trkpt lat="43.37021" lon="2.23856">
        <ele>631.5</ele>
        <time>2019-08-11T07:56:34.000Z</time>
      </trkpt>
      <trkpt lat="43.3702" lon="2.23859">
        <ele>631.4</ele>
        <time>2019-08-11T07:56:35.000Z</time>
      </trkpt>
      <trkpt lat="43.37019" lon="2.23862">
        <ele>631.3</ele>
        <time>2019-08-11T07:56:36.000Z</time>
      </trkpt>
      <trkpt lat="43.37017" lon="2.23865">
        <ele>631.2</ele>
        <time>2019-08-11T07:56:37.000Z</time>
      </trkpt>
      <trkpt lat="43.37016" lon="2.23868">
        <ele>631.2</ele>
        <time>2019-08-11T07:56:38.000Z</time>
      </trkpt>
      <trkpt lat="43.37015" lon="2.23871">
        <ele>631.1</ele>
        <time>2019-08-11T07:56:39.000Z</time>
      </trkpt>
      <trkpt lat="43.37014" lon="2.23873">
        <ele>631</ele>
        <time>2019-08-11T07:56:40.000Z</time>
      </trkpt>
      <trkpt lat="43.37013" lon="2.23875">
        <ele>631</ele>
        <time>2019-08-11T07:56:41.000Z</time>
      </trkpt>
      <trkpt lat="43.37012" lon="2.23876">
        <ele>630.9</ele>
        <time>2019-08-11T07:56:42.000Z</time>
      </trkpt>
      <trkpt lat="43.37012" lon="2.23876">
        <ele>630.9</ele>
        <time>2019-08-11T07:56:43.000Z</time>
      </trkpt>
      <trkpt lat="43.37011" lon="2.23876">
        <ele>630.9</ele>
        <time>2019-08-11T07:56:44.000Z</time>
      </trkpt>
      <trkpt lat="43.37011" lon="2.23875">
        <ele>630.9</ele>
        <time>2019-08-11T07:56:45.000Z</time>
      </trkpt>
      <trkpt lat="43.37011" lon="2.23874">
        <ele>630.9</ele>
        <time>2019-08-11T07:56:46.000Z</time>
      </trkpt>
      <trkpt lat="43.37011" lon="2.23874">
        <ele>630.9</ele>
        <time>2019-08-11T07:56:47.000Z</time>
      </trkpt>
      <trkpt lat="43.37011" lon="2.23873">
        <ele>630.9</ele>
        <time>2019-08-11T07:56:48.000Z</time>
      </trkpt>
      <trkpt lat="43.37011" lon="2.23873">
        <ele>630.9</ele>
        <time>2019-08-11T07:56:49.000Z</time>
      </trkpt>
      <trkpt lat="43.37011" lon="2.23873">
        <ele>630.9</ele>
        <time>2019-08-11T07:56:50.000Z</time>
      </trkpt>
      <trkpt lat="43.37011" lon="2.23873">
        <ele>630.9</ele>
        <time>2019-08-11T07:56:51.000Z</time>
      </trkpt>
      <trkpt lat="43.37011" lon="2.23873">
        <ele>630.9</ele>
        <time>2019-08-11T07:56:52.000Z</time>
      </trkpt>
      <trkpt lat="43.37011" lon="2.23874">
        <ele>630.9</ele>
        <time>2019-08-11T07:56:53.000Z</time>
      </trkpt>
      <trkpt lat="43.37011" lon="2.23874">
        <ele>630.9</ele>
        <time>2019-08-11T07:56:54.000Z</time>
      </trkpt>
      <trkpt lat="43.37011" lon="2.23875">
        <ele>630.9</ele>
        <time>2019-08-11T07:56:55.000Z</time>
      </trkpt>
      <trkpt lat="43.37011" lon="2.23876">
        <ele>630.9</ele>
        <time>2019-08-11T07:56:56.000Z</time>
      </trkpt>
      <trkpt lat="43.37011" lon="2.23877">
        <ele>630.9</ele>
        <time>2019-08-11T07:56:57.000Z</time>
      </trkpt>
      <trkpt lat="43.3701" lon="2.23878">
        <ele>630.8</ele>
        <time>2019-08-11T07:56:58.000Z</time>
      </trkpt>
      <trkpt lat="43.3701" lon="2.23879">
        <ele>630.8</ele>
        <time>2019-08-11T07:56:59.000Z</time>
      </trkpt>
      <trkpt lat="43.3701" lon="2.2388">
        <ele>630.8</ele>
        <time>2019-08-11T07:57:00.000Z</time>
      </trkpt>
      <trkpt lat="43.37009" lon="2.23882">
        <ele>630.7</ele>
        <time>2019-08-11T07:57:01.000Z</time>
      </trkpt>
      <trkpt lat="43.37009" lon="2.23884">
        <ele>630.7</ele>
        <time>2019-08-11T07:57:02.000Z</time>
      </trkpt>
      <trkpt lat="43.37008" lon="2.23885">
        <ele>630.7</ele>
        <time>2019-08-11T07:57:03.000Z</time>
      </trkpt>
      <trkpt lat="43.37008" lon="2.23887">
        <ele>630.6</ele>
        <time>2019-08-11T07:57:04.000Z</time>
      </trkpt>
      <trkpt lat="43.37007" lon="2.2389">
        <ele>630.6</ele>
        <time>2019-08-11T07:57:05.000Z</time>
      </trkpt>
      <trkpt lat="43.37007" lon="2.23892">
        <ele>630.5</ele>
        <time>2019-08-11T07:57:06.000Z</time>
      </trkpt>
      <trkpt lat="43.37006" lon="2.23894">
        <ele>630.5</ele>
        <time>2019-08-11T07:57:07.000Z</time>
      </trkpt>
      <trkpt lat="43.37006" lon="2.23896">
        <ele>630.4</ele>
        <time>2019-08-11T07:57:08.000Z</time>
      </trkpt>
      <trkpt lat="43.37005" lon="2.23898">
        <ele>630.4</ele>
        <time>2019-08-11T07:57:09.000Z</time>
      </trkpt>
      <trkpt lat="43.37004" lon="2.239">
        <ele>630.4</ele>
        <time>2019-08-11T07:57:10.000Z</time>
      </trkpt>
      <trkpt lat="43.37004" lon="2.23902">
        <ele>630.3</ele>
        <time>2019-08-11T07:57:11.000Z</time>
      </trkpt>
      <trkpt lat="43.37003" lon="2.23905">
        <ele>630.3</ele>
        <time>2019-08-11T07:57:12.000Z</time>
      </trkpt>
      <trkpt lat="43.37003" lon="2.23907">
        <ele>630.2</ele>
        <time>2019-08-11T07:57:13.000Z</time>
      </trkpt>
      <trkpt lat="43.37002" lon="2.23909">
        <ele>630.2</ele>
        <time>2019-08-11T07:57:14.000Z</time>
      </trkpt>
      <trkpt lat="43.37002" lon="2.23912">
        <ele>630.1</ele>
        <time>2019-08-11T07:57:15.000Z</time>
      </trkpt>
      <trkpt lat="43.37001" lon="2.23914">
        <ele>630.1</ele>
        <time>2019-08-11T07:57:16.000Z</time>
      </trkpt>
      <trkpt lat="43.37001" lon="2.23917">
        <ele>630</ele>
        <time>2019-08-11T07:57:17.000Z</time>
      </trkpt>
      <trkpt lat="43.37" lon="2.23919">
        <ele>630</ele>
        <time>2019-08-11T07:57:18.000Z</time>
      </trkpt>
      <trkpt lat="43.37" lon="2.23922">
        <ele>629.9</ele>
        <time>2019-08-11T07:57:19.000Z</time>
      </trkpt>
      <trkpt lat="43.36999" lon="2.23925">
        <ele>629.9</ele>
        <time>2019-08-11T07:57:20.000Z</time>
      </trkpt>
      <trkpt lat="43.36998" lon="2.23927">
        <ele>629.8</ele>
        <time>2019-08-11T07:57:21.000Z</time>
      </trkpt>
      <trkpt lat="43.36998" lon="2.2393">
        <ele>629.8</ele>
        <time>2019-08-11T07:57:22.000Z</time>
      </trkpt>
      <trkpt lat="43.36997" lon="2.23933">
        <ele>629.7</ele>
        <time>2019-08-11T07:57:23.000Z</time>
      </trkpt>
      <trkpt lat="43.36996" lon="2.23936">
        <ele>629.6</ele>
        <time>2019-08-11T07:57:24.000Z</time>
      </trkpt>
      <trkpt lat="43.36996" lon="2.23938">
        <ele>629.6</ele>
        <time>2019-08-11T07:57:25.000Z</time>
      </trkpt>
      <trkpt lat="43.36995" lon="2.23941">
        <ele>629.5</ele>
        <time>2019-08-11T07:57:26.000Z</time>
      </trkpt>
      <trkpt lat="43.36994" lon="2.23944">
        <ele>629.4</ele>
        <time>2019-08-11T07:57:27.000Z</time>
      </trkpt>
      <trkpt lat="43.36994" lon="2.23947">
        <ele>629.4</ele>
        <time>2019-08-11T07:57:28.000Z</time>
      </trkpt>
      <trkpt lat="43.36993" lon="2.2395">
        <ele>629.3</ele>
        <time>2019-08-11T07:57:29.000Z</time>
      </trkpt>
      <trkpt lat="43.36992" lon="2.23953">
        <ele>629.2</ele>
        <time>2019-08-11T07:57:30.000Z</time>
      </trkpt>
      <trkpt lat="43.36991" lon="2.23956">
        <ele>629.2</ele>
        <time>2019-08-11T07:57:31.000Z</time>
      </trkpt>
      <trkpt lat="43.36991" lon="2.23959">
        <ele>629.1</ele>
        <time>2019-08-11T07:57:32.000Z</time>
      </trkpt>
      <trkpt lat="43.3699" lon="2.23962">
        <ele>629</ele>
        <time>2019-08-11T07:57:33.000Z</time>
      </trkpt>
      <trkpt lat="43.36989" lon="2.23965">
        <ele>629</ele>
        <time>2019-08-11T07:57:34.000Z</time>
      </trkpt>
      <trkpt lat="43.36988" lon="2.23968">
        <ele>628.9</ele>
        <time>2019-08-11T07:57:35.000Z</time>
      </trkpt>
      <trkpt lat="43.36988" lon="2.23971">
        <ele>628.9</ele>
        <time>2019-08-11T07:57:36.000Z</time>
      </trkpt>
      <trkpt lat="43.36987" lon="2.23974">
        <ele>628.8</ele>
        <time>2019-08-11T07:57:37.000Z</time>
      </trkpt>
      <trkpt lat="43.36986" lon="2.23977">
        <ele>628.7</ele>
        <time>2019-08-11T07:57:38.000Z</time>
      </trkpt>
      <trkpt lat="43.36985" lon="2.23979">
        <ele>628.7</ele>
        <time>2019-08-11T07:57:39.000Z</time>
      </trkpt>
      <trkpt lat="43.36985" lon="2.23982">
        <ele>628.6</ele>
        <time>2019-08-11T07:57:40.000Z</time>
      </trkpt>
      <trkpt lat="43.36984" lon="2.23985">
        <ele>628.6</ele>
        <time>2019-08-11T07:57:41.000Z</time>
      </trkpt>
      <trkpt lat="43.36983" lon="2.23988">
        <ele>628.5</ele>
        <time>2019-08-11T07:57:42.000Z</time>
      </trkpt>
      <trkpt lat="43.36983" lon="2.23991">
        <ele>628.5</ele>
        <time>2019-08-11T07:57:43.000Z</time>
      </trkpt>
      <trkpt lat="43.36982" lon="2.23994">
        <ele>628.4</ele>
        <time>2019-08-11T07:57:44.000Z</time>
      </trkpt>
      <trkpt lat="43.36981" lon="2.23997">
        <ele>628.4</ele>
        <time>2019-08-11T07:57:45.000Z</time>
      </trkpt>
      <trkpt lat="43.36981" lon="2.24">
        <ele>628.4</ele>
        <time>2019-08-11T07:57:46.000Z</time>
      </trkpt>
      <trkpt lat="43.3698" lon="2.24003">
        <ele>628.2</ele>
        <time>2019-08-11T07:57:47.000Z</time>
      </trkpt>
      <trkpt lat="43.36979" lon="2.24005">
        <ele>628.1</ele>
        <time>2019-08-11T07:57:48.000Z</time>
      </trkpt>
      <trkpt lat="43.36979" lon="2.24008">
        <ele>627.9</ele>
        <time>2019-08-11T07:57:49.000Z</time>
      </trkpt>
      <trkpt lat="43.36978" lon="2.24011">
        <ele>627.8</ele>
        <time>2019-08-11T07:57:50.000Z</time>
      </trkpt>
      <trkpt lat="43.36977" lon="2.24014">
        <ele>627.6</ele>
        <time>2019-08-11T07:57:51.000Z</time>
      </trkpt>
      <trkpt lat="43.36977" lon="2.24017">
        <ele>627.5</ele>
        <time>2019-08-11T07:57:52.000Z</time>
      </trkpt>
      <trkpt lat="43.36976" lon="2.2402">
        <ele>627.3</ele>
        <time>2019-08-11T07:57:53.000Z</time>
      </trkpt>
      <trkpt lat="43.36975" lon="2.24024">
        <ele>627.2</ele>
        <time>2019-08-11T07:57:54.000Z</time>
      </trkpt>
      <trkpt lat="43.36975" lon="2.24027">
        <ele>627</ele>
        <time>2019-08-11T07:57:55.000Z</time>
      </trkpt>
      <trkpt lat="43.36974" lon="2.2403">
        <ele>626.8</ele>
        <time>2019-08-11T07:57:56.000Z</time>
      </trkpt>
      <trkpt lat="43.36973" lon="2.24033">
        <ele>626.7</ele>
        <time>2019-08-11T07:57:57.000Z</time>
      </trkpt>
      <trkpt lat="43.36973" lon="2.24037">
        <ele>626.5</ele>
        <time>2019-08-11T07:57:58.000Z</time>
      </trkpt>
      <trkpt lat="43.36972" lon="2.2404">
        <ele>626.4</ele>
        <time>2019-08-11T07:57:59.000Z</time>
      </trkpt>
      <trkpt lat="43.36971" lon="2.24044">
        <ele>626.2</ele>
        <time>2019-08-11T07:58:00.000Z</time>
      </trkpt>
      <trkpt lat="43.36971" lon="2.24048">
        <ele>626</ele>
        <time>2019-08-11T07:58:01.000Z</time>
      </trkpt>
      <trkpt lat="43.3697" lon="2.24051">
        <ele>625.9</ele>
        <time>2019-08-11T07:58:02.000Z</time>
      </trkpt>
      <trkpt lat="43.36969" lon="2.24055">
        <ele>625.7</ele>
        <time>2019-08-11T07:58:03.000Z</time>
      </trkpt>
      <trkpt lat="43.36969" lon="2.24058">
        <ele>625.5</ele>
        <time>2019-08-11T07:58:04.000Z</time>
      </trkpt>
      <trkpt lat="43.36968" lon="2.24062">
        <ele>625.4</ele>
        <time>2019-08-11T07:58:05.000Z</time>
      </trkpt>
      <trkpt lat="43.36967" lon="2.24066">
        <ele>625.2</ele>
        <time>2019-08-11T07:58:06.000Z</time>
      </trkpt>
      <trkpt lat="43.36966" lon="2.24069">
        <ele>625</ele>
        <time>2019-08-11T07:58:07.000Z</time>
      </trkpt>
      <trkpt lat="43.36966" lon="2.24073">
        <ele>624.9</ele>
        <time>2019-08-11T07:58:08.000Z</time>
      </trkpt>
      <trkpt lat="43.36965" lon="2.24076">
        <ele>624.7</ele>
        <time>2019-08-11T07:58:09.000Z</time>
      </trkpt>
      <trkpt lat="43.36964" lon="2.2408">
        <ele>624.5</ele>
        <time>2019-08-11T07:58:10.000Z</time>
      </trkpt>
      <trkpt lat="43.36963" lon="2.24083">
        <ele>624.4</ele>
        <time>2019-08-11T07:58:11.000Z</time>
      </trkpt>
      <trkpt lat="43.36962" lon="2.24086">
        <ele>624.3</ele>
        <time>2019-08-11T07:58:12.000Z</time>
      </trkpt>
      <trkpt lat="43.36962" lon="2.2409">
        <ele>624.2</ele>
        <time>2019-08-11T07:58:13.000Z</time>
      </trkpt>
      <trkpt lat="43.36961" lon="2.24094">
        <ele>624.1</ele>
        <time>2019-08-11T07:58:14.000Z</time>
      </trkpt>
      <trkpt lat="43.3696" lon="2.24097">
        <ele>624.1</ele>
        <time>2019-08-11T07:58:15.000Z</time>
      </trkpt>
      <trkpt lat="43.3696" lon="2.24101">
        <ele>624</ele>
        <time>2019-08-11T07:58:16.000Z</time>
      </trkpt>
      <trkpt lat="43.3696" lon="2.24105">
        <ele>623.9</ele>
        <time>2019-08-11T07:58:17.000Z</time>
      </trkpt>
      <trkpt lat="43.36959" lon="2.24109">
        <ele>623.9</ele>
        <time>2019-08-11T07:58:18.000Z</time>
      </trkpt>
      <trkpt lat="43.36959" lon="2.24112">
        <ele>623.9</ele>
        <time>2019-08-11T07:58:19.000Z</time>
      </trkpt>
      <trkpt lat="43.36959" lon="2.24115">
        <ele>623.9</ele>
        <time>2019-08-11T07:58:20.000Z</time>
      </trkpt>
      <trkpt lat="43.36959" lon="2.24118">
        <ele>623.9</ele>
        <time>2019-08-11T07:58:21.000Z</time>
      </trkpt>
      <trkpt lat="43.36959" lon="2.24122">
        <ele>623.8</ele>
        <time>2019-08-11T07:58:22.000Z</time>
      </trkpt>
      <trkpt lat="43.36959" lon="2.24125">
        <ele>623.8</ele>
        <time>2019-08-11T07:58:23.000Z</time>
      </trkpt>
      <trkpt lat="43.36958" lon="2.24129">
        <ele>623.7</ele>
        <time>2019-08-11T07:58:24.000Z</time>
      </trkpt>
      <trkpt lat="43.36958" lon="2.24132">
        <ele>623.7</ele>
        <time>2019-08-11T07:58:25.000Z</time>
      </trkpt>
      <trkpt lat="43.36957" lon="2.24136">
        <ele>623.6</ele>
        <time>2019-08-11T07:58:26.000Z</time>
      </trkpt>
      <trkpt lat="43.36957" lon="2.24139">
        <ele>623.6</ele>
        <time>2019-08-11T07:58:27.000Z</time>
      </trkpt>
      <trkpt lat="43.36956" lon="2.24142">
        <ele>623.5</ele>
        <time>2019-08-11T07:58:28.000Z</time>
      </trkpt>
      <trkpt lat="43.36956" lon="2.24146">
        <ele>623.5</ele>
        <time>2019-08-11T07:58:29.000Z</time>
      </trkpt>
      <trkpt lat="43.36955" lon="2.24149">
        <ele>623.4</ele>
        <time>2019-08-11T07:58:30.000Z</time>
      </trkpt>
      <trkpt lat="43.36955" lon="2.24153">
        <ele>623.4</ele>
        <time>2019-08-11T07:58:31.000Z</time>
      </trkpt>
      <trkpt lat="43.36955" lon="2.24156">
        <ele>623.4</ele>
        <time>2019-08-11T07:58:32.000Z</time>
      </trkpt>
      <trkpt lat="43.36955" lon="2.2416">
        <ele>623.3</ele>
        <time>2019-08-11T07:58:33.000Z</time>
      </trkpt>
      <trkpt lat="43.36955" lon="2.24163">
        <ele>623.3</ele>
        <time>2019-08-11T07:58:34.000Z</time>
      </trkpt>
      <trkpt lat="43.36955" lon="2.24167">
        <ele>623.3</ele>
        <time>2019-08-11T07:58:35.000Z</time>
      </trkpt>
      <trkpt lat="43.36956" lon="2.2417">
        <ele>623.4</ele>
        <time>2019-08-11T07:58:36.000Z</time>
      </trkpt>
      <trkpt lat="43.36956" lon="2.24174">
        <ele>623.5</ele>
        <time>2019-08-11T07:58:37.000Z</time>
      </trkpt>
      <trkpt lat="43.36956" lon="2.24177">
        <ele>623.5</ele>
        <time>2019-08-11T07:58:38.000Z</time>
      </trkpt>
      <trkpt lat="43.36955" lon="2.24181">
        <ele>623.6</ele>
        <time>2019-08-11T07:58:39.000Z</time>
      </trkpt>
      <trkpt lat="43.36955" lon="2.24184">
        <ele>623.6</ele>
        <time>2019-08-11T07:58:40.000Z</time>
      </trkpt>
      <trkpt lat="43.36955" lon="2.24188">
        <ele>623.7</ele>
        <time>2019-08-11T07:58:41.000Z</time>
      </trkpt>
      <trkpt lat="43.36954" lon="2.24191">
        <ele>623.7</ele>
        <time>2019-08-11T07:58:42.000Z</time>
      </trkpt>
      <trkpt lat="43.36954" lon="2.24195">
        <ele>623.8</ele>
        <time>2019-08-11T07:58:43.000Z</time>
      </trkpt>
      <trkpt lat="43.36953" lon="2.24198">
        <ele>623.8</ele>
        <time>2019-08-11T07:58:44.000Z</time>
      </trkpt>
      <trkpt lat="43.36953" lon="2.24201">
        <ele>623.8</ele>
        <time>2019-08-11T07:58:45.000Z</time>
      </trkpt>
      <trkpt lat="43.36952" lon="2.24205">
        <ele>623.8</ele>
        <time>2019-08-11T07:58:46.000Z</time>
      </trkpt>
      <trkpt lat="43.36951" lon="2.24208">
        <ele>623.9</ele>
        <time>2019-08-11T07:58:47.000Z</time>
      </trkpt>
      <trkpt lat="43.36951" lon="2.24211">
        <ele>623.9</ele>
        <time>2019-08-11T07:58:48.000Z</time>
      </trkpt>
      <trkpt lat="43.3695" lon="2.24215">
        <ele>623.9</ele>
        <time>2019-08-11T07:58:49.000Z</time>
      </trkpt>
      <trkpt lat="43.3695" lon="2.24218">
        <ele>624</ele>
        <time>2019-08-11T07:58:50.000Z</time>
      </trkpt>
      <trkpt lat="43.36949" lon="2.24221">
        <ele>624</ele>
        <time>2019-08-11T07:58:51.000Z</time>
      </trkpt>
      <trkpt lat="43.36948" lon="2.24224">
        <ele>624</ele>
        <time>2019-08-11T07:58:52.000Z</time>
      </trkpt>
      <trkpt lat="43.36948" lon="2.24227">
        <ele>624.1</ele>
        <time>2019-08-11T07:58:53.000Z</time>
      </trkpt>
      <trkpt lat="43.36948" lon="2.2423">
        <ele>624.1</ele>
        <time>2019-08-11T07:58:54.000Z</time>
      </trkpt>
      <trkpt lat="43.36947" lon="2.24233">
        <ele>624.1</ele>
        <time>2019-08-11T07:58:55.000Z</time>
      </trkpt>
      <trkpt lat="43.36947" lon="2.24236">
        <ele>624.2</ele>
        <time>2019-08-11T07:58:56.000Z</time>
      </trkpt>
      <trkpt lat="43.36947" lon="2.24239">
        <ele>624.2</ele>
        <time>2019-08-11T07:58:57.000Z</time>
      </trkpt>
      <trkpt lat="43.36947" lon="2.24242">
        <ele>624.3</ele>
        <time>2019-08-11T07:58:58.000Z</time>
      </trkpt>
      <trkpt lat="43.36947" lon="2.24245">
        <ele>624.4</ele>
        <time>2019-08-11T07:58:59.000Z</time>
      </trkpt>
      <trkpt lat="43.36947" lon="2.24249">
        <ele>624.4</ele>
        <time>2019-08-11T07:59:00.000Z</time>
      </trkpt>
      <trkpt lat="43.36947" lon="2.24252">
        <ele>624.5</ele>
        <time>2019-08-11T07:59:01.000Z</time>
      </trkpt>
      <trkpt lat="43.36947" lon="2.24255">
        <ele>624.6</ele>
        <time>2019-08-11T07:59:02.000Z</time>
      </trkpt>
      <trkpt lat="43.36947" lon="2.24259">
        <ele>624.7</ele>
        <time>2019-08-11T07:59:03.000Z</time>
      </trkpt>
      <trkpt lat="43.36947" lon="2.24262">
        <ele>624.9</ele>
        <time>2019-08-11T07:59:04.000Z</time>
      </trkpt>
      <trkpt lat="43.36947" lon="2.24266">
        <ele>625</ele>
        <time>2019-08-11T07:59:05.000Z</time>
      </trkpt>
      <trkpt lat="43.36947" lon="2.24269">
        <ele>625.1</ele>
        <time>2019-08-11T07:59:06.000Z</time>
      </trkpt>
      <trkpt lat="43.36947" lon="2.24272">
        <ele>625.2</ele>
        <time>2019-08-11T07:59:07.000Z</time>
      </trkpt>
      <trkpt lat="43.36947" lon="2.24276">
        <ele>625.4</ele>
        <time>2019-08-11T07:59:08.000Z</time>
      </trkpt>
      <trkpt lat="43.36948" lon="2.24279">
        <ele>625.5</ele>
        <time>2019-08-11T07:59:09.000Z</time>
      </trkpt>
      <trkpt lat="43.36948" lon="2.24282">
        <ele>625.6</ele>
        <time>2019-08-11T07:59:10.000Z</time>
      </trkpt>
      <trkpt lat="43.36948" lon="2.24286">
        <ele>625.7</ele>
        <time>2019-08-11T07:59:11.000Z</time>
      </trkpt>
      <trkpt lat="43.36949" lon="2.24289">
        <ele>625.9</ele>
        <time>2019-08-11T07:59:12.000Z</time>
      </trkpt>
      <trkpt lat="43.36949" lon="2.24292">
        <ele>626</ele>
        <time>2019-08-11T07:59:13.000Z</time>
      </trkpt>
      <trkpt lat="43.36949" lon="2.24295">
        <ele>626.1</ele>
        <time>2019-08-11T07:59:14.000Z</time>
      </trkpt>
      <trkpt lat="43.3695" lon="2.24298">
        <ele>626.2</ele>
        <time>2019-08-11T07:59:15.000Z</time>
      </trkpt>
      <trkpt lat="43.3695" lon="2.24301">
        <ele>626.3</ele>
        <time>2019-08-11T07:59:16.000Z</time>
      </trkpt>
      <trkpt lat="43.3695" lon="2.24304">
        <ele>626.4</ele>
        <time>2019-08-11T07:59:17.000Z</time>
      </trkpt>
      <trkpt lat="43.36951" lon="2.24307">
        <ele>626.5</ele>
        <time>2019-08-11T07:59:18.000Z</time>
      </trkpt>
      <trkpt lat="43.36951" lon="2.2431">
        <ele>626.6</ele>
        <time>2019-08-11T07:59:19.000Z</time>
      </trkpt>
      <trkpt lat="43.36951" lon="2.24313">
        <ele>626.7</ele>
        <time>2019-08-11T07:59:20.000Z</time>
      </trkpt>
      <trkpt lat="43.36951" lon="2.24316">
        <ele>626.8</ele>
        <time>2019-08-11T07:59:21.000Z</time>
      </trkpt>
      <trkpt lat="43.36952" lon="2.24319">
        <ele>627</ele>
        <time>2019-08-11T07:59:22.000Z</time>
      </trkpt>
      <trkpt lat="43.36952" lon="2.24322">
        <ele>627.1</ele>
        <time>2019-08-11T07:59:23.000Z</time>
      </trkpt>
      <trkpt lat="43.36952" lon="2.24325">
        <ele>627.2</ele>
        <time>2019-08-11T07:59:24.000Z</time>
      </trkpt>
      <trkpt lat="43.36952" lon="2.24328">
        <ele>627.2</ele>
        <time>2019-08-11T07:59:25.000Z</time>
      </trkpt>
      <trkpt lat="43.36953" lon="2.2433">
        <ele>627.3</ele>
        <time>2019-08-11T07:59:26.000Z</time>
      </trkpt>
      <trkpt lat="43.36953" lon="2.24331">
        <ele>627.4</ele>
        <time>2019-08-11T07:59:27.000Z</time>
      </trkpt>
      <trkpt lat="43.36953" lon="2.24332">
        <ele>627.4</ele>
        <time>2019-08-11T07:59:28.000Z</time>
      </trkpt>
      <trkpt lat="43.36952" lon="2.24332">
        <ele>627.4</ele>
        <time>2019-08-11T07:59:29.000Z</time>
      </trkpt>
      <trkpt lat="43.36951" lon="2.24331">
        <ele>627.3</ele>
        <time>2019-08-11T07:59:30.000Z</time>
      </trkpt>
      <trkpt lat="43.3695" lon="2.24329">
        <ele>627.2</ele>
        <time>2019-08-11T07:59:31.000Z</time>
      </trkpt>
      <trkpt lat="43.36949" lon="2.24327">
        <ele>627.2</ele>
        <time>2019-08-11T07:59:32.000Z</time>
      </trkpt>
      <trkpt lat="43.3695" lon="2.24325">
        <ele>627.1</ele>
        <time>2019-08-11T07:59:33.000Z</time>
      </trkpt>
      <trkpt lat="43.3695" lon="2.24323">
        <ele>627</ele>
        <time>2019-08-11T07:59:34.000Z</time>
      </trkpt>
      <trkpt lat="43.3695" lon="2.24321">
        <ele>627</ele>
        <time>2019-08-11T07:59:35.000Z</time>
      </trkpt>
      <trkpt lat="43.3695" lon="2.24319">
        <ele>626.9</ele>
        <time>2019-08-11T07:59:36.000Z</time>
      </trkpt>
      <trkpt lat="43.3695" lon="2.24317">
        <ele>626.9</ele>
        <time>2019-08-11T07:59:37.000Z</time>
      </trkpt>
      <trkpt lat="43.36949" lon="2.24316">
        <ele>626.8</ele>
        <time>2019-08-11T07:59:38.000Z</time>
      </trkpt>
      <trkpt lat="43.36947" lon="2.24314">
        <ele>626.7</ele>
        <time>2019-08-11T07:59:39.000Z</time>
      </trkpt>
      <trkpt lat="43.36946" lon="2.24313">
        <ele>626.6</ele>
        <time>2019-08-11T07:59:40.000Z</time>
      </trkpt>
      <trkpt lat="43.36944" lon="2.24312">
        <ele>626.6</ele>
        <time>2019-08-11T07:59:41.000Z</time>
      </trkpt>
      <trkpt lat="43.36942" lon="2.24311">
        <ele>626.5</ele>
        <time>2019-08-11T07:59:42.000Z</time>
      </trkpt>
      <trkpt lat="43.3694" lon="2.24311">
        <ele>626.4</ele>
        <time>2019-08-11T07:59:43.000Z</time>
      </trkpt>
      <trkpt lat="43.36938" lon="2.2431">
        <ele>626.3</ele>
        <time>2019-08-11T07:59:44.000Z</time>
      </trkpt>
      <trkpt lat="43.36935" lon="2.2431">
        <ele>626.3</ele>
        <time>2019-08-11T07:59:45.000Z</time>
      </trkpt>
      <trkpt lat="43.36933" lon="2.2431">
        <ele>626.2</ele>
        <time>2019-08-11T07:59:46.000Z</time>
      </trkpt>
      <trkpt lat="43.36931" lon="2.2431">
        <ele>626.2</ele>
        <time>2019-08-11T07:59:47.000Z</time>
      </trkpt>
      <trkpt lat="43.36928" lon="2.2431">
        <ele>626.1</ele>
        <time>2019-08-11T07:59:48.000Z</time>
      </trkpt>
      <trkpt lat="43.36926" lon="2.2431">
        <ele>626.1</ele>
        <time>2019-08-11T07:59:49.000Z</time>
      </trkpt>
      <trkpt lat="43.36923" lon="2.24311">
        <ele>626</ele>
        <time>2019-08-11T07:59:50.000Z</time>
      </trkpt>
      <trkpt lat="43.36921" lon="2.24311">
        <ele>626</ele>
        <time>2019-08-11T07:59:51.000Z</time>
      </trkpt>
      <trkpt lat="43.36918" lon="2.24311">
        <ele>626</ele>
        <time>2019-08-11T07:59:52.000Z</time>
      </trkpt>
      <trkpt lat="43.36916" lon="2.24311">
        <ele>625.9</ele>
        <time>2019-08-11T07:59:53.000Z</time>
      </trkpt>
      <trkpt lat="43.36913" lon="2.24311">
        <ele>625.7</ele>
        <time>2019-08-11T07:59:54.000Z</time>
      </trkpt>
      <trkpt lat="43.36911" lon="2.24311">
        <ele>625.5</ele>
        <time>2019-08-11T07:59:55.000Z</time>
      </trkpt>
      <trkpt lat="43.36908" lon="2.24311">
        <ele>625.3</ele>
        <time>2019-08-11T07:59:56.000Z</time>
      </trkpt>
      <trkpt lat="43.36905" lon="2.24311">
        <ele>625.2</ele>
        <time>2019-08-11T07:59:57.000Z</time>
      </trkpt>
      <trkpt lat="43.36903" lon="2.24312">
        <ele>625</ele>
        <time>2019-08-11T07:59:58.000Z</time>
      </trkpt>
      <trkpt lat="43.369" lon="2.24312">
        <ele>624.8</ele>
        <time>2019-08-11T07:59:59.000Z</time>
      </trkpt>
      <trkpt lat="43.36898" lon="2.24311">
        <ele>624.6</ele>
        <time>2019-08-11T08:00:00.000Z</time>
      </trkpt>
      <trkpt lat="43.36895" lon="2.24311">
        <ele>624.5</ele>
        <time>2019-08-11T08:00:01.000Z</time>
      </trkpt>
      <trkpt lat="43.36893" lon="2.24311">
        <ele>624.3</ele>
        <time>2019-08-11T08:00:02.000Z</time>
      </trkpt>
      <trkpt lat="43.3689" lon="2.24311">
        <ele>624.1</ele>
        <time>2019-08-11T08:00:03.000Z</time>
      </trkpt>
      <trkpt lat="43.36888" lon="2.24311">
        <ele>623.9</ele>
        <time>2019-08-11T08:00:04.000Z</time>
      </trkpt>
      <trkpt lat="43.36885" lon="2.24311">
        <ele>623.8</ele>
        <time>2019-08-11T08:00:05.000Z</time>
      </trkpt>
      <trkpt lat="43.36883" lon="2.24311">
        <ele>623.6</ele>
        <time>2019-08-11T08:00:06.000Z</time>
      </trkpt>
      <trkpt lat="43.3688" lon="2.2431">
        <ele>623.4</ele>
        <time>2019-08-11T08:00:07.000Z</time>
      </trkpt>
      <trkpt lat="43.36878" lon="2.2431">
        <ele>623.2</ele>
        <time>2019-08-11T08:00:08.000Z</time>
      </trkpt>
      <trkpt lat="43.36875" lon="2.2431">
        <ele>623</ele>
        <time>2019-08-11T08:00:09.000Z</time>
      </trkpt>
      <trkpt lat="43.36873" lon="2.2431">
        <ele>622.9</ele>
        <time>2019-08-11T08:00:10.000Z</time>
      </trkpt>
      <trkpt lat="43.3687" lon="2.2431">
        <ele>622.7</ele>
        <time>2019-08-11T08:00:11.000Z</time>
      </trkpt>
      <trkpt lat="43.36868" lon="2.2431">
        <ele>622.5</ele>
        <time>2019-08-11T08:00:12.000Z</time>
      </trkpt>
      <trkpt lat="43.36865" lon="2.24309">
        <ele>622.3</ele>
        <time>2019-08-11T08:00:13.000Z</time>
      </trkpt>
      <trkpt lat="43.36862" lon="2.24309">
        <ele>622.1</ele>
        <time>2019-08-11T08:00:14.000Z</time>
      </trkpt>
      <trkpt lat="43.3686" lon="2.24309">
        <ele>621.9</ele>
        <time>2019-08-11T08:00:15.000Z</time>
      </trkpt>
      <trkpt lat="43.36857" lon="2.24309">
        <ele>621.8</ele>
        <time>2019-08-11T08:00:16.000Z</time>
      </trkpt>
      <trkpt lat="43.36855" lon="2.24309">
        <ele>621.6</ele>
        <time>2019-08-11T08:00:17.000Z</time>
      </trkpt>
      <trkpt lat="43.36852" lon="2.24309">
        <ele>621.4</ele>
        <time>2019-08-11T08:00:18.000Z</time>
      </trkpt>
      <trkpt lat="43.3685" lon="2.24309">
        <ele>621.3</ele>
        <time>2019-08-11T08:00:19.000Z</time>
      </trkpt>
      <trkpt lat="43.36847" lon="2.24309">
        <ele>621.1</ele>
        <time>2019-08-11T08:00:20.000Z</time>
      </trkpt>
      <trkpt lat="43.36845" lon="2.24309">
        <ele>620.9</ele>
        <time>2019-08-11T08:00:21.000Z</time>
      </trkpt>
      <trkpt lat="43.36843" lon="2.24309">
        <ele>620.8</ele>
        <time>2019-08-11T08:00:22.000Z</time>
      </trkpt>
      <trkpt lat="43.36841" lon="2.24308">
        <ele>620.6</ele>
        <time>2019-08-11T08:00:23.000Z</time>
      </trkpt>
      <trkpt lat="43.36838" lon="2.24308">
        <ele>620.4</ele>
        <time>2019-08-11T08:00:24.000Z</time>
      </trkpt>
      <trkpt lat="43.36836" lon="2.24308">
        <ele>620.2</ele>
        <time>2019-08-11T08:00:25.000Z</time>
      </trkpt>
      <trkpt lat="43.36833" lon="2.24307">
        <ele>620</ele>
        <time>2019-08-11T08:00:26.000Z</time>
      </trkpt>
      <trkpt lat="43.3683" lon="2.24308">
        <ele>619.6</ele>
        <time>2019-08-11T08:00:27.000Z</time>
      </trkpt>
      <trkpt lat="43.36827" lon="2.24308">
        <ele>619.3</ele>
        <time>2019-08-11T08:00:28.000Z</time>
      </trkpt>
      <trkpt lat="43.36824" lon="2.24309">
        <ele>619</ele>
        <time>2019-08-11T08:00:29.000Z</time>
      </trkpt>
      <trkpt lat="43.36822" lon="2.24311">
        <ele>618.7</ele>
        <time>2019-08-11T08:00:30.000Z</time>
      </trkpt>
      <trkpt lat="43.3682" lon="2.24313">
        <ele>618.5</ele>
        <time>2019-08-11T08:00:31.000Z</time>
      </trkpt>
      <trkpt lat="43.36818" lon="2.24315">
        <ele>618.3</ele>
        <time>2019-08-11T08:00:32.000Z</time>
      </trkpt>
      <trkpt lat="43.36816" lon="2.24318">
        <ele>618.1</ele>
        <time>2019-08-11T08:00:33.000Z</time>
      </trkpt>
      <trkpt lat="43.36815" lon="2.2432">
        <ele>618</ele>
        <time>2019-08-11T08:00:34.000Z</time>
      </trkpt>
      <trkpt lat="43.36813" lon="2.24323">
        <ele>617.9</ele>
        <time>2019-08-11T08:00:35.000Z</time>
      </trkpt>
      <trkpt lat="43.36812" lon="2.24326">
        <ele>617.8</ele>
        <time>2019-08-11T08:00:36.000Z</time>
      </trkpt>
      <trkpt lat="43.36811" lon="2.24329">
        <ele>617.7</ele>
        <time>2019-08-11T08:00:37.000Z</time>
      </trkpt>
      <trkpt lat="43.3681" lon="2.24333">
        <ele>617.6</ele>
        <time>2019-08-11T08:00:38.000Z</time>
      </trkpt>
      <trkpt lat="43.36809" lon="2.24336">
        <ele>617.6</ele>
        <time>2019-08-11T08:00:39.000Z</time>
      </trkpt>
      <trkpt lat="43.36808" lon="2.24339">
        <ele>617.7</ele>
        <time>2019-08-11T08:00:40.000Z</time>
      </trkpt>
      <trkpt lat="43.36807" lon="2.24343">
        <ele>617.7</ele>
        <time>2019-08-11T08:00:41.000Z</time>
      </trkpt>
      <trkpt lat="43.36806" lon="2.24346">
        <ele>617.8</ele>
        <time>2019-08-11T08:00:42.000Z</time>
      </trkpt>
      <trkpt lat="43.36805" lon="2.24349">
        <ele>617.8</ele>
        <time>2019-08-11T08:00:43.000Z</time>
      </trkpt>
      <trkpt lat="43.36804" lon="2.24352">
        <ele>617.9</ele>
        <time>2019-08-11T08:00:44.000Z</time>
      </trkpt>
      <trkpt lat="43.36803" lon="2.24356">
        <ele>617.9</ele>
        <time>2019-08-11T08:00:45.000Z</time>
      </trkpt>
      <trkpt lat="43.36802" lon="2.24359">
        <ele>617.9</ele>
        <time>2019-08-11T08:00:46.000Z</time>
      </trkpt>
      <trkpt lat="43.36801" lon="2.24362">
        <ele>617.9</ele>
        <time>2019-08-11T08:00:47.000Z</time>
      </trkpt>
      <trkpt lat="43.368" lon="2.24365">
        <ele>618</ele>
        <time>2019-08-11T08:00:48.000Z</time>
      </trkpt>
      <trkpt lat="43.36799" lon="2.24368">
        <ele>618</ele>
        <time>2019-08-11T08:00:49.000Z</time>
      </trkpt>
      <trkpt lat="43.36798" lon="2.24371">
        <ele>618</ele>
        <time>2019-08-11T08:00:50.000Z</time>
      </trkpt>
      <trkpt lat="43.36797" lon="2.24374">
        <ele>618</ele>
        <time>2019-08-11T08:00:51.000Z</time>
      </trkpt>
      <trkpt lat="43.36796" lon="2.24376">
        <ele>618.1</ele>
        <time>2019-08-11T08:00:52.000Z</time>
      </trkpt>
      <trkpt lat="43.36795" lon="2.24379">
        <ele>618.1</ele>
        <time>2019-08-11T08:00:53.000Z</time>
      </trkpt>
      <trkpt lat="43.36795" lon="2.24382">
        <ele>618.1</ele>
        <time>2019-08-11T08:00:54.000Z</time>
      </trkpt>
      <trkpt lat="43.36794" lon="2.24385">
        <ele>618.1</ele>
        <time>2019-08-11T08:00:55.000Z</time>
      </trkpt>
      <trkpt lat="43.36793" lon="2.24388">
        <ele>618.1</ele>
        <time>2019-08-11T08:00:56.000Z</time>
      </trkpt>
      <trkpt lat="43.36792" lon="2.24391">
        <ele>618.1</ele>
        <time>2019-08-11T08:00:57.000Z</time>
      </trkpt>
      <trkpt lat="43.36791" lon="2.24394">
        <ele>618.1</ele>
        <time>2019-08-11T08:00:58.000Z</time>
      </trkpt>
      <trkpt lat="43.3679" lon="2.24397">
        <ele>618.1</ele>
        <time>2019-08-11T08:00:59.000Z</time>
      </trkpt>
      <trkpt lat="43.36789" lon="2.244">
        <ele>618.1</ele>
        <time>2019-08-11T08:01:00.000Z</time>
      </trkpt>
      <trkpt lat="43.36788" lon="2.24403">
        <ele>618.1</ele>
        <time>2019-08-11T08:01:01.000Z</time>
      </trkpt>
      <trkpt lat="43.36787" lon="2.24406">
        <ele>618.1</ele>
        <time>2019-08-11T08:01:02.000Z</time>
      </trkpt>
      <trkpt lat="43.36786" lon="2.24409">
        <ele>618.1</ele>
        <time>2019-08-11T08:01:03.000Z</time>
      </trkpt>
      <trkpt lat="43.36785" lon="2.24412">
        <ele>618.1</ele>
        <time>2019-08-11T08:01:04.000Z</time>
      </trkpt>
      <trkpt lat="43.36784" lon="2.24416">
        <ele>618.1</ele>
        <time>2019-08-11T08:01:05.000Z</time>
      </trkpt>
      <trkpt lat="43.36783" lon="2.24419">
        <ele>617.9</ele>
        <time>2019-08-11T08:01:06.000Z</time>
      </trkpt>
      <trkpt lat="43.36782" lon="2.24422">
        <ele>617.7</ele>
        <time>2019-08-11T08:01:07.000Z</time>
      </trkpt>
      <trkpt lat="43.36781" lon="2.24425">
        <ele>617.5</ele>
        <time>2019-08-11T08:01:08.000Z</time>
      </trkpt>
      <trkpt lat="43.3678" lon="2.24429">
        <ele>617.3</ele>
        <time>2019-08-11T08:01:09.000Z</time>
      </trkpt>
      <trkpt lat="43.36779" lon="2.24432">
        <ele>617.2</ele>
        <time>2019-08-11T08:01:10.000Z</time>
      </trkpt>
      <trkpt lat="43.36778" lon="2.24435">
        <ele>617</ele>
        <time>2019-08-11T08:01:11.000Z</time>
      </trkpt>
      <trkpt lat="43.36777" lon="2.24438">
        <ele>616.8</ele>
        <time>2019-08-11T08:01:12.000Z</time>
      </trkpt>
      <trkpt lat="43.36775" lon="2.24442">
        <ele>616.6</ele>
        <time>2019-08-11T08:01:13.000Z</time>
      </trkpt>
      <trkpt lat="43.36774" lon="2.24445">
        <ele>616.4</ele>
        <time>2019-08-11T08:01:14.000Z</time>
      </trkpt>
      <trkpt lat="43.36773" lon="2.24448">
        <ele>616.3</ele>
        <time>2019-08-11T08:01:15.000Z</time>
      </trkpt>
      <trkpt lat="43.36772" lon="2.24451">
        <ele>616.1</ele>
        <time>2019-08-11T08:01:16.000Z</time>
      </trkpt>
      <trkpt lat="43.36771" lon="2.24454">
        <ele>616</ele>
        <time>2019-08-11T08:01:17.000Z</time>
      </trkpt>
      <trkpt lat="43.3677" lon="2.24457">
        <ele>615.8</ele>
        <time>2019-08-11T08:01:18.000Z</time>
      </trkpt>
      <trkpt lat="43.36769" lon="2.2446">
        <ele>615.7</ele>
        <time>2019-08-11T08:01:19.000Z</time>
      </trkpt>
      <trkpt lat="43.36768" lon="2.24462">
        <ele>615.6</ele>
        <time>2019-08-11T08:01:20.000Z</time>
      </trkpt>
      <trkpt lat="43.36767" lon="2.24464">
        <ele>615.5</ele>
        <time>2019-08-11T08:01:21.000Z</time>
      </trkpt>
      <trkpt lat="43.36767" lon="2.24467">
        <ele>615.5</ele>
        <time>2019-08-11T08:01:22.000Z</time>
      </trkpt>
      <trkpt lat="43.36766" lon="2.24468">
        <ele>615.4</ele>
        <time>2019-08-11T08:01:23.000Z</time>
      </trkpt>
      <trkpt lat="43.36766" lon="2.2447">
        <ele>615.5</ele>
        <time>2019-08-11T08:01:24.000Z</time>
      </trkpt>
      <trkpt lat="43.36766" lon="2.24472">
        <ele>615.5</ele>
        <time>2019-08-11T08:01:25.000Z</time>
      </trkpt>
      <trkpt lat="43.36766" lon="2.24472">
        <ele>615.5</ele>
        <time>2019-08-11T08:01:26.000Z</time>
      </trkpt>
      <trkpt lat="43.36766" lon="2.24473">
        <ele>615.5</ele>
        <time>2019-08-11T08:01:27.000Z</time>
      </trkpt>
      <trkpt lat="43.36767" lon="2.24473">
        <ele>615.5</ele>
        <time>2019-08-11T08:01:28.000Z</time>
      </trkpt>
      <trkpt lat="43.36767" lon="2.24474">
        <ele>615.6</ele>
        <time>2019-08-11T08:01:29.000Z</time>
      </trkpt>
      <trkpt lat="43.36768" lon="2.24475">
        <ele>615.8</ele>
        <time>2019-08-11T08:01:30.000Z</time>
      </trkpt>
      <trkpt lat="43.36769" lon="2.24476">
        <ele>615.9</ele>
        <time>2019-08-11T08:01:31.000Z</time>
      </trkpt>
      <trkpt lat="43.3677" lon="2.24477">
        <ele>616</ele>
        <time>2019-08-11T08:01:32.000Z</time>
      </trkpt>
      <trkpt lat="43.36771" lon="2.24478">
        <ele>616.1</ele>
        <time>2019-08-11T08:01:33.000Z</time>
      </trkpt>
      <trkpt lat="43.36772" lon="2.2448">
        <ele>616.2</ele>
        <time>2019-08-11T08:01:34.000Z</time>
      </trkpt>
      <trkpt lat="43.36772" lon="2.24481">
        <ele>616.3</ele>
        <time>2019-08-11T08:01:35.000Z</time>
      </trkpt>
      <trkpt lat="43.36773" lon="2.24482">
        <ele>616.4</ele>
        <time>2019-08-11T08:01:36.000Z</time>
      </trkpt>
      <trkpt lat="43.36773" lon="2.24484">
        <ele>616.5</ele>
        <time>2019-08-11T08:01:37.000Z</time>
      </trkpt>
      <trkpt lat="43.36774" lon="2.24485">
        <ele>616.5</ele>
        <time>2019-08-11T08:01:38.000Z</time>
      </trkpt>
      <trkpt lat="43.36775" lon="2.24486">
        <ele>616.6</ele>
        <time>2019-08-11T08:01:39.000Z</time>
      </trkpt>
      <trkpt lat="43.36775" lon="2.24487">
        <ele>616.7</ele>
        <time>2019-08-11T08:01:40.000Z</time>
      </trkpt>
      <trkpt lat="43.36776" lon="2.24488">
        <ele>616.8</ele>
        <time>2019-08-11T08:01:41.000Z</time>
      </trkpt>
      <trkpt lat="43.36777" lon="2.2449">
        <ele>616.9</ele>
        <time>2019-08-11T08:01:42.000Z</time>
      </trkpt>
      <trkpt lat="43.36777" lon="2.24491">
        <ele>616.9</ele>
        <time>2019-08-11T08:01:43.000Z</time>
      </trkpt>
      <trkpt lat="43.36778" lon="2.24492">
        <ele>617</ele>
        <time>2019-08-11T08:01:44.000Z</time>
      </trkpt>
      <trkpt lat="43.36778" lon="2.24493">
        <ele>617</ele>
        <time>2019-08-11T08:01:45.000Z</time>
      </trkpt>
      <trkpt lat="43.36779" lon="2.24494">
        <ele>617.1</ele>
        <time>2019-08-11T08:01:46.000Z</time>
      </trkpt>
      <trkpt lat="43.36779" lon="2.24496">
        <ele>617.2</ele>
        <time>2019-08-11T08:01:47.000Z</time>
      </trkpt>
      <trkpt lat="43.3678" lon="2.24497">
        <ele>617.3</ele>
        <time>2019-08-11T08:01:48.000Z</time>
      </trkpt>
      <trkpt lat="43.36781" lon="2.24498">
        <ele>617.3</ele>
        <time>2019-08-11T08:01:49.000Z</time>
      </trkpt>
      <trkpt lat="43.36782" lon="2.24499">
        <ele>617.4</ele>
        <time>2019-08-11T08:01:50.000Z</time>
      </trkpt>
      <trkpt lat="43.36783" lon="2.245">
        <ele>617.6</ele>
        <time>2019-08-11T08:01:51.000Z</time>
      </trkpt>
      <trkpt lat="43.36784" lon="2.24501">
        <ele>617.6</ele>
        <time>2019-08-11T08:01:52.000Z</time>
      </trkpt>
      <trkpt lat="43.36785" lon="2.24502">
        <ele>617.7</ele>
        <time>2019-08-11T08:01:53.000Z</time>
      </trkpt>
      <trkpt lat="43.36787" lon="2.24504">
        <ele>617.8</ele>
        <time>2019-08-11T08:01:54.000Z</time>
      </trkpt>
      <trkpt lat="43.36788" lon="2.24505">
        <ele>617.8</ele>
        <time>2019-08-11T08:01:55.000Z</time>
      </trkpt>
      <trkpt lat="43.36789" lon="2.24507">
        <ele>617.9</ele>
        <time>2019-08-11T08:01:56.000Z</time>
      </trkpt>
      <trkpt lat="43.3679" lon="2.24508">
        <ele>617.9</ele>
        <time>2019-08-11T08:01:57.000Z</time>
      </trkpt>
      <trkpt lat="43.36791" lon="2.2451">
        <ele>618</ele>
        <time>2019-08-11T08:01:58.000Z</time>
      </trkpt>
      <trkpt lat="43.36792" lon="2.24512">
        <ele>618</ele>
        <time>2019-08-11T08:01:59.000Z</time>
      </trkpt>
      <trkpt lat="43.36794" lon="2.24515">
        <ele>618</ele>
        <time>2019-08-11T08:02:00.000Z</time>
      </trkpt>
      <trkpt lat="43.36795" lon="2.24517">
        <ele>618</ele>
        <time>2019-08-11T08:02:01.000Z</time>
      </trkpt>
      <trkpt lat="43.36796" lon="2.24519">
        <ele>618</ele>
        <time>2019-08-11T08:02:02.000Z</time>
      </trkpt>
      <trkpt lat="43.36797" lon="2.24521">
        <ele>618.1</ele>
        <time>2019-08-11T08:02:03.000Z</time>
      </trkpt>
      <trkpt lat="43.36798" lon="2.24524">
        <ele>618.1</ele>
        <time>2019-08-11T08:02:04.000Z</time>
      </trkpt>
      <trkpt lat="43.368" lon="2.24526">
        <ele>618.1</ele>
        <time>2019-08-11T08:02:05.000Z</time>
      </trkpt>
      <trkpt lat="43.36801" lon="2.24528">
        <ele>618.2</ele>
        <time>2019-08-11T08:02:06.000Z</time>
      </trkpt>
      <trkpt lat="43.36802" lon="2.2453">
        <ele>618.2</ele>
        <time>2019-08-11T08:02:07.000Z</time>
      </trkpt>
      <trkpt lat="43.36804" lon="2.24533">
        <ele>618.3</ele>
        <time>2019-08-11T08:02:08.000Z</time>
      </trkpt>
      <trkpt lat="43.36805" lon="2.24535">
        <ele>618.3</ele>
        <time>2019-08-11T08:02:09.000Z</time>
      </trkpt>
      <trkpt lat="43.36807" lon="2.24537">
        <ele>618.4</ele>
        <time>2019-08-11T08:02:10.000Z</time>
      </trkpt>
      <trkpt lat="43.36808" lon="2.24539">
        <ele>618.4</ele>
        <time>2019-08-11T08:02:11.000Z</time>
      </trkpt>
      <trkpt lat="43.36809" lon="2.24541">
        <ele>618.4</ele>
        <time>2019-08-11T08:02:12.000Z</time>
      </trkpt>
      <trkpt lat="43.36811" lon="2.24543">
        <ele>618.5</ele>
        <time>2019-08-11T08:02:13.000Z</time>
      </trkpt>
      <trkpt lat="43.36812" lon="2.24545">
        <ele>618.6</ele>
        <time>2019-08-11T08:02:14.000Z</time>
      </trkpt>
      <trkpt lat="43.36814" lon="2.24547">
        <ele>618.6</ele>
        <time>2019-08-11T08:02:15.000Z</time>
      </trkpt>
      <trkpt lat="43.36815" lon="2.2455">
        <ele>618.7</ele>
        <time>2019-08-11T08:02:16.000Z</time>
      </trkpt>
      <trkpt lat="43.36817" lon="2.24552">
        <ele>618.8</ele>
        <time>2019-08-11T08:02:17.000Z</time>
      </trkpt>
      <trkpt lat="43.36819" lon="2.24554">
        <ele>618.9</ele>
        <time>2019-08-11T08:02:18.000Z</time>
      </trkpt>
      <trkpt lat="43.36821" lon="2.24556">
        <ele>618.9</ele>
        <time>2019-08-11T08:02:19.000Z</time>
      </trkpt>
      <trkpt lat="43.36823" lon="2.24558">
        <ele>619</ele>
        <time>2019-08-11T08:02:20.000Z</time>
      </trkpt>
      <trkpt lat="43.36825" lon="2.2456">
        <ele>619.1</ele>
        <time>2019-08-11T08:02:21.000Z</time>
      </trkpt>
      <trkpt lat="43.36826" lon="2.24563">
        <ele>619.2</ele>
        <time>2019-08-11T08:02:22.000Z</time>
      </trkpt>
      <trkpt lat="43.36828" lon="2.24565">
        <ele>619.4</ele>
        <time>2019-08-11T08:02:23.000Z</time>
      </trkpt>
      <trkpt lat="43.3683" lon="2.24567">
        <ele>619.5</ele>
        <time>2019-08-11T08:02:24.000Z</time>
      </trkpt>
      <trkpt lat="43.36832" lon="2.24569">
        <ele>619.6</ele>
        <time>2019-08-11T08:02:25.000Z</time>
      </trkpt>
      <trkpt lat="43.36834" lon="2.2457">
        <ele>619.6</ele>
        <time>2019-08-11T08:02:26.000Z</time>
      </trkpt>
      <trkpt lat="43.36835" lon="2.24572">
        <ele>619.6</ele>
        <time>2019-08-11T08:02:27.000Z</time>
      </trkpt>
      <trkpt lat="43.36837" lon="2.24574">
        <ele>619.7</ele>
        <time>2019-08-11T08:02:28.000Z</time>
      </trkpt>
      <trkpt lat="43.36839" lon="2.24576">
        <ele>619.7</ele>
        <time>2019-08-11T08:02:29.000Z</time>
      </trkpt>
      <trkpt lat="43.36841" lon="2.24578">
        <ele>619.7</ele>
        <time>2019-08-11T08:02:30.000Z</time>
      </trkpt>
      <trkpt lat="43.36842" lon="2.24579">
        <ele>619.7</ele>
        <time>2019-08-11T08:02:31.000Z</time>
      </trkpt>
      <trkpt lat="43.36844" lon="2.24581">
        <ele>619.7</ele>
        <time>2019-08-11T08:02:32.000Z</time>
      </trkpt>
      <trkpt lat="43.36846" lon="2.24583">
        <ele>619.8</ele>
        <time>2019-08-11T08:02:33.000Z</time>
      </trkpt>
      <trkpt lat="43.36848" lon="2.24585">
        <ele>619.7</ele>
        <time>2019-08-11T08:02:34.000Z</time>
      </trkpt>
      <trkpt lat="43.36849" lon="2.24587">
        <ele>619.7</ele>
        <time>2019-08-11T08:02:35.000Z</time>
      </trkpt>
      <trkpt lat="43.36851" lon="2.24589">
        <ele>619.7</ele>
        <time>2019-08-11T08:02:36.000Z</time>
      </trkpt>
      <trkpt lat="43.36853" lon="2.24591">
        <ele>619.7</ele>
        <time>2019-08-11T08:02:37.000Z</time>
      </trkpt>
      <trkpt lat="43.36854" lon="2.24593">
        <ele>619.7</ele>
        <time>2019-08-11T08:02:38.000Z</time>
      </trkpt>
      <trkpt lat="43.36856" lon="2.24595">
        <ele>619.6</ele>
        <time>2019-08-11T08:02:39.000Z</time>
      </trkpt>
      <trkpt lat="43.36858" lon="2.24597">
        <ele>619.6</ele>
        <time>2019-08-11T08:02:40.000Z</time>
      </trkpt>
      <trkpt lat="43.36859" lon="2.24599">
        <ele>619.6</ele>
        <time>2019-08-11T08:02:41.000Z</time>
      </trkpt>
      <trkpt lat="43.36861" lon="2.24601">
        <ele>619.6</ele>
        <time>2019-08-11T08:02:42.000Z</time>
      </trkpt>
      <trkpt lat="43.36862" lon="2.24603">
        <ele>619.6</ele>
        <time>2019-08-11T08:02:43.000Z</time>
      </trkpt>
      <trkpt lat="43.36864" lon="2.24606">
        <ele>619.5</ele>
        <time>2019-08-11T08:02:44.000Z</time>
      </trkpt>
      <trkpt lat="43.36866" lon="2.24608">
        <ele>619.5</ele>
        <time>2019-08-11T08:02:45.000Z</time>
      </trkpt>
      <trkpt lat="43.36867" lon="2.2461">
        <ele>619.5</ele>
        <time>2019-08-11T08:02:46.000Z</time>
      </trkpt>
      <trkpt lat="43.36869" lon="2.24613">
        <ele>619.5</ele>
        <time>2019-08-11T08:02:47.000Z</time>
      </trkpt>
      <trkpt lat="43.36871" lon="2.24615">
        <ele>619.5</ele>
        <time>2019-08-11T08:02:48.000Z</time>
      </trkpt>
      <trkpt lat="43.36873" lon="2.24618">
        <ele>619.5</ele>
        <time>2019-08-11T08:02:49.000Z</time>
      </trkpt>
      <trkpt lat="43.36875" lon="2.2462">
        <ele>619.5</ele>
        <time>2019-08-11T08:02:50.000Z</time>
      </trkpt>
      <trkpt lat="43.36876" lon="2.24623">
        <ele>619.5</ele>
        <time>2019-08-11T08:02:51.000Z</time>
      </trkpt>
      <trkpt lat="43.36878" lon="2.24626">
        <ele>619.5</ele>
        <time>2019-08-11T08:02:52.000Z</time>
      </trkpt>
      <trkpt lat="43.3688" lon="2.24628">
        <ele>619.5</ele>
        <time>2019-08-11T08:02:53.000Z</time>
      </trkpt>
      <trkpt lat="43.36882" lon="2.24631">
        <ele>619.5</ele>
        <time>2019-08-11T08:02:54.000Z</time>
      </trkpt>
      <trkpt lat="43.36884" lon="2.24634">
        <ele>619.5</ele>
        <time>2019-08-11T08:02:55.000Z</time>
      </trkpt>
      <trkpt lat="43.36885" lon="2.24636">
        <ele>619.5</ele>
        <time>2019-08-11T08:02:56.000Z</time>
      </trkpt>
      <trkpt lat="43.36887" lon="2.24639">
        <ele>619.5</ele>
        <time>2019-08-11T08:02:57.000Z</time>
      </trkpt>
      <trkpt lat="43.36889" lon="2.24642">
        <ele>619.5</ele>
        <time>2019-08-11T08:02:58.000Z</time>
      </trkpt>
      <trkpt lat="43.3689" lon="2.24644">
        <ele>619.5</ele>
        <time>2019-08-11T08:02:59.000Z</time>
      </trkpt>
      <trkpt lat="43.36892" lon="2.24647">
        <ele>619.6</ele>
        <time>2019-08-11T08:03:00.000Z</time>
      </trkpt>
      <trkpt lat="43.36894" lon="2.24649">
        <ele>619.6</ele>
        <time>2019-08-11T08:03:01.000Z</time>
      </trkpt>
      <trkpt lat="43.36895" lon="2.24652">
        <ele>619.6</ele>
        <time>2019-08-11T08:03:02.000Z</time>
      </trkpt>
      <trkpt lat="43.36897" lon="2.24654">
        <ele>619.7</ele>
        <time>2019-08-11T08:03:03.000Z</time>
      </trkpt>
      <trkpt lat="43.36899" lon="2.24656">
        <ele>619.7</ele>
        <time>2019-08-11T08:03:04.000Z</time>
      </trkpt>
      <trkpt lat="43.369" lon="2.24658">
        <ele>619.8</ele>
        <time>2019-08-11T08:03:05.000Z</time>
      </trkpt>
      <trkpt lat="43.36902" lon="2.2466">
        <ele>619.9</ele>
        <time>2019-08-11T08:03:06.000Z</time>
      </trkpt>
      <trkpt lat="43.36904" lon="2.24662">
        <ele>619.9</ele>
        <time>2019-08-11T08:03:07.000Z</time>
      </trkpt>
      <trkpt lat="43.36905" lon="2.24664">
        <ele>620</ele>
        <time>2019-08-11T08:03:08.000Z</time>
      </trkpt>
      <trkpt lat="43.36907" lon="2.24666">
        <ele>620.1</ele>
        <time>2019-08-11T08:03:09.000Z</time>
      </trkpt>
      <trkpt lat="43.36909" lon="2.24667">
        <ele>620.2</ele>
        <time>2019-08-11T08:03:10.000Z</time>
      </trkpt>
      <trkpt lat="43.3691" lon="2.24668">
        <ele>620.3</ele>
        <time>2019-08-11T08:03:11.000Z</time>
      </trkpt>
      <trkpt lat="43.36912" lon="2.24668">
        <ele>620.4</ele>
        <time>2019-08-11T08:03:12.000Z</time>
      </trkpt>
      <trkpt lat="43.36914" lon="2.24668">
        <ele>620.6</ele>
        <time>2019-08-11T08:03:13.000Z</time>
      </trkpt>
      <trkpt lat="43.36916" lon="2.24667">
        <ele>620.9</ele>
        <time>2019-08-11T08:03:14.000Z</time>
      </trkpt>
      <trkpt lat="43.36918" lon="2.24666">
        <ele>621.1</ele>
        <time>2019-08-11T08:03:15.000Z</time>
      </trkpt>
      <trkpt lat="43.36919" lon="2.24664">
        <ele>621.2</ele>
        <time>2019-08-11T08:03:16.000Z</time>
      </trkpt>
      <trkpt lat="43.36921" lon="2.24662">
        <ele>621.3</ele>
        <time>2019-08-11T08:03:17.000Z</time>
      </trkpt>
      <trkpt lat="43.36923" lon="2.2466">
        <ele>621.5</ele>
        <time>2019-08-11T08:03:18.000Z</time>
      </trkpt>
      <trkpt lat="43.36925" lon="2.24658">
        <ele>621.6</ele>
        <time>2019-08-11T08:03:19.000Z</time>
      </trkpt>
      <trkpt lat="43.36927" lon="2.24656">
        <ele>621.8</ele>
        <time>2019-08-11T08:03:20.000Z</time>
      </trkpt>
      <trkpt lat="43.36929" lon="2.24654">
        <ele>621.9</ele>
        <time>2019-08-11T08:03:21.000Z</time>
      </trkpt>
      <trkpt lat="43.36932" lon="2.24652">
        <ele>622</ele>
        <time>2019-08-11T08:03:22.000Z</time>
      </trkpt>
      <trkpt lat="43.36934" lon="2.24651">
        <ele>622.1</ele>
        <time>2019-08-11T08:03:23.000Z</time>
      </trkpt>
      <trkpt lat="43.36936" lon="2.2465">
        <ele>622.3</ele>
        <time>2019-08-11T08:03:24.000Z</time>
      </trkpt>
      <trkpt lat="43.36939" lon="2.24649">
        <ele>622.4</ele>
        <time>2019-08-11T08:03:25.000Z</time>
      </trkpt>
      <trkpt lat="43.36941" lon="2.24648">
        <ele>622.5</ele>
        <time>2019-08-11T08:03:26.000Z</time>
      </trkpt>
      <trkpt lat="43.36943" lon="2.24649">
        <ele>622.5</ele>
        <time>2019-08-11T08:03:27.000Z</time>
      </trkpt>
      <trkpt lat="43.36945" lon="2.24651">
        <ele>622.5</ele>
        <time>2019-08-11T08:03:28.000Z</time>
      </trkpt>
      <trkpt lat="43.36947" lon="2.24653">
        <ele>622.5</ele>
        <time>2019-08-11T08:03:29.000Z</time>
      </trkpt>
      <trkpt lat="43.36948" lon="2.24657">
        <ele>622.5</ele>
        <time>2019-08-11T08:03:30.000Z</time>
      </trkpt>
      <trkpt lat="43.3695" lon="2.2466">
        <ele>622.4</ele>
        <time>2019-08-11T08:03:31.000Z</time>
      </trkpt>
      <trkpt lat="43.36951" lon="2.24663">
        <ele>622.3</ele>
        <time>2019-08-11T08:03:32.000Z</time>
      </trkpt>
      <trkpt lat="43.36952" lon="2.24666">
        <ele>622.3</ele>
        <time>2019-08-11T08:03:33.000Z</time>
      </trkpt>
      <trkpt lat="43.36953" lon="2.2467">
        <ele>622.1</ele>
        <time>2019-08-11T08:03:34.000Z</time>
      </trkpt>
      <trkpt lat="43.36953" lon="2.24673">
        <ele>621.8</ele>
        <time>2019-08-11T08:03:35.000Z</time>
      </trkpt>
      <trkpt lat="43.36954" lon="2.24677">
        <ele>621.6</ele>
        <time>2019-08-11T08:03:36.000Z</time>
      </trkpt>
      <trkpt lat="43.36954" lon="2.2468">
        <ele>621.3</ele>
        <time>2019-08-11T08:03:37.000Z</time>
      </trkpt>
      <trkpt lat="43.36954" lon="2.24684">
        <ele>621</ele>
        <time>2019-08-11T08:03:38.000Z</time>
      </trkpt>
      <trkpt lat="43.36954" lon="2.24688">
        <ele>620.7</ele>
        <time>2019-08-11T08:03:39.000Z</time>
      </trkpt>
      <trkpt lat="43.36955" lon="2.24692">
        <ele>620.4</ele>
        <time>2019-08-11T08:03:40.000Z</time>
      </trkpt>
      <trkpt lat="43.36955" lon="2.24696">
        <ele>620.1</ele>
        <time>2019-08-11T08:03:41.000Z</time>
      </trkpt>
      <trkpt lat="43.36955" lon="2.247">
        <ele>619.7</ele>
        <time>2019-08-11T08:03:42.000Z</time>
      </trkpt>
      <trkpt lat="43.36955" lon="2.24704">
        <ele>619.4</ele>
        <time>2019-08-11T08:03:43.000Z</time>
      </trkpt>
      <trkpt lat="43.36955" lon="2.24708">
        <ele>619.1</ele>
        <time>2019-08-11T08:03:44.000Z</time>
      </trkpt>
      <trkpt lat="43.36955" lon="2.24712">
        <ele>618.8</ele>
        <time>2019-08-11T08:03:45.000Z</time>
      </trkpt>
      <trkpt lat="43.36956" lon="2.24716">
        <ele>618.5</ele>
        <time>2019-08-11T08:03:46.000Z</time>
      </trkpt>
      <trkpt lat="43.36956" lon="2.2472">
        <ele>618.2</ele>
        <time>2019-08-11T08:03:47.000Z</time>
      </trkpt>
      <trkpt lat="43.36957" lon="2.24724">
        <ele>618</ele>
        <time>2019-08-11T08:03:48.000Z</time>
      </trkpt>
      <trkpt lat="43.36957" lon="2.24728">
        <ele>617.7</ele>
        <time>2019-08-11T08:03:49.000Z</time>
      </trkpt>
      <trkpt lat="43.36958" lon="2.24731">
        <ele>617.5</ele>
        <time>2019-08-11T08:03:50.000Z</time>
      </trkpt>
      <trkpt lat="43.36959" lon="2.24734">
        <ele>617.3</ele>
        <time>2019-08-11T08:03:51.000Z</time>
      </trkpt>
      <trkpt lat="43.3696" lon="2.24737">
        <ele>617.1</ele>
        <time>2019-08-11T08:03:52.000Z</time>
      </trkpt>
      <trkpt lat="43.36961" lon="2.2474">
        <ele>616.9</ele>
        <time>2019-08-11T08:03:53.000Z</time>
      </trkpt>
      <trkpt lat="43.36963" lon="2.24743">
        <ele>616.7</ele>
        <time>2019-08-11T08:03:54.000Z</time>
      </trkpt>
      <trkpt lat="43.36964" lon="2.24746">
        <ele>616.6</ele>
        <time>2019-08-11T08:03:55.000Z</time>
      </trkpt>
      <trkpt lat="43.36966" lon="2.24748">
        <ele>616.5</ele>
        <time>2019-08-11T08:03:56.000Z</time>
      </trkpt>
      <trkpt lat="43.36968" lon="2.2475">
        <ele>616.4</ele>
        <time>2019-08-11T08:03:57.000Z</time>
      </trkpt>
      <trkpt lat="43.36969" lon="2.24752">
        <ele>616.3</ele>
        <time>2019-08-11T08:03:58.000Z</time>
      </trkpt>
      <trkpt lat="43.36971" lon="2.24754">
        <ele>616.2</ele>
        <time>2019-08-11T08:03:59.000Z</time>
      </trkpt>
      <trkpt lat="43.36973" lon="2.24756">
        <ele>616.2</ele>
        <time>2019-08-11T08:04:00.000Z</time>
      </trkpt>
      <trkpt lat="43.36975" lon="2.24757">
        <ele>616.1</ele>
        <time>2019-08-11T08:04:01.000Z</time>
      </trkpt>
      <trkpt lat="43.36977" lon="2.24758">
        <ele>616.1</ele>
        <time>2019-08-11T08:04:02.000Z</time>
      </trkpt>
      <trkpt lat="43.36979" lon="2.24759">
        <ele>616.2</ele>
        <time>2019-08-11T08:04:03.000Z</time>
      </trkpt>
      <trkpt lat="43.36981" lon="2.2476">
        <ele>616.2</ele>
        <time>2019-08-11T08:04:04.000Z</time>
      </trkpt>
      <trkpt lat="43.36984" lon="2.2476">
        <ele>616.2</ele>
        <time>2019-08-11T08:04:05.000Z</time>
      </trkpt>
      <trkpt lat="43.36986" lon="2.24761">
        <ele>616.3</ele>
        <time>2019-08-11T08:04:06.000Z</time>
      </trkpt>
      <trkpt lat="43.36988" lon="2.24761">
        <ele>616.4</ele>
        <time>2019-08-11T08:04:07.000Z</time>
      </trkpt>
      <trkpt lat="43.3699" lon="2.24761">
        <ele>616.5</ele>
        <time>2019-08-11T08:04:08.000Z</time>
      </trkpt>
      <trkpt lat="43.36992" lon="2.24762">
        <ele>616.5</ele>
        <time>2019-08-11T08:04:09.000Z</time>
      </trkpt>
      <trkpt lat="43.36994" lon="2.24762">
        <ele>616.6</ele>
        <time>2019-08-11T08:04:10.000Z</time>
      </trkpt>
      <trkpt lat="43.36996" lon="2.24762">
        <ele>616.6</ele>
        <time>2019-08-11T08:04:11.000Z</time>
      </trkpt>
      <trkpt lat="43.36997" lon="2.24763">
        <ele>616.7</ele>
        <time>2019-08-11T08:04:12.000Z</time>
      </trkpt>
      <trkpt lat="43.36999" lon="2.24763">
        <ele>616.7</ele>
        <time>2019-08-11T08:04:13.000Z</time>
      </trkpt>
      <trkpt lat="43.37" lon="2.24764">
        <ele>616.7</ele>
        <time>2019-08-11T08:04:14.000Z</time>
      </trkpt>
      <trkpt lat="43.37001" lon="2.24765">
        <ele>616.6</ele>
        <time>2019-08-11T08:04:15.000Z</time>
      </trkpt>
      <trkpt lat="43.37002" lon="2.24766">
        <ele>616.5</ele>
        <time>2019-08-11T08:04:16.000Z</time>
      </trkpt>
    </trkseg>
  </trk>
</gpx>